<?xml version="1.0" encoding="UTF-8" standalone="no" ?>
<gpx xmlns="http://www.topografix.com/GPX/1/1" xmlns:xsi="http://www.w3.org/2001/XMLSchema-instance" xsi:schemaLocation="http://www.topografix.com/GPX/1/1 http://www.topografix.com/GPX/1/1/gpx.xsd" version="1.1" creator="VisuGPX - https://www.visugpx.com">
  <metadata>
    <name>160420ROBBenjaminsEdge</name>
    <desc><![CDATA[Sortie de reprise]]></desc>
  </metadata>
  <trk>
    <name><![CDATA[160420ROBBenjaminsEdge]]></name>
    <trkseg>
      <trkpt lat="43.41576" lon="6.07041">
        <ele>211.19999694824</ele>
        <time>2016-04-20T11:59:44Z</time>
      </trkpt>
      <trkpt lat="43.41576" lon="6.07041">
        <ele>211.19999694824</ele>
        <time>2016-04-20T11:59:45Z</time>
      </trkpt>
      <trkpt lat="43.41576" lon="6.07041">
        <ele>211.19999694824</ele>
        <time>2016-04-20T11:59:47Z</time>
      </trkpt>
      <trkpt lat="43.41576" lon="6.07041">
        <ele>211.19999694824</ele>
        <time>2016-04-20T11:59:48Z</time>
      </trkpt>
      <trkpt lat="43.41576" lon="6.07041">
        <ele>211.19999694824</ele>
        <time>2016-04-20T11:59:49Z</time>
      </trkpt>
      <trkpt lat="43.41576" lon="6.07041">
        <ele>211</ele>
        <time>2016-04-20T11:59:51Z</time>
      </trkpt>
      <trkpt lat="43.41576" lon="6.07041">
        <ele>211</ele>
        <time>2016-04-20T11:59:53Z</time>
      </trkpt>
      <trkpt lat="43.41576" lon="6.07041">
        <ele>210.80000305176</ele>
        <time>2016-04-20T11:59:55Z</time>
      </trkpt>
      <trkpt lat="43.41576" lon="6.07041">
        <ele>211</ele>
        <time>2016-04-20T11:59:57Z</time>
      </trkpt>
      <trkpt lat="43.41575" lon="6.07041">
        <ele>210.80000305176</ele>
        <time>2016-04-20T11:59:59Z</time>
      </trkpt>
      <trkpt lat="43.41575" lon="6.07041">
        <ele>210.80000305176</ele>
        <time>2016-04-20T12:00:01Z</time>
      </trkpt>
      <trkpt lat="43.41575" lon="6.07041">
        <ele>211</ele>
        <time>2016-04-20T12:00:03Z</time>
      </trkpt>
      <trkpt lat="43.41575" lon="6.07041">
        <ele>210.80000305176</ele>
        <time>2016-04-20T12:00:05Z</time>
      </trkpt>
      <trkpt lat="43.41575" lon="6.07041">
        <ele>211</ele>
        <time>2016-04-20T12:00:07Z</time>
      </trkpt>
      <trkpt lat="43.41575" lon="6.07041">
        <ele>210.80000305176</ele>
        <time>2016-04-20T12:00:09Z</time>
      </trkpt>
      <trkpt lat="43.41575" lon="6.0704">
        <ele>210.80000305176</ele>
        <time>2016-04-20T12:00:11Z</time>
      </trkpt>
      <trkpt lat="43.41575" lon="6.0704">
        <ele>210.60000610352</ele>
        <time>2016-04-20T12:00:13Z</time>
      </trkpt>
      <trkpt lat="43.41575" lon="6.0704">
        <ele>210.60000610352</ele>
        <time>2016-04-20T12:00:14Z</time>
      </trkpt>
      <trkpt lat="43.41576" lon="6.0704">
        <ele>210.60000610352</ele>
        <time>2016-04-20T12:00:15Z</time>
      </trkpt>
      <trkpt lat="43.41576" lon="6.0704">
        <ele>210.60000610352</ele>
        <time>2016-04-20T12:00:17Z</time>
      </trkpt>
      <trkpt lat="43.41576" lon="6.0704">
        <ele>210.60000610352</ele>
        <time>2016-04-20T12:00:19Z</time>
      </trkpt>
      <trkpt lat="43.41576" lon="6.0704">
        <ele>210.60000610352</ele>
        <time>2016-04-20T12:00:21Z</time>
      </trkpt>
      <trkpt lat="43.41576" lon="6.0704">
        <ele>210.60000610352</ele>
        <time>2016-04-20T12:00:23Z</time>
      </trkpt>
      <trkpt lat="43.41576" lon="6.0704">
        <ele>210.39999389648</ele>
        <time>2016-04-20T12:00:25Z</time>
      </trkpt>
      <trkpt lat="43.41576" lon="6.0704">
        <ele>210.39999389648</ele>
        <time>2016-04-20T12:00:27Z</time>
      </trkpt>
      <trkpt lat="43.41576" lon="6.0704">
        <ele>210.39999389648</ele>
        <time>2016-04-20T12:00:29Z</time>
      </trkpt>
      <trkpt lat="43.41576" lon="6.0704">
        <ele>210.60000610352</ele>
        <time>2016-04-20T12:00:31Z</time>
      </trkpt>
      <trkpt lat="43.41576" lon="6.0704">
        <ele>210.60000610352</ele>
        <time>2016-04-20T12:00:33Z</time>
      </trkpt>
      <trkpt lat="43.41576" lon="6.0704">
        <ele>210.80000305176</ele>
        <time>2016-04-20T12:00:35Z</time>
      </trkpt>
      <trkpt lat="43.41576" lon="6.0704">
        <ele>210.80000305176</ele>
        <time>2016-04-20T12:00:36Z</time>
      </trkpt>
      <trkpt lat="43.41576" lon="6.0704">
        <ele>210.80000305176</ele>
        <time>2016-04-20T12:00:37Z</time>
      </trkpt>
      <trkpt lat="43.41576" lon="6.0704">
        <ele>210.80000305176</ele>
        <time>2016-04-20T12:00:39Z</time>
      </trkpt>
      <trkpt lat="43.41576" lon="6.0704">
        <ele>210.80000305176</ele>
        <time>2016-04-20T12:00:41Z</time>
      </trkpt>
      <trkpt lat="43.41576" lon="6.0704">
        <ele>210.80000305176</ele>
        <time>2016-04-20T12:00:43Z</time>
      </trkpt>
      <trkpt lat="43.41576" lon="6.0704">
        <ele>210.80000305176</ele>
        <time>2016-04-20T12:00:45Z</time>
      </trkpt>
      <trkpt lat="43.41577" lon="6.0704">
        <ele>210.80000305176</ele>
        <time>2016-04-20T12:00:46Z</time>
      </trkpt>
      <trkpt lat="43.41578" lon="6.07041">
        <ele>210.80000305176</ele>
        <time>2016-04-20T12:00:47Z</time>
      </trkpt>
      <trkpt lat="43.41578" lon="6.07042">
        <ele>211</ele>
        <time>2016-04-20T12:00:49Z</time>
      </trkpt>
      <trkpt lat="43.41578" lon="6.07042">
        <ele>211</ele>
        <time>2016-04-20T12:00:51Z</time>
      </trkpt>
      <trkpt lat="43.41578" lon="6.07042">
        <ele>211</ele>
        <time>2016-04-20T12:00:53Z</time>
      </trkpt>
      <trkpt lat="43.41578" lon="6.07042">
        <ele>211</ele>
        <time>2016-04-20T12:00:55Z</time>
      </trkpt>
      <trkpt lat="43.41578" lon="6.07042">
        <ele>211</ele>
        <time>2016-04-20T12:00:57Z</time>
      </trkpt>
      <trkpt lat="43.41578" lon="6.07042">
        <ele>211</ele>
        <time>2016-04-20T12:00:59Z</time>
      </trkpt>
      <trkpt lat="43.41578" lon="6.07042">
        <ele>211</ele>
        <time>2016-04-20T12:01:01Z</time>
      </trkpt>
      <trkpt lat="43.41578" lon="6.07042">
        <ele>211.19999694824</ele>
        <time>2016-04-20T12:01:03Z</time>
      </trkpt>
      <trkpt lat="43.41578" lon="6.07042">
        <ele>211.19999694824</ele>
        <time>2016-04-20T12:01:05Z</time>
      </trkpt>
      <trkpt lat="43.41579" lon="6.07043">
        <ele>211.19999694824</ele>
        <time>2016-04-20T12:01:07Z</time>
      </trkpt>
      <trkpt lat="43.41579" lon="6.07043">
        <ele>211.19999694824</ele>
        <time>2016-04-20T12:01:09Z</time>
      </trkpt>
      <trkpt lat="43.41579" lon="6.07045">
        <ele>211.19999694824</ele>
        <time>2016-04-20T12:01:10Z</time>
      </trkpt>
      <trkpt lat="43.41579" lon="6.07047">
        <ele>211.19999694824</ele>
        <time>2016-04-20T12:01:11Z</time>
      </trkpt>
      <trkpt lat="43.41579" lon="6.07053">
        <ele>211.19999694824</ele>
        <time>2016-04-20T12:01:13Z</time>
      </trkpt>
      <trkpt lat="43.41579" lon="6.07061">
        <ele>211.19999694824</ele>
        <time>2016-04-20T12:01:15Z</time>
      </trkpt>
      <trkpt lat="43.4158" lon="6.07071">
        <ele>211.19999694824</ele>
        <time>2016-04-20T12:01:17Z</time>
      </trkpt>
      <trkpt lat="43.41581" lon="6.07081">
        <ele>211.19999694824</ele>
        <time>2016-04-20T12:01:19Z</time>
      </trkpt>
      <trkpt lat="43.41582" lon="6.07092">
        <ele>211</ele>
        <time>2016-04-20T12:01:21Z</time>
      </trkpt>
      <trkpt lat="43.41582" lon="6.07096">
        <ele>211</ele>
        <time>2016-04-20T12:01:22Z</time>
      </trkpt>
      <trkpt lat="43.41581" lon="6.071">
        <ele>211</ele>
        <time>2016-04-20T12:01:23Z</time>
      </trkpt>
      <trkpt lat="43.41577" lon="6.07106">
        <ele>211</ele>
        <time>2016-04-20T12:01:25Z</time>
      </trkpt>
      <trkpt lat="43.41577" lon="6.07106">
        <ele>211</ele>
        <time>2016-04-20T12:01:26Z</time>
      </trkpt>
      <trkpt lat="43.41571" lon="6.0711">
        <ele>211.19999694824</ele>
        <time>2016-04-20T12:01:27Z</time>
      </trkpt>
      <trkpt lat="43.41565" lon="6.07114">
        <ele>211</ele>
        <time>2016-04-20T12:01:29Z</time>
      </trkpt>
      <trkpt lat="43.41558" lon="6.07116">
        <ele>210.60000610352</ele>
        <time>2016-04-20T12:01:31Z</time>
      </trkpt>
      <trkpt lat="43.41551" lon="6.07116">
        <ele>210.60000610352</ele>
        <time>2016-04-20T12:01:33Z</time>
      </trkpt>
      <trkpt lat="43.41548" lon="6.07114">
        <ele>210.60000610352</ele>
        <time>2016-04-20T12:01:34Z</time>
      </trkpt>
      <trkpt lat="43.41545" lon="6.07111">
        <ele>210.60000610352</ele>
        <time>2016-04-20T12:01:35Z</time>
      </trkpt>
      <trkpt lat="43.41544" lon="6.07102">
        <ele>210.60000610352</ele>
        <time>2016-04-20T12:01:37Z</time>
      </trkpt>
      <trkpt lat="43.41543" lon="6.07092">
        <ele>210.80000305176</ele>
        <time>2016-04-20T12:01:39Z</time>
      </trkpt>
      <trkpt lat="43.41541" lon="6.07083">
        <ele>211</ele>
        <time>2016-04-20T12:01:41Z</time>
      </trkpt>
      <trkpt lat="43.41539" lon="6.07079">
        <ele>211</ele>
        <time>2016-04-20T12:01:42Z</time>
      </trkpt>
      <trkpt lat="43.41536" lon="6.07077">
        <ele>211</ele>
        <time>2016-04-20T12:01:43Z</time>
      </trkpt>
      <trkpt lat="43.41528" lon="6.07076">
        <ele>210.80000305176</ele>
        <time>2016-04-20T12:01:45Z</time>
      </trkpt>
      <trkpt lat="43.41518" lon="6.07078">
        <ele>210.39999389648</ele>
        <time>2016-04-20T12:01:47Z</time>
      </trkpt>
      <trkpt lat="43.41509" lon="6.07081">
        <ele>210.19999694824</ele>
        <time>2016-04-20T12:01:49Z</time>
      </trkpt>
      <trkpt lat="43.415" lon="6.07082">
        <ele>209.80000305176</ele>
        <time>2016-04-20T12:01:51Z</time>
      </trkpt>
      <trkpt lat="43.41496" lon="6.07082">
        <ele>209.60000610352</ele>
        <time>2016-04-20T12:01:52Z</time>
      </trkpt>
      <trkpt lat="43.41492" lon="6.07082">
        <ele>209.60000610352</ele>
        <time>2016-04-20T12:01:53Z</time>
      </trkpt>
      <trkpt lat="43.41484" lon="6.07078">
        <ele>209.60000610352</ele>
        <time>2016-04-20T12:01:55Z</time>
      </trkpt>
      <trkpt lat="43.41484" lon="6.07078">
        <ele>209.60000610352</ele>
        <time>2016-04-20T12:01:56Z</time>
      </trkpt>
      <trkpt lat="43.41476" lon="6.07075">
        <ele>209.60000610352</ele>
        <time>2016-04-20T12:01:57Z</time>
      </trkpt>
      <trkpt lat="43.41471" lon="6.07075">
        <ele>209.60000610352</ele>
        <time>2016-04-20T12:01:59Z</time>
      </trkpt>
      <trkpt lat="43.4147" lon="6.07076">
        <ele>209.60000610352</ele>
        <time>2016-04-20T12:02:01Z</time>
      </trkpt>
      <trkpt lat="43.4147" lon="6.07076">
        <ele>209.60000610352</ele>
        <time>2016-04-20T12:02:03Z</time>
      </trkpt>
      <trkpt lat="43.4147" lon="6.07076">
        <ele>209.60000610352</ele>
        <time>2016-04-20T12:02:05Z</time>
      </trkpt>
      <trkpt lat="43.4147" lon="6.07075">
        <ele>209.60000610352</ele>
        <time>2016-04-20T12:02:07Z</time>
      </trkpt>
      <trkpt lat="43.4147" lon="6.07073">
        <ele>209.60000610352</ele>
        <time>2016-04-20T12:02:09Z</time>
      </trkpt>
      <trkpt lat="43.41469" lon="6.07072">
        <ele>209.39999389648</ele>
        <time>2016-04-20T12:02:11Z</time>
      </trkpt>
      <trkpt lat="43.41469" lon="6.07072">
        <ele>209</ele>
        <time>2016-04-20T12:02:13Z</time>
      </trkpt>
      <trkpt lat="43.41469" lon="6.07072">
        <ele>208.80000305176</ele>
        <time>2016-04-20T12:02:15Z</time>
      </trkpt>
      <trkpt lat="43.41469" lon="6.07072">
        <ele>208.80000305176</ele>
        <time>2016-04-20T12:02:17Z</time>
      </trkpt>
      <trkpt lat="43.41469" lon="6.07072">
        <ele>208.80000305176</ele>
        <time>2016-04-20T12:02:19Z</time>
      </trkpt>
      <trkpt lat="43.41469" lon="6.07072">
        <ele>209</ele>
        <time>2016-04-20T12:02:21Z</time>
      </trkpt>
      <trkpt lat="43.41468" lon="6.07071">
        <ele>209</ele>
        <time>2016-04-20T12:02:23Z</time>
      </trkpt>
      <trkpt lat="43.41468" lon="6.07069">
        <ele>208.80000305176</ele>
        <time>2016-04-20T12:02:24Z</time>
      </trkpt>
      <trkpt lat="43.41467" lon="6.07067">
        <ele>208.80000305176</ele>
        <time>2016-04-20T12:02:25Z</time>
      </trkpt>
      <trkpt lat="43.41468" lon="6.07063">
        <ele>208.60000610352</ele>
        <time>2016-04-20T12:02:27Z</time>
      </trkpt>
      <trkpt lat="43.4147" lon="6.07058">
        <ele>208.60000610352</ele>
        <time>2016-04-20T12:02:29Z</time>
      </trkpt>
      <trkpt lat="43.41473" lon="6.07052">
        <ele>208.60000610352</ele>
        <time>2016-04-20T12:02:31Z</time>
      </trkpt>
      <trkpt lat="43.41476" lon="6.07044">
        <ele>208.60000610352</ele>
        <time>2016-04-20T12:02:33Z</time>
      </trkpt>
      <trkpt lat="43.4148" lon="6.07035">
        <ele>208.60000610352</ele>
        <time>2016-04-20T12:02:35Z</time>
      </trkpt>
      <trkpt lat="43.41484" lon="6.07025">
        <ele>208.60000610352</ele>
        <time>2016-04-20T12:02:37Z</time>
      </trkpt>
      <trkpt lat="43.41488" lon="6.07015">
        <ele>209</ele>
        <time>2016-04-20T12:02:39Z</time>
      </trkpt>
      <trkpt lat="43.41492" lon="6.07005">
        <ele>209.39999389648</ele>
        <time>2016-04-20T12:02:41Z</time>
      </trkpt>
      <trkpt lat="43.41494" lon="6.06994">
        <ele>209.60000610352</ele>
        <time>2016-04-20T12:02:43Z</time>
      </trkpt>
      <trkpt lat="43.41493" lon="6.06982">
        <ele>209.80000305176</ele>
        <time>2016-04-20T12:02:45Z</time>
      </trkpt>
      <trkpt lat="43.4149" lon="6.06971">
        <ele>209.80000305176</ele>
        <time>2016-04-20T12:02:47Z</time>
      </trkpt>
      <trkpt lat="43.41488" lon="6.06966">
        <ele>209.80000305176</ele>
        <time>2016-04-20T12:02:48Z</time>
      </trkpt>
      <trkpt lat="43.41485" lon="6.06962">
        <ele>209.80000305176</ele>
        <time>2016-04-20T12:02:49Z</time>
      </trkpt>
      <trkpt lat="43.41479" lon="6.06952">
        <ele>209.80000305176</ele>
        <time>2016-04-20T12:02:51Z</time>
      </trkpt>
      <trkpt lat="43.41474" lon="6.06943">
        <ele>210</ele>
        <time>2016-04-20T12:02:53Z</time>
      </trkpt>
      <trkpt lat="43.41471" lon="6.06939">
        <ele>210.19999694824</ele>
        <time>2016-04-20T12:02:54Z</time>
      </trkpt>
      <trkpt lat="43.41469" lon="6.06936">
        <ele>210.19999694824</ele>
        <time>2016-04-20T12:02:55Z</time>
      </trkpt>
      <trkpt lat="43.41466" lon="6.06928">
        <ele>210.19999694824</ele>
        <time>2016-04-20T12:02:57Z</time>
      </trkpt>
      <trkpt lat="43.41468" lon="6.06923">
        <ele>210.19999694824</ele>
        <time>2016-04-20T12:02:59Z</time>
      </trkpt>
      <trkpt lat="43.41471" lon="6.06918">
        <ele>210.39999389648</ele>
        <time>2016-04-20T12:03:01Z</time>
      </trkpt>
      <trkpt lat="43.41472" lon="6.06915">
        <ele>210.60000610352</ele>
        <time>2016-04-20T12:03:03Z</time>
      </trkpt>
      <trkpt lat="43.41472" lon="6.06913">
        <ele>210.80000305176</ele>
        <time>2016-04-20T12:03:05Z</time>
      </trkpt>
      <trkpt lat="43.41472" lon="6.06912">
        <ele>210.80000305176</ele>
        <time>2016-04-20T12:03:06Z</time>
      </trkpt>
      <trkpt lat="43.41473" lon="6.06911">
        <ele>210.80000305176</ele>
        <time>2016-04-20T12:03:07Z</time>
      </trkpt>
      <trkpt lat="43.41473" lon="6.06909">
        <ele>210.80000305176</ele>
        <time>2016-04-20T12:03:09Z</time>
      </trkpt>
      <trkpt lat="43.41473" lon="6.06907">
        <ele>210.80000305176</ele>
        <time>2016-04-20T12:03:11Z</time>
      </trkpt>
      <trkpt lat="43.41473" lon="6.06907">
        <ele>210.80000305176</ele>
        <time>2016-04-20T12:03:12Z</time>
      </trkpt>
      <trkpt lat="43.41473" lon="6.06907">
        <ele>210.80000305176</ele>
        <time>2016-04-20T12:03:13Z</time>
      </trkpt>
      <trkpt lat="43.41474" lon="6.06904">
        <ele>210.80000305176</ele>
        <time>2016-04-20T12:03:15Z</time>
      </trkpt>
      <trkpt lat="43.41474" lon="6.06899">
        <ele>210.60000610352</ele>
        <time>2016-04-20T12:03:17Z</time>
      </trkpt>
      <trkpt lat="43.41473" lon="6.06893">
        <ele>210.60000610352</ele>
        <time>2016-04-20T12:03:19Z</time>
      </trkpt>
      <trkpt lat="43.41474" lon="6.06886">
        <ele>210.39999389648</ele>
        <time>2016-04-20T12:03:21Z</time>
      </trkpt>
      <trkpt lat="43.41475" lon="6.06878">
        <ele>210.39999389648</ele>
        <time>2016-04-20T12:03:23Z</time>
      </trkpt>
      <trkpt lat="43.41475" lon="6.06869">
        <ele>210.39999389648</ele>
        <time>2016-04-20T12:03:25Z</time>
      </trkpt>
      <trkpt lat="43.41473" lon="6.0686">
        <ele>210.39999389648</ele>
        <time>2016-04-20T12:03:27Z</time>
      </trkpt>
      <trkpt lat="43.41474" lon="6.06855">
        <ele>210.39999389648</ele>
        <time>2016-04-20T12:03:28Z</time>
      </trkpt>
      <trkpt lat="43.41474" lon="6.0685">
        <ele>210.60000610352</ele>
        <time>2016-04-20T12:03:29Z</time>
      </trkpt>
      <trkpt lat="43.41476" lon="6.06842">
        <ele>210.60000610352</ele>
        <time>2016-04-20T12:03:31Z</time>
      </trkpt>
      <trkpt lat="43.41476" lon="6.06842">
        <ele>210.60000610352</ele>
        <time>2016-04-20T12:03:32Z</time>
      </trkpt>
      <trkpt lat="43.41477" lon="6.06834">
        <ele>210.39999389648</ele>
        <time>2016-04-20T12:03:33Z</time>
      </trkpt>
      <trkpt lat="43.41481" lon="6.06825">
        <ele>210.39999389648</ele>
        <time>2016-04-20T12:03:35Z</time>
      </trkpt>
      <trkpt lat="43.41483" lon="6.0682">
        <ele>210.39999389648</ele>
        <time>2016-04-20T12:03:36Z</time>
      </trkpt>
      <trkpt lat="43.41484" lon="6.06816">
        <ele>210.39999389648</ele>
        <time>2016-04-20T12:03:37Z</time>
      </trkpt>
      <trkpt lat="43.41487" lon="6.06805">
        <ele>210.80000305176</ele>
        <time>2016-04-20T12:03:39Z</time>
      </trkpt>
      <trkpt lat="43.41489" lon="6.06792">
        <ele>211</ele>
        <time>2016-04-20T12:03:41Z</time>
      </trkpt>
      <trkpt lat="43.41492" lon="6.0678">
        <ele>211.19999694824</ele>
        <time>2016-04-20T12:03:43Z</time>
      </trkpt>
      <trkpt lat="43.41494" lon="6.06767">
        <ele>211.19999694824</ele>
        <time>2016-04-20T12:03:45Z</time>
      </trkpt>
      <trkpt lat="43.41496" lon="6.06755">
        <ele>211.60000610352</ele>
        <time>2016-04-20T12:03:47Z</time>
      </trkpt>
      <trkpt lat="43.41497" lon="6.06743">
        <ele>211.80000305176</ele>
        <time>2016-04-20T12:03:49Z</time>
      </trkpt>
      <trkpt lat="43.41497" lon="6.06731">
        <ele>212</ele>
        <time>2016-04-20T12:03:51Z</time>
      </trkpt>
      <trkpt lat="43.41497" lon="6.06731">
        <ele>212.19999694824</ele>
        <time>2016-04-20T12:03:52Z</time>
      </trkpt>
      <trkpt lat="43.41497" lon="6.0672">
        <ele>212.39999389648</ele>
        <time>2016-04-20T12:03:53Z</time>
      </trkpt>
      <trkpt lat="43.41498" lon="6.06709">
        <ele>212.39999389648</ele>
        <time>2016-04-20T12:03:55Z</time>
      </trkpt>
      <trkpt lat="43.41498" lon="6.06698">
        <ele>212.60000610352</ele>
        <time>2016-04-20T12:03:57Z</time>
      </trkpt>
      <trkpt lat="43.41499" lon="6.06686">
        <ele>212.39999389648</ele>
        <time>2016-04-20T12:03:59Z</time>
      </trkpt>
      <trkpt lat="43.415" lon="6.06675">
        <ele>212.60000610352</ele>
        <time>2016-04-20T12:04:01Z</time>
      </trkpt>
      <trkpt lat="43.41501" lon="6.06663">
        <ele>212.80000305176</ele>
        <time>2016-04-20T12:04:03Z</time>
      </trkpt>
      <trkpt lat="43.41502" lon="6.06657">
        <ele>213</ele>
        <time>2016-04-20T12:04:04Z</time>
      </trkpt>
      <trkpt lat="43.41503" lon="6.06651">
        <ele>213</ele>
        <time>2016-04-20T12:04:05Z</time>
      </trkpt>
      <trkpt lat="43.41505" lon="6.06639">
        <ele>213.19999694824</ele>
        <time>2016-04-20T12:04:07Z</time>
      </trkpt>
      <trkpt lat="43.41507" lon="6.06626">
        <ele>213.39999389648</ele>
        <time>2016-04-20T12:04:09Z</time>
      </trkpt>
      <trkpt lat="43.41509" lon="6.06613">
        <ele>213.39999389648</ele>
        <time>2016-04-20T12:04:11Z</time>
      </trkpt>
      <trkpt lat="43.41511" lon="6.066">
        <ele>213.39999389648</ele>
        <time>2016-04-20T12:04:13Z</time>
      </trkpt>
      <trkpt lat="43.41513" lon="6.06587">
        <ele>213.39999389648</ele>
        <time>2016-04-20T12:04:15Z</time>
      </trkpt>
      <trkpt lat="43.41515" lon="6.06574">
        <ele>213.39999389648</ele>
        <time>2016-04-20T12:04:17Z</time>
      </trkpt>
      <trkpt lat="43.41517" lon="6.06562">
        <ele>213.60000610352</ele>
        <time>2016-04-20T12:04:19Z</time>
      </trkpt>
      <trkpt lat="43.41517" lon="6.06562">
        <ele>213.60000610352</ele>
        <time>2016-04-20T12:04:20Z</time>
      </trkpt>
      <trkpt lat="43.41519" lon="6.0655">
        <ele>213.60000610352</ele>
        <time>2016-04-20T12:04:21Z</time>
      </trkpt>
      <trkpt lat="43.4152" lon="6.06544">
        <ele>213.60000610352</ele>
        <time>2016-04-20T12:04:22Z</time>
      </trkpt>
      <trkpt lat="43.41521" lon="6.06539">
        <ele>213.80000305176</ele>
        <time>2016-04-20T12:04:23Z</time>
      </trkpt>
      <trkpt lat="43.41523" lon="6.06527">
        <ele>213.80000305176</ele>
        <time>2016-04-20T12:04:25Z</time>
      </trkpt>
      <trkpt lat="43.41525" lon="6.06516">
        <ele>213.80000305176</ele>
        <time>2016-04-20T12:04:27Z</time>
      </trkpt>
      <trkpt lat="43.41529" lon="6.06505">
        <ele>213.80000305176</ele>
        <time>2016-04-20T12:04:29Z</time>
      </trkpt>
      <trkpt lat="43.41534" lon="6.06497">
        <ele>213.80000305176</ele>
        <time>2016-04-20T12:04:31Z</time>
      </trkpt>
      <trkpt lat="43.41537" lon="6.06491">
        <ele>214.80000305176</ele>
        <time>2016-04-20T12:04:33Z</time>
      </trkpt>
      <trkpt lat="43.4154" lon="6.06487">
        <ele>216.19999694824</ele>
        <time>2016-04-20T12:04:35Z</time>
      </trkpt>
      <trkpt lat="43.41541" lon="6.06486">
        <ele>216.39999389648</ele>
        <time>2016-04-20T12:04:36Z</time>
      </trkpt>
      <trkpt lat="43.41542" lon="6.06485">
        <ele>216.60000610352</ele>
        <time>2016-04-20T12:04:37Z</time>
      </trkpt>
      <trkpt lat="43.41542" lon="6.06485">
        <ele>216.60000610352</ele>
        <time>2016-04-20T12:04:38Z</time>
      </trkpt>
      <trkpt lat="43.41545" lon="6.06484">
        <ele>216.60000610352</ele>
        <time>2016-04-20T12:04:39Z</time>
      </trkpt>
      <trkpt lat="43.41546" lon="6.06482">
        <ele>216.19999694824</ele>
        <time>2016-04-20T12:04:41Z</time>
      </trkpt>
      <trkpt lat="43.41547" lon="6.0648">
        <ele>216</ele>
        <time>2016-04-20T12:04:43Z</time>
      </trkpt>
      <trkpt lat="43.41548" lon="6.06475">
        <ele>215.60000610352</ele>
        <time>2016-04-20T12:04:45Z</time>
      </trkpt>
      <trkpt lat="43.41547" lon="6.06466">
        <ele>215.19999694824</ele>
        <time>2016-04-20T12:04:47Z</time>
      </trkpt>
      <trkpt lat="43.41545" lon="6.06457">
        <ele>215.39999389648</ele>
        <time>2016-04-20T12:04:49Z</time>
      </trkpt>
      <trkpt lat="43.41545" lon="6.06457">
        <ele>215.39999389648</ele>
        <time>2016-04-20T12:04:50Z</time>
      </trkpt>
      <trkpt lat="43.41544" lon="6.06449">
        <ele>215.60000610352</ele>
        <time>2016-04-20T12:04:51Z</time>
      </trkpt>
      <trkpt lat="43.41544" lon="6.06445">
        <ele>215.80000305176</ele>
        <time>2016-04-20T12:04:53Z</time>
      </trkpt>
      <trkpt lat="43.41545" lon="6.06444">
        <ele>216</ele>
        <time>2016-04-20T12:04:54Z</time>
      </trkpt>
      <trkpt lat="43.41545" lon="6.06443">
        <ele>216</ele>
        <time>2016-04-20T12:04:55Z</time>
      </trkpt>
      <trkpt lat="43.41545" lon="6.06442">
        <ele>216.39999389648</ele>
        <time>2016-04-20T12:04:57Z</time>
      </trkpt>
      <trkpt lat="43.41545" lon="6.06442">
        <ele>216.39999389648</ele>
        <time>2016-04-20T12:04:59Z</time>
      </trkpt>
      <trkpt lat="43.41545" lon="6.06442">
        <ele>216.39999389648</ele>
        <time>2016-04-20T12:05:01Z</time>
      </trkpt>
      <trkpt lat="43.41545" lon="6.06442">
        <ele>216.19999694824</ele>
        <time>2016-04-20T12:05:03Z</time>
      </trkpt>
      <trkpt lat="43.41545" lon="6.06442">
        <ele>216.19999694824</ele>
        <time>2016-04-20T12:05:05Z</time>
      </trkpt>
      <trkpt lat="43.41546" lon="6.06442">
        <ele>216.39999389648</ele>
        <time>2016-04-20T12:05:07Z</time>
      </trkpt>
      <trkpt lat="43.41547" lon="6.06442">
        <ele>216.39999389648</ele>
        <time>2016-04-20T12:05:09Z</time>
      </trkpt>
      <trkpt lat="43.41547" lon="6.06441">
        <ele>216.39999389648</ele>
        <time>2016-04-20T12:05:10Z</time>
      </trkpt>
      <trkpt lat="43.41547" lon="6.06441">
        <ele>216.39999389648</ele>
        <time>2016-04-20T12:05:11Z</time>
      </trkpt>
      <trkpt lat="43.41547" lon="6.06441">
        <ele>216.19999694824</ele>
        <time>2016-04-20T12:05:13Z</time>
      </trkpt>
      <trkpt lat="43.41547" lon="6.06441">
        <ele>216</ele>
        <time>2016-04-20T12:05:15Z</time>
      </trkpt>
      <trkpt lat="43.41547" lon="6.06441">
        <ele>216</ele>
        <time>2016-04-20T12:05:16Z</time>
      </trkpt>
      <trkpt lat="43.41547" lon="6.06441">
        <ele>216</ele>
        <time>2016-04-20T12:05:19Z</time>
      </trkpt>
      <trkpt lat="43.41547" lon="6.06441">
        <ele>216</ele>
        <time>2016-04-20T12:05:21Z</time>
      </trkpt>
      <trkpt lat="43.41547" lon="6.06441">
        <ele>216.19999694824</ele>
        <time>2016-04-20T12:05:23Z</time>
      </trkpt>
      <trkpt lat="43.41547" lon="6.06441">
        <ele>216.19999694824</ele>
        <time>2016-04-20T12:05:25Z</time>
      </trkpt>
      <trkpt lat="43.41547" lon="6.06441">
        <ele>216.19999694824</ele>
        <time>2016-04-20T12:05:27Z</time>
      </trkpt>
      <trkpt lat="43.41547" lon="6.06441">
        <ele>216.19999694824</ele>
        <time>2016-04-20T12:05:29Z</time>
      </trkpt>
      <trkpt lat="43.41547" lon="6.06441">
        <ele>216.19999694824</ele>
        <time>2016-04-20T12:05:31Z</time>
      </trkpt>
      <trkpt lat="43.41547" lon="6.06441">
        <ele>216.19999694824</ele>
        <time>2016-04-20T12:05:33Z</time>
      </trkpt>
      <trkpt lat="43.41547" lon="6.06441">
        <ele>216.39999389648</ele>
        <time>2016-04-20T12:05:35Z</time>
      </trkpt>
      <trkpt lat="43.41547" lon="6.06441">
        <ele>216.39999389648</ele>
        <time>2016-04-20T12:05:37Z</time>
      </trkpt>
      <trkpt lat="43.41547" lon="6.06441">
        <ele>216.60000610352</ele>
        <time>2016-04-20T12:05:39Z</time>
      </trkpt>
      <trkpt lat="43.41547" lon="6.06441">
        <ele>216.80000305176</ele>
        <time>2016-04-20T12:05:41Z</time>
      </trkpt>
      <trkpt lat="43.41547" lon="6.06441">
        <ele>216.60000610352</ele>
        <time>2016-04-20T12:05:43Z</time>
      </trkpt>
      <trkpt lat="43.41547" lon="6.06441">
        <ele>216.60000610352</ele>
        <time>2016-04-20T12:05:45Z</time>
      </trkpt>
      <trkpt lat="43.41547" lon="6.06441">
        <ele>216.60000610352</ele>
        <time>2016-04-20T12:05:47Z</time>
      </trkpt>
      <trkpt lat="43.41547" lon="6.06441">
        <ele>216.60000610352</ele>
        <time>2016-04-20T12:05:49Z</time>
      </trkpt>
      <trkpt lat="43.41547" lon="6.06441">
        <ele>216.60000610352</ele>
        <time>2016-04-20T12:05:51Z</time>
      </trkpt>
      <trkpt lat="43.41547" lon="6.06441">
        <ele>216.80000305176</ele>
        <time>2016-04-20T12:05:53Z</time>
      </trkpt>
      <trkpt lat="43.41547" lon="6.06441">
        <ele>216.80000305176</ele>
        <time>2016-04-20T12:05:55Z</time>
      </trkpt>
      <trkpt lat="43.41547" lon="6.06441">
        <ele>216.60000610352</ele>
        <time>2016-04-20T12:05:57Z</time>
      </trkpt>
      <trkpt lat="43.41547" lon="6.06441">
        <ele>216.60000610352</ele>
        <time>2016-04-20T12:05:59Z</time>
      </trkpt>
      <trkpt lat="43.41547" lon="6.06441">
        <ele>216.80000305176</ele>
        <time>2016-04-20T12:06:01Z</time>
      </trkpt>
      <trkpt lat="43.41547" lon="6.06441">
        <ele>216.80000305176</ele>
        <time>2016-04-20T12:06:03Z</time>
      </trkpt>
      <trkpt lat="43.41547" lon="6.06441">
        <ele>216.80000305176</ele>
        <time>2016-04-20T12:06:05Z</time>
      </trkpt>
      <trkpt lat="43.41547" lon="6.06441">
        <ele>216.80000305176</ele>
        <time>2016-04-20T12:06:07Z</time>
      </trkpt>
      <trkpt lat="43.41547" lon="6.06441">
        <ele>216.80000305176</ele>
        <time>2016-04-20T12:06:09Z</time>
      </trkpt>
      <trkpt lat="43.41547" lon="6.06441">
        <ele>216.80000305176</ele>
        <time>2016-04-20T12:06:11Z</time>
      </trkpt>
      <trkpt lat="43.41547" lon="6.06441">
        <ele>216.80000305176</ele>
        <time>2016-04-20T12:06:13Z</time>
      </trkpt>
      <trkpt lat="43.41547" lon="6.06441">
        <ele>216.80000305176</ele>
        <time>2016-04-20T12:06:15Z</time>
      </trkpt>
      <trkpt lat="43.41547" lon="6.06441">
        <ele>217</ele>
        <time>2016-04-20T12:06:17Z</time>
      </trkpt>
      <trkpt lat="43.41547" lon="6.06441">
        <ele>217</ele>
        <time>2016-04-20T12:06:19Z</time>
      </trkpt>
      <trkpt lat="43.41547" lon="6.06441">
        <ele>217</ele>
        <time>2016-04-20T12:06:21Z</time>
      </trkpt>
      <trkpt lat="43.41547" lon="6.06441">
        <ele>217</ele>
        <time>2016-04-20T12:06:23Z</time>
      </trkpt>
      <trkpt lat="43.41547" lon="6.06441">
        <ele>217</ele>
        <time>2016-04-20T12:06:25Z</time>
      </trkpt>
      <trkpt lat="43.41547" lon="6.06441">
        <ele>217</ele>
        <time>2016-04-20T12:06:27Z</time>
      </trkpt>
      <trkpt lat="43.41547" lon="6.06441">
        <ele>217</ele>
        <time>2016-04-20T12:06:29Z</time>
      </trkpt>
      <trkpt lat="43.41547" lon="6.06441">
        <ele>216.80000305176</ele>
        <time>2016-04-20T12:06:31Z</time>
      </trkpt>
      <trkpt lat="43.41547" lon="6.06441">
        <ele>216.80000305176</ele>
        <time>2016-04-20T12:06:33Z</time>
      </trkpt>
      <trkpt lat="43.41547" lon="6.06441">
        <ele>216.60000610352</ele>
        <time>2016-04-20T12:06:35Z</time>
      </trkpt>
      <trkpt lat="43.41547" lon="6.06441">
        <ele>216.60000610352</ele>
        <time>2016-04-20T12:06:37Z</time>
      </trkpt>
      <trkpt lat="43.41547" lon="6.06441">
        <ele>216.60000610352</ele>
        <time>2016-04-20T12:06:39Z</time>
      </trkpt>
      <trkpt lat="43.41547" lon="6.06441">
        <ele>216.60000610352</ele>
        <time>2016-04-20T12:06:41Z</time>
      </trkpt>
      <trkpt lat="43.41547" lon="6.06441">
        <ele>216.39999389648</ele>
        <time>2016-04-20T12:06:43Z</time>
      </trkpt>
      <trkpt lat="43.41547" lon="6.06441">
        <ele>216.39999389648</ele>
        <time>2016-04-20T12:06:45Z</time>
      </trkpt>
      <trkpt lat="43.41547" lon="6.06441">
        <ele>216.60000610352</ele>
        <time>2016-04-20T12:06:47Z</time>
      </trkpt>
      <trkpt lat="43.41547" lon="6.06441">
        <ele>216.80000305176</ele>
        <time>2016-04-20T12:06:49Z</time>
      </trkpt>
      <trkpt lat="43.41547" lon="6.06441">
        <ele>216.80000305176</ele>
        <time>2016-04-20T12:06:50Z</time>
      </trkpt>
      <trkpt lat="43.41547" lon="6.06441">
        <ele>216.80000305176</ele>
        <time>2016-04-20T12:06:51Z</time>
      </trkpt>
      <trkpt lat="43.41547" lon="6.06441">
        <ele>216.80000305176</ele>
        <time>2016-04-20T12:06:53Z</time>
      </trkpt>
      <trkpt lat="43.41547" lon="6.06441">
        <ele>216.80000305176</ele>
        <time>2016-04-20T12:06:55Z</time>
      </trkpt>
      <trkpt lat="43.41547" lon="6.06441">
        <ele>216.60000610352</ele>
        <time>2016-04-20T12:06:57Z</time>
      </trkpt>
      <trkpt lat="43.41547" lon="6.06441">
        <ele>216.80000305176</ele>
        <time>2016-04-20T12:06:59Z</time>
      </trkpt>
      <trkpt lat="43.41547" lon="6.06441">
        <ele>216.39999389648</ele>
        <time>2016-04-20T12:07:01Z</time>
      </trkpt>
      <trkpt lat="43.41547" lon="6.06441">
        <ele>216.60000610352</ele>
        <time>2016-04-20T12:07:03Z</time>
      </trkpt>
      <trkpt lat="43.41547" lon="6.06441">
        <ele>216.60000610352</ele>
        <time>2016-04-20T12:07:05Z</time>
      </trkpt>
      <trkpt lat="43.41547" lon="6.06441">
        <ele>216.60000610352</ele>
        <time>2016-04-20T12:07:07Z</time>
      </trkpt>
      <trkpt lat="43.41547" lon="6.06441">
        <ele>216.60000610352</ele>
        <time>2016-04-20T12:07:09Z</time>
      </trkpt>
      <trkpt lat="43.41547" lon="6.06441">
        <ele>216.80000305176</ele>
        <time>2016-04-20T12:07:11Z</time>
      </trkpt>
      <trkpt lat="43.41547" lon="6.06441">
        <ele>216.80000305176</ele>
        <time>2016-04-20T12:07:13Z</time>
      </trkpt>
      <trkpt lat="43.41547" lon="6.06441">
        <ele>216.60000610352</ele>
        <time>2016-04-20T12:07:15Z</time>
      </trkpt>
      <trkpt lat="43.41547" lon="6.06441">
        <ele>216.60000610352</ele>
        <time>2016-04-20T12:07:17Z</time>
      </trkpt>
      <trkpt lat="43.41547" lon="6.06441">
        <ele>216.60000610352</ele>
        <time>2016-04-20T12:07:19Z</time>
      </trkpt>
      <trkpt lat="43.41547" lon="6.06441">
        <ele>216.60000610352</ele>
        <time>2016-04-20T12:07:21Z</time>
      </trkpt>
      <trkpt lat="43.41547" lon="6.06441">
        <ele>216.39999389648</ele>
        <time>2016-04-20T12:07:23Z</time>
      </trkpt>
      <trkpt lat="43.41547" lon="6.06441">
        <ele>216.39999389648</ele>
        <time>2016-04-20T12:07:25Z</time>
      </trkpt>
      <trkpt lat="43.41547" lon="6.06441">
        <ele>216.39999389648</ele>
        <time>2016-04-20T12:07:27Z</time>
      </trkpt>
      <trkpt lat="43.41547" lon="6.06441">
        <ele>216.39999389648</ele>
        <time>2016-04-20T12:07:29Z</time>
      </trkpt>
      <trkpt lat="43.41547" lon="6.06441">
        <ele>216.39999389648</ele>
        <time>2016-04-20T12:07:31Z</time>
      </trkpt>
      <trkpt lat="43.41547" lon="6.06441">
        <ele>216.60000610352</ele>
        <time>2016-04-20T12:07:33Z</time>
      </trkpt>
      <trkpt lat="43.41547" lon="6.06441">
        <ele>216.60000610352</ele>
        <time>2016-04-20T12:07:35Z</time>
      </trkpt>
      <trkpt lat="43.41547" lon="6.06441">
        <ele>216.60000610352</ele>
        <time>2016-04-20T12:07:37Z</time>
      </trkpt>
      <trkpt lat="43.41547" lon="6.06441">
        <ele>216.60000610352</ele>
        <time>2016-04-20T12:07:39Z</time>
      </trkpt>
      <trkpt lat="43.41547" lon="6.06441">
        <ele>216.60000610352</ele>
        <time>2016-04-20T12:07:41Z</time>
      </trkpt>
      <trkpt lat="43.41547" lon="6.06441">
        <ele>216.60000610352</ele>
        <time>2016-04-20T12:07:43Z</time>
      </trkpt>
      <trkpt lat="43.41547" lon="6.06441">
        <ele>216.60000610352</ele>
        <time>2016-04-20T12:07:45Z</time>
      </trkpt>
      <trkpt lat="43.41547" lon="6.06441">
        <ele>216.60000610352</ele>
        <time>2016-04-20T12:07:47Z</time>
      </trkpt>
      <trkpt lat="43.41547" lon="6.06441">
        <ele>216.39999389648</ele>
        <time>2016-04-20T12:07:49Z</time>
      </trkpt>
      <trkpt lat="43.41547" lon="6.06441">
        <ele>216.39999389648</ele>
        <time>2016-04-20T12:07:51Z</time>
      </trkpt>
      <trkpt lat="43.41547" lon="6.06441">
        <ele>216.60000610352</ele>
        <time>2016-04-20T12:07:53Z</time>
      </trkpt>
      <trkpt lat="43.41547" lon="6.06441">
        <ele>216.60000610352</ele>
        <time>2016-04-20T12:07:55Z</time>
      </trkpt>
      <trkpt lat="43.41547" lon="6.06441">
        <ele>216.60000610352</ele>
        <time>2016-04-20T12:07:57Z</time>
      </trkpt>
      <trkpt lat="43.41547" lon="6.06441">
        <ele>216.60000610352</ele>
        <time>2016-04-20T12:07:59Z</time>
      </trkpt>
      <trkpt lat="43.41547" lon="6.06441">
        <ele>216.39999389648</ele>
        <time>2016-04-20T12:08:01Z</time>
      </trkpt>
      <trkpt lat="43.41547" lon="6.06441">
        <ele>216.39999389648</ele>
        <time>2016-04-20T12:08:03Z</time>
      </trkpt>
      <trkpt lat="43.41547" lon="6.06441">
        <ele>216.39999389648</ele>
        <time>2016-04-20T12:08:05Z</time>
      </trkpt>
      <trkpt lat="43.41547" lon="6.06441">
        <ele>216.39999389648</ele>
        <time>2016-04-20T12:08:07Z</time>
      </trkpt>
      <trkpt lat="43.41547" lon="6.06441">
        <ele>216.39999389648</ele>
        <time>2016-04-20T12:08:09Z</time>
      </trkpt>
      <trkpt lat="43.41547" lon="6.06441">
        <ele>216.60000610352</ele>
        <time>2016-04-20T12:08:11Z</time>
      </trkpt>
      <trkpt lat="43.41547" lon="6.06441">
        <ele>216.60000610352</ele>
        <time>2016-04-20T12:08:13Z</time>
      </trkpt>
      <trkpt lat="43.41547" lon="6.06441">
        <ele>216.60000610352</ele>
        <time>2016-04-20T12:08:15Z</time>
      </trkpt>
      <trkpt lat="43.41547" lon="6.06441">
        <ele>216.39999389648</ele>
        <time>2016-04-20T12:08:17Z</time>
      </trkpt>
      <trkpt lat="43.41547" lon="6.06441">
        <ele>216.19999694824</ele>
        <time>2016-04-20T12:08:19Z</time>
      </trkpt>
      <trkpt lat="43.41547" lon="6.06441">
        <ele>216.19999694824</ele>
        <time>2016-04-20T12:08:21Z</time>
      </trkpt>
      <trkpt lat="43.41547" lon="6.06441">
        <ele>216.39999389648</ele>
        <time>2016-04-20T12:08:23Z</time>
      </trkpt>
      <trkpt lat="43.41547" lon="6.06441">
        <ele>216.39999389648</ele>
        <time>2016-04-20T12:08:25Z</time>
      </trkpt>
      <trkpt lat="43.41547" lon="6.06441">
        <ele>216.19999694824</ele>
        <time>2016-04-20T12:08:27Z</time>
      </trkpt>
      <trkpt lat="43.41547" lon="6.06441">
        <ele>216.19999694824</ele>
        <time>2016-04-20T12:08:29Z</time>
      </trkpt>
      <trkpt lat="43.41547" lon="6.06441">
        <ele>216.19999694824</ele>
        <time>2016-04-20T12:08:31Z</time>
      </trkpt>
      <trkpt lat="43.41547" lon="6.06441">
        <ele>216.39999389648</ele>
        <time>2016-04-20T12:08:33Z</time>
      </trkpt>
      <trkpt lat="43.41547" lon="6.06441">
        <ele>216.39999389648</ele>
        <time>2016-04-20T12:08:35Z</time>
      </trkpt>
      <trkpt lat="43.41547" lon="6.06441">
        <ele>216.39999389648</ele>
        <time>2016-04-20T12:08:37Z</time>
      </trkpt>
      <trkpt lat="43.41547" lon="6.06441">
        <ele>216.39999389648</ele>
        <time>2016-04-20T12:08:39Z</time>
      </trkpt>
      <trkpt lat="43.41547" lon="6.06441">
        <ele>216.39999389648</ele>
        <time>2016-04-20T12:08:41Z</time>
      </trkpt>
      <trkpt lat="43.41547" lon="6.06441">
        <ele>216.39999389648</ele>
        <time>2016-04-20T12:08:43Z</time>
      </trkpt>
      <trkpt lat="43.41547" lon="6.06441">
        <ele>216.39999389648</ele>
        <time>2016-04-20T12:08:45Z</time>
      </trkpt>
      <trkpt lat="43.41547" lon="6.06441">
        <ele>216.39999389648</ele>
        <time>2016-04-20T12:08:47Z</time>
      </trkpt>
      <trkpt lat="43.41547" lon="6.06441">
        <ele>216.19999694824</ele>
        <time>2016-04-20T12:08:49Z</time>
      </trkpt>
      <trkpt lat="43.41547" lon="6.06441">
        <ele>216.39999389648</ele>
        <time>2016-04-20T12:08:51Z</time>
      </trkpt>
      <trkpt lat="43.41547" lon="6.06441">
        <ele>216.39999389648</ele>
        <time>2016-04-20T12:08:53Z</time>
      </trkpt>
      <trkpt lat="43.41547" lon="6.06441">
        <ele>216.39999389648</ele>
        <time>2016-04-20T12:08:55Z</time>
      </trkpt>
      <trkpt lat="43.41547" lon="6.06441">
        <ele>216.19999694824</ele>
        <time>2016-04-20T12:08:57Z</time>
      </trkpt>
      <trkpt lat="43.41547" lon="6.06441">
        <ele>216.19999694824</ele>
        <time>2016-04-20T12:08:59Z</time>
      </trkpt>
      <trkpt lat="43.41547" lon="6.06441">
        <ele>216.19999694824</ele>
        <time>2016-04-20T12:09:00Z</time>
      </trkpt>
      <trkpt lat="43.41547" lon="6.06441">
        <ele>216.19999694824</ele>
        <time>2016-04-20T12:09:01Z</time>
      </trkpt>
      <trkpt lat="43.41547" lon="6.06441">
        <ele>216.19999694824</ele>
        <time>2016-04-20T12:09:03Z</time>
      </trkpt>
      <trkpt lat="43.41547" lon="6.06441">
        <ele>216.19999694824</ele>
        <time>2016-04-20T12:09:05Z</time>
      </trkpt>
      <trkpt lat="43.41547" lon="6.06441">
        <ele>216.19999694824</ele>
        <time>2016-04-20T12:09:07Z</time>
      </trkpt>
      <trkpt lat="43.41547" lon="6.06441">
        <ele>216.19999694824</ele>
        <time>2016-04-20T12:09:09Z</time>
      </trkpt>
      <trkpt lat="43.41547" lon="6.06441">
        <ele>216.19999694824</ele>
        <time>2016-04-20T12:09:11Z</time>
      </trkpt>
      <trkpt lat="43.41547" lon="6.06441">
        <ele>216.19999694824</ele>
        <time>2016-04-20T12:09:13Z</time>
      </trkpt>
      <trkpt lat="43.41547" lon="6.06441">
        <ele>216</ele>
        <time>2016-04-20T12:09:15Z</time>
      </trkpt>
      <trkpt lat="43.41547" lon="6.06441">
        <ele>216</ele>
        <time>2016-04-20T12:09:17Z</time>
      </trkpt>
      <trkpt lat="43.41547" lon="6.06441">
        <ele>215.80000305176</ele>
        <time>2016-04-20T12:09:19Z</time>
      </trkpt>
      <trkpt lat="43.41547" lon="6.06441">
        <ele>215.80000305176</ele>
        <time>2016-04-20T12:09:21Z</time>
      </trkpt>
      <trkpt lat="43.41547" lon="6.06441">
        <ele>216</ele>
        <time>2016-04-20T12:09:23Z</time>
      </trkpt>
      <trkpt lat="43.41547" lon="6.06441">
        <ele>215.80000305176</ele>
        <time>2016-04-20T12:09:25Z</time>
      </trkpt>
      <trkpt lat="43.41547" lon="6.06441">
        <ele>215.80000305176</ele>
        <time>2016-04-20T12:09:27Z</time>
      </trkpt>
      <trkpt lat="43.41547" lon="6.06441">
        <ele>215.80000305176</ele>
        <time>2016-04-20T12:09:29Z</time>
      </trkpt>
      <trkpt lat="43.41547" lon="6.06441">
        <ele>215.80000305176</ele>
        <time>2016-04-20T12:09:31Z</time>
      </trkpt>
      <trkpt lat="43.41547" lon="6.06441">
        <ele>215.80000305176</ele>
        <time>2016-04-20T12:09:33Z</time>
      </trkpt>
      <trkpt lat="43.41547" lon="6.06441">
        <ele>215.80000305176</ele>
        <time>2016-04-20T12:09:35Z</time>
      </trkpt>
      <trkpt lat="43.41547" lon="6.06441">
        <ele>215.80000305176</ele>
        <time>2016-04-20T12:09:37Z</time>
      </trkpt>
      <trkpt lat="43.41547" lon="6.06441">
        <ele>215.80000305176</ele>
        <time>2016-04-20T12:09:39Z</time>
      </trkpt>
      <trkpt lat="43.41547" lon="6.06441">
        <ele>215.80000305176</ele>
        <time>2016-04-20T12:09:41Z</time>
      </trkpt>
      <trkpt lat="43.41547" lon="6.06441">
        <ele>215.80000305176</ele>
        <time>2016-04-20T12:09:43Z</time>
      </trkpt>
      <trkpt lat="43.41547" lon="6.06441">
        <ele>215.80000305176</ele>
        <time>2016-04-20T12:09:45Z</time>
      </trkpt>
      <trkpt lat="43.41547" lon="6.06441">
        <ele>215.80000305176</ele>
        <time>2016-04-20T12:09:47Z</time>
      </trkpt>
      <trkpt lat="43.41547" lon="6.06441">
        <ele>216</ele>
        <time>2016-04-20T12:09:49Z</time>
      </trkpt>
      <trkpt lat="43.41547" lon="6.06441">
        <ele>216</ele>
        <time>2016-04-20T12:09:51Z</time>
      </trkpt>
      <trkpt lat="43.41547" lon="6.06441">
        <ele>216</ele>
        <time>2016-04-20T12:09:53Z</time>
      </trkpt>
      <trkpt lat="43.41547" lon="6.06441">
        <ele>216</ele>
        <time>2016-04-20T12:09:55Z</time>
      </trkpt>
      <trkpt lat="43.41547" lon="6.06441">
        <ele>216</ele>
        <time>2016-04-20T12:09:57Z</time>
      </trkpt>
      <trkpt lat="43.41547" lon="6.06441">
        <ele>216</ele>
        <time>2016-04-20T12:09:59Z</time>
      </trkpt>
      <trkpt lat="43.41547" lon="6.06441">
        <ele>216</ele>
        <time>2016-04-20T12:10:01Z</time>
      </trkpt>
      <trkpt lat="43.41547" lon="6.06441">
        <ele>216</ele>
        <time>2016-04-20T12:10:03Z</time>
      </trkpt>
      <trkpt lat="43.41547" lon="6.06441">
        <ele>216</ele>
        <time>2016-04-20T12:10:05Z</time>
      </trkpt>
      <trkpt lat="43.41547" lon="6.06441">
        <ele>216</ele>
        <time>2016-04-20T12:10:07Z</time>
      </trkpt>
      <trkpt lat="43.41547" lon="6.06441">
        <ele>216</ele>
        <time>2016-04-20T12:10:09Z</time>
      </trkpt>
      <trkpt lat="43.41547" lon="6.06441">
        <ele>216</ele>
        <time>2016-04-20T12:10:11Z</time>
      </trkpt>
      <trkpt lat="43.41547" lon="6.06441">
        <ele>216</ele>
        <time>2016-04-20T12:10:13Z</time>
      </trkpt>
      <trkpt lat="43.41547" lon="6.06441">
        <ele>216</ele>
        <time>2016-04-20T12:10:15Z</time>
      </trkpt>
      <trkpt lat="43.41547" lon="6.06441">
        <ele>216</ele>
        <time>2016-04-20T12:10:17Z</time>
      </trkpt>
      <trkpt lat="43.41547" lon="6.06441">
        <ele>216</ele>
        <time>2016-04-20T12:10:19Z</time>
      </trkpt>
      <trkpt lat="43.41547" lon="6.06441">
        <ele>216</ele>
        <time>2016-04-20T12:10:21Z</time>
      </trkpt>
      <trkpt lat="43.41547" lon="6.06441">
        <ele>216.19999694824</ele>
        <time>2016-04-20T12:10:23Z</time>
      </trkpt>
      <trkpt lat="43.41547" lon="6.06441">
        <ele>216</ele>
        <time>2016-04-20T12:10:25Z</time>
      </trkpt>
      <trkpt lat="43.41547" lon="6.06441">
        <ele>216</ele>
        <time>2016-04-20T12:10:27Z</time>
      </trkpt>
      <trkpt lat="43.41547" lon="6.06441">
        <ele>216</ele>
        <time>2016-04-20T12:10:29Z</time>
      </trkpt>
      <trkpt lat="43.41547" lon="6.06441">
        <ele>216</ele>
        <time>2016-04-20T12:10:31Z</time>
      </trkpt>
      <trkpt lat="43.41547" lon="6.06441">
        <ele>216</ele>
        <time>2016-04-20T12:10:33Z</time>
      </trkpt>
      <trkpt lat="43.41547" lon="6.06441">
        <ele>216</ele>
        <time>2016-04-20T12:10:35Z</time>
      </trkpt>
      <trkpt lat="43.41547" lon="6.06441">
        <ele>216</ele>
        <time>2016-04-20T12:10:37Z</time>
      </trkpt>
      <trkpt lat="43.41547" lon="6.06441">
        <ele>215.80000305176</ele>
        <time>2016-04-20T12:10:39Z</time>
      </trkpt>
      <trkpt lat="43.41547" lon="6.06441">
        <ele>216</ele>
        <time>2016-04-20T12:10:41Z</time>
      </trkpt>
      <trkpt lat="43.41547" lon="6.06441">
        <ele>216</ele>
        <time>2016-04-20T12:10:43Z</time>
      </trkpt>
      <trkpt lat="43.41547" lon="6.06441">
        <ele>216</ele>
        <time>2016-04-20T12:10:45Z</time>
      </trkpt>
      <trkpt lat="43.41547" lon="6.06441">
        <ele>216</ele>
        <time>2016-04-20T12:10:47Z</time>
      </trkpt>
      <trkpt lat="43.41547" lon="6.06441">
        <ele>215.80000305176</ele>
        <time>2016-04-20T12:10:49Z</time>
      </trkpt>
      <trkpt lat="43.41547" lon="6.06441">
        <ele>215.80000305176</ele>
        <time>2016-04-20T12:10:51Z</time>
      </trkpt>
      <trkpt lat="43.41547" lon="6.06441">
        <ele>215.80000305176</ele>
        <time>2016-04-20T12:10:53Z</time>
      </trkpt>
      <trkpt lat="43.41547" lon="6.06441">
        <ele>215.80000305176</ele>
        <time>2016-04-20T12:10:55Z</time>
      </trkpt>
      <trkpt lat="43.41547" lon="6.06441">
        <ele>215.80000305176</ele>
        <time>2016-04-20T12:10:57Z</time>
      </trkpt>
      <trkpt lat="43.41547" lon="6.06441">
        <ele>215.80000305176</ele>
        <time>2016-04-20T12:10:59Z</time>
      </trkpt>
      <trkpt lat="43.41547" lon="6.06441">
        <ele>215.80000305176</ele>
        <time>2016-04-20T12:11:01Z</time>
      </trkpt>
      <trkpt lat="43.41547" lon="6.06441">
        <ele>215.80000305176</ele>
        <time>2016-04-20T12:11:03Z</time>
      </trkpt>
      <trkpt lat="43.41547" lon="6.06441">
        <ele>215.80000305176</ele>
        <time>2016-04-20T12:11:05Z</time>
      </trkpt>
      <trkpt lat="43.41547" lon="6.06441">
        <ele>215.80000305176</ele>
        <time>2016-04-20T12:11:07Z</time>
      </trkpt>
      <trkpt lat="43.41547" lon="6.06441">
        <ele>215.80000305176</ele>
        <time>2016-04-20T12:11:09Z</time>
      </trkpt>
      <trkpt lat="43.41547" lon="6.06441">
        <ele>216</ele>
        <time>2016-04-20T12:11:11Z</time>
      </trkpt>
      <trkpt lat="43.41547" lon="6.06441">
        <ele>216</ele>
        <time>2016-04-20T12:11:13Z</time>
      </trkpt>
      <trkpt lat="43.41547" lon="6.06441">
        <ele>216</ele>
        <time>2016-04-20T12:11:15Z</time>
      </trkpt>
      <trkpt lat="43.41547" lon="6.06441">
        <ele>215.60000610352</ele>
        <time>2016-04-20T12:11:17Z</time>
      </trkpt>
      <trkpt lat="43.41547" lon="6.06441">
        <ele>215.39999389648</ele>
        <time>2016-04-20T12:11:19Z</time>
      </trkpt>
      <trkpt lat="43.41547" lon="6.06441">
        <ele>215.39999389648</ele>
        <time>2016-04-20T12:11:21Z</time>
      </trkpt>
      <trkpt lat="43.41547" lon="6.06441">
        <ele>215.60000610352</ele>
        <time>2016-04-20T12:11:23Z</time>
      </trkpt>
      <trkpt lat="43.41547" lon="6.06441">
        <ele>215.60000610352</ele>
        <time>2016-04-20T12:11:25Z</time>
      </trkpt>
      <trkpt lat="43.41547" lon="6.06441">
        <ele>215.60000610352</ele>
        <time>2016-04-20T12:11:27Z</time>
      </trkpt>
      <trkpt lat="43.41547" lon="6.06441">
        <ele>215.60000610352</ele>
        <time>2016-04-20T12:11:29Z</time>
      </trkpt>
      <trkpt lat="43.41547" lon="6.06441">
        <ele>215.60000610352</ele>
        <time>2016-04-20T12:11:31Z</time>
      </trkpt>
      <trkpt lat="43.41547" lon="6.06441">
        <ele>215.60000610352</ele>
        <time>2016-04-20T12:11:33Z</time>
      </trkpt>
      <trkpt lat="43.41547" lon="6.06441">
        <ele>215.80000305176</ele>
        <time>2016-04-20T12:11:35Z</time>
      </trkpt>
      <trkpt lat="43.41547" lon="6.06441">
        <ele>215.80000305176</ele>
        <time>2016-04-20T12:11:37Z</time>
      </trkpt>
      <trkpt lat="43.41547" lon="6.06441">
        <ele>215.60000610352</ele>
        <time>2016-04-20T12:11:39Z</time>
      </trkpt>
      <trkpt lat="43.41547" lon="6.06441">
        <ele>215.60000610352</ele>
        <time>2016-04-20T12:11:41Z</time>
      </trkpt>
      <trkpt lat="43.41547" lon="6.06441">
        <ele>215.80000305176</ele>
        <time>2016-04-20T12:11:43Z</time>
      </trkpt>
      <trkpt lat="43.41547" lon="6.06441">
        <ele>216</ele>
        <time>2016-04-20T12:11:45Z</time>
      </trkpt>
      <trkpt lat="43.41547" lon="6.06441">
        <ele>216</ele>
        <time>2016-04-20T12:11:47Z</time>
      </trkpt>
      <trkpt lat="43.41547" lon="6.06442">
        <ele>215.80000305176</ele>
        <time>2016-04-20T12:11:49Z</time>
      </trkpt>
      <trkpt lat="43.41547" lon="6.06442">
        <ele>215.39999389648</ele>
        <time>2016-04-20T12:11:51Z</time>
      </trkpt>
      <trkpt lat="43.41547" lon="6.06442">
        <ele>215.39999389648</ele>
        <time>2016-04-20T12:11:53Z</time>
      </trkpt>
      <trkpt lat="43.41547" lon="6.06442">
        <ele>215.60000610352</ele>
        <time>2016-04-20T12:11:55Z</time>
      </trkpt>
      <trkpt lat="43.41547" lon="6.06442">
        <ele>215.80000305176</ele>
        <time>2016-04-20T12:11:57Z</time>
      </trkpt>
      <trkpt lat="43.41547" lon="6.06442">
        <ele>215.80000305176</ele>
        <time>2016-04-20T12:11:59Z</time>
      </trkpt>
      <trkpt lat="43.41547" lon="6.06442">
        <ele>215.80000305176</ele>
        <time>2016-04-20T12:12:01Z</time>
      </trkpt>
      <trkpt lat="43.41547" lon="6.06442">
        <ele>215.80000305176</ele>
        <time>2016-04-20T12:12:03Z</time>
      </trkpt>
      <trkpt lat="43.41547" lon="6.06442">
        <ele>215.80000305176</ele>
        <time>2016-04-20T12:12:05Z</time>
      </trkpt>
      <trkpt lat="43.41547" lon="6.06442">
        <ele>216</ele>
        <time>2016-04-20T12:12:07Z</time>
      </trkpt>
      <trkpt lat="43.41547" lon="6.06442">
        <ele>216</ele>
        <time>2016-04-20T12:12:09Z</time>
      </trkpt>
      <trkpt lat="43.41547" lon="6.06442">
        <ele>216</ele>
        <time>2016-04-20T12:12:11Z</time>
      </trkpt>
      <trkpt lat="43.41547" lon="6.06442">
        <ele>216</ele>
        <time>2016-04-20T12:12:13Z</time>
      </trkpt>
      <trkpt lat="43.41547" lon="6.06442">
        <ele>216</ele>
        <time>2016-04-20T12:12:15Z</time>
      </trkpt>
      <trkpt lat="43.41547" lon="6.06442">
        <ele>216</ele>
        <time>2016-04-20T12:12:17Z</time>
      </trkpt>
      <trkpt lat="43.41547" lon="6.06442">
        <ele>216</ele>
        <time>2016-04-20T12:12:19Z</time>
      </trkpt>
      <trkpt lat="43.41547" lon="6.06442">
        <ele>216</ele>
        <time>2016-04-20T12:12:21Z</time>
      </trkpt>
      <trkpt lat="43.41547" lon="6.06442">
        <ele>216</ele>
        <time>2016-04-20T12:12:23Z</time>
      </trkpt>
      <trkpt lat="43.41547" lon="6.06442">
        <ele>216</ele>
        <time>2016-04-20T12:12:25Z</time>
      </trkpt>
      <trkpt lat="43.41547" lon="6.06442">
        <ele>216</ele>
        <time>2016-04-20T12:12:27Z</time>
      </trkpt>
      <trkpt lat="43.41547" lon="6.06442">
        <ele>216</ele>
        <time>2016-04-20T12:12:29Z</time>
      </trkpt>
      <trkpt lat="43.41547" lon="6.06441">
        <ele>215.80000305176</ele>
        <time>2016-04-20T12:12:31Z</time>
      </trkpt>
      <trkpt lat="43.41547" lon="6.06441">
        <ele>215.80000305176</ele>
        <time>2016-04-20T12:12:32Z</time>
      </trkpt>
      <trkpt lat="43.41547" lon="6.06441">
        <ele>215.80000305176</ele>
        <time>2016-04-20T12:12:33Z</time>
      </trkpt>
      <trkpt lat="43.41547" lon="6.06441">
        <ele>215.80000305176</ele>
        <time>2016-04-20T12:12:35Z</time>
      </trkpt>
      <trkpt lat="43.41547" lon="6.06441">
        <ele>216</ele>
        <time>2016-04-20T12:12:37Z</time>
      </trkpt>
      <trkpt lat="43.41547" lon="6.06441">
        <ele>216.19999694824</ele>
        <time>2016-04-20T12:12:39Z</time>
      </trkpt>
      <trkpt lat="43.41547" lon="6.06441">
        <ele>216.19999694824</ele>
        <time>2016-04-20T12:12:41Z</time>
      </trkpt>
      <trkpt lat="43.41547" lon="6.06441">
        <ele>216.19999694824</ele>
        <time>2016-04-20T12:12:43Z</time>
      </trkpt>
      <trkpt lat="43.41547" lon="6.06441">
        <ele>216.19999694824</ele>
        <time>2016-04-20T12:12:45Z</time>
      </trkpt>
      <trkpt lat="43.41547" lon="6.06441">
        <ele>215.80000305176</ele>
        <time>2016-04-20T12:12:47Z</time>
      </trkpt>
      <trkpt lat="43.41547" lon="6.06441">
        <ele>215.80000305176</ele>
        <time>2016-04-20T12:12:49Z</time>
      </trkpt>
      <trkpt lat="43.41547" lon="6.06441">
        <ele>215.80000305176</ele>
        <time>2016-04-20T12:12:51Z</time>
      </trkpt>
      <trkpt lat="43.41547" lon="6.06442">
        <ele>215.80000305176</ele>
        <time>2016-04-20T12:12:53Z</time>
      </trkpt>
      <trkpt lat="43.41547" lon="6.06442">
        <ele>215.80000305176</ele>
        <time>2016-04-20T12:12:55Z</time>
      </trkpt>
      <trkpt lat="43.41547" lon="6.06442">
        <ele>216</ele>
        <time>2016-04-20T12:12:57Z</time>
      </trkpt>
      <trkpt lat="43.41547" lon="6.06442">
        <ele>216</ele>
        <time>2016-04-20T12:12:59Z</time>
      </trkpt>
      <trkpt lat="43.41547" lon="6.06442">
        <ele>216</ele>
        <time>2016-04-20T12:13:01Z</time>
      </trkpt>
      <trkpt lat="43.41547" lon="6.06442">
        <ele>216</ele>
        <time>2016-04-20T12:13:03Z</time>
      </trkpt>
      <trkpt lat="43.41547" lon="6.06442">
        <ele>216</ele>
        <time>2016-04-20T12:13:05Z</time>
      </trkpt>
      <trkpt lat="43.41547" lon="6.06442">
        <ele>216.19999694824</ele>
        <time>2016-04-20T12:13:07Z</time>
      </trkpt>
      <trkpt lat="43.41547" lon="6.06442">
        <ele>216.19999694824</ele>
        <time>2016-04-20T12:13:09Z</time>
      </trkpt>
      <trkpt lat="43.41547" lon="6.06442">
        <ele>216.19999694824</ele>
        <time>2016-04-20T12:13:11Z</time>
      </trkpt>
      <trkpt lat="43.41547" lon="6.06442">
        <ele>216.19999694824</ele>
        <time>2016-04-20T12:13:13Z</time>
      </trkpt>
      <trkpt lat="43.41547" lon="6.06442">
        <ele>216.19999694824</ele>
        <time>2016-04-20T12:13:15Z</time>
      </trkpt>
      <trkpt lat="43.41547" lon="6.06442">
        <ele>216.19999694824</ele>
        <time>2016-04-20T12:13:17Z</time>
      </trkpt>
      <trkpt lat="43.41547" lon="6.06442">
        <ele>216.19999694824</ele>
        <time>2016-04-20T12:13:19Z</time>
      </trkpt>
      <trkpt lat="43.41547" lon="6.06442">
        <ele>216.39999389648</ele>
        <time>2016-04-20T12:13:21Z</time>
      </trkpt>
      <trkpt lat="43.41547" lon="6.06442">
        <ele>216.39999389648</ele>
        <time>2016-04-20T12:13:23Z</time>
      </trkpt>
      <trkpt lat="43.41547" lon="6.06442">
        <ele>216.39999389648</ele>
        <time>2016-04-20T12:13:25Z</time>
      </trkpt>
      <trkpt lat="43.41547" lon="6.06442">
        <ele>216.39999389648</ele>
        <time>2016-04-20T12:13:27Z</time>
      </trkpt>
      <trkpt lat="43.41547" lon="6.06442">
        <ele>216.60000610352</ele>
        <time>2016-04-20T12:13:29Z</time>
      </trkpt>
      <trkpt lat="43.41547" lon="6.06442">
        <ele>216.60000610352</ele>
        <time>2016-04-20T12:13:31Z</time>
      </trkpt>
      <trkpt lat="43.41547" lon="6.06442">
        <ele>216.60000610352</ele>
        <time>2016-04-20T12:13:33Z</time>
      </trkpt>
      <trkpt lat="43.41547" lon="6.06442">
        <ele>216.39999389648</ele>
        <time>2016-04-20T12:13:35Z</time>
      </trkpt>
      <trkpt lat="43.41547" lon="6.06442">
        <ele>216.19999694824</ele>
        <time>2016-04-20T12:13:37Z</time>
      </trkpt>
      <trkpt lat="43.41547" lon="6.06442">
        <ele>216.19999694824</ele>
        <time>2016-04-20T12:13:39Z</time>
      </trkpt>
      <trkpt lat="43.41547" lon="6.06442">
        <ele>216</ele>
        <time>2016-04-20T12:13:41Z</time>
      </trkpt>
      <trkpt lat="43.41547" lon="6.06442">
        <ele>216.19999694824</ele>
        <time>2016-04-20T12:13:43Z</time>
      </trkpt>
      <trkpt lat="43.41547" lon="6.06442">
        <ele>216.19999694824</ele>
        <time>2016-04-20T12:13:45Z</time>
      </trkpt>
      <trkpt lat="43.41547" lon="6.06442">
        <ele>216.19999694824</ele>
        <time>2016-04-20T12:13:47Z</time>
      </trkpt>
      <trkpt lat="43.41547" lon="6.06442">
        <ele>216</ele>
        <time>2016-04-20T12:13:49Z</time>
      </trkpt>
      <trkpt lat="43.41547" lon="6.06442">
        <ele>216</ele>
        <time>2016-04-20T12:13:51Z</time>
      </trkpt>
      <trkpt lat="43.41547" lon="6.06442">
        <ele>216</ele>
        <time>2016-04-20T12:13:53Z</time>
      </trkpt>
      <trkpt lat="43.41547" lon="6.06442">
        <ele>216.19999694824</ele>
        <time>2016-04-20T12:13:55Z</time>
      </trkpt>
      <trkpt lat="43.41547" lon="6.06442">
        <ele>216.19999694824</ele>
        <time>2016-04-20T12:13:57Z</time>
      </trkpt>
      <trkpt lat="43.41547" lon="6.06442">
        <ele>216.19999694824</ele>
        <time>2016-04-20T12:13:59Z</time>
      </trkpt>
      <trkpt lat="43.41547" lon="6.06442">
        <ele>216.39999389648</ele>
        <time>2016-04-20T12:14:01Z</time>
      </trkpt>
      <trkpt lat="43.41547" lon="6.06442">
        <ele>216.39999389648</ele>
        <time>2016-04-20T12:14:03Z</time>
      </trkpt>
      <trkpt lat="43.41547" lon="6.06442">
        <ele>216.39999389648</ele>
        <time>2016-04-20T12:14:05Z</time>
      </trkpt>
      <trkpt lat="43.41547" lon="6.06442">
        <ele>216.39999389648</ele>
        <time>2016-04-20T12:14:07Z</time>
      </trkpt>
      <trkpt lat="43.41547" lon="6.06442">
        <ele>216.39999389648</ele>
        <time>2016-04-20T12:14:09Z</time>
      </trkpt>
      <trkpt lat="43.41547" lon="6.06442">
        <ele>216.19999694824</ele>
        <time>2016-04-20T12:14:11Z</time>
      </trkpt>
      <trkpt lat="43.41547" lon="6.06442">
        <ele>216.19999694824</ele>
        <time>2016-04-20T12:14:13Z</time>
      </trkpt>
      <trkpt lat="43.41547" lon="6.06442">
        <ele>216</ele>
        <time>2016-04-20T12:14:15Z</time>
      </trkpt>
      <trkpt lat="43.41547" lon="6.06442">
        <ele>216</ele>
        <time>2016-04-20T12:14:17Z</time>
      </trkpt>
      <trkpt lat="43.41547" lon="6.06442">
        <ele>215.80000305176</ele>
        <time>2016-04-20T12:14:19Z</time>
      </trkpt>
      <trkpt lat="43.41547" lon="6.06442">
        <ele>215.80000305176</ele>
        <time>2016-04-20T12:14:21Z</time>
      </trkpt>
      <trkpt lat="43.41547" lon="6.06442">
        <ele>215.80000305176</ele>
        <time>2016-04-20T12:14:23Z</time>
      </trkpt>
      <trkpt lat="43.41547" lon="6.06442">
        <ele>215.80000305176</ele>
        <time>2016-04-20T12:14:25Z</time>
      </trkpt>
      <trkpt lat="43.41547" lon="6.06442">
        <ele>216</ele>
        <time>2016-04-20T12:14:27Z</time>
      </trkpt>
      <trkpt lat="43.41547" lon="6.06442">
        <ele>216</ele>
        <time>2016-04-20T12:14:29Z</time>
      </trkpt>
      <trkpt lat="43.41547" lon="6.06442">
        <ele>216</ele>
        <time>2016-04-20T12:14:31Z</time>
      </trkpt>
      <trkpt lat="43.41547" lon="6.06442">
        <ele>216</ele>
        <time>2016-04-20T12:14:33Z</time>
      </trkpt>
      <trkpt lat="43.41547" lon="6.06442">
        <ele>215.60000610352</ele>
        <time>2016-04-20T12:14:35Z</time>
      </trkpt>
      <trkpt lat="43.41547" lon="6.06442">
        <ele>215.60000610352</ele>
        <time>2016-04-20T12:14:37Z</time>
      </trkpt>
      <trkpt lat="43.41547" lon="6.06442">
        <ele>216</ele>
        <time>2016-04-20T12:14:39Z</time>
      </trkpt>
      <trkpt lat="43.41547" lon="6.06442">
        <ele>216</ele>
        <time>2016-04-20T12:14:41Z</time>
      </trkpt>
      <trkpt lat="43.41547" lon="6.06442">
        <ele>216</ele>
        <time>2016-04-20T12:14:43Z</time>
      </trkpt>
      <trkpt lat="43.41547" lon="6.06442">
        <ele>216</ele>
        <time>2016-04-20T12:14:45Z</time>
      </trkpt>
      <trkpt lat="43.41547" lon="6.06442">
        <ele>216</ele>
        <time>2016-04-20T12:14:47Z</time>
      </trkpt>
      <trkpt lat="43.41547" lon="6.06442">
        <ele>216</ele>
        <time>2016-04-20T12:14:49Z</time>
      </trkpt>
      <trkpt lat="43.41547" lon="6.06442">
        <ele>216</ele>
        <time>2016-04-20T12:14:51Z</time>
      </trkpt>
      <trkpt lat="43.41547" lon="6.06442">
        <ele>216</ele>
        <time>2016-04-20T12:14:52Z</time>
      </trkpt>
      <trkpt lat="43.41547" lon="6.06442">
        <ele>216</ele>
        <time>2016-04-20T12:14:53Z</time>
      </trkpt>
      <trkpt lat="43.41547" lon="6.06442">
        <ele>216</ele>
        <time>2016-04-20T12:14:54Z</time>
      </trkpt>
      <trkpt lat="43.41547" lon="6.06442">
        <ele>216.19999694824</ele>
        <time>2016-04-20T12:14:55Z</time>
      </trkpt>
      <trkpt lat="43.41547" lon="6.06442">
        <ele>216.39999389648</ele>
        <time>2016-04-20T12:14:57Z</time>
      </trkpt>
      <trkpt lat="43.41547" lon="6.06441">
        <ele>216.19999694824</ele>
        <time>2016-04-20T12:14:59Z</time>
      </trkpt>
      <trkpt lat="43.41547" lon="6.06441">
        <ele>216.19999694824</ele>
        <time>2016-04-20T12:15:01Z</time>
      </trkpt>
      <trkpt lat="43.41547" lon="6.06441">
        <ele>216.39999389648</ele>
        <time>2016-04-20T12:15:03Z</time>
      </trkpt>
      <trkpt lat="43.41547" lon="6.06441">
        <ele>216.60000610352</ele>
        <time>2016-04-20T12:15:05Z</time>
      </trkpt>
      <trkpt lat="43.41547" lon="6.06441">
        <ele>216.60000610352</ele>
        <time>2016-04-20T12:15:07Z</time>
      </trkpt>
      <trkpt lat="43.41547" lon="6.06441">
        <ele>216.39999389648</ele>
        <time>2016-04-20T12:15:09Z</time>
      </trkpt>
      <trkpt lat="43.41547" lon="6.06441">
        <ele>216.39999389648</ele>
        <time>2016-04-20T12:15:11Z</time>
      </trkpt>
      <trkpt lat="43.41547" lon="6.06441">
        <ele>216.19999694824</ele>
        <time>2016-04-20T12:15:13Z</time>
      </trkpt>
      <trkpt lat="43.41547" lon="6.06441">
        <ele>216.19999694824</ele>
        <time>2016-04-20T12:15:15Z</time>
      </trkpt>
      <trkpt lat="43.41547" lon="6.06441">
        <ele>216.19999694824</ele>
        <time>2016-04-20T12:15:17Z</time>
      </trkpt>
      <trkpt lat="43.41547" lon="6.06441">
        <ele>216.19999694824</ele>
        <time>2016-04-20T12:15:19Z</time>
      </trkpt>
      <trkpt lat="43.41547" lon="6.06441">
        <ele>216.19999694824</ele>
        <time>2016-04-20T12:15:21Z</time>
      </trkpt>
      <trkpt lat="43.41547" lon="6.06441">
        <ele>216</ele>
        <time>2016-04-20T12:15:23Z</time>
      </trkpt>
      <trkpt lat="43.41547" lon="6.06441">
        <ele>216</ele>
        <time>2016-04-20T12:15:25Z</time>
      </trkpt>
      <trkpt lat="43.41547" lon="6.06441">
        <ele>216</ele>
        <time>2016-04-20T12:15:27Z</time>
      </trkpt>
      <trkpt lat="43.41547" lon="6.06441">
        <ele>216</ele>
        <time>2016-04-20T12:15:29Z</time>
      </trkpt>
      <trkpt lat="43.41547" lon="6.06441">
        <ele>216</ele>
        <time>2016-04-20T12:15:31Z</time>
      </trkpt>
      <trkpt lat="43.41547" lon="6.06441">
        <ele>216.19999694824</ele>
        <time>2016-04-20T12:15:33Z</time>
      </trkpt>
      <trkpt lat="43.41547" lon="6.06441">
        <ele>216.39999389648</ele>
        <time>2016-04-20T12:15:35Z</time>
      </trkpt>
      <trkpt lat="43.41547" lon="6.06441">
        <ele>216.19999694824</ele>
        <time>2016-04-20T12:15:37Z</time>
      </trkpt>
      <trkpt lat="43.41547" lon="6.06441">
        <ele>216.19999694824</ele>
        <time>2016-04-20T12:15:39Z</time>
      </trkpt>
      <trkpt lat="43.41547" lon="6.06441">
        <ele>216.19999694824</ele>
        <time>2016-04-20T12:15:41Z</time>
      </trkpt>
      <trkpt lat="43.41547" lon="6.06441">
        <ele>216.19999694824</ele>
        <time>2016-04-20T12:15:43Z</time>
      </trkpt>
      <trkpt lat="43.41547" lon="6.06441">
        <ele>216.19999694824</ele>
        <time>2016-04-20T12:15:45Z</time>
      </trkpt>
      <trkpt lat="43.41547" lon="6.06441">
        <ele>216.19999694824</ele>
        <time>2016-04-20T12:15:47Z</time>
      </trkpt>
      <trkpt lat="43.41547" lon="6.06441">
        <ele>216.19999694824</ele>
        <time>2016-04-20T12:15:49Z</time>
      </trkpt>
      <trkpt lat="43.41547" lon="6.06441">
        <ele>216</ele>
        <time>2016-04-20T12:15:51Z</time>
      </trkpt>
      <trkpt lat="43.41547" lon="6.06441">
        <ele>216</ele>
        <time>2016-04-20T12:15:53Z</time>
      </trkpt>
      <trkpt lat="43.41547" lon="6.06441">
        <ele>215.80000305176</ele>
        <time>2016-04-20T12:15:55Z</time>
      </trkpt>
      <trkpt lat="43.41547" lon="6.06441">
        <ele>215.80000305176</ele>
        <time>2016-04-20T12:15:57Z</time>
      </trkpt>
      <trkpt lat="43.41547" lon="6.06441">
        <ele>215.80000305176</ele>
        <time>2016-04-20T12:15:59Z</time>
      </trkpt>
      <trkpt lat="43.41547" lon="6.06441">
        <ele>215.60000610352</ele>
        <time>2016-04-20T12:16:01Z</time>
      </trkpt>
      <trkpt lat="43.41547" lon="6.06441">
        <ele>215.60000610352</ele>
        <time>2016-04-20T12:16:03Z</time>
      </trkpt>
      <trkpt lat="43.41547" lon="6.06441">
        <ele>215.60000610352</ele>
        <time>2016-04-20T12:16:05Z</time>
      </trkpt>
      <trkpt lat="43.41547" lon="6.06441">
        <ele>215.80000305176</ele>
        <time>2016-04-20T12:16:07Z</time>
      </trkpt>
      <trkpt lat="43.41547" lon="6.06441">
        <ele>215.80000305176</ele>
        <time>2016-04-20T12:16:09Z</time>
      </trkpt>
      <trkpt lat="43.41547" lon="6.06441">
        <ele>216</ele>
        <time>2016-04-20T12:16:11Z</time>
      </trkpt>
      <trkpt lat="43.41547" lon="6.06441">
        <ele>216</ele>
        <time>2016-04-20T12:16:13Z</time>
      </trkpt>
      <trkpt lat="43.41547" lon="6.06441">
        <ele>215.80000305176</ele>
        <time>2016-04-20T12:16:15Z</time>
      </trkpt>
      <trkpt lat="43.41547" lon="6.06441">
        <ele>215.80000305176</ele>
        <time>2016-04-20T12:16:17Z</time>
      </trkpt>
      <trkpt lat="43.41547" lon="6.06441">
        <ele>215.80000305176</ele>
        <time>2016-04-20T12:16:19Z</time>
      </trkpt>
      <trkpt lat="43.41547" lon="6.06441">
        <ele>215.80000305176</ele>
        <time>2016-04-20T12:16:21Z</time>
      </trkpt>
      <trkpt lat="43.41547" lon="6.06441">
        <ele>216</ele>
        <time>2016-04-20T12:16:23Z</time>
      </trkpt>
      <trkpt lat="43.41547" lon="6.06441">
        <ele>216</ele>
        <time>2016-04-20T12:16:25Z</time>
      </trkpt>
      <trkpt lat="43.41547" lon="6.06441">
        <ele>216</ele>
        <time>2016-04-20T12:16:27Z</time>
      </trkpt>
      <trkpt lat="43.41547" lon="6.06441">
        <ele>216</ele>
        <time>2016-04-20T12:16:29Z</time>
      </trkpt>
      <trkpt lat="43.41547" lon="6.06441">
        <ele>216</ele>
        <time>2016-04-20T12:16:31Z</time>
      </trkpt>
      <trkpt lat="43.41547" lon="6.06441">
        <ele>216</ele>
        <time>2016-04-20T12:16:33Z</time>
      </trkpt>
      <trkpt lat="43.41547" lon="6.06441">
        <ele>216</ele>
        <time>2016-04-20T12:16:35Z</time>
      </trkpt>
      <trkpt lat="43.41547" lon="6.06441">
        <ele>216</ele>
        <time>2016-04-20T12:16:36Z</time>
      </trkpt>
      <trkpt lat="43.41547" lon="6.06441">
        <ele>216</ele>
        <time>2016-04-20T12:16:37Z</time>
      </trkpt>
      <trkpt lat="43.41547" lon="6.0644">
        <ele>216.39999389648</ele>
        <time>2016-04-20T12:16:39Z</time>
      </trkpt>
      <trkpt lat="43.41547" lon="6.06436">
        <ele>216.39999389648</ele>
        <time>2016-04-20T12:16:41Z</time>
      </trkpt>
      <trkpt lat="43.41548" lon="6.06433">
        <ele>216.39999389648</ele>
        <time>2016-04-20T12:16:42Z</time>
      </trkpt>
      <trkpt lat="43.41548" lon="6.0643">
        <ele>216.60000610352</ele>
        <time>2016-04-20T12:16:43Z</time>
      </trkpt>
      <trkpt lat="43.4155" lon="6.06422">
        <ele>216.60000610352</ele>
        <time>2016-04-20T12:16:45Z</time>
      </trkpt>
      <trkpt lat="43.41552" lon="6.06414">
        <ele>216.80000305176</ele>
        <time>2016-04-20T12:16:47Z</time>
      </trkpt>
      <trkpt lat="43.41552" lon="6.0641">
        <ele>217</ele>
        <time>2016-04-20T12:16:48Z</time>
      </trkpt>
      <trkpt lat="43.41553" lon="6.06406">
        <ele>217.39999389648</ele>
        <time>2016-04-20T12:16:49Z</time>
      </trkpt>
      <trkpt lat="43.41554" lon="6.06398">
        <ele>217.60000610352</ele>
        <time>2016-04-20T12:16:51Z</time>
      </trkpt>
      <trkpt lat="43.41555" lon="6.06389">
        <ele>218.19999694824</ele>
        <time>2016-04-20T12:16:53Z</time>
      </trkpt>
      <trkpt lat="43.41557" lon="6.06381">
        <ele>218.39999389648</ele>
        <time>2016-04-20T12:16:55Z</time>
      </trkpt>
      <trkpt lat="43.41559" lon="6.06372">
        <ele>219.19999694824</ele>
        <time>2016-04-20T12:16:57Z</time>
      </trkpt>
      <trkpt lat="43.41561" lon="6.06364">
        <ele>219.39999389648</ele>
        <time>2016-04-20T12:16:59Z</time>
      </trkpt>
      <trkpt lat="43.41564" lon="6.06357">
        <ele>219.80000305176</ele>
        <time>2016-04-20T12:17:01Z</time>
      </trkpt>
      <trkpt lat="43.41567" lon="6.0635">
        <ele>220</ele>
        <time>2016-04-20T12:17:03Z</time>
      </trkpt>
      <trkpt lat="43.41567" lon="6.0635">
        <ele>220.19999694824</ele>
        <time>2016-04-20T12:17:04Z</time>
      </trkpt>
      <trkpt lat="43.4157" lon="6.06344">
        <ele>220.60000610352</ele>
        <time>2016-04-20T12:17:05Z</time>
      </trkpt>
      <trkpt lat="43.41574" lon="6.06338">
        <ele>220.80000305176</ele>
        <time>2016-04-20T12:17:07Z</time>
      </trkpt>
      <trkpt lat="43.41578" lon="6.06333">
        <ele>221.19999694824</ele>
        <time>2016-04-20T12:17:09Z</time>
      </trkpt>
      <trkpt lat="43.41582" lon="6.06327">
        <ele>221.60000610352</ele>
        <time>2016-04-20T12:17:11Z</time>
      </trkpt>
      <trkpt lat="43.41586" lon="6.06321">
        <ele>222.19999694824</ele>
        <time>2016-04-20T12:17:13Z</time>
      </trkpt>
      <trkpt lat="43.41588" lon="6.06314">
        <ele>222.39999389648</ele>
        <time>2016-04-20T12:17:15Z</time>
      </trkpt>
      <trkpt lat="43.4159" lon="6.06306">
        <ele>222.60000610352</ele>
        <time>2016-04-20T12:17:17Z</time>
      </trkpt>
      <trkpt lat="43.4159" lon="6.06302">
        <ele>222.60000610352</ele>
        <time>2016-04-20T12:17:18Z</time>
      </trkpt>
      <trkpt lat="43.4159" lon="6.06298">
        <ele>222.80000305176</ele>
        <time>2016-04-20T12:17:19Z</time>
      </trkpt>
      <trkpt lat="43.41589" lon="6.06291">
        <ele>223</ele>
        <time>2016-04-20T12:17:21Z</time>
      </trkpt>
      <trkpt lat="43.41588" lon="6.06283">
        <ele>223.19999694824</ele>
        <time>2016-04-20T12:17:23Z</time>
      </trkpt>
      <trkpt lat="43.41588" lon="6.06276">
        <ele>223.39999389648</ele>
        <time>2016-04-20T12:17:25Z</time>
      </trkpt>
      <trkpt lat="43.41591" lon="6.0627">
        <ele>223.80000305176</ele>
        <time>2016-04-20T12:17:27Z</time>
      </trkpt>
      <trkpt lat="43.41591" lon="6.0627">
        <ele>223.80000305176</ele>
        <time>2016-04-20T12:17:28Z</time>
      </trkpt>
      <trkpt lat="43.41595" lon="6.06266">
        <ele>224</ele>
        <time>2016-04-20T12:17:29Z</time>
      </trkpt>
      <trkpt lat="43.416" lon="6.06263">
        <ele>224.19999694824</ele>
        <time>2016-04-20T12:17:31Z</time>
      </trkpt>
      <trkpt lat="43.41603" lon="6.06262">
        <ele>224.39999389648</ele>
        <time>2016-04-20T12:17:33Z</time>
      </trkpt>
      <trkpt lat="43.41603" lon="6.06262">
        <ele>224.39999389648</ele>
        <time>2016-04-20T12:17:34Z</time>
      </trkpt>
      <trkpt lat="43.41604" lon="6.06261">
        <ele>224.60000610352</ele>
        <time>2016-04-20T12:17:35Z</time>
      </trkpt>
      <trkpt lat="43.41604" lon="6.06261">
        <ele>224.80000305176</ele>
        <time>2016-04-20T12:17:37Z</time>
      </trkpt>
      <trkpt lat="43.41604" lon="6.06261">
        <ele>225</ele>
        <time>2016-04-20T12:17:38Z</time>
      </trkpt>
      <trkpt lat="43.41604" lon="6.0626">
        <ele>224.60000610352</ele>
        <time>2016-04-20T12:17:39Z</time>
      </trkpt>
      <trkpt lat="43.41605" lon="6.06258">
        <ele>224.60000610352</ele>
        <time>2016-04-20T12:17:41Z</time>
      </trkpt>
      <trkpt lat="43.41605" lon="6.06254">
        <ele>224.60000610352</ele>
        <time>2016-04-20T12:17:43Z</time>
      </trkpt>
      <trkpt lat="43.41605" lon="6.06254">
        <ele>224.60000610352</ele>
        <time>2016-04-20T12:17:44Z</time>
      </trkpt>
      <trkpt lat="43.41606" lon="6.06248">
        <ele>224.60000610352</ele>
        <time>2016-04-20T12:17:45Z</time>
      </trkpt>
      <trkpt lat="43.41607" lon="6.06242">
        <ele>224.39999389648</ele>
        <time>2016-04-20T12:17:47Z</time>
      </trkpt>
      <trkpt lat="43.41609" lon="6.06234">
        <ele>224.80000305176</ele>
        <time>2016-04-20T12:17:49Z</time>
      </trkpt>
      <trkpt lat="43.4161" lon="6.06227">
        <ele>224.80000305176</ele>
        <time>2016-04-20T12:17:51Z</time>
      </trkpt>
      <trkpt lat="43.4161" lon="6.06219">
        <ele>224.80000305176</ele>
        <time>2016-04-20T12:17:53Z</time>
      </trkpt>
      <trkpt lat="43.41608" lon="6.0621">
        <ele>225</ele>
        <time>2016-04-20T12:17:55Z</time>
      </trkpt>
      <trkpt lat="43.41608" lon="6.0621">
        <ele>224.80000305176</ele>
        <time>2016-04-20T12:17:56Z</time>
      </trkpt>
      <trkpt lat="43.41606" lon="6.06201">
        <ele>224.80000305176</ele>
        <time>2016-04-20T12:17:57Z</time>
      </trkpt>
      <trkpt lat="43.41603" lon="6.06191">
        <ele>224.60000610352</ele>
        <time>2016-04-20T12:17:59Z</time>
      </trkpt>
      <trkpt lat="43.41602" lon="6.06185">
        <ele>224.39999389648</ele>
        <time>2016-04-20T12:18:00Z</time>
      </trkpt>
      <trkpt lat="43.41603" lon="6.06179">
        <ele>224</ele>
        <time>2016-04-20T12:18:01Z</time>
      </trkpt>
      <trkpt lat="43.41608" lon="6.06167">
        <ele>224.19999694824</ele>
        <time>2016-04-20T12:18:03Z</time>
      </trkpt>
      <trkpt lat="43.41615" lon="6.06156">
        <ele>224</ele>
        <time>2016-04-20T12:18:05Z</time>
      </trkpt>
      <trkpt lat="43.41621" lon="6.06146">
        <ele>224</ele>
        <time>2016-04-20T12:18:07Z</time>
      </trkpt>
      <trkpt lat="43.41621" lon="6.06146">
        <ele>223.80000305176</ele>
        <time>2016-04-20T12:18:08Z</time>
      </trkpt>
      <trkpt lat="43.41628" lon="6.06138">
        <ele>223.80000305176</ele>
        <time>2016-04-20T12:18:09Z</time>
      </trkpt>
      <trkpt lat="43.41629" lon="6.06128">
        <ele>223.80000305176</ele>
        <time>2016-04-20T12:18:11Z</time>
      </trkpt>
      <trkpt lat="43.41626" lon="6.06116">
        <ele>223.80000305176</ele>
        <time>2016-04-20T12:18:13Z</time>
      </trkpt>
      <trkpt lat="43.41621" lon="6.06103">
        <ele>223.60000610352</ele>
        <time>2016-04-20T12:18:15Z</time>
      </trkpt>
      <trkpt lat="43.41619" lon="6.06089">
        <ele>223.19999694824</ele>
        <time>2016-04-20T12:18:17Z</time>
      </trkpt>
      <trkpt lat="43.41618" lon="6.06076">
        <ele>223.19999694824</ele>
        <time>2016-04-20T12:18:19Z</time>
      </trkpt>
      <trkpt lat="43.41618" lon="6.06069">
        <ele>223.39999389648</ele>
        <time>2016-04-20T12:18:20Z</time>
      </trkpt>
      <trkpt lat="43.41619" lon="6.06063">
        <ele>223.60000610352</ele>
        <time>2016-04-20T12:18:21Z</time>
      </trkpt>
      <trkpt lat="43.41619" lon="6.06051">
        <ele>224</ele>
        <time>2016-04-20T12:18:23Z</time>
      </trkpt>
      <trkpt lat="43.41621" lon="6.06039">
        <ele>224.19999694824</ele>
        <time>2016-04-20T12:18:25Z</time>
      </trkpt>
      <trkpt lat="43.41622" lon="6.06028">
        <ele>224.39999389648</ele>
        <time>2016-04-20T12:18:27Z</time>
      </trkpt>
      <trkpt lat="43.41624" lon="6.06017">
        <ele>224.80000305176</ele>
        <time>2016-04-20T12:18:29Z</time>
      </trkpt>
      <trkpt lat="43.41624" lon="6.06011">
        <ele>225</ele>
        <time>2016-04-20T12:18:30Z</time>
      </trkpt>
      <trkpt lat="43.41626" lon="6.06006">
        <ele>225.19999694824</ele>
        <time>2016-04-20T12:18:31Z</time>
      </trkpt>
      <trkpt lat="43.41627" lon="6.05995">
        <ele>225.39999389648</ele>
        <time>2016-04-20T12:18:33Z</time>
      </trkpt>
      <trkpt lat="43.41629" lon="6.05984">
        <ele>225.60000610352</ele>
        <time>2016-04-20T12:18:35Z</time>
      </trkpt>
      <trkpt lat="43.41631" lon="6.05973">
        <ele>226</ele>
        <time>2016-04-20T12:18:37Z</time>
      </trkpt>
      <trkpt lat="43.41632" lon="6.05962">
        <ele>226.39999389648</ele>
        <time>2016-04-20T12:18:39Z</time>
      </trkpt>
      <trkpt lat="43.41634" lon="6.05951">
        <ele>226.80000305176</ele>
        <time>2016-04-20T12:18:41Z</time>
      </trkpt>
      <trkpt lat="43.41635" lon="6.05946">
        <ele>227</ele>
        <time>2016-04-20T12:18:42Z</time>
      </trkpt>
      <trkpt lat="43.41636" lon="6.05941">
        <ele>227.19999694824</ele>
        <time>2016-04-20T12:18:43Z</time>
      </trkpt>
      <trkpt lat="43.41637" lon="6.05929">
        <ele>227.39999389648</ele>
        <time>2016-04-20T12:18:45Z</time>
      </trkpt>
      <trkpt lat="43.41639" lon="6.05917">
        <ele>227.80000305176</ele>
        <time>2016-04-20T12:18:47Z</time>
      </trkpt>
      <trkpt lat="43.41639" lon="6.05911">
        <ele>228</ele>
        <time>2016-04-20T12:18:48Z</time>
      </trkpt>
      <trkpt lat="43.4164" lon="6.05906">
        <ele>228.19999694824</ele>
        <time>2016-04-20T12:18:49Z</time>
      </trkpt>
      <trkpt lat="43.41642" lon="6.05894">
        <ele>228.39999389648</ele>
        <time>2016-04-20T12:18:51Z</time>
      </trkpt>
      <trkpt lat="43.41643" lon="6.05883">
        <ele>228.39999389648</ele>
        <time>2016-04-20T12:18:53Z</time>
      </trkpt>
      <trkpt lat="43.41644" lon="6.05871">
        <ele>228.60000610352</ele>
        <time>2016-04-20T12:18:55Z</time>
      </trkpt>
      <trkpt lat="43.41645" lon="6.0586">
        <ele>228.80000305176</ele>
        <time>2016-04-20T12:18:57Z</time>
      </trkpt>
      <trkpt lat="43.41645" lon="6.05854">
        <ele>229</ele>
        <time>2016-04-20T12:18:58Z</time>
      </trkpt>
      <trkpt lat="43.41645" lon="6.05848">
        <ele>229</ele>
        <time>2016-04-20T12:18:59Z</time>
      </trkpt>
      <trkpt lat="43.41646" lon="6.05837">
        <ele>229.39999389648</ele>
        <time>2016-04-20T12:19:01Z</time>
      </trkpt>
      <trkpt lat="43.41647" lon="6.05825">
        <ele>229.60000610352</ele>
        <time>2016-04-20T12:19:03Z</time>
      </trkpt>
      <trkpt lat="43.41648" lon="6.05813">
        <ele>229.60000610352</ele>
        <time>2016-04-20T12:19:05Z</time>
      </trkpt>
      <trkpt lat="43.41649" lon="6.05801">
        <ele>229.60000610352</ele>
        <time>2016-04-20T12:19:07Z</time>
      </trkpt>
      <trkpt lat="43.41649" lon="6.0579">
        <ele>229.60000610352</ele>
        <time>2016-04-20T12:19:09Z</time>
      </trkpt>
      <trkpt lat="43.41649" lon="6.05778">
        <ele>229.39999389648</ele>
        <time>2016-04-20T12:19:11Z</time>
      </trkpt>
      <trkpt lat="43.41649" lon="6.05765">
        <ele>229.39999389648</ele>
        <time>2016-04-20T12:19:13Z</time>
      </trkpt>
      <trkpt lat="43.41649" lon="6.05753">
        <ele>229.39999389648</ele>
        <time>2016-04-20T12:19:15Z</time>
      </trkpt>
      <trkpt lat="43.41649" lon="6.0574">
        <ele>229.60000610352</ele>
        <time>2016-04-20T12:19:17Z</time>
      </trkpt>
      <trkpt lat="43.41648" lon="6.05728">
        <ele>229.60000610352</ele>
        <time>2016-04-20T12:19:19Z</time>
      </trkpt>
      <trkpt lat="43.41648" lon="6.05716">
        <ele>229.60000610352</ele>
        <time>2016-04-20T12:19:21Z</time>
      </trkpt>
      <trkpt lat="43.41648" lon="6.0571">
        <ele>229.60000610352</ele>
        <time>2016-04-20T12:19:22Z</time>
      </trkpt>
      <trkpt lat="43.41647" lon="6.05705">
        <ele>229.80000305176</ele>
        <time>2016-04-20T12:19:23Z</time>
      </trkpt>
      <trkpt lat="43.41647" lon="6.05696">
        <ele>229.80000305176</ele>
        <time>2016-04-20T12:19:25Z</time>
      </trkpt>
      <trkpt lat="43.41647" lon="6.0569">
        <ele>229.60000610352</ele>
        <time>2016-04-20T12:19:27Z</time>
      </trkpt>
      <trkpt lat="43.41647" lon="6.05684">
        <ele>229.60000610352</ele>
        <time>2016-04-20T12:19:29Z</time>
      </trkpt>
      <trkpt lat="43.41646" lon="6.05678">
        <ele>229.60000610352</ele>
        <time>2016-04-20T12:19:31Z</time>
      </trkpt>
      <trkpt lat="43.41644" lon="6.0567">
        <ele>229.39999389648</ele>
        <time>2016-04-20T12:19:33Z</time>
      </trkpt>
      <trkpt lat="43.41644" lon="6.05662">
        <ele>229.39999389648</ele>
        <time>2016-04-20T12:19:35Z</time>
      </trkpt>
      <trkpt lat="43.41643" lon="6.05652">
        <ele>229.39999389648</ele>
        <time>2016-04-20T12:19:37Z</time>
      </trkpt>
      <trkpt lat="43.41642" lon="6.05642">
        <ele>229.19999694824</ele>
        <time>2016-04-20T12:19:39Z</time>
      </trkpt>
      <trkpt lat="43.41641" lon="6.05636">
        <ele>229.19999694824</ele>
        <time>2016-04-20T12:19:40Z</time>
      </trkpt>
      <trkpt lat="43.4164" lon="6.05631">
        <ele>229</ele>
        <time>2016-04-20T12:19:41Z</time>
      </trkpt>
      <trkpt lat="43.41639" lon="6.05621">
        <ele>229</ele>
        <time>2016-04-20T12:19:43Z</time>
      </trkpt>
      <trkpt lat="43.41637" lon="6.0561">
        <ele>228.80000305176</ele>
        <time>2016-04-20T12:19:45Z</time>
      </trkpt>
      <trkpt lat="43.41636" lon="6.05599">
        <ele>228.80000305176</ele>
        <time>2016-04-20T12:19:47Z</time>
      </trkpt>
      <trkpt lat="43.41635" lon="6.05593">
        <ele>228.80000305176</ele>
        <time>2016-04-20T12:19:48Z</time>
      </trkpt>
      <trkpt lat="43.41634" lon="6.05587">
        <ele>228.60000610352</ele>
        <time>2016-04-20T12:19:49Z</time>
      </trkpt>
      <trkpt lat="43.41632" lon="6.05575">
        <ele>228.60000610352</ele>
        <time>2016-04-20T12:19:51Z</time>
      </trkpt>
      <trkpt lat="43.41629" lon="6.05563">
        <ele>228.60000610352</ele>
        <time>2016-04-20T12:19:53Z</time>
      </trkpt>
      <trkpt lat="43.41627" lon="6.05552">
        <ele>228.39999389648</ele>
        <time>2016-04-20T12:19:55Z</time>
      </trkpt>
      <trkpt lat="43.41624" lon="6.0554">
        <ele>228.39999389648</ele>
        <time>2016-04-20T12:19:57Z</time>
      </trkpt>
      <trkpt lat="43.4162" lon="6.05528">
        <ele>228.19999694824</ele>
        <time>2016-04-20T12:19:59Z</time>
      </trkpt>
      <trkpt lat="43.41617" lon="6.05516">
        <ele>228.19999694824</ele>
        <time>2016-04-20T12:20:01Z</time>
      </trkpt>
      <trkpt lat="43.41614" lon="6.05504">
        <ele>228.19999694824</ele>
        <time>2016-04-20T12:20:03Z</time>
      </trkpt>
      <trkpt lat="43.41611" lon="6.05492">
        <ele>228.19999694824</ele>
        <time>2016-04-20T12:20:05Z</time>
      </trkpt>
      <trkpt lat="43.41607" lon="6.0548">
        <ele>228.19999694824</ele>
        <time>2016-04-20T12:20:07Z</time>
      </trkpt>
      <trkpt lat="43.41604" lon="6.05468">
        <ele>228.19999694824</ele>
        <time>2016-04-20T12:20:09Z</time>
      </trkpt>
      <trkpt lat="43.416" lon="6.05455">
        <ele>228</ele>
        <time>2016-04-20T12:20:11Z</time>
      </trkpt>
      <trkpt lat="43.41599" lon="6.05449">
        <ele>228</ele>
        <time>2016-04-20T12:20:12Z</time>
      </trkpt>
      <trkpt lat="43.41597" lon="6.05443">
        <ele>228</ele>
        <time>2016-04-20T12:20:13Z</time>
      </trkpt>
      <trkpt lat="43.41594" lon="6.05431">
        <ele>227.80000305176</ele>
        <time>2016-04-20T12:20:15Z</time>
      </trkpt>
      <trkpt lat="43.41589" lon="6.05419">
        <ele>227.80000305176</ele>
        <time>2016-04-20T12:20:17Z</time>
      </trkpt>
      <trkpt lat="43.41585" lon="6.05406">
        <ele>227.80000305176</ele>
        <time>2016-04-20T12:20:19Z</time>
      </trkpt>
      <trkpt lat="43.41581" lon="6.05394">
        <ele>227.80000305176</ele>
        <time>2016-04-20T12:20:21Z</time>
      </trkpt>
      <trkpt lat="43.41577" lon="6.05381">
        <ele>227.80000305176</ele>
        <time>2016-04-20T12:20:23Z</time>
      </trkpt>
      <trkpt lat="43.41572" lon="6.05368">
        <ele>227.80000305176</ele>
        <time>2016-04-20T12:20:25Z</time>
      </trkpt>
      <trkpt lat="43.41567" lon="6.05356">
        <ele>227.80000305176</ele>
        <time>2016-04-20T12:20:27Z</time>
      </trkpt>
      <trkpt lat="43.41561" lon="6.05343">
        <ele>227.60000610352</ele>
        <time>2016-04-20T12:20:29Z</time>
      </trkpt>
      <trkpt lat="43.41558" lon="6.05336">
        <ele>227.39999389648</ele>
        <time>2016-04-20T12:20:30Z</time>
      </trkpt>
      <trkpt lat="43.41556" lon="6.05329">
        <ele>227.39999389648</ele>
        <time>2016-04-20T12:20:31Z</time>
      </trkpt>
      <trkpt lat="43.41553" lon="6.05322">
        <ele>227.39999389648</ele>
        <time>2016-04-20T12:20:32Z</time>
      </trkpt>
      <trkpt lat="43.41552" lon="6.05315">
        <ele>227.39999389648</ele>
        <time>2016-04-20T12:20:33Z</time>
      </trkpt>
      <trkpt lat="43.41548" lon="6.053">
        <ele>227.19999694824</ele>
        <time>2016-04-20T12:20:35Z</time>
      </trkpt>
      <trkpt lat="43.41543" lon="6.05285">
        <ele>227</ele>
        <time>2016-04-20T12:20:37Z</time>
      </trkpt>
      <trkpt lat="43.41538" lon="6.0527">
        <ele>227</ele>
        <time>2016-04-20T12:20:39Z</time>
      </trkpt>
      <trkpt lat="43.41538" lon="6.0527">
        <ele>226.80000305176</ele>
        <time>2016-04-20T12:20:40Z</time>
      </trkpt>
      <trkpt lat="43.41533" lon="6.05255">
        <ele>226.80000305176</ele>
        <time>2016-04-20T12:20:41Z</time>
      </trkpt>
      <trkpt lat="43.41526" lon="6.0524">
        <ele>226.39999389648</ele>
        <time>2016-04-20T12:20:43Z</time>
      </trkpt>
      <trkpt lat="43.41519" lon="6.05225">
        <ele>226</ele>
        <time>2016-04-20T12:20:45Z</time>
      </trkpt>
      <trkpt lat="43.41515" lon="6.05217">
        <ele>225.80000305176</ele>
        <time>2016-04-20T12:20:46Z</time>
      </trkpt>
      <trkpt lat="43.41512" lon="6.05209">
        <ele>225.60000610352</ele>
        <time>2016-04-20T12:20:47Z</time>
      </trkpt>
      <trkpt lat="43.41505" lon="6.05194">
        <ele>225.19999694824</ele>
        <time>2016-04-20T12:20:49Z</time>
      </trkpt>
      <trkpt lat="43.41499" lon="6.0518">
        <ele>224.60000610352</ele>
        <time>2016-04-20T12:20:51Z</time>
      </trkpt>
      <trkpt lat="43.41497" lon="6.05169">
        <ele>224.19999694824</ele>
        <time>2016-04-20T12:20:53Z</time>
      </trkpt>
      <trkpt lat="43.41501" lon="6.0516">
        <ele>223.80000305176</ele>
        <time>2016-04-20T12:20:55Z</time>
      </trkpt>
      <trkpt lat="43.41501" lon="6.0516">
        <ele>223.80000305176</ele>
        <time>2016-04-20T12:20:56Z</time>
      </trkpt>
      <trkpt lat="43.41508" lon="6.05158">
        <ele>223.80000305176</ele>
        <time>2016-04-20T12:20:57Z</time>
      </trkpt>
      <trkpt lat="43.41515" lon="6.05156">
        <ele>224</ele>
        <time>2016-04-20T12:20:59Z</time>
      </trkpt>
      <trkpt lat="43.41523" lon="6.05155">
        <ele>224.39999389648</ele>
        <time>2016-04-20T12:21:01Z</time>
      </trkpt>
      <trkpt lat="43.41531" lon="6.05154">
        <ele>224.60000610352</ele>
        <time>2016-04-20T12:21:03Z</time>
      </trkpt>
      <trkpt lat="43.41539" lon="6.05154">
        <ele>224.80000305176</ele>
        <time>2016-04-20T12:21:05Z</time>
      </trkpt>
      <trkpt lat="43.41546" lon="6.05154">
        <ele>225.19999694824</ele>
        <time>2016-04-20T12:21:07Z</time>
      </trkpt>
      <trkpt lat="43.41553" lon="6.05155">
        <ele>225.39999389648</ele>
        <time>2016-04-20T12:21:09Z</time>
      </trkpt>
      <trkpt lat="43.41556" lon="6.05155">
        <ele>225.60000610352</ele>
        <time>2016-04-20T12:21:10Z</time>
      </trkpt>
      <trkpt lat="43.41559" lon="6.05156">
        <ele>226</ele>
        <time>2016-04-20T12:21:11Z</time>
      </trkpt>
      <trkpt lat="43.41566" lon="6.05157">
        <ele>226.60000610352</ele>
        <time>2016-04-20T12:21:13Z</time>
      </trkpt>
      <trkpt lat="43.41566" lon="6.05157">
        <ele>226.80000305176</ele>
        <time>2016-04-20T12:21:14Z</time>
      </trkpt>
      <trkpt lat="43.41572" lon="6.05158">
        <ele>227</ele>
        <time>2016-04-20T12:21:15Z</time>
      </trkpt>
      <trkpt lat="43.41575" lon="6.05158">
        <ele>227.19999694824</ele>
        <time>2016-04-20T12:21:16Z</time>
      </trkpt>
      <trkpt lat="43.41578" lon="6.05159">
        <ele>227.39999389648</ele>
        <time>2016-04-20T12:21:17Z</time>
      </trkpt>
      <trkpt lat="43.41585" lon="6.05161">
        <ele>228</ele>
        <time>2016-04-20T12:21:19Z</time>
      </trkpt>
      <trkpt lat="43.41591" lon="6.05162">
        <ele>228.39999389648</ele>
        <time>2016-04-20T12:21:21Z</time>
      </trkpt>
      <trkpt lat="43.41598" lon="6.05162">
        <ele>228.80000305176</ele>
        <time>2016-04-20T12:21:23Z</time>
      </trkpt>
      <trkpt lat="43.41601" lon="6.05162">
        <ele>229</ele>
        <time>2016-04-20T12:21:24Z</time>
      </trkpt>
      <trkpt lat="43.41604" lon="6.05162">
        <ele>229</ele>
        <time>2016-04-20T12:21:25Z</time>
      </trkpt>
      <trkpt lat="43.41611" lon="6.05163">
        <ele>229.60000610352</ele>
        <time>2016-04-20T12:21:27Z</time>
      </trkpt>
      <trkpt lat="43.41618" lon="6.05164">
        <ele>230</ele>
        <time>2016-04-20T12:21:29Z</time>
      </trkpt>
      <trkpt lat="43.41621" lon="6.05164">
        <ele>230.39999389648</ele>
        <time>2016-04-20T12:21:30Z</time>
      </trkpt>
      <trkpt lat="43.41624" lon="6.05165">
        <ele>230.60000610352</ele>
        <time>2016-04-20T12:21:31Z</time>
      </trkpt>
      <trkpt lat="43.41631" lon="6.05165">
        <ele>230.80000305176</ele>
        <time>2016-04-20T12:21:33Z</time>
      </trkpt>
      <trkpt lat="43.41634" lon="6.05166">
        <ele>231</ele>
        <time>2016-04-20T12:21:34Z</time>
      </trkpt>
      <trkpt lat="43.41637" lon="6.05166">
        <ele>231.19999694824</ele>
        <time>2016-04-20T12:21:35Z</time>
      </trkpt>
      <trkpt lat="43.4164" lon="6.05166">
        <ele>231.39999389648</ele>
        <time>2016-04-20T12:21:36Z</time>
      </trkpt>
      <trkpt lat="43.41643" lon="6.05166">
        <ele>231.60000610352</ele>
        <time>2016-04-20T12:21:37Z</time>
      </trkpt>
      <trkpt lat="43.41648" lon="6.05167">
        <ele>232.19999694824</ele>
        <time>2016-04-20T12:21:39Z</time>
      </trkpt>
      <trkpt lat="43.41654" lon="6.05167">
        <ele>232.39999389648</ele>
        <time>2016-04-20T12:21:41Z</time>
      </trkpt>
      <trkpt lat="43.4166" lon="6.05167">
        <ele>232.60000610352</ele>
        <time>2016-04-20T12:21:43Z</time>
      </trkpt>
      <trkpt lat="43.41665" lon="6.05165">
        <ele>233.19999694824</ele>
        <time>2016-04-20T12:21:45Z</time>
      </trkpt>
      <trkpt lat="43.41668" lon="6.05163">
        <ele>233.39999389648</ele>
        <time>2016-04-20T12:21:46Z</time>
      </trkpt>
      <trkpt lat="43.4167" lon="6.05162">
        <ele>233.60000610352</ele>
        <time>2016-04-20T12:21:47Z</time>
      </trkpt>
      <trkpt lat="43.41674" lon="6.05157">
        <ele>234.19999694824</ele>
        <time>2016-04-20T12:21:49Z</time>
      </trkpt>
      <trkpt lat="43.41679" lon="6.05152">
        <ele>234.60000610352</ele>
        <time>2016-04-20T12:21:51Z</time>
      </trkpt>
      <trkpt lat="43.41682" lon="6.05147">
        <ele>234.60000610352</ele>
        <time>2016-04-20T12:21:53Z</time>
      </trkpt>
      <trkpt lat="43.41687" lon="6.05142">
        <ele>235</ele>
        <time>2016-04-20T12:21:55Z</time>
      </trkpt>
      <trkpt lat="43.41687" lon="6.05142">
        <ele>235.19999694824</ele>
        <time>2016-04-20T12:21:56Z</time>
      </trkpt>
      <trkpt lat="43.41691" lon="6.05137">
        <ele>235.19999694824</ele>
        <time>2016-04-20T12:21:57Z</time>
      </trkpt>
      <trkpt lat="43.41695" lon="6.05132">
        <ele>235.39999389648</ele>
        <time>2016-04-20T12:21:59Z</time>
      </trkpt>
      <trkpt lat="43.41698" lon="6.0513">
        <ele>235.60000610352</ele>
        <time>2016-04-20T12:22:00Z</time>
      </trkpt>
      <trkpt lat="43.417" lon="6.05128">
        <ele>235.80000305176</ele>
        <time>2016-04-20T12:22:01Z</time>
      </trkpt>
      <trkpt lat="43.41705" lon="6.05124">
        <ele>236</ele>
        <time>2016-04-20T12:22:03Z</time>
      </trkpt>
      <trkpt lat="43.4171" lon="6.0512">
        <ele>236.19999694824</ele>
        <time>2016-04-20T12:22:05Z</time>
      </trkpt>
      <trkpt lat="43.41715" lon="6.05117">
        <ele>236.39999389648</ele>
        <time>2016-04-20T12:22:07Z</time>
      </trkpt>
      <trkpt lat="43.41717" lon="6.05116">
        <ele>236.60000610352</ele>
        <time>2016-04-20T12:22:08Z</time>
      </trkpt>
      <trkpt lat="43.4172" lon="6.05114">
        <ele>236.80000305176</ele>
        <time>2016-04-20T12:22:09Z</time>
      </trkpt>
      <trkpt lat="43.41725" lon="6.05112">
        <ele>236.80000305176</ele>
        <time>2016-04-20T12:22:11Z</time>
      </trkpt>
      <trkpt lat="43.4173" lon="6.0511">
        <ele>237</ele>
        <time>2016-04-20T12:22:13Z</time>
      </trkpt>
      <trkpt lat="43.4173" lon="6.0511">
        <ele>237.19999694824</ele>
        <time>2016-04-20T12:22:14Z</time>
      </trkpt>
      <trkpt lat="43.41734" lon="6.05111">
        <ele>237.39999389648</ele>
        <time>2016-04-20T12:22:15Z</time>
      </trkpt>
      <trkpt lat="43.41736" lon="6.05116">
        <ele>238</ele>
        <time>2016-04-20T12:22:17Z</time>
      </trkpt>
      <trkpt lat="43.41737" lon="6.05121">
        <ele>238.60000610352</ele>
        <time>2016-04-20T12:22:19Z</time>
      </trkpt>
      <trkpt lat="43.41737" lon="6.05128">
        <ele>239</ele>
        <time>2016-04-20T12:22:21Z</time>
      </trkpt>
      <trkpt lat="43.41737" lon="6.05128">
        <ele>239</ele>
        <time>2016-04-20T12:22:22Z</time>
      </trkpt>
      <trkpt lat="43.41737" lon="6.05136">
        <ele>239.19999694824</ele>
        <time>2016-04-20T12:22:23Z</time>
      </trkpt>
      <trkpt lat="43.41737" lon="6.05144">
        <ele>239.60000610352</ele>
        <time>2016-04-20T12:22:25Z</time>
      </trkpt>
      <trkpt lat="43.41736" lon="6.05153">
        <ele>240</ele>
        <time>2016-04-20T12:22:27Z</time>
      </trkpt>
      <trkpt lat="43.41737" lon="6.05161">
        <ele>240</ele>
        <time>2016-04-20T12:22:29Z</time>
      </trkpt>
      <trkpt lat="43.41738" lon="6.05169">
        <ele>240</ele>
        <time>2016-04-20T12:22:31Z</time>
      </trkpt>
      <trkpt lat="43.41742" lon="6.05176">
        <ele>240</ele>
        <time>2016-04-20T12:22:33Z</time>
      </trkpt>
      <trkpt lat="43.41747" lon="6.0518">
        <ele>240.19999694824</ele>
        <time>2016-04-20T12:22:35Z</time>
      </trkpt>
      <trkpt lat="43.41752" lon="6.05182">
        <ele>240.39999389648</ele>
        <time>2016-04-20T12:22:37Z</time>
      </trkpt>
      <trkpt lat="43.41758" lon="6.05183">
        <ele>240.60000610352</ele>
        <time>2016-04-20T12:22:39Z</time>
      </trkpt>
      <trkpt lat="43.41764" lon="6.05183">
        <ele>240.80000305176</ele>
        <time>2016-04-20T12:22:41Z</time>
      </trkpt>
      <trkpt lat="43.41767" lon="6.05184">
        <ele>241</ele>
        <time>2016-04-20T12:22:42Z</time>
      </trkpt>
      <trkpt lat="43.41769" lon="6.05184">
        <ele>241.19999694824</ele>
        <time>2016-04-20T12:22:43Z</time>
      </trkpt>
      <trkpt lat="43.41775" lon="6.05184">
        <ele>241.39999389648</ele>
        <time>2016-04-20T12:22:45Z</time>
      </trkpt>
      <trkpt lat="43.41781" lon="6.05184">
        <ele>241.80000305176</ele>
        <time>2016-04-20T12:22:47Z</time>
      </trkpt>
      <trkpt lat="43.41787" lon="6.05184">
        <ele>242</ele>
        <time>2016-04-20T12:22:49Z</time>
      </trkpt>
      <trkpt lat="43.41792" lon="6.05185">
        <ele>242.19999694824</ele>
        <time>2016-04-20T12:22:51Z</time>
      </trkpt>
      <trkpt lat="43.41798" lon="6.05185">
        <ele>242.39999389648</ele>
        <time>2016-04-20T12:22:53Z</time>
      </trkpt>
      <trkpt lat="43.41803" lon="6.05185">
        <ele>242.80000305176</ele>
        <time>2016-04-20T12:22:55Z</time>
      </trkpt>
      <trkpt lat="43.41808" lon="6.05186">
        <ele>243</ele>
        <time>2016-04-20T12:22:57Z</time>
      </trkpt>
      <trkpt lat="43.41813" lon="6.05186">
        <ele>243.39999389648</ele>
        <time>2016-04-20T12:22:59Z</time>
      </trkpt>
      <trkpt lat="43.41816" lon="6.05186">
        <ele>243.39999389648</ele>
        <time>2016-04-20T12:23:00Z</time>
      </trkpt>
      <trkpt lat="43.41819" lon="6.05186">
        <ele>243.60000610352</ele>
        <time>2016-04-20T12:23:01Z</time>
      </trkpt>
      <trkpt lat="43.41821" lon="6.05187">
        <ele>243.80000305176</ele>
        <time>2016-04-20T12:23:02Z</time>
      </trkpt>
      <trkpt lat="43.41824" lon="6.05187">
        <ele>244</ele>
        <time>2016-04-20T12:23:03Z</time>
      </trkpt>
      <trkpt lat="43.41829" lon="6.05187">
        <ele>244.39999389648</ele>
        <time>2016-04-20T12:23:05Z</time>
      </trkpt>
      <trkpt lat="43.41832" lon="6.05187">
        <ele>244.60000610352</ele>
        <time>2016-04-20T12:23:06Z</time>
      </trkpt>
      <trkpt lat="43.41834" lon="6.05188">
        <ele>244.60000610352</ele>
        <time>2016-04-20T12:23:07Z</time>
      </trkpt>
      <trkpt lat="43.41839" lon="6.05188">
        <ele>245</ele>
        <time>2016-04-20T12:23:09Z</time>
      </trkpt>
      <trkpt lat="43.41842" lon="6.05187">
        <ele>245</ele>
        <time>2016-04-20T12:23:10Z</time>
      </trkpt>
      <trkpt lat="43.41845" lon="6.05187">
        <ele>245.19999694824</ele>
        <time>2016-04-20T12:23:11Z</time>
      </trkpt>
      <trkpt lat="43.4185" lon="6.05187">
        <ele>245.39999389648</ele>
        <time>2016-04-20T12:23:13Z</time>
      </trkpt>
      <trkpt lat="43.41852" lon="6.05187">
        <ele>245.60000610352</ele>
        <time>2016-04-20T12:23:14Z</time>
      </trkpt>
      <trkpt lat="43.41854" lon="6.05186">
        <ele>245.80000305176</ele>
        <time>2016-04-20T12:23:15Z</time>
      </trkpt>
      <trkpt lat="43.4186" lon="6.05185">
        <ele>246</ele>
        <time>2016-04-20T12:23:17Z</time>
      </trkpt>
      <trkpt lat="43.41864" lon="6.05183">
        <ele>246.39999389648</ele>
        <time>2016-04-20T12:23:19Z</time>
      </trkpt>
      <trkpt lat="43.4187" lon="6.05181">
        <ele>246.80000305176</ele>
        <time>2016-04-20T12:23:21Z</time>
      </trkpt>
      <trkpt lat="43.41875" lon="6.0518">
        <ele>247</ele>
        <time>2016-04-20T12:23:23Z</time>
      </trkpt>
      <trkpt lat="43.41879" lon="6.05179">
        <ele>247.19999694824</ele>
        <time>2016-04-20T12:23:25Z</time>
      </trkpt>
      <trkpt lat="43.41881" lon="6.05178">
        <ele>247.39999389648</ele>
        <time>2016-04-20T12:23:27Z</time>
      </trkpt>
      <trkpt lat="43.41881" lon="6.05179">
        <ele>247.80000305176</ele>
        <time>2016-04-20T12:23:29Z</time>
      </trkpt>
      <trkpt lat="43.41882" lon="6.05179">
        <ele>248.19999694824</ele>
        <time>2016-04-20T12:23:31Z</time>
      </trkpt>
      <trkpt lat="43.41884" lon="6.05176">
        <ele>248.60000610352</ele>
        <time>2016-04-20T12:23:33Z</time>
      </trkpt>
      <trkpt lat="43.41888" lon="6.05173">
        <ele>248.80000305176</ele>
        <time>2016-04-20T12:23:35Z</time>
      </trkpt>
      <trkpt lat="43.4189" lon="6.05171">
        <ele>248.80000305176</ele>
        <time>2016-04-20T12:23:36Z</time>
      </trkpt>
      <trkpt lat="43.41891" lon="6.0517">
        <ele>249</ele>
        <time>2016-04-20T12:23:37Z</time>
      </trkpt>
      <trkpt lat="43.41891" lon="6.05166">
        <ele>249.19999694824</ele>
        <time>2016-04-20T12:23:39Z</time>
      </trkpt>
      <trkpt lat="43.41889" lon="6.05161">
        <ele>249.39999389648</ele>
        <time>2016-04-20T12:23:41Z</time>
      </trkpt>
      <trkpt lat="43.41887" lon="6.05153">
        <ele>249.60000610352</ele>
        <time>2016-04-20T12:23:43Z</time>
      </trkpt>
      <trkpt lat="43.41886" lon="6.0515">
        <ele>249.80000305176</ele>
        <time>2016-04-20T12:23:44Z</time>
      </trkpt>
      <trkpt lat="43.41891" lon="6.05152">
        <ele>250</ele>
        <time>2016-04-20T12:23:45Z</time>
      </trkpt>
      <trkpt lat="43.41909" lon="6.05158">
        <ele>250.60000610352</ele>
        <time>2016-04-20T12:23:47Z</time>
      </trkpt>
      <trkpt lat="43.41921" lon="6.05155">
        <ele>251</ele>
        <time>2016-04-20T12:23:49Z</time>
      </trkpt>
      <trkpt lat="43.41926" lon="6.05153">
        <ele>251</ele>
        <time>2016-04-20T12:23:50Z</time>
      </trkpt>
      <trkpt lat="43.41931" lon="6.05151">
        <ele>251.19999694824</ele>
        <time>2016-04-20T12:23:51Z</time>
      </trkpt>
      <trkpt lat="43.41938" lon="6.05148">
        <ele>251.39999389648</ele>
        <time>2016-04-20T12:23:53Z</time>
      </trkpt>
      <trkpt lat="43.41946" lon="6.05144">
        <ele>251.39999389648</ele>
        <time>2016-04-20T12:23:55Z</time>
      </trkpt>
      <trkpt lat="43.41949" lon="6.05143">
        <ele>251.60000610352</ele>
        <time>2016-04-20T12:23:56Z</time>
      </trkpt>
      <trkpt lat="43.41952" lon="6.05141">
        <ele>251.80000305176</ele>
        <time>2016-04-20T12:23:57Z</time>
      </trkpt>
      <trkpt lat="43.41957" lon="6.05138">
        <ele>252.19999694824</ele>
        <time>2016-04-20T12:23:59Z</time>
      </trkpt>
      <trkpt lat="43.41962" lon="6.05136">
        <ele>252.39999389648</ele>
        <time>2016-04-20T12:24:01Z</time>
      </trkpt>
      <trkpt lat="43.41965" lon="6.05136">
        <ele>252.60000610352</ele>
        <time>2016-04-20T12:24:02Z</time>
      </trkpt>
      <trkpt lat="43.41967" lon="6.05135">
        <ele>252.80000305176</ele>
        <time>2016-04-20T12:24:03Z</time>
      </trkpt>
      <trkpt lat="43.41973" lon="6.05133">
        <ele>253.19999694824</ele>
        <time>2016-04-20T12:24:05Z</time>
      </trkpt>
      <trkpt lat="43.41979" lon="6.05133">
        <ele>253.39999389648</ele>
        <time>2016-04-20T12:24:07Z</time>
      </trkpt>
      <trkpt lat="43.41982" lon="6.05133">
        <ele>253.60000610352</ele>
        <time>2016-04-20T12:24:08Z</time>
      </trkpt>
      <trkpt lat="43.41985" lon="6.05133">
        <ele>253.80000305176</ele>
        <time>2016-04-20T12:24:09Z</time>
      </trkpt>
      <trkpt lat="43.41991" lon="6.05133">
        <ele>254.19999694824</ele>
        <time>2016-04-20T12:24:11Z</time>
      </trkpt>
      <trkpt lat="43.41994" lon="6.05133">
        <ele>254.19999694824</ele>
        <time>2016-04-20T12:24:12Z</time>
      </trkpt>
      <trkpt lat="43.41997" lon="6.05132">
        <ele>254.39999389648</ele>
        <time>2016-04-20T12:24:13Z</time>
      </trkpt>
      <trkpt lat="43.42" lon="6.05131">
        <ele>254.60000610352</ele>
        <time>2016-04-20T12:24:14Z</time>
      </trkpt>
      <trkpt lat="43.42003" lon="6.0513">
        <ele>254.60000610352</ele>
        <time>2016-04-20T12:24:15Z</time>
      </trkpt>
      <trkpt lat="43.42009" lon="6.05129">
        <ele>254.60000610352</ele>
        <time>2016-04-20T12:24:17Z</time>
      </trkpt>
      <trkpt lat="43.42016" lon="6.05127">
        <ele>254.60000610352</ele>
        <time>2016-04-20T12:24:19Z</time>
      </trkpt>
      <trkpt lat="43.42022" lon="6.05126">
        <ele>254.60000610352</ele>
        <time>2016-04-20T12:24:21Z</time>
      </trkpt>
      <trkpt lat="43.42028" lon="6.05124">
        <ele>254.80000305176</ele>
        <time>2016-04-20T12:24:23Z</time>
      </trkpt>
      <trkpt lat="43.42034" lon="6.05122">
        <ele>255.19999694824</ele>
        <time>2016-04-20T12:24:25Z</time>
      </trkpt>
      <trkpt lat="43.42037" lon="6.05121">
        <ele>255.39999389648</ele>
        <time>2016-04-20T12:24:26Z</time>
      </trkpt>
      <trkpt lat="43.4204" lon="6.05121">
        <ele>255.39999389648</ele>
        <time>2016-04-20T12:24:27Z</time>
      </trkpt>
      <trkpt lat="43.42043" lon="6.0512">
        <ele>255.60000610352</ele>
        <time>2016-04-20T12:24:28Z</time>
      </trkpt>
      <trkpt lat="43.42046" lon="6.05119">
        <ele>255.60000610352</ele>
        <time>2016-04-20T12:24:29Z</time>
      </trkpt>
      <trkpt lat="43.42051" lon="6.05119">
        <ele>255.80000305176</ele>
        <time>2016-04-20T12:24:31Z</time>
      </trkpt>
      <trkpt lat="43.42057" lon="6.05118">
        <ele>256</ele>
        <time>2016-04-20T12:24:33Z</time>
      </trkpt>
      <trkpt lat="43.42063" lon="6.05117">
        <ele>256.39999389648</ele>
        <time>2016-04-20T12:24:35Z</time>
      </trkpt>
      <trkpt lat="43.42066" lon="6.05117">
        <ele>256.39999389648</ele>
        <time>2016-04-20T12:24:36Z</time>
      </trkpt>
      <trkpt lat="43.42069" lon="6.05117">
        <ele>256.60000610352</ele>
        <time>2016-04-20T12:24:37Z</time>
      </trkpt>
      <trkpt lat="43.42075" lon="6.05116">
        <ele>256.79998779297</ele>
        <time>2016-04-20T12:24:39Z</time>
      </trkpt>
      <trkpt lat="43.42081" lon="6.05117">
        <ele>257</ele>
        <time>2016-04-20T12:24:41Z</time>
      </trkpt>
      <trkpt lat="43.42086" lon="6.05117">
        <ele>257.39999389648</ele>
        <time>2016-04-20T12:24:43Z</time>
      </trkpt>
      <trkpt lat="43.42089" lon="6.05118">
        <ele>257.39999389648</ele>
        <time>2016-04-20T12:24:44Z</time>
      </trkpt>
      <trkpt lat="43.42093" lon="6.05118">
        <ele>257.60000610352</ele>
        <time>2016-04-20T12:24:45Z</time>
      </trkpt>
      <trkpt lat="43.42099" lon="6.05119">
        <ele>258</ele>
        <time>2016-04-20T12:24:47Z</time>
      </trkpt>
      <trkpt lat="43.42104" lon="6.05118">
        <ele>258.39999389648</ele>
        <time>2016-04-20T12:24:49Z</time>
      </trkpt>
      <trkpt lat="43.42107" lon="6.05118">
        <ele>258.60000610352</ele>
        <time>2016-04-20T12:24:50Z</time>
      </trkpt>
      <trkpt lat="43.4211" lon="6.05118">
        <ele>258.79998779297</ele>
        <time>2016-04-20T12:24:51Z</time>
      </trkpt>
      <trkpt lat="43.42115" lon="6.05118">
        <ele>259</ele>
        <time>2016-04-20T12:24:53Z</time>
      </trkpt>
      <trkpt lat="43.42118" lon="6.0512">
        <ele>259.39999389648</ele>
        <time>2016-04-20T12:24:55Z</time>
      </trkpt>
      <trkpt lat="43.42122" lon="6.05122">
        <ele>259.60000610352</ele>
        <time>2016-04-20T12:24:57Z</time>
      </trkpt>
      <trkpt lat="43.42123" lon="6.05123">
        <ele>259.60000610352</ele>
        <time>2016-04-20T12:24:58Z</time>
      </trkpt>
      <trkpt lat="43.42125" lon="6.05123">
        <ele>259.79998779297</ele>
        <time>2016-04-20T12:24:59Z</time>
      </trkpt>
      <trkpt lat="43.42126" lon="6.05124">
        <ele>259.79998779297</ele>
        <time>2016-04-20T12:25:01Z</time>
      </trkpt>
      <trkpt lat="43.42128" lon="6.05124">
        <ele>259.79998779297</ele>
        <time>2016-04-20T12:25:03Z</time>
      </trkpt>
      <trkpt lat="43.42128" lon="6.05123">
        <ele>260</ele>
        <time>2016-04-20T12:25:05Z</time>
      </trkpt>
      <trkpt lat="43.42128" lon="6.05123">
        <ele>260</ele>
        <time>2016-04-20T12:25:07Z</time>
      </trkpt>
      <trkpt lat="43.42128" lon="6.05123">
        <ele>260</ele>
        <time>2016-04-20T12:25:09Z</time>
      </trkpt>
      <trkpt lat="43.42128" lon="6.05123">
        <ele>260</ele>
        <time>2016-04-20T12:25:11Z</time>
      </trkpt>
      <trkpt lat="43.42128" lon="6.05123">
        <ele>260</ele>
        <time>2016-04-20T12:25:13Z</time>
      </trkpt>
      <trkpt lat="43.42128" lon="6.05123">
        <ele>260</ele>
        <time>2016-04-20T12:25:15Z</time>
      </trkpt>
      <trkpt lat="43.42128" lon="6.05123">
        <ele>260</ele>
        <time>2016-04-20T12:25:17Z</time>
      </trkpt>
      <trkpt lat="43.42128" lon="6.05123">
        <ele>260</ele>
        <time>2016-04-20T12:25:19Z</time>
      </trkpt>
      <trkpt lat="43.42128" lon="6.05123">
        <ele>260</ele>
        <time>2016-04-20T12:25:21Z</time>
      </trkpt>
      <trkpt lat="43.42128" lon="6.05123">
        <ele>259.79998779297</ele>
        <time>2016-04-20T12:25:23Z</time>
      </trkpt>
      <trkpt lat="43.42128" lon="6.05123">
        <ele>259.79998779297</ele>
        <time>2016-04-20T12:25:25Z</time>
      </trkpt>
      <trkpt lat="43.42128" lon="6.05123">
        <ele>259.60000610352</ele>
        <time>2016-04-20T12:25:27Z</time>
      </trkpt>
      <trkpt lat="43.42128" lon="6.05123">
        <ele>259.60000610352</ele>
        <time>2016-04-20T12:25:29Z</time>
      </trkpt>
      <trkpt lat="43.42128" lon="6.05123">
        <ele>259.79998779297</ele>
        <time>2016-04-20T12:25:31Z</time>
      </trkpt>
      <trkpt lat="43.42128" lon="6.05123">
        <ele>259.79998779297</ele>
        <time>2016-04-20T12:25:33Z</time>
      </trkpt>
      <trkpt lat="43.42128" lon="6.05123">
        <ele>259.79998779297</ele>
        <time>2016-04-20T12:25:35Z</time>
      </trkpt>
      <trkpt lat="43.42128" lon="6.05123">
        <ele>259.79998779297</ele>
        <time>2016-04-20T12:25:37Z</time>
      </trkpt>
      <trkpt lat="43.42128" lon="6.05123">
        <ele>259.79998779297</ele>
        <time>2016-04-20T12:25:39Z</time>
      </trkpt>
      <trkpt lat="43.42128" lon="6.05123">
        <ele>259.79998779297</ele>
        <time>2016-04-20T12:25:41Z</time>
      </trkpt>
      <trkpt lat="43.42128" lon="6.05123">
        <ele>259.79998779297</ele>
        <time>2016-04-20T12:25:43Z</time>
      </trkpt>
      <trkpt lat="43.42128" lon="6.05123">
        <ele>259.79998779297</ele>
        <time>2016-04-20T12:25:45Z</time>
      </trkpt>
      <trkpt lat="43.42128" lon="6.05123">
        <ele>259.79998779297</ele>
        <time>2016-04-20T12:25:47Z</time>
      </trkpt>
      <trkpt lat="43.42128" lon="6.05123">
        <ele>259.79998779297</ele>
        <time>2016-04-20T12:25:49Z</time>
      </trkpt>
      <trkpt lat="43.42128" lon="6.05123">
        <ele>259.79998779297</ele>
        <time>2016-04-20T12:25:51Z</time>
      </trkpt>
      <trkpt lat="43.42129" lon="6.05123">
        <ele>259.79998779297</ele>
        <time>2016-04-20T12:25:53Z</time>
      </trkpt>
      <trkpt lat="43.42129" lon="6.05123">
        <ele>259.79998779297</ele>
        <time>2016-04-20T12:25:55Z</time>
      </trkpt>
      <trkpt lat="43.4213" lon="6.05123">
        <ele>259.79998779297</ele>
        <time>2016-04-20T12:25:56Z</time>
      </trkpt>
      <trkpt lat="43.4213" lon="6.05124">
        <ele>259.79998779297</ele>
        <time>2016-04-20T12:25:57Z</time>
      </trkpt>
      <trkpt lat="43.42132" lon="6.05127">
        <ele>260</ele>
        <time>2016-04-20T12:25:59Z</time>
      </trkpt>
      <trkpt lat="43.42134" lon="6.05131">
        <ele>260</ele>
        <time>2016-04-20T12:26:01Z</time>
      </trkpt>
      <trkpt lat="43.42135" lon="6.05132">
        <ele>260.20001220703</ele>
        <time>2016-04-20T12:26:02Z</time>
      </trkpt>
      <trkpt lat="43.42136" lon="6.05134">
        <ele>260.20001220703</ele>
        <time>2016-04-20T12:26:03Z</time>
      </trkpt>
      <trkpt lat="43.42139" lon="6.05138">
        <ele>260.39999389648</ele>
        <time>2016-04-20T12:26:05Z</time>
      </trkpt>
      <trkpt lat="43.4214" lon="6.0514">
        <ele>260.39999389648</ele>
        <time>2016-04-20T12:26:06Z</time>
      </trkpt>
      <trkpt lat="43.42141" lon="6.05142">
        <ele>260.39999389648</ele>
        <time>2016-04-20T12:26:07Z</time>
      </trkpt>
      <trkpt lat="43.42144" lon="6.05146">
        <ele>260.79998779297</ele>
        <time>2016-04-20T12:26:09Z</time>
      </trkpt>
      <trkpt lat="43.42147" lon="6.0515">
        <ele>261</ele>
        <time>2016-04-20T12:26:11Z</time>
      </trkpt>
      <trkpt lat="43.4215" lon="6.05154">
        <ele>261.20001220703</ele>
        <time>2016-04-20T12:26:13Z</time>
      </trkpt>
      <trkpt lat="43.42152" lon="6.05156">
        <ele>261.20001220703</ele>
        <time>2016-04-20T12:26:14Z</time>
      </trkpt>
      <trkpt lat="43.42154" lon="6.05158">
        <ele>261.20001220703</ele>
        <time>2016-04-20T12:26:15Z</time>
      </trkpt>
      <trkpt lat="43.42157" lon="6.05161">
        <ele>261.39999389648</ele>
        <time>2016-04-20T12:26:17Z</time>
      </trkpt>
      <trkpt lat="43.42161" lon="6.05163">
        <ele>261.39999389648</ele>
        <time>2016-04-20T12:26:19Z</time>
      </trkpt>
      <trkpt lat="43.42164" lon="6.05164">
        <ele>261.60000610352</ele>
        <time>2016-04-20T12:26:21Z</time>
      </trkpt>
      <trkpt lat="43.42167" lon="6.05165">
        <ele>261.60000610352</ele>
        <time>2016-04-20T12:26:23Z</time>
      </trkpt>
      <trkpt lat="43.4217" lon="6.05167">
        <ele>261.79998779297</ele>
        <time>2016-04-20T12:26:25Z</time>
      </trkpt>
      <trkpt lat="43.42171" lon="6.05167">
        <ele>262</ele>
        <time>2016-04-20T12:26:27Z</time>
      </trkpt>
      <trkpt lat="43.42173" lon="6.05168">
        <ele>261.79998779297</ele>
        <time>2016-04-20T12:26:29Z</time>
      </trkpt>
      <trkpt lat="43.42175" lon="6.05169">
        <ele>261.79998779297</ele>
        <time>2016-04-20T12:26:31Z</time>
      </trkpt>
      <trkpt lat="43.42178" lon="6.05171">
        <ele>261.79998779297</ele>
        <time>2016-04-20T12:26:33Z</time>
      </trkpt>
      <trkpt lat="43.42181" lon="6.05173">
        <ele>261.79998779297</ele>
        <time>2016-04-20T12:26:35Z</time>
      </trkpt>
      <trkpt lat="43.42183" lon="6.05175">
        <ele>262</ele>
        <time>2016-04-20T12:26:37Z</time>
      </trkpt>
      <trkpt lat="43.42186" lon="6.05178">
        <ele>262.20001220703</ele>
        <time>2016-04-20T12:26:39Z</time>
      </trkpt>
      <trkpt lat="43.42191" lon="6.05181">
        <ele>262.20001220703</ele>
        <time>2016-04-20T12:26:41Z</time>
      </trkpt>
      <trkpt lat="43.42194" lon="6.05184">
        <ele>263</ele>
        <time>2016-04-20T12:26:43Z</time>
      </trkpt>
      <trkpt lat="43.42194" lon="6.05184">
        <ele>263</ele>
        <time>2016-04-20T12:26:44Z</time>
      </trkpt>
      <trkpt lat="43.42199" lon="6.05187">
        <ele>263.20001220703</ele>
        <time>2016-04-20T12:26:45Z</time>
      </trkpt>
      <trkpt lat="43.42203" lon="6.05188">
        <ele>263.20001220703</ele>
        <time>2016-04-20T12:26:47Z</time>
      </trkpt>
      <trkpt lat="43.42207" lon="6.05191">
        <ele>263.20001220703</ele>
        <time>2016-04-20T12:26:49Z</time>
      </trkpt>
      <trkpt lat="43.42212" lon="6.05193">
        <ele>263.39999389648</ele>
        <time>2016-04-20T12:26:51Z</time>
      </trkpt>
      <trkpt lat="43.42216" lon="6.05194">
        <ele>263.60000610352</ele>
        <time>2016-04-20T12:26:53Z</time>
      </trkpt>
      <trkpt lat="43.4222" lon="6.05197">
        <ele>263.60000610352</ele>
        <time>2016-04-20T12:26:55Z</time>
      </trkpt>
      <trkpt lat="43.42222" lon="6.05198">
        <ele>264</ele>
        <time>2016-04-20T12:26:56Z</time>
      </trkpt>
      <trkpt lat="43.42224" lon="6.05201">
        <ele>264.20001220703</ele>
        <time>2016-04-20T12:26:57Z</time>
      </trkpt>
      <trkpt lat="43.42226" lon="6.05203">
        <ele>264.39999389648</ele>
        <time>2016-04-20T12:26:58Z</time>
      </trkpt>
      <trkpt lat="43.42228" lon="6.05205">
        <ele>264.39999389648</ele>
        <time>2016-04-20T12:26:59Z</time>
      </trkpt>
      <trkpt lat="43.42232" lon="6.0521">
        <ele>264.60000610352</ele>
        <time>2016-04-20T12:27:01Z</time>
      </trkpt>
      <trkpt lat="43.42234" lon="6.05212">
        <ele>264.60000610352</ele>
        <time>2016-04-20T12:27:02Z</time>
      </trkpt>
      <trkpt lat="43.42236" lon="6.05213">
        <ele>264.60000610352</ele>
        <time>2016-04-20T12:27:03Z</time>
      </trkpt>
      <trkpt lat="43.42241" lon="6.05215">
        <ele>265</ele>
        <time>2016-04-20T12:27:05Z</time>
      </trkpt>
      <trkpt lat="43.42246" lon="6.05215">
        <ele>265.20001220703</ele>
        <time>2016-04-20T12:27:07Z</time>
      </trkpt>
      <trkpt lat="43.42249" lon="6.05216">
        <ele>265.39999389648</ele>
        <time>2016-04-20T12:27:08Z</time>
      </trkpt>
      <trkpt lat="43.4225" lon="6.05215">
        <ele>265.60000610352</ele>
        <time>2016-04-20T12:27:09Z</time>
      </trkpt>
      <trkpt lat="43.42254" lon="6.05214">
        <ele>266</ele>
        <time>2016-04-20T12:27:11Z</time>
      </trkpt>
      <trkpt lat="43.42257" lon="6.05215">
        <ele>266.20001220703</ele>
        <time>2016-04-20T12:27:13Z</time>
      </trkpt>
      <trkpt lat="43.4226" lon="6.05215">
        <ele>266.39999389648</ele>
        <time>2016-04-20T12:27:15Z</time>
      </trkpt>
      <trkpt lat="43.42263" lon="6.05215">
        <ele>266.39999389648</ele>
        <time>2016-04-20T12:27:17Z</time>
      </trkpt>
      <trkpt lat="43.42267" lon="6.05215">
        <ele>266.39999389648</ele>
        <time>2016-04-20T12:27:19Z</time>
      </trkpt>
      <trkpt lat="43.4227" lon="6.05215">
        <ele>266.39999389648</ele>
        <time>2016-04-20T12:27:20Z</time>
      </trkpt>
      <trkpt lat="43.42273" lon="6.05215">
        <ele>266.39999389648</ele>
        <time>2016-04-20T12:27:21Z</time>
      </trkpt>
      <trkpt lat="43.42278" lon="6.05216">
        <ele>266.60000610352</ele>
        <time>2016-04-20T12:27:23Z</time>
      </trkpt>
      <trkpt lat="43.42283" lon="6.05216">
        <ele>266.60000610352</ele>
        <time>2016-04-20T12:27:25Z</time>
      </trkpt>
      <trkpt lat="43.42288" lon="6.05217">
        <ele>266.79998779297</ele>
        <time>2016-04-20T12:27:27Z</time>
      </trkpt>
      <trkpt lat="43.42292" lon="6.05218">
        <ele>267.20001220703</ele>
        <time>2016-04-20T12:27:29Z</time>
      </trkpt>
      <trkpt lat="43.42297" lon="6.0522">
        <ele>267.39999389648</ele>
        <time>2016-04-20T12:27:31Z</time>
      </trkpt>
      <trkpt lat="43.42302" lon="6.05221">
        <ele>267.60000610352</ele>
        <time>2016-04-20T12:27:33Z</time>
      </trkpt>
      <trkpt lat="43.42306" lon="6.05222">
        <ele>267.79998779297</ele>
        <time>2016-04-20T12:27:35Z</time>
      </trkpt>
      <trkpt lat="43.42311" lon="6.05224">
        <ele>267.60000610352</ele>
        <time>2016-04-20T12:27:37Z</time>
      </trkpt>
      <trkpt lat="43.42313" lon="6.05224">
        <ele>267.79998779297</ele>
        <time>2016-04-20T12:27:38Z</time>
      </trkpt>
      <trkpt lat="43.42315" lon="6.05224">
        <ele>267.79998779297</ele>
        <time>2016-04-20T12:27:39Z</time>
      </trkpt>
      <trkpt lat="43.42317" lon="6.05224">
        <ele>267.79998779297</ele>
        <time>2016-04-20T12:27:40Z</time>
      </trkpt>
      <trkpt lat="43.42319" lon="6.05225">
        <ele>268.20001220703</ele>
        <time>2016-04-20T12:27:41Z</time>
      </trkpt>
      <trkpt lat="43.42323" lon="6.05226">
        <ele>268.39999389648</ele>
        <time>2016-04-20T12:27:43Z</time>
      </trkpt>
      <trkpt lat="43.42326" lon="6.05227">
        <ele>268.60000610352</ele>
        <time>2016-04-20T12:27:45Z</time>
      </trkpt>
      <trkpt lat="43.4233" lon="6.05228">
        <ele>269</ele>
        <time>2016-04-20T12:27:47Z</time>
      </trkpt>
      <trkpt lat="43.42331" lon="6.05228">
        <ele>269.20001220703</ele>
        <time>2016-04-20T12:27:48Z</time>
      </trkpt>
      <trkpt lat="43.42333" lon="6.05229">
        <ele>269.39999389648</ele>
        <time>2016-04-20T12:27:49Z</time>
      </trkpt>
      <trkpt lat="43.42337" lon="6.05229">
        <ele>269.79998779297</ele>
        <time>2016-04-20T12:27:51Z</time>
      </trkpt>
      <trkpt lat="43.42339" lon="6.0523">
        <ele>270</ele>
        <time>2016-04-20T12:27:52Z</time>
      </trkpt>
      <trkpt lat="43.4234" lon="6.0523">
        <ele>270</ele>
        <time>2016-04-20T12:27:53Z</time>
      </trkpt>
      <trkpt lat="43.42344" lon="6.05231">
        <ele>270.60000610352</ele>
        <time>2016-04-20T12:27:55Z</time>
      </trkpt>
      <trkpt lat="43.42348" lon="6.05233">
        <ele>271</ele>
        <time>2016-04-20T12:27:57Z</time>
      </trkpt>
      <trkpt lat="43.42352" lon="6.05233">
        <ele>271.39999389648</ele>
        <time>2016-04-20T12:27:59Z</time>
      </trkpt>
      <trkpt lat="43.42355" lon="6.05234">
        <ele>271.39999389648</ele>
        <time>2016-04-20T12:28:01Z</time>
      </trkpt>
      <trkpt lat="43.42358" lon="6.05233">
        <ele>271.60000610352</ele>
        <time>2016-04-20T12:28:03Z</time>
      </trkpt>
      <trkpt lat="43.42361" lon="6.05232">
        <ele>272</ele>
        <time>2016-04-20T12:28:05Z</time>
      </trkpt>
      <trkpt lat="43.42365" lon="6.05231">
        <ele>272.39999389648</ele>
        <time>2016-04-20T12:28:07Z</time>
      </trkpt>
      <trkpt lat="43.42368" lon="6.0523">
        <ele>272.60000610352</ele>
        <time>2016-04-20T12:28:09Z</time>
      </trkpt>
      <trkpt lat="43.42369" lon="6.0523">
        <ele>272.79998779297</ele>
        <time>2016-04-20T12:28:10Z</time>
      </trkpt>
      <trkpt lat="43.4237" lon="6.0523">
        <ele>272.79998779297</ele>
        <time>2016-04-20T12:28:11Z</time>
      </trkpt>
      <trkpt lat="43.42373" lon="6.0523">
        <ele>273</ele>
        <time>2016-04-20T12:28:13Z</time>
      </trkpt>
      <trkpt lat="43.42376" lon="6.05229">
        <ele>273.20001220703</ele>
        <time>2016-04-20T12:28:15Z</time>
      </trkpt>
      <trkpt lat="43.42378" lon="6.0523">
        <ele>273.39999389648</ele>
        <time>2016-04-20T12:28:17Z</time>
      </trkpt>
      <trkpt lat="43.4238" lon="6.0523">
        <ele>273.60000610352</ele>
        <time>2016-04-20T12:28:19Z</time>
      </trkpt>
      <trkpt lat="43.4238" lon="6.05229">
        <ele>273.79998779297</ele>
        <time>2016-04-20T12:28:21Z</time>
      </trkpt>
      <trkpt lat="43.4238" lon="6.05229">
        <ele>273.79998779297</ele>
        <time>2016-04-20T12:28:23Z</time>
      </trkpt>
      <trkpt lat="43.4238" lon="6.05229">
        <ele>273.79998779297</ele>
        <time>2016-04-20T12:28:25Z</time>
      </trkpt>
      <trkpt lat="43.4238" lon="6.05229">
        <ele>273.79998779297</ele>
        <time>2016-04-20T12:28:27Z</time>
      </trkpt>
      <trkpt lat="43.42381" lon="6.05229">
        <ele>273.79998779297</ele>
        <time>2016-04-20T12:28:29Z</time>
      </trkpt>
      <trkpt lat="43.4238" lon="6.05231">
        <ele>273.79998779297</ele>
        <time>2016-04-20T12:28:31Z</time>
      </trkpt>
      <trkpt lat="43.42381" lon="6.05231">
        <ele>273.79998779297</ele>
        <time>2016-04-20T12:28:32Z</time>
      </trkpt>
      <trkpt lat="43.42381" lon="6.05231">
        <ele>273.79998779297</ele>
        <time>2016-04-20T12:28:33Z</time>
      </trkpt>
      <trkpt lat="43.42381" lon="6.05231">
        <ele>273.60000610352</ele>
        <time>2016-04-20T12:28:35Z</time>
      </trkpt>
      <trkpt lat="43.42381" lon="6.05231">
        <ele>273.60000610352</ele>
        <time>2016-04-20T12:28:37Z</time>
      </trkpt>
      <trkpt lat="43.42381" lon="6.05231">
        <ele>273.60000610352</ele>
        <time>2016-04-20T12:28:39Z</time>
      </trkpt>
      <trkpt lat="43.42381" lon="6.05231">
        <ele>273.60000610352</ele>
        <time>2016-04-20T12:28:41Z</time>
      </trkpt>
      <trkpt lat="43.42381" lon="6.05231">
        <ele>273.39999389648</ele>
        <time>2016-04-20T12:28:43Z</time>
      </trkpt>
      <trkpt lat="43.42381" lon="6.05231">
        <ele>273.20001220703</ele>
        <time>2016-04-20T12:28:45Z</time>
      </trkpt>
      <trkpt lat="43.42381" lon="6.05231">
        <ele>273.20001220703</ele>
        <time>2016-04-20T12:28:47Z</time>
      </trkpt>
      <trkpt lat="43.4238" lon="6.05231">
        <ele>273</ele>
        <time>2016-04-20T12:28:49Z</time>
      </trkpt>
      <trkpt lat="43.4238" lon="6.05231">
        <ele>273</ele>
        <time>2016-04-20T12:28:51Z</time>
      </trkpt>
      <trkpt lat="43.4238" lon="6.05231">
        <ele>273</ele>
        <time>2016-04-20T12:28:53Z</time>
      </trkpt>
      <trkpt lat="43.4238" lon="6.05231">
        <ele>273</ele>
        <time>2016-04-20T12:28:55Z</time>
      </trkpt>
      <trkpt lat="43.4238" lon="6.05231">
        <ele>273</ele>
        <time>2016-04-20T12:28:57Z</time>
      </trkpt>
      <trkpt lat="43.4238" lon="6.05231">
        <ele>273.20001220703</ele>
        <time>2016-04-20T12:28:59Z</time>
      </trkpt>
      <trkpt lat="43.4238" lon="6.05231">
        <ele>273.39999389648</ele>
        <time>2016-04-20T12:29:01Z</time>
      </trkpt>
      <trkpt lat="43.4238" lon="6.05231">
        <ele>273.39999389648</ele>
        <time>2016-04-20T12:29:03Z</time>
      </trkpt>
      <trkpt lat="43.4238" lon="6.05231">
        <ele>273.39999389648</ele>
        <time>2016-04-20T12:29:05Z</time>
      </trkpt>
      <trkpt lat="43.4238" lon="6.05231">
        <ele>273.39999389648</ele>
        <time>2016-04-20T12:29:07Z</time>
      </trkpt>
      <trkpt lat="43.4238" lon="6.05231">
        <ele>273.39999389648</ele>
        <time>2016-04-20T12:29:09Z</time>
      </trkpt>
      <trkpt lat="43.4238" lon="6.05231">
        <ele>273.39999389648</ele>
        <time>2016-04-20T12:29:11Z</time>
      </trkpt>
      <trkpt lat="43.4238" lon="6.05231">
        <ele>273.60000610352</ele>
        <time>2016-04-20T12:29:13Z</time>
      </trkpt>
      <trkpt lat="43.4238" lon="6.05231">
        <ele>273.60000610352</ele>
        <time>2016-04-20T12:29:15Z</time>
      </trkpt>
      <trkpt lat="43.4238" lon="6.05231">
        <ele>273.60000610352</ele>
        <time>2016-04-20T12:29:17Z</time>
      </trkpt>
      <trkpt lat="43.42381" lon="6.05231">
        <ele>273.79998779297</ele>
        <time>2016-04-20T12:29:19Z</time>
      </trkpt>
      <trkpt lat="43.42381" lon="6.05231">
        <ele>273.79998779297</ele>
        <time>2016-04-20T12:29:21Z</time>
      </trkpt>
      <trkpt lat="43.42381" lon="6.0523">
        <ele>274</ele>
        <time>2016-04-20T12:29:23Z</time>
      </trkpt>
      <trkpt lat="43.42381" lon="6.0523">
        <ele>274</ele>
        <time>2016-04-20T12:29:25Z</time>
      </trkpt>
      <trkpt lat="43.42381" lon="6.0523">
        <ele>274</ele>
        <time>2016-04-20T12:29:27Z</time>
      </trkpt>
      <trkpt lat="43.4238" lon="6.0523">
        <ele>274</ele>
        <time>2016-04-20T12:29:29Z</time>
      </trkpt>
      <trkpt lat="43.4238" lon="6.0523">
        <ele>274</ele>
        <time>2016-04-20T12:29:31Z</time>
      </trkpt>
      <trkpt lat="43.4238" lon="6.0523">
        <ele>274</ele>
        <time>2016-04-20T12:29:33Z</time>
      </trkpt>
      <trkpt lat="43.4238" lon="6.0523">
        <ele>274</ele>
        <time>2016-04-20T12:29:35Z</time>
      </trkpt>
      <trkpt lat="43.4238" lon="6.0523">
        <ele>273.79998779297</ele>
        <time>2016-04-20T12:29:37Z</time>
      </trkpt>
      <trkpt lat="43.4238" lon="6.0523">
        <ele>273.79998779297</ele>
        <time>2016-04-20T12:29:39Z</time>
      </trkpt>
      <trkpt lat="43.4238" lon="6.0523">
        <ele>273.79998779297</ele>
        <time>2016-04-20T12:29:41Z</time>
      </trkpt>
      <trkpt lat="43.4238" lon="6.0523">
        <ele>273.79998779297</ele>
        <time>2016-04-20T12:29:43Z</time>
      </trkpt>
      <trkpt lat="43.42381" lon="6.0523">
        <ele>273.60000610352</ele>
        <time>2016-04-20T12:29:45Z</time>
      </trkpt>
      <trkpt lat="43.42381" lon="6.0523">
        <ele>273.39999389648</ele>
        <time>2016-04-20T12:29:47Z</time>
      </trkpt>
      <trkpt lat="43.42381" lon="6.0523">
        <ele>273.20001220703</ele>
        <time>2016-04-20T12:29:49Z</time>
      </trkpt>
      <trkpt lat="43.42381" lon="6.0523">
        <ele>273.20001220703</ele>
        <time>2016-04-20T12:29:51Z</time>
      </trkpt>
      <trkpt lat="43.42381" lon="6.0523">
        <ele>273.20001220703</ele>
        <time>2016-04-20T12:29:53Z</time>
      </trkpt>
      <trkpt lat="43.42381" lon="6.0523">
        <ele>273.39999389648</ele>
        <time>2016-04-20T12:29:55Z</time>
      </trkpt>
      <trkpt lat="43.42381" lon="6.0523">
        <ele>273.60000610352</ele>
        <time>2016-04-20T12:29:57Z</time>
      </trkpt>
      <trkpt lat="43.42381" lon="6.0523">
        <ele>273.60000610352</ele>
        <time>2016-04-20T12:29:59Z</time>
      </trkpt>
      <trkpt lat="43.4238" lon="6.0523">
        <ele>273.60000610352</ele>
        <time>2016-04-20T12:30:01Z</time>
      </trkpt>
      <trkpt lat="43.42381" lon="6.0523">
        <ele>273.60000610352</ele>
        <time>2016-04-20T12:30:03Z</time>
      </trkpt>
      <trkpt lat="43.42381" lon="6.0523">
        <ele>273.79998779297</ele>
        <time>2016-04-20T12:30:05Z</time>
      </trkpt>
      <trkpt lat="43.42381" lon="6.0523">
        <ele>273.79998779297</ele>
        <time>2016-04-20T12:30:07Z</time>
      </trkpt>
      <trkpt lat="43.42381" lon="6.0523">
        <ele>273.79998779297</ele>
        <time>2016-04-20T12:30:09Z</time>
      </trkpt>
      <trkpt lat="43.42381" lon="6.0523">
        <ele>273.79998779297</ele>
        <time>2016-04-20T12:30:11Z</time>
      </trkpt>
      <trkpt lat="43.4238" lon="6.0523">
        <ele>273.39999389648</ele>
        <time>2016-04-20T12:30:13Z</time>
      </trkpt>
      <trkpt lat="43.4238" lon="6.0523">
        <ele>273.39999389648</ele>
        <time>2016-04-20T12:30:15Z</time>
      </trkpt>
      <trkpt lat="43.42381" lon="6.0523">
        <ele>273.39999389648</ele>
        <time>2016-04-20T12:30:17Z</time>
      </trkpt>
      <trkpt lat="43.42381" lon="6.0523">
        <ele>273.39999389648</ele>
        <time>2016-04-20T12:30:19Z</time>
      </trkpt>
      <trkpt lat="43.42381" lon="6.0523">
        <ele>273.39999389648</ele>
        <time>2016-04-20T12:30:21Z</time>
      </trkpt>
      <trkpt lat="43.42381" lon="6.0523">
        <ele>273.39999389648</ele>
        <time>2016-04-20T12:30:23Z</time>
      </trkpt>
      <trkpt lat="43.42381" lon="6.0523">
        <ele>273.60000610352</ele>
        <time>2016-04-20T12:30:25Z</time>
      </trkpt>
      <trkpt lat="43.42381" lon="6.0523">
        <ele>273.39999389648</ele>
        <time>2016-04-20T12:30:27Z</time>
      </trkpt>
      <trkpt lat="43.42381" lon="6.0523">
        <ele>273.39999389648</ele>
        <time>2016-04-20T12:30:29Z</time>
      </trkpt>
      <trkpt lat="43.42381" lon="6.0523">
        <ele>273.39999389648</ele>
        <time>2016-04-20T12:30:31Z</time>
      </trkpt>
      <trkpt lat="43.42381" lon="6.0523">
        <ele>273.60000610352</ele>
        <time>2016-04-20T12:30:33Z</time>
      </trkpt>
      <trkpt lat="43.42381" lon="6.0523">
        <ele>273.60000610352</ele>
        <time>2016-04-20T12:30:35Z</time>
      </trkpt>
      <trkpt lat="43.42381" lon="6.0523">
        <ele>273.60000610352</ele>
        <time>2016-04-20T12:30:37Z</time>
      </trkpt>
      <trkpt lat="43.42381" lon="6.0523">
        <ele>273.60000610352</ele>
        <time>2016-04-20T12:30:39Z</time>
      </trkpt>
      <trkpt lat="43.42381" lon="6.0523">
        <ele>273.60000610352</ele>
        <time>2016-04-20T12:30:41Z</time>
      </trkpt>
      <trkpt lat="43.42381" lon="6.0523">
        <ele>273.79998779297</ele>
        <time>2016-04-20T12:30:43Z</time>
      </trkpt>
      <trkpt lat="43.42381" lon="6.0523">
        <ele>273.79998779297</ele>
        <time>2016-04-20T12:30:45Z</time>
      </trkpt>
      <trkpt lat="43.42381" lon="6.0523">
        <ele>273.79998779297</ele>
        <time>2016-04-20T12:30:47Z</time>
      </trkpt>
      <trkpt lat="43.42381" lon="6.0523">
        <ele>273.79998779297</ele>
        <time>2016-04-20T12:30:49Z</time>
      </trkpt>
      <trkpt lat="43.42381" lon="6.0523">
        <ele>273.79998779297</ele>
        <time>2016-04-20T12:30:51Z</time>
      </trkpt>
      <trkpt lat="43.42381" lon="6.0523">
        <ele>273.79998779297</ele>
        <time>2016-04-20T12:30:53Z</time>
      </trkpt>
      <trkpt lat="43.42381" lon="6.0523">
        <ele>273.79998779297</ele>
        <time>2016-04-20T12:30:55Z</time>
      </trkpt>
      <trkpt lat="43.42381" lon="6.0523">
        <ele>274</ele>
        <time>2016-04-20T12:30:57Z</time>
      </trkpt>
      <trkpt lat="43.42381" lon="6.0523">
        <ele>274.20001220703</ele>
        <time>2016-04-20T12:30:59Z</time>
      </trkpt>
      <trkpt lat="43.42381" lon="6.0523">
        <ele>274</ele>
        <time>2016-04-20T12:31:01Z</time>
      </trkpt>
      <trkpt lat="43.42381" lon="6.0523">
        <ele>274.20001220703</ele>
        <time>2016-04-20T12:31:03Z</time>
      </trkpt>
      <trkpt lat="43.42381" lon="6.0523">
        <ele>274.39999389648</ele>
        <time>2016-04-20T12:31:05Z</time>
      </trkpt>
      <trkpt lat="43.42381" lon="6.0523">
        <ele>274.20001220703</ele>
        <time>2016-04-20T12:31:07Z</time>
      </trkpt>
      <trkpt lat="43.42381" lon="6.0523">
        <ele>274.20001220703</ele>
        <time>2016-04-20T12:31:09Z</time>
      </trkpt>
      <trkpt lat="43.42381" lon="6.0523">
        <ele>274.20001220703</ele>
        <time>2016-04-20T12:31:11Z</time>
      </trkpt>
      <trkpt lat="43.42381" lon="6.0523">
        <ele>274.20001220703</ele>
        <time>2016-04-20T12:31:12Z</time>
      </trkpt>
      <trkpt lat="43.42381" lon="6.0523">
        <ele>274</ele>
        <time>2016-04-20T12:31:15Z</time>
      </trkpt>
      <trkpt lat="43.42381" lon="6.0523">
        <ele>274</ele>
        <time>2016-04-20T12:31:17Z</time>
      </trkpt>
      <trkpt lat="43.42381" lon="6.0523">
        <ele>274</ele>
        <time>2016-04-20T12:31:19Z</time>
      </trkpt>
      <trkpt lat="43.42381" lon="6.0523">
        <ele>274</ele>
        <time>2016-04-20T12:31:21Z</time>
      </trkpt>
      <trkpt lat="43.42381" lon="6.0523">
        <ele>273.79998779297</ele>
        <time>2016-04-20T12:31:23Z</time>
      </trkpt>
      <trkpt lat="43.42381" lon="6.0523">
        <ele>274</ele>
        <time>2016-04-20T12:31:25Z</time>
      </trkpt>
      <trkpt lat="43.42381" lon="6.0523">
        <ele>274</ele>
        <time>2016-04-20T12:31:27Z</time>
      </trkpt>
      <trkpt lat="43.42381" lon="6.0523">
        <ele>274</ele>
        <time>2016-04-20T12:31:29Z</time>
      </trkpt>
      <trkpt lat="43.42381" lon="6.0523">
        <ele>274</ele>
        <time>2016-04-20T12:31:31Z</time>
      </trkpt>
      <trkpt lat="43.42381" lon="6.0523">
        <ele>274</ele>
        <time>2016-04-20T12:31:33Z</time>
      </trkpt>
      <trkpt lat="43.42381" lon="6.0523">
        <ele>274</ele>
        <time>2016-04-20T12:31:35Z</time>
      </trkpt>
      <trkpt lat="43.42381" lon="6.0523">
        <ele>273.79998779297</ele>
        <time>2016-04-20T12:31:37Z</time>
      </trkpt>
      <trkpt lat="43.42381" lon="6.0523">
        <ele>273.79998779297</ele>
        <time>2016-04-20T12:31:39Z</time>
      </trkpt>
      <trkpt lat="43.42381" lon="6.0523">
        <ele>273.60000610352</ele>
        <time>2016-04-20T12:31:41Z</time>
      </trkpt>
      <trkpt lat="43.42381" lon="6.0523">
        <ele>273.60000610352</ele>
        <time>2016-04-20T12:31:43Z</time>
      </trkpt>
      <trkpt lat="43.42381" lon="6.0523">
        <ele>273.39999389648</ele>
        <time>2016-04-20T12:31:45Z</time>
      </trkpt>
      <trkpt lat="43.42381" lon="6.0523">
        <ele>273.20001220703</ele>
        <time>2016-04-20T12:31:47Z</time>
      </trkpt>
      <trkpt lat="43.42381" lon="6.0523">
        <ele>273.20001220703</ele>
        <time>2016-04-20T12:31:49Z</time>
      </trkpt>
      <trkpt lat="43.42381" lon="6.0523">
        <ele>273.39999389648</ele>
        <time>2016-04-20T12:31:51Z</time>
      </trkpt>
      <trkpt lat="43.42381" lon="6.0523">
        <ele>273.39999389648</ele>
        <time>2016-04-20T12:31:53Z</time>
      </trkpt>
      <trkpt lat="43.42381" lon="6.0523">
        <ele>273.60000610352</ele>
        <time>2016-04-20T12:31:55Z</time>
      </trkpt>
      <trkpt lat="43.42381" lon="6.0523">
        <ele>273.60000610352</ele>
        <time>2016-04-20T12:31:57Z</time>
      </trkpt>
      <trkpt lat="43.42381" lon="6.0523">
        <ele>273.60000610352</ele>
        <time>2016-04-20T12:31:59Z</time>
      </trkpt>
      <trkpt lat="43.42381" lon="6.0523">
        <ele>273.60000610352</ele>
        <time>2016-04-20T12:32:01Z</time>
      </trkpt>
      <trkpt lat="43.42381" lon="6.0523">
        <ele>273.60000610352</ele>
        <time>2016-04-20T12:32:03Z</time>
      </trkpt>
      <trkpt lat="43.42381" lon="6.0523">
        <ele>273.60000610352</ele>
        <time>2016-04-20T12:32:05Z</time>
      </trkpt>
      <trkpt lat="43.42381" lon="6.0523">
        <ele>273.79998779297</ele>
        <time>2016-04-20T12:32:07Z</time>
      </trkpt>
      <trkpt lat="43.42381" lon="6.0523">
        <ele>273.79998779297</ele>
        <time>2016-04-20T12:32:08Z</time>
      </trkpt>
      <trkpt lat="43.42381" lon="6.0523">
        <ele>273.79998779297</ele>
        <time>2016-04-20T12:32:09Z</time>
      </trkpt>
      <trkpt lat="43.42381" lon="6.05229">
        <ele>273.79998779297</ele>
        <time>2016-04-20T12:32:11Z</time>
      </trkpt>
      <trkpt lat="43.42382" lon="6.05229">
        <ele>274</ele>
        <time>2016-04-20T12:32:13Z</time>
      </trkpt>
      <trkpt lat="43.42383" lon="6.05229">
        <ele>274.20001220703</ele>
        <time>2016-04-20T12:32:15Z</time>
      </trkpt>
      <trkpt lat="43.42386" lon="6.05228">
        <ele>274.20001220703</ele>
        <time>2016-04-20T12:32:17Z</time>
      </trkpt>
      <trkpt lat="43.42388" lon="6.05228">
        <ele>274.20001220703</ele>
        <time>2016-04-20T12:32:18Z</time>
      </trkpt>
      <trkpt lat="43.4239" lon="6.05228">
        <ele>274.20001220703</ele>
        <time>2016-04-20T12:32:19Z</time>
      </trkpt>
      <trkpt lat="43.42395" lon="6.05226">
        <ele>274</ele>
        <time>2016-04-20T12:32:21Z</time>
      </trkpt>
      <trkpt lat="43.42399" lon="6.05225">
        <ele>274</ele>
        <time>2016-04-20T12:32:23Z</time>
      </trkpt>
      <trkpt lat="43.42404" lon="6.05225">
        <ele>274.20001220703</ele>
        <time>2016-04-20T12:32:25Z</time>
      </trkpt>
      <trkpt lat="43.42406" lon="6.05224">
        <ele>274.20001220703</ele>
        <time>2016-04-20T12:32:26Z</time>
      </trkpt>
      <trkpt lat="43.42409" lon="6.05224">
        <ele>274.20001220703</ele>
        <time>2016-04-20T12:32:27Z</time>
      </trkpt>
      <trkpt lat="43.42414" lon="6.05225">
        <ele>274.20001220703</ele>
        <time>2016-04-20T12:32:29Z</time>
      </trkpt>
      <trkpt lat="43.42421" lon="6.05225">
        <ele>274.20001220703</ele>
        <time>2016-04-20T12:32:31Z</time>
      </trkpt>
      <trkpt lat="43.42427" lon="6.05225">
        <ele>274.60000610352</ele>
        <time>2016-04-20T12:32:33Z</time>
      </trkpt>
      <trkpt lat="43.42433" lon="6.05225">
        <ele>274.60000610352</ele>
        <time>2016-04-20T12:32:35Z</time>
      </trkpt>
      <trkpt lat="43.4244" lon="6.05224">
        <ele>274.79998779297</ele>
        <time>2016-04-20T12:32:37Z</time>
      </trkpt>
      <trkpt lat="43.42446" lon="6.05221">
        <ele>275.20001220703</ele>
        <time>2016-04-20T12:32:39Z</time>
      </trkpt>
      <trkpt lat="43.42451" lon="6.05217">
        <ele>275.60000610352</ele>
        <time>2016-04-20T12:32:41Z</time>
      </trkpt>
      <trkpt lat="43.42456" lon="6.05216">
        <ele>276</ele>
        <time>2016-04-20T12:32:43Z</time>
      </trkpt>
      <trkpt lat="43.42457" lon="6.05215">
        <ele>276.60000610352</ele>
        <time>2016-04-20T12:32:44Z</time>
      </trkpt>
      <trkpt lat="43.42458" lon="6.05214">
        <ele>277.20001220703</ele>
        <time>2016-04-20T12:32:45Z</time>
      </trkpt>
      <trkpt lat="43.42459" lon="6.05214">
        <ele>277.60000610352</ele>
        <time>2016-04-20T12:32:46Z</time>
      </trkpt>
      <trkpt lat="43.42461" lon="6.05214">
        <ele>278.20001220703</ele>
        <time>2016-04-20T12:32:47Z</time>
      </trkpt>
      <trkpt lat="43.42462" lon="6.05215">
        <ele>278.60000610352</ele>
        <time>2016-04-20T12:32:48Z</time>
      </trkpt>
      <trkpt lat="43.42463" lon="6.05215">
        <ele>278.79998779297</ele>
        <time>2016-04-20T12:32:49Z</time>
      </trkpt>
      <trkpt lat="43.42466" lon="6.05216">
        <ele>279</ele>
        <time>2016-04-20T12:32:51Z</time>
      </trkpt>
      <trkpt lat="43.42469" lon="6.05216">
        <ele>279.20001220703</ele>
        <time>2016-04-20T12:32:53Z</time>
      </trkpt>
      <trkpt lat="43.42472" lon="6.05217">
        <ele>279.39999389648</ele>
        <time>2016-04-20T12:32:55Z</time>
      </trkpt>
      <trkpt lat="43.42477" lon="6.05217">
        <ele>279.39999389648</ele>
        <time>2016-04-20T12:32:57Z</time>
      </trkpt>
      <trkpt lat="43.42482" lon="6.05218">
        <ele>279.20001220703</ele>
        <time>2016-04-20T12:32:59Z</time>
      </trkpt>
      <trkpt lat="43.42487" lon="6.0522">
        <ele>279.20001220703</ele>
        <time>2016-04-20T12:33:01Z</time>
      </trkpt>
      <trkpt lat="43.4249" lon="6.05222">
        <ele>279.20001220703</ele>
        <time>2016-04-20T12:33:02Z</time>
      </trkpt>
      <trkpt lat="43.42493" lon="6.05223">
        <ele>279.20001220703</ele>
        <time>2016-04-20T12:33:03Z</time>
      </trkpt>
      <trkpt lat="43.425" lon="6.05225">
        <ele>279</ele>
        <time>2016-04-20T12:33:05Z</time>
      </trkpt>
      <trkpt lat="43.42505" lon="6.05226">
        <ele>278.79998779297</ele>
        <time>2016-04-20T12:33:07Z</time>
      </trkpt>
      <trkpt lat="43.42508" lon="6.05226">
        <ele>278.79998779297</ele>
        <time>2016-04-20T12:33:08Z</time>
      </trkpt>
      <trkpt lat="43.42511" lon="6.05227">
        <ele>278.79998779297</ele>
        <time>2016-04-20T12:33:09Z</time>
      </trkpt>
      <trkpt lat="43.42516" lon="6.05227">
        <ele>279</ele>
        <time>2016-04-20T12:33:11Z</time>
      </trkpt>
      <trkpt lat="43.42522" lon="6.05228">
        <ele>279.20001220703</ele>
        <time>2016-04-20T12:33:13Z</time>
      </trkpt>
      <trkpt lat="43.42527" lon="6.05227">
        <ele>279.39999389648</ele>
        <time>2016-04-20T12:33:15Z</time>
      </trkpt>
      <trkpt lat="43.42531" lon="6.05227">
        <ele>279.79998779297</ele>
        <time>2016-04-20T12:33:17Z</time>
      </trkpt>
      <trkpt lat="43.42536" lon="6.05226">
        <ele>280</ele>
        <time>2016-04-20T12:33:19Z</time>
      </trkpt>
      <trkpt lat="43.42542" lon="6.05224">
        <ele>280.60000610352</ele>
        <time>2016-04-20T12:33:21Z</time>
      </trkpt>
      <trkpt lat="43.42545" lon="6.05222">
        <ele>281</ele>
        <time>2016-04-20T12:33:22Z</time>
      </trkpt>
      <trkpt lat="43.42546" lon="6.05221">
        <ele>281.39999389648</ele>
        <time>2016-04-20T12:33:23Z</time>
      </trkpt>
      <trkpt lat="43.42548" lon="6.05221">
        <ele>281.60000610352</ele>
        <time>2016-04-20T12:33:24Z</time>
      </trkpt>
      <trkpt lat="43.4255" lon="6.0522">
        <ele>281.79998779297</ele>
        <time>2016-04-20T12:33:25Z</time>
      </trkpt>
      <trkpt lat="43.42553" lon="6.0522">
        <ele>281.60000610352</ele>
        <time>2016-04-20T12:33:27Z</time>
      </trkpt>
      <trkpt lat="43.42556" lon="6.0522">
        <ele>282</ele>
        <time>2016-04-20T12:33:29Z</time>
      </trkpt>
      <trkpt lat="43.4256" lon="6.0522">
        <ele>281.60000610352</ele>
        <time>2016-04-20T12:33:31Z</time>
      </trkpt>
      <trkpt lat="43.42564" lon="6.05221">
        <ele>282</ele>
        <time>2016-04-20T12:33:33Z</time>
      </trkpt>
      <trkpt lat="43.4257" lon="6.05221">
        <ele>282</ele>
        <time>2016-04-20T12:33:35Z</time>
      </trkpt>
      <trkpt lat="43.42576" lon="6.05223">
        <ele>282.20001220703</ele>
        <time>2016-04-20T12:33:37Z</time>
      </trkpt>
      <trkpt lat="43.42582" lon="6.05226">
        <ele>282.39999389648</ele>
        <time>2016-04-20T12:33:39Z</time>
      </trkpt>
      <trkpt lat="43.42584" lon="6.05227">
        <ele>282.39999389648</ele>
        <time>2016-04-20T12:33:40Z</time>
      </trkpt>
      <trkpt lat="43.42587" lon="6.0523">
        <ele>282.20001220703</ele>
        <time>2016-04-20T12:33:41Z</time>
      </trkpt>
      <trkpt lat="43.42591" lon="6.05233">
        <ele>281.79998779297</ele>
        <time>2016-04-20T12:33:43Z</time>
      </trkpt>
      <trkpt lat="43.42595" lon="6.05236">
        <ele>281.79998779297</ele>
        <time>2016-04-20T12:33:45Z</time>
      </trkpt>
      <trkpt lat="43.42599" lon="6.05239">
        <ele>281.79998779297</ele>
        <time>2016-04-20T12:33:47Z</time>
      </trkpt>
      <trkpt lat="43.42603" lon="6.05243">
        <ele>282</ele>
        <time>2016-04-20T12:33:49Z</time>
      </trkpt>
      <trkpt lat="43.42606" lon="6.05246">
        <ele>282</ele>
        <time>2016-04-20T12:33:51Z</time>
      </trkpt>
      <trkpt lat="43.42608" lon="6.05247">
        <ele>282.39999389648</ele>
        <time>2016-04-20T12:33:52Z</time>
      </trkpt>
      <trkpt lat="43.42611" lon="6.0525">
        <ele>282.60000610352</ele>
        <time>2016-04-20T12:33:53Z</time>
      </trkpt>
      <trkpt lat="43.42615" lon="6.05254">
        <ele>282.79998779297</ele>
        <time>2016-04-20T12:33:55Z</time>
      </trkpt>
      <trkpt lat="43.42617" lon="6.05256">
        <ele>282.60000610352</ele>
        <time>2016-04-20T12:33:56Z</time>
      </trkpt>
      <trkpt lat="43.42619" lon="6.05258">
        <ele>282.79998779297</ele>
        <time>2016-04-20T12:33:57Z</time>
      </trkpt>
      <trkpt lat="43.42621" lon="6.0526">
        <ele>283.20001220703</ele>
        <time>2016-04-20T12:33:59Z</time>
      </trkpt>
      <trkpt lat="43.42624" lon="6.05262">
        <ele>284</ele>
        <time>2016-04-20T12:34:01Z</time>
      </trkpt>
      <trkpt lat="43.42627" lon="6.05263">
        <ele>284.20001220703</ele>
        <time>2016-04-20T12:34:03Z</time>
      </trkpt>
      <trkpt lat="43.4263" lon="6.05264">
        <ele>284.20001220703</ele>
        <time>2016-04-20T12:34:05Z</time>
      </trkpt>
      <trkpt lat="43.42632" lon="6.05265">
        <ele>284.20001220703</ele>
        <time>2016-04-20T12:34:07Z</time>
      </trkpt>
      <trkpt lat="43.42632" lon="6.05264">
        <ele>284.39999389648</ele>
        <time>2016-04-20T12:34:08Z</time>
      </trkpt>
      <trkpt lat="43.42633" lon="6.05264">
        <ele>284.39999389648</ele>
        <time>2016-04-20T12:34:09Z</time>
      </trkpt>
      <trkpt lat="43.42633" lon="6.05265">
        <ele>284.60000610352</ele>
        <time>2016-04-20T12:34:11Z</time>
      </trkpt>
      <trkpt lat="43.42633" lon="6.05265">
        <ele>284.60000610352</ele>
        <time>2016-04-20T12:34:13Z</time>
      </trkpt>
      <trkpt lat="43.42633" lon="6.05265">
        <ele>284.79998779297</ele>
        <time>2016-04-20T12:34:15Z</time>
      </trkpt>
      <trkpt lat="43.42633" lon="6.05265">
        <ele>284.79998779297</ele>
        <time>2016-04-20T12:34:17Z</time>
      </trkpt>
      <trkpt lat="43.42633" lon="6.05265">
        <ele>284.79998779297</ele>
        <time>2016-04-20T12:34:19Z</time>
      </trkpt>
      <trkpt lat="43.42633" lon="6.05265">
        <ele>284.60000610352</ele>
        <time>2016-04-20T12:34:21Z</time>
      </trkpt>
      <trkpt lat="43.42633" lon="6.05265">
        <ele>284.39999389648</ele>
        <time>2016-04-20T12:34:23Z</time>
      </trkpt>
      <trkpt lat="43.42633" lon="6.05265">
        <ele>284.39999389648</ele>
        <time>2016-04-20T12:34:25Z</time>
      </trkpt>
      <trkpt lat="43.42633" lon="6.05265">
        <ele>284.60000610352</ele>
        <time>2016-04-20T12:34:27Z</time>
      </trkpt>
      <trkpt lat="43.42633" lon="6.05265">
        <ele>284.60000610352</ele>
        <time>2016-04-20T12:34:29Z</time>
      </trkpt>
      <trkpt lat="43.42633" lon="6.05265">
        <ele>284.60000610352</ele>
        <time>2016-04-20T12:34:31Z</time>
      </trkpt>
      <trkpt lat="43.42633" lon="6.05265">
        <ele>284.60000610352</ele>
        <time>2016-04-20T12:34:33Z</time>
      </trkpt>
      <trkpt lat="43.42633" lon="6.05265">
        <ele>284.39999389648</ele>
        <time>2016-04-20T12:34:35Z</time>
      </trkpt>
      <trkpt lat="43.42633" lon="6.05265">
        <ele>284.39999389648</ele>
        <time>2016-04-20T12:34:37Z</time>
      </trkpt>
      <trkpt lat="43.42633" lon="6.05265">
        <ele>284.39999389648</ele>
        <time>2016-04-20T12:34:39Z</time>
      </trkpt>
      <trkpt lat="43.42633" lon="6.05265">
        <ele>284.39999389648</ele>
        <time>2016-04-20T12:34:41Z</time>
      </trkpt>
      <trkpt lat="43.42633" lon="6.05265">
        <ele>284.39999389648</ele>
        <time>2016-04-20T12:34:43Z</time>
      </trkpt>
      <trkpt lat="43.42633" lon="6.05265">
        <ele>284.39999389648</ele>
        <time>2016-04-20T12:34:45Z</time>
      </trkpt>
      <trkpt lat="43.42633" lon="6.05265">
        <ele>284.60000610352</ele>
        <time>2016-04-20T12:34:47Z</time>
      </trkpt>
      <trkpt lat="43.42633" lon="6.05265">
        <ele>284.60000610352</ele>
        <time>2016-04-20T12:34:49Z</time>
      </trkpt>
      <trkpt lat="43.42633" lon="6.05265">
        <ele>284.79998779297</ele>
        <time>2016-04-20T12:34:51Z</time>
      </trkpt>
      <trkpt lat="43.42633" lon="6.05266">
        <ele>284.60000610352</ele>
        <time>2016-04-20T12:34:52Z</time>
      </trkpt>
      <trkpt lat="43.42633" lon="6.05266">
        <ele>284.60000610352</ele>
        <time>2016-04-20T12:34:53Z</time>
      </trkpt>
      <trkpt lat="43.42633" lon="6.05266">
        <ele>284.39999389648</ele>
        <time>2016-04-20T12:34:55Z</time>
      </trkpt>
      <trkpt lat="43.42633" lon="6.05266">
        <ele>284.39999389648</ele>
        <time>2016-04-20T12:34:57Z</time>
      </trkpt>
      <trkpt lat="43.42633" lon="6.05266">
        <ele>284.39999389648</ele>
        <time>2016-04-20T12:34:59Z</time>
      </trkpt>
      <trkpt lat="43.42633" lon="6.05266">
        <ele>284.39999389648</ele>
        <time>2016-04-20T12:35:01Z</time>
      </trkpt>
      <trkpt lat="43.42633" lon="6.05266">
        <ele>284.39999389648</ele>
        <time>2016-04-20T12:35:03Z</time>
      </trkpt>
      <trkpt lat="43.42633" lon="6.05266">
        <ele>284.39999389648</ele>
        <time>2016-04-20T12:35:05Z</time>
      </trkpt>
      <trkpt lat="43.42633" lon="6.05266">
        <ele>284.39999389648</ele>
        <time>2016-04-20T12:35:06Z</time>
      </trkpt>
      <trkpt lat="43.42633" lon="6.05266">
        <ele>284.39999389648</ele>
        <time>2016-04-20T12:35:07Z</time>
      </trkpt>
      <trkpt lat="43.42633" lon="6.05266">
        <ele>284.39999389648</ele>
        <time>2016-04-20T12:35:09Z</time>
      </trkpt>
      <trkpt lat="43.42633" lon="6.05266">
        <ele>284.39999389648</ele>
        <time>2016-04-20T12:35:11Z</time>
      </trkpt>
      <trkpt lat="43.42633" lon="6.05266">
        <ele>284.60000610352</ele>
        <time>2016-04-20T12:35:13Z</time>
      </trkpt>
      <trkpt lat="43.42633" lon="6.05266">
        <ele>284.60000610352</ele>
        <time>2016-04-20T12:35:15Z</time>
      </trkpt>
      <trkpt lat="43.42633" lon="6.05266">
        <ele>284.79998779297</ele>
        <time>2016-04-20T12:35:17Z</time>
      </trkpt>
      <trkpt lat="43.42633" lon="6.05266">
        <ele>284.60000610352</ele>
        <time>2016-04-20T12:35:19Z</time>
      </trkpt>
      <trkpt lat="43.42633" lon="6.05266">
        <ele>284.39999389648</ele>
        <time>2016-04-20T12:35:21Z</time>
      </trkpt>
      <trkpt lat="43.42633" lon="6.05266">
        <ele>284.39999389648</ele>
        <time>2016-04-20T12:35:22Z</time>
      </trkpt>
      <trkpt lat="43.42633" lon="6.05266">
        <ele>284.39999389648</ele>
        <time>2016-04-20T12:35:23Z</time>
      </trkpt>
      <trkpt lat="43.42634" lon="6.05266">
        <ele>284.20001220703</ele>
        <time>2016-04-20T12:35:25Z</time>
      </trkpt>
      <trkpt lat="43.42634" lon="6.05266">
        <ele>284.20001220703</ele>
        <time>2016-04-20T12:35:27Z</time>
      </trkpt>
      <trkpt lat="43.42634" lon="6.05266">
        <ele>284.39999389648</ele>
        <time>2016-04-20T12:35:29Z</time>
      </trkpt>
      <trkpt lat="43.42634" lon="6.05266">
        <ele>284.39999389648</ele>
        <time>2016-04-20T12:35:31Z</time>
      </trkpt>
      <trkpt lat="43.42633" lon="6.05266">
        <ele>284.20001220703</ele>
        <time>2016-04-20T12:35:33Z</time>
      </trkpt>
      <trkpt lat="43.42633" lon="6.05266">
        <ele>283.79998779297</ele>
        <time>2016-04-20T12:35:35Z</time>
      </trkpt>
      <trkpt lat="43.42634" lon="6.05265">
        <ele>283.60000610352</ele>
        <time>2016-04-20T12:35:37Z</time>
      </trkpt>
      <trkpt lat="43.42634" lon="6.05265">
        <ele>283.39999389648</ele>
        <time>2016-04-20T12:35:39Z</time>
      </trkpt>
      <trkpt lat="43.42634" lon="6.05265">
        <ele>283.39999389648</ele>
        <time>2016-04-20T12:35:41Z</time>
      </trkpt>
      <trkpt lat="43.42634" lon="6.05265">
        <ele>283.39999389648</ele>
        <time>2016-04-20T12:35:43Z</time>
      </trkpt>
      <trkpt lat="43.42634" lon="6.05265">
        <ele>283.20001220703</ele>
        <time>2016-04-20T12:35:45Z</time>
      </trkpt>
      <trkpt lat="43.42634" lon="6.05265">
        <ele>283.20001220703</ele>
        <time>2016-04-20T12:35:47Z</time>
      </trkpt>
      <trkpt lat="43.42634" lon="6.05265">
        <ele>283.20001220703</ele>
        <time>2016-04-20T12:35:49Z</time>
      </trkpt>
      <trkpt lat="43.42634" lon="6.05265">
        <ele>283.39999389648</ele>
        <time>2016-04-20T12:35:51Z</time>
      </trkpt>
      <trkpt lat="43.42634" lon="6.05265">
        <ele>283.20001220703</ele>
        <time>2016-04-20T12:35:53Z</time>
      </trkpt>
      <trkpt lat="43.42634" lon="6.05265">
        <ele>283.39999389648</ele>
        <time>2016-04-20T12:35:55Z</time>
      </trkpt>
      <trkpt lat="43.42634" lon="6.05265">
        <ele>283.20001220703</ele>
        <time>2016-04-20T12:35:57Z</time>
      </trkpt>
      <trkpt lat="43.42634" lon="6.05265">
        <ele>283.39999389648</ele>
        <time>2016-04-20T12:35:59Z</time>
      </trkpt>
      <trkpt lat="43.42634" lon="6.05265">
        <ele>283.39999389648</ele>
        <time>2016-04-20T12:36:01Z</time>
      </trkpt>
      <trkpt lat="43.42634" lon="6.05265">
        <ele>283.39999389648</ele>
        <time>2016-04-20T12:36:03Z</time>
      </trkpt>
      <trkpt lat="43.42634" lon="6.05265">
        <ele>283.39999389648</ele>
        <time>2016-04-20T12:36:05Z</time>
      </trkpt>
      <trkpt lat="43.42634" lon="6.05265">
        <ele>283.39999389648</ele>
        <time>2016-04-20T12:36:07Z</time>
      </trkpt>
      <trkpt lat="43.42634" lon="6.05265">
        <ele>283.39999389648</ele>
        <time>2016-04-20T12:36:09Z</time>
      </trkpt>
      <trkpt lat="43.42634" lon="6.05265">
        <ele>283.20001220703</ele>
        <time>2016-04-20T12:36:11Z</time>
      </trkpt>
      <trkpt lat="43.42634" lon="6.05265">
        <ele>283.20001220703</ele>
        <time>2016-04-20T12:36:13Z</time>
      </trkpt>
      <trkpt lat="43.42634" lon="6.05266">
        <ele>283.20001220703</ele>
        <time>2016-04-20T12:36:15Z</time>
      </trkpt>
      <trkpt lat="43.42634" lon="6.05266">
        <ele>283.20001220703</ele>
        <time>2016-04-20T12:36:17Z</time>
      </trkpt>
      <trkpt lat="43.42634" lon="6.05266">
        <ele>283.39999389648</ele>
        <time>2016-04-20T12:36:19Z</time>
      </trkpt>
      <trkpt lat="43.42634" lon="6.05266">
        <ele>283.39999389648</ele>
        <time>2016-04-20T12:36:21Z</time>
      </trkpt>
      <trkpt lat="43.42634" lon="6.05266">
        <ele>283.39999389648</ele>
        <time>2016-04-20T12:36:23Z</time>
      </trkpt>
      <trkpt lat="43.42634" lon="6.05266">
        <ele>283.39999389648</ele>
        <time>2016-04-20T12:36:25Z</time>
      </trkpt>
      <trkpt lat="43.42634" lon="6.05265">
        <ele>283.39999389648</ele>
        <time>2016-04-20T12:36:27Z</time>
      </trkpt>
      <trkpt lat="43.42634" lon="6.05265">
        <ele>283.60000610352</ele>
        <time>2016-04-20T12:36:29Z</time>
      </trkpt>
      <trkpt lat="43.42634" lon="6.05265">
        <ele>283.60000610352</ele>
        <time>2016-04-20T12:36:31Z</time>
      </trkpt>
      <trkpt lat="43.42634" lon="6.05266">
        <ele>283.39999389648</ele>
        <time>2016-04-20T12:36:33Z</time>
      </trkpt>
      <trkpt lat="43.42634" lon="6.05266">
        <ele>283.39999389648</ele>
        <time>2016-04-20T12:36:35Z</time>
      </trkpt>
      <trkpt lat="43.42634" lon="6.05266">
        <ele>283.60000610352</ele>
        <time>2016-04-20T12:36:37Z</time>
      </trkpt>
      <trkpt lat="43.42634" lon="6.05266">
        <ele>283.60000610352</ele>
        <time>2016-04-20T12:36:38Z</time>
      </trkpt>
      <trkpt lat="43.42634" lon="6.05266">
        <ele>283.79998779297</ele>
        <time>2016-04-20T12:36:39Z</time>
      </trkpt>
      <trkpt lat="43.42634" lon="6.05266">
        <ele>283.79998779297</ele>
        <time>2016-04-20T12:36:41Z</time>
      </trkpt>
      <trkpt lat="43.42634" lon="6.05266">
        <ele>283.79998779297</ele>
        <time>2016-04-20T12:36:43Z</time>
      </trkpt>
      <trkpt lat="43.42634" lon="6.05266">
        <ele>283.79998779297</ele>
        <time>2016-04-20T12:36:45Z</time>
      </trkpt>
      <trkpt lat="43.42634" lon="6.05266">
        <ele>283.79998779297</ele>
        <time>2016-04-20T12:36:47Z</time>
      </trkpt>
      <trkpt lat="43.42634" lon="6.05266">
        <ele>283.79998779297</ele>
        <time>2016-04-20T12:36:49Z</time>
      </trkpt>
      <trkpt lat="43.42634" lon="6.05266">
        <ele>283.79998779297</ele>
        <time>2016-04-20T12:36:51Z</time>
      </trkpt>
      <trkpt lat="43.42634" lon="6.05266">
        <ele>283.79998779297</ele>
        <time>2016-04-20T12:36:53Z</time>
      </trkpt>
      <trkpt lat="43.42634" lon="6.05266">
        <ele>283.79998779297</ele>
        <time>2016-04-20T12:36:55Z</time>
      </trkpt>
      <trkpt lat="43.42634" lon="6.05266">
        <ele>283.60000610352</ele>
        <time>2016-04-20T12:36:57Z</time>
      </trkpt>
      <trkpt lat="43.42634" lon="6.05266">
        <ele>283.79998779297</ele>
        <time>2016-04-20T12:36:59Z</time>
      </trkpt>
      <trkpt lat="43.42634" lon="6.05266">
        <ele>283.79998779297</ele>
        <time>2016-04-20T12:37:01Z</time>
      </trkpt>
      <trkpt lat="43.42634" lon="6.05266">
        <ele>283.79998779297</ele>
        <time>2016-04-20T12:37:03Z</time>
      </trkpt>
      <trkpt lat="43.42634" lon="6.05266">
        <ele>283.79998779297</ele>
        <time>2016-04-20T12:37:05Z</time>
      </trkpt>
      <trkpt lat="43.42634" lon="6.05266">
        <ele>283.60000610352</ele>
        <time>2016-04-20T12:37:07Z</time>
      </trkpt>
      <trkpt lat="43.42634" lon="6.05266">
        <ele>283.60000610352</ele>
        <time>2016-04-20T12:37:09Z</time>
      </trkpt>
      <trkpt lat="43.42634" lon="6.05266">
        <ele>283.60000610352</ele>
        <time>2016-04-20T12:37:11Z</time>
      </trkpt>
      <trkpt lat="43.42634" lon="6.05266">
        <ele>283.39999389648</ele>
        <time>2016-04-20T12:37:13Z</time>
      </trkpt>
      <trkpt lat="43.42634" lon="6.05266">
        <ele>283.39999389648</ele>
        <time>2016-04-20T12:37:14Z</time>
      </trkpt>
      <trkpt lat="43.42634" lon="6.05266">
        <ele>283.39999389648</ele>
        <time>2016-04-20T12:37:15Z</time>
      </trkpt>
      <trkpt lat="43.42634" lon="6.05266">
        <ele>283.39999389648</ele>
        <time>2016-04-20T12:37:17Z</time>
      </trkpt>
      <trkpt lat="43.42634" lon="6.05266">
        <ele>283.20001220703</ele>
        <time>2016-04-20T12:37:19Z</time>
      </trkpt>
      <trkpt lat="43.42634" lon="6.05266">
        <ele>283.20001220703</ele>
        <time>2016-04-20T12:37:21Z</time>
      </trkpt>
      <trkpt lat="43.42634" lon="6.05266">
        <ele>283.20001220703</ele>
        <time>2016-04-20T12:37:23Z</time>
      </trkpt>
      <trkpt lat="43.42634" lon="6.05266">
        <ele>283.20001220703</ele>
        <time>2016-04-20T12:37:25Z</time>
      </trkpt>
      <trkpt lat="43.42634" lon="6.05266">
        <ele>283.39999389648</ele>
        <time>2016-04-20T12:37:27Z</time>
      </trkpt>
      <trkpt lat="43.42634" lon="6.05266">
        <ele>283.39999389648</ele>
        <time>2016-04-20T12:37:29Z</time>
      </trkpt>
      <trkpt lat="43.42634" lon="6.05266">
        <ele>283.20001220703</ele>
        <time>2016-04-20T12:37:31Z</time>
      </trkpt>
      <trkpt lat="43.42634" lon="6.05266">
        <ele>283</ele>
        <time>2016-04-20T12:37:33Z</time>
      </trkpt>
      <trkpt lat="43.42634" lon="6.05266">
        <ele>283</ele>
        <time>2016-04-20T12:37:35Z</time>
      </trkpt>
      <trkpt lat="43.42634" lon="6.05266">
        <ele>283</ele>
        <time>2016-04-20T12:37:37Z</time>
      </trkpt>
      <trkpt lat="43.42634" lon="6.05266">
        <ele>283.20001220703</ele>
        <time>2016-04-20T12:37:39Z</time>
      </trkpt>
      <trkpt lat="43.42634" lon="6.05266">
        <ele>283.20001220703</ele>
        <time>2016-04-20T12:37:41Z</time>
      </trkpt>
      <trkpt lat="43.42634" lon="6.05266">
        <ele>283.20001220703</ele>
        <time>2016-04-20T12:37:43Z</time>
      </trkpt>
      <trkpt lat="43.42634" lon="6.05266">
        <ele>283.20001220703</ele>
        <time>2016-04-20T12:37:45Z</time>
      </trkpt>
      <trkpt lat="43.42634" lon="6.05266">
        <ele>283.20001220703</ele>
        <time>2016-04-20T12:37:47Z</time>
      </trkpt>
      <trkpt lat="43.42634" lon="6.05266">
        <ele>283.20001220703</ele>
        <time>2016-04-20T12:37:49Z</time>
      </trkpt>
      <trkpt lat="43.42634" lon="6.05266">
        <ele>283</ele>
        <time>2016-04-20T12:37:51Z</time>
      </trkpt>
      <trkpt lat="43.42634" lon="6.05266">
        <ele>283</ele>
        <time>2016-04-20T12:37:53Z</time>
      </trkpt>
      <trkpt lat="43.42634" lon="6.05266">
        <ele>283</ele>
        <time>2016-04-20T12:37:55Z</time>
      </trkpt>
      <trkpt lat="43.42634" lon="6.05266">
        <ele>283</ele>
        <time>2016-04-20T12:37:57Z</time>
      </trkpt>
      <trkpt lat="43.42634" lon="6.05266">
        <ele>283.20001220703</ele>
        <time>2016-04-20T12:37:59Z</time>
      </trkpt>
      <trkpt lat="43.42634" lon="6.05266">
        <ele>283</ele>
        <time>2016-04-20T12:38:01Z</time>
      </trkpt>
      <trkpt lat="43.42634" lon="6.05266">
        <ele>283</ele>
        <time>2016-04-20T12:38:03Z</time>
      </trkpt>
      <trkpt lat="43.42634" lon="6.05266">
        <ele>283.20001220703</ele>
        <time>2016-04-20T12:38:05Z</time>
      </trkpt>
      <trkpt lat="43.42634" lon="6.05266">
        <ele>283.20001220703</ele>
        <time>2016-04-20T12:38:07Z</time>
      </trkpt>
      <trkpt lat="43.42634" lon="6.05266">
        <ele>283.20001220703</ele>
        <time>2016-04-20T12:38:09Z</time>
      </trkpt>
      <trkpt lat="43.42634" lon="6.05266">
        <ele>283.20001220703</ele>
        <time>2016-04-20T12:38:11Z</time>
      </trkpt>
      <trkpt lat="43.42634" lon="6.05266">
        <ele>283</ele>
        <time>2016-04-20T12:38:13Z</time>
      </trkpt>
      <trkpt lat="43.42634" lon="6.05266">
        <ele>283</ele>
        <time>2016-04-20T12:38:14Z</time>
      </trkpt>
      <trkpt lat="43.42634" lon="6.05266">
        <ele>283</ele>
        <time>2016-04-20T12:38:17Z</time>
      </trkpt>
      <trkpt lat="43.42634" lon="6.05266">
        <ele>283</ele>
        <time>2016-04-20T12:38:19Z</time>
      </trkpt>
      <trkpt lat="43.42634" lon="6.05266">
        <ele>282.79998779297</ele>
        <time>2016-04-20T12:38:21Z</time>
      </trkpt>
      <trkpt lat="43.42634" lon="6.05266">
        <ele>282.79998779297</ele>
        <time>2016-04-20T12:38:23Z</time>
      </trkpt>
      <trkpt lat="43.42634" lon="6.05266">
        <ele>282.79998779297</ele>
        <time>2016-04-20T12:38:25Z</time>
      </trkpt>
      <trkpt lat="43.42634" lon="6.05266">
        <ele>282.79998779297</ele>
        <time>2016-04-20T12:38:27Z</time>
      </trkpt>
      <trkpt lat="43.42634" lon="6.05266">
        <ele>282.79998779297</ele>
        <time>2016-04-20T12:38:29Z</time>
      </trkpt>
      <trkpt lat="43.42634" lon="6.05266">
        <ele>282.60000610352</ele>
        <time>2016-04-20T12:38:31Z</time>
      </trkpt>
      <trkpt lat="43.42634" lon="6.05266">
        <ele>282.60000610352</ele>
        <time>2016-04-20T12:38:33Z</time>
      </trkpt>
      <trkpt lat="43.42634" lon="6.05266">
        <ele>282.60000610352</ele>
        <time>2016-04-20T12:38:35Z</time>
      </trkpt>
      <trkpt lat="43.42634" lon="6.05266">
        <ele>282.60000610352</ele>
        <time>2016-04-20T12:38:37Z</time>
      </trkpt>
      <trkpt lat="43.42634" lon="6.05266">
        <ele>282.79998779297</ele>
        <time>2016-04-20T12:38:39Z</time>
      </trkpt>
      <trkpt lat="43.42634" lon="6.05266">
        <ele>282.79998779297</ele>
        <time>2016-04-20T12:38:41Z</time>
      </trkpt>
      <trkpt lat="43.42634" lon="6.05266">
        <ele>282.79998779297</ele>
        <time>2016-04-20T12:38:43Z</time>
      </trkpt>
      <trkpt lat="43.42634" lon="6.05266">
        <ele>283</ele>
        <time>2016-04-20T12:38:45Z</time>
      </trkpt>
      <trkpt lat="43.42634" lon="6.05266">
        <ele>283</ele>
        <time>2016-04-20T12:38:47Z</time>
      </trkpt>
      <trkpt lat="43.42634" lon="6.05266">
        <ele>283</ele>
        <time>2016-04-20T12:38:49Z</time>
      </trkpt>
      <trkpt lat="43.42634" lon="6.05266">
        <ele>283</ele>
        <time>2016-04-20T12:38:51Z</time>
      </trkpt>
      <trkpt lat="43.42634" lon="6.05266">
        <ele>283</ele>
        <time>2016-04-20T12:38:53Z</time>
      </trkpt>
      <trkpt lat="43.42634" lon="6.05266">
        <ele>283</ele>
        <time>2016-04-20T12:38:55Z</time>
      </trkpt>
      <trkpt lat="43.42634" lon="6.05266">
        <ele>283</ele>
        <time>2016-04-20T12:38:57Z</time>
      </trkpt>
      <trkpt lat="43.42634" lon="6.05266">
        <ele>283</ele>
        <time>2016-04-20T12:38:59Z</time>
      </trkpt>
      <trkpt lat="43.42634" lon="6.05266">
        <ele>283</ele>
        <time>2016-04-20T12:39:00Z</time>
      </trkpt>
      <trkpt lat="43.42634" lon="6.05266">
        <ele>283</ele>
        <time>2016-04-20T12:39:01Z</time>
      </trkpt>
      <trkpt lat="43.42634" lon="6.05266">
        <ele>283</ele>
        <time>2016-04-20T12:39:03Z</time>
      </trkpt>
      <trkpt lat="43.42634" lon="6.05266">
        <ele>282.79998779297</ele>
        <time>2016-04-20T12:39:05Z</time>
      </trkpt>
      <trkpt lat="43.42634" lon="6.05266">
        <ele>282.79998779297</ele>
        <time>2016-04-20T12:39:07Z</time>
      </trkpt>
      <trkpt lat="43.42634" lon="6.05266">
        <ele>282.79998779297</ele>
        <time>2016-04-20T12:39:09Z</time>
      </trkpt>
      <trkpt lat="43.42634" lon="6.05266">
        <ele>283</ele>
        <time>2016-04-20T12:39:11Z</time>
      </trkpt>
      <trkpt lat="43.42634" lon="6.05266">
        <ele>283</ele>
        <time>2016-04-20T12:39:13Z</time>
      </trkpt>
      <trkpt lat="43.42634" lon="6.05266">
        <ele>282.79998779297</ele>
        <time>2016-04-20T12:39:15Z</time>
      </trkpt>
      <trkpt lat="43.42634" lon="6.05266">
        <ele>282.79998779297</ele>
        <time>2016-04-20T12:39:17Z</time>
      </trkpt>
      <trkpt lat="43.42634" lon="6.05266">
        <ele>283</ele>
        <time>2016-04-20T12:39:19Z</time>
      </trkpt>
      <trkpt lat="43.42634" lon="6.05266">
        <ele>282.79998779297</ele>
        <time>2016-04-20T12:39:21Z</time>
      </trkpt>
      <trkpt lat="43.42634" lon="6.05266">
        <ele>282.79998779297</ele>
        <time>2016-04-20T12:39:23Z</time>
      </trkpt>
      <trkpt lat="43.42634" lon="6.05266">
        <ele>282.79998779297</ele>
        <time>2016-04-20T12:39:24Z</time>
      </trkpt>
      <trkpt lat="43.42634" lon="6.05266">
        <ele>283</ele>
        <time>2016-04-20T12:39:25Z</time>
      </trkpt>
      <trkpt lat="43.42634" lon="6.05266">
        <ele>283</ele>
        <time>2016-04-20T12:39:27Z</time>
      </trkpt>
      <trkpt lat="43.42634" lon="6.05266">
        <ele>283</ele>
        <time>2016-04-20T12:39:29Z</time>
      </trkpt>
      <trkpt lat="43.42634" lon="6.05266">
        <ele>283</ele>
        <time>2016-04-20T12:39:31Z</time>
      </trkpt>
      <trkpt lat="43.42634" lon="6.05266">
        <ele>282.79998779297</ele>
        <time>2016-04-20T12:39:33Z</time>
      </trkpt>
      <trkpt lat="43.42634" lon="6.05266">
        <ele>283</ele>
        <time>2016-04-20T12:39:35Z</time>
      </trkpt>
      <trkpt lat="43.42634" lon="6.05266">
        <ele>283</ele>
        <time>2016-04-20T12:39:37Z</time>
      </trkpt>
      <trkpt lat="43.42634" lon="6.05266">
        <ele>283</ele>
        <time>2016-04-20T12:39:39Z</time>
      </trkpt>
      <trkpt lat="43.42634" lon="6.05266">
        <ele>283</ele>
        <time>2016-04-20T12:39:41Z</time>
      </trkpt>
      <trkpt lat="43.42634" lon="6.05266">
        <ele>283</ele>
        <time>2016-04-20T12:39:43Z</time>
      </trkpt>
      <trkpt lat="43.42634" lon="6.05266">
        <ele>282.79998779297</ele>
        <time>2016-04-20T12:39:45Z</time>
      </trkpt>
      <trkpt lat="43.42634" lon="6.05266">
        <ele>283</ele>
        <time>2016-04-20T12:39:47Z</time>
      </trkpt>
      <trkpt lat="43.42634" lon="6.05266">
        <ele>283</ele>
        <time>2016-04-20T12:39:49Z</time>
      </trkpt>
      <trkpt lat="43.42634" lon="6.05266">
        <ele>282.79998779297</ele>
        <time>2016-04-20T12:39:51Z</time>
      </trkpt>
      <trkpt lat="43.42634" lon="6.05266">
        <ele>282.60000610352</ele>
        <time>2016-04-20T12:39:53Z</time>
      </trkpt>
      <trkpt lat="43.42634" lon="6.05266">
        <ele>282.60000610352</ele>
        <time>2016-04-20T12:39:55Z</time>
      </trkpt>
      <trkpt lat="43.42634" lon="6.05266">
        <ele>282.60000610352</ele>
        <time>2016-04-20T12:39:57Z</time>
      </trkpt>
      <trkpt lat="43.42634" lon="6.05266">
        <ele>282.60000610352</ele>
        <time>2016-04-20T12:39:59Z</time>
      </trkpt>
      <trkpt lat="43.42634" lon="6.05266">
        <ele>282.60000610352</ele>
        <time>2016-04-20T12:40:01Z</time>
      </trkpt>
      <trkpt lat="43.42634" lon="6.05266">
        <ele>282.60000610352</ele>
        <time>2016-04-20T12:40:03Z</time>
      </trkpt>
      <trkpt lat="43.42634" lon="6.05266">
        <ele>282.60000610352</ele>
        <time>2016-04-20T12:40:05Z</time>
      </trkpt>
      <trkpt lat="43.42634" lon="6.05266">
        <ele>282.79998779297</ele>
        <time>2016-04-20T12:40:07Z</time>
      </trkpt>
      <trkpt lat="43.42634" lon="6.05266">
        <ele>282.79998779297</ele>
        <time>2016-04-20T12:40:09Z</time>
      </trkpt>
      <trkpt lat="43.42634" lon="6.05266">
        <ele>282.79998779297</ele>
        <time>2016-04-20T12:40:11Z</time>
      </trkpt>
      <trkpt lat="43.42634" lon="6.05266">
        <ele>282.79998779297</ele>
        <time>2016-04-20T12:40:13Z</time>
      </trkpt>
      <trkpt lat="43.42634" lon="6.05266">
        <ele>282.79998779297</ele>
        <time>2016-04-20T12:40:15Z</time>
      </trkpt>
      <trkpt lat="43.42634" lon="6.05266">
        <ele>282.79998779297</ele>
        <time>2016-04-20T12:40:17Z</time>
      </trkpt>
      <trkpt lat="43.42634" lon="6.05266">
        <ele>283</ele>
        <time>2016-04-20T12:40:19Z</time>
      </trkpt>
      <trkpt lat="43.42634" lon="6.05266">
        <ele>283</ele>
        <time>2016-04-20T12:40:21Z</time>
      </trkpt>
      <trkpt lat="43.42634" lon="6.05266">
        <ele>282.79998779297</ele>
        <time>2016-04-20T12:40:22Z</time>
      </trkpt>
      <trkpt lat="43.42634" lon="6.05266">
        <ele>282.79998779297</ele>
        <time>2016-04-20T12:40:23Z</time>
      </trkpt>
      <trkpt lat="43.42634" lon="6.05266">
        <ele>282.79998779297</ele>
        <time>2016-04-20T12:40:25Z</time>
      </trkpt>
      <trkpt lat="43.42634" lon="6.05266">
        <ele>282.79998779297</ele>
        <time>2016-04-20T12:40:27Z</time>
      </trkpt>
      <trkpt lat="43.42634" lon="6.05266">
        <ele>282.79998779297</ele>
        <time>2016-04-20T12:40:29Z</time>
      </trkpt>
      <trkpt lat="43.42634" lon="6.05266">
        <ele>282.79998779297</ele>
        <time>2016-04-20T12:40:31Z</time>
      </trkpt>
      <trkpt lat="43.42634" lon="6.05266">
        <ele>282.79998779297</ele>
        <time>2016-04-20T12:40:33Z</time>
      </trkpt>
      <trkpt lat="43.42634" lon="6.05266">
        <ele>282.79998779297</ele>
        <time>2016-04-20T12:40:35Z</time>
      </trkpt>
      <trkpt lat="43.42634" lon="6.05266">
        <ele>283</ele>
        <time>2016-04-20T12:40:36Z</time>
      </trkpt>
      <trkpt lat="43.42634" lon="6.05266">
        <ele>283</ele>
        <time>2016-04-20T12:40:37Z</time>
      </trkpt>
      <trkpt lat="43.42634" lon="6.05266">
        <ele>283</ele>
        <time>2016-04-20T12:40:39Z</time>
      </trkpt>
      <trkpt lat="43.42634" lon="6.05266">
        <ele>282.79998779297</ele>
        <time>2016-04-20T12:40:41Z</time>
      </trkpt>
      <trkpt lat="43.42634" lon="6.05266">
        <ele>282.79998779297</ele>
        <time>2016-04-20T12:40:43Z</time>
      </trkpt>
      <trkpt lat="43.42634" lon="6.05266">
        <ele>282.79998779297</ele>
        <time>2016-04-20T12:40:44Z</time>
      </trkpt>
      <trkpt lat="43.42634" lon="6.05266">
        <ele>282.60000610352</ele>
        <time>2016-04-20T12:40:45Z</time>
      </trkpt>
      <trkpt lat="43.42634" lon="6.05266">
        <ele>282.60000610352</ele>
        <time>2016-04-20T12:40:47Z</time>
      </trkpt>
      <trkpt lat="43.42634" lon="6.05266">
        <ele>282.60000610352</ele>
        <time>2016-04-20T12:40:49Z</time>
      </trkpt>
      <trkpt lat="43.42634" lon="6.05266">
        <ele>282.60000610352</ele>
        <time>2016-04-20T12:40:51Z</time>
      </trkpt>
      <trkpt lat="43.42634" lon="6.05266">
        <ele>282.60000610352</ele>
        <time>2016-04-20T12:40:53Z</time>
      </trkpt>
      <trkpt lat="43.42634" lon="6.05266">
        <ele>282.60000610352</ele>
        <time>2016-04-20T12:40:57Z</time>
      </trkpt>
      <trkpt lat="43.42634" lon="6.05266">
        <ele>282.60000610352</ele>
        <time>2016-04-20T12:40:59Z</time>
      </trkpt>
      <trkpt lat="43.42634" lon="6.05266">
        <ele>282.60000610352</ele>
        <time>2016-04-20T12:41:01Z</time>
      </trkpt>
      <trkpt lat="43.42634" lon="6.05266">
        <ele>282.60000610352</ele>
        <time>2016-04-20T12:41:03Z</time>
      </trkpt>
      <trkpt lat="43.42634" lon="6.05266">
        <ele>282.60000610352</ele>
        <time>2016-04-20T12:41:05Z</time>
      </trkpt>
      <trkpt lat="43.42634" lon="6.05266">
        <ele>282.39999389648</ele>
        <time>2016-04-20T12:41:07Z</time>
      </trkpt>
      <trkpt lat="43.42634" lon="6.05266">
        <ele>282.79998779297</ele>
        <time>2016-04-20T12:41:09Z</time>
      </trkpt>
      <trkpt lat="43.42634" lon="6.05266">
        <ele>282.60000610352</ele>
        <time>2016-04-20T12:41:11Z</time>
      </trkpt>
      <trkpt lat="43.42634" lon="6.05266">
        <ele>282.60000610352</ele>
        <time>2016-04-20T12:41:13Z</time>
      </trkpt>
      <trkpt lat="43.42634" lon="6.05266">
        <ele>282.60000610352</ele>
        <time>2016-04-20T12:41:15Z</time>
      </trkpt>
      <trkpt lat="43.42634" lon="6.05266">
        <ele>282.60000610352</ele>
        <time>2016-04-20T12:41:17Z</time>
      </trkpt>
      <trkpt lat="43.42634" lon="6.05266">
        <ele>282.60000610352</ele>
        <time>2016-04-20T12:41:19Z</time>
      </trkpt>
      <trkpt lat="43.42634" lon="6.05266">
        <ele>282.60000610352</ele>
        <time>2016-04-20T12:41:20Z</time>
      </trkpt>
      <trkpt lat="43.42634" lon="6.05266">
        <ele>282.60000610352</ele>
        <time>2016-04-20T12:41:21Z</time>
      </trkpt>
      <trkpt lat="43.42634" lon="6.05266">
        <ele>282.60000610352</ele>
        <time>2016-04-20T12:41:23Z</time>
      </trkpt>
      <trkpt lat="43.42634" lon="6.05266">
        <ele>282.39999389648</ele>
        <time>2016-04-20T12:41:25Z</time>
      </trkpt>
      <trkpt lat="43.42634" lon="6.05266">
        <ele>282.39999389648</ele>
        <time>2016-04-20T12:41:27Z</time>
      </trkpt>
      <trkpt lat="43.42634" lon="6.05266">
        <ele>282.39999389648</ele>
        <time>2016-04-20T12:41:29Z</time>
      </trkpt>
      <trkpt lat="43.42634" lon="6.05266">
        <ele>282.39999389648</ele>
        <time>2016-04-20T12:41:31Z</time>
      </trkpt>
      <trkpt lat="43.42634" lon="6.05266">
        <ele>282.39999389648</ele>
        <time>2016-04-20T12:41:33Z</time>
      </trkpt>
      <trkpt lat="43.42634" lon="6.05266">
        <ele>282.39999389648</ele>
        <time>2016-04-20T12:41:35Z</time>
      </trkpt>
      <trkpt lat="43.42634" lon="6.05266">
        <ele>282.39999389648</ele>
        <time>2016-04-20T12:41:37Z</time>
      </trkpt>
      <trkpt lat="43.42634" lon="6.05266">
        <ele>282.60000610352</ele>
        <time>2016-04-20T12:41:39Z</time>
      </trkpt>
      <trkpt lat="43.42634" lon="6.05266">
        <ele>282.60000610352</ele>
        <time>2016-04-20T12:41:41Z</time>
      </trkpt>
      <trkpt lat="43.42634" lon="6.05266">
        <ele>282.60000610352</ele>
        <time>2016-04-20T12:41:43Z</time>
      </trkpt>
      <trkpt lat="43.42634" lon="6.05267">
        <ele>282.60000610352</ele>
        <time>2016-04-20T12:41:45Z</time>
      </trkpt>
      <trkpt lat="43.42634" lon="6.05267">
        <ele>282.79998779297</ele>
        <time>2016-04-20T12:41:47Z</time>
      </trkpt>
      <trkpt lat="43.42634" lon="6.05267">
        <ele>282.60000610352</ele>
        <time>2016-04-20T12:41:49Z</time>
      </trkpt>
      <trkpt lat="43.42634" lon="6.05267">
        <ele>282.60000610352</ele>
        <time>2016-04-20T12:41:51Z</time>
      </trkpt>
      <trkpt lat="43.42634" lon="6.05267">
        <ele>282.60000610352</ele>
        <time>2016-04-20T12:41:53Z</time>
      </trkpt>
      <trkpt lat="43.42634" lon="6.05267">
        <ele>282.79998779297</ele>
        <time>2016-04-20T12:41:54Z</time>
      </trkpt>
      <trkpt lat="43.42634" lon="6.05267">
        <ele>282.79998779297</ele>
        <time>2016-04-20T12:41:55Z</time>
      </trkpt>
      <trkpt lat="43.42634" lon="6.05267">
        <ele>283</ele>
        <time>2016-04-20T12:41:57Z</time>
      </trkpt>
      <trkpt lat="43.42635" lon="6.05268">
        <ele>283.20001220703</ele>
        <time>2016-04-20T12:41:59Z</time>
      </trkpt>
      <trkpt lat="43.42635" lon="6.05268">
        <ele>283.20001220703</ele>
        <time>2016-04-20T12:42:01Z</time>
      </trkpt>
      <trkpt lat="43.42635" lon="6.05268">
        <ele>283.20001220703</ele>
        <time>2016-04-20T12:42:03Z</time>
      </trkpt>
      <trkpt lat="43.42635" lon="6.05268">
        <ele>283.20001220703</ele>
        <time>2016-04-20T12:42:04Z</time>
      </trkpt>
      <trkpt lat="43.42635" lon="6.05268">
        <ele>283.20001220703</ele>
        <time>2016-04-20T12:42:05Z</time>
      </trkpt>
      <trkpt lat="43.42635" lon="6.05268">
        <ele>283.20001220703</ele>
        <time>2016-04-20T12:42:07Z</time>
      </trkpt>
      <trkpt lat="43.42635" lon="6.05268">
        <ele>283.20001220703</ele>
        <time>2016-04-20T12:42:09Z</time>
      </trkpt>
      <trkpt lat="43.42635" lon="6.05268">
        <ele>283</ele>
        <time>2016-04-20T12:42:11Z</time>
      </trkpt>
      <trkpt lat="43.42635" lon="6.05268">
        <ele>283</ele>
        <time>2016-04-20T12:42:13Z</time>
      </trkpt>
      <trkpt lat="43.42635" lon="6.05268">
        <ele>283.20001220703</ele>
        <time>2016-04-20T12:42:15Z</time>
      </trkpt>
      <trkpt lat="43.42635" lon="6.05268">
        <ele>283.20001220703</ele>
        <time>2016-04-20T12:42:17Z</time>
      </trkpt>
      <trkpt lat="43.42635" lon="6.05268">
        <ele>283.20001220703</ele>
        <time>2016-04-20T12:42:19Z</time>
      </trkpt>
      <trkpt lat="43.42635" lon="6.05268">
        <ele>283.20001220703</ele>
        <time>2016-04-20T12:42:21Z</time>
      </trkpt>
      <trkpt lat="43.42635" lon="6.05268">
        <ele>283.20001220703</ele>
        <time>2016-04-20T12:42:23Z</time>
      </trkpt>
      <trkpt lat="43.42635" lon="6.05268">
        <ele>283.20001220703</ele>
        <time>2016-04-20T12:42:25Z</time>
      </trkpt>
      <trkpt lat="43.42635" lon="6.05268">
        <ele>283.20001220703</ele>
        <time>2016-04-20T12:42:27Z</time>
      </trkpt>
      <trkpt lat="43.42635" lon="6.05268">
        <ele>283.20001220703</ele>
        <time>2016-04-20T12:42:29Z</time>
      </trkpt>
      <trkpt lat="43.42635" lon="6.05268">
        <ele>283.20001220703</ele>
        <time>2016-04-20T12:42:31Z</time>
      </trkpt>
      <trkpt lat="43.42635" lon="6.05268">
        <ele>283</ele>
        <time>2016-04-20T12:42:33Z</time>
      </trkpt>
      <trkpt lat="43.42635" lon="6.05268">
        <ele>283</ele>
        <time>2016-04-20T12:42:35Z</time>
      </trkpt>
      <trkpt lat="43.42635" lon="6.05268">
        <ele>283</ele>
        <time>2016-04-20T12:42:37Z</time>
      </trkpt>
      <trkpt lat="43.42635" lon="6.05268">
        <ele>283</ele>
        <time>2016-04-20T12:42:39Z</time>
      </trkpt>
      <trkpt lat="43.42635" lon="6.05268">
        <ele>283</ele>
        <time>2016-04-20T12:42:41Z</time>
      </trkpt>
      <trkpt lat="43.42635" lon="6.05268">
        <ele>283</ele>
        <time>2016-04-20T12:42:43Z</time>
      </trkpt>
      <trkpt lat="43.42635" lon="6.05268">
        <ele>283</ele>
        <time>2016-04-20T12:42:45Z</time>
      </trkpt>
      <trkpt lat="43.42635" lon="6.05268">
        <ele>283</ele>
        <time>2016-04-20T12:42:47Z</time>
      </trkpt>
      <trkpt lat="43.42635" lon="6.05268">
        <ele>283</ele>
        <time>2016-04-20T12:42:49Z</time>
      </trkpt>
      <trkpt lat="43.42635" lon="6.05268">
        <ele>283</ele>
        <time>2016-04-20T12:42:51Z</time>
      </trkpt>
      <trkpt lat="43.42635" lon="6.05268">
        <ele>283</ele>
        <time>2016-04-20T12:42:53Z</time>
      </trkpt>
      <trkpt lat="43.42635" lon="6.05268">
        <ele>282.79998779297</ele>
        <time>2016-04-20T12:42:55Z</time>
      </trkpt>
      <trkpt lat="43.42635" lon="6.05268">
        <ele>282.79998779297</ele>
        <time>2016-04-20T12:42:57Z</time>
      </trkpt>
      <trkpt lat="43.42635" lon="6.05268">
        <ele>283</ele>
        <time>2016-04-20T12:42:59Z</time>
      </trkpt>
      <trkpt lat="43.42635" lon="6.05268">
        <ele>283</ele>
        <time>2016-04-20T12:43:01Z</time>
      </trkpt>
      <trkpt lat="43.42635" lon="6.05268">
        <ele>283</ele>
        <time>2016-04-20T12:43:03Z</time>
      </trkpt>
      <trkpt lat="43.42635" lon="6.05268">
        <ele>283</ele>
        <time>2016-04-20T12:43:05Z</time>
      </trkpt>
      <trkpt lat="43.42635" lon="6.05268">
        <ele>283</ele>
        <time>2016-04-20T12:43:07Z</time>
      </trkpt>
      <trkpt lat="43.42635" lon="6.05268">
        <ele>283</ele>
        <time>2016-04-20T12:43:09Z</time>
      </trkpt>
      <trkpt lat="43.42635" lon="6.05268">
        <ele>283.20001220703</ele>
        <time>2016-04-20T12:43:11Z</time>
      </trkpt>
      <trkpt lat="43.42635" lon="6.05268">
        <ele>283.20001220703</ele>
        <time>2016-04-20T12:43:13Z</time>
      </trkpt>
      <trkpt lat="43.42635" lon="6.05268">
        <ele>283.20001220703</ele>
        <time>2016-04-20T12:43:15Z</time>
      </trkpt>
      <trkpt lat="43.42635" lon="6.05268">
        <ele>283.39999389648</ele>
        <time>2016-04-20T12:43:16Z</time>
      </trkpt>
      <trkpt lat="43.42636" lon="6.0527">
        <ele>283.39999389648</ele>
        <time>2016-04-20T12:43:17Z</time>
      </trkpt>
      <trkpt lat="43.42637" lon="6.05274">
        <ele>283.39999389648</ele>
        <time>2016-04-20T12:43:19Z</time>
      </trkpt>
      <trkpt lat="43.4264" lon="6.05278">
        <ele>283.60000610352</ele>
        <time>2016-04-20T12:43:21Z</time>
      </trkpt>
      <trkpt lat="43.42642" lon="6.0528">
        <ele>283.60000610352</ele>
        <time>2016-04-20T12:43:22Z</time>
      </trkpt>
      <trkpt lat="43.42645" lon="6.05282">
        <ele>283.79998779297</ele>
        <time>2016-04-20T12:43:23Z</time>
      </trkpt>
      <trkpt lat="43.42647" lon="6.05283">
        <ele>283.79998779297</ele>
        <time>2016-04-20T12:43:24Z</time>
      </trkpt>
      <trkpt lat="43.42649" lon="6.05285">
        <ele>284</ele>
        <time>2016-04-20T12:43:25Z</time>
      </trkpt>
      <trkpt lat="43.42653" lon="6.0529">
        <ele>284.20001220703</ele>
        <time>2016-04-20T12:43:27Z</time>
      </trkpt>
      <trkpt lat="43.42655" lon="6.05295">
        <ele>284.39999389648</ele>
        <time>2016-04-20T12:43:29Z</time>
      </trkpt>
      <trkpt lat="43.42657" lon="6.05301">
        <ele>284.79998779297</ele>
        <time>2016-04-20T12:43:31Z</time>
      </trkpt>
      <trkpt lat="43.4266" lon="6.05306">
        <ele>285.20001220703</ele>
        <time>2016-04-20T12:43:33Z</time>
      </trkpt>
      <trkpt lat="43.42662" lon="6.05309">
        <ele>285.39999389648</ele>
        <time>2016-04-20T12:43:34Z</time>
      </trkpt>
      <trkpt lat="43.42663" lon="6.05312">
        <ele>285.60000610352</ele>
        <time>2016-04-20T12:43:35Z</time>
      </trkpt>
      <trkpt lat="43.42664" lon="6.05313">
        <ele>285.79998779297</ele>
        <time>2016-04-20T12:43:36Z</time>
      </trkpt>
      <trkpt lat="43.42664" lon="6.05314">
        <ele>285.79998779297</ele>
        <time>2016-04-20T12:43:37Z</time>
      </trkpt>
      <trkpt lat="43.42666" lon="6.05315">
        <ele>286</ele>
        <time>2016-04-20T12:43:39Z</time>
      </trkpt>
      <trkpt lat="43.42666" lon="6.05315">
        <ele>286</ele>
        <time>2016-04-20T12:43:41Z</time>
      </trkpt>
      <trkpt lat="43.42666" lon="6.05315">
        <ele>286</ele>
        <time>2016-04-20T12:43:43Z</time>
      </trkpt>
      <trkpt lat="43.42666" lon="6.05316">
        <ele>286.20001220703</ele>
        <time>2016-04-20T12:43:45Z</time>
      </trkpt>
      <trkpt lat="43.42666" lon="6.05316">
        <ele>286.39999389648</ele>
        <time>2016-04-20T12:43:47Z</time>
      </trkpt>
      <trkpt lat="43.42666" lon="6.05317">
        <ele>286.20001220703</ele>
        <time>2016-04-20T12:43:49Z</time>
      </trkpt>
      <trkpt lat="43.42667" lon="6.05318">
        <ele>286.20001220703</ele>
        <time>2016-04-20T12:43:51Z</time>
      </trkpt>
      <trkpt lat="43.42667" lon="6.0532">
        <ele>286.20001220703</ele>
        <time>2016-04-20T12:43:53Z</time>
      </trkpt>
      <trkpt lat="43.42668" lon="6.05323">
        <ele>286.20001220703</ele>
        <time>2016-04-20T12:43:55Z</time>
      </trkpt>
      <trkpt lat="43.42671" lon="6.05326">
        <ele>286.20001220703</ele>
        <time>2016-04-20T12:43:57Z</time>
      </trkpt>
      <trkpt lat="43.42674" lon="6.0533">
        <ele>286.60000610352</ele>
        <time>2016-04-20T12:43:59Z</time>
      </trkpt>
      <trkpt lat="43.42677" lon="6.05332">
        <ele>287</ele>
        <time>2016-04-20T12:44:01Z</time>
      </trkpt>
      <trkpt lat="43.42679" lon="6.05336">
        <ele>287.20001220703</ele>
        <time>2016-04-20T12:44:03Z</time>
      </trkpt>
      <trkpt lat="43.42683" lon="6.05339">
        <ele>287.79998779297</ele>
        <time>2016-04-20T12:44:05Z</time>
      </trkpt>
      <trkpt lat="43.42687" lon="6.05341">
        <ele>288</ele>
        <time>2016-04-20T12:44:07Z</time>
      </trkpt>
      <trkpt lat="43.42691" lon="6.05342">
        <ele>288.20001220703</ele>
        <time>2016-04-20T12:44:09Z</time>
      </trkpt>
      <trkpt lat="43.42696" lon="6.05343">
        <ele>288.39999389648</ele>
        <time>2016-04-20T12:44:11Z</time>
      </trkpt>
      <trkpt lat="43.427" lon="6.05342">
        <ele>288.79998779297</ele>
        <time>2016-04-20T12:44:13Z</time>
      </trkpt>
      <trkpt lat="43.42702" lon="6.05342">
        <ele>289</ele>
        <time>2016-04-20T12:44:14Z</time>
      </trkpt>
      <trkpt lat="43.42704" lon="6.05341">
        <ele>289.20001220703</ele>
        <time>2016-04-20T12:44:15Z</time>
      </trkpt>
      <trkpt lat="43.42709" lon="6.0534">
        <ele>289</ele>
        <time>2016-04-20T12:44:17Z</time>
      </trkpt>
      <trkpt lat="43.42713" lon="6.0534">
        <ele>289</ele>
        <time>2016-04-20T12:44:19Z</time>
      </trkpt>
      <trkpt lat="43.42714" lon="6.05341">
        <ele>289</ele>
        <time>2016-04-20T12:44:20Z</time>
      </trkpt>
      <trkpt lat="43.42715" lon="6.05341">
        <ele>289</ele>
        <time>2016-04-20T12:44:21Z</time>
      </trkpt>
      <trkpt lat="43.42718" lon="6.05344">
        <ele>289.39999389648</ele>
        <time>2016-04-20T12:44:23Z</time>
      </trkpt>
      <trkpt lat="43.4272" lon="6.05345">
        <ele>289.60000610352</ele>
        <time>2016-04-20T12:44:24Z</time>
      </trkpt>
      <trkpt lat="43.4272" lon="6.05346">
        <ele>290</ele>
        <time>2016-04-20T12:44:25Z</time>
      </trkpt>
      <trkpt lat="43.42721" lon="6.0535">
        <ele>290.60000610352</ele>
        <time>2016-04-20T12:44:27Z</time>
      </trkpt>
      <trkpt lat="43.4272" lon="6.05354">
        <ele>291</ele>
        <time>2016-04-20T12:44:29Z</time>
      </trkpt>
      <trkpt lat="43.42719" lon="6.05359">
        <ele>291</ele>
        <time>2016-04-20T12:44:31Z</time>
      </trkpt>
      <trkpt lat="43.42719" lon="6.05362">
        <ele>291.20001220703</ele>
        <time>2016-04-20T12:44:32Z</time>
      </trkpt>
      <trkpt lat="43.42718" lon="6.05364">
        <ele>291.20001220703</ele>
        <time>2016-04-20T12:44:33Z</time>
      </trkpt>
      <trkpt lat="43.42718" lon="6.0537">
        <ele>291.60000610352</ele>
        <time>2016-04-20T12:44:35Z</time>
      </trkpt>
      <trkpt lat="43.42717" lon="6.05372">
        <ele>291.60000610352</ele>
        <time>2016-04-20T12:44:36Z</time>
      </trkpt>
      <trkpt lat="43.42718" lon="6.05375">
        <ele>291.79998779297</ele>
        <time>2016-04-20T12:44:37Z</time>
      </trkpt>
      <trkpt lat="43.42717" lon="6.0538">
        <ele>292</ele>
        <time>2016-04-20T12:44:39Z</time>
      </trkpt>
      <trkpt lat="43.42718" lon="6.05385">
        <ele>292.39999389648</ele>
        <time>2016-04-20T12:44:41Z</time>
      </trkpt>
      <trkpt lat="43.42719" lon="6.05388">
        <ele>292.39999389648</ele>
        <time>2016-04-20T12:44:42Z</time>
      </trkpt>
      <trkpt lat="43.4272" lon="6.0539">
        <ele>292.60000610352</ele>
        <time>2016-04-20T12:44:43Z</time>
      </trkpt>
      <trkpt lat="43.42721" lon="6.05393">
        <ele>292.60000610352</ele>
        <time>2016-04-20T12:44:45Z</time>
      </trkpt>
      <trkpt lat="43.42722" lon="6.05397">
        <ele>293</ele>
        <time>2016-04-20T12:44:47Z</time>
      </trkpt>
      <trkpt lat="43.42722" lon="6.05399">
        <ele>293</ele>
        <time>2016-04-20T12:44:48Z</time>
      </trkpt>
      <trkpt lat="43.42723" lon="6.054">
        <ele>293.20001220703</ele>
        <time>2016-04-20T12:44:49Z</time>
      </trkpt>
      <trkpt lat="43.42724" lon="6.05404">
        <ele>293.39999389648</ele>
        <time>2016-04-20T12:44:51Z</time>
      </trkpt>
      <trkpt lat="43.42725" lon="6.05406">
        <ele>294.20001220703</ele>
        <time>2016-04-20T12:44:53Z</time>
      </trkpt>
      <trkpt lat="43.42725" lon="6.05406">
        <ele>294.39999389648</ele>
        <time>2016-04-20T12:44:54Z</time>
      </trkpt>
      <trkpt lat="43.42725" lon="6.05406">
        <ele>294.60000610352</ele>
        <time>2016-04-20T12:44:55Z</time>
      </trkpt>
      <trkpt lat="43.42725" lon="6.05406">
        <ele>295</ele>
        <time>2016-04-20T12:44:57Z</time>
      </trkpt>
      <trkpt lat="43.42725" lon="6.05406">
        <ele>295</ele>
        <time>2016-04-20T12:44:59Z</time>
      </trkpt>
      <trkpt lat="43.42725" lon="6.05406">
        <ele>294.79998779297</ele>
        <time>2016-04-20T12:45:01Z</time>
      </trkpt>
      <trkpt lat="43.42725" lon="6.05406">
        <ele>294.79998779297</ele>
        <time>2016-04-20T12:45:03Z</time>
      </trkpt>
      <trkpt lat="43.42725" lon="6.05407">
        <ele>294.79998779297</ele>
        <time>2016-04-20T12:45:05Z</time>
      </trkpt>
      <trkpt lat="43.42725" lon="6.05407">
        <ele>294.79998779297</ele>
        <time>2016-04-20T12:45:06Z</time>
      </trkpt>
      <trkpt lat="43.42725" lon="6.05408">
        <ele>294.79998779297</ele>
        <time>2016-04-20T12:45:07Z</time>
      </trkpt>
      <trkpt lat="43.42725" lon="6.05409">
        <ele>294.79998779297</ele>
        <time>2016-04-20T12:45:09Z</time>
      </trkpt>
      <trkpt lat="43.42726" lon="6.05411">
        <ele>295</ele>
        <time>2016-04-20T12:45:11Z</time>
      </trkpt>
      <trkpt lat="43.42727" lon="6.05412">
        <ele>295.20001220703</ele>
        <time>2016-04-20T12:45:13Z</time>
      </trkpt>
      <trkpt lat="43.42727" lon="6.05413">
        <ele>295.20001220703</ele>
        <time>2016-04-20T12:45:14Z</time>
      </trkpt>
      <trkpt lat="43.42728" lon="6.05413">
        <ele>295.20001220703</ele>
        <time>2016-04-20T12:45:15Z</time>
      </trkpt>
      <trkpt lat="43.42727" lon="6.05413">
        <ele>295.20001220703</ele>
        <time>2016-04-20T12:45:17Z</time>
      </trkpt>
      <trkpt lat="43.42727" lon="6.05414">
        <ele>295.20001220703</ele>
        <time>2016-04-20T12:45:19Z</time>
      </trkpt>
      <trkpt lat="43.42727" lon="6.05414">
        <ele>295.20001220703</ele>
        <time>2016-04-20T12:45:21Z</time>
      </trkpt>
      <trkpt lat="43.42728" lon="6.05417">
        <ele>295.20001220703</ele>
        <time>2016-04-20T12:45:23Z</time>
      </trkpt>
      <trkpt lat="43.42729" lon="6.0542">
        <ele>295.20001220703</ele>
        <time>2016-04-20T12:45:25Z</time>
      </trkpt>
      <trkpt lat="43.4273" lon="6.05425">
        <ele>295.60000610352</ele>
        <time>2016-04-20T12:45:27Z</time>
      </trkpt>
      <trkpt lat="43.42731" lon="6.0543">
        <ele>295.79998779297</ele>
        <time>2016-04-20T12:45:29Z</time>
      </trkpt>
      <trkpt lat="43.42732" lon="6.05436">
        <ele>296</ele>
        <time>2016-04-20T12:45:31Z</time>
      </trkpt>
      <trkpt lat="43.42733" lon="6.05441">
        <ele>296.20001220703</ele>
        <time>2016-04-20T12:45:33Z</time>
      </trkpt>
      <trkpt lat="43.42733" lon="6.05447">
        <ele>296.20001220703</ele>
        <time>2016-04-20T12:45:35Z</time>
      </trkpt>
      <trkpt lat="43.42732" lon="6.05451">
        <ele>296.20001220703</ele>
        <time>2016-04-20T12:45:37Z</time>
      </trkpt>
      <trkpt lat="43.4273" lon="6.05454">
        <ele>296.60000610352</ele>
        <time>2016-04-20T12:45:39Z</time>
      </trkpt>
      <trkpt lat="43.42728" lon="6.0546">
        <ele>297</ele>
        <time>2016-04-20T12:45:41Z</time>
      </trkpt>
      <trkpt lat="43.42727" lon="6.05463">
        <ele>297.20001220703</ele>
        <time>2016-04-20T12:45:42Z</time>
      </trkpt>
      <trkpt lat="43.42726" lon="6.05467">
        <ele>297.20001220703</ele>
        <time>2016-04-20T12:45:43Z</time>
      </trkpt>
      <trkpt lat="43.42726" lon="6.05473">
        <ele>297.60000610352</ele>
        <time>2016-04-20T12:45:45Z</time>
      </trkpt>
      <trkpt lat="43.42727" lon="6.0548">
        <ele>297.79998779297</ele>
        <time>2016-04-20T12:45:47Z</time>
      </trkpt>
      <trkpt lat="43.42727" lon="6.05483">
        <ele>297.79998779297</ele>
        <time>2016-04-20T12:45:48Z</time>
      </trkpt>
      <trkpt lat="43.42727" lon="6.05486">
        <ele>298</ele>
        <time>2016-04-20T12:45:49Z</time>
      </trkpt>
      <trkpt lat="43.42728" lon="6.05492">
        <ele>298</ele>
        <time>2016-04-20T12:45:51Z</time>
      </trkpt>
      <trkpt lat="43.42728" lon="6.05499">
        <ele>298.20001220703</ele>
        <time>2016-04-20T12:45:53Z</time>
      </trkpt>
      <trkpt lat="43.42729" lon="6.05505">
        <ele>298.60000610352</ele>
        <time>2016-04-20T12:45:55Z</time>
      </trkpt>
      <trkpt lat="43.4273" lon="6.0551">
        <ele>299</ele>
        <time>2016-04-20T12:45:57Z</time>
      </trkpt>
      <trkpt lat="43.4273" lon="6.05516">
        <ele>299.20001220703</ele>
        <time>2016-04-20T12:45:59Z</time>
      </trkpt>
      <trkpt lat="43.4273" lon="6.05522">
        <ele>299.60000610352</ele>
        <time>2016-04-20T12:46:01Z</time>
      </trkpt>
      <trkpt lat="43.42731" lon="6.05527">
        <ele>299.79998779297</ele>
        <time>2016-04-20T12:46:03Z</time>
      </trkpt>
      <trkpt lat="43.42731" lon="6.05533">
        <ele>300</ele>
        <time>2016-04-20T12:46:05Z</time>
      </trkpt>
      <trkpt lat="43.42732" lon="6.05536">
        <ele>300.20001220703</ele>
        <time>2016-04-20T12:46:06Z</time>
      </trkpt>
      <trkpt lat="43.42733" lon="6.05538">
        <ele>300.20001220703</ele>
        <time>2016-04-20T12:46:07Z</time>
      </trkpt>
      <trkpt lat="43.42735" lon="6.05543">
        <ele>300.60000610352</ele>
        <time>2016-04-20T12:46:09Z</time>
      </trkpt>
      <trkpt lat="43.42736" lon="6.05546">
        <ele>300.79998779297</ele>
        <time>2016-04-20T12:46:10Z</time>
      </trkpt>
      <trkpt lat="43.42736" lon="6.05549">
        <ele>301</ele>
        <time>2016-04-20T12:46:11Z</time>
      </trkpt>
      <trkpt lat="43.42738" lon="6.05554">
        <ele>301.39999389648</ele>
        <time>2016-04-20T12:46:13Z</time>
      </trkpt>
      <trkpt lat="43.42738" lon="6.05559">
        <ele>302</ele>
        <time>2016-04-20T12:46:15Z</time>
      </trkpt>
      <trkpt lat="43.4274" lon="6.05564">
        <ele>302.39999389648</ele>
        <time>2016-04-20T12:46:17Z</time>
      </trkpt>
      <trkpt lat="43.42741" lon="6.05567">
        <ele>302.60000610352</ele>
        <time>2016-04-20T12:46:18Z</time>
      </trkpt>
      <trkpt lat="43.42743" lon="6.05568">
        <ele>302.79998779297</ele>
        <time>2016-04-20T12:46:19Z</time>
      </trkpt>
      <trkpt lat="43.42746" lon="6.05571">
        <ele>303.20001220703</ele>
        <time>2016-04-20T12:46:21Z</time>
      </trkpt>
      <trkpt lat="43.42747" lon="6.05574">
        <ele>303.39999389648</ele>
        <time>2016-04-20T12:46:23Z</time>
      </trkpt>
      <trkpt lat="43.42749" lon="6.05575">
        <ele>303.60000610352</ele>
        <time>2016-04-20T12:46:24Z</time>
      </trkpt>
      <trkpt lat="43.4275" lon="6.05577">
        <ele>303.60000610352</ele>
        <time>2016-04-20T12:46:25Z</time>
      </trkpt>
      <trkpt lat="43.42751" lon="6.05578">
        <ele>303.79998779297</ele>
        <time>2016-04-20T12:46:26Z</time>
      </trkpt>
      <trkpt lat="43.42752" lon="6.0558">
        <ele>304</ele>
        <time>2016-04-20T12:46:27Z</time>
      </trkpt>
      <trkpt lat="43.42754" lon="6.05583">
        <ele>304.20001220703</ele>
        <time>2016-04-20T12:46:29Z</time>
      </trkpt>
      <trkpt lat="43.42755" lon="6.05588">
        <ele>304.79998779297</ele>
        <time>2016-04-20T12:46:31Z</time>
      </trkpt>
      <trkpt lat="43.42755" lon="6.05589">
        <ele>305</ele>
        <time>2016-04-20T12:46:32Z</time>
      </trkpt>
      <trkpt lat="43.42756" lon="6.05592">
        <ele>305.20001220703</ele>
        <time>2016-04-20T12:46:33Z</time>
      </trkpt>
      <trkpt lat="43.42756" lon="6.05596">
        <ele>305.60000610352</ele>
        <time>2016-04-20T12:46:35Z</time>
      </trkpt>
      <trkpt lat="43.42756" lon="6.056">
        <ele>305.79998779297</ele>
        <time>2016-04-20T12:46:37Z</time>
      </trkpt>
      <trkpt lat="43.42756" lon="6.05602">
        <ele>305.79998779297</ele>
        <time>2016-04-20T12:46:38Z</time>
      </trkpt>
      <trkpt lat="43.42756" lon="6.05603">
        <ele>306.20001220703</ele>
        <time>2016-04-20T12:46:39Z</time>
      </trkpt>
      <trkpt lat="43.42755" lon="6.05605">
        <ele>306.60000610352</ele>
        <time>2016-04-20T12:46:41Z</time>
      </trkpt>
      <trkpt lat="43.42755" lon="6.05606">
        <ele>306.60000610352</ele>
        <time>2016-04-20T12:46:42Z</time>
      </trkpt>
      <trkpt lat="43.42754" lon="6.05608">
        <ele>306.79998779297</ele>
        <time>2016-04-20T12:46:43Z</time>
      </trkpt>
      <trkpt lat="43.42754" lon="6.0561">
        <ele>306.79998779297</ele>
        <time>2016-04-20T12:46:44Z</time>
      </trkpt>
      <trkpt lat="43.42754" lon="6.05612">
        <ele>307.20001220703</ele>
        <time>2016-04-20T12:46:45Z</time>
      </trkpt>
      <trkpt lat="43.42753" lon="6.05614">
        <ele>307.39999389648</ele>
        <time>2016-04-20T12:46:46Z</time>
      </trkpt>
      <trkpt lat="43.42752" lon="6.05615">
        <ele>307.60000610352</ele>
        <time>2016-04-20T12:46:47Z</time>
      </trkpt>
      <trkpt lat="43.42751" lon="6.05618">
        <ele>307.79998779297</ele>
        <time>2016-04-20T12:46:49Z</time>
      </trkpt>
      <trkpt lat="43.4275" lon="6.0562">
        <ele>308</ele>
        <time>2016-04-20T12:46:50Z</time>
      </trkpt>
      <trkpt lat="43.42749" lon="6.05622">
        <ele>308</ele>
        <time>2016-04-20T12:46:51Z</time>
      </trkpt>
      <trkpt lat="43.42748" lon="6.05625">
        <ele>308.39999389648</ele>
        <time>2016-04-20T12:46:53Z</time>
      </trkpt>
      <trkpt lat="43.42746" lon="6.05628">
        <ele>308.60000610352</ele>
        <time>2016-04-20T12:46:55Z</time>
      </trkpt>
      <trkpt lat="43.42743" lon="6.05631">
        <ele>308.79998779297</ele>
        <time>2016-04-20T12:46:57Z</time>
      </trkpt>
      <trkpt lat="43.42741" lon="6.05635">
        <ele>309</ele>
        <time>2016-04-20T12:46:59Z</time>
      </trkpt>
      <trkpt lat="43.42738" lon="6.05638">
        <ele>309.20001220703</ele>
        <time>2016-04-20T12:47:01Z</time>
      </trkpt>
      <trkpt lat="43.42735" lon="6.05643">
        <ele>309.39999389648</ele>
        <time>2016-04-20T12:47:03Z</time>
      </trkpt>
      <trkpt lat="43.42731" lon="6.05647">
        <ele>309.60000610352</ele>
        <time>2016-04-20T12:47:05Z</time>
      </trkpt>
      <trkpt lat="43.4273" lon="6.05651">
        <ele>310</ele>
        <time>2016-04-20T12:47:07Z</time>
      </trkpt>
      <trkpt lat="43.42729" lon="6.05653">
        <ele>310.20001220703</ele>
        <time>2016-04-20T12:47:08Z</time>
      </trkpt>
      <trkpt lat="43.42728" lon="6.05655">
        <ele>310.20001220703</ele>
        <time>2016-04-20T12:47:09Z</time>
      </trkpt>
      <trkpt lat="43.42727" lon="6.0566">
        <ele>310.20001220703</ele>
        <time>2016-04-20T12:47:11Z</time>
      </trkpt>
      <trkpt lat="43.42727" lon="6.05662">
        <ele>310.20001220703</ele>
        <time>2016-04-20T12:47:12Z</time>
      </trkpt>
      <trkpt lat="43.42726" lon="6.05664">
        <ele>310.20001220703</ele>
        <time>2016-04-20T12:47:13Z</time>
      </trkpt>
      <trkpt lat="43.42723" lon="6.05667">
        <ele>310.39999389648</ele>
        <time>2016-04-20T12:47:15Z</time>
      </trkpt>
      <trkpt lat="43.42722" lon="6.05671">
        <ele>310.79998779297</ele>
        <time>2016-04-20T12:47:17Z</time>
      </trkpt>
      <trkpt lat="43.42721" lon="6.05672">
        <ele>311.20001220703</ele>
        <time>2016-04-20T12:47:18Z</time>
      </trkpt>
      <trkpt lat="43.42719" lon="6.05673">
        <ele>311.60000610352</ele>
        <time>2016-04-20T12:47:19Z</time>
      </trkpt>
      <trkpt lat="43.42718" lon="6.05674">
        <ele>311.60000610352</ele>
        <time>2016-04-20T12:47:20Z</time>
      </trkpt>
      <trkpt lat="43.42716" lon="6.05675">
        <ele>311.79998779297</ele>
        <time>2016-04-20T12:47:21Z</time>
      </trkpt>
      <trkpt lat="43.42713" lon="6.05678">
        <ele>311.79998779297</ele>
        <time>2016-04-20T12:47:23Z</time>
      </trkpt>
      <trkpt lat="43.42711" lon="6.0568">
        <ele>312</ele>
        <time>2016-04-20T12:47:25Z</time>
      </trkpt>
      <trkpt lat="43.4271" lon="6.05681">
        <ele>312.20001220703</ele>
        <time>2016-04-20T12:47:26Z</time>
      </trkpt>
      <trkpt lat="43.4271" lon="6.05683">
        <ele>312.60000610352</ele>
        <time>2016-04-20T12:47:27Z</time>
      </trkpt>
      <trkpt lat="43.4271" lon="6.05684">
        <ele>312.79998779297</ele>
        <time>2016-04-20T12:47:28Z</time>
      </trkpt>
      <trkpt lat="43.42709" lon="6.05686">
        <ele>313</ele>
        <time>2016-04-20T12:47:29Z</time>
      </trkpt>
      <trkpt lat="43.42708" lon="6.05692">
        <ele>313.20001220703</ele>
        <time>2016-04-20T12:47:31Z</time>
      </trkpt>
      <trkpt lat="43.42707" lon="6.05694">
        <ele>313.39999389648</ele>
        <time>2016-04-20T12:47:32Z</time>
      </trkpt>
      <trkpt lat="43.42707" lon="6.05696">
        <ele>313.60000610352</ele>
        <time>2016-04-20T12:47:33Z</time>
      </trkpt>
      <trkpt lat="43.42706" lon="6.05699">
        <ele>314</ele>
        <time>2016-04-20T12:47:35Z</time>
      </trkpt>
      <trkpt lat="43.42705" lon="6.05701">
        <ele>314</ele>
        <time>2016-04-20T12:47:36Z</time>
      </trkpt>
      <trkpt lat="43.42705" lon="6.05703">
        <ele>314.20001220703</ele>
        <time>2016-04-20T12:47:37Z</time>
      </trkpt>
      <trkpt lat="43.42704" lon="6.05707">
        <ele>314.20001220703</ele>
        <time>2016-04-20T12:47:39Z</time>
      </trkpt>
      <trkpt lat="43.42703" lon="6.05709">
        <ele>314.79998779297</ele>
        <time>2016-04-20T12:47:40Z</time>
      </trkpt>
      <trkpt lat="43.42703" lon="6.05712">
        <ele>315</ele>
        <time>2016-04-20T12:47:41Z</time>
      </trkpt>
      <trkpt lat="43.42703" lon="6.05713">
        <ele>315.39999389648</ele>
        <time>2016-04-20T12:47:42Z</time>
      </trkpt>
      <trkpt lat="43.42702" lon="6.05715">
        <ele>315.60000610352</ele>
        <time>2016-04-20T12:47:43Z</time>
      </trkpt>
      <trkpt lat="43.42702" lon="6.05716">
        <ele>315.79998779297</ele>
        <time>2016-04-20T12:47:44Z</time>
      </trkpt>
      <trkpt lat="43.42701" lon="6.05718">
        <ele>316.20001220703</ele>
        <time>2016-04-20T12:47:45Z</time>
      </trkpt>
      <trkpt lat="43.427" lon="6.05722">
        <ele>316.39999389648</ele>
        <time>2016-04-20T12:47:47Z</time>
      </trkpt>
      <trkpt lat="43.42699" lon="6.05724">
        <ele>316.60000610352</ele>
        <time>2016-04-20T12:47:48Z</time>
      </trkpt>
      <trkpt lat="43.42699" lon="6.05726">
        <ele>316.60000610352</ele>
        <time>2016-04-20T12:47:49Z</time>
      </trkpt>
      <trkpt lat="43.42701" lon="6.0573">
        <ele>316.79998779297</ele>
        <time>2016-04-20T12:47:51Z</time>
      </trkpt>
      <trkpt lat="43.42701" lon="6.05732">
        <ele>316.79998779297</ele>
        <time>2016-04-20T12:47:52Z</time>
      </trkpt>
      <trkpt lat="43.42702" lon="6.05733">
        <ele>317</ele>
        <time>2016-04-20T12:47:53Z</time>
      </trkpt>
      <trkpt lat="43.42705" lon="6.05735">
        <ele>317.20001220703</ele>
        <time>2016-04-20T12:47:55Z</time>
      </trkpt>
      <trkpt lat="43.42708" lon="6.05736">
        <ele>317.60000610352</ele>
        <time>2016-04-20T12:47:57Z</time>
      </trkpt>
      <trkpt lat="43.4271" lon="6.05736">
        <ele>317.79998779297</ele>
        <time>2016-04-20T12:47:58Z</time>
      </trkpt>
      <trkpt lat="43.42712" lon="6.05736">
        <ele>318</ele>
        <time>2016-04-20T12:47:59Z</time>
      </trkpt>
      <trkpt lat="43.42713" lon="6.05736">
        <ele>318.20001220703</ele>
        <time>2016-04-20T12:48:00Z</time>
      </trkpt>
      <trkpt lat="43.42715" lon="6.05736">
        <ele>318.39999389648</ele>
        <time>2016-04-20T12:48:01Z</time>
      </trkpt>
      <trkpt lat="43.42719" lon="6.05737">
        <ele>318.39999389648</ele>
        <time>2016-04-20T12:48:03Z</time>
      </trkpt>
      <trkpt lat="43.42722" lon="6.05738">
        <ele>318.60000610352</ele>
        <time>2016-04-20T12:48:05Z</time>
      </trkpt>
      <trkpt lat="43.42724" lon="6.05738">
        <ele>318.39999389648</ele>
        <time>2016-04-20T12:48:06Z</time>
      </trkpt>
      <trkpt lat="43.42726" lon="6.05739">
        <ele>318.39999389648</ele>
        <time>2016-04-20T12:48:07Z</time>
      </trkpt>
      <trkpt lat="43.42729" lon="6.0574">
        <ele>318.39999389648</ele>
        <time>2016-04-20T12:48:09Z</time>
      </trkpt>
      <trkpt lat="43.42733" lon="6.05741">
        <ele>318.60000610352</ele>
        <time>2016-04-20T12:48:11Z</time>
      </trkpt>
      <trkpt lat="43.42736" lon="6.05742">
        <ele>318.79998779297</ele>
        <time>2016-04-20T12:48:13Z</time>
      </trkpt>
      <trkpt lat="43.42738" lon="6.05742">
        <ele>318.79998779297</ele>
        <time>2016-04-20T12:48:14Z</time>
      </trkpt>
      <trkpt lat="43.4274" lon="6.05743">
        <ele>319</ele>
        <time>2016-04-20T12:48:15Z</time>
      </trkpt>
      <trkpt lat="43.42743" lon="6.05743">
        <ele>319</ele>
        <time>2016-04-20T12:48:17Z</time>
      </trkpt>
      <trkpt lat="43.42747" lon="6.05744">
        <ele>319</ele>
        <time>2016-04-20T12:48:19Z</time>
      </trkpt>
      <trkpt lat="43.4275" lon="6.05745">
        <ele>319.20001220703</ele>
        <time>2016-04-20T12:48:21Z</time>
      </trkpt>
      <trkpt lat="43.42752" lon="6.05744">
        <ele>319.39999389648</ele>
        <time>2016-04-20T12:48:22Z</time>
      </trkpt>
      <trkpt lat="43.42754" lon="6.05743">
        <ele>319.39999389648</ele>
        <time>2016-04-20T12:48:23Z</time>
      </trkpt>
      <trkpt lat="43.42757" lon="6.05739">
        <ele>319.39999389648</ele>
        <time>2016-04-20T12:48:25Z</time>
      </trkpt>
      <trkpt lat="43.42758" lon="6.05737">
        <ele>319.39999389648</ele>
        <time>2016-04-20T12:48:26Z</time>
      </trkpt>
      <trkpt lat="43.4276" lon="6.05735">
        <ele>319.60000610352</ele>
        <time>2016-04-20T12:48:27Z</time>
      </trkpt>
      <trkpt lat="43.42765" lon="6.05733">
        <ele>319.60000610352</ele>
        <time>2016-04-20T12:48:29Z</time>
      </trkpt>
      <trkpt lat="43.42767" lon="6.05732">
        <ele>319.60000610352</ele>
        <time>2016-04-20T12:48:30Z</time>
      </trkpt>
      <trkpt lat="43.42769" lon="6.05732">
        <ele>319.60000610352</ele>
        <time>2016-04-20T12:48:31Z</time>
      </trkpt>
      <trkpt lat="43.42773" lon="6.05733">
        <ele>319.79998779297</ele>
        <time>2016-04-20T12:48:33Z</time>
      </trkpt>
      <trkpt lat="43.42776" lon="6.05735">
        <ele>319.79998779297</ele>
        <time>2016-04-20T12:48:35Z</time>
      </trkpt>
      <trkpt lat="43.42779" lon="6.05738">
        <ele>320</ele>
        <time>2016-04-20T12:48:37Z</time>
      </trkpt>
      <trkpt lat="43.42781" lon="6.05738">
        <ele>320.20001220703</ele>
        <time>2016-04-20T12:48:38Z</time>
      </trkpt>
      <trkpt lat="43.42783" lon="6.05739">
        <ele>320.39999389648</ele>
        <time>2016-04-20T12:48:39Z</time>
      </trkpt>
      <trkpt lat="43.42785" lon="6.05739">
        <ele>320.39999389648</ele>
        <time>2016-04-20T12:48:40Z</time>
      </trkpt>
      <trkpt lat="43.42786" lon="6.05739">
        <ele>320.39999389648</ele>
        <time>2016-04-20T12:48:41Z</time>
      </trkpt>
      <trkpt lat="43.42788" lon="6.0574">
        <ele>320.60000610352</ele>
        <time>2016-04-20T12:48:43Z</time>
      </trkpt>
      <trkpt lat="43.42788" lon="6.05742">
        <ele>320.60000610352</ele>
        <time>2016-04-20T12:48:44Z</time>
      </trkpt>
      <trkpt lat="43.42788" lon="6.05743">
        <ele>320.60000610352</ele>
        <time>2016-04-20T12:48:45Z</time>
      </trkpt>
      <trkpt lat="43.42791" lon="6.05745">
        <ele>320.79998779297</ele>
        <time>2016-04-20T12:48:47Z</time>
      </trkpt>
      <trkpt lat="43.42794" lon="6.05747">
        <ele>321.20001220703</ele>
        <time>2016-04-20T12:48:49Z</time>
      </trkpt>
      <trkpt lat="43.42796" lon="6.05747">
        <ele>321.39999389648</ele>
        <time>2016-04-20T12:48:50Z</time>
      </trkpt>
      <trkpt lat="43.42798" lon="6.05746">
        <ele>321.39999389648</ele>
        <time>2016-04-20T12:48:51Z</time>
      </trkpt>
      <trkpt lat="43.42802" lon="6.05745">
        <ele>321.39999389648</ele>
        <time>2016-04-20T12:48:53Z</time>
      </trkpt>
      <trkpt lat="43.42804" lon="6.05744">
        <ele>321.60000610352</ele>
        <time>2016-04-20T12:48:54Z</time>
      </trkpt>
      <trkpt lat="43.42806" lon="6.05742">
        <ele>321.39999389648</ele>
        <time>2016-04-20T12:48:55Z</time>
      </trkpt>
      <trkpt lat="43.42811" lon="6.05739">
        <ele>321.20001220703</ele>
        <time>2016-04-20T12:48:57Z</time>
      </trkpt>
      <trkpt lat="43.42814" lon="6.05739">
        <ele>321.20001220703</ele>
        <time>2016-04-20T12:48:58Z</time>
      </trkpt>
      <trkpt lat="43.42817" lon="6.05739">
        <ele>321</ele>
        <time>2016-04-20T12:48:59Z</time>
      </trkpt>
      <trkpt lat="43.42822" lon="6.05737">
        <ele>321</ele>
        <time>2016-04-20T12:49:01Z</time>
      </trkpt>
      <trkpt lat="43.42826" lon="6.05735">
        <ele>321</ele>
        <time>2016-04-20T12:49:03Z</time>
      </trkpt>
      <trkpt lat="43.42829" lon="6.05733">
        <ele>321</ele>
        <time>2016-04-20T12:49:05Z</time>
      </trkpt>
      <trkpt lat="43.4283" lon="6.05733">
        <ele>320.79998779297</ele>
        <time>2016-04-20T12:49:07Z</time>
      </trkpt>
      <trkpt lat="43.42831" lon="6.05733">
        <ele>320.79998779297</ele>
        <time>2016-04-20T12:49:09Z</time>
      </trkpt>
      <trkpt lat="43.42831" lon="6.05733">
        <ele>320.60000610352</ele>
        <time>2016-04-20T12:49:11Z</time>
      </trkpt>
      <trkpt lat="43.42831" lon="6.05733">
        <ele>320.39999389648</ele>
        <time>2016-04-20T12:49:13Z</time>
      </trkpt>
      <trkpt lat="43.42831" lon="6.05733">
        <ele>320.39999389648</ele>
        <time>2016-04-20T12:49:15Z</time>
      </trkpt>
      <trkpt lat="43.42831" lon="6.05733">
        <ele>320.39999389648</ele>
        <time>2016-04-20T12:49:17Z</time>
      </trkpt>
      <trkpt lat="43.42831" lon="6.05733">
        <ele>320.60000610352</ele>
        <time>2016-04-20T12:49:19Z</time>
      </trkpt>
      <trkpt lat="43.42831" lon="6.05733">
        <ele>320.60000610352</ele>
        <time>2016-04-20T12:49:21Z</time>
      </trkpt>
      <trkpt lat="43.42831" lon="6.05733">
        <ele>320.79998779297</ele>
        <time>2016-04-20T12:49:23Z</time>
      </trkpt>
      <trkpt lat="43.42831" lon="6.05733">
        <ele>321</ele>
        <time>2016-04-20T12:49:25Z</time>
      </trkpt>
      <trkpt lat="43.42831" lon="6.05733">
        <ele>321.20001220703</ele>
        <time>2016-04-20T12:49:27Z</time>
      </trkpt>
      <trkpt lat="43.42831" lon="6.05733">
        <ele>321.20001220703</ele>
        <time>2016-04-20T12:49:29Z</time>
      </trkpt>
      <trkpt lat="43.42831" lon="6.05733">
        <ele>321.20001220703</ele>
        <time>2016-04-20T12:49:31Z</time>
      </trkpt>
      <trkpt lat="43.42831" lon="6.05733">
        <ele>321.20001220703</ele>
        <time>2016-04-20T12:49:33Z</time>
      </trkpt>
      <trkpt lat="43.42831" lon="6.05733">
        <ele>321.60000610352</ele>
        <time>2016-04-20T12:49:35Z</time>
      </trkpt>
      <trkpt lat="43.42831" lon="6.05733">
        <ele>321.79998779297</ele>
        <time>2016-04-20T12:49:37Z</time>
      </trkpt>
      <trkpt lat="43.42831" lon="6.05733">
        <ele>321.79998779297</ele>
        <time>2016-04-20T12:49:39Z</time>
      </trkpt>
      <trkpt lat="43.42831" lon="6.05733">
        <ele>321.79998779297</ele>
        <time>2016-04-20T12:49:41Z</time>
      </trkpt>
      <trkpt lat="43.42831" lon="6.05733">
        <ele>321.60000610352</ele>
        <time>2016-04-20T12:49:43Z</time>
      </trkpt>
      <trkpt lat="43.42831" lon="6.05732">
        <ele>321.39999389648</ele>
        <time>2016-04-20T12:49:45Z</time>
      </trkpt>
      <trkpt lat="43.42831" lon="6.05732">
        <ele>321.20001220703</ele>
        <time>2016-04-20T12:49:47Z</time>
      </trkpt>
      <trkpt lat="43.42831" lon="6.05732">
        <ele>321</ele>
        <time>2016-04-20T12:49:48Z</time>
      </trkpt>
      <trkpt lat="43.42831" lon="6.05732">
        <ele>321</ele>
        <time>2016-04-20T12:49:49Z</time>
      </trkpt>
      <trkpt lat="43.42831" lon="6.05732">
        <ele>320.79998779297</ele>
        <time>2016-04-20T12:49:51Z</time>
      </trkpt>
      <trkpt lat="43.42831" lon="6.05732">
        <ele>320.60000610352</ele>
        <time>2016-04-20T12:49:53Z</time>
      </trkpt>
      <trkpt lat="43.42831" lon="6.05732">
        <ele>320.60000610352</ele>
        <time>2016-04-20T12:49:55Z</time>
      </trkpt>
      <trkpt lat="43.42831" lon="6.05732">
        <ele>320.60000610352</ele>
        <time>2016-04-20T12:49:57Z</time>
      </trkpt>
      <trkpt lat="43.42831" lon="6.05732">
        <ele>320.60000610352</ele>
        <time>2016-04-20T12:49:59Z</time>
      </trkpt>
      <trkpt lat="43.42831" lon="6.05732">
        <ele>320.79998779297</ele>
        <time>2016-04-20T12:50:01Z</time>
      </trkpt>
      <trkpt lat="43.42831" lon="6.05732">
        <ele>320.79998779297</ele>
        <time>2016-04-20T12:50:03Z</time>
      </trkpt>
      <trkpt lat="43.42831" lon="6.05732">
        <ele>321</ele>
        <time>2016-04-20T12:50:05Z</time>
      </trkpt>
      <trkpt lat="43.42831" lon="6.05732">
        <ele>321</ele>
        <time>2016-04-20T12:50:07Z</time>
      </trkpt>
      <trkpt lat="43.42831" lon="6.05732">
        <ele>321.20001220703</ele>
        <time>2016-04-20T12:50:09Z</time>
      </trkpt>
      <trkpt lat="43.42831" lon="6.05732">
        <ele>321.20001220703</ele>
        <time>2016-04-20T12:50:11Z</time>
      </trkpt>
      <trkpt lat="43.42831" lon="6.05732">
        <ele>321.20001220703</ele>
        <time>2016-04-20T12:50:13Z</time>
      </trkpt>
      <trkpt lat="43.42831" lon="6.05732">
        <ele>321.39999389648</ele>
        <time>2016-04-20T12:50:15Z</time>
      </trkpt>
      <trkpt lat="43.42831" lon="6.05732">
        <ele>321.60000610352</ele>
        <time>2016-04-20T12:50:16Z</time>
      </trkpt>
      <trkpt lat="43.42831" lon="6.05732">
        <ele>321.60000610352</ele>
        <time>2016-04-20T12:50:17Z</time>
      </trkpt>
      <trkpt lat="43.42831" lon="6.05732">
        <ele>321.60000610352</ele>
        <time>2016-04-20T12:50:19Z</time>
      </trkpt>
      <trkpt lat="43.42831" lon="6.05732">
        <ele>321.60000610352</ele>
        <time>2016-04-20T12:50:21Z</time>
      </trkpt>
      <trkpt lat="43.42831" lon="6.05732">
        <ele>321.60000610352</ele>
        <time>2016-04-20T12:50:23Z</time>
      </trkpt>
      <trkpt lat="43.42831" lon="6.05732">
        <ele>321.60000610352</ele>
        <time>2016-04-20T12:50:25Z</time>
      </trkpt>
      <trkpt lat="43.42831" lon="6.05732">
        <ele>321.60000610352</ele>
        <time>2016-04-20T12:50:27Z</time>
      </trkpt>
      <trkpt lat="43.42831" lon="6.05732">
        <ele>321.60000610352</ele>
        <time>2016-04-20T12:50:29Z</time>
      </trkpt>
      <trkpt lat="43.42831" lon="6.05732">
        <ele>321.60000610352</ele>
        <time>2016-04-20T12:50:31Z</time>
      </trkpt>
      <trkpt lat="43.42831" lon="6.05732">
        <ele>321.60000610352</ele>
        <time>2016-04-20T12:50:33Z</time>
      </trkpt>
      <trkpt lat="43.42831" lon="6.05732">
        <ele>321.60000610352</ele>
        <time>2016-04-20T12:50:35Z</time>
      </trkpt>
      <trkpt lat="43.42831" lon="6.05732">
        <ele>321.60000610352</ele>
        <time>2016-04-20T12:50:37Z</time>
      </trkpt>
      <trkpt lat="43.42831" lon="6.05732">
        <ele>321.60000610352</ele>
        <time>2016-04-20T12:50:39Z</time>
      </trkpt>
      <trkpt lat="43.42831" lon="6.05732">
        <ele>321.79998779297</ele>
        <time>2016-04-20T12:50:41Z</time>
      </trkpt>
      <trkpt lat="43.42831" lon="6.05732">
        <ele>321.79998779297</ele>
        <time>2016-04-20T12:50:43Z</time>
      </trkpt>
      <trkpt lat="43.42831" lon="6.05732">
        <ele>321.79998779297</ele>
        <time>2016-04-20T12:50:45Z</time>
      </trkpt>
      <trkpt lat="43.42831" lon="6.05732">
        <ele>321.79998779297</ele>
        <time>2016-04-20T12:50:47Z</time>
      </trkpt>
      <trkpt lat="43.42831" lon="6.05732">
        <ele>321.79998779297</ele>
        <time>2016-04-20T12:50:49Z</time>
      </trkpt>
      <trkpt lat="43.42831" lon="6.05732">
        <ele>321.39999389648</ele>
        <time>2016-04-20T12:50:51Z</time>
      </trkpt>
      <trkpt lat="43.42831" lon="6.05732">
        <ele>321.39999389648</ele>
        <time>2016-04-20T12:50:53Z</time>
      </trkpt>
      <trkpt lat="43.42831" lon="6.05732">
        <ele>321.20001220703</ele>
        <time>2016-04-20T12:50:55Z</time>
      </trkpt>
      <trkpt lat="43.42831" lon="6.05732">
        <ele>321.20001220703</ele>
        <time>2016-04-20T12:50:57Z</time>
      </trkpt>
      <trkpt lat="43.42831" lon="6.05732">
        <ele>321.39999389648</ele>
        <time>2016-04-20T12:50:59Z</time>
      </trkpt>
      <trkpt lat="43.42831" lon="6.05732">
        <ele>321.79998779297</ele>
        <time>2016-04-20T12:51:01Z</time>
      </trkpt>
      <trkpt lat="43.42831" lon="6.05732">
        <ele>321.79998779297</ele>
        <time>2016-04-20T12:51:03Z</time>
      </trkpt>
      <trkpt lat="43.42831" lon="6.05732">
        <ele>321.60000610352</ele>
        <time>2016-04-20T12:51:05Z</time>
      </trkpt>
      <trkpt lat="43.42831" lon="6.05732">
        <ele>321.39999389648</ele>
        <time>2016-04-20T12:51:07Z</time>
      </trkpt>
      <trkpt lat="43.42831" lon="6.05732">
        <ele>321.20001220703</ele>
        <time>2016-04-20T12:51:09Z</time>
      </trkpt>
      <trkpt lat="43.42831" lon="6.05732">
        <ele>321.20001220703</ele>
        <time>2016-04-20T12:51:11Z</time>
      </trkpt>
      <trkpt lat="43.42831" lon="6.05732">
        <ele>321.60000610352</ele>
        <time>2016-04-20T12:51:13Z</time>
      </trkpt>
      <trkpt lat="43.42831" lon="6.05732">
        <ele>321.60000610352</ele>
        <time>2016-04-20T12:51:15Z</time>
      </trkpt>
      <trkpt lat="43.42831" lon="6.05732">
        <ele>321.60000610352</ele>
        <time>2016-04-20T12:51:17Z</time>
      </trkpt>
      <trkpt lat="43.42831" lon="6.05732">
        <ele>321.60000610352</ele>
        <time>2016-04-20T12:51:19Z</time>
      </trkpt>
      <trkpt lat="43.42831" lon="6.05732">
        <ele>321.60000610352</ele>
        <time>2016-04-20T12:51:21Z</time>
      </trkpt>
      <trkpt lat="43.42831" lon="6.05732">
        <ele>321.60000610352</ele>
        <time>2016-04-20T12:51:23Z</time>
      </trkpt>
      <trkpt lat="43.42831" lon="6.05732">
        <ele>321.60000610352</ele>
        <time>2016-04-20T12:51:25Z</time>
      </trkpt>
      <trkpt lat="43.42831" lon="6.05732">
        <ele>321.60000610352</ele>
        <time>2016-04-20T12:51:27Z</time>
      </trkpt>
      <trkpt lat="43.42831" lon="6.05732">
        <ele>321.79998779297</ele>
        <time>2016-04-20T12:51:28Z</time>
      </trkpt>
      <trkpt lat="43.42831" lon="6.05732">
        <ele>321.79998779297</ele>
        <time>2016-04-20T12:51:29Z</time>
      </trkpt>
      <trkpt lat="43.42831" lon="6.05732">
        <ele>322</ele>
        <time>2016-04-20T12:51:30Z</time>
      </trkpt>
      <trkpt lat="43.42831" lon="6.05732">
        <ele>322</ele>
        <time>2016-04-20T12:51:33Z</time>
      </trkpt>
      <trkpt lat="43.42831" lon="6.05732">
        <ele>321.79998779297</ele>
        <time>2016-04-20T12:51:35Z</time>
      </trkpt>
      <trkpt lat="43.42831" lon="6.05732">
        <ele>321.79998779297</ele>
        <time>2016-04-20T12:51:37Z</time>
      </trkpt>
      <trkpt lat="43.42831" lon="6.05732">
        <ele>321.60000610352</ele>
        <time>2016-04-20T12:51:39Z</time>
      </trkpt>
      <trkpt lat="43.42831" lon="6.05732">
        <ele>321.39999389648</ele>
        <time>2016-04-20T12:51:40Z</time>
      </trkpt>
      <trkpt lat="43.42831" lon="6.05732">
        <ele>321.39999389648</ele>
        <time>2016-04-20T12:51:41Z</time>
      </trkpt>
      <trkpt lat="43.42831" lon="6.05732">
        <ele>321.60000610352</ele>
        <time>2016-04-20T12:51:43Z</time>
      </trkpt>
      <trkpt lat="43.42831" lon="6.05732">
        <ele>321.79998779297</ele>
        <time>2016-04-20T12:51:45Z</time>
      </trkpt>
      <trkpt lat="43.42831" lon="6.05732">
        <ele>321.79998779297</ele>
        <time>2016-04-20T12:51:47Z</time>
      </trkpt>
      <trkpt lat="43.42831" lon="6.05732">
        <ele>321.79998779297</ele>
        <time>2016-04-20T12:51:49Z</time>
      </trkpt>
      <trkpt lat="43.42831" lon="6.05732">
        <ele>321.79998779297</ele>
        <time>2016-04-20T12:51:51Z</time>
      </trkpt>
      <trkpt lat="43.42831" lon="6.05732">
        <ele>321.60000610352</ele>
        <time>2016-04-20T12:51:53Z</time>
      </trkpt>
      <trkpt lat="43.42831" lon="6.05732">
        <ele>321.60000610352</ele>
        <time>2016-04-20T12:51:55Z</time>
      </trkpt>
      <trkpt lat="43.42831" lon="6.05732">
        <ele>321.60000610352</ele>
        <time>2016-04-20T12:51:57Z</time>
      </trkpt>
      <trkpt lat="43.42831" lon="6.05732">
        <ele>321.60000610352</ele>
        <time>2016-04-20T12:51:59Z</time>
      </trkpt>
      <trkpt lat="43.42831" lon="6.05732">
        <ele>321.60000610352</ele>
        <time>2016-04-20T12:52:01Z</time>
      </trkpt>
      <trkpt lat="43.42831" lon="6.05732">
        <ele>321.60000610352</ele>
        <time>2016-04-20T12:52:03Z</time>
      </trkpt>
      <trkpt lat="43.42831" lon="6.05732">
        <ele>321.60000610352</ele>
        <time>2016-04-20T12:52:05Z</time>
      </trkpt>
      <trkpt lat="43.42831" lon="6.05732">
        <ele>321.60000610352</ele>
        <time>2016-04-20T12:52:07Z</time>
      </trkpt>
      <trkpt lat="43.42831" lon="6.05732">
        <ele>321.79998779297</ele>
        <time>2016-04-20T12:52:09Z</time>
      </trkpt>
      <trkpt lat="43.42831" lon="6.05732">
        <ele>322</ele>
        <time>2016-04-20T12:52:11Z</time>
      </trkpt>
      <trkpt lat="43.42831" lon="6.05732">
        <ele>322</ele>
        <time>2016-04-20T12:52:13Z</time>
      </trkpt>
      <trkpt lat="43.42831" lon="6.05732">
        <ele>322</ele>
        <time>2016-04-20T12:52:15Z</time>
      </trkpt>
      <trkpt lat="43.42831" lon="6.05732">
        <ele>322</ele>
        <time>2016-04-20T12:52:16Z</time>
      </trkpt>
      <trkpt lat="43.42831" lon="6.05732">
        <ele>322</ele>
        <time>2016-04-20T12:52:17Z</time>
      </trkpt>
      <trkpt lat="43.42831" lon="6.05732">
        <ele>321.79998779297</ele>
        <time>2016-04-20T12:52:19Z</time>
      </trkpt>
      <trkpt lat="43.42831" lon="6.05732">
        <ele>321.60000610352</ele>
        <time>2016-04-20T12:52:21Z</time>
      </trkpt>
      <trkpt lat="43.42831" lon="6.05732">
        <ele>321.39999389648</ele>
        <time>2016-04-20T12:52:23Z</time>
      </trkpt>
      <trkpt lat="43.42831" lon="6.05732">
        <ele>321.39999389648</ele>
        <time>2016-04-20T12:52:25Z</time>
      </trkpt>
      <trkpt lat="43.42831" lon="6.05732">
        <ele>321.60000610352</ele>
        <time>2016-04-20T12:52:27Z</time>
      </trkpt>
      <trkpt lat="43.42831" lon="6.05732">
        <ele>321.79998779297</ele>
        <time>2016-04-20T12:52:29Z</time>
      </trkpt>
      <trkpt lat="43.42831" lon="6.05732">
        <ele>321.79998779297</ele>
        <time>2016-04-20T12:52:31Z</time>
      </trkpt>
      <trkpt lat="43.42831" lon="6.05732">
        <ele>321.79998779297</ele>
        <time>2016-04-20T12:52:33Z</time>
      </trkpt>
      <trkpt lat="43.42831" lon="6.05732">
        <ele>321.79998779297</ele>
        <time>2016-04-20T12:52:35Z</time>
      </trkpt>
      <trkpt lat="43.42831" lon="6.05732">
        <ele>322</ele>
        <time>2016-04-20T12:52:37Z</time>
      </trkpt>
      <trkpt lat="43.42831" lon="6.05732">
        <ele>322.20001220703</ele>
        <time>2016-04-20T12:52:39Z</time>
      </trkpt>
      <trkpt lat="43.42831" lon="6.05732">
        <ele>322.39999389648</ele>
        <time>2016-04-20T12:52:41Z</time>
      </trkpt>
      <trkpt lat="43.42831" lon="6.05732">
        <ele>322.39999389648</ele>
        <time>2016-04-20T12:52:43Z</time>
      </trkpt>
      <trkpt lat="43.42831" lon="6.05732">
        <ele>322.20001220703</ele>
        <time>2016-04-20T12:52:45Z</time>
      </trkpt>
      <trkpt lat="43.42831" lon="6.05732">
        <ele>322</ele>
        <time>2016-04-20T12:52:47Z</time>
      </trkpt>
      <trkpt lat="43.42831" lon="6.05732">
        <ele>321.60000610352</ele>
        <time>2016-04-20T12:52:49Z</time>
      </trkpt>
      <trkpt lat="43.42831" lon="6.05732">
        <ele>321.60000610352</ele>
        <time>2016-04-20T12:52:51Z</time>
      </trkpt>
      <trkpt lat="43.42831" lon="6.05732">
        <ele>321.60000610352</ele>
        <time>2016-04-20T12:52:53Z</time>
      </trkpt>
      <trkpt lat="43.42831" lon="6.05732">
        <ele>321.60000610352</ele>
        <time>2016-04-20T12:52:55Z</time>
      </trkpt>
      <trkpt lat="43.42831" lon="6.05732">
        <ele>321.39999389648</ele>
        <time>2016-04-20T12:52:57Z</time>
      </trkpt>
      <trkpt lat="43.42831" lon="6.05732">
        <ele>321.39999389648</ele>
        <time>2016-04-20T12:52:59Z</time>
      </trkpt>
      <trkpt lat="43.42831" lon="6.05732">
        <ele>321.39999389648</ele>
        <time>2016-04-20T12:53:01Z</time>
      </trkpt>
      <trkpt lat="43.42831" lon="6.05732">
        <ele>321.39999389648</ele>
        <time>2016-04-20T12:53:02Z</time>
      </trkpt>
      <trkpt lat="43.42831" lon="6.05732">
        <ele>321.39999389648</ele>
        <time>2016-04-20T12:53:05Z</time>
      </trkpt>
      <trkpt lat="43.42831" lon="6.05732">
        <ele>321.39999389648</ele>
        <time>2016-04-20T12:53:07Z</time>
      </trkpt>
      <trkpt lat="43.42831" lon="6.05732">
        <ele>321.39999389648</ele>
        <time>2016-04-20T12:53:09Z</time>
      </trkpt>
      <trkpt lat="43.42831" lon="6.05732">
        <ele>321.60000610352</ele>
        <time>2016-04-20T12:53:11Z</time>
      </trkpt>
      <trkpt lat="43.42831" lon="6.05732">
        <ele>321.60000610352</ele>
        <time>2016-04-20T12:53:13Z</time>
      </trkpt>
      <trkpt lat="43.42831" lon="6.05732">
        <ele>321.60000610352</ele>
        <time>2016-04-20T12:53:15Z</time>
      </trkpt>
      <trkpt lat="43.42831" lon="6.05732">
        <ele>321.39999389648</ele>
        <time>2016-04-20T12:53:17Z</time>
      </trkpt>
      <trkpt lat="43.42831" lon="6.05732">
        <ele>321.39999389648</ele>
        <time>2016-04-20T12:53:19Z</time>
      </trkpt>
      <trkpt lat="43.42831" lon="6.05732">
        <ele>321.60000610352</ele>
        <time>2016-04-20T12:53:21Z</time>
      </trkpt>
      <trkpt lat="43.42831" lon="6.05732">
        <ele>321.60000610352</ele>
        <time>2016-04-20T12:53:23Z</time>
      </trkpt>
      <trkpt lat="43.42831" lon="6.05732">
        <ele>321.60000610352</ele>
        <time>2016-04-20T12:53:25Z</time>
      </trkpt>
      <trkpt lat="43.42831" lon="6.05732">
        <ele>321.60000610352</ele>
        <time>2016-04-20T12:53:27Z</time>
      </trkpt>
      <trkpt lat="43.42831" lon="6.05732">
        <ele>321.60000610352</ele>
        <time>2016-04-20T12:53:29Z</time>
      </trkpt>
      <trkpt lat="43.42831" lon="6.05732">
        <ele>321.60000610352</ele>
        <time>2016-04-20T12:53:31Z</time>
      </trkpt>
      <trkpt lat="43.42831" lon="6.05732">
        <ele>321.39999389648</ele>
        <time>2016-04-20T12:53:33Z</time>
      </trkpt>
      <trkpt lat="43.42831" lon="6.05732">
        <ele>321.39999389648</ele>
        <time>2016-04-20T12:53:35Z</time>
      </trkpt>
      <trkpt lat="43.42831" lon="6.05732">
        <ele>321.39999389648</ele>
        <time>2016-04-20T12:53:37Z</time>
      </trkpt>
      <trkpt lat="43.42831" lon="6.05732">
        <ele>321.60000610352</ele>
        <time>2016-04-20T12:53:39Z</time>
      </trkpt>
      <trkpt lat="43.42832" lon="6.05732">
        <ele>321.60000610352</ele>
        <time>2016-04-20T12:53:41Z</time>
      </trkpt>
      <trkpt lat="43.42832" lon="6.05731">
        <ele>321.39999389648</ele>
        <time>2016-04-20T12:53:42Z</time>
      </trkpt>
      <trkpt lat="43.42832" lon="6.05732">
        <ele>321.39999389648</ele>
        <time>2016-04-20T12:53:45Z</time>
      </trkpt>
      <trkpt lat="43.42832" lon="6.05732">
        <ele>321.39999389648</ele>
        <time>2016-04-20T12:53:47Z</time>
      </trkpt>
      <trkpt lat="43.42832" lon="6.05732">
        <ele>321.39999389648</ele>
        <time>2016-04-20T12:53:49Z</time>
      </trkpt>
      <trkpt lat="43.42832" lon="6.05732">
        <ele>321.39999389648</ele>
        <time>2016-04-20T12:53:51Z</time>
      </trkpt>
      <trkpt lat="43.42832" lon="6.05732">
        <ele>321.39999389648</ele>
        <time>2016-04-20T12:53:53Z</time>
      </trkpt>
      <trkpt lat="43.42832" lon="6.05732">
        <ele>321.39999389648</ele>
        <time>2016-04-20T12:53:55Z</time>
      </trkpt>
      <trkpt lat="43.42832" lon="6.05732">
        <ele>321.60000610352</ele>
        <time>2016-04-20T12:53:57Z</time>
      </trkpt>
      <trkpt lat="43.42832" lon="6.05732">
        <ele>321.60000610352</ele>
        <time>2016-04-20T12:53:59Z</time>
      </trkpt>
      <trkpt lat="43.42832" lon="6.05732">
        <ele>321.60000610352</ele>
        <time>2016-04-20T12:54:01Z</time>
      </trkpt>
      <trkpt lat="43.42832" lon="6.05732">
        <ele>321.60000610352</ele>
        <time>2016-04-20T12:54:02Z</time>
      </trkpt>
      <trkpt lat="43.42832" lon="6.05732">
        <ele>321.60000610352</ele>
        <time>2016-04-20T12:54:05Z</time>
      </trkpt>
      <trkpt lat="43.42832" lon="6.05731">
        <ele>321.60000610352</ele>
        <time>2016-04-20T12:54:07Z</time>
      </trkpt>
      <trkpt lat="43.42832" lon="6.05731">
        <ele>321.60000610352</ele>
        <time>2016-04-20T12:54:09Z</time>
      </trkpt>
      <trkpt lat="43.42832" lon="6.05732">
        <ele>321.39999389648</ele>
        <time>2016-04-20T12:54:11Z</time>
      </trkpt>
      <trkpt lat="43.42832" lon="6.05732">
        <ele>321.60000610352</ele>
        <time>2016-04-20T12:54:13Z</time>
      </trkpt>
      <trkpt lat="43.42832" lon="6.05731">
        <ele>321.60000610352</ele>
        <time>2016-04-20T12:54:15Z</time>
      </trkpt>
      <trkpt lat="43.42833" lon="6.05732">
        <ele>321.60000610352</ele>
        <time>2016-04-20T12:54:17Z</time>
      </trkpt>
      <trkpt lat="43.42833" lon="6.05732">
        <ele>321.60000610352</ele>
        <time>2016-04-20T12:54:19Z</time>
      </trkpt>
      <trkpt lat="43.42833" lon="6.05732">
        <ele>321.79998779297</ele>
        <time>2016-04-20T12:54:21Z</time>
      </trkpt>
      <trkpt lat="43.42833" lon="6.05732">
        <ele>321.79998779297</ele>
        <time>2016-04-20T12:54:23Z</time>
      </trkpt>
      <trkpt lat="43.42833" lon="6.05732">
        <ele>321.79998779297</ele>
        <time>2016-04-20T12:54:25Z</time>
      </trkpt>
      <trkpt lat="43.42833" lon="6.05732">
        <ele>321.60000610352</ele>
        <time>2016-04-20T12:54:27Z</time>
      </trkpt>
      <trkpt lat="43.42833" lon="6.05732">
        <ele>321.39999389648</ele>
        <time>2016-04-20T12:54:29Z</time>
      </trkpt>
      <trkpt lat="43.42833" lon="6.05732">
        <ele>321.20001220703</ele>
        <time>2016-04-20T12:54:31Z</time>
      </trkpt>
      <trkpt lat="43.42833" lon="6.05732">
        <ele>320.79998779297</ele>
        <time>2016-04-20T12:54:33Z</time>
      </trkpt>
      <trkpt lat="43.42833" lon="6.05732">
        <ele>320.79998779297</ele>
        <time>2016-04-20T12:54:35Z</time>
      </trkpt>
      <trkpt lat="43.42833" lon="6.05732">
        <ele>321.20001220703</ele>
        <time>2016-04-20T12:54:37Z</time>
      </trkpt>
      <trkpt lat="43.42833" lon="6.05732">
        <ele>321.39999389648</ele>
        <time>2016-04-20T12:54:39Z</time>
      </trkpt>
      <trkpt lat="43.42833" lon="6.05732">
        <ele>321.60000610352</ele>
        <time>2016-04-20T12:54:41Z</time>
      </trkpt>
      <trkpt lat="43.42833" lon="6.05732">
        <ele>322</ele>
        <time>2016-04-20T12:54:43Z</time>
      </trkpt>
      <trkpt lat="43.42833" lon="6.05732">
        <ele>322.20001220703</ele>
        <time>2016-04-20T12:54:45Z</time>
      </trkpt>
      <trkpt lat="43.42833" lon="6.05732">
        <ele>322.39999389648</ele>
        <time>2016-04-20T12:54:47Z</time>
      </trkpt>
      <trkpt lat="43.42833" lon="6.05732">
        <ele>322.39999389648</ele>
        <time>2016-04-20T12:54:49Z</time>
      </trkpt>
      <trkpt lat="43.42833" lon="6.05732">
        <ele>322.20001220703</ele>
        <time>2016-04-20T12:54:51Z</time>
      </trkpt>
      <trkpt lat="43.42833" lon="6.05732">
        <ele>322.20001220703</ele>
        <time>2016-04-20T12:54:53Z</time>
      </trkpt>
      <trkpt lat="43.42833" lon="6.05732">
        <ele>322</ele>
        <time>2016-04-20T12:54:55Z</time>
      </trkpt>
      <trkpt lat="43.42833" lon="6.05732">
        <ele>322</ele>
        <time>2016-04-20T12:54:57Z</time>
      </trkpt>
      <trkpt lat="43.42833" lon="6.05732">
        <ele>321.79998779297</ele>
        <time>2016-04-20T12:54:59Z</time>
      </trkpt>
      <trkpt lat="43.42833" lon="6.05732">
        <ele>321.79998779297</ele>
        <time>2016-04-20T12:55:01Z</time>
      </trkpt>
      <trkpt lat="43.42833" lon="6.05732">
        <ele>321.79998779297</ele>
        <time>2016-04-20T12:55:03Z</time>
      </trkpt>
      <trkpt lat="43.42833" lon="6.05732">
        <ele>322</ele>
        <time>2016-04-20T12:55:05Z</time>
      </trkpt>
      <trkpt lat="43.42833" lon="6.05732">
        <ele>322</ele>
        <time>2016-04-20T12:55:07Z</time>
      </trkpt>
      <trkpt lat="43.42833" lon="6.05732">
        <ele>322</ele>
        <time>2016-04-20T12:55:09Z</time>
      </trkpt>
      <trkpt lat="43.42833" lon="6.05732">
        <ele>321.79998779297</ele>
        <time>2016-04-20T12:55:11Z</time>
      </trkpt>
      <trkpt lat="43.42833" lon="6.05732">
        <ele>321.79998779297</ele>
        <time>2016-04-20T12:55:13Z</time>
      </trkpt>
      <trkpt lat="43.42833" lon="6.05732">
        <ele>321.79998779297</ele>
        <time>2016-04-20T12:55:15Z</time>
      </trkpt>
      <trkpt lat="43.42833" lon="6.05732">
        <ele>322</ele>
        <time>2016-04-20T12:55:17Z</time>
      </trkpt>
      <trkpt lat="43.42833" lon="6.05732">
        <ele>322</ele>
        <time>2016-04-20T12:55:19Z</time>
      </trkpt>
      <trkpt lat="43.42833" lon="6.05732">
        <ele>321.79998779297</ele>
        <time>2016-04-20T12:55:21Z</time>
      </trkpt>
      <trkpt lat="43.42833" lon="6.05732">
        <ele>321.79998779297</ele>
        <time>2016-04-20T12:55:23Z</time>
      </trkpt>
      <trkpt lat="43.42833" lon="6.05732">
        <ele>321.60000610352</ele>
        <time>2016-04-20T12:55:25Z</time>
      </trkpt>
      <trkpt lat="43.42833" lon="6.05732">
        <ele>321.60000610352</ele>
        <time>2016-04-20T12:55:27Z</time>
      </trkpt>
      <trkpt lat="43.42833" lon="6.05732">
        <ele>321.60000610352</ele>
        <time>2016-04-20T12:55:29Z</time>
      </trkpt>
      <trkpt lat="43.42833" lon="6.05732">
        <ele>321.60000610352</ele>
        <time>2016-04-20T12:55:31Z</time>
      </trkpt>
      <trkpt lat="43.42833" lon="6.05732">
        <ele>321.60000610352</ele>
        <time>2016-04-20T12:55:33Z</time>
      </trkpt>
      <trkpt lat="43.42833" lon="6.05732">
        <ele>321.60000610352</ele>
        <time>2016-04-20T12:55:35Z</time>
      </trkpt>
      <trkpt lat="43.42833" lon="6.05732">
        <ele>321.39999389648</ele>
        <time>2016-04-20T12:55:37Z</time>
      </trkpt>
      <trkpt lat="43.42833" lon="6.05732">
        <ele>321.39999389648</ele>
        <time>2016-04-20T12:55:39Z</time>
      </trkpt>
      <trkpt lat="43.42833" lon="6.05732">
        <ele>321.60000610352</ele>
        <time>2016-04-20T12:55:41Z</time>
      </trkpt>
      <trkpt lat="43.42833" lon="6.05732">
        <ele>321.60000610352</ele>
        <time>2016-04-20T12:55:43Z</time>
      </trkpt>
      <trkpt lat="43.42833" lon="6.05732">
        <ele>321.60000610352</ele>
        <time>2016-04-20T12:55:45Z</time>
      </trkpt>
      <trkpt lat="43.42833" lon="6.05732">
        <ele>321.60000610352</ele>
        <time>2016-04-20T12:55:47Z</time>
      </trkpt>
      <trkpt lat="43.42833" lon="6.05732">
        <ele>321.60000610352</ele>
        <time>2016-04-20T12:55:49Z</time>
      </trkpt>
      <trkpt lat="43.42833" lon="6.05732">
        <ele>321.39999389648</ele>
        <time>2016-04-20T12:55:51Z</time>
      </trkpt>
      <trkpt lat="43.42833" lon="6.05732">
        <ele>321.39999389648</ele>
        <time>2016-04-20T12:55:53Z</time>
      </trkpt>
      <trkpt lat="43.42833" lon="6.05732">
        <ele>321.39999389648</ele>
        <time>2016-04-20T12:55:55Z</time>
      </trkpt>
      <trkpt lat="43.42833" lon="6.05732">
        <ele>321.20001220703</ele>
        <time>2016-04-20T12:55:57Z</time>
      </trkpt>
      <trkpt lat="43.42833" lon="6.05732">
        <ele>321.39999389648</ele>
        <time>2016-04-20T12:55:59Z</time>
      </trkpt>
      <trkpt lat="43.42833" lon="6.05732">
        <ele>321.60000610352</ele>
        <time>2016-04-20T12:56:01Z</time>
      </trkpt>
      <trkpt lat="43.42833" lon="6.05732">
        <ele>321.60000610352</ele>
        <time>2016-04-20T12:56:03Z</time>
      </trkpt>
      <trkpt lat="43.42833" lon="6.05732">
        <ele>321.60000610352</ele>
        <time>2016-04-20T12:56:05Z</time>
      </trkpt>
      <trkpt lat="43.42833" lon="6.05732">
        <ele>321.79998779297</ele>
        <time>2016-04-20T12:56:07Z</time>
      </trkpt>
      <trkpt lat="43.42833" lon="6.05732">
        <ele>321.79998779297</ele>
        <time>2016-04-20T12:56:09Z</time>
      </trkpt>
      <trkpt lat="43.42833" lon="6.05732">
        <ele>321.79998779297</ele>
        <time>2016-04-20T12:56:11Z</time>
      </trkpt>
      <trkpt lat="43.42833" lon="6.05732">
        <ele>321.79998779297</ele>
        <time>2016-04-20T12:56:13Z</time>
      </trkpt>
      <trkpt lat="43.42833" lon="6.05732">
        <ele>321.79998779297</ele>
        <time>2016-04-20T12:56:15Z</time>
      </trkpt>
      <trkpt lat="43.42833" lon="6.05732">
        <ele>321.79998779297</ele>
        <time>2016-04-20T12:56:16Z</time>
      </trkpt>
      <trkpt lat="43.42833" lon="6.05732">
        <ele>321.79998779297</ele>
        <time>2016-04-20T12:56:17Z</time>
      </trkpt>
      <trkpt lat="43.42833" lon="6.05732">
        <ele>321.60000610352</ele>
        <time>2016-04-20T12:56:19Z</time>
      </trkpt>
      <trkpt lat="43.42833" lon="6.05732">
        <ele>321.60000610352</ele>
        <time>2016-04-20T12:56:21Z</time>
      </trkpt>
      <trkpt lat="43.42833" lon="6.05732">
        <ele>321.39999389648</ele>
        <time>2016-04-20T12:56:23Z</time>
      </trkpt>
      <trkpt lat="43.42833" lon="6.05732">
        <ele>321.39999389648</ele>
        <time>2016-04-20T12:56:25Z</time>
      </trkpt>
      <trkpt lat="43.42833" lon="6.05732">
        <ele>321.20001220703</ele>
        <time>2016-04-20T12:56:27Z</time>
      </trkpt>
      <trkpt lat="43.42833" lon="6.05732">
        <ele>321.39999389648</ele>
        <time>2016-04-20T12:56:29Z</time>
      </trkpt>
      <trkpt lat="43.42833" lon="6.05732">
        <ele>321.60000610352</ele>
        <time>2016-04-20T12:56:31Z</time>
      </trkpt>
      <trkpt lat="43.42833" lon="6.05732">
        <ele>321.60000610352</ele>
        <time>2016-04-20T12:56:33Z</time>
      </trkpt>
      <trkpt lat="43.42833" lon="6.05732">
        <ele>321.79998779297</ele>
        <time>2016-04-20T12:56:35Z</time>
      </trkpt>
      <trkpt lat="43.42833" lon="6.05732">
        <ele>321.79998779297</ele>
        <time>2016-04-20T12:56:37Z</time>
      </trkpt>
      <trkpt lat="43.42833" lon="6.05732">
        <ele>321.60000610352</ele>
        <time>2016-04-20T12:56:39Z</time>
      </trkpt>
      <trkpt lat="43.42833" lon="6.05732">
        <ele>321.20001220703</ele>
        <time>2016-04-20T12:56:41Z</time>
      </trkpt>
      <trkpt lat="43.42833" lon="6.05732">
        <ele>320.79998779297</ele>
        <time>2016-04-20T12:56:43Z</time>
      </trkpt>
      <trkpt lat="43.42833" lon="6.05732">
        <ele>320.79998779297</ele>
        <time>2016-04-20T12:56:45Z</time>
      </trkpt>
      <trkpt lat="43.42833" lon="6.05732">
        <ele>320.79998779297</ele>
        <time>2016-04-20T12:56:47Z</time>
      </trkpt>
      <trkpt lat="43.42833" lon="6.05732">
        <ele>321</ele>
        <time>2016-04-20T12:56:49Z</time>
      </trkpt>
      <trkpt lat="43.42833" lon="6.05732">
        <ele>321</ele>
        <time>2016-04-20T12:56:51Z</time>
      </trkpt>
      <trkpt lat="43.42833" lon="6.05732">
        <ele>321</ele>
        <time>2016-04-20T12:56:53Z</time>
      </trkpt>
      <trkpt lat="43.42833" lon="6.05732">
        <ele>320.79998779297</ele>
        <time>2016-04-20T12:56:55Z</time>
      </trkpt>
      <trkpt lat="43.42833" lon="6.05732">
        <ele>320.60000610352</ele>
        <time>2016-04-20T12:56:57Z</time>
      </trkpt>
      <trkpt lat="43.42833" lon="6.05732">
        <ele>320.79998779297</ele>
        <time>2016-04-20T12:56:59Z</time>
      </trkpt>
      <trkpt lat="43.42833" lon="6.05732">
        <ele>321</ele>
        <time>2016-04-20T12:57:01Z</time>
      </trkpt>
      <trkpt lat="43.42833" lon="6.05732">
        <ele>321</ele>
        <time>2016-04-20T12:57:03Z</time>
      </trkpt>
      <trkpt lat="43.42833" lon="6.05732">
        <ele>321</ele>
        <time>2016-04-20T12:57:05Z</time>
      </trkpt>
      <trkpt lat="43.42833" lon="6.05732">
        <ele>321.20001220703</ele>
        <time>2016-04-20T12:57:06Z</time>
      </trkpt>
      <trkpt lat="43.42833" lon="6.05732">
        <ele>321.20001220703</ele>
        <time>2016-04-20T12:57:07Z</time>
      </trkpt>
      <trkpt lat="43.42833" lon="6.05732">
        <ele>321.39999389648</ele>
        <time>2016-04-20T12:57:09Z</time>
      </trkpt>
      <trkpt lat="43.42833" lon="6.05732">
        <ele>321.39999389648</ele>
        <time>2016-04-20T12:57:11Z</time>
      </trkpt>
      <trkpt lat="43.42833" lon="6.05732">
        <ele>321.39999389648</ele>
        <time>2016-04-20T12:57:13Z</time>
      </trkpt>
      <trkpt lat="43.42833" lon="6.05732">
        <ele>321.39999389648</ele>
        <time>2016-04-20T12:57:15Z</time>
      </trkpt>
      <trkpt lat="43.42833" lon="6.05732">
        <ele>321.20001220703</ele>
        <time>2016-04-20T12:57:17Z</time>
      </trkpt>
      <trkpt lat="43.42833" lon="6.05732">
        <ele>321.20001220703</ele>
        <time>2016-04-20T12:57:19Z</time>
      </trkpt>
      <trkpt lat="43.42833" lon="6.05732">
        <ele>321.20001220703</ele>
        <time>2016-04-20T12:57:21Z</time>
      </trkpt>
      <trkpt lat="43.42833" lon="6.05732">
        <ele>321.20001220703</ele>
        <time>2016-04-20T12:57:23Z</time>
      </trkpt>
      <trkpt lat="43.42833" lon="6.05732">
        <ele>321.20001220703</ele>
        <time>2016-04-20T12:57:25Z</time>
      </trkpt>
      <trkpt lat="43.42833" lon="6.05732">
        <ele>321.20001220703</ele>
        <time>2016-04-20T12:57:27Z</time>
      </trkpt>
      <trkpt lat="43.42833" lon="6.05732">
        <ele>321</ele>
        <time>2016-04-20T12:57:29Z</time>
      </trkpt>
      <trkpt lat="43.42833" lon="6.05732">
        <ele>321</ele>
        <time>2016-04-20T12:57:31Z</time>
      </trkpt>
      <trkpt lat="43.42833" lon="6.05732">
        <ele>321</ele>
        <time>2016-04-20T12:57:33Z</time>
      </trkpt>
      <trkpt lat="43.42833" lon="6.05732">
        <ele>321.20001220703</ele>
        <time>2016-04-20T12:57:35Z</time>
      </trkpt>
      <trkpt lat="43.42833" lon="6.05732">
        <ele>321.20001220703</ele>
        <time>2016-04-20T12:57:37Z</time>
      </trkpt>
      <trkpt lat="43.42833" lon="6.05732">
        <ele>321.39999389648</ele>
        <time>2016-04-20T12:57:39Z</time>
      </trkpt>
      <trkpt lat="43.42833" lon="6.05732">
        <ele>321.39999389648</ele>
        <time>2016-04-20T12:57:40Z</time>
      </trkpt>
      <trkpt lat="43.42833" lon="6.05733">
        <ele>321.39999389648</ele>
        <time>2016-04-20T12:57:41Z</time>
      </trkpt>
      <trkpt lat="43.42833" lon="6.05732">
        <ele>321.60000610352</ele>
        <time>2016-04-20T12:57:43Z</time>
      </trkpt>
      <trkpt lat="43.42833" lon="6.05732">
        <ele>321.79998779297</ele>
        <time>2016-04-20T12:57:45Z</time>
      </trkpt>
      <trkpt lat="43.42833" lon="6.05732">
        <ele>321.79998779297</ele>
        <time>2016-04-20T12:57:47Z</time>
      </trkpt>
      <trkpt lat="43.42833" lon="6.05732">
        <ele>321.79998779297</ele>
        <time>2016-04-20T12:57:49Z</time>
      </trkpt>
      <trkpt lat="43.42833" lon="6.05732">
        <ele>321.79998779297</ele>
        <time>2016-04-20T12:57:51Z</time>
      </trkpt>
      <trkpt lat="43.42833" lon="6.05732">
        <ele>321.79998779297</ele>
        <time>2016-04-20T12:57:53Z</time>
      </trkpt>
      <trkpt lat="43.42833" lon="6.05732">
        <ele>321.79998779297</ele>
        <time>2016-04-20T12:57:55Z</time>
      </trkpt>
      <trkpt lat="43.42833" lon="6.05732">
        <ele>321.60000610352</ele>
        <time>2016-04-20T12:57:57Z</time>
      </trkpt>
      <trkpt lat="43.42833" lon="6.05732">
        <ele>321.60000610352</ele>
        <time>2016-04-20T12:57:59Z</time>
      </trkpt>
      <trkpt lat="43.42833" lon="6.05732">
        <ele>321.39999389648</ele>
        <time>2016-04-20T12:58:01Z</time>
      </trkpt>
      <trkpt lat="43.42833" lon="6.05732">
        <ele>321.60000610352</ele>
        <time>2016-04-20T12:58:03Z</time>
      </trkpt>
      <trkpt lat="43.42833" lon="6.05732">
        <ele>321.60000610352</ele>
        <time>2016-04-20T12:58:05Z</time>
      </trkpt>
      <trkpt lat="43.42833" lon="6.05732">
        <ele>321.79998779297</ele>
        <time>2016-04-20T12:58:07Z</time>
      </trkpt>
      <trkpt lat="43.42833" lon="6.05732">
        <ele>321.79998779297</ele>
        <time>2016-04-20T12:58:09Z</time>
      </trkpt>
      <trkpt lat="43.42833" lon="6.05732">
        <ele>322</ele>
        <time>2016-04-20T12:58:11Z</time>
      </trkpt>
      <trkpt lat="43.42833" lon="6.05732">
        <ele>322</ele>
        <time>2016-04-20T12:58:13Z</time>
      </trkpt>
      <trkpt lat="43.42833" lon="6.05732">
        <ele>322</ele>
        <time>2016-04-20T12:58:14Z</time>
      </trkpt>
      <trkpt lat="43.42833" lon="6.05732">
        <ele>322</ele>
        <time>2016-04-20T12:58:17Z</time>
      </trkpt>
      <trkpt lat="43.42833" lon="6.05732">
        <ele>322</ele>
        <time>2016-04-20T12:58:19Z</time>
      </trkpt>
      <trkpt lat="43.42835" lon="6.05732">
        <ele>321.79998779297</ele>
        <time>2016-04-20T12:58:21Z</time>
      </trkpt>
      <trkpt lat="43.42838" lon="6.0573">
        <ele>321.79998779297</ele>
        <time>2016-04-20T12:58:23Z</time>
      </trkpt>
      <trkpt lat="43.4284" lon="6.05727">
        <ele>321.60000610352</ele>
        <time>2016-04-20T12:58:25Z</time>
      </trkpt>
      <trkpt lat="43.42841" lon="6.05722">
        <ele>321.79998779297</ele>
        <time>2016-04-20T12:58:27Z</time>
      </trkpt>
      <trkpt lat="43.42842" lon="6.05717">
        <ele>322.20001220703</ele>
        <time>2016-04-20T12:58:29Z</time>
      </trkpt>
      <trkpt lat="43.42842" lon="6.05714">
        <ele>322.20001220703</ele>
        <time>2016-04-20T12:58:30Z</time>
      </trkpt>
      <trkpt lat="43.42843" lon="6.0571">
        <ele>322.20001220703</ele>
        <time>2016-04-20T12:58:31Z</time>
      </trkpt>
      <trkpt lat="43.42844" lon="6.05703">
        <ele>322.20001220703</ele>
        <time>2016-04-20T12:58:33Z</time>
      </trkpt>
      <trkpt lat="43.42845" lon="6.05697">
        <ele>322.20001220703</ele>
        <time>2016-04-20T12:58:35Z</time>
      </trkpt>
      <trkpt lat="43.42846" lon="6.0569">
        <ele>322.20001220703</ele>
        <time>2016-04-20T12:58:37Z</time>
      </trkpt>
      <trkpt lat="43.42847" lon="6.05683">
        <ele>322.39999389648</ele>
        <time>2016-04-20T12:58:39Z</time>
      </trkpt>
      <trkpt lat="43.42847" lon="6.05676">
        <ele>322.39999389648</ele>
        <time>2016-04-20T12:58:41Z</time>
      </trkpt>
      <trkpt lat="43.42848" lon="6.05667">
        <ele>322.60000610352</ele>
        <time>2016-04-20T12:58:43Z</time>
      </trkpt>
      <trkpt lat="43.42849" lon="6.05663">
        <ele>322.60000610352</ele>
        <time>2016-04-20T12:58:44Z</time>
      </trkpt>
      <trkpt lat="43.42849" lon="6.05659">
        <ele>322.60000610352</ele>
        <time>2016-04-20T12:58:45Z</time>
      </trkpt>
      <trkpt lat="43.4285" lon="6.05649">
        <ele>322.39999389648</ele>
        <time>2016-04-20T12:58:47Z</time>
      </trkpt>
      <trkpt lat="43.42851" lon="6.0564">
        <ele>321.79998779297</ele>
        <time>2016-04-20T12:58:49Z</time>
      </trkpt>
      <trkpt lat="43.42852" lon="6.0563">
        <ele>321.60000610352</ele>
        <time>2016-04-20T12:58:51Z</time>
      </trkpt>
      <trkpt lat="43.42853" lon="6.05626">
        <ele>321.60000610352</ele>
        <time>2016-04-20T12:58:52Z</time>
      </trkpt>
      <trkpt lat="43.42853" lon="6.05621">
        <ele>321.60000610352</ele>
        <time>2016-04-20T12:58:53Z</time>
      </trkpt>
      <trkpt lat="43.42854" lon="6.05612">
        <ele>321.60000610352</ele>
        <time>2016-04-20T12:58:55Z</time>
      </trkpt>
      <trkpt lat="43.42855" lon="6.05603">
        <ele>321.60000610352</ele>
        <time>2016-04-20T12:58:57Z</time>
      </trkpt>
      <trkpt lat="43.42855" lon="6.05594">
        <ele>321.79998779297</ele>
        <time>2016-04-20T12:58:59Z</time>
      </trkpt>
      <trkpt lat="43.42857" lon="6.05584">
        <ele>321.79998779297</ele>
        <time>2016-04-20T12:59:01Z</time>
      </trkpt>
      <trkpt lat="43.42858" lon="6.05573">
        <ele>322.20001220703</ele>
        <time>2016-04-20T12:59:03Z</time>
      </trkpt>
      <trkpt lat="43.42859" lon="6.05559">
        <ele>322.20001220703</ele>
        <time>2016-04-20T12:59:05Z</time>
      </trkpt>
      <trkpt lat="43.42861" lon="6.05547">
        <ele>321.20001220703</ele>
        <time>2016-04-20T12:59:07Z</time>
      </trkpt>
      <trkpt lat="43.42864" lon="6.05543">
        <ele>321</ele>
        <time>2016-04-20T12:59:08Z</time>
      </trkpt>
      <trkpt lat="43.42867" lon="6.05542">
        <ele>321</ele>
        <time>2016-04-20T12:59:09Z</time>
      </trkpt>
      <trkpt lat="43.42873" lon="6.05545">
        <ele>321.20001220703</ele>
        <time>2016-04-20T12:59:11Z</time>
      </trkpt>
      <trkpt lat="43.42878" lon="6.05546">
        <ele>321.20001220703</ele>
        <time>2016-04-20T12:59:12Z</time>
      </trkpt>
      <trkpt lat="43.42882" lon="6.05548">
        <ele>321</ele>
        <time>2016-04-20T12:59:13Z</time>
      </trkpt>
      <trkpt lat="43.42891" lon="6.05554">
        <ele>320.60000610352</ele>
        <time>2016-04-20T12:59:15Z</time>
      </trkpt>
      <trkpt lat="43.42901" lon="6.05556">
        <ele>320.20001220703</ele>
        <time>2016-04-20T12:59:17Z</time>
      </trkpt>
      <trkpt lat="43.42911" lon="6.05552">
        <ele>320</ele>
        <time>2016-04-20T12:59:19Z</time>
      </trkpt>
      <trkpt lat="43.42916" lon="6.05548">
        <ele>320</ele>
        <time>2016-04-20T12:59:20Z</time>
      </trkpt>
      <trkpt lat="43.42921" lon="6.05545">
        <ele>319.79998779297</ele>
        <time>2016-04-20T12:59:21Z</time>
      </trkpt>
      <trkpt lat="43.42926" lon="6.05542">
        <ele>319.79998779297</ele>
        <time>2016-04-20T12:59:22Z</time>
      </trkpt>
      <trkpt lat="43.42931" lon="6.05537">
        <ele>319.79998779297</ele>
        <time>2016-04-20T12:59:23Z</time>
      </trkpt>
      <trkpt lat="43.42935" lon="6.05533">
        <ele>319.60000610352</ele>
        <time>2016-04-20T12:59:24Z</time>
      </trkpt>
      <trkpt lat="43.42941" lon="6.0553">
        <ele>319.39999389648</ele>
        <time>2016-04-20T12:59:25Z</time>
      </trkpt>
      <trkpt lat="43.42945" lon="6.05527">
        <ele>319.20001220703</ele>
        <time>2016-04-20T12:59:26Z</time>
      </trkpt>
      <trkpt lat="43.4295" lon="6.05525">
        <ele>319.20001220703</ele>
        <time>2016-04-20T12:59:27Z</time>
      </trkpt>
      <trkpt lat="43.42955" lon="6.05523">
        <ele>319.20001220703</ele>
        <time>2016-04-20T12:59:28Z</time>
      </trkpt>
      <trkpt lat="43.42959" lon="6.05521">
        <ele>319.20001220703</ele>
        <time>2016-04-20T12:59:29Z</time>
      </trkpt>
      <trkpt lat="43.42966" lon="6.05518">
        <ele>319.79998779297</ele>
        <time>2016-04-20T12:59:31Z</time>
      </trkpt>
      <trkpt lat="43.42972" lon="6.05516">
        <ele>320.20001220703</ele>
        <time>2016-04-20T12:59:33Z</time>
      </trkpt>
      <trkpt lat="43.42977" lon="6.05512">
        <ele>321.20001220703</ele>
        <time>2016-04-20T12:59:35Z</time>
      </trkpt>
      <trkpt lat="43.42982" lon="6.05509">
        <ele>322.39999389648</ele>
        <time>2016-04-20T12:59:37Z</time>
      </trkpt>
      <trkpt lat="43.42987" lon="6.05507">
        <ele>323.20001220703</ele>
        <time>2016-04-20T12:59:39Z</time>
      </trkpt>
      <trkpt lat="43.4299" lon="6.05506">
        <ele>323.60000610352</ele>
        <time>2016-04-20T12:59:40Z</time>
      </trkpt>
      <trkpt lat="43.42992" lon="6.05505">
        <ele>324</ele>
        <time>2016-04-20T12:59:41Z</time>
      </trkpt>
      <trkpt lat="43.42994" lon="6.05505">
        <ele>324.60000610352</ele>
        <time>2016-04-20T12:59:42Z</time>
      </trkpt>
      <trkpt lat="43.42996" lon="6.05506">
        <ele>325.20001220703</ele>
        <time>2016-04-20T12:59:43Z</time>
      </trkpt>
      <trkpt lat="43.42997" lon="6.05507">
        <ele>325.60000610352</ele>
        <time>2016-04-20T12:59:44Z</time>
      </trkpt>
      <trkpt lat="43.42999" lon="6.05507">
        <ele>325.79998779297</ele>
        <time>2016-04-20T12:59:45Z</time>
      </trkpt>
      <trkpt lat="43.43002" lon="6.05507">
        <ele>326.60000610352</ele>
        <time>2016-04-20T12:59:47Z</time>
      </trkpt>
      <trkpt lat="43.43003" lon="6.05507">
        <ele>326.79998779297</ele>
        <time>2016-04-20T12:59:48Z</time>
      </trkpt>
      <trkpt lat="43.43005" lon="6.05506">
        <ele>327</ele>
        <time>2016-04-20T12:59:49Z</time>
      </trkpt>
      <trkpt lat="43.43005" lon="6.05506">
        <ele>327</ele>
        <time>2016-04-20T12:59:50Z</time>
      </trkpt>
      <trkpt lat="43.43005" lon="6.05506">
        <ele>327.20001220703</ele>
        <time>2016-04-20T12:59:51Z</time>
      </trkpt>
      <trkpt lat="43.43005" lon="6.05506">
        <ele>327</ele>
        <time>2016-04-20T12:59:53Z</time>
      </trkpt>
      <trkpt lat="43.43005" lon="6.05506">
        <ele>327</ele>
        <time>2016-04-20T12:59:55Z</time>
      </trkpt>
      <trkpt lat="43.43005" lon="6.05506">
        <ele>327</ele>
        <time>2016-04-20T12:59:57Z</time>
      </trkpt>
      <trkpt lat="43.43005" lon="6.05506">
        <ele>327</ele>
        <time>2016-04-20T12:59:59Z</time>
      </trkpt>
      <trkpt lat="43.43005" lon="6.05506">
        <ele>327</ele>
        <time>2016-04-20T13:00:01Z</time>
      </trkpt>
      <trkpt lat="43.43005" lon="6.05506">
        <ele>327</ele>
        <time>2016-04-20T13:00:03Z</time>
      </trkpt>
      <trkpt lat="43.43005" lon="6.05506">
        <ele>326.79998779297</ele>
        <time>2016-04-20T13:00:05Z</time>
      </trkpt>
      <trkpt lat="43.43005" lon="6.05506">
        <ele>326.79998779297</ele>
        <time>2016-04-20T13:00:07Z</time>
      </trkpt>
      <trkpt lat="43.43005" lon="6.05506">
        <ele>326.79998779297</ele>
        <time>2016-04-20T13:00:09Z</time>
      </trkpt>
      <trkpt lat="43.43005" lon="6.05506">
        <ele>326.79998779297</ele>
        <time>2016-04-20T13:00:11Z</time>
      </trkpt>
      <trkpt lat="43.43005" lon="6.05506">
        <ele>326.79998779297</ele>
        <time>2016-04-20T13:00:13Z</time>
      </trkpt>
      <trkpt lat="43.43005" lon="6.05506">
        <ele>326.60000610352</ele>
        <time>2016-04-20T13:00:15Z</time>
      </trkpt>
      <trkpt lat="43.43005" lon="6.05506">
        <ele>326.60000610352</ele>
        <time>2016-04-20T13:00:17Z</time>
      </trkpt>
      <trkpt lat="43.43005" lon="6.05506">
        <ele>326.60000610352</ele>
        <time>2016-04-20T13:00:19Z</time>
      </trkpt>
      <trkpt lat="43.43005" lon="6.05506">
        <ele>326.60000610352</ele>
        <time>2016-04-20T13:00:20Z</time>
      </trkpt>
      <trkpt lat="43.43005" lon="6.05506">
        <ele>326.60000610352</ele>
        <time>2016-04-20T13:00:21Z</time>
      </trkpt>
      <trkpt lat="43.43005" lon="6.05506">
        <ele>326.60000610352</ele>
        <time>2016-04-20T13:00:23Z</time>
      </trkpt>
      <trkpt lat="43.43005" lon="6.05506">
        <ele>326.79998779297</ele>
        <time>2016-04-20T13:00:25Z</time>
      </trkpt>
      <trkpt lat="43.43005" lon="6.05506">
        <ele>327</ele>
        <time>2016-04-20T13:00:27Z</time>
      </trkpt>
      <trkpt lat="43.43005" lon="6.05506">
        <ele>327</ele>
        <time>2016-04-20T13:00:29Z</time>
      </trkpt>
      <trkpt lat="43.43005" lon="6.05506">
        <ele>327.20001220703</ele>
        <time>2016-04-20T13:00:31Z</time>
      </trkpt>
      <trkpt lat="43.43005" lon="6.05506">
        <ele>327</ele>
        <time>2016-04-20T13:00:33Z</time>
      </trkpt>
      <trkpt lat="43.43005" lon="6.05506">
        <ele>327</ele>
        <time>2016-04-20T13:00:35Z</time>
      </trkpt>
      <trkpt lat="43.43005" lon="6.05506">
        <ele>327</ele>
        <time>2016-04-20T13:00:37Z</time>
      </trkpt>
      <trkpt lat="43.43005" lon="6.05506">
        <ele>327</ele>
        <time>2016-04-20T13:00:38Z</time>
      </trkpt>
      <trkpt lat="43.43005" lon="6.05506">
        <ele>327</ele>
        <time>2016-04-20T13:00:39Z</time>
      </trkpt>
      <trkpt lat="43.43005" lon="6.05506">
        <ele>327</ele>
        <time>2016-04-20T13:00:41Z</time>
      </trkpt>
      <trkpt lat="43.43005" lon="6.05506">
        <ele>327</ele>
        <time>2016-04-20T13:00:43Z</time>
      </trkpt>
      <trkpt lat="43.43005" lon="6.05506">
        <ele>326.79998779297</ele>
        <time>2016-04-20T13:00:45Z</time>
      </trkpt>
      <trkpt lat="43.43005" lon="6.05506">
        <ele>326.79998779297</ele>
        <time>2016-04-20T13:00:47Z</time>
      </trkpt>
      <trkpt lat="43.43005" lon="6.05506">
        <ele>326.60000610352</ele>
        <time>2016-04-20T13:00:49Z</time>
      </trkpt>
      <trkpt lat="43.43005" lon="6.05506">
        <ele>326.60000610352</ele>
        <time>2016-04-20T13:00:51Z</time>
      </trkpt>
      <trkpt lat="43.43005" lon="6.05506">
        <ele>326.39999389648</ele>
        <time>2016-04-20T13:00:53Z</time>
      </trkpt>
      <trkpt lat="43.43005" lon="6.05506">
        <ele>326.39999389648</ele>
        <time>2016-04-20T13:00:55Z</time>
      </trkpt>
      <trkpt lat="43.43005" lon="6.05506">
        <ele>326.60000610352</ele>
        <time>2016-04-20T13:00:57Z</time>
      </trkpt>
      <trkpt lat="43.43005" lon="6.05506">
        <ele>326.79998779297</ele>
        <time>2016-04-20T13:00:59Z</time>
      </trkpt>
      <trkpt lat="43.43005" lon="6.05506">
        <ele>326.79998779297</ele>
        <time>2016-04-20T13:01:01Z</time>
      </trkpt>
      <trkpt lat="43.43005" lon="6.05506">
        <ele>326.79998779297</ele>
        <time>2016-04-20T13:01:03Z</time>
      </trkpt>
      <trkpt lat="43.43006" lon="6.05507">
        <ele>326.79998779297</ele>
        <time>2016-04-20T13:01:05Z</time>
      </trkpt>
      <trkpt lat="43.43008" lon="6.05509">
        <ele>326.79998779297</ele>
        <time>2016-04-20T13:01:07Z</time>
      </trkpt>
      <trkpt lat="43.43011" lon="6.05515">
        <ele>326.79998779297</ele>
        <time>2016-04-20T13:01:09Z</time>
      </trkpt>
      <trkpt lat="43.43013" lon="6.05524">
        <ele>326.39999389648</ele>
        <time>2016-04-20T13:01:11Z</time>
      </trkpt>
      <trkpt lat="43.43014" lon="6.05533">
        <ele>325.39999389648</ele>
        <time>2016-04-20T13:01:13Z</time>
      </trkpt>
      <trkpt lat="43.43015" lon="6.05538">
        <ele>325</ele>
        <time>2016-04-20T13:01:14Z</time>
      </trkpt>
      <trkpt lat="43.43016" lon="6.05543">
        <ele>324.79998779297</ele>
        <time>2016-04-20T13:01:15Z</time>
      </trkpt>
      <trkpt lat="43.43018" lon="6.05547">
        <ele>324.79998779297</ele>
        <time>2016-04-20T13:01:16Z</time>
      </trkpt>
      <trkpt lat="43.43019" lon="6.0555">
        <ele>324.79998779297</ele>
        <time>2016-04-20T13:01:17Z</time>
      </trkpt>
      <trkpt lat="43.4302" lon="6.05555">
        <ele>324.79998779297</ele>
        <time>2016-04-20T13:01:19Z</time>
      </trkpt>
      <trkpt lat="43.43021" lon="6.05562">
        <ele>325</ele>
        <time>2016-04-20T13:01:21Z</time>
      </trkpt>
      <trkpt lat="43.43022" lon="6.05566">
        <ele>325</ele>
        <time>2016-04-20T13:01:22Z</time>
      </trkpt>
      <trkpt lat="43.43023" lon="6.05571">
        <ele>324.79998779297</ele>
        <time>2016-04-20T13:01:23Z</time>
      </trkpt>
      <trkpt lat="43.43026" lon="6.0558">
        <ele>324.60000610352</ele>
        <time>2016-04-20T13:01:25Z</time>
      </trkpt>
      <trkpt lat="43.43027" lon="6.0559">
        <ele>324.20001220703</ele>
        <time>2016-04-20T13:01:27Z</time>
      </trkpt>
      <trkpt lat="43.43029" lon="6.05595">
        <ele>323.79998779297</ele>
        <time>2016-04-20T13:01:28Z</time>
      </trkpt>
      <trkpt lat="43.43029" lon="6.05601">
        <ele>323.60000610352</ele>
        <time>2016-04-20T13:01:29Z</time>
      </trkpt>
      <trkpt lat="43.43029" lon="6.05612">
        <ele>323.39999389648</ele>
        <time>2016-04-20T13:01:31Z</time>
      </trkpt>
      <trkpt lat="43.43028" lon="6.05617">
        <ele>322.79998779297</ele>
        <time>2016-04-20T13:01:32Z</time>
      </trkpt>
      <trkpt lat="43.43027" lon="6.05623">
        <ele>322.20001220703</ele>
        <time>2016-04-20T13:01:33Z</time>
      </trkpt>
      <trkpt lat="43.43027" lon="6.0563">
        <ele>321.79998779297</ele>
        <time>2016-04-20T13:01:34Z</time>
      </trkpt>
      <trkpt lat="43.43026" lon="6.05636">
        <ele>321.39999389648</ele>
        <time>2016-04-20T13:01:35Z</time>
      </trkpt>
      <trkpt lat="43.43024" lon="6.0565">
        <ele>321</ele>
        <time>2016-04-20T13:01:37Z</time>
      </trkpt>
      <trkpt lat="43.43024" lon="6.05657">
        <ele>321</ele>
        <time>2016-04-20T13:01:38Z</time>
      </trkpt>
      <trkpt lat="43.43024" lon="6.05664">
        <ele>320.60000610352</ele>
        <time>2016-04-20T13:01:39Z</time>
      </trkpt>
      <trkpt lat="43.43025" lon="6.0567">
        <ele>320.39999389648</ele>
        <time>2016-04-20T13:01:40Z</time>
      </trkpt>
      <trkpt lat="43.43026" lon="6.05677">
        <ele>319.79998779297</ele>
        <time>2016-04-20T13:01:41Z</time>
      </trkpt>
      <trkpt lat="43.43026" lon="6.05684">
        <ele>319.60000610352</ele>
        <time>2016-04-20T13:01:42Z</time>
      </trkpt>
      <trkpt lat="43.43027" lon="6.0569">
        <ele>319.20001220703</ele>
        <time>2016-04-20T13:01:43Z</time>
      </trkpt>
      <trkpt lat="43.43023" lon="6.057">
        <ele>318.20001220703</ele>
        <time>2016-04-20T13:01:45Z</time>
      </trkpt>
      <trkpt lat="43.43021" lon="6.05709">
        <ele>317.39999389648</ele>
        <time>2016-04-20T13:01:47Z</time>
      </trkpt>
      <trkpt lat="43.4302" lon="6.05715">
        <ele>317</ele>
        <time>2016-04-20T13:01:48Z</time>
      </trkpt>
      <trkpt lat="43.43018" lon="6.05722">
        <ele>316.60000610352</ele>
        <time>2016-04-20T13:01:49Z</time>
      </trkpt>
      <trkpt lat="43.43014" lon="6.05734">
        <ele>316.20001220703</ele>
        <time>2016-04-20T13:01:51Z</time>
      </trkpt>
      <trkpt lat="43.4301" lon="6.05738">
        <ele>315.79998779297</ele>
        <time>2016-04-20T13:01:52Z</time>
      </trkpt>
      <trkpt lat="43.43007" lon="6.05742">
        <ele>315.60000610352</ele>
        <time>2016-04-20T13:01:53Z</time>
      </trkpt>
      <trkpt lat="43.43003" lon="6.05753">
        <ele>315</ele>
        <time>2016-04-20T13:01:55Z</time>
      </trkpt>
      <trkpt lat="43.43002" lon="6.05759">
        <ele>315</ele>
        <time>2016-04-20T13:01:56Z</time>
      </trkpt>
      <trkpt lat="43.43002" lon="6.05765">
        <ele>314.60000610352</ele>
        <time>2016-04-20T13:01:57Z</time>
      </trkpt>
      <trkpt lat="43.43" lon="6.05775">
        <ele>314.39999389648</ele>
        <time>2016-04-20T13:01:59Z</time>
      </trkpt>
      <trkpt lat="43.42999" lon="6.05783">
        <ele>314.39999389648</ele>
        <time>2016-04-20T13:02:01Z</time>
      </trkpt>
      <trkpt lat="43.43" lon="6.0579">
        <ele>314.20001220703</ele>
        <time>2016-04-20T13:02:03Z</time>
      </trkpt>
      <trkpt lat="43.43" lon="6.05793">
        <ele>313.79998779297</ele>
        <time>2016-04-20T13:02:04Z</time>
      </trkpt>
      <trkpt lat="43.43002" lon="6.05796">
        <ele>313.60000610352</ele>
        <time>2016-04-20T13:02:05Z</time>
      </trkpt>
      <trkpt lat="43.43002" lon="6.05802">
        <ele>312.60000610352</ele>
        <time>2016-04-20T13:02:07Z</time>
      </trkpt>
      <trkpt lat="43.43003" lon="6.05805">
        <ele>312</ele>
        <time>2016-04-20T13:02:08Z</time>
      </trkpt>
      <trkpt lat="43.43002" lon="6.05808">
        <ele>311.79998779297</ele>
        <time>2016-04-20T13:02:09Z</time>
      </trkpt>
      <trkpt lat="43.43002" lon="6.05816">
        <ele>311.39999389648</ele>
        <time>2016-04-20T13:02:11Z</time>
      </trkpt>
      <trkpt lat="43.43002" lon="6.05828">
        <ele>311.20001220703</ele>
        <time>2016-04-20T13:02:13Z</time>
      </trkpt>
      <trkpt lat="43.43003" lon="6.05834">
        <ele>311.20001220703</ele>
        <time>2016-04-20T13:02:14Z</time>
      </trkpt>
      <trkpt lat="43.43003" lon="6.0584">
        <ele>311</ele>
        <time>2016-04-20T13:02:15Z</time>
      </trkpt>
      <trkpt lat="43.43003" lon="6.05844">
        <ele>309</ele>
        <time>2016-04-20T13:02:16Z</time>
      </trkpt>
      <trkpt lat="43.43005" lon="6.05848">
        <ele>308</ele>
        <time>2016-04-20T13:02:17Z</time>
      </trkpt>
      <trkpt lat="43.43007" lon="6.05851">
        <ele>307.39999389648</ele>
        <time>2016-04-20T13:02:18Z</time>
      </trkpt>
      <trkpt lat="43.4301" lon="6.05854">
        <ele>306.60000610352</ele>
        <time>2016-04-20T13:02:19Z</time>
      </trkpt>
      <trkpt lat="43.43013" lon="6.05857">
        <ele>306</ele>
        <time>2016-04-20T13:02:20Z</time>
      </trkpt>
      <trkpt lat="43.43017" lon="6.05859">
        <ele>305.39999389648</ele>
        <time>2016-04-20T13:02:21Z</time>
      </trkpt>
      <trkpt lat="43.43021" lon="6.0586">
        <ele>304.20001220703</ele>
        <time>2016-04-20T13:02:22Z</time>
      </trkpt>
      <trkpt lat="43.43025" lon="6.05861">
        <ele>303</ele>
        <time>2016-04-20T13:02:23Z</time>
      </trkpt>
      <trkpt lat="43.4303" lon="6.05861">
        <ele>301.60000610352</ele>
        <time>2016-04-20T13:02:24Z</time>
      </trkpt>
      <trkpt lat="43.43034" lon="6.0586">
        <ele>301</ele>
        <time>2016-04-20T13:02:25Z</time>
      </trkpt>
      <trkpt lat="43.43038" lon="6.05859">
        <ele>300.79998779297</ele>
        <time>2016-04-20T13:02:26Z</time>
      </trkpt>
      <trkpt lat="43.43042" lon="6.05858">
        <ele>300.60000610352</ele>
        <time>2016-04-20T13:02:27Z</time>
      </trkpt>
      <trkpt lat="43.43048" lon="6.05855">
        <ele>299.60000610352</ele>
        <time>2016-04-20T13:02:29Z</time>
      </trkpt>
      <trkpt lat="43.43052" lon="6.05854">
        <ele>298.79998779297</ele>
        <time>2016-04-20T13:02:30Z</time>
      </trkpt>
      <trkpt lat="43.43056" lon="6.05853">
        <ele>297.79998779297</ele>
        <time>2016-04-20T13:02:31Z</time>
      </trkpt>
      <trkpt lat="43.43061" lon="6.05852">
        <ele>296.20001220703</ele>
        <time>2016-04-20T13:02:32Z</time>
      </trkpt>
      <trkpt lat="43.43065" lon="6.05852">
        <ele>295.39999389648</ele>
        <time>2016-04-20T13:02:33Z</time>
      </trkpt>
      <trkpt lat="43.43068" lon="6.05852">
        <ele>294.60000610352</ele>
        <time>2016-04-20T13:02:34Z</time>
      </trkpt>
      <trkpt lat="43.43071" lon="6.05852">
        <ele>294</ele>
        <time>2016-04-20T13:02:35Z</time>
      </trkpt>
      <trkpt lat="43.43075" lon="6.05852">
        <ele>293.20001220703</ele>
        <time>2016-04-20T13:02:36Z</time>
      </trkpt>
      <trkpt lat="43.43078" lon="6.05851">
        <ele>292.60000610352</ele>
        <time>2016-04-20T13:02:37Z</time>
      </trkpt>
      <trkpt lat="43.43082" lon="6.0585">
        <ele>291.79998779297</ele>
        <time>2016-04-20T13:02:38Z</time>
      </trkpt>
      <trkpt lat="43.43085" lon="6.05848">
        <ele>291.39999389648</ele>
        <time>2016-04-20T13:02:39Z</time>
      </trkpt>
      <trkpt lat="43.43089" lon="6.05847">
        <ele>290.79998779297</ele>
        <time>2016-04-20T13:02:40Z</time>
      </trkpt>
      <trkpt lat="43.43092" lon="6.05846">
        <ele>290.39999389648</ele>
        <time>2016-04-20T13:02:41Z</time>
      </trkpt>
      <trkpt lat="43.43098" lon="6.05846">
        <ele>288.79998779297</ele>
        <time>2016-04-20T13:02:43Z</time>
      </trkpt>
      <trkpt lat="43.43101" lon="6.05845">
        <ele>288.39999389648</ele>
        <time>2016-04-20T13:02:44Z</time>
      </trkpt>
      <trkpt lat="43.43104" lon="6.05844">
        <ele>288</ele>
        <time>2016-04-20T13:02:45Z</time>
      </trkpt>
      <trkpt lat="43.43107" lon="6.05844">
        <ele>287.39999389648</ele>
        <time>2016-04-20T13:02:46Z</time>
      </trkpt>
      <trkpt lat="43.43111" lon="6.05845">
        <ele>286.79998779297</ele>
        <time>2016-04-20T13:02:47Z</time>
      </trkpt>
      <trkpt lat="43.43115" lon="6.05845">
        <ele>285.60000610352</ele>
        <time>2016-04-20T13:02:48Z</time>
      </trkpt>
      <trkpt lat="43.4312" lon="6.05845">
        <ele>284.60000610352</ele>
        <time>2016-04-20T13:02:49Z</time>
      </trkpt>
      <trkpt lat="43.43124" lon="6.05845">
        <ele>284</ele>
        <time>2016-04-20T13:02:50Z</time>
      </trkpt>
      <trkpt lat="43.43129" lon="6.05845">
        <ele>283.60000610352</ele>
        <time>2016-04-20T13:02:51Z</time>
      </trkpt>
      <trkpt lat="43.43134" lon="6.05844">
        <ele>282.60000610352</ele>
        <time>2016-04-20T13:02:52Z</time>
      </trkpt>
      <trkpt lat="43.43139" lon="6.05843">
        <ele>281.79998779297</ele>
        <time>2016-04-20T13:02:53Z</time>
      </trkpt>
      <trkpt lat="43.43143" lon="6.05842">
        <ele>280.79998779297</ele>
        <time>2016-04-20T13:02:54Z</time>
      </trkpt>
      <trkpt lat="43.43148" lon="6.05841">
        <ele>280</ele>
        <time>2016-04-20T13:02:55Z</time>
      </trkpt>
      <trkpt lat="43.43153" lon="6.05839">
        <ele>279</ele>
        <time>2016-04-20T13:02:56Z</time>
      </trkpt>
      <trkpt lat="43.43157" lon="6.05837">
        <ele>278.20001220703</ele>
        <time>2016-04-20T13:02:57Z</time>
      </trkpt>
      <trkpt lat="43.43162" lon="6.05836">
        <ele>277.60000610352</ele>
        <time>2016-04-20T13:02:58Z</time>
      </trkpt>
      <trkpt lat="43.43168" lon="6.05834">
        <ele>277</ele>
        <time>2016-04-20T13:02:59Z</time>
      </trkpt>
      <trkpt lat="43.43174" lon="6.05832">
        <ele>276.39999389648</ele>
        <time>2016-04-20T13:03:00Z</time>
      </trkpt>
      <trkpt lat="43.4318" lon="6.05829">
        <ele>275.39999389648</ele>
        <time>2016-04-20T13:03:01Z</time>
      </trkpt>
      <trkpt lat="43.43183" lon="6.05827">
        <ele>274.60000610352</ele>
        <time>2016-04-20T13:03:02Z</time>
      </trkpt>
      <trkpt lat="43.43184" lon="6.05825">
        <ele>273.79998779297</ele>
        <time>2016-04-20T13:03:03Z</time>
      </trkpt>
      <trkpt lat="43.43184" lon="6.05825">
        <ele>273</ele>
        <time>2016-04-20T13:03:05Z</time>
      </trkpt>
      <trkpt lat="43.43183" lon="6.05825">
        <ele>272.79998779297</ele>
        <time>2016-04-20T13:03:07Z</time>
      </trkpt>
      <trkpt lat="43.43183" lon="6.05824">
        <ele>272.60000610352</ele>
        <time>2016-04-20T13:03:09Z</time>
      </trkpt>
      <trkpt lat="43.43183" lon="6.05824">
        <ele>272.60000610352</ele>
        <time>2016-04-20T13:03:11Z</time>
      </trkpt>
      <trkpt lat="43.43183" lon="6.05824">
        <ele>272.39999389648</ele>
        <time>2016-04-20T13:03:13Z</time>
      </trkpt>
      <trkpt lat="43.43183" lon="6.05824">
        <ele>272.39999389648</ele>
        <time>2016-04-20T13:03:15Z</time>
      </trkpt>
      <trkpt lat="43.43183" lon="6.05824">
        <ele>272.39999389648</ele>
        <time>2016-04-20T13:03:17Z</time>
      </trkpt>
      <trkpt lat="43.43183" lon="6.05824">
        <ele>272.60000610352</ele>
        <time>2016-04-20T13:03:19Z</time>
      </trkpt>
      <trkpt lat="43.43183" lon="6.05825">
        <ele>272.60000610352</ele>
        <time>2016-04-20T13:03:21Z</time>
      </trkpt>
      <trkpt lat="43.43183" lon="6.05825">
        <ele>272.60000610352</ele>
        <time>2016-04-20T13:03:23Z</time>
      </trkpt>
      <trkpt lat="43.43183" lon="6.05825">
        <ele>272.60000610352</ele>
        <time>2016-04-20T13:03:25Z</time>
      </trkpt>
      <trkpt lat="43.43183" lon="6.05825">
        <ele>272.60000610352</ele>
        <time>2016-04-20T13:03:27Z</time>
      </trkpt>
      <trkpt lat="43.43183" lon="6.05825">
        <ele>272.60000610352</ele>
        <time>2016-04-20T13:03:29Z</time>
      </trkpt>
      <trkpt lat="43.43183" lon="6.05825">
        <ele>272.79998779297</ele>
        <time>2016-04-20T13:03:31Z</time>
      </trkpt>
      <trkpt lat="43.43183" lon="6.05825">
        <ele>272.79998779297</ele>
        <time>2016-04-20T13:03:33Z</time>
      </trkpt>
      <trkpt lat="43.43183" lon="6.05825">
        <ele>273</ele>
        <time>2016-04-20T13:03:35Z</time>
      </trkpt>
      <trkpt lat="43.43183" lon="6.05825">
        <ele>273</ele>
        <time>2016-04-20T13:03:37Z</time>
      </trkpt>
      <trkpt lat="43.43183" lon="6.05825">
        <ele>273.20001220703</ele>
        <time>2016-04-20T13:03:39Z</time>
      </trkpt>
      <trkpt lat="43.43183" lon="6.05825">
        <ele>273.20001220703</ele>
        <time>2016-04-20T13:03:41Z</time>
      </trkpt>
      <trkpt lat="43.43183" lon="6.05825">
        <ele>273.20001220703</ele>
        <time>2016-04-20T13:03:42Z</time>
      </trkpt>
      <trkpt lat="43.43183" lon="6.05825">
        <ele>273.20001220703</ele>
        <time>2016-04-20T13:03:43Z</time>
      </trkpt>
      <trkpt lat="43.43183" lon="6.05825">
        <ele>273.39999389648</ele>
        <time>2016-04-20T13:03:45Z</time>
      </trkpt>
      <trkpt lat="43.43183" lon="6.05825">
        <ele>273.39999389648</ele>
        <time>2016-04-20T13:03:47Z</time>
      </trkpt>
      <trkpt lat="43.43183" lon="6.05825">
        <ele>273.39999389648</ele>
        <time>2016-04-20T13:03:49Z</time>
      </trkpt>
      <trkpt lat="43.43183" lon="6.05825">
        <ele>273.39999389648</ele>
        <time>2016-04-20T13:03:51Z</time>
      </trkpt>
      <trkpt lat="43.43183" lon="6.05825">
        <ele>273.39999389648</ele>
        <time>2016-04-20T13:03:53Z</time>
      </trkpt>
      <trkpt lat="43.43183" lon="6.05825">
        <ele>273.39999389648</ele>
        <time>2016-04-20T13:03:55Z</time>
      </trkpt>
      <trkpt lat="43.43183" lon="6.05825">
        <ele>273.39999389648</ele>
        <time>2016-04-20T13:03:57Z</time>
      </trkpt>
      <trkpt lat="43.43183" lon="6.05825">
        <ele>273.39999389648</ele>
        <time>2016-04-20T13:03:59Z</time>
      </trkpt>
      <trkpt lat="43.43183" lon="6.05825">
        <ele>273.39999389648</ele>
        <time>2016-04-20T13:04:01Z</time>
      </trkpt>
      <trkpt lat="43.43183" lon="6.05825">
        <ele>273.39999389648</ele>
        <time>2016-04-20T13:04:03Z</time>
      </trkpt>
      <trkpt lat="43.43183" lon="6.05825">
        <ele>273.20001220703</ele>
        <time>2016-04-20T13:04:05Z</time>
      </trkpt>
      <trkpt lat="43.43183" lon="6.05825">
        <ele>273.20001220703</ele>
        <time>2016-04-20T13:04:07Z</time>
      </trkpt>
      <trkpt lat="43.43183" lon="6.05825">
        <ele>273.20001220703</ele>
        <time>2016-04-20T13:04:08Z</time>
      </trkpt>
      <trkpt lat="43.43183" lon="6.05825">
        <ele>273.20001220703</ele>
        <time>2016-04-20T13:04:09Z</time>
      </trkpt>
      <trkpt lat="43.43183" lon="6.05825">
        <ele>273.39999389648</ele>
        <time>2016-04-20T13:04:11Z</time>
      </trkpt>
      <trkpt lat="43.43183" lon="6.05825">
        <ele>273.39999389648</ele>
        <time>2016-04-20T13:04:13Z</time>
      </trkpt>
      <trkpt lat="43.43183" lon="6.05825">
        <ele>273.60000610352</ele>
        <time>2016-04-20T13:04:15Z</time>
      </trkpt>
      <trkpt lat="43.43183" lon="6.05825">
        <ele>273.60000610352</ele>
        <time>2016-04-20T13:04:17Z</time>
      </trkpt>
      <trkpt lat="43.43183" lon="6.05825">
        <ele>273.60000610352</ele>
        <time>2016-04-20T13:04:19Z</time>
      </trkpt>
      <trkpt lat="43.43183" lon="6.05825">
        <ele>273.39999389648</ele>
        <time>2016-04-20T13:04:21Z</time>
      </trkpt>
      <trkpt lat="43.43183" lon="6.05825">
        <ele>273.39999389648</ele>
        <time>2016-04-20T13:04:23Z</time>
      </trkpt>
      <trkpt lat="43.43183" lon="6.05825">
        <ele>273.20001220703</ele>
        <time>2016-04-20T13:04:25Z</time>
      </trkpt>
      <trkpt lat="43.43183" lon="6.05825">
        <ele>273.20001220703</ele>
        <time>2016-04-20T13:04:27Z</time>
      </trkpt>
      <trkpt lat="43.43183" lon="6.05825">
        <ele>273.20001220703</ele>
        <time>2016-04-20T13:04:29Z</time>
      </trkpt>
      <trkpt lat="43.43183" lon="6.05825">
        <ele>273.39999389648</ele>
        <time>2016-04-20T13:04:31Z</time>
      </trkpt>
      <trkpt lat="43.43183" lon="6.05825">
        <ele>273.39999389648</ele>
        <time>2016-04-20T13:04:33Z</time>
      </trkpt>
      <trkpt lat="43.43183" lon="6.05825">
        <ele>273.39999389648</ele>
        <time>2016-04-20T13:04:35Z</time>
      </trkpt>
      <trkpt lat="43.43183" lon="6.05825">
        <ele>273.39999389648</ele>
        <time>2016-04-20T13:04:37Z</time>
      </trkpt>
      <trkpt lat="43.43183" lon="6.05825">
        <ele>273.60000610352</ele>
        <time>2016-04-20T13:04:39Z</time>
      </trkpt>
      <trkpt lat="43.43183" lon="6.05825">
        <ele>273.60000610352</ele>
        <time>2016-04-20T13:04:41Z</time>
      </trkpt>
      <trkpt lat="43.43183" lon="6.05825">
        <ele>273.60000610352</ele>
        <time>2016-04-20T13:04:43Z</time>
      </trkpt>
      <trkpt lat="43.43183" lon="6.05825">
        <ele>273.60000610352</ele>
        <time>2016-04-20T13:04:45Z</time>
      </trkpt>
      <trkpt lat="43.43183" lon="6.05825">
        <ele>273.20001220703</ele>
        <time>2016-04-20T13:04:47Z</time>
      </trkpt>
      <trkpt lat="43.43183" lon="6.05825">
        <ele>273.20001220703</ele>
        <time>2016-04-20T13:04:49Z</time>
      </trkpt>
      <trkpt lat="43.43183" lon="6.05825">
        <ele>273.39999389648</ele>
        <time>2016-04-20T13:04:51Z</time>
      </trkpt>
      <trkpt lat="43.43183" lon="6.05825">
        <ele>273.39999389648</ele>
        <time>2016-04-20T13:04:53Z</time>
      </trkpt>
      <trkpt lat="43.43183" lon="6.05825">
        <ele>273.60000610352</ele>
        <time>2016-04-20T13:04:55Z</time>
      </trkpt>
      <trkpt lat="43.43183" lon="6.05825">
        <ele>273.60000610352</ele>
        <time>2016-04-20T13:04:57Z</time>
      </trkpt>
      <trkpt lat="43.43183" lon="6.05825">
        <ele>273.60000610352</ele>
        <time>2016-04-20T13:04:59Z</time>
      </trkpt>
      <trkpt lat="43.43183" lon="6.05825">
        <ele>273.39999389648</ele>
        <time>2016-04-20T13:05:01Z</time>
      </trkpt>
      <trkpt lat="43.43183" lon="6.05825">
        <ele>273.20001220703</ele>
        <time>2016-04-20T13:05:03Z</time>
      </trkpt>
      <trkpt lat="43.43183" lon="6.05825">
        <ele>273.20001220703</ele>
        <time>2016-04-20T13:05:05Z</time>
      </trkpt>
      <trkpt lat="43.43183" lon="6.05825">
        <ele>273.20001220703</ele>
        <time>2016-04-20T13:05:07Z</time>
      </trkpt>
      <trkpt lat="43.43183" lon="6.05825">
        <ele>273.20001220703</ele>
        <time>2016-04-20T13:05:09Z</time>
      </trkpt>
      <trkpt lat="43.43183" lon="6.05825">
        <ele>273.20001220703</ele>
        <time>2016-04-20T13:05:11Z</time>
      </trkpt>
      <trkpt lat="43.43183" lon="6.05825">
        <ele>273.20001220703</ele>
        <time>2016-04-20T13:05:13Z</time>
      </trkpt>
      <trkpt lat="43.43183" lon="6.05825">
        <ele>273.20001220703</ele>
        <time>2016-04-20T13:05:15Z</time>
      </trkpt>
      <trkpt lat="43.43183" lon="6.05825">
        <ele>273.20001220703</ele>
        <time>2016-04-20T13:05:17Z</time>
      </trkpt>
      <trkpt lat="43.43183" lon="6.05825">
        <ele>273.39999389648</ele>
        <time>2016-04-20T13:05:19Z</time>
      </trkpt>
      <trkpt lat="43.43183" lon="6.05825">
        <ele>273.39999389648</ele>
        <time>2016-04-20T13:05:21Z</time>
      </trkpt>
      <trkpt lat="43.43183" lon="6.05825">
        <ele>273.39999389648</ele>
        <time>2016-04-20T13:05:23Z</time>
      </trkpt>
      <trkpt lat="43.43183" lon="6.05824">
        <ele>273.20001220703</ele>
        <time>2016-04-20T13:05:25Z</time>
      </trkpt>
      <trkpt lat="43.43183" lon="6.05824">
        <ele>273.39999389648</ele>
        <time>2016-04-20T13:05:27Z</time>
      </trkpt>
      <trkpt lat="43.43183" lon="6.05824">
        <ele>273.39999389648</ele>
        <time>2016-04-20T13:05:29Z</time>
      </trkpt>
      <trkpt lat="43.43183" lon="6.05824">
        <ele>273.60000610352</ele>
        <time>2016-04-20T13:05:31Z</time>
      </trkpt>
      <trkpt lat="43.43183" lon="6.05822">
        <ele>273.60000610352</ele>
        <time>2016-04-20T13:05:33Z</time>
      </trkpt>
      <trkpt lat="43.43183" lon="6.0582">
        <ele>273.60000610352</ele>
        <time>2016-04-20T13:05:34Z</time>
      </trkpt>
      <trkpt lat="43.43184" lon="6.05819">
        <ele>273.60000610352</ele>
        <time>2016-04-20T13:05:35Z</time>
      </trkpt>
      <trkpt lat="43.43185" lon="6.05815">
        <ele>273.60000610352</ele>
        <time>2016-04-20T13:05:37Z</time>
      </trkpt>
      <trkpt lat="43.43187" lon="6.05811">
        <ele>273.60000610352</ele>
        <time>2016-04-20T13:05:39Z</time>
      </trkpt>
      <trkpt lat="43.43188" lon="6.05806">
        <ele>273.60000610352</ele>
        <time>2016-04-20T13:05:41Z</time>
      </trkpt>
      <trkpt lat="43.43191" lon="6.05801">
        <ele>273.60000610352</ele>
        <time>2016-04-20T13:05:43Z</time>
      </trkpt>
      <trkpt lat="43.43195" lon="6.05796">
        <ele>273.39999389648</ele>
        <time>2016-04-20T13:05:45Z</time>
      </trkpt>
      <trkpt lat="43.43197" lon="6.05792">
        <ele>273.20001220703</ele>
        <time>2016-04-20T13:05:46Z</time>
      </trkpt>
      <trkpt lat="43.432" lon="6.05788">
        <ele>273.20001220703</ele>
        <time>2016-04-20T13:05:47Z</time>
      </trkpt>
      <trkpt lat="43.43204" lon="6.05781">
        <ele>272.79998779297</ele>
        <time>2016-04-20T13:05:49Z</time>
      </trkpt>
      <trkpt lat="43.43206" lon="6.05779">
        <ele>272.39999389648</ele>
        <time>2016-04-20T13:05:50Z</time>
      </trkpt>
      <trkpt lat="43.43207" lon="6.05778">
        <ele>272.20001220703</ele>
        <time>2016-04-20T13:05:51Z</time>
      </trkpt>
      <trkpt lat="43.43208" lon="6.05776">
        <ele>271.79998779297</ele>
        <time>2016-04-20T13:05:53Z</time>
      </trkpt>
      <trkpt lat="43.43208" lon="6.05776">
        <ele>271.60000610352</ele>
        <time>2016-04-20T13:05:55Z</time>
      </trkpt>
      <trkpt lat="43.43208" lon="6.05775">
        <ele>271.60000610352</ele>
        <time>2016-04-20T13:05:57Z</time>
      </trkpt>
      <trkpt lat="43.43208" lon="6.05775">
        <ele>271.60000610352</ele>
        <time>2016-04-20T13:05:59Z</time>
      </trkpt>
      <trkpt lat="43.43208" lon="6.05775">
        <ele>271.60000610352</ele>
        <time>2016-04-20T13:06:01Z</time>
      </trkpt>
      <trkpt lat="43.43208" lon="6.05775">
        <ele>271.60000610352</ele>
        <time>2016-04-20T13:06:03Z</time>
      </trkpt>
      <trkpt lat="43.43208" lon="6.05775">
        <ele>271.60000610352</ele>
        <time>2016-04-20T13:06:05Z</time>
      </trkpt>
      <trkpt lat="43.43208" lon="6.05775">
        <ele>271.60000610352</ele>
        <time>2016-04-20T13:06:06Z</time>
      </trkpt>
      <trkpt lat="43.43208" lon="6.05775">
        <ele>271.60000610352</ele>
        <time>2016-04-20T13:06:07Z</time>
      </trkpt>
      <trkpt lat="43.43208" lon="6.05775">
        <ele>271.39999389648</ele>
        <time>2016-04-20T13:06:09Z</time>
      </trkpt>
      <trkpt lat="43.43208" lon="6.05775">
        <ele>271.39999389648</ele>
        <time>2016-04-20T13:06:11Z</time>
      </trkpt>
      <trkpt lat="43.43208" lon="6.05775">
        <ele>271.39999389648</ele>
        <time>2016-04-20T13:06:13Z</time>
      </trkpt>
      <trkpt lat="43.43208" lon="6.05775">
        <ele>271.39999389648</ele>
        <time>2016-04-20T13:06:15Z</time>
      </trkpt>
      <trkpt lat="43.43208" lon="6.05775">
        <ele>271.60000610352</ele>
        <time>2016-04-20T13:06:17Z</time>
      </trkpt>
      <trkpt lat="43.43208" lon="6.05775">
        <ele>271.60000610352</ele>
        <time>2016-04-20T13:06:19Z</time>
      </trkpt>
      <trkpt lat="43.43208" lon="6.05775">
        <ele>271.79998779297</ele>
        <time>2016-04-20T13:06:21Z</time>
      </trkpt>
      <trkpt lat="43.43208" lon="6.05775">
        <ele>271.79998779297</ele>
        <time>2016-04-20T13:06:23Z</time>
      </trkpt>
      <trkpt lat="43.43208" lon="6.05775">
        <ele>271.79998779297</ele>
        <time>2016-04-20T13:06:24Z</time>
      </trkpt>
      <trkpt lat="43.43208" lon="6.05775">
        <ele>271.79998779297</ele>
        <time>2016-04-20T13:06:25Z</time>
      </trkpt>
      <trkpt lat="43.43208" lon="6.05775">
        <ele>271.79998779297</ele>
        <time>2016-04-20T13:06:27Z</time>
      </trkpt>
      <trkpt lat="43.43208" lon="6.05775">
        <ele>271.79998779297</ele>
        <time>2016-04-20T13:06:29Z</time>
      </trkpt>
      <trkpt lat="43.43208" lon="6.05775">
        <ele>271.79998779297</ele>
        <time>2016-04-20T13:06:31Z</time>
      </trkpt>
      <trkpt lat="43.43208" lon="6.05775">
        <ele>271.60000610352</ele>
        <time>2016-04-20T13:06:33Z</time>
      </trkpt>
      <trkpt lat="43.43208" lon="6.05775">
        <ele>271.79998779297</ele>
        <time>2016-04-20T13:06:35Z</time>
      </trkpt>
      <trkpt lat="43.43208" lon="6.05775">
        <ele>271.79998779297</ele>
        <time>2016-04-20T13:06:37Z</time>
      </trkpt>
      <trkpt lat="43.43208" lon="6.05775">
        <ele>272</ele>
        <time>2016-04-20T13:06:39Z</time>
      </trkpt>
      <trkpt lat="43.43208" lon="6.05775">
        <ele>272.20001220703</ele>
        <time>2016-04-20T13:06:41Z</time>
      </trkpt>
      <trkpt lat="43.43208" lon="6.05775">
        <ele>272.20001220703</ele>
        <time>2016-04-20T13:06:43Z</time>
      </trkpt>
      <trkpt lat="43.43208" lon="6.05775">
        <ele>272.20001220703</ele>
        <time>2016-04-20T13:06:45Z</time>
      </trkpt>
      <trkpt lat="43.43208" lon="6.05775">
        <ele>272.20001220703</ele>
        <time>2016-04-20T13:06:47Z</time>
      </trkpt>
      <trkpt lat="43.43209" lon="6.05775">
        <ele>272.20001220703</ele>
        <time>2016-04-20T13:06:49Z</time>
      </trkpt>
      <trkpt lat="43.43209" lon="6.05775">
        <ele>272</ele>
        <time>2016-04-20T13:06:51Z</time>
      </trkpt>
      <trkpt lat="43.43209" lon="6.05775">
        <ele>271.79998779297</ele>
        <time>2016-04-20T13:06:53Z</time>
      </trkpt>
      <trkpt lat="43.43209" lon="6.05775">
        <ele>271.79998779297</ele>
        <time>2016-04-20T13:06:55Z</time>
      </trkpt>
      <trkpt lat="43.43209" lon="6.05775">
        <ele>271.79998779297</ele>
        <time>2016-04-20T13:06:57Z</time>
      </trkpt>
      <trkpt lat="43.43209" lon="6.05775">
        <ele>272</ele>
        <time>2016-04-20T13:06:58Z</time>
      </trkpt>
      <trkpt lat="43.43209" lon="6.05775">
        <ele>272</ele>
        <time>2016-04-20T13:06:59Z</time>
      </trkpt>
      <trkpt lat="43.43209" lon="6.05774">
        <ele>272.39999389648</ele>
        <time>2016-04-20T13:07:01Z</time>
      </trkpt>
      <trkpt lat="43.43209" lon="6.05774">
        <ele>272.39999389648</ele>
        <time>2016-04-20T13:07:02Z</time>
      </trkpt>
      <trkpt lat="43.43209" lon="6.05774">
        <ele>272.39999389648</ele>
        <time>2016-04-20T13:07:03Z</time>
      </trkpt>
      <trkpt lat="43.43211" lon="6.05771">
        <ele>272.20001220703</ele>
        <time>2016-04-20T13:07:05Z</time>
      </trkpt>
      <trkpt lat="43.43211" lon="6.05768">
        <ele>272</ele>
        <time>2016-04-20T13:07:07Z</time>
      </trkpt>
      <trkpt lat="43.43212" lon="6.05764">
        <ele>271.79998779297</ele>
        <time>2016-04-20T13:07:09Z</time>
      </trkpt>
      <trkpt lat="43.43212" lon="6.05758">
        <ele>271.60000610352</ele>
        <time>2016-04-20T13:07:11Z</time>
      </trkpt>
      <trkpt lat="43.43213" lon="6.0575">
        <ele>271.60000610352</ele>
        <time>2016-04-20T13:07:13Z</time>
      </trkpt>
      <trkpt lat="43.43214" lon="6.05741">
        <ele>271.79998779297</ele>
        <time>2016-04-20T13:07:15Z</time>
      </trkpt>
      <trkpt lat="43.43215" lon="6.05732">
        <ele>271.79998779297</ele>
        <time>2016-04-20T13:07:17Z</time>
      </trkpt>
      <trkpt lat="43.43216" lon="6.05722">
        <ele>271.79998779297</ele>
        <time>2016-04-20T13:07:19Z</time>
      </trkpt>
      <trkpt lat="43.43217" lon="6.05712">
        <ele>271.60000610352</ele>
        <time>2016-04-20T13:07:21Z</time>
      </trkpt>
      <trkpt lat="43.43219" lon="6.05702">
        <ele>271.60000610352</ele>
        <time>2016-04-20T13:07:23Z</time>
      </trkpt>
      <trkpt lat="43.4322" lon="6.05691">
        <ele>271.39999389648</ele>
        <time>2016-04-20T13:07:25Z</time>
      </trkpt>
      <trkpt lat="43.43221" lon="6.0568">
        <ele>271.20001220703</ele>
        <time>2016-04-20T13:07:27Z</time>
      </trkpt>
      <trkpt lat="43.43221" lon="6.05674">
        <ele>271.20001220703</ele>
        <time>2016-04-20T13:07:28Z</time>
      </trkpt>
      <trkpt lat="43.43221" lon="6.05669">
        <ele>271.20001220703</ele>
        <time>2016-04-20T13:07:29Z</time>
      </trkpt>
      <trkpt lat="43.43221" lon="6.05663">
        <ele>271.20001220703</ele>
        <time>2016-04-20T13:07:30Z</time>
      </trkpt>
      <trkpt lat="43.43222" lon="6.05657">
        <ele>271.20001220703</ele>
        <time>2016-04-20T13:07:31Z</time>
      </trkpt>
      <trkpt lat="43.43223" lon="6.05645">
        <ele>271.20001220703</ele>
        <time>2016-04-20T13:07:33Z</time>
      </trkpt>
      <trkpt lat="43.43224" lon="6.05638">
        <ele>271.20001220703</ele>
        <time>2016-04-20T13:07:34Z</time>
      </trkpt>
      <trkpt lat="43.43225" lon="6.05631">
        <ele>271.20001220703</ele>
        <time>2016-04-20T13:07:35Z</time>
      </trkpt>
      <trkpt lat="43.43226" lon="6.05618">
        <ele>271.20001220703</ele>
        <time>2016-04-20T13:07:37Z</time>
      </trkpt>
      <trkpt lat="43.43228" lon="6.05603">
        <ele>271.20001220703</ele>
        <time>2016-04-20T13:07:39Z</time>
      </trkpt>
      <trkpt lat="43.43229" lon="6.05589">
        <ele>271</ele>
        <time>2016-04-20T13:07:41Z</time>
      </trkpt>
      <trkpt lat="43.4323" lon="6.05575">
        <ele>270.60000610352</ele>
        <time>2016-04-20T13:07:43Z</time>
      </trkpt>
      <trkpt lat="43.43233" lon="6.05563">
        <ele>270.39999389648</ele>
        <time>2016-04-20T13:07:45Z</time>
      </trkpt>
      <trkpt lat="43.43234" lon="6.05556">
        <ele>270.20001220703</ele>
        <time>2016-04-20T13:07:46Z</time>
      </trkpt>
      <trkpt lat="43.43236" lon="6.0555">
        <ele>270.20001220703</ele>
        <time>2016-04-20T13:07:47Z</time>
      </trkpt>
      <trkpt lat="43.43239" lon="6.05537">
        <ele>270.20001220703</ele>
        <time>2016-04-20T13:07:49Z</time>
      </trkpt>
      <trkpt lat="43.43243" lon="6.05523">
        <ele>270</ele>
        <time>2016-04-20T13:07:51Z</time>
      </trkpt>
      <trkpt lat="43.43245" lon="6.05516">
        <ele>270</ele>
        <time>2016-04-20T13:07:52Z</time>
      </trkpt>
      <trkpt lat="43.43248" lon="6.05508">
        <ele>269.39999389648</ele>
        <time>2016-04-20T13:07:53Z</time>
      </trkpt>
      <trkpt lat="43.43253" lon="6.05492">
        <ele>268.60000610352</ele>
        <time>2016-04-20T13:07:55Z</time>
      </trkpt>
      <trkpt lat="43.43255" lon="6.05483">
        <ele>268</ele>
        <time>2016-04-20T13:07:56Z</time>
      </trkpt>
      <trkpt lat="43.43258" lon="6.05474">
        <ele>267.60000610352</ele>
        <time>2016-04-20T13:07:57Z</time>
      </trkpt>
      <trkpt lat="43.43265" lon="6.05458">
        <ele>267.39999389648</ele>
        <time>2016-04-20T13:07:59Z</time>
      </trkpt>
      <trkpt lat="43.43269" lon="6.0545">
        <ele>266.79998779297</ele>
        <time>2016-04-20T13:08:00Z</time>
      </trkpt>
      <trkpt lat="43.43272" lon="6.05442">
        <ele>266.20001220703</ele>
        <time>2016-04-20T13:08:01Z</time>
      </trkpt>
      <trkpt lat="43.43275" lon="6.05434">
        <ele>265.79998779297</ele>
        <time>2016-04-20T13:08:02Z</time>
      </trkpt>
      <trkpt lat="43.43278" lon="6.05425">
        <ele>265.20001220703</ele>
        <time>2016-04-20T13:08:03Z</time>
      </trkpt>
      <trkpt lat="43.43285" lon="6.05407">
        <ele>264.79998779297</ele>
        <time>2016-04-20T13:08:05Z</time>
      </trkpt>
      <trkpt lat="43.43289" lon="6.05399">
        <ele>264.79998779297</ele>
        <time>2016-04-20T13:08:06Z</time>
      </trkpt>
      <trkpt lat="43.43293" lon="6.0539">
        <ele>264.79998779297</ele>
        <time>2016-04-20T13:08:07Z</time>
      </trkpt>
      <trkpt lat="43.43301" lon="6.05374">
        <ele>264.79998779297</ele>
        <time>2016-04-20T13:08:09Z</time>
      </trkpt>
      <trkpt lat="43.43304" lon="6.05367">
        <ele>264.79998779297</ele>
        <time>2016-04-20T13:08:10Z</time>
      </trkpt>
      <trkpt lat="43.43308" lon="6.05359">
        <ele>264.79998779297</ele>
        <time>2016-04-20T13:08:11Z</time>
      </trkpt>
      <trkpt lat="43.43316" lon="6.05342">
        <ele>265.20001220703</ele>
        <time>2016-04-20T13:08:13Z</time>
      </trkpt>
      <trkpt lat="43.43324" lon="6.05323">
        <ele>265.20001220703</ele>
        <time>2016-04-20T13:08:15Z</time>
      </trkpt>
      <trkpt lat="43.43332" lon="6.05304">
        <ele>265.20001220703</ele>
        <time>2016-04-20T13:08:17Z</time>
      </trkpt>
      <trkpt lat="43.4334" lon="6.05283">
        <ele>264.79998779297</ele>
        <time>2016-04-20T13:08:19Z</time>
      </trkpt>
      <trkpt lat="43.43348" lon="6.05261">
        <ele>264.39999389648</ele>
        <time>2016-04-20T13:08:21Z</time>
      </trkpt>
      <trkpt lat="43.43352" lon="6.05252">
        <ele>264.20001220703</ele>
        <time>2016-04-20T13:08:22Z</time>
      </trkpt>
      <trkpt lat="43.43356" lon="6.05242">
        <ele>264</ele>
        <time>2016-04-20T13:08:23Z</time>
      </trkpt>
      <trkpt lat="43.43362" lon="6.05225">
        <ele>263.60000610352</ele>
        <time>2016-04-20T13:08:25Z</time>
      </trkpt>
      <trkpt lat="43.43368" lon="6.05209">
        <ele>263.79998779297</ele>
        <time>2016-04-20T13:08:27Z</time>
      </trkpt>
      <trkpt lat="43.43373" lon="6.05194">
        <ele>264.20001220703</ele>
        <time>2016-04-20T13:08:29Z</time>
      </trkpt>
      <trkpt lat="43.43377" lon="6.0518">
        <ele>264.60000610352</ele>
        <time>2016-04-20T13:08:31Z</time>
      </trkpt>
      <trkpt lat="43.43378" lon="6.05174">
        <ele>264.79998779297</ele>
        <time>2016-04-20T13:08:32Z</time>
      </trkpt>
      <trkpt lat="43.4338" lon="6.05169">
        <ele>265</ele>
        <time>2016-04-20T13:08:33Z</time>
      </trkpt>
      <trkpt lat="43.43383" lon="6.05159">
        <ele>265.60000610352</ele>
        <time>2016-04-20T13:08:35Z</time>
      </trkpt>
      <trkpt lat="43.43384" lon="6.05155">
        <ele>265.79998779297</ele>
        <time>2016-04-20T13:08:36Z</time>
      </trkpt>
      <trkpt lat="43.43385" lon="6.0515">
        <ele>266</ele>
        <time>2016-04-20T13:08:37Z</time>
      </trkpt>
      <trkpt lat="43.43388" lon="6.05141">
        <ele>266.20001220703</ele>
        <time>2016-04-20T13:08:39Z</time>
      </trkpt>
      <trkpt lat="43.4339" lon="6.05134">
        <ele>266.60000610352</ele>
        <time>2016-04-20T13:08:41Z</time>
      </trkpt>
      <trkpt lat="43.43392" lon="6.05127">
        <ele>266.79998779297</ele>
        <time>2016-04-20T13:08:43Z</time>
      </trkpt>
      <trkpt lat="43.43394" lon="6.05121">
        <ele>267.20001220703</ele>
        <time>2016-04-20T13:08:45Z</time>
      </trkpt>
      <trkpt lat="43.43394" lon="6.05118">
        <ele>267.39999389648</ele>
        <time>2016-04-20T13:08:46Z</time>
      </trkpt>
      <trkpt lat="43.43395" lon="6.05116">
        <ele>267.60000610352</ele>
        <time>2016-04-20T13:08:47Z</time>
      </trkpt>
      <trkpt lat="43.43397" lon="6.05113">
        <ele>267.60000610352</ele>
        <time>2016-04-20T13:08:49Z</time>
      </trkpt>
      <trkpt lat="43.43398" lon="6.0511">
        <ele>267.60000610352</ele>
        <time>2016-04-20T13:08:51Z</time>
      </trkpt>
      <trkpt lat="43.43399" lon="6.05109">
        <ele>267.39999389648</ele>
        <time>2016-04-20T13:08:52Z</time>
      </trkpt>
      <trkpt lat="43.434" lon="6.05108">
        <ele>267.39999389648</ele>
        <time>2016-04-20T13:08:53Z</time>
      </trkpt>
      <trkpt lat="43.43401" lon="6.05105">
        <ele>267.39999389648</ele>
        <time>2016-04-20T13:08:55Z</time>
      </trkpt>
      <trkpt lat="43.43402" lon="6.05103">
        <ele>267.20001220703</ele>
        <time>2016-04-20T13:08:56Z</time>
      </trkpt>
      <trkpt lat="43.43402" lon="6.05101">
        <ele>267.20001220703</ele>
        <time>2016-04-20T13:08:57Z</time>
      </trkpt>
      <trkpt lat="43.43404" lon="6.05098">
        <ele>267.39999389648</ele>
        <time>2016-04-20T13:08:59Z</time>
      </trkpt>
      <trkpt lat="43.43405" lon="6.05093">
        <ele>267.60000610352</ele>
        <time>2016-04-20T13:09:01Z</time>
      </trkpt>
      <trkpt lat="43.43406" lon="6.05088">
        <ele>267.60000610352</ele>
        <time>2016-04-20T13:09:03Z</time>
      </trkpt>
      <trkpt lat="43.43407" lon="6.05085">
        <ele>267.60000610352</ele>
        <time>2016-04-20T13:09:04Z</time>
      </trkpt>
      <trkpt lat="43.43408" lon="6.05081">
        <ele>267.39999389648</ele>
        <time>2016-04-20T13:09:05Z</time>
      </trkpt>
      <trkpt lat="43.4341" lon="6.05072">
        <ele>267.20001220703</ele>
        <time>2016-04-20T13:09:07Z</time>
      </trkpt>
      <trkpt lat="43.43413" lon="6.05059">
        <ele>267</ele>
        <time>2016-04-20T13:09:09Z</time>
      </trkpt>
      <trkpt lat="43.43415" lon="6.05043">
        <ele>266.60000610352</ele>
        <time>2016-04-20T13:09:11Z</time>
      </trkpt>
      <trkpt lat="43.43418" lon="6.05027">
        <ele>266.20001220703</ele>
        <time>2016-04-20T13:09:13Z</time>
      </trkpt>
      <trkpt lat="43.43419" lon="6.05019">
        <ele>266</ele>
        <time>2016-04-20T13:09:14Z</time>
      </trkpt>
      <trkpt lat="43.4342" lon="6.0501">
        <ele>265.79998779297</ele>
        <time>2016-04-20T13:09:15Z</time>
      </trkpt>
      <trkpt lat="43.43424" lon="6.04992">
        <ele>265.60000610352</ele>
        <time>2016-04-20T13:09:17Z</time>
      </trkpt>
      <trkpt lat="43.43428" lon="6.04971">
        <ele>264.60000610352</ele>
        <time>2016-04-20T13:09:19Z</time>
      </trkpt>
      <trkpt lat="43.4343" lon="6.04949">
        <ele>264.20001220703</ele>
        <time>2016-04-20T13:09:21Z</time>
      </trkpt>
      <trkpt lat="43.43432" lon="6.04927">
        <ele>263.60000610352</ele>
        <time>2016-04-20T13:09:23Z</time>
      </trkpt>
      <trkpt lat="43.43433" lon="6.04917">
        <ele>263.39999389648</ele>
        <time>2016-04-20T13:09:24Z</time>
      </trkpt>
      <trkpt lat="43.43434" lon="6.04907">
        <ele>263.20001220703</ele>
        <time>2016-04-20T13:09:25Z</time>
      </trkpt>
      <trkpt lat="43.43435" lon="6.04886">
        <ele>262.60000610352</ele>
        <time>2016-04-20T13:09:27Z</time>
      </trkpt>
      <trkpt lat="43.43436" lon="6.04867">
        <ele>263.20001220703</ele>
        <time>2016-04-20T13:09:29Z</time>
      </trkpt>
      <trkpt lat="43.43436" lon="6.04848">
        <ele>264.20001220703</ele>
        <time>2016-04-20T13:09:31Z</time>
      </trkpt>
      <trkpt lat="43.43437" lon="6.04829">
        <ele>264.39999389648</ele>
        <time>2016-04-20T13:09:33Z</time>
      </trkpt>
      <trkpt lat="43.43437" lon="6.04811">
        <ele>264.60000610352</ele>
        <time>2016-04-20T13:09:35Z</time>
      </trkpt>
      <trkpt lat="43.43438" lon="6.04802">
        <ele>265</ele>
        <time>2016-04-20T13:09:36Z</time>
      </trkpt>
      <trkpt lat="43.43439" lon="6.04793">
        <ele>265.20001220703</ele>
        <time>2016-04-20T13:09:37Z</time>
      </trkpt>
      <trkpt lat="43.4344" lon="6.04778">
        <ele>265.39999389648</ele>
        <time>2016-04-20T13:09:39Z</time>
      </trkpt>
      <trkpt lat="43.43442" lon="6.04765">
        <ele>265.39999389648</ele>
        <time>2016-04-20T13:09:41Z</time>
      </trkpt>
      <trkpt lat="43.43442" lon="6.04753">
        <ele>265.39999389648</ele>
        <time>2016-04-20T13:09:43Z</time>
      </trkpt>
      <trkpt lat="43.43443" lon="6.04743">
        <ele>265.39999389648</ele>
        <time>2016-04-20T13:09:45Z</time>
      </trkpt>
      <trkpt lat="43.43443" lon="6.04738">
        <ele>265.79998779297</ele>
        <time>2016-04-20T13:09:46Z</time>
      </trkpt>
      <trkpt lat="43.43443" lon="6.04734">
        <ele>266</ele>
        <time>2016-04-20T13:09:47Z</time>
      </trkpt>
      <trkpt lat="43.43444" lon="6.04727">
        <ele>266</ele>
        <time>2016-04-20T13:09:49Z</time>
      </trkpt>
      <trkpt lat="43.43444" lon="6.0472">
        <ele>266.20001220703</ele>
        <time>2016-04-20T13:09:51Z</time>
      </trkpt>
      <trkpt lat="43.43444" lon="6.04717">
        <ele>266.39999389648</ele>
        <time>2016-04-20T13:09:52Z</time>
      </trkpt>
      <trkpt lat="43.43444" lon="6.04714">
        <ele>266.39999389648</ele>
        <time>2016-04-20T13:09:53Z</time>
      </trkpt>
      <trkpt lat="43.43445" lon="6.04709">
        <ele>266.60000610352</ele>
        <time>2016-04-20T13:09:55Z</time>
      </trkpt>
      <trkpt lat="43.43445" lon="6.04705">
        <ele>266.60000610352</ele>
        <time>2016-04-20T13:09:57Z</time>
      </trkpt>
      <trkpt lat="43.43445" lon="6.04702">
        <ele>266.60000610352</ele>
        <time>2016-04-20T13:09:58Z</time>
      </trkpt>
      <trkpt lat="43.43444" lon="6.047">
        <ele>266.60000610352</ele>
        <time>2016-04-20T13:09:59Z</time>
      </trkpt>
      <trkpt lat="43.43445" lon="6.04696">
        <ele>266.60000610352</ele>
        <time>2016-04-20T13:10:01Z</time>
      </trkpt>
      <trkpt lat="43.43445" lon="6.04691">
        <ele>266.60000610352</ele>
        <time>2016-04-20T13:10:03Z</time>
      </trkpt>
      <trkpt lat="43.43445" lon="6.04689">
        <ele>266.39999389648</ele>
        <time>2016-04-20T13:10:04Z</time>
      </trkpt>
      <trkpt lat="43.43446" lon="6.04688">
        <ele>266.39999389648</ele>
        <time>2016-04-20T13:10:05Z</time>
      </trkpt>
      <trkpt lat="43.43445" lon="6.04686">
        <ele>266.39999389648</ele>
        <time>2016-04-20T13:10:07Z</time>
      </trkpt>
      <trkpt lat="43.43445" lon="6.04686">
        <ele>266.60000610352</ele>
        <time>2016-04-20T13:10:09Z</time>
      </trkpt>
      <trkpt lat="43.43445" lon="6.04686">
        <ele>266.60000610352</ele>
        <time>2016-04-20T13:10:10Z</time>
      </trkpt>
      <trkpt lat="43.43445" lon="6.04686">
        <ele>266.60000610352</ele>
        <time>2016-04-20T13:10:11Z</time>
      </trkpt>
      <trkpt lat="43.43445" lon="6.04686">
        <ele>266.60000610352</ele>
        <time>2016-04-20T13:10:13Z</time>
      </trkpt>
      <trkpt lat="43.43445" lon="6.04686">
        <ele>266.60000610352</ele>
        <time>2016-04-20T13:10:15Z</time>
      </trkpt>
      <trkpt lat="43.43445" lon="6.04686">
        <ele>266.79998779297</ele>
        <time>2016-04-20T13:10:17Z</time>
      </trkpt>
      <trkpt lat="43.43445" lon="6.04686">
        <ele>266.79998779297</ele>
        <time>2016-04-20T13:10:19Z</time>
      </trkpt>
      <trkpt lat="43.43444" lon="6.04686">
        <ele>266.79998779297</ele>
        <time>2016-04-20T13:10:20Z</time>
      </trkpt>
      <trkpt lat="43.43445" lon="6.04685">
        <ele>266.79998779297</ele>
        <time>2016-04-20T13:10:21Z</time>
      </trkpt>
      <trkpt lat="43.43445" lon="6.04685">
        <ele>266.60000610352</ele>
        <time>2016-04-20T13:10:23Z</time>
      </trkpt>
      <trkpt lat="43.43445" lon="6.04684">
        <ele>266.60000610352</ele>
        <time>2016-04-20T13:10:25Z</time>
      </trkpt>
      <trkpt lat="43.43445" lon="6.04683">
        <ele>266.79998779297</ele>
        <time>2016-04-20T13:10:27Z</time>
      </trkpt>
      <trkpt lat="43.43446" lon="6.04683">
        <ele>266.60000610352</ele>
        <time>2016-04-20T13:10:29Z</time>
      </trkpt>
      <trkpt lat="43.43445" lon="6.04683">
        <ele>266.60000610352</ele>
        <time>2016-04-20T13:10:31Z</time>
      </trkpt>
      <trkpt lat="43.43445" lon="6.04684">
        <ele>266.79998779297</ele>
        <time>2016-04-20T13:10:33Z</time>
      </trkpt>
      <trkpt lat="43.43445" lon="6.04684">
        <ele>266.60000610352</ele>
        <time>2016-04-20T13:10:35Z</time>
      </trkpt>
      <trkpt lat="43.43445" lon="6.04683">
        <ele>266.60000610352</ele>
        <time>2016-04-20T13:10:36Z</time>
      </trkpt>
      <trkpt lat="43.43445" lon="6.04683">
        <ele>266.39999389648</ele>
        <time>2016-04-20T13:10:39Z</time>
      </trkpt>
      <trkpt lat="43.43445" lon="6.04683">
        <ele>266.79998779297</ele>
        <time>2016-04-20T13:10:41Z</time>
      </trkpt>
      <trkpt lat="43.43445" lon="6.04683">
        <ele>267</ele>
        <time>2016-04-20T13:10:43Z</time>
      </trkpt>
      <trkpt lat="43.43446" lon="6.04683">
        <ele>267</ele>
        <time>2016-04-20T13:10:45Z</time>
      </trkpt>
      <trkpt lat="43.43446" lon="6.04683">
        <ele>267</ele>
        <time>2016-04-20T13:10:47Z</time>
      </trkpt>
      <trkpt lat="43.43446" lon="6.04683">
        <ele>266.79998779297</ele>
        <time>2016-04-20T13:10:49Z</time>
      </trkpt>
      <trkpt lat="43.43446" lon="6.04683">
        <ele>267</ele>
        <time>2016-04-20T13:10:50Z</time>
      </trkpt>
      <trkpt lat="43.43446" lon="6.04683">
        <ele>267</ele>
        <time>2016-04-20T13:10:51Z</time>
      </trkpt>
      <trkpt lat="43.43446" lon="6.04683">
        <ele>267</ele>
        <time>2016-04-20T13:10:53Z</time>
      </trkpt>
      <trkpt lat="43.43446" lon="6.04683">
        <ele>267</ele>
        <time>2016-04-20T13:10:55Z</time>
      </trkpt>
      <trkpt lat="43.43446" lon="6.04683">
        <ele>267</ele>
        <time>2016-04-20T13:10:57Z</time>
      </trkpt>
      <trkpt lat="43.43446" lon="6.04683">
        <ele>267</ele>
        <time>2016-04-20T13:10:59Z</time>
      </trkpt>
      <trkpt lat="43.43446" lon="6.04683">
        <ele>266.79998779297</ele>
        <time>2016-04-20T13:11:01Z</time>
      </trkpt>
      <trkpt lat="43.43446" lon="6.04683">
        <ele>266.79998779297</ele>
        <time>2016-04-20T13:11:03Z</time>
      </trkpt>
      <trkpt lat="43.43446" lon="6.04683">
        <ele>267</ele>
        <time>2016-04-20T13:11:05Z</time>
      </trkpt>
      <trkpt lat="43.43446" lon="6.04683">
        <ele>267</ele>
        <time>2016-04-20T13:11:06Z</time>
      </trkpt>
      <trkpt lat="43.43446" lon="6.04683">
        <ele>267</ele>
        <time>2016-04-20T13:11:07Z</time>
      </trkpt>
      <trkpt lat="43.43446" lon="6.04683">
        <ele>267</ele>
        <time>2016-04-20T13:11:09Z</time>
      </trkpt>
      <trkpt lat="43.43446" lon="6.04683">
        <ele>266.79998779297</ele>
        <time>2016-04-20T13:11:11Z</time>
      </trkpt>
      <trkpt lat="43.43446" lon="6.04683">
        <ele>266.79998779297</ele>
        <time>2016-04-20T13:11:13Z</time>
      </trkpt>
      <trkpt lat="43.43446" lon="6.04683">
        <ele>267</ele>
        <time>2016-04-20T13:11:15Z</time>
      </trkpt>
      <trkpt lat="43.43446" lon="6.04683">
        <ele>267</ele>
        <time>2016-04-20T13:11:17Z</time>
      </trkpt>
      <trkpt lat="43.43446" lon="6.04683">
        <ele>267</ele>
        <time>2016-04-20T13:11:19Z</time>
      </trkpt>
      <trkpt lat="43.43446" lon="6.04683">
        <ele>267.20001220703</ele>
        <time>2016-04-20T13:11:21Z</time>
      </trkpt>
      <trkpt lat="43.43446" lon="6.04683">
        <ele>267.20001220703</ele>
        <time>2016-04-20T13:11:23Z</time>
      </trkpt>
      <trkpt lat="43.43446" lon="6.04683">
        <ele>267.20001220703</ele>
        <time>2016-04-20T13:11:25Z</time>
      </trkpt>
      <trkpt lat="43.43446" lon="6.04683">
        <ele>267</ele>
        <time>2016-04-20T13:11:27Z</time>
      </trkpt>
      <trkpt lat="43.43446" lon="6.04683">
        <ele>267</ele>
        <time>2016-04-20T13:11:29Z</time>
      </trkpt>
      <trkpt lat="43.43446" lon="6.04683">
        <ele>267</ele>
        <time>2016-04-20T13:11:31Z</time>
      </trkpt>
      <trkpt lat="43.43446" lon="6.04683">
        <ele>267</ele>
        <time>2016-04-20T13:11:33Z</time>
      </trkpt>
      <trkpt lat="43.43446" lon="6.04683">
        <ele>267</ele>
        <time>2016-04-20T13:11:35Z</time>
      </trkpt>
      <trkpt lat="43.43446" lon="6.04683">
        <ele>267</ele>
        <time>2016-04-20T13:11:37Z</time>
      </trkpt>
      <trkpt lat="43.43446" lon="6.04683">
        <ele>267</ele>
        <time>2016-04-20T13:11:39Z</time>
      </trkpt>
      <trkpt lat="43.43446" lon="6.04683">
        <ele>267</ele>
        <time>2016-04-20T13:11:41Z</time>
      </trkpt>
      <trkpt lat="43.43446" lon="6.04682">
        <ele>267</ele>
        <time>2016-04-20T13:11:43Z</time>
      </trkpt>
      <trkpt lat="43.43446" lon="6.04682">
        <ele>266.79998779297</ele>
        <time>2016-04-20T13:11:45Z</time>
      </trkpt>
      <trkpt lat="43.43446" lon="6.04682">
        <ele>266.79998779297</ele>
        <time>2016-04-20T13:11:47Z</time>
      </trkpt>
      <trkpt lat="43.43446" lon="6.04682">
        <ele>266.79998779297</ele>
        <time>2016-04-20T13:11:49Z</time>
      </trkpt>
      <trkpt lat="43.43446" lon="6.04682">
        <ele>266.79998779297</ele>
        <time>2016-04-20T13:11:51Z</time>
      </trkpt>
      <trkpt lat="43.43446" lon="6.04682">
        <ele>266.79998779297</ele>
        <time>2016-04-20T13:11:53Z</time>
      </trkpt>
      <trkpt lat="43.43446" lon="6.04682">
        <ele>267</ele>
        <time>2016-04-20T13:11:55Z</time>
      </trkpt>
      <trkpt lat="43.43446" lon="6.04682">
        <ele>267</ele>
        <time>2016-04-20T13:11:57Z</time>
      </trkpt>
      <trkpt lat="43.43446" lon="6.04682">
        <ele>267</ele>
        <time>2016-04-20T13:11:59Z</time>
      </trkpt>
      <trkpt lat="43.43446" lon="6.04682">
        <ele>267</ele>
        <time>2016-04-20T13:12:01Z</time>
      </trkpt>
      <trkpt lat="43.43446" lon="6.04682">
        <ele>267</ele>
        <time>2016-04-20T13:12:03Z</time>
      </trkpt>
      <trkpt lat="43.43446" lon="6.04682">
        <ele>267</ele>
        <time>2016-04-20T13:12:05Z</time>
      </trkpt>
      <trkpt lat="43.43446" lon="6.04682">
        <ele>267</ele>
        <time>2016-04-20T13:12:07Z</time>
      </trkpt>
      <trkpt lat="43.43446" lon="6.04682">
        <ele>267</ele>
        <time>2016-04-20T13:12:09Z</time>
      </trkpt>
      <trkpt lat="43.43446" lon="6.04682">
        <ele>267</ele>
        <time>2016-04-20T13:12:11Z</time>
      </trkpt>
      <trkpt lat="43.43446" lon="6.04682">
        <ele>267</ele>
        <time>2016-04-20T13:12:13Z</time>
      </trkpt>
      <trkpt lat="43.43446" lon="6.04682">
        <ele>267</ele>
        <time>2016-04-20T13:12:15Z</time>
      </trkpt>
      <trkpt lat="43.43446" lon="6.04682">
        <ele>267</ele>
        <time>2016-04-20T13:12:17Z</time>
      </trkpt>
      <trkpt lat="43.43446" lon="6.04682">
        <ele>267</ele>
        <time>2016-04-20T13:12:19Z</time>
      </trkpt>
      <trkpt lat="43.43446" lon="6.04682">
        <ele>267</ele>
        <time>2016-04-20T13:12:21Z</time>
      </trkpt>
      <trkpt lat="43.43446" lon="6.04682">
        <ele>267</ele>
        <time>2016-04-20T13:12:23Z</time>
      </trkpt>
      <trkpt lat="43.43446" lon="6.04682">
        <ele>267</ele>
        <time>2016-04-20T13:12:25Z</time>
      </trkpt>
      <trkpt lat="43.43446" lon="6.04682">
        <ele>267</ele>
        <time>2016-04-20T13:12:27Z</time>
      </trkpt>
      <trkpt lat="43.43446" lon="6.04682">
        <ele>267</ele>
        <time>2016-04-20T13:12:29Z</time>
      </trkpt>
      <trkpt lat="43.43446" lon="6.04682">
        <ele>267</ele>
        <time>2016-04-20T13:12:31Z</time>
      </trkpt>
      <trkpt lat="43.43446" lon="6.04682">
        <ele>267</ele>
        <time>2016-04-20T13:12:33Z</time>
      </trkpt>
      <trkpt lat="43.43446" lon="6.04682">
        <ele>267</ele>
        <time>2016-04-20T13:12:35Z</time>
      </trkpt>
      <trkpt lat="43.43446" lon="6.04681">
        <ele>267</ele>
        <time>2016-04-20T13:12:37Z</time>
      </trkpt>
      <trkpt lat="43.43446" lon="6.04681">
        <ele>267</ele>
        <time>2016-04-20T13:12:38Z</time>
      </trkpt>
      <trkpt lat="43.43446" lon="6.04681">
        <ele>267</ele>
        <time>2016-04-20T13:12:41Z</time>
      </trkpt>
      <trkpt lat="43.43446" lon="6.04681">
        <ele>267</ele>
        <time>2016-04-20T13:12:43Z</time>
      </trkpt>
      <trkpt lat="43.43446" lon="6.04681">
        <ele>267.20001220703</ele>
        <time>2016-04-20T13:12:45Z</time>
      </trkpt>
      <trkpt lat="43.43446" lon="6.04681">
        <ele>267.20001220703</ele>
        <time>2016-04-20T13:12:47Z</time>
      </trkpt>
      <trkpt lat="43.43446" lon="6.04681">
        <ele>267.20001220703</ele>
        <time>2016-04-20T13:12:49Z</time>
      </trkpt>
      <trkpt lat="43.43446" lon="6.04681">
        <ele>267</ele>
        <time>2016-04-20T13:12:51Z</time>
      </trkpt>
      <trkpt lat="43.43446" lon="6.04681">
        <ele>267</ele>
        <time>2016-04-20T13:12:53Z</time>
      </trkpt>
      <trkpt lat="43.43446" lon="6.04681">
        <ele>266.79998779297</ele>
        <time>2016-04-20T13:12:55Z</time>
      </trkpt>
      <trkpt lat="43.43446" lon="6.04681">
        <ele>266.79998779297</ele>
        <time>2016-04-20T13:12:57Z</time>
      </trkpt>
      <trkpt lat="43.43446" lon="6.04681">
        <ele>266.79998779297</ele>
        <time>2016-04-20T13:12:59Z</time>
      </trkpt>
      <trkpt lat="43.43446" lon="6.04681">
        <ele>267</ele>
        <time>2016-04-20T13:13:01Z</time>
      </trkpt>
      <trkpt lat="43.43446" lon="6.04681">
        <ele>267</ele>
        <time>2016-04-20T13:13:03Z</time>
      </trkpt>
      <trkpt lat="43.43446" lon="6.04681">
        <ele>266.79998779297</ele>
        <time>2016-04-20T13:13:05Z</time>
      </trkpt>
      <trkpt lat="43.43446" lon="6.04681">
        <ele>266.79998779297</ele>
        <time>2016-04-20T13:13:07Z</time>
      </trkpt>
      <trkpt lat="43.43446" lon="6.04681">
        <ele>266.79998779297</ele>
        <time>2016-04-20T13:13:09Z</time>
      </trkpt>
      <trkpt lat="43.43446" lon="6.04681">
        <ele>267</ele>
        <time>2016-04-20T13:13:11Z</time>
      </trkpt>
      <trkpt lat="43.43446" lon="6.04681">
        <ele>266.79998779297</ele>
        <time>2016-04-20T13:13:13Z</time>
      </trkpt>
      <trkpt lat="43.43446" lon="6.04681">
        <ele>266.79998779297</ele>
        <time>2016-04-20T13:13:15Z</time>
      </trkpt>
      <trkpt lat="43.43446" lon="6.04681">
        <ele>266.79998779297</ele>
        <time>2016-04-20T13:13:17Z</time>
      </trkpt>
      <trkpt lat="43.43446" lon="6.04681">
        <ele>266.79998779297</ele>
        <time>2016-04-20T13:13:19Z</time>
      </trkpt>
      <trkpt lat="43.43446" lon="6.04681">
        <ele>266.79998779297</ele>
        <time>2016-04-20T13:13:21Z</time>
      </trkpt>
      <trkpt lat="43.43446" lon="6.04681">
        <ele>266.79998779297</ele>
        <time>2016-04-20T13:13:23Z</time>
      </trkpt>
      <trkpt lat="43.43446" lon="6.04681">
        <ele>266.79998779297</ele>
        <time>2016-04-20T13:13:25Z</time>
      </trkpt>
      <trkpt lat="43.43446" lon="6.04681">
        <ele>266.79998779297</ele>
        <time>2016-04-20T13:13:27Z</time>
      </trkpt>
      <trkpt lat="43.43446" lon="6.04681">
        <ele>267</ele>
        <time>2016-04-20T13:13:29Z</time>
      </trkpt>
      <trkpt lat="43.43446" lon="6.04681">
        <ele>267</ele>
        <time>2016-04-20T13:13:31Z</time>
      </trkpt>
      <trkpt lat="43.43446" lon="6.04681">
        <ele>266.79998779297</ele>
        <time>2016-04-20T13:13:33Z</time>
      </trkpt>
      <trkpt lat="43.43446" lon="6.04681">
        <ele>266.79998779297</ele>
        <time>2016-04-20T13:13:35Z</time>
      </trkpt>
      <trkpt lat="43.43446" lon="6.04681">
        <ele>266.60000610352</ele>
        <time>2016-04-20T13:13:37Z</time>
      </trkpt>
      <trkpt lat="43.43446" lon="6.04681">
        <ele>266.60000610352</ele>
        <time>2016-04-20T13:13:39Z</time>
      </trkpt>
      <trkpt lat="43.43446" lon="6.04681">
        <ele>266.60000610352</ele>
        <time>2016-04-20T13:13:41Z</time>
      </trkpt>
      <trkpt lat="43.43446" lon="6.04681">
        <ele>266.60000610352</ele>
        <time>2016-04-20T13:13:43Z</time>
      </trkpt>
      <trkpt lat="43.43446" lon="6.04681">
        <ele>266.79998779297</ele>
        <time>2016-04-20T13:13:45Z</time>
      </trkpt>
      <trkpt lat="43.43446" lon="6.04681">
        <ele>267.39999389648</ele>
        <time>2016-04-20T13:13:47Z</time>
      </trkpt>
      <trkpt lat="43.43446" lon="6.04681">
        <ele>267.60000610352</ele>
        <time>2016-04-20T13:13:49Z</time>
      </trkpt>
      <trkpt lat="43.43446" lon="6.04681">
        <ele>267.60000610352</ele>
        <time>2016-04-20T13:13:51Z</time>
      </trkpt>
      <trkpt lat="43.43446" lon="6.0468">
        <ele>267.39999389648</ele>
        <time>2016-04-20T13:13:53Z</time>
      </trkpt>
      <trkpt lat="43.43446" lon="6.0468">
        <ele>267</ele>
        <time>2016-04-20T13:13:55Z</time>
      </trkpt>
      <trkpt lat="43.43446" lon="6.0468">
        <ele>266.79998779297</ele>
        <time>2016-04-20T13:13:57Z</time>
      </trkpt>
      <trkpt lat="43.43446" lon="6.0468">
        <ele>266.79998779297</ele>
        <time>2016-04-20T13:13:59Z</time>
      </trkpt>
      <trkpt lat="43.43446" lon="6.0468">
        <ele>266.79998779297</ele>
        <time>2016-04-20T13:14:01Z</time>
      </trkpt>
      <trkpt lat="43.43446" lon="6.0468">
        <ele>267</ele>
        <time>2016-04-20T13:14:03Z</time>
      </trkpt>
      <trkpt lat="43.43446" lon="6.0468">
        <ele>267</ele>
        <time>2016-04-20T13:14:05Z</time>
      </trkpt>
      <trkpt lat="43.43446" lon="6.0468">
        <ele>266.79998779297</ele>
        <time>2016-04-20T13:14:07Z</time>
      </trkpt>
      <trkpt lat="43.43446" lon="6.0468">
        <ele>266.60000610352</ele>
        <time>2016-04-20T13:14:09Z</time>
      </trkpt>
      <trkpt lat="43.43446" lon="6.0468">
        <ele>266.79998779297</ele>
        <time>2016-04-20T13:14:11Z</time>
      </trkpt>
      <trkpt lat="43.43446" lon="6.0468">
        <ele>267.20001220703</ele>
        <time>2016-04-20T13:14:13Z</time>
      </trkpt>
      <trkpt lat="43.43446" lon="6.0468">
        <ele>267.39999389648</ele>
        <time>2016-04-20T13:14:15Z</time>
      </trkpt>
      <trkpt lat="43.43446" lon="6.0468">
        <ele>267.20001220703</ele>
        <time>2016-04-20T13:14:17Z</time>
      </trkpt>
      <trkpt lat="43.43446" lon="6.0468">
        <ele>267.20001220703</ele>
        <time>2016-04-20T13:14:19Z</time>
      </trkpt>
      <trkpt lat="43.43446" lon="6.0468">
        <ele>267</ele>
        <time>2016-04-20T13:14:21Z</time>
      </trkpt>
      <trkpt lat="43.43446" lon="6.0468">
        <ele>267</ele>
        <time>2016-04-20T13:14:23Z</time>
      </trkpt>
      <trkpt lat="43.43446" lon="6.0468">
        <ele>266.79998779297</ele>
        <time>2016-04-20T13:14:25Z</time>
      </trkpt>
      <trkpt lat="43.43446" lon="6.0468">
        <ele>266.79998779297</ele>
        <time>2016-04-20T13:14:27Z</time>
      </trkpt>
      <trkpt lat="43.43446" lon="6.0468">
        <ele>267</ele>
        <time>2016-04-20T13:14:29Z</time>
      </trkpt>
      <trkpt lat="43.43446" lon="6.0468">
        <ele>267</ele>
        <time>2016-04-20T13:14:31Z</time>
      </trkpt>
      <trkpt lat="43.43446" lon="6.0468">
        <ele>267.20001220703</ele>
        <time>2016-04-20T13:14:33Z</time>
      </trkpt>
      <trkpt lat="43.43446" lon="6.0468">
        <ele>267</ele>
        <time>2016-04-20T13:14:35Z</time>
      </trkpt>
      <trkpt lat="43.43446" lon="6.0468">
        <ele>267.20001220703</ele>
        <time>2016-04-20T13:14:36Z</time>
      </trkpt>
      <trkpt lat="43.43446" lon="6.0468">
        <ele>267.20001220703</ele>
        <time>2016-04-20T13:14:37Z</time>
      </trkpt>
      <trkpt lat="43.43446" lon="6.0468">
        <ele>267.20001220703</ele>
        <time>2016-04-20T13:14:39Z</time>
      </trkpt>
      <trkpt lat="43.43446" lon="6.0468">
        <ele>267.20001220703</ele>
        <time>2016-04-20T13:14:41Z</time>
      </trkpt>
      <trkpt lat="43.43446" lon="6.0468">
        <ele>267</ele>
        <time>2016-04-20T13:14:43Z</time>
      </trkpt>
      <trkpt lat="43.43446" lon="6.0468">
        <ele>266.79998779297</ele>
        <time>2016-04-20T13:14:45Z</time>
      </trkpt>
      <trkpt lat="43.43446" lon="6.0468">
        <ele>266.79998779297</ele>
        <time>2016-04-20T13:14:47Z</time>
      </trkpt>
      <trkpt lat="43.43446" lon="6.0468">
        <ele>266.79998779297</ele>
        <time>2016-04-20T13:14:49Z</time>
      </trkpt>
      <trkpt lat="43.43446" lon="6.0468">
        <ele>267</ele>
        <time>2016-04-20T13:14:51Z</time>
      </trkpt>
      <trkpt lat="43.43446" lon="6.0468">
        <ele>267</ele>
        <time>2016-04-20T13:14:53Z</time>
      </trkpt>
      <trkpt lat="43.43446" lon="6.0468">
        <ele>267</ele>
        <time>2016-04-20T13:14:55Z</time>
      </trkpt>
      <trkpt lat="43.43446" lon="6.0468">
        <ele>267</ele>
        <time>2016-04-20T13:14:57Z</time>
      </trkpt>
      <trkpt lat="43.43446" lon="6.0468">
        <ele>267</ele>
        <time>2016-04-20T13:14:59Z</time>
      </trkpt>
      <trkpt lat="43.43446" lon="6.0468">
        <ele>267</ele>
        <time>2016-04-20T13:15:01Z</time>
      </trkpt>
      <trkpt lat="43.43446" lon="6.0468">
        <ele>267</ele>
        <time>2016-04-20T13:15:03Z</time>
      </trkpt>
      <trkpt lat="43.43446" lon="6.0468">
        <ele>267</ele>
        <time>2016-04-20T13:15:04Z</time>
      </trkpt>
      <trkpt lat="43.43446" lon="6.0468">
        <ele>266.79998779297</ele>
        <time>2016-04-20T13:15:05Z</time>
      </trkpt>
      <trkpt lat="43.43446" lon="6.0468">
        <ele>266.79998779297</ele>
        <time>2016-04-20T13:15:07Z</time>
      </trkpt>
      <trkpt lat="43.43446" lon="6.0468">
        <ele>267</ele>
        <time>2016-04-20T13:15:09Z</time>
      </trkpt>
      <trkpt lat="43.43446" lon="6.0468">
        <ele>267</ele>
        <time>2016-04-20T13:15:11Z</time>
      </trkpt>
      <trkpt lat="43.43446" lon="6.0468">
        <ele>267</ele>
        <time>2016-04-20T13:15:13Z</time>
      </trkpt>
      <trkpt lat="43.43446" lon="6.0468">
        <ele>267</ele>
        <time>2016-04-20T13:15:15Z</time>
      </trkpt>
      <trkpt lat="43.43446" lon="6.0468">
        <ele>267</ele>
        <time>2016-04-20T13:15:17Z</time>
      </trkpt>
      <trkpt lat="43.43446" lon="6.0468">
        <ele>267</ele>
        <time>2016-04-20T13:15:19Z</time>
      </trkpt>
      <trkpt lat="43.43446" lon="6.0468">
        <ele>267</ele>
        <time>2016-04-20T13:15:21Z</time>
      </trkpt>
      <trkpt lat="43.43446" lon="6.0468">
        <ele>266.79998779297</ele>
        <time>2016-04-20T13:15:23Z</time>
      </trkpt>
      <trkpt lat="43.43446" lon="6.0468">
        <ele>266.79998779297</ele>
        <time>2016-04-20T13:15:25Z</time>
      </trkpt>
      <trkpt lat="43.43446" lon="6.0468">
        <ele>266.60000610352</ele>
        <time>2016-04-20T13:15:27Z</time>
      </trkpt>
      <trkpt lat="43.43446" lon="6.0468">
        <ele>266.60000610352</ele>
        <time>2016-04-20T13:15:29Z</time>
      </trkpt>
      <trkpt lat="43.43446" lon="6.0468">
        <ele>266.60000610352</ele>
        <time>2016-04-20T13:15:31Z</time>
      </trkpt>
      <trkpt lat="43.43446" lon="6.0468">
        <ele>266.60000610352</ele>
        <time>2016-04-20T13:15:33Z</time>
      </trkpt>
      <trkpt lat="43.43446" lon="6.0468">
        <ele>266.79998779297</ele>
        <time>2016-04-20T13:15:35Z</time>
      </trkpt>
      <trkpt lat="43.43448" lon="6.04677">
        <ele>266.79998779297</ele>
        <time>2016-04-20T13:15:37Z</time>
      </trkpt>
      <trkpt lat="43.43448" lon="6.04676">
        <ele>266.79998779297</ele>
        <time>2016-04-20T13:15:38Z</time>
      </trkpt>
      <trkpt lat="43.43449" lon="6.04673">
        <ele>266.79998779297</ele>
        <time>2016-04-20T13:15:39Z</time>
      </trkpt>
      <trkpt lat="43.4345" lon="6.04668">
        <ele>266.79998779297</ele>
        <time>2016-04-20T13:15:41Z</time>
      </trkpt>
      <trkpt lat="43.43451" lon="6.04662">
        <ele>266.79998779297</ele>
        <time>2016-04-20T13:15:43Z</time>
      </trkpt>
      <trkpt lat="43.43452" lon="6.04655">
        <ele>266.79998779297</ele>
        <time>2016-04-20T13:15:45Z</time>
      </trkpt>
      <trkpt lat="43.43454" lon="6.04647">
        <ele>267</ele>
        <time>2016-04-20T13:15:47Z</time>
      </trkpt>
      <trkpt lat="43.43456" lon="6.04639">
        <ele>267</ele>
        <time>2016-04-20T13:15:49Z</time>
      </trkpt>
      <trkpt lat="43.43457" lon="6.04632">
        <ele>267.39999389648</ele>
        <time>2016-04-20T13:15:51Z</time>
      </trkpt>
      <trkpt lat="43.43457" lon="6.04628">
        <ele>267.39999389648</ele>
        <time>2016-04-20T13:15:52Z</time>
      </trkpt>
      <trkpt lat="43.43458" lon="6.04625">
        <ele>267.39999389648</ele>
        <time>2016-04-20T13:15:53Z</time>
      </trkpt>
      <trkpt lat="43.43459" lon="6.04618">
        <ele>267.60000610352</ele>
        <time>2016-04-20T13:15:55Z</time>
      </trkpt>
      <trkpt lat="43.43459" lon="6.0461">
        <ele>267.79998779297</ele>
        <time>2016-04-20T13:15:57Z</time>
      </trkpt>
      <trkpt lat="43.43461" lon="6.04602">
        <ele>268</ele>
        <time>2016-04-20T13:15:59Z</time>
      </trkpt>
      <trkpt lat="43.43462" lon="6.04598">
        <ele>268</ele>
        <time>2016-04-20T13:16:00Z</time>
      </trkpt>
      <trkpt lat="43.43462" lon="6.04594">
        <ele>268</ele>
        <time>2016-04-20T13:16:01Z</time>
      </trkpt>
      <trkpt lat="43.43464" lon="6.04585">
        <ele>268</ele>
        <time>2016-04-20T13:16:03Z</time>
      </trkpt>
      <trkpt lat="43.43465" lon="6.04576">
        <ele>268</ele>
        <time>2016-04-20T13:16:05Z</time>
      </trkpt>
      <trkpt lat="43.43467" lon="6.04566">
        <ele>268</ele>
        <time>2016-04-20T13:16:07Z</time>
      </trkpt>
      <trkpt lat="43.43469" lon="6.04556">
        <ele>268.20001220703</ele>
        <time>2016-04-20T13:16:09Z</time>
      </trkpt>
      <trkpt lat="43.43473" lon="6.04547">
        <ele>268.39999389648</ele>
        <time>2016-04-20T13:16:11Z</time>
      </trkpt>
      <trkpt lat="43.43476" lon="6.04538">
        <ele>268.39999389648</ele>
        <time>2016-04-20T13:16:13Z</time>
      </trkpt>
      <trkpt lat="43.43478" lon="6.04534">
        <ele>268.20001220703</ele>
        <time>2016-04-20T13:16:14Z</time>
      </trkpt>
      <trkpt lat="43.4348" lon="6.0453">
        <ele>268.20001220703</ele>
        <time>2016-04-20T13:16:15Z</time>
      </trkpt>
      <trkpt lat="43.43483" lon="6.04521">
        <ele>268.20001220703</ele>
        <time>2016-04-20T13:16:17Z</time>
      </trkpt>
      <trkpt lat="43.43486" lon="6.04513">
        <ele>268.20001220703</ele>
        <time>2016-04-20T13:16:19Z</time>
      </trkpt>
      <trkpt lat="43.43488" lon="6.04504">
        <ele>268.20001220703</ele>
        <time>2016-04-20T13:16:21Z</time>
      </trkpt>
      <trkpt lat="43.43489" lon="6.04499">
        <ele>268.20001220703</ele>
        <time>2016-04-20T13:16:22Z</time>
      </trkpt>
      <trkpt lat="43.43489" lon="6.04494">
        <ele>268.39999389648</ele>
        <time>2016-04-20T13:16:23Z</time>
      </trkpt>
      <trkpt lat="43.4349" lon="6.04483">
        <ele>268.20001220703</ele>
        <time>2016-04-20T13:16:25Z</time>
      </trkpt>
      <trkpt lat="43.4349" lon="6.04472">
        <ele>268.20001220703</ele>
        <time>2016-04-20T13:16:27Z</time>
      </trkpt>
      <trkpt lat="43.43489" lon="6.04461">
        <ele>268.39999389648</ele>
        <time>2016-04-20T13:16:29Z</time>
      </trkpt>
      <trkpt lat="43.4349" lon="6.0445">
        <ele>268.60000610352</ele>
        <time>2016-04-20T13:16:31Z</time>
      </trkpt>
      <trkpt lat="43.43492" lon="6.0444">
        <ele>268.79998779297</ele>
        <time>2016-04-20T13:16:33Z</time>
      </trkpt>
      <trkpt lat="43.43491" lon="6.04435">
        <ele>268.79998779297</ele>
        <time>2016-04-20T13:16:34Z</time>
      </trkpt>
      <trkpt lat="43.43491" lon="6.0443">
        <ele>268.79998779297</ele>
        <time>2016-04-20T13:16:35Z</time>
      </trkpt>
      <trkpt lat="43.43489" lon="6.04419">
        <ele>268.79998779297</ele>
        <time>2016-04-20T13:16:37Z</time>
      </trkpt>
      <trkpt lat="43.43489" lon="6.04414">
        <ele>268.79998779297</ele>
        <time>2016-04-20T13:16:38Z</time>
      </trkpt>
      <trkpt lat="43.43489" lon="6.04409">
        <ele>268.79998779297</ele>
        <time>2016-04-20T13:16:39Z</time>
      </trkpt>
      <trkpt lat="43.43489" lon="6.04398">
        <ele>268.79998779297</ele>
        <time>2016-04-20T13:16:41Z</time>
      </trkpt>
      <trkpt lat="43.43489" lon="6.04387">
        <ele>268.79998779297</ele>
        <time>2016-04-20T13:16:43Z</time>
      </trkpt>
      <trkpt lat="43.43489" lon="6.04377">
        <ele>268.79998779297</ele>
        <time>2016-04-20T13:16:45Z</time>
      </trkpt>
      <trkpt lat="43.43491" lon="6.04366">
        <ele>268.79998779297</ele>
        <time>2016-04-20T13:16:47Z</time>
      </trkpt>
      <trkpt lat="43.43491" lon="6.04361">
        <ele>268.60000610352</ele>
        <time>2016-04-20T13:16:48Z</time>
      </trkpt>
      <trkpt lat="43.43492" lon="6.04355">
        <ele>268.60000610352</ele>
        <time>2016-04-20T13:16:49Z</time>
      </trkpt>
      <trkpt lat="43.43493" lon="6.04345">
        <ele>268.79998779297</ele>
        <time>2016-04-20T13:16:51Z</time>
      </trkpt>
      <trkpt lat="43.43493" lon="6.04334">
        <ele>269</ele>
        <time>2016-04-20T13:16:53Z</time>
      </trkpt>
      <trkpt lat="43.43494" lon="6.04321">
        <ele>268.60000610352</ele>
        <time>2016-04-20T13:16:55Z</time>
      </trkpt>
      <trkpt lat="43.43495" lon="6.04308">
        <ele>268.39999389648</ele>
        <time>2016-04-20T13:16:57Z</time>
      </trkpt>
      <trkpt lat="43.43496" lon="6.04301">
        <ele>268.39999389648</ele>
        <time>2016-04-20T13:16:58Z</time>
      </trkpt>
      <trkpt lat="43.43498" lon="6.04294">
        <ele>268.20001220703</ele>
        <time>2016-04-20T13:16:59Z</time>
      </trkpt>
      <trkpt lat="43.43501" lon="6.0428">
        <ele>267.60000610352</ele>
        <time>2016-04-20T13:17:01Z</time>
      </trkpt>
      <trkpt lat="43.43504" lon="6.04272">
        <ele>267.39999389648</ele>
        <time>2016-04-20T13:17:02Z</time>
      </trkpt>
      <trkpt lat="43.43506" lon="6.04265">
        <ele>267.20001220703</ele>
        <time>2016-04-20T13:17:03Z</time>
      </trkpt>
      <trkpt lat="43.43509" lon="6.04258">
        <ele>267.20001220703</ele>
        <time>2016-04-20T13:17:04Z</time>
      </trkpt>
      <trkpt lat="43.43513" lon="6.04252">
        <ele>267.20001220703</ele>
        <time>2016-04-20T13:17:05Z</time>
      </trkpt>
      <trkpt lat="43.43521" lon="6.04243">
        <ele>267</ele>
        <time>2016-04-20T13:17:07Z</time>
      </trkpt>
      <trkpt lat="43.43526" lon="6.0424">
        <ele>266.79998779297</ele>
        <time>2016-04-20T13:17:08Z</time>
      </trkpt>
      <trkpt lat="43.43531" lon="6.04235">
        <ele>266.60000610352</ele>
        <time>2016-04-20T13:17:09Z</time>
      </trkpt>
      <trkpt lat="43.43537" lon="6.04224">
        <ele>266.39999389648</ele>
        <time>2016-04-20T13:17:11Z</time>
      </trkpt>
      <trkpt lat="43.43542" lon="6.04212">
        <ele>266.20001220703</ele>
        <time>2016-04-20T13:17:13Z</time>
      </trkpt>
      <trkpt lat="43.43543" lon="6.042">
        <ele>266.20001220703</ele>
        <time>2016-04-20T13:17:15Z</time>
      </trkpt>
      <trkpt lat="43.43541" lon="6.04188">
        <ele>266.39999389648</ele>
        <time>2016-04-20T13:17:17Z</time>
      </trkpt>
      <trkpt lat="43.4354" lon="6.04182">
        <ele>266.60000610352</ele>
        <time>2016-04-20T13:17:18Z</time>
      </trkpt>
      <trkpt lat="43.43539" lon="6.04177">
        <ele>266.60000610352</ele>
        <time>2016-04-20T13:17:19Z</time>
      </trkpt>
      <trkpt lat="43.43538" lon="6.04169">
        <ele>267.39999389648</ele>
        <time>2016-04-20T13:17:21Z</time>
      </trkpt>
      <trkpt lat="43.43538" lon="6.04164">
        <ele>267.79998779297</ele>
        <time>2016-04-20T13:17:22Z</time>
      </trkpt>
      <trkpt lat="43.43539" lon="6.04158">
        <ele>268.20001220703</ele>
        <time>2016-04-20T13:17:23Z</time>
      </trkpt>
      <trkpt lat="43.4354" lon="6.04152">
        <ele>268.39999389648</ele>
        <time>2016-04-20T13:17:24Z</time>
      </trkpt>
      <trkpt lat="43.43542" lon="6.04147">
        <ele>268.60000610352</ele>
        <time>2016-04-20T13:17:25Z</time>
      </trkpt>
      <trkpt lat="43.43545" lon="6.04143">
        <ele>268.79998779297</ele>
        <time>2016-04-20T13:17:26Z</time>
      </trkpt>
      <trkpt lat="43.43547" lon="6.04138">
        <ele>269</ele>
        <time>2016-04-20T13:17:27Z</time>
      </trkpt>
      <trkpt lat="43.43552" lon="6.04127">
        <ele>269.60000610352</ele>
        <time>2016-04-20T13:17:29Z</time>
      </trkpt>
      <trkpt lat="43.43557" lon="6.04114">
        <ele>269.79998779297</ele>
        <time>2016-04-20T13:17:31Z</time>
      </trkpt>
      <trkpt lat="43.43559" lon="6.04107">
        <ele>269.79998779297</ele>
        <time>2016-04-20T13:17:32Z</time>
      </trkpt>
      <trkpt lat="43.43562" lon="6.041">
        <ele>269.60000610352</ele>
        <time>2016-04-20T13:17:33Z</time>
      </trkpt>
      <trkpt lat="43.43566" lon="6.04087">
        <ele>269.39999389648</ele>
        <time>2016-04-20T13:17:35Z</time>
      </trkpt>
      <trkpt lat="43.4357" lon="6.04074">
        <ele>269.39999389648</ele>
        <time>2016-04-20T13:17:37Z</time>
      </trkpt>
      <trkpt lat="43.43572" lon="6.04068">
        <ele>269.60000610352</ele>
        <time>2016-04-20T13:17:38Z</time>
      </trkpt>
      <trkpt lat="43.43575" lon="6.04063">
        <ele>269.79998779297</ele>
        <time>2016-04-20T13:17:39Z</time>
      </trkpt>
      <trkpt lat="43.4358" lon="6.04054">
        <ele>270</ele>
        <time>2016-04-20T13:17:41Z</time>
      </trkpt>
      <trkpt lat="43.43585" lon="6.04046">
        <ele>270.20001220703</ele>
        <time>2016-04-20T13:17:43Z</time>
      </trkpt>
      <trkpt lat="43.43589" lon="6.04038">
        <ele>271</ele>
        <time>2016-04-20T13:17:45Z</time>
      </trkpt>
      <trkpt lat="43.43593" lon="6.04032">
        <ele>271.79998779297</ele>
        <time>2016-04-20T13:17:47Z</time>
      </trkpt>
      <trkpt lat="43.43595" lon="6.04029">
        <ele>272</ele>
        <time>2016-04-20T13:17:48Z</time>
      </trkpt>
      <trkpt lat="43.43597" lon="6.04026">
        <ele>272.20001220703</ele>
        <time>2016-04-20T13:17:49Z</time>
      </trkpt>
      <trkpt lat="43.436" lon="6.0402">
        <ele>272.60000610352</ele>
        <time>2016-04-20T13:17:51Z</time>
      </trkpt>
      <trkpt lat="43.43603" lon="6.04013">
        <ele>272.79998779297</ele>
        <time>2016-04-20T13:17:53Z</time>
      </trkpt>
      <trkpt lat="43.43604" lon="6.0401">
        <ele>272.79998779297</ele>
        <time>2016-04-20T13:17:54Z</time>
      </trkpt>
      <trkpt lat="43.43605" lon="6.04007">
        <ele>273.20001220703</ele>
        <time>2016-04-20T13:17:55Z</time>
      </trkpt>
      <trkpt lat="43.43606" lon="6.04002">
        <ele>273.79998779297</ele>
        <time>2016-04-20T13:17:57Z</time>
      </trkpt>
      <trkpt lat="43.43607" lon="6.03997">
        <ele>274</ele>
        <time>2016-04-20T13:17:59Z</time>
      </trkpt>
      <trkpt lat="43.43608" lon="6.03994">
        <ele>274</ele>
        <time>2016-04-20T13:18:00Z</time>
      </trkpt>
      <trkpt lat="43.4361" lon="6.0399">
        <ele>273.79998779297</ele>
        <time>2016-04-20T13:18:01Z</time>
      </trkpt>
      <trkpt lat="43.43611" lon="6.03986">
        <ele>273.60000610352</ele>
        <time>2016-04-20T13:18:02Z</time>
      </trkpt>
      <trkpt lat="43.43611" lon="6.03981">
        <ele>273.39999389648</ele>
        <time>2016-04-20T13:18:03Z</time>
      </trkpt>
      <trkpt lat="43.43612" lon="6.03975">
        <ele>273.20001220703</ele>
        <time>2016-04-20T13:18:04Z</time>
      </trkpt>
      <trkpt lat="43.43612" lon="6.03967">
        <ele>273.20001220703</ele>
        <time>2016-04-20T13:18:05Z</time>
      </trkpt>
      <trkpt lat="43.43611" lon="6.03959">
        <ele>272.79998779297</ele>
        <time>2016-04-20T13:18:06Z</time>
      </trkpt>
      <trkpt lat="43.43609" lon="6.03951">
        <ele>272.20001220703</ele>
        <time>2016-04-20T13:18:07Z</time>
      </trkpt>
      <trkpt lat="43.43605" lon="6.03934">
        <ele>271.60000610352</ele>
        <time>2016-04-20T13:18:09Z</time>
      </trkpt>
      <trkpt lat="43.436" lon="6.03921">
        <ele>271</ele>
        <time>2016-04-20T13:18:11Z</time>
      </trkpt>
      <trkpt lat="43.43598" lon="6.03915">
        <ele>270.79998779297</ele>
        <time>2016-04-20T13:18:12Z</time>
      </trkpt>
      <trkpt lat="43.43597" lon="6.03909">
        <ele>270.79998779297</ele>
        <time>2016-04-20T13:18:13Z</time>
      </trkpt>
      <trkpt lat="43.43595" lon="6.03898">
        <ele>271</ele>
        <time>2016-04-20T13:18:15Z</time>
      </trkpt>
      <trkpt lat="43.43595" lon="6.03889">
        <ele>271.39999389648</ele>
        <time>2016-04-20T13:18:17Z</time>
      </trkpt>
      <trkpt lat="43.43594" lon="6.03881">
        <ele>272</ele>
        <time>2016-04-20T13:18:19Z</time>
      </trkpt>
      <trkpt lat="43.43594" lon="6.03877">
        <ele>272.20001220703</ele>
        <time>2016-04-20T13:18:20Z</time>
      </trkpt>
      <trkpt lat="43.43593" lon="6.03873">
        <ele>272.39999389648</ele>
        <time>2016-04-20T13:18:21Z</time>
      </trkpt>
      <trkpt lat="43.43592" lon="6.03867">
        <ele>272.60000610352</ele>
        <time>2016-04-20T13:18:23Z</time>
      </trkpt>
      <trkpt lat="43.43591" lon="6.03861">
        <ele>273</ele>
        <time>2016-04-20T13:18:25Z</time>
      </trkpt>
      <trkpt lat="43.43591" lon="6.03855">
        <ele>273.20001220703</ele>
        <time>2016-04-20T13:18:27Z</time>
      </trkpt>
      <trkpt lat="43.4359" lon="6.03851">
        <ele>273.39999389648</ele>
        <time>2016-04-20T13:18:28Z</time>
      </trkpt>
      <trkpt lat="43.43589" lon="6.03847">
        <ele>273.39999389648</ele>
        <time>2016-04-20T13:18:29Z</time>
      </trkpt>
      <trkpt lat="43.43587" lon="6.0384">
        <ele>273.79998779297</ele>
        <time>2016-04-20T13:18:31Z</time>
      </trkpt>
      <trkpt lat="43.43586" lon="6.03832">
        <ele>274</ele>
        <time>2016-04-20T13:18:33Z</time>
      </trkpt>
      <trkpt lat="43.43584" lon="6.03824">
        <ele>274.20001220703</ele>
        <time>2016-04-20T13:18:35Z</time>
      </trkpt>
      <trkpt lat="43.43583" lon="6.0382">
        <ele>274.60000610352</ele>
        <time>2016-04-20T13:18:36Z</time>
      </trkpt>
      <trkpt lat="43.43582" lon="6.03817">
        <ele>274.79998779297</ele>
        <time>2016-04-20T13:18:37Z</time>
      </trkpt>
      <trkpt lat="43.43579" lon="6.03812">
        <ele>275.20001220703</ele>
        <time>2016-04-20T13:18:39Z</time>
      </trkpt>
      <trkpt lat="43.43578" lon="6.03807">
        <ele>275.39999389648</ele>
        <time>2016-04-20T13:18:41Z</time>
      </trkpt>
      <trkpt lat="43.43576" lon="6.03802">
        <ele>275.20001220703</ele>
        <time>2016-04-20T13:18:43Z</time>
      </trkpt>
      <trkpt lat="43.43575" lon="6.03799">
        <ele>275.39999389648</ele>
        <time>2016-04-20T13:18:45Z</time>
      </trkpt>
      <trkpt lat="43.43575" lon="6.03799">
        <ele>275.60000610352</ele>
        <time>2016-04-20T13:18:47Z</time>
      </trkpt>
      <trkpt lat="43.43575" lon="6.03798">
        <ele>275.79998779297</ele>
        <time>2016-04-20T13:18:49Z</time>
      </trkpt>
      <trkpt lat="43.43575" lon="6.03798">
        <ele>275.60000610352</ele>
        <time>2016-04-20T13:18:51Z</time>
      </trkpt>
      <trkpt lat="43.43575" lon="6.03797">
        <ele>275.60000610352</ele>
        <time>2016-04-20T13:18:53Z</time>
      </trkpt>
      <trkpt lat="43.43574" lon="6.03794">
        <ele>275.79998779297</ele>
        <time>2016-04-20T13:18:55Z</time>
      </trkpt>
      <trkpt lat="43.43574" lon="6.03792">
        <ele>275.79998779297</ele>
        <time>2016-04-20T13:18:56Z</time>
      </trkpt>
      <trkpt lat="43.43573" lon="6.0379">
        <ele>275.79998779297</ele>
        <time>2016-04-20T13:18:57Z</time>
      </trkpt>
      <trkpt lat="43.43571" lon="6.03787">
        <ele>275.79998779297</ele>
        <time>2016-04-20T13:18:59Z</time>
      </trkpt>
      <trkpt lat="43.4357" lon="6.03787">
        <ele>275.79998779297</ele>
        <time>2016-04-20T13:19:00Z</time>
      </trkpt>
      <trkpt lat="43.43569" lon="6.03788">
        <ele>275.79998779297</ele>
        <time>2016-04-20T13:19:01Z</time>
      </trkpt>
      <trkpt lat="43.43568" lon="6.03788">
        <ele>275.79998779297</ele>
        <time>2016-04-20T13:19:03Z</time>
      </trkpt>
      <trkpt lat="43.43567" lon="6.03789">
        <ele>276.20001220703</ele>
        <time>2016-04-20T13:19:05Z</time>
      </trkpt>
      <trkpt lat="43.43567" lon="6.03788">
        <ele>276.39999389648</ele>
        <time>2016-04-20T13:19:07Z</time>
      </trkpt>
      <trkpt lat="43.43567" lon="6.03788">
        <ele>276.60000610352</ele>
        <time>2016-04-20T13:19:09Z</time>
      </trkpt>
      <trkpt lat="43.43567" lon="6.03788">
        <ele>276.60000610352</ele>
        <time>2016-04-20T13:19:11Z</time>
      </trkpt>
      <trkpt lat="43.43567" lon="6.03788">
        <ele>276.60000610352</ele>
        <time>2016-04-20T13:19:13Z</time>
      </trkpt>
      <trkpt lat="43.43567" lon="6.03788">
        <ele>276.60000610352</ele>
        <time>2016-04-20T13:19:15Z</time>
      </trkpt>
      <trkpt lat="43.43567" lon="6.03788">
        <ele>276.60000610352</ele>
        <time>2016-04-20T13:19:17Z</time>
      </trkpt>
      <trkpt lat="43.43567" lon="6.03788">
        <ele>276.39999389648</ele>
        <time>2016-04-20T13:19:19Z</time>
      </trkpt>
      <trkpt lat="43.43567" lon="6.03788">
        <ele>276.39999389648</ele>
        <time>2016-04-20T13:19:21Z</time>
      </trkpt>
      <trkpt lat="43.43567" lon="6.03788">
        <ele>276.39999389648</ele>
        <time>2016-04-20T13:19:23Z</time>
      </trkpt>
      <trkpt lat="43.43567" lon="6.03788">
        <ele>276.39999389648</ele>
        <time>2016-04-20T13:19:25Z</time>
      </trkpt>
      <trkpt lat="43.43566" lon="6.03788">
        <ele>276.39999389648</ele>
        <time>2016-04-20T13:19:27Z</time>
      </trkpt>
      <trkpt lat="43.43566" lon="6.03788">
        <ele>276.20001220703</ele>
        <time>2016-04-20T13:19:29Z</time>
      </trkpt>
      <trkpt lat="43.43566" lon="6.03788">
        <ele>276.39999389648</ele>
        <time>2016-04-20T13:19:31Z</time>
      </trkpt>
      <trkpt lat="43.43566" lon="6.03788">
        <ele>276.60000610352</ele>
        <time>2016-04-20T13:19:33Z</time>
      </trkpt>
      <trkpt lat="43.43566" lon="6.03788">
        <ele>276.60000610352</ele>
        <time>2016-04-20T13:19:34Z</time>
      </trkpt>
      <trkpt lat="43.43566" lon="6.03789">
        <ele>276.60000610352</ele>
        <time>2016-04-20T13:19:35Z</time>
      </trkpt>
      <trkpt lat="43.43566" lon="6.03789">
        <ele>276.60000610352</ele>
        <time>2016-04-20T13:19:37Z</time>
      </trkpt>
      <trkpt lat="43.43566" lon="6.03789">
        <ele>276.39999389648</ele>
        <time>2016-04-20T13:19:39Z</time>
      </trkpt>
      <trkpt lat="43.43566" lon="6.03789">
        <ele>276.39999389648</ele>
        <time>2016-04-20T13:19:41Z</time>
      </trkpt>
      <trkpt lat="43.43566" lon="6.03789">
        <ele>276.39999389648</ele>
        <time>2016-04-20T13:19:43Z</time>
      </trkpt>
      <trkpt lat="43.43566" lon="6.03789">
        <ele>276.20001220703</ele>
        <time>2016-04-20T13:19:45Z</time>
      </trkpt>
      <trkpt lat="43.43566" lon="6.03789">
        <ele>276.20001220703</ele>
        <time>2016-04-20T13:19:47Z</time>
      </trkpt>
      <trkpt lat="43.43566" lon="6.03788">
        <ele>276</ele>
        <time>2016-04-20T13:19:49Z</time>
      </trkpt>
      <trkpt lat="43.43566" lon="6.03789">
        <ele>275.79998779297</ele>
        <time>2016-04-20T13:19:51Z</time>
      </trkpt>
      <trkpt lat="43.43566" lon="6.03788">
        <ele>275.79998779297</ele>
        <time>2016-04-20T13:19:53Z</time>
      </trkpt>
      <trkpt lat="43.43566" lon="6.03789">
        <ele>275.79998779297</ele>
        <time>2016-04-20T13:19:55Z</time>
      </trkpt>
      <trkpt lat="43.43566" lon="6.03788">
        <ele>275.79998779297</ele>
        <time>2016-04-20T13:19:57Z</time>
      </trkpt>
      <trkpt lat="43.43566" lon="6.03788">
        <ele>276</ele>
        <time>2016-04-20T13:19:59Z</time>
      </trkpt>
      <trkpt lat="43.43566" lon="6.03787">
        <ele>275.79998779297</ele>
        <time>2016-04-20T13:20:01Z</time>
      </trkpt>
      <trkpt lat="43.43566" lon="6.03787">
        <ele>275.79998779297</ele>
        <time>2016-04-20T13:20:02Z</time>
      </trkpt>
      <trkpt lat="43.43566" lon="6.03787">
        <ele>276</ele>
        <time>2016-04-20T13:20:03Z</time>
      </trkpt>
      <trkpt lat="43.43566" lon="6.03786">
        <ele>276.20001220703</ele>
        <time>2016-04-20T13:20:05Z</time>
      </trkpt>
      <trkpt lat="43.43567" lon="6.03786">
        <ele>276.20001220703</ele>
        <time>2016-04-20T13:20:07Z</time>
      </trkpt>
      <trkpt lat="43.43567" lon="6.03785">
        <ele>276.20001220703</ele>
        <time>2016-04-20T13:20:09Z</time>
      </trkpt>
      <trkpt lat="43.43569" lon="6.03782">
        <ele>276</ele>
        <time>2016-04-20T13:20:11Z</time>
      </trkpt>
      <trkpt lat="43.43572" lon="6.0378">
        <ele>275.79998779297</ele>
        <time>2016-04-20T13:20:13Z</time>
      </trkpt>
      <trkpt lat="43.43574" lon="6.03778">
        <ele>275.39999389648</ele>
        <time>2016-04-20T13:20:15Z</time>
      </trkpt>
      <trkpt lat="43.43575" lon="6.03776">
        <ele>275.20001220703</ele>
        <time>2016-04-20T13:20:16Z</time>
      </trkpt>
      <trkpt lat="43.43575" lon="6.03775">
        <ele>275.20001220703</ele>
        <time>2016-04-20T13:20:17Z</time>
      </trkpt>
      <trkpt lat="43.43575" lon="6.03774">
        <ele>275.20001220703</ele>
        <time>2016-04-20T13:20:19Z</time>
      </trkpt>
      <trkpt lat="43.43575" lon="6.03774">
        <ele>275.20001220703</ele>
        <time>2016-04-20T13:20:21Z</time>
      </trkpt>
      <trkpt lat="43.43575" lon="6.03774">
        <ele>275.20001220703</ele>
        <time>2016-04-20T13:20:23Z</time>
      </trkpt>
      <trkpt lat="43.43575" lon="6.03774">
        <ele>275.20001220703</ele>
        <time>2016-04-20T13:20:24Z</time>
      </trkpt>
      <trkpt lat="43.43575" lon="6.03774">
        <ele>275.20001220703</ele>
        <time>2016-04-20T13:20:25Z</time>
      </trkpt>
      <trkpt lat="43.43575" lon="6.03772">
        <ele>275.39999389648</ele>
        <time>2016-04-20T13:20:27Z</time>
      </trkpt>
      <trkpt lat="43.43575" lon="6.03768">
        <ele>275.60000610352</ele>
        <time>2016-04-20T13:20:29Z</time>
      </trkpt>
      <trkpt lat="43.43575" lon="6.03763">
        <ele>275.39999389648</ele>
        <time>2016-04-20T13:20:31Z</time>
      </trkpt>
      <trkpt lat="43.43574" lon="6.03754">
        <ele>275</ele>
        <time>2016-04-20T13:20:33Z</time>
      </trkpt>
      <trkpt lat="43.43574" lon="6.0375">
        <ele>274.79998779297</ele>
        <time>2016-04-20T13:20:34Z</time>
      </trkpt>
      <trkpt lat="43.43574" lon="6.03745">
        <ele>274.39999389648</ele>
        <time>2016-04-20T13:20:35Z</time>
      </trkpt>
      <trkpt lat="43.43573" lon="6.03736">
        <ele>273.79998779297</ele>
        <time>2016-04-20T13:20:37Z</time>
      </trkpt>
      <trkpt lat="43.43573" lon="6.03725">
        <ele>273.60000610352</ele>
        <time>2016-04-20T13:20:39Z</time>
      </trkpt>
      <trkpt lat="43.43573" lon="6.0372">
        <ele>273.60000610352</ele>
        <time>2016-04-20T13:20:40Z</time>
      </trkpt>
      <trkpt lat="43.43573" lon="6.03714">
        <ele>273.60000610352</ele>
        <time>2016-04-20T13:20:41Z</time>
      </trkpt>
      <trkpt lat="43.43574" lon="6.03706">
        <ele>273.60000610352</ele>
        <time>2016-04-20T13:20:43Z</time>
      </trkpt>
      <trkpt lat="43.43574" lon="6.03702">
        <ele>273.60000610352</ele>
        <time>2016-04-20T13:20:44Z</time>
      </trkpt>
      <trkpt lat="43.43575" lon="6.03698">
        <ele>273.60000610352</ele>
        <time>2016-04-20T13:20:45Z</time>
      </trkpt>
      <trkpt lat="43.43576" lon="6.0369">
        <ele>273.60000610352</ele>
        <time>2016-04-20T13:20:47Z</time>
      </trkpt>
      <trkpt lat="43.43578" lon="6.03683">
        <ele>273.79998779297</ele>
        <time>2016-04-20T13:20:49Z</time>
      </trkpt>
      <trkpt lat="43.43578" lon="6.03679">
        <ele>273.79998779297</ele>
        <time>2016-04-20T13:20:50Z</time>
      </trkpt>
      <trkpt lat="43.43579" lon="6.03675">
        <ele>273.60000610352</ele>
        <time>2016-04-20T13:20:51Z</time>
      </trkpt>
      <trkpt lat="43.43579" lon="6.03667">
        <ele>273.60000610352</ele>
        <time>2016-04-20T13:20:53Z</time>
      </trkpt>
      <trkpt lat="43.4358" lon="6.03659">
        <ele>273.39999389648</ele>
        <time>2016-04-20T13:20:55Z</time>
      </trkpt>
      <trkpt lat="43.43582" lon="6.0365">
        <ele>273.60000610352</ele>
        <time>2016-04-20T13:20:57Z</time>
      </trkpt>
      <trkpt lat="43.43584" lon="6.0364">
        <ele>273.60000610352</ele>
        <time>2016-04-20T13:20:59Z</time>
      </trkpt>
      <trkpt lat="43.43584" lon="6.03627">
        <ele>273.79998779297</ele>
        <time>2016-04-20T13:21:01Z</time>
      </trkpt>
      <trkpt lat="43.43584" lon="6.03615">
        <ele>273.79998779297</ele>
        <time>2016-04-20T13:21:03Z</time>
      </trkpt>
      <trkpt lat="43.43584" lon="6.03608">
        <ele>273.79998779297</ele>
        <time>2016-04-20T13:21:04Z</time>
      </trkpt>
      <trkpt lat="43.43584" lon="6.03602">
        <ele>273.79998779297</ele>
        <time>2016-04-20T13:21:05Z</time>
      </trkpt>
      <trkpt lat="43.43586" lon="6.03589">
        <ele>273.60000610352</ele>
        <time>2016-04-20T13:21:07Z</time>
      </trkpt>
      <trkpt lat="43.4359" lon="6.03577">
        <ele>273.60000610352</ele>
        <time>2016-04-20T13:21:09Z</time>
      </trkpt>
      <trkpt lat="43.43593" lon="6.03567">
        <ele>273.39999389648</ele>
        <time>2016-04-20T13:21:11Z</time>
      </trkpt>
      <trkpt lat="43.43596" lon="6.03563">
        <ele>273.60000610352</ele>
        <time>2016-04-20T13:21:12Z</time>
      </trkpt>
      <trkpt lat="43.43598" lon="6.03558">
        <ele>273.79998779297</ele>
        <time>2016-04-20T13:21:13Z</time>
      </trkpt>
      <trkpt lat="43.436" lon="6.03554">
        <ele>274</ele>
        <time>2016-04-20T13:21:14Z</time>
      </trkpt>
      <trkpt lat="43.43603" lon="6.0355">
        <ele>274</ele>
        <time>2016-04-20T13:21:15Z</time>
      </trkpt>
      <trkpt lat="43.43607" lon="6.03538">
        <ele>274</ele>
        <time>2016-04-20T13:21:17Z</time>
      </trkpt>
      <trkpt lat="43.4361" lon="6.03527">
        <ele>273.79998779297</ele>
        <time>2016-04-20T13:21:19Z</time>
      </trkpt>
      <trkpt lat="43.43613" lon="6.03516">
        <ele>273.60000610352</ele>
        <time>2016-04-20T13:21:21Z</time>
      </trkpt>
      <trkpt lat="43.43615" lon="6.03507">
        <ele>274</ele>
        <time>2016-04-20T13:21:23Z</time>
      </trkpt>
      <trkpt lat="43.43615" lon="6.03501">
        <ele>274</ele>
        <time>2016-04-20T13:21:24Z</time>
      </trkpt>
      <trkpt lat="43.43616" lon="6.03496">
        <ele>274.20001220703</ele>
        <time>2016-04-20T13:21:25Z</time>
      </trkpt>
      <trkpt lat="43.4362" lon="6.03487">
        <ele>274.20001220703</ele>
        <time>2016-04-20T13:21:27Z</time>
      </trkpt>
      <trkpt lat="43.43621" lon="6.03481">
        <ele>274.20001220703</ele>
        <time>2016-04-20T13:21:28Z</time>
      </trkpt>
      <trkpt lat="43.43623" lon="6.03476">
        <ele>274.20001220703</ele>
        <time>2016-04-20T13:21:29Z</time>
      </trkpt>
      <trkpt lat="43.43628" lon="6.03465">
        <ele>274.39999389648</ele>
        <time>2016-04-20T13:21:31Z</time>
      </trkpt>
      <trkpt lat="43.43629" lon="6.03459">
        <ele>274.79998779297</ele>
        <time>2016-04-20T13:21:32Z</time>
      </trkpt>
      <trkpt lat="43.43631" lon="6.03453">
        <ele>275.20001220703</ele>
        <time>2016-04-20T13:21:33Z</time>
      </trkpt>
      <trkpt lat="43.43631" lon="6.03441">
        <ele>275.60000610352</ele>
        <time>2016-04-20T13:21:35Z</time>
      </trkpt>
      <trkpt lat="43.43632" lon="6.03436">
        <ele>275.60000610352</ele>
        <time>2016-04-20T13:21:36Z</time>
      </trkpt>
      <trkpt lat="43.43632" lon="6.0343">
        <ele>275.79998779297</ele>
        <time>2016-04-20T13:21:37Z</time>
      </trkpt>
      <trkpt lat="43.43631" lon="6.03425">
        <ele>276.20001220703</ele>
        <time>2016-04-20T13:21:38Z</time>
      </trkpt>
      <trkpt lat="43.43631" lon="6.03419">
        <ele>276.60000610352</ele>
        <time>2016-04-20T13:21:39Z</time>
      </trkpt>
      <trkpt lat="43.43631" lon="6.03413">
        <ele>276.60000610352</ele>
        <time>2016-04-20T13:21:40Z</time>
      </trkpt>
      <trkpt lat="43.4363" lon="6.03407">
        <ele>276.60000610352</ele>
        <time>2016-04-20T13:21:41Z</time>
      </trkpt>
      <trkpt lat="43.4363" lon="6.03401">
        <ele>276.60000610352</ele>
        <time>2016-04-20T13:21:42Z</time>
      </trkpt>
      <trkpt lat="43.43632" lon="6.03396">
        <ele>276.60000610352</ele>
        <time>2016-04-20T13:21:43Z</time>
      </trkpt>
      <trkpt lat="43.43636" lon="6.03389">
        <ele>276.20001220703</ele>
        <time>2016-04-20T13:21:45Z</time>
      </trkpt>
      <trkpt lat="43.43639" lon="6.03383">
        <ele>276.20001220703</ele>
        <time>2016-04-20T13:21:47Z</time>
      </trkpt>
      <trkpt lat="43.43641" lon="6.0338">
        <ele>276.20001220703</ele>
        <time>2016-04-20T13:21:48Z</time>
      </trkpt>
      <trkpt lat="43.43642" lon="6.03376">
        <ele>276.39999389648</ele>
        <time>2016-04-20T13:21:49Z</time>
      </trkpt>
      <trkpt lat="43.43645" lon="6.0337">
        <ele>276.39999389648</ele>
        <time>2016-04-20T13:21:51Z</time>
      </trkpt>
      <trkpt lat="43.43648" lon="6.03363">
        <ele>276.20001220703</ele>
        <time>2016-04-20T13:21:53Z</time>
      </trkpt>
      <trkpt lat="43.4365" lon="6.03359">
        <ele>276.20001220703</ele>
        <time>2016-04-20T13:21:54Z</time>
      </trkpt>
      <trkpt lat="43.43652" lon="6.03355">
        <ele>276.20001220703</ele>
        <time>2016-04-20T13:21:55Z</time>
      </trkpt>
      <trkpt lat="43.43656" lon="6.03349">
        <ele>275.79998779297</ele>
        <time>2016-04-20T13:21:57Z</time>
      </trkpt>
      <trkpt lat="43.43659" lon="6.03343">
        <ele>275.79998779297</ele>
        <time>2016-04-20T13:21:59Z</time>
      </trkpt>
      <trkpt lat="43.43662" lon="6.03337">
        <ele>275.79998779297</ele>
        <time>2016-04-20T13:22:01Z</time>
      </trkpt>
      <trkpt lat="43.43666" lon="6.0333">
        <ele>275.60000610352</ele>
        <time>2016-04-20T13:22:03Z</time>
      </trkpt>
      <trkpt lat="43.43666" lon="6.03327">
        <ele>275.60000610352</ele>
        <time>2016-04-20T13:22:04Z</time>
      </trkpt>
      <trkpt lat="43.43666" lon="6.03325">
        <ele>275.39999389648</ele>
        <time>2016-04-20T13:22:05Z</time>
      </trkpt>
      <trkpt lat="43.43667" lon="6.0332">
        <ele>275.20001220703</ele>
        <time>2016-04-20T13:22:07Z</time>
      </trkpt>
      <trkpt lat="43.43667" lon="6.03318">
        <ele>275.20001220703</ele>
        <time>2016-04-20T13:22:08Z</time>
      </trkpt>
      <trkpt lat="43.43667" lon="6.03317">
        <ele>275.20001220703</ele>
        <time>2016-04-20T13:22:09Z</time>
      </trkpt>
      <trkpt lat="43.43667" lon="6.03315">
        <ele>275.20001220703</ele>
        <time>2016-04-20T13:22:10Z</time>
      </trkpt>
      <trkpt lat="43.43668" lon="6.03312">
        <ele>275.20001220703</ele>
        <time>2016-04-20T13:22:11Z</time>
      </trkpt>
      <trkpt lat="43.4367" lon="6.03308">
        <ele>275.20001220703</ele>
        <time>2016-04-20T13:22:13Z</time>
      </trkpt>
      <trkpt lat="43.43673" lon="6.03304">
        <ele>275.39999389648</ele>
        <time>2016-04-20T13:22:15Z</time>
      </trkpt>
      <trkpt lat="43.43676" lon="6.03299">
        <ele>275.39999389648</ele>
        <time>2016-04-20T13:22:17Z</time>
      </trkpt>
      <trkpt lat="43.43679" lon="6.03295">
        <ele>275.39999389648</ele>
        <time>2016-04-20T13:22:19Z</time>
      </trkpt>
      <trkpt lat="43.43682" lon="6.0329">
        <ele>275.79998779297</ele>
        <time>2016-04-20T13:22:21Z</time>
      </trkpt>
      <trkpt lat="43.43684" lon="6.03283">
        <ele>275.79998779297</ele>
        <time>2016-04-20T13:22:23Z</time>
      </trkpt>
      <trkpt lat="43.43686" lon="6.03276">
        <ele>276</ele>
        <time>2016-04-20T13:22:25Z</time>
      </trkpt>
      <trkpt lat="43.43688" lon="6.0327">
        <ele>276</ele>
        <time>2016-04-20T13:22:27Z</time>
      </trkpt>
      <trkpt lat="43.43688" lon="6.03267">
        <ele>276.20001220703</ele>
        <time>2016-04-20T13:22:28Z</time>
      </trkpt>
      <trkpt lat="43.43688" lon="6.03264">
        <ele>276.20001220703</ele>
        <time>2016-04-20T13:22:29Z</time>
      </trkpt>
      <trkpt lat="43.43688" lon="6.03258">
        <ele>276.60000610352</ele>
        <time>2016-04-20T13:22:31Z</time>
      </trkpt>
      <trkpt lat="43.43688" lon="6.03255">
        <ele>276.60000610352</ele>
        <time>2016-04-20T13:22:33Z</time>
      </trkpt>
      <trkpt lat="43.43689" lon="6.03255">
        <ele>276.60000610352</ele>
        <time>2016-04-20T13:22:35Z</time>
      </trkpt>
      <trkpt lat="43.43689" lon="6.03254">
        <ele>276.39999389648</ele>
        <time>2016-04-20T13:22:37Z</time>
      </trkpt>
      <trkpt lat="43.43689" lon="6.03254">
        <ele>276.39999389648</ele>
        <time>2016-04-20T13:22:39Z</time>
      </trkpt>
      <trkpt lat="43.43688" lon="6.03254">
        <ele>276.39999389648</ele>
        <time>2016-04-20T13:22:41Z</time>
      </trkpt>
      <trkpt lat="43.43688" lon="6.03254">
        <ele>276.39999389648</ele>
        <time>2016-04-20T13:22:42Z</time>
      </trkpt>
      <trkpt lat="43.43689" lon="6.03254">
        <ele>276.39999389648</ele>
        <time>2016-04-20T13:22:43Z</time>
      </trkpt>
      <trkpt lat="43.43688" lon="6.03254">
        <ele>276.20001220703</ele>
        <time>2016-04-20T13:22:45Z</time>
      </trkpt>
      <trkpt lat="43.43689" lon="6.03254">
        <ele>276.20001220703</ele>
        <time>2016-04-20T13:22:47Z</time>
      </trkpt>
      <trkpt lat="43.43688" lon="6.03254">
        <ele>276.20001220703</ele>
        <time>2016-04-20T13:22:49Z</time>
      </trkpt>
      <trkpt lat="43.43689" lon="6.03254">
        <ele>276.39999389648</ele>
        <time>2016-04-20T13:22:51Z</time>
      </trkpt>
      <trkpt lat="43.43689" lon="6.03254">
        <ele>276.20001220703</ele>
        <time>2016-04-20T13:22:53Z</time>
      </trkpt>
      <trkpt lat="43.43688" lon="6.03254">
        <ele>276.20001220703</ele>
        <time>2016-04-20T13:22:55Z</time>
      </trkpt>
      <trkpt lat="43.43688" lon="6.03254">
        <ele>276.20001220703</ele>
        <time>2016-04-20T13:22:57Z</time>
      </trkpt>
      <trkpt lat="43.43688" lon="6.03254">
        <ele>276.20001220703</ele>
        <time>2016-04-20T13:22:59Z</time>
      </trkpt>
      <trkpt lat="43.43688" lon="6.03254">
        <ele>276.60000610352</ele>
        <time>2016-04-20T13:23:01Z</time>
      </trkpt>
      <trkpt lat="43.43688" lon="6.03252">
        <ele>276.79998779297</ele>
        <time>2016-04-20T13:23:03Z</time>
      </trkpt>
      <trkpt lat="43.43688" lon="6.03247">
        <ele>276.79998779297</ele>
        <time>2016-04-20T13:23:05Z</time>
      </trkpt>
      <trkpt lat="43.43688" lon="6.03244">
        <ele>277</ele>
        <time>2016-04-20T13:23:06Z</time>
      </trkpt>
      <trkpt lat="43.43687" lon="6.03241">
        <ele>277</ele>
        <time>2016-04-20T13:23:07Z</time>
      </trkpt>
      <trkpt lat="43.43686" lon="6.03235">
        <ele>277</ele>
        <time>2016-04-20T13:23:09Z</time>
      </trkpt>
      <trkpt lat="43.43687" lon="6.03228">
        <ele>277</ele>
        <time>2016-04-20T13:23:11Z</time>
      </trkpt>
      <trkpt lat="43.43688" lon="6.0322">
        <ele>276.60000610352</ele>
        <time>2016-04-20T13:23:13Z</time>
      </trkpt>
      <trkpt lat="43.4369" lon="6.0321">
        <ele>276.39999389648</ele>
        <time>2016-04-20T13:23:15Z</time>
      </trkpt>
      <trkpt lat="43.43692" lon="6.03206">
        <ele>276.20001220703</ele>
        <time>2016-04-20T13:23:16Z</time>
      </trkpt>
      <trkpt lat="43.43694" lon="6.03202">
        <ele>276.20001220703</ele>
        <time>2016-04-20T13:23:17Z</time>
      </trkpt>
      <trkpt lat="43.43696" lon="6.03194">
        <ele>276.79998779297</ele>
        <time>2016-04-20T13:23:19Z</time>
      </trkpt>
      <trkpt lat="43.43695" lon="6.0319">
        <ele>276.79998779297</ele>
        <time>2016-04-20T13:23:20Z</time>
      </trkpt>
      <trkpt lat="43.43695" lon="6.03186">
        <ele>276.79998779297</ele>
        <time>2016-04-20T13:23:21Z</time>
      </trkpt>
      <trkpt lat="43.43695" lon="6.03177">
        <ele>276.79998779297</ele>
        <time>2016-04-20T13:23:23Z</time>
      </trkpt>
      <trkpt lat="43.43695" lon="6.03168">
        <ele>277</ele>
        <time>2016-04-20T13:23:25Z</time>
      </trkpt>
      <trkpt lat="43.43696" lon="6.03163">
        <ele>277</ele>
        <time>2016-04-20T13:23:26Z</time>
      </trkpt>
      <trkpt lat="43.43696" lon="6.03158">
        <ele>277.20001220703</ele>
        <time>2016-04-20T13:23:27Z</time>
      </trkpt>
      <trkpt lat="43.43695" lon="6.03153">
        <ele>277.20001220703</ele>
        <time>2016-04-20T13:23:28Z</time>
      </trkpt>
      <trkpt lat="43.43695" lon="6.03147">
        <ele>277.20001220703</ele>
        <time>2016-04-20T13:23:29Z</time>
      </trkpt>
      <trkpt lat="43.43694" lon="6.03136">
        <ele>277.20001220703</ele>
        <time>2016-04-20T13:23:31Z</time>
      </trkpt>
      <trkpt lat="43.43693" lon="6.03126">
        <ele>277.20001220703</ele>
        <time>2016-04-20T13:23:33Z</time>
      </trkpt>
      <trkpt lat="43.43694" lon="6.03116">
        <ele>277.20001220703</ele>
        <time>2016-04-20T13:23:35Z</time>
      </trkpt>
      <trkpt lat="43.43697" lon="6.03107">
        <ele>277.20001220703</ele>
        <time>2016-04-20T13:23:37Z</time>
      </trkpt>
      <trkpt lat="43.43698" lon="6.03102">
        <ele>277.20001220703</ele>
        <time>2016-04-20T13:23:38Z</time>
      </trkpt>
      <trkpt lat="43.43699" lon="6.03097">
        <ele>277</ele>
        <time>2016-04-20T13:23:39Z</time>
      </trkpt>
      <trkpt lat="43.43701" lon="6.03086">
        <ele>276.79998779297</ele>
        <time>2016-04-20T13:23:41Z</time>
      </trkpt>
      <trkpt lat="43.43705" lon="6.03078">
        <ele>277</ele>
        <time>2016-04-20T13:23:43Z</time>
      </trkpt>
      <trkpt lat="43.43711" lon="6.0307">
        <ele>277</ele>
        <time>2016-04-20T13:23:45Z</time>
      </trkpt>
      <trkpt lat="43.43718" lon="6.03064">
        <ele>277.20001220703</ele>
        <time>2016-04-20T13:23:47Z</time>
      </trkpt>
      <trkpt lat="43.43722" lon="6.03062">
        <ele>277.20001220703</ele>
        <time>2016-04-20T13:23:48Z</time>
      </trkpt>
      <trkpt lat="43.43726" lon="6.03059">
        <ele>277.20001220703</ele>
        <time>2016-04-20T13:23:49Z</time>
      </trkpt>
      <trkpt lat="43.43734" lon="6.03053">
        <ele>277</ele>
        <time>2016-04-20T13:23:51Z</time>
      </trkpt>
      <trkpt lat="43.43742" lon="6.03048">
        <ele>276.60000610352</ele>
        <time>2016-04-20T13:23:53Z</time>
      </trkpt>
      <trkpt lat="43.43746" lon="6.03045">
        <ele>276.39999389648</ele>
        <time>2016-04-20T13:23:54Z</time>
      </trkpt>
      <trkpt lat="43.43752" lon="6.03043">
        <ele>276.20001220703</ele>
        <time>2016-04-20T13:23:55Z</time>
      </trkpt>
      <trkpt lat="43.43756" lon="6.03042">
        <ele>276.20001220703</ele>
        <time>2016-04-20T13:23:56Z</time>
      </trkpt>
      <trkpt lat="43.4376" lon="6.03039">
        <ele>276.20001220703</ele>
        <time>2016-04-20T13:23:57Z</time>
      </trkpt>
      <trkpt lat="43.43765" lon="6.0303">
        <ele>275.39999389648</ele>
        <time>2016-04-20T13:23:59Z</time>
      </trkpt>
      <trkpt lat="43.43767" lon="6.03026">
        <ele>275.20001220703</ele>
        <time>2016-04-20T13:24:00Z</time>
      </trkpt>
      <trkpt lat="43.4377" lon="6.03021">
        <ele>275.20001220703</ele>
        <time>2016-04-20T13:24:01Z</time>
      </trkpt>
      <trkpt lat="43.43776" lon="6.03013">
        <ele>275</ele>
        <time>2016-04-20T13:24:03Z</time>
      </trkpt>
      <trkpt lat="43.43781" lon="6.03003">
        <ele>274.79998779297</ele>
        <time>2016-04-20T13:24:05Z</time>
      </trkpt>
      <trkpt lat="43.43783" lon="6.02999">
        <ele>274.60000610352</ele>
        <time>2016-04-20T13:24:06Z</time>
      </trkpt>
      <trkpt lat="43.43785" lon="6.02994">
        <ele>274.39999389648</ele>
        <time>2016-04-20T13:24:07Z</time>
      </trkpt>
      <trkpt lat="43.43787" lon="6.02982">
        <ele>274.39999389648</ele>
        <time>2016-04-20T13:24:09Z</time>
      </trkpt>
      <trkpt lat="43.43786" lon="6.02976">
        <ele>274.60000610352</ele>
        <time>2016-04-20T13:24:10Z</time>
      </trkpt>
      <trkpt lat="43.43787" lon="6.0297">
        <ele>274.60000610352</ele>
        <time>2016-04-20T13:24:11Z</time>
      </trkpt>
      <trkpt lat="43.4379" lon="6.0296">
        <ele>274.79998779297</ele>
        <time>2016-04-20T13:24:13Z</time>
      </trkpt>
      <trkpt lat="43.43792" lon="6.02955">
        <ele>274.79998779297</ele>
        <time>2016-04-20T13:24:14Z</time>
      </trkpt>
      <trkpt lat="43.43794" lon="6.0295">
        <ele>275</ele>
        <time>2016-04-20T13:24:15Z</time>
      </trkpt>
      <trkpt lat="43.43797" lon="6.02939">
        <ele>275.20001220703</ele>
        <time>2016-04-20T13:24:17Z</time>
      </trkpt>
      <trkpt lat="43.43797" lon="6.02934">
        <ele>275.20001220703</ele>
        <time>2016-04-20T13:24:18Z</time>
      </trkpt>
      <trkpt lat="43.43797" lon="6.02928">
        <ele>275.39999389648</ele>
        <time>2016-04-20T13:24:19Z</time>
      </trkpt>
      <trkpt lat="43.43795" lon="6.02918">
        <ele>275.60000610352</ele>
        <time>2016-04-20T13:24:21Z</time>
      </trkpt>
      <trkpt lat="43.43794" lon="6.02913">
        <ele>275.60000610352</ele>
        <time>2016-04-20T13:24:22Z</time>
      </trkpt>
      <trkpt lat="43.43794" lon="6.02908">
        <ele>275.60000610352</ele>
        <time>2016-04-20T13:24:23Z</time>
      </trkpt>
      <trkpt lat="43.43795" lon="6.02898">
        <ele>275.39999389648</ele>
        <time>2016-04-20T13:24:25Z</time>
      </trkpt>
      <trkpt lat="43.43795" lon="6.02893">
        <ele>275.60000610352</ele>
        <time>2016-04-20T13:24:26Z</time>
      </trkpt>
      <trkpt lat="43.43795" lon="6.02888">
        <ele>275.60000610352</ele>
        <time>2016-04-20T13:24:27Z</time>
      </trkpt>
      <trkpt lat="43.43798" lon="6.02878">
        <ele>275.79998779297</ele>
        <time>2016-04-20T13:24:29Z</time>
      </trkpt>
      <trkpt lat="43.438" lon="6.02872">
        <ele>275.79998779297</ele>
        <time>2016-04-20T13:24:30Z</time>
      </trkpt>
      <trkpt lat="43.43802" lon="6.02866">
        <ele>275.79998779297</ele>
        <time>2016-04-20T13:24:31Z</time>
      </trkpt>
      <trkpt lat="43.43805" lon="6.02855">
        <ele>276</ele>
        <time>2016-04-20T13:24:33Z</time>
      </trkpt>
      <trkpt lat="43.4381" lon="6.02845">
        <ele>276.39999389648</ele>
        <time>2016-04-20T13:24:35Z</time>
      </trkpt>
      <trkpt lat="43.43812" lon="6.02835">
        <ele>276.39999389648</ele>
        <time>2016-04-20T13:24:37Z</time>
      </trkpt>
      <trkpt lat="43.43811" lon="6.02824">
        <ele>276.39999389648</ele>
        <time>2016-04-20T13:24:39Z</time>
      </trkpt>
      <trkpt lat="43.43809" lon="6.02817">
        <ele>276.79998779297</ele>
        <time>2016-04-20T13:24:41Z</time>
      </trkpt>
      <trkpt lat="43.43805" lon="6.0281">
        <ele>277.20001220703</ele>
        <time>2016-04-20T13:24:43Z</time>
      </trkpt>
      <trkpt lat="43.43801" lon="6.02805">
        <ele>277.39999389648</ele>
        <time>2016-04-20T13:24:45Z</time>
      </trkpt>
      <trkpt lat="43.43798" lon="6.028">
        <ele>278</ele>
        <time>2016-04-20T13:24:47Z</time>
      </trkpt>
      <trkpt lat="43.43797" lon="6.02797">
        <ele>278.20001220703</ele>
        <time>2016-04-20T13:24:48Z</time>
      </trkpt>
      <trkpt lat="43.43795" lon="6.02793">
        <ele>278.39999389648</ele>
        <time>2016-04-20T13:24:49Z</time>
      </trkpt>
      <trkpt lat="43.43792" lon="6.02786">
        <ele>278.60000610352</ele>
        <time>2016-04-20T13:24:51Z</time>
      </trkpt>
      <trkpt lat="43.4379" lon="6.02783">
        <ele>278.79998779297</ele>
        <time>2016-04-20T13:24:52Z</time>
      </trkpt>
      <trkpt lat="43.43789" lon="6.02779">
        <ele>279</ele>
        <time>2016-04-20T13:24:53Z</time>
      </trkpt>
      <trkpt lat="43.43789" lon="6.02775">
        <ele>279</ele>
        <time>2016-04-20T13:24:54Z</time>
      </trkpt>
      <trkpt lat="43.43789" lon="6.02771">
        <ele>279</ele>
        <time>2016-04-20T13:24:55Z</time>
      </trkpt>
      <trkpt lat="43.4379" lon="6.02762">
        <ele>279</ele>
        <time>2016-04-20T13:24:57Z</time>
      </trkpt>
      <trkpt lat="43.43792" lon="6.02754">
        <ele>279</ele>
        <time>2016-04-20T13:24:59Z</time>
      </trkpt>
      <trkpt lat="43.43792" lon="6.0275">
        <ele>278.79998779297</ele>
        <time>2016-04-20T13:25:00Z</time>
      </trkpt>
      <trkpt lat="43.43792" lon="6.02746">
        <ele>278.79998779297</ele>
        <time>2016-04-20T13:25:01Z</time>
      </trkpt>
      <trkpt lat="43.4379" lon="6.02739">
        <ele>279</ele>
        <time>2016-04-20T13:25:03Z</time>
      </trkpt>
      <trkpt lat="43.43788" lon="6.02732">
        <ele>278.79998779297</ele>
        <time>2016-04-20T13:25:05Z</time>
      </trkpt>
      <trkpt lat="43.43786" lon="6.02729">
        <ele>279</ele>
        <time>2016-04-20T13:25:06Z</time>
      </trkpt>
      <trkpt lat="43.43784" lon="6.02727">
        <ele>279</ele>
        <time>2016-04-20T13:25:07Z</time>
      </trkpt>
      <trkpt lat="43.43779" lon="6.02724">
        <ele>279.20001220703</ele>
        <time>2016-04-20T13:25:09Z</time>
      </trkpt>
      <trkpt lat="43.43777" lon="6.02722">
        <ele>279.39999389648</ele>
        <time>2016-04-20T13:25:10Z</time>
      </trkpt>
      <trkpt lat="43.43774" lon="6.02719">
        <ele>279.60000610352</ele>
        <time>2016-04-20T13:25:11Z</time>
      </trkpt>
      <trkpt lat="43.43773" lon="6.02717">
        <ele>279.79998779297</ele>
        <time>2016-04-20T13:25:12Z</time>
      </trkpt>
      <trkpt lat="43.43771" lon="6.02714">
        <ele>280</ele>
        <time>2016-04-20T13:25:13Z</time>
      </trkpt>
      <trkpt lat="43.43769" lon="6.02712">
        <ele>280</ele>
        <time>2016-04-20T13:25:14Z</time>
      </trkpt>
      <trkpt lat="43.43768" lon="6.0271">
        <ele>280.20001220703</ele>
        <time>2016-04-20T13:25:15Z</time>
      </trkpt>
      <trkpt lat="43.4377" lon="6.02705">
        <ele>280.60000610352</ele>
        <time>2016-04-20T13:25:17Z</time>
      </trkpt>
      <trkpt lat="43.43771" lon="6.02704">
        <ele>281</ele>
        <time>2016-04-20T13:25:18Z</time>
      </trkpt>
      <trkpt lat="43.43774" lon="6.02704">
        <ele>281</ele>
        <time>2016-04-20T13:25:19Z</time>
      </trkpt>
      <trkpt lat="43.43778" lon="6.02703">
        <ele>281.20001220703</ele>
        <time>2016-04-20T13:25:21Z</time>
      </trkpt>
      <trkpt lat="43.43781" lon="6.02701">
        <ele>281.20001220703</ele>
        <time>2016-04-20T13:25:22Z</time>
      </trkpt>
      <trkpt lat="43.43782" lon="6.02698">
        <ele>281.20001220703</ele>
        <time>2016-04-20T13:25:23Z</time>
      </trkpt>
      <trkpt lat="43.43784" lon="6.02695">
        <ele>281</ele>
        <time>2016-04-20T13:25:24Z</time>
      </trkpt>
      <trkpt lat="43.43785" lon="6.02693">
        <ele>281</ele>
        <time>2016-04-20T13:25:25Z</time>
      </trkpt>
      <trkpt lat="43.43785" lon="6.02692">
        <ele>281</ele>
        <time>2016-04-20T13:25:26Z</time>
      </trkpt>
      <trkpt lat="43.43787" lon="6.02691">
        <ele>281</ele>
        <time>2016-04-20T13:25:27Z</time>
      </trkpt>
      <trkpt lat="43.43788" lon="6.0269">
        <ele>280.79998779297</ele>
        <time>2016-04-20T13:25:29Z</time>
      </trkpt>
      <trkpt lat="43.43789" lon="6.02688">
        <ele>280.39999389648</ele>
        <time>2016-04-20T13:25:31Z</time>
      </trkpt>
      <trkpt lat="43.43789" lon="6.02686">
        <ele>280.20001220703</ele>
        <time>2016-04-20T13:25:32Z</time>
      </trkpt>
      <trkpt lat="43.43789" lon="6.02683">
        <ele>280.20001220703</ele>
        <time>2016-04-20T13:25:33Z</time>
      </trkpt>
      <trkpt lat="43.43788" lon="6.02681">
        <ele>280.39999389648</ele>
        <time>2016-04-20T13:25:35Z</time>
      </trkpt>
      <trkpt lat="43.43787" lon="6.02679">
        <ele>280.60000610352</ele>
        <time>2016-04-20T13:25:37Z</time>
      </trkpt>
      <trkpt lat="43.43787" lon="6.02678">
        <ele>280.79998779297</ele>
        <time>2016-04-20T13:25:38Z</time>
      </trkpt>
      <trkpt lat="43.43787" lon="6.02676">
        <ele>281.20001220703</ele>
        <time>2016-04-20T13:25:39Z</time>
      </trkpt>
      <trkpt lat="43.43787" lon="6.02673">
        <ele>281.20001220703</ele>
        <time>2016-04-20T13:25:41Z</time>
      </trkpt>
      <trkpt lat="43.43788" lon="6.02668">
        <ele>281.20001220703</ele>
        <time>2016-04-20T13:25:43Z</time>
      </trkpt>
      <trkpt lat="43.43788" lon="6.02666">
        <ele>281.20001220703</ele>
        <time>2016-04-20T13:25:44Z</time>
      </trkpt>
      <trkpt lat="43.43788" lon="6.02663">
        <ele>281.39999389648</ele>
        <time>2016-04-20T13:25:45Z</time>
      </trkpt>
      <trkpt lat="43.43788" lon="6.0266">
        <ele>281.39999389648</ele>
        <time>2016-04-20T13:25:46Z</time>
      </trkpt>
      <trkpt lat="43.43787" lon="6.02658">
        <ele>281.60000610352</ele>
        <time>2016-04-20T13:25:47Z</time>
      </trkpt>
      <trkpt lat="43.43786" lon="6.02652">
        <ele>281.79998779297</ele>
        <time>2016-04-20T13:25:49Z</time>
      </trkpt>
      <trkpt lat="43.43785" lon="6.02649">
        <ele>281.79998779297</ele>
        <time>2016-04-20T13:25:50Z</time>
      </trkpt>
      <trkpt lat="43.43785" lon="6.02646">
        <ele>282</ele>
        <time>2016-04-20T13:25:51Z</time>
      </trkpt>
      <trkpt lat="43.43786" lon="6.02641">
        <ele>282</ele>
        <time>2016-04-20T13:25:53Z</time>
      </trkpt>
      <trkpt lat="43.43787" lon="6.02635">
        <ele>282</ele>
        <time>2016-04-20T13:25:55Z</time>
      </trkpt>
      <trkpt lat="43.43788" lon="6.02632">
        <ele>282</ele>
        <time>2016-04-20T13:25:56Z</time>
      </trkpt>
      <trkpt lat="43.43789" lon="6.02628">
        <ele>282</ele>
        <time>2016-04-20T13:25:57Z</time>
      </trkpt>
      <trkpt lat="43.43791" lon="6.02621">
        <ele>282</ele>
        <time>2016-04-20T13:25:59Z</time>
      </trkpt>
      <trkpt lat="43.43794" lon="6.02613">
        <ele>282.20001220703</ele>
        <time>2016-04-20T13:26:01Z</time>
      </trkpt>
      <trkpt lat="43.43796" lon="6.02605">
        <ele>282.20001220703</ele>
        <time>2016-04-20T13:26:03Z</time>
      </trkpt>
      <trkpt lat="43.43797" lon="6.02596">
        <ele>282.20001220703</ele>
        <time>2016-04-20T13:26:05Z</time>
      </trkpt>
      <trkpt lat="43.43797" lon="6.02592">
        <ele>282.20001220703</ele>
        <time>2016-04-20T13:26:06Z</time>
      </trkpt>
      <trkpt lat="43.43796" lon="6.02588">
        <ele>282.20001220703</ele>
        <time>2016-04-20T13:26:07Z</time>
      </trkpt>
      <trkpt lat="43.43796" lon="6.02584">
        <ele>282.20001220703</ele>
        <time>2016-04-20T13:26:08Z</time>
      </trkpt>
      <trkpt lat="43.43796" lon="6.0258">
        <ele>282.20001220703</ele>
        <time>2016-04-20T13:26:09Z</time>
      </trkpt>
      <trkpt lat="43.43794" lon="6.02572">
        <ele>282.20001220703</ele>
        <time>2016-04-20T13:26:11Z</time>
      </trkpt>
      <trkpt lat="43.43793" lon="6.02564">
        <ele>282.39999389648</ele>
        <time>2016-04-20T13:26:13Z</time>
      </trkpt>
      <trkpt lat="43.43793" lon="6.02557">
        <ele>282.60000610352</ele>
        <time>2016-04-20T13:26:15Z</time>
      </trkpt>
      <trkpt lat="43.43793" lon="6.02549">
        <ele>282.60000610352</ele>
        <time>2016-04-20T13:26:17Z</time>
      </trkpt>
      <trkpt lat="43.43793" lon="6.02542">
        <ele>282.60000610352</ele>
        <time>2016-04-20T13:26:19Z</time>
      </trkpt>
      <trkpt lat="43.43795" lon="6.02535">
        <ele>282.79998779297</ele>
        <time>2016-04-20T13:26:21Z</time>
      </trkpt>
      <trkpt lat="43.43798" lon="6.02528">
        <ele>282.79998779297</ele>
        <time>2016-04-20T13:26:23Z</time>
      </trkpt>
      <trkpt lat="43.438" lon="6.02519">
        <ele>282.60000610352</ele>
        <time>2016-04-20T13:26:25Z</time>
      </trkpt>
      <trkpt lat="43.43799" lon="6.0251">
        <ele>282.20001220703</ele>
        <time>2016-04-20T13:26:27Z</time>
      </trkpt>
      <trkpt lat="43.43799" lon="6.02503">
        <ele>282</ele>
        <time>2016-04-20T13:26:29Z</time>
      </trkpt>
      <trkpt lat="43.438" lon="6.02496">
        <ele>281.60000610352</ele>
        <time>2016-04-20T13:26:31Z</time>
      </trkpt>
      <trkpt lat="43.438" lon="6.02491">
        <ele>281.20001220703</ele>
        <time>2016-04-20T13:26:33Z</time>
      </trkpt>
      <trkpt lat="43.43799" lon="6.02488">
        <ele>281.20001220703</ele>
        <time>2016-04-20T13:26:35Z</time>
      </trkpt>
      <trkpt lat="43.43798" lon="6.02486">
        <ele>281.20001220703</ele>
        <time>2016-04-20T13:26:36Z</time>
      </trkpt>
      <trkpt lat="43.43798" lon="6.02484">
        <ele>281.39999389648</ele>
        <time>2016-04-20T13:26:37Z</time>
      </trkpt>
      <trkpt lat="43.43797" lon="6.02482">
        <ele>281.60000610352</ele>
        <time>2016-04-20T13:26:39Z</time>
      </trkpt>
      <trkpt lat="43.43794" lon="6.02481">
        <ele>282.39999389648</ele>
        <time>2016-04-20T13:26:41Z</time>
      </trkpt>
      <trkpt lat="43.43793" lon="6.02479">
        <ele>283.20001220703</ele>
        <time>2016-04-20T13:26:43Z</time>
      </trkpt>
      <trkpt lat="43.43793" lon="6.02479">
        <ele>283.39999389648</ele>
        <time>2016-04-20T13:26:44Z</time>
      </trkpt>
      <trkpt lat="43.43793" lon="6.02478">
        <ele>283.60000610352</ele>
        <time>2016-04-20T13:26:45Z</time>
      </trkpt>
      <trkpt lat="43.43793" lon="6.02477">
        <ele>283.79998779297</ele>
        <time>2016-04-20T13:26:47Z</time>
      </trkpt>
      <trkpt lat="43.43793" lon="6.02477">
        <ele>284</ele>
        <time>2016-04-20T13:26:49Z</time>
      </trkpt>
      <trkpt lat="43.43793" lon="6.02477">
        <ele>284</ele>
        <time>2016-04-20T13:26:51Z</time>
      </trkpt>
      <trkpt lat="43.43793" lon="6.02477">
        <ele>283.79998779297</ele>
        <time>2016-04-20T13:26:53Z</time>
      </trkpt>
      <trkpt lat="43.43793" lon="6.02477">
        <ele>283.79998779297</ele>
        <time>2016-04-20T13:26:55Z</time>
      </trkpt>
      <trkpt lat="43.43793" lon="6.02477">
        <ele>283.79998779297</ele>
        <time>2016-04-20T13:26:57Z</time>
      </trkpt>
      <trkpt lat="43.43793" lon="6.02476">
        <ele>284</ele>
        <time>2016-04-20T13:26:59Z</time>
      </trkpt>
      <trkpt lat="43.43793" lon="6.02476">
        <ele>283.79998779297</ele>
        <time>2016-04-20T13:27:01Z</time>
      </trkpt>
      <trkpt lat="43.43793" lon="6.02476">
        <ele>283.79998779297</ele>
        <time>2016-04-20T13:27:03Z</time>
      </trkpt>
      <trkpt lat="43.43793" lon="6.02476">
        <ele>283.79998779297</ele>
        <time>2016-04-20T13:27:05Z</time>
      </trkpt>
      <trkpt lat="43.43793" lon="6.02476">
        <ele>283.60000610352</ele>
        <time>2016-04-20T13:27:07Z</time>
      </trkpt>
      <trkpt lat="43.43793" lon="6.02477">
        <ele>283.60000610352</ele>
        <time>2016-04-20T13:27:09Z</time>
      </trkpt>
      <trkpt lat="43.43793" lon="6.02477">
        <ele>283.60000610352</ele>
        <time>2016-04-20T13:27:10Z</time>
      </trkpt>
      <trkpt lat="43.43793" lon="6.02476">
        <ele>283.60000610352</ele>
        <time>2016-04-20T13:27:11Z</time>
      </trkpt>
      <trkpt lat="43.43793" lon="6.02476">
        <ele>283.39999389648</ele>
        <time>2016-04-20T13:27:13Z</time>
      </trkpt>
      <trkpt lat="43.43793" lon="6.02477">
        <ele>283.39999389648</ele>
        <time>2016-04-20T13:27:15Z</time>
      </trkpt>
      <trkpt lat="43.43793" lon="6.02477">
        <ele>283.39999389648</ele>
        <time>2016-04-20T13:27:17Z</time>
      </trkpt>
      <trkpt lat="43.43793" lon="6.02477">
        <ele>283.20001220703</ele>
        <time>2016-04-20T13:27:19Z</time>
      </trkpt>
      <trkpt lat="43.43793" lon="6.02477">
        <ele>283.20001220703</ele>
        <time>2016-04-20T13:27:21Z</time>
      </trkpt>
      <trkpt lat="43.43793" lon="6.02477">
        <ele>283.39999389648</ele>
        <time>2016-04-20T13:27:23Z</time>
      </trkpt>
      <trkpt lat="43.43793" lon="6.02477">
        <ele>283.39999389648</ele>
        <time>2016-04-20T13:27:25Z</time>
      </trkpt>
      <trkpt lat="43.43793" lon="6.02477">
        <ele>283.39999389648</ele>
        <time>2016-04-20T13:27:27Z</time>
      </trkpt>
      <trkpt lat="43.43793" lon="6.02477">
        <ele>283.39999389648</ele>
        <time>2016-04-20T13:27:29Z</time>
      </trkpt>
      <trkpt lat="43.43793" lon="6.02477">
        <ele>283.39999389648</ele>
        <time>2016-04-20T13:27:31Z</time>
      </trkpt>
      <trkpt lat="43.43793" lon="6.02477">
        <ele>283.39999389648</ele>
        <time>2016-04-20T13:27:33Z</time>
      </trkpt>
      <trkpt lat="43.43793" lon="6.02477">
        <ele>283.39999389648</ele>
        <time>2016-04-20T13:27:35Z</time>
      </trkpt>
      <trkpt lat="43.43793" lon="6.02477">
        <ele>283.39999389648</ele>
        <time>2016-04-20T13:27:37Z</time>
      </trkpt>
      <trkpt lat="43.43793" lon="6.02477">
        <ele>283.39999389648</ele>
        <time>2016-04-20T13:27:39Z</time>
      </trkpt>
      <trkpt lat="43.43793" lon="6.02477">
        <ele>283.39999389648</ele>
        <time>2016-04-20T13:27:41Z</time>
      </trkpt>
      <trkpt lat="43.43793" lon="6.02476">
        <ele>283.39999389648</ele>
        <time>2016-04-20T13:27:43Z</time>
      </trkpt>
      <trkpt lat="43.43793" lon="6.02476">
        <ele>283.60000610352</ele>
        <time>2016-04-20T13:27:45Z</time>
      </trkpt>
      <trkpt lat="43.43793" lon="6.02476">
        <ele>283.60000610352</ele>
        <time>2016-04-20T13:27:47Z</time>
      </trkpt>
      <trkpt lat="43.43793" lon="6.02476">
        <ele>283.39999389648</ele>
        <time>2016-04-20T13:27:49Z</time>
      </trkpt>
      <trkpt lat="43.43793" lon="6.02476">
        <ele>283.20001220703</ele>
        <time>2016-04-20T13:27:51Z</time>
      </trkpt>
      <trkpt lat="43.43793" lon="6.02476">
        <ele>283.20001220703</ele>
        <time>2016-04-20T13:27:53Z</time>
      </trkpt>
      <trkpt lat="43.43793" lon="6.02476">
        <ele>283.20001220703</ele>
        <time>2016-04-20T13:27:55Z</time>
      </trkpt>
      <trkpt lat="43.43793" lon="6.02476">
        <ele>283.20001220703</ele>
        <time>2016-04-20T13:27:57Z</time>
      </trkpt>
      <trkpt lat="43.43793" lon="6.02476">
        <ele>283.20001220703</ele>
        <time>2016-04-20T13:27:59Z</time>
      </trkpt>
      <trkpt lat="43.43793" lon="6.02476">
        <ele>283.39999389648</ele>
        <time>2016-04-20T13:28:01Z</time>
      </trkpt>
      <trkpt lat="43.43793" lon="6.02476">
        <ele>283.39999389648</ele>
        <time>2016-04-20T13:28:03Z</time>
      </trkpt>
      <trkpt lat="43.43793" lon="6.02476">
        <ele>283.60000610352</ele>
        <time>2016-04-20T13:28:05Z</time>
      </trkpt>
      <trkpt lat="43.43793" lon="6.02476">
        <ele>283.60000610352</ele>
        <time>2016-04-20T13:28:07Z</time>
      </trkpt>
      <trkpt lat="43.43793" lon="6.02476">
        <ele>283.39999389648</ele>
        <time>2016-04-20T13:28:09Z</time>
      </trkpt>
      <trkpt lat="43.43793" lon="6.02476">
        <ele>283.39999389648</ele>
        <time>2016-04-20T13:28:11Z</time>
      </trkpt>
      <trkpt lat="43.43793" lon="6.02476">
        <ele>283.39999389648</ele>
        <time>2016-04-20T13:28:13Z</time>
      </trkpt>
      <trkpt lat="43.43793" lon="6.02476">
        <ele>283.20001220703</ele>
        <time>2016-04-20T13:28:15Z</time>
      </trkpt>
      <trkpt lat="43.43793" lon="6.02476">
        <ele>283.20001220703</ele>
        <time>2016-04-20T13:28:17Z</time>
      </trkpt>
      <trkpt lat="43.43793" lon="6.02476">
        <ele>283.39999389648</ele>
        <time>2016-04-20T13:28:19Z</time>
      </trkpt>
      <trkpt lat="43.43793" lon="6.02476">
        <ele>283.39999389648</ele>
        <time>2016-04-20T13:28:21Z</time>
      </trkpt>
      <trkpt lat="43.43793" lon="6.02476">
        <ele>283.39999389648</ele>
        <time>2016-04-20T13:28:22Z</time>
      </trkpt>
      <trkpt lat="43.43793" lon="6.02476">
        <ele>283.39999389648</ele>
        <time>2016-04-20T13:28:23Z</time>
      </trkpt>
      <trkpt lat="43.43793" lon="6.02476">
        <ele>283.20001220703</ele>
        <time>2016-04-20T13:28:24Z</time>
      </trkpt>
      <trkpt lat="43.43793" lon="6.02476">
        <ele>283.20001220703</ele>
        <time>2016-04-20T13:28:25Z</time>
      </trkpt>
      <trkpt lat="43.43793" lon="6.02476">
        <ele>283.39999389648</ele>
        <time>2016-04-20T13:28:27Z</time>
      </trkpt>
      <trkpt lat="43.43793" lon="6.02476">
        <ele>283.39999389648</ele>
        <time>2016-04-20T13:28:29Z</time>
      </trkpt>
      <trkpt lat="43.43793" lon="6.02476">
        <ele>283.39999389648</ele>
        <time>2016-04-20T13:28:31Z</time>
      </trkpt>
      <trkpt lat="43.43793" lon="6.02476">
        <ele>283.39999389648</ele>
        <time>2016-04-20T13:28:33Z</time>
      </trkpt>
      <trkpt lat="43.43793" lon="6.02476">
        <ele>283.39999389648</ele>
        <time>2016-04-20T13:28:35Z</time>
      </trkpt>
      <trkpt lat="43.43793" lon="6.02476">
        <ele>283.39999389648</ele>
        <time>2016-04-20T13:28:36Z</time>
      </trkpt>
      <trkpt lat="43.43793" lon="6.02476">
        <ele>283.60000610352</ele>
        <time>2016-04-20T13:28:39Z</time>
      </trkpt>
      <trkpt lat="43.43793" lon="6.02476">
        <ele>283.60000610352</ele>
        <time>2016-04-20T13:28:41Z</time>
      </trkpt>
      <trkpt lat="43.43793" lon="6.02476">
        <ele>283.79998779297</ele>
        <time>2016-04-20T13:28:43Z</time>
      </trkpt>
      <trkpt lat="43.43793" lon="6.02476">
        <ele>283.79998779297</ele>
        <time>2016-04-20T13:28:45Z</time>
      </trkpt>
      <trkpt lat="43.43793" lon="6.02476">
        <ele>283.79998779297</ele>
        <time>2016-04-20T13:28:47Z</time>
      </trkpt>
      <trkpt lat="43.43793" lon="6.02476">
        <ele>284</ele>
        <time>2016-04-20T13:28:49Z</time>
      </trkpt>
      <trkpt lat="43.43793" lon="6.02476">
        <ele>284</ele>
        <time>2016-04-20T13:28:51Z</time>
      </trkpt>
      <trkpt lat="43.43793" lon="6.02475">
        <ele>284</ele>
        <time>2016-04-20T13:28:53Z</time>
      </trkpt>
      <trkpt lat="43.43793" lon="6.02475">
        <ele>283.79998779297</ele>
        <time>2016-04-20T13:28:55Z</time>
      </trkpt>
      <trkpt lat="43.43793" lon="6.02475">
        <ele>283.79998779297</ele>
        <time>2016-04-20T13:28:57Z</time>
      </trkpt>
      <trkpt lat="43.43793" lon="6.02475">
        <ele>283.79998779297</ele>
        <time>2016-04-20T13:28:59Z</time>
      </trkpt>
      <trkpt lat="43.43793" lon="6.02475">
        <ele>283.79998779297</ele>
        <time>2016-04-20T13:29:01Z</time>
      </trkpt>
      <trkpt lat="43.43793" lon="6.02475">
        <ele>283.79998779297</ele>
        <time>2016-04-20T13:29:03Z</time>
      </trkpt>
      <trkpt lat="43.43793" lon="6.02475">
        <ele>283.79998779297</ele>
        <time>2016-04-20T13:29:05Z</time>
      </trkpt>
      <trkpt lat="43.43793" lon="6.02475">
        <ele>283.60000610352</ele>
        <time>2016-04-20T13:29:07Z</time>
      </trkpt>
      <trkpt lat="43.43793" lon="6.02475">
        <ele>283.60000610352</ele>
        <time>2016-04-20T13:29:09Z</time>
      </trkpt>
      <trkpt lat="43.43793" lon="6.02475">
        <ele>283.79998779297</ele>
        <time>2016-04-20T13:29:11Z</time>
      </trkpt>
      <trkpt lat="43.43793" lon="6.02475">
        <ele>283.79998779297</ele>
        <time>2016-04-20T13:29:13Z</time>
      </trkpt>
      <trkpt lat="43.43793" lon="6.02475">
        <ele>283.79998779297</ele>
        <time>2016-04-20T13:29:15Z</time>
      </trkpt>
      <trkpt lat="43.43793" lon="6.02475">
        <ele>283.79998779297</ele>
        <time>2016-04-20T13:29:17Z</time>
      </trkpt>
      <trkpt lat="43.43793" lon="6.02475">
        <ele>283.79998779297</ele>
        <time>2016-04-20T13:29:19Z</time>
      </trkpt>
      <trkpt lat="43.43793" lon="6.02475">
        <ele>284</ele>
        <time>2016-04-20T13:29:21Z</time>
      </trkpt>
      <trkpt lat="43.43793" lon="6.02475">
        <ele>283.79998779297</ele>
        <time>2016-04-20T13:29:23Z</time>
      </trkpt>
      <trkpt lat="43.43793" lon="6.02475">
        <ele>283.79998779297</ele>
        <time>2016-04-20T13:29:24Z</time>
      </trkpt>
      <trkpt lat="43.43793" lon="6.02475">
        <ele>283.79998779297</ele>
        <time>2016-04-20T13:29:27Z</time>
      </trkpt>
      <trkpt lat="43.43793" lon="6.02475">
        <ele>283.79998779297</ele>
        <time>2016-04-20T13:29:29Z</time>
      </trkpt>
      <trkpt lat="43.43793" lon="6.02475">
        <ele>283.79998779297</ele>
        <time>2016-04-20T13:29:31Z</time>
      </trkpt>
      <trkpt lat="43.43793" lon="6.02475">
        <ele>283.79998779297</ele>
        <time>2016-04-20T13:29:33Z</time>
      </trkpt>
      <trkpt lat="43.43793" lon="6.02475">
        <ele>283.79998779297</ele>
        <time>2016-04-20T13:29:35Z</time>
      </trkpt>
      <trkpt lat="43.43793" lon="6.02475">
        <ele>283.79998779297</ele>
        <time>2016-04-20T13:29:37Z</time>
      </trkpt>
      <trkpt lat="43.43793" lon="6.02475">
        <ele>283.79998779297</ele>
        <time>2016-04-20T13:29:39Z</time>
      </trkpt>
      <trkpt lat="43.43793" lon="6.02475">
        <ele>283.79998779297</ele>
        <time>2016-04-20T13:29:41Z</time>
      </trkpt>
      <trkpt lat="43.43793" lon="6.02475">
        <ele>283.79998779297</ele>
        <time>2016-04-20T13:29:43Z</time>
      </trkpt>
      <trkpt lat="43.43793" lon="6.02475">
        <ele>283.79998779297</ele>
        <time>2016-04-20T13:29:45Z</time>
      </trkpt>
      <trkpt lat="43.43793" lon="6.02475">
        <ele>283.60000610352</ele>
        <time>2016-04-20T13:29:47Z</time>
      </trkpt>
      <trkpt lat="43.43793" lon="6.02475">
        <ele>283.60000610352</ele>
        <time>2016-04-20T13:29:48Z</time>
      </trkpt>
      <trkpt lat="43.43793" lon="6.02475">
        <ele>283.60000610352</ele>
        <time>2016-04-20T13:29:49Z</time>
      </trkpt>
      <trkpt lat="43.43793" lon="6.02474">
        <ele>283.60000610352</ele>
        <time>2016-04-20T13:29:51Z</time>
      </trkpt>
      <trkpt lat="43.43793" lon="6.02474">
        <ele>283.60000610352</ele>
        <time>2016-04-20T13:29:53Z</time>
      </trkpt>
      <trkpt lat="43.43793" lon="6.02474">
        <ele>283.79998779297</ele>
        <time>2016-04-20T13:29:55Z</time>
      </trkpt>
      <trkpt lat="43.43793" lon="6.02475">
        <ele>283.79998779297</ele>
        <time>2016-04-20T13:29:57Z</time>
      </trkpt>
      <trkpt lat="43.43793" lon="6.02475">
        <ele>283.79998779297</ele>
        <time>2016-04-20T13:29:59Z</time>
      </trkpt>
      <trkpt lat="43.43793" lon="6.02474">
        <ele>283.79998779297</ele>
        <time>2016-04-20T13:30:01Z</time>
      </trkpt>
      <trkpt lat="43.43793" lon="6.02474">
        <ele>283.79998779297</ele>
        <time>2016-04-20T13:30:03Z</time>
      </trkpt>
      <trkpt lat="43.43793" lon="6.02474">
        <ele>284</ele>
        <time>2016-04-20T13:30:05Z</time>
      </trkpt>
      <trkpt lat="43.43793" lon="6.02474">
        <ele>284</ele>
        <time>2016-04-20T13:30:07Z</time>
      </trkpt>
      <trkpt lat="43.43793" lon="6.02474">
        <ele>284</ele>
        <time>2016-04-20T13:30:09Z</time>
      </trkpt>
      <trkpt lat="43.43793" lon="6.02474">
        <ele>283.79998779297</ele>
        <time>2016-04-20T13:30:11Z</time>
      </trkpt>
      <trkpt lat="43.43793" lon="6.02474">
        <ele>283.79998779297</ele>
        <time>2016-04-20T13:30:13Z</time>
      </trkpt>
      <trkpt lat="43.43793" lon="6.02474">
        <ele>283.60000610352</ele>
        <time>2016-04-20T13:30:15Z</time>
      </trkpt>
      <trkpt lat="43.43793" lon="6.02474">
        <ele>283.60000610352</ele>
        <time>2016-04-20T13:30:17Z</time>
      </trkpt>
      <trkpt lat="43.43793" lon="6.02474">
        <ele>283.60000610352</ele>
        <time>2016-04-20T13:30:19Z</time>
      </trkpt>
      <trkpt lat="43.43793" lon="6.02474">
        <ele>283.60000610352</ele>
        <time>2016-04-20T13:30:21Z</time>
      </trkpt>
      <trkpt lat="43.43793" lon="6.02474">
        <ele>283.39999389648</ele>
        <time>2016-04-20T13:30:23Z</time>
      </trkpt>
      <trkpt lat="43.43793" lon="6.02474">
        <ele>283.39999389648</ele>
        <time>2016-04-20T13:30:25Z</time>
      </trkpt>
      <trkpt lat="43.43793" lon="6.02474">
        <ele>283.39999389648</ele>
        <time>2016-04-20T13:30:27Z</time>
      </trkpt>
      <trkpt lat="43.43793" lon="6.02474">
        <ele>283.39999389648</ele>
        <time>2016-04-20T13:30:29Z</time>
      </trkpt>
      <trkpt lat="43.43793" lon="6.02474">
        <ele>283.39999389648</ele>
        <time>2016-04-20T13:30:31Z</time>
      </trkpt>
      <trkpt lat="43.43793" lon="6.02474">
        <ele>283.39999389648</ele>
        <time>2016-04-20T13:30:33Z</time>
      </trkpt>
      <trkpt lat="43.43793" lon="6.02474">
        <ele>283.20001220703</ele>
        <time>2016-04-20T13:30:35Z</time>
      </trkpt>
      <trkpt lat="43.43793" lon="6.02474">
        <ele>283.39999389648</ele>
        <time>2016-04-20T13:30:37Z</time>
      </trkpt>
      <trkpt lat="43.43793" lon="6.02474">
        <ele>283.60000610352</ele>
        <time>2016-04-20T13:30:39Z</time>
      </trkpt>
      <trkpt lat="43.43793" lon="6.02474">
        <ele>283.60000610352</ele>
        <time>2016-04-20T13:30:41Z</time>
      </trkpt>
      <trkpt lat="43.43793" lon="6.02474">
        <ele>283.60000610352</ele>
        <time>2016-04-20T13:30:43Z</time>
      </trkpt>
      <trkpt lat="43.43793" lon="6.02474">
        <ele>283.60000610352</ele>
        <time>2016-04-20T13:30:45Z</time>
      </trkpt>
      <trkpt lat="43.43793" lon="6.02474">
        <ele>283.79998779297</ele>
        <time>2016-04-20T13:30:47Z</time>
      </trkpt>
      <trkpt lat="43.43793" lon="6.02474">
        <ele>283.79998779297</ele>
        <time>2016-04-20T13:30:49Z</time>
      </trkpt>
      <trkpt lat="43.43793" lon="6.02474">
        <ele>283.79998779297</ele>
        <time>2016-04-20T13:30:51Z</time>
      </trkpt>
      <trkpt lat="43.43793" lon="6.02474">
        <ele>283.79998779297</ele>
        <time>2016-04-20T13:30:53Z</time>
      </trkpt>
      <trkpt lat="43.43793" lon="6.02474">
        <ele>283.79998779297</ele>
        <time>2016-04-20T13:30:55Z</time>
      </trkpt>
      <trkpt lat="43.43793" lon="6.02474">
        <ele>283.60000610352</ele>
        <time>2016-04-20T13:30:57Z</time>
      </trkpt>
      <trkpt lat="43.43793" lon="6.02474">
        <ele>283.60000610352</ele>
        <time>2016-04-20T13:30:59Z</time>
      </trkpt>
      <trkpt lat="43.43793" lon="6.02474">
        <ele>283.39999389648</ele>
        <time>2016-04-20T13:31:01Z</time>
      </trkpt>
      <trkpt lat="43.43793" lon="6.02474">
        <ele>283.39999389648</ele>
        <time>2016-04-20T13:31:03Z</time>
      </trkpt>
      <trkpt lat="43.43793" lon="6.02474">
        <ele>283.39999389648</ele>
        <time>2016-04-20T13:31:05Z</time>
      </trkpt>
      <trkpt lat="43.43793" lon="6.02474">
        <ele>283.79998779297</ele>
        <time>2016-04-20T13:31:07Z</time>
      </trkpt>
      <trkpt lat="43.43793" lon="6.02474">
        <ele>283.79998779297</ele>
        <time>2016-04-20T13:31:09Z</time>
      </trkpt>
      <trkpt lat="43.43793" lon="6.02474">
        <ele>283.79998779297</ele>
        <time>2016-04-20T13:31:11Z</time>
      </trkpt>
      <trkpt lat="43.43793" lon="6.02474">
        <ele>283.79998779297</ele>
        <time>2016-04-20T13:31:13Z</time>
      </trkpt>
      <trkpt lat="43.43793" lon="6.02474">
        <ele>283.79998779297</ele>
        <time>2016-04-20T13:31:15Z</time>
      </trkpt>
      <trkpt lat="43.43793" lon="6.02474">
        <ele>283.79998779297</ele>
        <time>2016-04-20T13:31:17Z</time>
      </trkpt>
      <trkpt lat="43.43793" lon="6.02474">
        <ele>284</ele>
        <time>2016-04-20T13:31:19Z</time>
      </trkpt>
      <trkpt lat="43.43793" lon="6.02474">
        <ele>284</ele>
        <time>2016-04-20T13:31:21Z</time>
      </trkpt>
      <trkpt lat="43.43793" lon="6.02474">
        <ele>284</ele>
        <time>2016-04-20T13:31:23Z</time>
      </trkpt>
      <trkpt lat="43.43793" lon="6.02474">
        <ele>284</ele>
        <time>2016-04-20T13:31:25Z</time>
      </trkpt>
      <trkpt lat="43.43793" lon="6.02474">
        <ele>283.79998779297</ele>
        <time>2016-04-20T13:31:27Z</time>
      </trkpt>
      <trkpt lat="43.43793" lon="6.02474">
        <ele>283.60000610352</ele>
        <time>2016-04-20T13:31:29Z</time>
      </trkpt>
      <trkpt lat="43.43793" lon="6.02474">
        <ele>283.60000610352</ele>
        <time>2016-04-20T13:31:31Z</time>
      </trkpt>
      <trkpt lat="43.43793" lon="6.02474">
        <ele>283.39999389648</ele>
        <time>2016-04-20T13:31:33Z</time>
      </trkpt>
      <trkpt lat="43.43793" lon="6.02474">
        <ele>283.39999389648</ele>
        <time>2016-04-20T13:31:35Z</time>
      </trkpt>
      <trkpt lat="43.43793" lon="6.02474">
        <ele>283.39999389648</ele>
        <time>2016-04-20T13:31:37Z</time>
      </trkpt>
      <trkpt lat="43.43793" lon="6.02474">
        <ele>283.39999389648</ele>
        <time>2016-04-20T13:31:39Z</time>
      </trkpt>
      <trkpt lat="43.43793" lon="6.02474">
        <ele>283.60000610352</ele>
        <time>2016-04-20T13:31:41Z</time>
      </trkpt>
      <trkpt lat="43.43793" lon="6.02474">
        <ele>283.60000610352</ele>
        <time>2016-04-20T13:31:43Z</time>
      </trkpt>
      <trkpt lat="43.43793" lon="6.02474">
        <ele>283.39999389648</ele>
        <time>2016-04-20T13:31:45Z</time>
      </trkpt>
      <trkpt lat="43.43793" lon="6.02474">
        <ele>283.39999389648</ele>
        <time>2016-04-20T13:31:47Z</time>
      </trkpt>
      <trkpt lat="43.43793" lon="6.02474">
        <ele>283.20001220703</ele>
        <time>2016-04-20T13:31:48Z</time>
      </trkpt>
      <trkpt lat="43.43793" lon="6.02474">
        <ele>283.20001220703</ele>
        <time>2016-04-20T13:31:49Z</time>
      </trkpt>
      <trkpt lat="43.43793" lon="6.02474">
        <ele>283.20001220703</ele>
        <time>2016-04-20T13:31:51Z</time>
      </trkpt>
      <trkpt lat="43.43793" lon="6.02474">
        <ele>283.60000610352</ele>
        <time>2016-04-20T13:31:53Z</time>
      </trkpt>
      <trkpt lat="43.43793" lon="6.02474">
        <ele>283.60000610352</ele>
        <time>2016-04-20T13:31:55Z</time>
      </trkpt>
      <trkpt lat="43.43793" lon="6.02474">
        <ele>283.79998779297</ele>
        <time>2016-04-20T13:31:57Z</time>
      </trkpt>
      <trkpt lat="43.43793" lon="6.02474">
        <ele>283.79998779297</ele>
        <time>2016-04-20T13:31:59Z</time>
      </trkpt>
      <trkpt lat="43.43793" lon="6.02474">
        <ele>283.60000610352</ele>
        <time>2016-04-20T13:32:01Z</time>
      </trkpt>
      <trkpt lat="43.43793" lon="6.02474">
        <ele>283.60000610352</ele>
        <time>2016-04-20T13:32:03Z</time>
      </trkpt>
      <trkpt lat="43.43793" lon="6.02474">
        <ele>283.60000610352</ele>
        <time>2016-04-20T13:32:05Z</time>
      </trkpt>
      <trkpt lat="43.43793" lon="6.02474">
        <ele>283.60000610352</ele>
        <time>2016-04-20T13:32:07Z</time>
      </trkpt>
      <trkpt lat="43.43793" lon="6.02474">
        <ele>283.60000610352</ele>
        <time>2016-04-20T13:32:09Z</time>
      </trkpt>
      <trkpt lat="43.43793" lon="6.02474">
        <ele>283.79998779297</ele>
        <time>2016-04-20T13:32:11Z</time>
      </trkpt>
      <trkpt lat="43.43793" lon="6.02474">
        <ele>284</ele>
        <time>2016-04-20T13:32:12Z</time>
      </trkpt>
      <trkpt lat="43.43793" lon="6.02474">
        <ele>284.20001220703</ele>
        <time>2016-04-20T13:32:13Z</time>
      </trkpt>
      <trkpt lat="43.43793" lon="6.02474">
        <ele>284.39999389648</ele>
        <time>2016-04-20T13:32:15Z</time>
      </trkpt>
      <trkpt lat="43.43793" lon="6.02474">
        <ele>284.39999389648</ele>
        <time>2016-04-20T13:32:17Z</time>
      </trkpt>
      <trkpt lat="43.43793" lon="6.02474">
        <ele>284.39999389648</ele>
        <time>2016-04-20T13:32:19Z</time>
      </trkpt>
      <trkpt lat="43.43793" lon="6.02473">
        <ele>284.39999389648</ele>
        <time>2016-04-20T13:32:21Z</time>
      </trkpt>
      <trkpt lat="43.43793" lon="6.02473">
        <ele>284.20001220703</ele>
        <time>2016-04-20T13:32:22Z</time>
      </trkpt>
      <trkpt lat="43.43793" lon="6.02473">
        <ele>284.20001220703</ele>
        <time>2016-04-20T13:32:23Z</time>
      </trkpt>
      <trkpt lat="43.43793" lon="6.02473">
        <ele>284</ele>
        <time>2016-04-20T13:32:25Z</time>
      </trkpt>
      <trkpt lat="43.43793" lon="6.02473">
        <ele>284.20001220703</ele>
        <time>2016-04-20T13:32:27Z</time>
      </trkpt>
      <trkpt lat="43.43793" lon="6.02473">
        <ele>284.20001220703</ele>
        <time>2016-04-20T13:32:29Z</time>
      </trkpt>
      <trkpt lat="43.43793" lon="6.02473">
        <ele>284</ele>
        <time>2016-04-20T13:32:31Z</time>
      </trkpt>
      <trkpt lat="43.43793" lon="6.02473">
        <ele>284</ele>
        <time>2016-04-20T13:32:33Z</time>
      </trkpt>
      <trkpt lat="43.43793" lon="6.02473">
        <ele>284</ele>
        <time>2016-04-20T13:32:35Z</time>
      </trkpt>
      <trkpt lat="43.43793" lon="6.02473">
        <ele>284</ele>
        <time>2016-04-20T13:32:37Z</time>
      </trkpt>
      <trkpt lat="43.43793" lon="6.02473">
        <ele>283.79998779297</ele>
        <time>2016-04-20T13:32:39Z</time>
      </trkpt>
      <trkpt lat="43.43793" lon="6.02473">
        <ele>283.79998779297</ele>
        <time>2016-04-20T13:32:41Z</time>
      </trkpt>
      <trkpt lat="43.43793" lon="6.02473">
        <ele>283.79998779297</ele>
        <time>2016-04-20T13:32:43Z</time>
      </trkpt>
      <trkpt lat="43.43793" lon="6.02473">
        <ele>283.79998779297</ele>
        <time>2016-04-20T13:32:45Z</time>
      </trkpt>
      <trkpt lat="43.43793" lon="6.02473">
        <ele>284</ele>
        <time>2016-04-20T13:32:47Z</time>
      </trkpt>
      <trkpt lat="43.43793" lon="6.02473">
        <ele>284.20001220703</ele>
        <time>2016-04-20T13:32:49Z</time>
      </trkpt>
      <trkpt lat="43.43793" lon="6.02473">
        <ele>284.39999389648</ele>
        <time>2016-04-20T13:32:51Z</time>
      </trkpt>
      <trkpt lat="43.43793" lon="6.02473">
        <ele>284.39999389648</ele>
        <time>2016-04-20T13:32:52Z</time>
      </trkpt>
      <trkpt lat="43.43793" lon="6.02473">
        <ele>284.39999389648</ele>
        <time>2016-04-20T13:32:53Z</time>
      </trkpt>
      <trkpt lat="43.43793" lon="6.02473">
        <ele>284</ele>
        <time>2016-04-20T13:32:55Z</time>
      </trkpt>
      <trkpt lat="43.43793" lon="6.02473">
        <ele>283.79998779297</ele>
        <time>2016-04-20T13:32:57Z</time>
      </trkpt>
      <trkpt lat="43.43793" lon="6.02473">
        <ele>283.79998779297</ele>
        <time>2016-04-20T13:32:59Z</time>
      </trkpt>
      <trkpt lat="43.43793" lon="6.02473">
        <ele>283.79998779297</ele>
        <time>2016-04-20T13:33:01Z</time>
      </trkpt>
      <trkpt lat="43.43793" lon="6.02473">
        <ele>283.79998779297</ele>
        <time>2016-04-20T13:33:03Z</time>
      </trkpt>
      <trkpt lat="43.43793" lon="6.02473">
        <ele>284.20001220703</ele>
        <time>2016-04-20T13:33:05Z</time>
      </trkpt>
      <trkpt lat="43.43793" lon="6.02473">
        <ele>284</ele>
        <time>2016-04-20T13:33:07Z</time>
      </trkpt>
      <trkpt lat="43.43793" lon="6.02473">
        <ele>284</ele>
        <time>2016-04-20T13:33:09Z</time>
      </trkpt>
      <trkpt lat="43.43793" lon="6.02473">
        <ele>283.79998779297</ele>
        <time>2016-04-20T13:33:11Z</time>
      </trkpt>
      <trkpt lat="43.43793" lon="6.02473">
        <ele>283.79998779297</ele>
        <time>2016-04-20T13:33:12Z</time>
      </trkpt>
      <trkpt lat="43.43793" lon="6.02473">
        <ele>283.79998779297</ele>
        <time>2016-04-20T13:33:13Z</time>
      </trkpt>
      <trkpt lat="43.43793" lon="6.02473">
        <ele>283.79998779297</ele>
        <time>2016-04-20T13:33:15Z</time>
      </trkpt>
      <trkpt lat="43.43793" lon="6.02473">
        <ele>283.79998779297</ele>
        <time>2016-04-20T13:33:17Z</time>
      </trkpt>
      <trkpt lat="43.43793" lon="6.02472">
        <ele>283.79998779297</ele>
        <time>2016-04-20T13:33:19Z</time>
      </trkpt>
      <trkpt lat="43.43794" lon="6.02472">
        <ele>283.79998779297</ele>
        <time>2016-04-20T13:33:21Z</time>
      </trkpt>
      <trkpt lat="43.43794" lon="6.02472">
        <ele>283.79998779297</ele>
        <time>2016-04-20T13:33:23Z</time>
      </trkpt>
      <trkpt lat="43.43794" lon="6.02472">
        <ele>284</ele>
        <time>2016-04-20T13:33:24Z</time>
      </trkpt>
      <trkpt lat="43.43794" lon="6.02472">
        <ele>284</ele>
        <time>2016-04-20T13:33:25Z</time>
      </trkpt>
      <trkpt lat="43.43794" lon="6.02472">
        <ele>284</ele>
        <time>2016-04-20T13:33:27Z</time>
      </trkpt>
      <trkpt lat="43.43794" lon="6.02472">
        <ele>284</ele>
        <time>2016-04-20T13:33:29Z</time>
      </trkpt>
      <trkpt lat="43.43794" lon="6.02472">
        <ele>284.20001220703</ele>
        <time>2016-04-20T13:33:31Z</time>
      </trkpt>
      <trkpt lat="43.43794" lon="6.02472">
        <ele>284</ele>
        <time>2016-04-20T13:33:33Z</time>
      </trkpt>
      <trkpt lat="43.43794" lon="6.02472">
        <ele>284.20001220703</ele>
        <time>2016-04-20T13:33:35Z</time>
      </trkpt>
      <trkpt lat="43.43794" lon="6.02472">
        <ele>284</ele>
        <time>2016-04-20T13:33:37Z</time>
      </trkpt>
      <trkpt lat="43.43794" lon="6.02472">
        <ele>283.79998779297</ele>
        <time>2016-04-20T13:33:38Z</time>
      </trkpt>
      <trkpt lat="43.43794" lon="6.02472">
        <ele>283.79998779297</ele>
        <time>2016-04-20T13:33:39Z</time>
      </trkpt>
      <trkpt lat="43.43794" lon="6.02472">
        <ele>283.79998779297</ele>
        <time>2016-04-20T13:33:41Z</time>
      </trkpt>
      <trkpt lat="43.43794" lon="6.02472">
        <ele>284</ele>
        <time>2016-04-20T13:33:43Z</time>
      </trkpt>
      <trkpt lat="43.43794" lon="6.02472">
        <ele>284</ele>
        <time>2016-04-20T13:33:45Z</time>
      </trkpt>
      <trkpt lat="43.43794" lon="6.02472">
        <ele>284.20001220703</ele>
        <time>2016-04-20T13:33:47Z</time>
      </trkpt>
      <trkpt lat="43.43794" lon="6.02471">
        <ele>284.20001220703</ele>
        <time>2016-04-20T13:33:49Z</time>
      </trkpt>
      <trkpt lat="43.43794" lon="6.02471">
        <ele>284.39999389648</ele>
        <time>2016-04-20T13:33:51Z</time>
      </trkpt>
      <trkpt lat="43.43794" lon="6.02471">
        <ele>284.20001220703</ele>
        <time>2016-04-20T13:33:53Z</time>
      </trkpt>
      <trkpt lat="43.43794" lon="6.02471">
        <ele>284.20001220703</ele>
        <time>2016-04-20T13:33:55Z</time>
      </trkpt>
      <trkpt lat="43.43794" lon="6.02471">
        <ele>284</ele>
        <time>2016-04-20T13:33:57Z</time>
      </trkpt>
      <trkpt lat="43.43794" lon="6.02471">
        <ele>284</ele>
        <time>2016-04-20T13:33:59Z</time>
      </trkpt>
      <trkpt lat="43.43794" lon="6.02471">
        <ele>283.79998779297</ele>
        <time>2016-04-20T13:34:01Z</time>
      </trkpt>
      <trkpt lat="43.43794" lon="6.02471">
        <ele>283.60000610352</ele>
        <time>2016-04-20T13:34:03Z</time>
      </trkpt>
      <trkpt lat="43.43794" lon="6.02471">
        <ele>283.60000610352</ele>
        <time>2016-04-20T13:34:05Z</time>
      </trkpt>
      <trkpt lat="43.43794" lon="6.02471">
        <ele>283.60000610352</ele>
        <time>2016-04-20T13:34:07Z</time>
      </trkpt>
      <trkpt lat="43.43794" lon="6.02471">
        <ele>283.79998779297</ele>
        <time>2016-04-20T13:34:09Z</time>
      </trkpt>
      <trkpt lat="43.43794" lon="6.0247">
        <ele>284</ele>
        <time>2016-04-20T13:34:11Z</time>
      </trkpt>
      <trkpt lat="43.43794" lon="6.0247">
        <ele>284.20001220703</ele>
        <time>2016-04-20T13:34:13Z</time>
      </trkpt>
      <trkpt lat="43.43794" lon="6.0247">
        <ele>284.20001220703</ele>
        <time>2016-04-20T13:34:14Z</time>
      </trkpt>
      <trkpt lat="43.43794" lon="6.02471">
        <ele>284.20001220703</ele>
        <time>2016-04-20T13:34:15Z</time>
      </trkpt>
      <trkpt lat="43.43794" lon="6.02471">
        <ele>284.20001220703</ele>
        <time>2016-04-20T13:34:17Z</time>
      </trkpt>
      <trkpt lat="43.43794" lon="6.02471">
        <ele>284.20001220703</ele>
        <time>2016-04-20T13:34:19Z</time>
      </trkpt>
      <trkpt lat="43.43794" lon="6.0247">
        <ele>284</ele>
        <time>2016-04-20T13:34:21Z</time>
      </trkpt>
      <trkpt lat="43.43794" lon="6.0247">
        <ele>284</ele>
        <time>2016-04-20T13:34:23Z</time>
      </trkpt>
      <trkpt lat="43.43794" lon="6.0247">
        <ele>284</ele>
        <time>2016-04-20T13:34:25Z</time>
      </trkpt>
      <trkpt lat="43.43794" lon="6.0247">
        <ele>284</ele>
        <time>2016-04-20T13:34:26Z</time>
      </trkpt>
      <trkpt lat="43.43794" lon="6.0247">
        <ele>284</ele>
        <time>2016-04-20T13:34:27Z</time>
      </trkpt>
      <trkpt lat="43.43794" lon="6.0247">
        <ele>284</ele>
        <time>2016-04-20T13:34:29Z</time>
      </trkpt>
      <trkpt lat="43.43794" lon="6.0247">
        <ele>284.20001220703</ele>
        <time>2016-04-20T13:34:31Z</time>
      </trkpt>
      <trkpt lat="43.43793" lon="6.0247">
        <ele>284.20001220703</ele>
        <time>2016-04-20T13:34:33Z</time>
      </trkpt>
      <trkpt lat="43.43794" lon="6.0247">
        <ele>284.20001220703</ele>
        <time>2016-04-20T13:34:35Z</time>
      </trkpt>
      <trkpt lat="43.43794" lon="6.0247">
        <ele>284.20001220703</ele>
        <time>2016-04-20T13:34:37Z</time>
      </trkpt>
      <trkpt lat="43.43794" lon="6.0247">
        <ele>284.20001220703</ele>
        <time>2016-04-20T13:34:39Z</time>
      </trkpt>
      <trkpt lat="43.43794" lon="6.0247">
        <ele>284</ele>
        <time>2016-04-20T13:34:41Z</time>
      </trkpt>
      <trkpt lat="43.43794" lon="6.0247">
        <ele>284</ele>
        <time>2016-04-20T13:34:43Z</time>
      </trkpt>
      <trkpt lat="43.43794" lon="6.0247">
        <ele>284</ele>
        <time>2016-04-20T13:34:45Z</time>
      </trkpt>
      <trkpt lat="43.43794" lon="6.0247">
        <ele>284</ele>
        <time>2016-04-20T13:34:47Z</time>
      </trkpt>
      <trkpt lat="43.43794" lon="6.0247">
        <ele>284</ele>
        <time>2016-04-20T13:34:49Z</time>
      </trkpt>
      <trkpt lat="43.43794" lon="6.0247">
        <ele>284</ele>
        <time>2016-04-20T13:34:51Z</time>
      </trkpt>
      <trkpt lat="43.43794" lon="6.0247">
        <ele>284</ele>
        <time>2016-04-20T13:34:53Z</time>
      </trkpt>
      <trkpt lat="43.43794" lon="6.0247">
        <ele>284</ele>
        <time>2016-04-20T13:34:55Z</time>
      </trkpt>
      <trkpt lat="43.43794" lon="6.0247">
        <ele>284.20001220703</ele>
        <time>2016-04-20T13:34:57Z</time>
      </trkpt>
      <trkpt lat="43.43794" lon="6.0247">
        <ele>284.20001220703</ele>
        <time>2016-04-20T13:34:59Z</time>
      </trkpt>
      <trkpt lat="43.43794" lon="6.0247">
        <ele>284.20001220703</ele>
        <time>2016-04-20T13:35:01Z</time>
      </trkpt>
      <trkpt lat="43.43794" lon="6.0247">
        <ele>284.20001220703</ele>
        <time>2016-04-20T13:35:03Z</time>
      </trkpt>
      <trkpt lat="43.43794" lon="6.0247">
        <ele>284.20001220703</ele>
        <time>2016-04-20T13:35:05Z</time>
      </trkpt>
      <trkpt lat="43.43794" lon="6.0247">
        <ele>284.20001220703</ele>
        <time>2016-04-20T13:35:07Z</time>
      </trkpt>
      <trkpt lat="43.43794" lon="6.0247">
        <ele>284.20001220703</ele>
        <time>2016-04-20T13:35:08Z</time>
      </trkpt>
      <trkpt lat="43.43794" lon="6.0247">
        <ele>284.20001220703</ele>
        <time>2016-04-20T13:35:09Z</time>
      </trkpt>
      <trkpt lat="43.43794" lon="6.0247">
        <ele>284.20001220703</ele>
        <time>2016-04-20T13:35:11Z</time>
      </trkpt>
      <trkpt lat="43.43794" lon="6.0247">
        <ele>284.39999389648</ele>
        <time>2016-04-20T13:35:13Z</time>
      </trkpt>
      <trkpt lat="43.43794" lon="6.0247">
        <ele>284.39999389648</ele>
        <time>2016-04-20T13:35:15Z</time>
      </trkpt>
      <trkpt lat="43.43794" lon="6.0247">
        <ele>284.20001220703</ele>
        <time>2016-04-20T13:35:17Z</time>
      </trkpt>
      <trkpt lat="43.43794" lon="6.0247">
        <ele>284</ele>
        <time>2016-04-20T13:35:19Z</time>
      </trkpt>
      <trkpt lat="43.43794" lon="6.0247">
        <ele>284</ele>
        <time>2016-04-20T13:35:21Z</time>
      </trkpt>
      <trkpt lat="43.43794" lon="6.0247">
        <ele>284</ele>
        <time>2016-04-20T13:35:23Z</time>
      </trkpt>
      <trkpt lat="43.43794" lon="6.0247">
        <ele>284</ele>
        <time>2016-04-20T13:35:25Z</time>
      </trkpt>
      <trkpt lat="43.43794" lon="6.0247">
        <ele>284</ele>
        <time>2016-04-20T13:35:27Z</time>
      </trkpt>
      <trkpt lat="43.43794" lon="6.0247">
        <ele>284.20001220703</ele>
        <time>2016-04-20T13:35:29Z</time>
      </trkpt>
      <trkpt lat="43.43794" lon="6.0247">
        <ele>284.20001220703</ele>
        <time>2016-04-20T13:35:31Z</time>
      </trkpt>
      <trkpt lat="43.43794" lon="6.0247">
        <ele>284.39999389648</ele>
        <time>2016-04-20T13:35:33Z</time>
      </trkpt>
      <trkpt lat="43.43794" lon="6.0247">
        <ele>284.39999389648</ele>
        <time>2016-04-20T13:35:35Z</time>
      </trkpt>
      <trkpt lat="43.43794" lon="6.0247">
        <ele>284.60000610352</ele>
        <time>2016-04-20T13:35:37Z</time>
      </trkpt>
      <trkpt lat="43.43794" lon="6.0247">
        <ele>284.60000610352</ele>
        <time>2016-04-20T13:35:39Z</time>
      </trkpt>
      <trkpt lat="43.43794" lon="6.0247">
        <ele>284.60000610352</ele>
        <time>2016-04-20T13:35:41Z</time>
      </trkpt>
      <trkpt lat="43.43794" lon="6.0247">
        <ele>284.60000610352</ele>
        <time>2016-04-20T13:35:43Z</time>
      </trkpt>
      <trkpt lat="43.43794" lon="6.0247">
        <ele>284.60000610352</ele>
        <time>2016-04-20T13:35:45Z</time>
      </trkpt>
      <trkpt lat="43.43794" lon="6.0247">
        <ele>284.39999389648</ele>
        <time>2016-04-20T13:35:47Z</time>
      </trkpt>
      <trkpt lat="43.43794" lon="6.0247">
        <ele>284.39999389648</ele>
        <time>2016-04-20T13:35:49Z</time>
      </trkpt>
      <trkpt lat="43.43794" lon="6.0247">
        <ele>284.39999389648</ele>
        <time>2016-04-20T13:35:51Z</time>
      </trkpt>
      <trkpt lat="43.43794" lon="6.02469">
        <ele>284.39999389648</ele>
        <time>2016-04-20T13:35:52Z</time>
      </trkpt>
      <trkpt lat="43.43793" lon="6.02469">
        <ele>284.39999389648</ele>
        <time>2016-04-20T13:35:53Z</time>
      </trkpt>
      <trkpt lat="43.43793" lon="6.02469">
        <ele>284.60000610352</ele>
        <time>2016-04-20T13:35:55Z</time>
      </trkpt>
      <trkpt lat="43.43793" lon="6.02469">
        <ele>285.20001220703</ele>
        <time>2016-04-20T13:35:57Z</time>
      </trkpt>
      <trkpt lat="43.43793" lon="6.02469">
        <ele>285.39999389648</ele>
        <time>2016-04-20T13:35:59Z</time>
      </trkpt>
      <trkpt lat="43.43793" lon="6.02469">
        <ele>285.39999389648</ele>
        <time>2016-04-20T13:36:01Z</time>
      </trkpt>
      <trkpt lat="43.43793" lon="6.02469">
        <ele>285.20001220703</ele>
        <time>2016-04-20T13:36:03Z</time>
      </trkpt>
      <trkpt lat="43.43793" lon="6.02469">
        <ele>285</ele>
        <time>2016-04-20T13:36:05Z</time>
      </trkpt>
      <trkpt lat="43.43793" lon="6.02468">
        <ele>285</ele>
        <time>2016-04-20T13:36:07Z</time>
      </trkpt>
      <trkpt lat="43.43793" lon="6.02468">
        <ele>284.60000610352</ele>
        <time>2016-04-20T13:36:09Z</time>
      </trkpt>
      <trkpt lat="43.43793" lon="6.02468">
        <ele>284.39999389648</ele>
        <time>2016-04-20T13:36:11Z</time>
      </trkpt>
      <trkpt lat="43.43793" lon="6.02468">
        <ele>284.79998779297</ele>
        <time>2016-04-20T13:36:13Z</time>
      </trkpt>
      <trkpt lat="43.43793" lon="6.02468">
        <ele>284.79998779297</ele>
        <time>2016-04-20T13:36:15Z</time>
      </trkpt>
      <trkpt lat="43.43793" lon="6.02468">
        <ele>285</ele>
        <time>2016-04-20T13:36:17Z</time>
      </trkpt>
      <trkpt lat="43.43793" lon="6.02468">
        <ele>285</ele>
        <time>2016-04-20T13:36:19Z</time>
      </trkpt>
      <trkpt lat="43.43793" lon="6.02468">
        <ele>285.20001220703</ele>
        <time>2016-04-20T13:36:21Z</time>
      </trkpt>
      <trkpt lat="43.43793" lon="6.02468">
        <ele>285.20001220703</ele>
        <time>2016-04-20T13:36:23Z</time>
      </trkpt>
      <trkpt lat="43.43793" lon="6.02468">
        <ele>285.20001220703</ele>
        <time>2016-04-20T13:36:25Z</time>
      </trkpt>
      <trkpt lat="43.43793" lon="6.02468">
        <ele>285</ele>
        <time>2016-04-20T13:36:27Z</time>
      </trkpt>
      <trkpt lat="43.43793" lon="6.02468">
        <ele>285</ele>
        <time>2016-04-20T13:36:28Z</time>
      </trkpt>
      <trkpt lat="43.43793" lon="6.02468">
        <ele>285</ele>
        <time>2016-04-20T13:36:31Z</time>
      </trkpt>
      <trkpt lat="43.43793" lon="6.02468">
        <ele>284.79998779297</ele>
        <time>2016-04-20T13:36:33Z</time>
      </trkpt>
      <trkpt lat="43.43793" lon="6.02468">
        <ele>284.60000610352</ele>
        <time>2016-04-20T13:36:35Z</time>
      </trkpt>
      <trkpt lat="43.43793" lon="6.02468">
        <ele>284.60000610352</ele>
        <time>2016-04-20T13:36:37Z</time>
      </trkpt>
      <trkpt lat="43.43793" lon="6.02468">
        <ele>284.79998779297</ele>
        <time>2016-04-20T13:36:39Z</time>
      </trkpt>
      <trkpt lat="43.43793" lon="6.02467">
        <ele>284.79998779297</ele>
        <time>2016-04-20T13:36:41Z</time>
      </trkpt>
      <trkpt lat="43.43793" lon="6.02467">
        <ele>284.79998779297</ele>
        <time>2016-04-20T13:36:42Z</time>
      </trkpt>
      <trkpt lat="43.43792" lon="6.02467">
        <ele>284.79998779297</ele>
        <time>2016-04-20T13:36:43Z</time>
      </trkpt>
      <trkpt lat="43.4379" lon="6.02467">
        <ele>284.79998779297</ele>
        <time>2016-04-20T13:36:45Z</time>
      </trkpt>
      <trkpt lat="43.43789" lon="6.02466">
        <ele>284.79998779297</ele>
        <time>2016-04-20T13:36:46Z</time>
      </trkpt>
      <trkpt lat="43.43788" lon="6.02464">
        <ele>285</ele>
        <time>2016-04-20T13:36:47Z</time>
      </trkpt>
      <trkpt lat="43.43787" lon="6.02463">
        <ele>285</ele>
        <time>2016-04-20T13:36:48Z</time>
      </trkpt>
      <trkpt lat="43.43786" lon="6.02461">
        <ele>284.79998779297</ele>
        <time>2016-04-20T13:36:49Z</time>
      </trkpt>
      <trkpt lat="43.43786" lon="6.02458">
        <ele>284.60000610352</ele>
        <time>2016-04-20T13:36:51Z</time>
      </trkpt>
      <trkpt lat="43.43786" lon="6.02457">
        <ele>284.79998779297</ele>
        <time>2016-04-20T13:36:52Z</time>
      </trkpt>
      <trkpt lat="43.43786" lon="6.02457">
        <ele>284.79998779297</ele>
        <time>2016-04-20T13:36:53Z</time>
      </trkpt>
      <trkpt lat="43.43786" lon="6.02456">
        <ele>284.79998779297</ele>
        <time>2016-04-20T13:36:55Z</time>
      </trkpt>
      <trkpt lat="43.43784" lon="6.02455">
        <ele>285</ele>
        <time>2016-04-20T13:36:57Z</time>
      </trkpt>
      <trkpt lat="43.43784" lon="6.02453">
        <ele>285.20001220703</ele>
        <time>2016-04-20T13:36:59Z</time>
      </trkpt>
      <trkpt lat="43.43784" lon="6.02453">
        <ele>285.60000610352</ele>
        <time>2016-04-20T13:37:01Z</time>
      </trkpt>
      <trkpt lat="43.43783" lon="6.02454">
        <ele>285.79998779297</ele>
        <time>2016-04-20T13:37:03Z</time>
      </trkpt>
      <trkpt lat="43.43783" lon="6.02454">
        <ele>285.79998779297</ele>
        <time>2016-04-20T13:37:04Z</time>
      </trkpt>
      <trkpt lat="43.43783" lon="6.02454">
        <ele>285.79998779297</ele>
        <time>2016-04-20T13:37:05Z</time>
      </trkpt>
      <trkpt lat="43.43783" lon="6.02454">
        <ele>285.79998779297</ele>
        <time>2016-04-20T13:37:07Z</time>
      </trkpt>
      <trkpt lat="43.43783" lon="6.02454">
        <ele>285.79998779297</ele>
        <time>2016-04-20T13:37:08Z</time>
      </trkpt>
      <trkpt lat="43.43783" lon="6.02454">
        <ele>285.79998779297</ele>
        <time>2016-04-20T13:37:09Z</time>
      </trkpt>
      <trkpt lat="43.43783" lon="6.02454">
        <ele>285.60000610352</ele>
        <time>2016-04-20T13:37:11Z</time>
      </trkpt>
      <trkpt lat="43.43783" lon="6.02454">
        <ele>285.60000610352</ele>
        <time>2016-04-20T13:37:13Z</time>
      </trkpt>
      <trkpt lat="43.43783" lon="6.02453">
        <ele>285.79998779297</ele>
        <time>2016-04-20T13:37:15Z</time>
      </trkpt>
      <trkpt lat="43.43783" lon="6.02453">
        <ele>285.79998779297</ele>
        <time>2016-04-20T13:37:16Z</time>
      </trkpt>
      <trkpt lat="43.43783" lon="6.02453">
        <ele>285.79998779297</ele>
        <time>2016-04-20T13:37:17Z</time>
      </trkpt>
      <trkpt lat="43.43783" lon="6.02452">
        <ele>286.20001220703</ele>
        <time>2016-04-20T13:37:19Z</time>
      </trkpt>
      <trkpt lat="43.43784" lon="6.0245">
        <ele>286.39999389648</ele>
        <time>2016-04-20T13:37:21Z</time>
      </trkpt>
      <trkpt lat="43.43784" lon="6.02449">
        <ele>286.39999389648</ele>
        <time>2016-04-20T13:37:22Z</time>
      </trkpt>
      <trkpt lat="43.43785" lon="6.02448">
        <ele>286.79998779297</ele>
        <time>2016-04-20T13:37:23Z</time>
      </trkpt>
      <trkpt lat="43.43786" lon="6.02446">
        <ele>287</ele>
        <time>2016-04-20T13:37:24Z</time>
      </trkpt>
      <trkpt lat="43.43786" lon="6.02444">
        <ele>287</ele>
        <time>2016-04-20T13:37:25Z</time>
      </trkpt>
      <trkpt lat="43.43786" lon="6.02441">
        <ele>287</ele>
        <time>2016-04-20T13:37:27Z</time>
      </trkpt>
      <trkpt lat="43.43785" lon="6.02439">
        <ele>287</ele>
        <time>2016-04-20T13:37:28Z</time>
      </trkpt>
      <trkpt lat="43.43783" lon="6.02437">
        <ele>287</ele>
        <time>2016-04-20T13:37:29Z</time>
      </trkpt>
      <trkpt lat="43.43781" lon="6.02434">
        <ele>287.20001220703</ele>
        <time>2016-04-20T13:37:31Z</time>
      </trkpt>
      <trkpt lat="43.43777" lon="6.02429">
        <ele>287.20001220703</ele>
        <time>2016-04-20T13:37:33Z</time>
      </trkpt>
      <trkpt lat="43.43776" lon="6.02426">
        <ele>287.20001220703</ele>
        <time>2016-04-20T13:37:34Z</time>
      </trkpt>
      <trkpt lat="43.43775" lon="6.02425">
        <ele>287.39999389648</ele>
        <time>2016-04-20T13:37:35Z</time>
      </trkpt>
      <trkpt lat="43.43773" lon="6.02421">
        <ele>287.20001220703</ele>
        <time>2016-04-20T13:37:37Z</time>
      </trkpt>
      <trkpt lat="43.43772" lon="6.02416">
        <ele>287.39999389648</ele>
        <time>2016-04-20T13:37:39Z</time>
      </trkpt>
      <trkpt lat="43.43769" lon="6.02412">
        <ele>287.39999389648</ele>
        <time>2016-04-20T13:37:41Z</time>
      </trkpt>
      <trkpt lat="43.43767" lon="6.0241">
        <ele>287.79998779297</ele>
        <time>2016-04-20T13:37:43Z</time>
      </trkpt>
      <trkpt lat="43.43764" lon="6.02408">
        <ele>288</ele>
        <time>2016-04-20T13:37:44Z</time>
      </trkpt>
      <trkpt lat="43.43763" lon="6.02407">
        <ele>288.20001220703</ele>
        <time>2016-04-20T13:37:45Z</time>
      </trkpt>
      <trkpt lat="43.43761" lon="6.02405">
        <ele>288.39999389648</ele>
        <time>2016-04-20T13:37:46Z</time>
      </trkpt>
      <trkpt lat="43.4376" lon="6.02404">
        <ele>288.79998779297</ele>
        <time>2016-04-20T13:37:47Z</time>
      </trkpt>
      <trkpt lat="43.43758" lon="6.02401">
        <ele>289.39999389648</ele>
        <time>2016-04-20T13:37:49Z</time>
      </trkpt>
      <trkpt lat="43.43757" lon="6.024">
        <ele>289.60000610352</ele>
        <time>2016-04-20T13:37:50Z</time>
      </trkpt>
      <trkpt lat="43.43756" lon="6.02398">
        <ele>289.79998779297</ele>
        <time>2016-04-20T13:37:51Z</time>
      </trkpt>
      <trkpt lat="43.43754" lon="6.02394">
        <ele>290.20001220703</ele>
        <time>2016-04-20T13:37:53Z</time>
      </trkpt>
      <trkpt lat="43.43753" lon="6.02392">
        <ele>290.20001220703</ele>
        <time>2016-04-20T13:37:54Z</time>
      </trkpt>
      <trkpt lat="43.43752" lon="6.02388">
        <ele>290.20001220703</ele>
        <time>2016-04-20T13:37:55Z</time>
      </trkpt>
      <trkpt lat="43.43752" lon="6.02386">
        <ele>290.20001220703</ele>
        <time>2016-04-20T13:37:56Z</time>
      </trkpt>
      <trkpt lat="43.43751" lon="6.02383">
        <ele>290.20001220703</ele>
        <time>2016-04-20T13:37:57Z</time>
      </trkpt>
      <trkpt lat="43.4375" lon="6.02379">
        <ele>290.20001220703</ele>
        <time>2016-04-20T13:37:59Z</time>
      </trkpt>
      <trkpt lat="43.43749" lon="6.02375">
        <ele>290.20001220703</ele>
        <time>2016-04-20T13:38:01Z</time>
      </trkpt>
      <trkpt lat="43.43748" lon="6.02373">
        <ele>290.39999389648</ele>
        <time>2016-04-20T13:38:02Z</time>
      </trkpt>
      <trkpt lat="43.43747" lon="6.02371">
        <ele>290.39999389648</ele>
        <time>2016-04-20T13:38:03Z</time>
      </trkpt>
      <trkpt lat="43.43746" lon="6.02369">
        <ele>290.60000610352</ele>
        <time>2016-04-20T13:38:04Z</time>
      </trkpt>
      <trkpt lat="43.43745" lon="6.02368">
        <ele>291</ele>
        <time>2016-04-20T13:38:05Z</time>
      </trkpt>
      <trkpt lat="43.43742" lon="6.02368">
        <ele>291.20001220703</ele>
        <time>2016-04-20T13:38:07Z</time>
      </trkpt>
      <trkpt lat="43.4374" lon="6.02368">
        <ele>291.39999389648</ele>
        <time>2016-04-20T13:38:08Z</time>
      </trkpt>
      <trkpt lat="43.43739" lon="6.02368">
        <ele>291.39999389648</ele>
        <time>2016-04-20T13:38:09Z</time>
      </trkpt>
      <trkpt lat="43.43737" lon="6.02368">
        <ele>291.60000610352</ele>
        <time>2016-04-20T13:38:10Z</time>
      </trkpt>
      <trkpt lat="43.43736" lon="6.02368">
        <ele>291.79998779297</ele>
        <time>2016-04-20T13:38:11Z</time>
      </trkpt>
      <trkpt lat="43.43735" lon="6.02366">
        <ele>291.79998779297</ele>
        <time>2016-04-20T13:38:12Z</time>
      </trkpt>
      <trkpt lat="43.43733" lon="6.02364">
        <ele>292</ele>
        <time>2016-04-20T13:38:13Z</time>
      </trkpt>
      <trkpt lat="43.4373" lon="6.0236">
        <ele>292</ele>
        <time>2016-04-20T13:38:15Z</time>
      </trkpt>
      <trkpt lat="43.43729" lon="6.02358">
        <ele>292</ele>
        <time>2016-04-20T13:38:16Z</time>
      </trkpt>
      <trkpt lat="43.43728" lon="6.02355">
        <ele>292</ele>
        <time>2016-04-20T13:38:17Z</time>
      </trkpt>
      <trkpt lat="43.43727" lon="6.02349">
        <ele>292</ele>
        <time>2016-04-20T13:38:19Z</time>
      </trkpt>
      <trkpt lat="43.43726" lon="6.02342">
        <ele>292.20001220703</ele>
        <time>2016-04-20T13:38:21Z</time>
      </trkpt>
      <trkpt lat="43.43727" lon="6.02339">
        <ele>292.20001220703</ele>
        <time>2016-04-20T13:38:22Z</time>
      </trkpt>
      <trkpt lat="43.43729" lon="6.02337">
        <ele>291.79998779297</ele>
        <time>2016-04-20T13:38:23Z</time>
      </trkpt>
      <trkpt lat="43.43734" lon="6.02334">
        <ele>291.20001220703</ele>
        <time>2016-04-20T13:38:25Z</time>
      </trkpt>
      <trkpt lat="43.43735" lon="6.02331">
        <ele>290.79998779297</ele>
        <time>2016-04-20T13:38:26Z</time>
      </trkpt>
      <trkpt lat="43.43736" lon="6.02327">
        <ele>290.60000610352</ele>
        <time>2016-04-20T13:38:27Z</time>
      </trkpt>
      <trkpt lat="43.43738" lon="6.02323">
        <ele>290.20001220703</ele>
        <time>2016-04-20T13:38:28Z</time>
      </trkpt>
      <trkpt lat="43.4374" lon="6.02319">
        <ele>289.79998779297</ele>
        <time>2016-04-20T13:38:29Z</time>
      </trkpt>
      <trkpt lat="43.43744" lon="6.02311">
        <ele>288</ele>
        <time>2016-04-20T13:38:31Z</time>
      </trkpt>
      <trkpt lat="43.43749" lon="6.02305">
        <ele>287.39999389648</ele>
        <time>2016-04-20T13:38:33Z</time>
      </trkpt>
      <trkpt lat="43.43751" lon="6.02301">
        <ele>287.20001220703</ele>
        <time>2016-04-20T13:38:34Z</time>
      </trkpt>
      <trkpt lat="43.43753" lon="6.02297">
        <ele>287</ele>
        <time>2016-04-20T13:38:35Z</time>
      </trkpt>
      <trkpt lat="43.43758" lon="6.0229">
        <ele>285.79998779297</ele>
        <time>2016-04-20T13:38:37Z</time>
      </trkpt>
      <trkpt lat="43.43763" lon="6.02283">
        <ele>284.79998779297</ele>
        <time>2016-04-20T13:38:39Z</time>
      </trkpt>
      <trkpt lat="43.43765" lon="6.0228">
        <ele>284.39999389648</ele>
        <time>2016-04-20T13:38:40Z</time>
      </trkpt>
      <trkpt lat="43.43768" lon="6.02276">
        <ele>284.20001220703</ele>
        <time>2016-04-20T13:38:41Z</time>
      </trkpt>
      <trkpt lat="43.43773" lon="6.02267">
        <ele>283.60000610352</ele>
        <time>2016-04-20T13:38:43Z</time>
      </trkpt>
      <trkpt lat="43.43777" lon="6.02257">
        <ele>283</ele>
        <time>2016-04-20T13:38:45Z</time>
      </trkpt>
      <trkpt lat="43.43779" lon="6.02247">
        <ele>282.60000610352</ele>
        <time>2016-04-20T13:38:47Z</time>
      </trkpt>
      <trkpt lat="43.43781" lon="6.02239">
        <ele>282.39999389648</ele>
        <time>2016-04-20T13:38:49Z</time>
      </trkpt>
      <trkpt lat="43.43781" lon="6.0223">
        <ele>282.60000610352</ele>
        <time>2016-04-20T13:38:51Z</time>
      </trkpt>
      <trkpt lat="43.43782" lon="6.02222">
        <ele>283</ele>
        <time>2016-04-20T13:38:53Z</time>
      </trkpt>
      <trkpt lat="43.43781" lon="6.02214">
        <ele>283.20001220703</ele>
        <time>2016-04-20T13:38:55Z</time>
      </trkpt>
      <trkpt lat="43.43783" lon="6.02205">
        <ele>283.39999389648</ele>
        <time>2016-04-20T13:38:57Z</time>
      </trkpt>
      <trkpt lat="43.43786" lon="6.02198">
        <ele>283.60000610352</ele>
        <time>2016-04-20T13:38:59Z</time>
      </trkpt>
      <trkpt lat="43.43788" lon="6.02194">
        <ele>283.60000610352</ele>
        <time>2016-04-20T13:39:00Z</time>
      </trkpt>
      <trkpt lat="43.4379" lon="6.0219">
        <ele>283.60000610352</ele>
        <time>2016-04-20T13:39:01Z</time>
      </trkpt>
      <trkpt lat="43.43792" lon="6.02184">
        <ele>283.60000610352</ele>
        <time>2016-04-20T13:39:03Z</time>
      </trkpt>
      <trkpt lat="43.43792" lon="6.02182">
        <ele>283.39999389648</ele>
        <time>2016-04-20T13:39:04Z</time>
      </trkpt>
      <trkpt lat="43.43793" lon="6.02179">
        <ele>283.39999389648</ele>
        <time>2016-04-20T13:39:05Z</time>
      </trkpt>
      <trkpt lat="43.43794" lon="6.02173">
        <ele>283.39999389648</ele>
        <time>2016-04-20T13:39:07Z</time>
      </trkpt>
      <trkpt lat="43.43797" lon="6.02167">
        <ele>283.20001220703</ele>
        <time>2016-04-20T13:39:09Z</time>
      </trkpt>
      <trkpt lat="43.43801" lon="6.02161">
        <ele>283.20001220703</ele>
        <time>2016-04-20T13:39:11Z</time>
      </trkpt>
      <trkpt lat="43.43806" lon="6.02156">
        <ele>283.20001220703</ele>
        <time>2016-04-20T13:39:13Z</time>
      </trkpt>
      <trkpt lat="43.43809" lon="6.02153">
        <ele>283</ele>
        <time>2016-04-20T13:39:14Z</time>
      </trkpt>
      <trkpt lat="43.43812" lon="6.0215">
        <ele>283</ele>
        <time>2016-04-20T13:39:15Z</time>
      </trkpt>
      <trkpt lat="43.43818" lon="6.02143">
        <ele>283.20001220703</ele>
        <time>2016-04-20T13:39:17Z</time>
      </trkpt>
      <trkpt lat="43.43823" lon="6.02136">
        <ele>283.39999389648</ele>
        <time>2016-04-20T13:39:19Z</time>
      </trkpt>
      <trkpt lat="43.43824" lon="6.02132">
        <ele>283.39999389648</ele>
        <time>2016-04-20T13:39:20Z</time>
      </trkpt>
      <trkpt lat="43.43825" lon="6.02129">
        <ele>283.60000610352</ele>
        <time>2016-04-20T13:39:21Z</time>
      </trkpt>
      <trkpt lat="43.43826" lon="6.02121">
        <ele>284</ele>
        <time>2016-04-20T13:39:23Z</time>
      </trkpt>
      <trkpt lat="43.43828" lon="6.02113">
        <ele>284.39999389648</ele>
        <time>2016-04-20T13:39:25Z</time>
      </trkpt>
      <trkpt lat="43.43829" lon="6.02109">
        <ele>284.39999389648</ele>
        <time>2016-04-20T13:39:26Z</time>
      </trkpt>
      <trkpt lat="43.4383" lon="6.02105">
        <ele>284.60000610352</ele>
        <time>2016-04-20T13:39:27Z</time>
      </trkpt>
      <trkpt lat="43.43834" lon="6.02094">
        <ele>285.20001220703</ele>
        <time>2016-04-20T13:39:29Z</time>
      </trkpt>
      <trkpt lat="43.43836" lon="6.02089">
        <ele>285.20001220703</ele>
        <time>2016-04-20T13:39:30Z</time>
      </trkpt>
      <trkpt lat="43.43839" lon="6.02085">
        <ele>285</ele>
        <time>2016-04-20T13:39:31Z</time>
      </trkpt>
      <trkpt lat="43.43844" lon="6.02077">
        <ele>285</ele>
        <time>2016-04-20T13:39:33Z</time>
      </trkpt>
      <trkpt lat="43.43847" lon="6.02072">
        <ele>284.79998779297</ele>
        <time>2016-04-20T13:39:34Z</time>
      </trkpt>
      <trkpt lat="43.43848" lon="6.02067">
        <ele>284.79998779297</ele>
        <time>2016-04-20T13:39:35Z</time>
      </trkpt>
      <trkpt lat="43.43848" lon="6.02056">
        <ele>284.79998779297</ele>
        <time>2016-04-20T13:39:37Z</time>
      </trkpt>
      <trkpt lat="43.43849" lon="6.0205">
        <ele>284.79998779297</ele>
        <time>2016-04-20T13:39:38Z</time>
      </trkpt>
      <trkpt lat="43.4385" lon="6.02045">
        <ele>285</ele>
        <time>2016-04-20T13:39:39Z</time>
      </trkpt>
      <trkpt lat="43.43851" lon="6.02036">
        <ele>285</ele>
        <time>2016-04-20T13:39:41Z</time>
      </trkpt>
      <trkpt lat="43.43853" lon="6.02027">
        <ele>285</ele>
        <time>2016-04-20T13:39:43Z</time>
      </trkpt>
      <trkpt lat="43.43854" lon="6.02018">
        <ele>285.20001220703</ele>
        <time>2016-04-20T13:39:45Z</time>
      </trkpt>
      <trkpt lat="43.43854" lon="6.02009">
        <ele>285.39999389648</ele>
        <time>2016-04-20T13:39:47Z</time>
      </trkpt>
      <trkpt lat="43.43854" lon="6.01999">
        <ele>285.39999389648</ele>
        <time>2016-04-20T13:39:49Z</time>
      </trkpt>
      <trkpt lat="43.43855" lon="6.01991">
        <ele>285.39999389648</ele>
        <time>2016-04-20T13:39:51Z</time>
      </trkpt>
      <trkpt lat="43.43858" lon="6.01984">
        <ele>285.39999389648</ele>
        <time>2016-04-20T13:39:53Z</time>
      </trkpt>
      <trkpt lat="43.43861" lon="6.01977">
        <ele>285.60000610352</ele>
        <time>2016-04-20T13:39:55Z</time>
      </trkpt>
      <trkpt lat="43.43864" lon="6.01969">
        <ele>285.39999389648</ele>
        <time>2016-04-20T13:39:57Z</time>
      </trkpt>
      <trkpt lat="43.43865" lon="6.01966">
        <ele>285.39999389648</ele>
        <time>2016-04-20T13:39:58Z</time>
      </trkpt>
      <trkpt lat="43.43866" lon="6.01963">
        <ele>285.39999389648</ele>
        <time>2016-04-20T13:39:59Z</time>
      </trkpt>
      <trkpt lat="43.43867" lon="6.01959">
        <ele>285.39999389648</ele>
        <time>2016-04-20T13:40:01Z</time>
      </trkpt>
      <trkpt lat="43.43867" lon="6.01958">
        <ele>285.39999389648</ele>
        <time>2016-04-20T13:40:02Z</time>
      </trkpt>
      <trkpt lat="43.43867" lon="6.01958">
        <ele>285.39999389648</ele>
        <time>2016-04-20T13:40:03Z</time>
      </trkpt>
      <trkpt lat="43.43866" lon="6.01957">
        <ele>285.39999389648</ele>
        <time>2016-04-20T13:40:05Z</time>
      </trkpt>
      <trkpt lat="43.43866" lon="6.01958">
        <ele>285.39999389648</ele>
        <time>2016-04-20T13:40:07Z</time>
      </trkpt>
      <trkpt lat="43.43866" lon="6.01958">
        <ele>285.39999389648</ele>
        <time>2016-04-20T13:40:09Z</time>
      </trkpt>
      <trkpt lat="43.43866" lon="6.01958">
        <ele>285.20001220703</ele>
        <time>2016-04-20T13:40:11Z</time>
      </trkpt>
      <trkpt lat="43.43866" lon="6.01958">
        <ele>285.20001220703</ele>
        <time>2016-04-20T13:40:13Z</time>
      </trkpt>
      <trkpt lat="43.43866" lon="6.01958">
        <ele>285</ele>
        <time>2016-04-20T13:40:15Z</time>
      </trkpt>
      <trkpt lat="43.43866" lon="6.01958">
        <ele>285</ele>
        <time>2016-04-20T13:40:17Z</time>
      </trkpt>
      <trkpt lat="43.43866" lon="6.01958">
        <ele>285.20001220703</ele>
        <time>2016-04-20T13:40:19Z</time>
      </trkpt>
      <trkpt lat="43.43866" lon="6.01958">
        <ele>285.20001220703</ele>
        <time>2016-04-20T13:40:21Z</time>
      </trkpt>
      <trkpt lat="43.43866" lon="6.01958">
        <ele>285.20001220703</ele>
        <time>2016-04-20T13:40:23Z</time>
      </trkpt>
      <trkpt lat="43.43866" lon="6.01958">
        <ele>285</ele>
        <time>2016-04-20T13:40:25Z</time>
      </trkpt>
      <trkpt lat="43.43866" lon="6.01958">
        <ele>285</ele>
        <time>2016-04-20T13:40:27Z</time>
      </trkpt>
      <trkpt lat="43.43866" lon="6.01958">
        <ele>284.79998779297</ele>
        <time>2016-04-20T13:40:29Z</time>
      </trkpt>
      <trkpt lat="43.43867" lon="6.01958">
        <ele>284.60000610352</ele>
        <time>2016-04-20T13:40:31Z</time>
      </trkpt>
      <trkpt lat="43.43866" lon="6.01958">
        <ele>284.60000610352</ele>
        <time>2016-04-20T13:40:33Z</time>
      </trkpt>
      <trkpt lat="43.43866" lon="6.01958">
        <ele>284.60000610352</ele>
        <time>2016-04-20T13:40:35Z</time>
      </trkpt>
      <trkpt lat="43.43866" lon="6.01958">
        <ele>284.39999389648</ele>
        <time>2016-04-20T13:40:37Z</time>
      </trkpt>
      <trkpt lat="43.43866" lon="6.01958">
        <ele>284.60000610352</ele>
        <time>2016-04-20T13:40:38Z</time>
      </trkpt>
      <trkpt lat="43.43866" lon="6.01958">
        <ele>284.60000610352</ele>
        <time>2016-04-20T13:40:39Z</time>
      </trkpt>
      <trkpt lat="43.43866" lon="6.01958">
        <ele>284.60000610352</ele>
        <time>2016-04-20T13:40:41Z</time>
      </trkpt>
      <trkpt lat="43.43867" lon="6.01957">
        <ele>284.79998779297</ele>
        <time>2016-04-20T13:40:43Z</time>
      </trkpt>
      <trkpt lat="43.43867" lon="6.01957">
        <ele>284.79998779297</ele>
        <time>2016-04-20T13:40:45Z</time>
      </trkpt>
      <trkpt lat="43.43867" lon="6.01957">
        <ele>284.79998779297</ele>
        <time>2016-04-20T13:40:47Z</time>
      </trkpt>
      <trkpt lat="43.43866" lon="6.01957">
        <ele>284.79998779297</ele>
        <time>2016-04-20T13:40:49Z</time>
      </trkpt>
      <trkpt lat="43.43867" lon="6.01957">
        <ele>284.79998779297</ele>
        <time>2016-04-20T13:40:51Z</time>
      </trkpt>
      <trkpt lat="43.43867" lon="6.01957">
        <ele>284.79998779297</ele>
        <time>2016-04-20T13:40:53Z</time>
      </trkpt>
      <trkpt lat="43.43867" lon="6.01957">
        <ele>284.79998779297</ele>
        <time>2016-04-20T13:40:54Z</time>
      </trkpt>
      <trkpt lat="43.43867" lon="6.01957">
        <ele>284.60000610352</ele>
        <time>2016-04-20T13:40:55Z</time>
      </trkpt>
      <trkpt lat="43.43867" lon="6.01957">
        <ele>284.60000610352</ele>
        <time>2016-04-20T13:40:57Z</time>
      </trkpt>
      <trkpt lat="43.43866" lon="6.01957">
        <ele>284.39999389648</ele>
        <time>2016-04-20T13:40:59Z</time>
      </trkpt>
      <trkpt lat="43.43866" lon="6.01957">
        <ele>284.39999389648</ele>
        <time>2016-04-20T13:41:01Z</time>
      </trkpt>
      <trkpt lat="43.43866" lon="6.01957">
        <ele>284.39999389648</ele>
        <time>2016-04-20T13:41:03Z</time>
      </trkpt>
      <trkpt lat="43.43866" lon="6.01957">
        <ele>284.20001220703</ele>
        <time>2016-04-20T13:41:05Z</time>
      </trkpt>
      <trkpt lat="43.43866" lon="6.01957">
        <ele>284.39999389648</ele>
        <time>2016-04-20T13:41:07Z</time>
      </trkpt>
      <trkpt lat="43.43866" lon="6.01957">
        <ele>284.39999389648</ele>
        <time>2016-04-20T13:41:09Z</time>
      </trkpt>
      <trkpt lat="43.43866" lon="6.01957">
        <ele>284.39999389648</ele>
        <time>2016-04-20T13:41:11Z</time>
      </trkpt>
      <trkpt lat="43.43866" lon="6.01957">
        <ele>284.60000610352</ele>
        <time>2016-04-20T13:41:13Z</time>
      </trkpt>
      <trkpt lat="43.43866" lon="6.01957">
        <ele>284.79998779297</ele>
        <time>2016-04-20T13:41:15Z</time>
      </trkpt>
      <trkpt lat="43.43866" lon="6.01957">
        <ele>285</ele>
        <time>2016-04-20T13:41:17Z</time>
      </trkpt>
      <trkpt lat="43.43866" lon="6.01957">
        <ele>285</ele>
        <time>2016-04-20T13:41:18Z</time>
      </trkpt>
      <trkpt lat="43.43866" lon="6.01957">
        <ele>285</ele>
        <time>2016-04-20T13:41:19Z</time>
      </trkpt>
      <trkpt lat="43.43866" lon="6.01957">
        <ele>284.60000610352</ele>
        <time>2016-04-20T13:41:21Z</time>
      </trkpt>
      <trkpt lat="43.43866" lon="6.01957">
        <ele>284.39999389648</ele>
        <time>2016-04-20T13:41:23Z</time>
      </trkpt>
      <trkpt lat="43.43866" lon="6.01957">
        <ele>284.39999389648</ele>
        <time>2016-04-20T13:41:25Z</time>
      </trkpt>
      <trkpt lat="43.43867" lon="6.01957">
        <ele>284.39999389648</ele>
        <time>2016-04-20T13:41:27Z</time>
      </trkpt>
      <trkpt lat="43.43867" lon="6.01957">
        <ele>284.39999389648</ele>
        <time>2016-04-20T13:41:29Z</time>
      </trkpt>
      <trkpt lat="43.43867" lon="6.01957">
        <ele>284.39999389648</ele>
        <time>2016-04-20T13:41:31Z</time>
      </trkpt>
      <trkpt lat="43.43867" lon="6.01957">
        <ele>284.60000610352</ele>
        <time>2016-04-20T13:41:33Z</time>
      </trkpt>
      <trkpt lat="43.43867" lon="6.01957">
        <ele>284.60000610352</ele>
        <time>2016-04-20T13:41:35Z</time>
      </trkpt>
      <trkpt lat="43.43867" lon="6.01957">
        <ele>284.60000610352</ele>
        <time>2016-04-20T13:41:37Z</time>
      </trkpt>
      <trkpt lat="43.43867" lon="6.01957">
        <ele>284.60000610352</ele>
        <time>2016-04-20T13:41:39Z</time>
      </trkpt>
      <trkpt lat="43.43867" lon="6.01957">
        <ele>284.60000610352</ele>
        <time>2016-04-20T13:41:41Z</time>
      </trkpt>
      <trkpt lat="43.43867" lon="6.01957">
        <ele>284.60000610352</ele>
        <time>2016-04-20T13:41:43Z</time>
      </trkpt>
      <trkpt lat="43.43867" lon="6.01957">
        <ele>284.60000610352</ele>
        <time>2016-04-20T13:41:45Z</time>
      </trkpt>
      <trkpt lat="43.43866" lon="6.01957">
        <ele>284.39999389648</ele>
        <time>2016-04-20T13:41:47Z</time>
      </trkpt>
      <trkpt lat="43.43866" lon="6.01957">
        <ele>284.60000610352</ele>
        <time>2016-04-20T13:41:49Z</time>
      </trkpt>
      <trkpt lat="43.43866" lon="6.01957">
        <ele>284.60000610352</ele>
        <time>2016-04-20T13:41:51Z</time>
      </trkpt>
      <trkpt lat="43.43867" lon="6.01957">
        <ele>284.79998779297</ele>
        <time>2016-04-20T13:41:53Z</time>
      </trkpt>
      <trkpt lat="43.43867" lon="6.01957">
        <ele>284.60000610352</ele>
        <time>2016-04-20T13:41:55Z</time>
      </trkpt>
      <trkpt lat="43.43866" lon="6.01957">
        <ele>284.39999389648</ele>
        <time>2016-04-20T13:41:57Z</time>
      </trkpt>
      <trkpt lat="43.43867" lon="6.01957">
        <ele>284.39999389648</ele>
        <time>2016-04-20T13:41:59Z</time>
      </trkpt>
      <trkpt lat="43.43866" lon="6.01957">
        <ele>284.39999389648</ele>
        <time>2016-04-20T13:42:01Z</time>
      </trkpt>
      <trkpt lat="43.43867" lon="6.01957">
        <ele>284.20001220703</ele>
        <time>2016-04-20T13:42:03Z</time>
      </trkpt>
      <trkpt lat="43.43866" lon="6.01957">
        <ele>284.20001220703</ele>
        <time>2016-04-20T13:42:05Z</time>
      </trkpt>
      <trkpt lat="43.43866" lon="6.01957">
        <ele>284</ele>
        <time>2016-04-20T13:42:06Z</time>
      </trkpt>
      <trkpt lat="43.43866" lon="6.01957">
        <ele>284</ele>
        <time>2016-04-20T13:42:07Z</time>
      </trkpt>
      <trkpt lat="43.43866" lon="6.01957">
        <ele>284</ele>
        <time>2016-04-20T13:42:09Z</time>
      </trkpt>
      <trkpt lat="43.43866" lon="6.01957">
        <ele>284</ele>
        <time>2016-04-20T13:42:11Z</time>
      </trkpt>
      <trkpt lat="43.43866" lon="6.01957">
        <ele>284</ele>
        <time>2016-04-20T13:42:13Z</time>
      </trkpt>
      <trkpt lat="43.43866" lon="6.01957">
        <ele>284.20001220703</ele>
        <time>2016-04-20T13:42:15Z</time>
      </trkpt>
      <trkpt lat="43.43866" lon="6.01957">
        <ele>284.20001220703</ele>
        <time>2016-04-20T13:42:17Z</time>
      </trkpt>
      <trkpt lat="43.43866" lon="6.01957">
        <ele>284.39999389648</ele>
        <time>2016-04-20T13:42:19Z</time>
      </trkpt>
      <trkpt lat="43.43866" lon="6.01957">
        <ele>284.39999389648</ele>
        <time>2016-04-20T13:42:21Z</time>
      </trkpt>
      <trkpt lat="43.43866" lon="6.01957">
        <ele>284.39999389648</ele>
        <time>2016-04-20T13:42:23Z</time>
      </trkpt>
      <trkpt lat="43.43866" lon="6.01957">
        <ele>284.20001220703</ele>
        <time>2016-04-20T13:42:25Z</time>
      </trkpt>
      <trkpt lat="43.43866" lon="6.01957">
        <ele>284.20001220703</ele>
        <time>2016-04-20T13:42:27Z</time>
      </trkpt>
      <trkpt lat="43.43866" lon="6.01957">
        <ele>284.20001220703</ele>
        <time>2016-04-20T13:42:29Z</time>
      </trkpt>
      <trkpt lat="43.43867" lon="6.01957">
        <ele>284.60000610352</ele>
        <time>2016-04-20T13:42:31Z</time>
      </trkpt>
      <trkpt lat="43.43867" lon="6.01957">
        <ele>284.60000610352</ele>
        <time>2016-04-20T13:42:32Z</time>
      </trkpt>
      <trkpt lat="43.43867" lon="6.01957">
        <ele>284.60000610352</ele>
        <time>2016-04-20T13:42:35Z</time>
      </trkpt>
      <trkpt lat="43.43867" lon="6.01957">
        <ele>284.60000610352</ele>
        <time>2016-04-20T13:42:37Z</time>
      </trkpt>
      <trkpt lat="43.43867" lon="6.01957">
        <ele>284.20001220703</ele>
        <time>2016-04-20T13:42:39Z</time>
      </trkpt>
      <trkpt lat="43.43867" lon="6.01957">
        <ele>284</ele>
        <time>2016-04-20T13:42:41Z</time>
      </trkpt>
      <trkpt lat="43.43867" lon="6.01957">
        <ele>284</ele>
        <time>2016-04-20T13:42:43Z</time>
      </trkpt>
      <trkpt lat="43.43867" lon="6.01957">
        <ele>284.20001220703</ele>
        <time>2016-04-20T13:42:45Z</time>
      </trkpt>
      <trkpt lat="43.43867" lon="6.01957">
        <ele>284.20001220703</ele>
        <time>2016-04-20T13:42:47Z</time>
      </trkpt>
      <trkpt lat="43.43867" lon="6.01957">
        <ele>284.20001220703</ele>
        <time>2016-04-20T13:42:49Z</time>
      </trkpt>
      <trkpt lat="43.43867" lon="6.01957">
        <ele>284.39999389648</ele>
        <time>2016-04-20T13:42:51Z</time>
      </trkpt>
      <trkpt lat="43.43867" lon="6.01957">
        <ele>284.39999389648</ele>
        <time>2016-04-20T13:42:52Z</time>
      </trkpt>
      <trkpt lat="43.43867" lon="6.01957">
        <ele>284.39999389648</ele>
        <time>2016-04-20T13:42:53Z</time>
      </trkpt>
      <trkpt lat="43.43867" lon="6.01957">
        <ele>284.39999389648</ele>
        <time>2016-04-20T13:42:55Z</time>
      </trkpt>
      <trkpt lat="43.43867" lon="6.01957">
        <ele>284.39999389648</ele>
        <time>2016-04-20T13:42:57Z</time>
      </trkpt>
      <trkpt lat="43.43867" lon="6.01957">
        <ele>284.39999389648</ele>
        <time>2016-04-20T13:42:59Z</time>
      </trkpt>
      <trkpt lat="43.43867" lon="6.01957">
        <ele>284.39999389648</ele>
        <time>2016-04-20T13:43:01Z</time>
      </trkpt>
      <trkpt lat="43.43867" lon="6.01956">
        <ele>284.79998779297</ele>
        <time>2016-04-20T13:43:03Z</time>
      </trkpt>
      <trkpt lat="43.43867" lon="6.01956">
        <ele>284.79998779297</ele>
        <time>2016-04-20T13:43:05Z</time>
      </trkpt>
      <trkpt lat="43.43867" lon="6.01956">
        <ele>284.79998779297</ele>
        <time>2016-04-20T13:43:07Z</time>
      </trkpt>
      <trkpt lat="43.43867" lon="6.01956">
        <ele>284.79998779297</ele>
        <time>2016-04-20T13:43:09Z</time>
      </trkpt>
      <trkpt lat="43.43867" lon="6.01956">
        <ele>284.79998779297</ele>
        <time>2016-04-20T13:43:11Z</time>
      </trkpt>
      <trkpt lat="43.43867" lon="6.01956">
        <ele>284.79998779297</ele>
        <time>2016-04-20T13:43:13Z</time>
      </trkpt>
      <trkpt lat="43.43867" lon="6.01956">
        <ele>285</ele>
        <time>2016-04-20T13:43:14Z</time>
      </trkpt>
      <trkpt lat="43.43867" lon="6.01956">
        <ele>284.79998779297</ele>
        <time>2016-04-20T13:43:15Z</time>
      </trkpt>
      <trkpt lat="43.43867" lon="6.01956">
        <ele>284.60000610352</ele>
        <time>2016-04-20T13:43:17Z</time>
      </trkpt>
      <trkpt lat="43.43867" lon="6.01956">
        <ele>284.60000610352</ele>
        <time>2016-04-20T13:43:19Z</time>
      </trkpt>
      <trkpt lat="43.43867" lon="6.01956">
        <ele>284.60000610352</ele>
        <time>2016-04-20T13:43:21Z</time>
      </trkpt>
      <trkpt lat="43.43867" lon="6.01956">
        <ele>284.79998779297</ele>
        <time>2016-04-20T13:43:23Z</time>
      </trkpt>
      <trkpt lat="43.43867" lon="6.01956">
        <ele>284.60000610352</ele>
        <time>2016-04-20T13:43:25Z</time>
      </trkpt>
      <trkpt lat="43.43867" lon="6.01956">
        <ele>284.60000610352</ele>
        <time>2016-04-20T13:43:27Z</time>
      </trkpt>
      <trkpt lat="43.43867" lon="6.01956">
        <ele>284.60000610352</ele>
        <time>2016-04-20T13:43:29Z</time>
      </trkpt>
      <trkpt lat="43.43867" lon="6.01956">
        <ele>284.60000610352</ele>
        <time>2016-04-20T13:43:31Z</time>
      </trkpt>
      <trkpt lat="43.43867" lon="6.01956">
        <ele>284.39999389648</ele>
        <time>2016-04-20T13:43:33Z</time>
      </trkpt>
      <trkpt lat="43.43867" lon="6.01956">
        <ele>284.20001220703</ele>
        <time>2016-04-20T13:43:35Z</time>
      </trkpt>
      <trkpt lat="43.43867" lon="6.01956">
        <ele>284.39999389648</ele>
        <time>2016-04-20T13:43:36Z</time>
      </trkpt>
      <trkpt lat="43.43867" lon="6.01956">
        <ele>284.39999389648</ele>
        <time>2016-04-20T13:43:37Z</time>
      </trkpt>
      <trkpt lat="43.43867" lon="6.01956">
        <ele>284.20001220703</ele>
        <time>2016-04-20T13:43:38Z</time>
      </trkpt>
      <trkpt lat="43.43867" lon="6.01956">
        <ele>284.39999389648</ele>
        <time>2016-04-20T13:43:39Z</time>
      </trkpt>
      <trkpt lat="43.43867" lon="6.01956">
        <ele>284.39999389648</ele>
        <time>2016-04-20T13:43:41Z</time>
      </trkpt>
      <trkpt lat="43.43867" lon="6.01956">
        <ele>284.20001220703</ele>
        <time>2016-04-20T13:43:43Z</time>
      </trkpt>
      <trkpt lat="43.43867" lon="6.01956">
        <ele>284</ele>
        <time>2016-04-20T13:43:45Z</time>
      </trkpt>
      <trkpt lat="43.43867" lon="6.01956">
        <ele>284</ele>
        <time>2016-04-20T13:43:47Z</time>
      </trkpt>
      <trkpt lat="43.43867" lon="6.01956">
        <ele>284</ele>
        <time>2016-04-20T13:43:49Z</time>
      </trkpt>
      <trkpt lat="43.43867" lon="6.01956">
        <ele>284</ele>
        <time>2016-04-20T13:43:51Z</time>
      </trkpt>
      <trkpt lat="43.43867" lon="6.01956">
        <ele>284.39999389648</ele>
        <time>2016-04-20T13:43:53Z</time>
      </trkpt>
      <trkpt lat="43.43867" lon="6.01956">
        <ele>284.39999389648</ele>
        <time>2016-04-20T13:43:55Z</time>
      </trkpt>
      <trkpt lat="43.43867" lon="6.01956">
        <ele>284.39999389648</ele>
        <time>2016-04-20T13:43:57Z</time>
      </trkpt>
      <trkpt lat="43.43866" lon="6.01956">
        <ele>284.60000610352</ele>
        <time>2016-04-20T13:43:59Z</time>
      </trkpt>
      <trkpt lat="43.43867" lon="6.01956">
        <ele>284.60000610352</ele>
        <time>2016-04-20T13:44:01Z</time>
      </trkpt>
      <trkpt lat="43.43867" lon="6.01956">
        <ele>284.60000610352</ele>
        <time>2016-04-20T13:44:03Z</time>
      </trkpt>
      <trkpt lat="43.43867" lon="6.01956">
        <ele>284.60000610352</ele>
        <time>2016-04-20T13:44:05Z</time>
      </trkpt>
      <trkpt lat="43.43867" lon="6.01956">
        <ele>284.39999389648</ele>
        <time>2016-04-20T13:44:07Z</time>
      </trkpt>
      <trkpt lat="43.43867" lon="6.01956">
        <ele>284.20001220703</ele>
        <time>2016-04-20T13:44:09Z</time>
      </trkpt>
      <trkpt lat="43.43867" lon="6.01956">
        <ele>284.20001220703</ele>
        <time>2016-04-20T13:44:11Z</time>
      </trkpt>
      <trkpt lat="43.43867" lon="6.01956">
        <ele>284</ele>
        <time>2016-04-20T13:44:13Z</time>
      </trkpt>
      <trkpt lat="43.43867" lon="6.01956">
        <ele>284</ele>
        <time>2016-04-20T13:44:15Z</time>
      </trkpt>
      <trkpt lat="43.43867" lon="6.01956">
        <ele>284.20001220703</ele>
        <time>2016-04-20T13:44:17Z</time>
      </trkpt>
      <trkpt lat="43.43866" lon="6.01956">
        <ele>284.20001220703</ele>
        <time>2016-04-20T13:44:19Z</time>
      </trkpt>
      <trkpt lat="43.43866" lon="6.01956">
        <ele>284.20001220703</ele>
        <time>2016-04-20T13:44:21Z</time>
      </trkpt>
      <trkpt lat="43.43867" lon="6.01956">
        <ele>284</ele>
        <time>2016-04-20T13:44:23Z</time>
      </trkpt>
      <trkpt lat="43.43866" lon="6.01956">
        <ele>284</ele>
        <time>2016-04-20T13:44:25Z</time>
      </trkpt>
      <trkpt lat="43.43866" lon="6.01956">
        <ele>283.79998779297</ele>
        <time>2016-04-20T13:44:27Z</time>
      </trkpt>
      <trkpt lat="43.43866" lon="6.01956">
        <ele>284</ele>
        <time>2016-04-20T13:44:29Z</time>
      </trkpt>
      <trkpt lat="43.43867" lon="6.01956">
        <ele>284.20001220703</ele>
        <time>2016-04-20T13:44:31Z</time>
      </trkpt>
      <trkpt lat="43.43867" lon="6.01956">
        <ele>284.39999389648</ele>
        <time>2016-04-20T13:44:33Z</time>
      </trkpt>
      <trkpt lat="43.43867" lon="6.01956">
        <ele>284.20001220703</ele>
        <time>2016-04-20T13:44:35Z</time>
      </trkpt>
      <trkpt lat="43.43867" lon="6.01956">
        <ele>284</ele>
        <time>2016-04-20T13:44:37Z</time>
      </trkpt>
      <trkpt lat="43.43867" lon="6.01956">
        <ele>284</ele>
        <time>2016-04-20T13:44:39Z</time>
      </trkpt>
      <trkpt lat="43.43866" lon="6.01956">
        <ele>284</ele>
        <time>2016-04-20T13:44:41Z</time>
      </trkpt>
      <trkpt lat="43.43866" lon="6.01956">
        <ele>284</ele>
        <time>2016-04-20T13:44:43Z</time>
      </trkpt>
      <trkpt lat="43.43867" lon="6.01956">
        <ele>284</ele>
        <time>2016-04-20T13:44:45Z</time>
      </trkpt>
      <trkpt lat="43.43867" lon="6.01956">
        <ele>284</ele>
        <time>2016-04-20T13:44:46Z</time>
      </trkpt>
      <trkpt lat="43.43867" lon="6.01956">
        <ele>284</ele>
        <time>2016-04-20T13:44:49Z</time>
      </trkpt>
      <trkpt lat="43.43867" lon="6.01956">
        <ele>284</ele>
        <time>2016-04-20T13:44:51Z</time>
      </trkpt>
      <trkpt lat="43.43867" lon="6.01956">
        <ele>284.20001220703</ele>
        <time>2016-04-20T13:44:53Z</time>
      </trkpt>
      <trkpt lat="43.43867" lon="6.01956">
        <ele>284.39999389648</ele>
        <time>2016-04-20T13:44:55Z</time>
      </trkpt>
      <trkpt lat="43.43867" lon="6.01956">
        <ele>284.39999389648</ele>
        <time>2016-04-20T13:44:57Z</time>
      </trkpt>
      <trkpt lat="43.43867" lon="6.01956">
        <ele>284.39999389648</ele>
        <time>2016-04-20T13:44:59Z</time>
      </trkpt>
      <trkpt lat="43.43867" lon="6.01956">
        <ele>284.39999389648</ele>
        <time>2016-04-20T13:45:01Z</time>
      </trkpt>
      <trkpt lat="43.43867" lon="6.01956">
        <ele>284.39999389648</ele>
        <time>2016-04-20T13:45:03Z</time>
      </trkpt>
      <trkpt lat="43.43867" lon="6.01956">
        <ele>284.39999389648</ele>
        <time>2016-04-20T13:45:05Z</time>
      </trkpt>
      <trkpt lat="43.43867" lon="6.01956">
        <ele>284.39999389648</ele>
        <time>2016-04-20T13:45:07Z</time>
      </trkpt>
      <trkpt lat="43.43867" lon="6.01956">
        <ele>284.79998779297</ele>
        <time>2016-04-20T13:45:09Z</time>
      </trkpt>
      <trkpt lat="43.43867" lon="6.01956">
        <ele>284.79998779297</ele>
        <time>2016-04-20T13:45:11Z</time>
      </trkpt>
      <trkpt lat="43.43867" lon="6.01956">
        <ele>284.60000610352</ele>
        <time>2016-04-20T13:45:13Z</time>
      </trkpt>
      <trkpt lat="43.43867" lon="6.01956">
        <ele>284.39999389648</ele>
        <time>2016-04-20T13:45:15Z</time>
      </trkpt>
      <trkpt lat="43.43867" lon="6.01956">
        <ele>284.39999389648</ele>
        <time>2016-04-20T13:45:17Z</time>
      </trkpt>
      <trkpt lat="43.43867" lon="6.01956">
        <ele>284.39999389648</ele>
        <time>2016-04-20T13:45:19Z</time>
      </trkpt>
      <trkpt lat="43.43867" lon="6.01956">
        <ele>284.39999389648</ele>
        <time>2016-04-20T13:45:21Z</time>
      </trkpt>
      <trkpt lat="43.43867" lon="6.01955">
        <ele>284.39999389648</ele>
        <time>2016-04-20T13:45:23Z</time>
      </trkpt>
      <trkpt lat="43.43867" lon="6.01955">
        <ele>284.39999389648</ele>
        <time>2016-04-20T13:45:25Z</time>
      </trkpt>
      <trkpt lat="43.43867" lon="6.01955">
        <ele>284.39999389648</ele>
        <time>2016-04-20T13:45:29Z</time>
      </trkpt>
      <trkpt lat="43.43867" lon="6.01955">
        <ele>284.39999389648</ele>
        <time>2016-04-20T13:45:31Z</time>
      </trkpt>
      <trkpt lat="43.43867" lon="6.01955">
        <ele>284.60000610352</ele>
        <time>2016-04-20T13:45:33Z</time>
      </trkpt>
      <trkpt lat="43.43867" lon="6.01955">
        <ele>284.60000610352</ele>
        <time>2016-04-20T13:45:35Z</time>
      </trkpt>
      <trkpt lat="43.43867" lon="6.01955">
        <ele>284.60000610352</ele>
        <time>2016-04-20T13:45:37Z</time>
      </trkpt>
      <trkpt lat="43.43868" lon="6.01954">
        <ele>284.60000610352</ele>
        <time>2016-04-20T13:45:39Z</time>
      </trkpt>
      <trkpt lat="43.4387" lon="6.01952">
        <ele>284.60000610352</ele>
        <time>2016-04-20T13:45:41Z</time>
      </trkpt>
      <trkpt lat="43.43871" lon="6.01949">
        <ele>284.60000610352</ele>
        <time>2016-04-20T13:45:43Z</time>
      </trkpt>
      <trkpt lat="43.43872" lon="6.01948">
        <ele>284.39999389648</ele>
        <time>2016-04-20T13:45:45Z</time>
      </trkpt>
      <trkpt lat="43.43874" lon="6.01945">
        <ele>284.39999389648</ele>
        <time>2016-04-20T13:45:47Z</time>
      </trkpt>
      <trkpt lat="43.43874" lon="6.01944">
        <ele>284.39999389648</ele>
        <time>2016-04-20T13:45:48Z</time>
      </trkpt>
      <trkpt lat="43.43874" lon="6.01943">
        <ele>284.39999389648</ele>
        <time>2016-04-20T13:45:49Z</time>
      </trkpt>
      <trkpt lat="43.43875" lon="6.01939">
        <ele>284.39999389648</ele>
        <time>2016-04-20T13:45:51Z</time>
      </trkpt>
      <trkpt lat="43.43876" lon="6.01938">
        <ele>284.39999389648</ele>
        <time>2016-04-20T13:45:52Z</time>
      </trkpt>
      <trkpt lat="43.43876" lon="6.01936">
        <ele>284.39999389648</ele>
        <time>2016-04-20T13:45:53Z</time>
      </trkpt>
      <trkpt lat="43.43877" lon="6.01934">
        <ele>284.20001220703</ele>
        <time>2016-04-20T13:45:55Z</time>
      </trkpt>
      <trkpt lat="43.43879" lon="6.01932">
        <ele>284.20001220703</ele>
        <time>2016-04-20T13:45:57Z</time>
      </trkpt>
      <trkpt lat="43.43879" lon="6.0193">
        <ele>284.20001220703</ele>
        <time>2016-04-20T13:45:59Z</time>
      </trkpt>
      <trkpt lat="43.4388" lon="6.01928">
        <ele>284.20001220703</ele>
        <time>2016-04-20T13:46:01Z</time>
      </trkpt>
      <trkpt lat="43.43882" lon="6.01923">
        <ele>284.39999389648</ele>
        <time>2016-04-20T13:46:03Z</time>
      </trkpt>
      <trkpt lat="43.43883" lon="6.01917">
        <ele>284.39999389648</ele>
        <time>2016-04-20T13:46:05Z</time>
      </trkpt>
      <trkpt lat="43.43885" lon="6.01911">
        <ele>284.39999389648</ele>
        <time>2016-04-20T13:46:07Z</time>
      </trkpt>
      <trkpt lat="43.43887" lon="6.01903">
        <ele>284.60000610352</ele>
        <time>2016-04-20T13:46:09Z</time>
      </trkpt>
      <trkpt lat="43.43889" lon="6.01896">
        <ele>284.60000610352</ele>
        <time>2016-04-20T13:46:11Z</time>
      </trkpt>
      <trkpt lat="43.43891" lon="6.01888">
        <ele>285</ele>
        <time>2016-04-20T13:46:13Z</time>
      </trkpt>
      <trkpt lat="43.43892" lon="6.01878">
        <ele>285.20001220703</ele>
        <time>2016-04-20T13:46:15Z</time>
      </trkpt>
      <trkpt lat="43.43892" lon="6.01872">
        <ele>285.20001220703</ele>
        <time>2016-04-20T13:46:16Z</time>
      </trkpt>
      <trkpt lat="43.43893" lon="6.01867">
        <ele>285.39999389648</ele>
        <time>2016-04-20T13:46:17Z</time>
      </trkpt>
      <trkpt lat="43.43895" lon="6.01858">
        <ele>285.39999389648</ele>
        <time>2016-04-20T13:46:19Z</time>
      </trkpt>
      <trkpt lat="43.43896" lon="6.01848">
        <ele>285.79998779297</ele>
        <time>2016-04-20T13:46:21Z</time>
      </trkpt>
      <trkpt lat="43.43896" lon="6.01838">
        <ele>286.20001220703</ele>
        <time>2016-04-20T13:46:23Z</time>
      </trkpt>
      <trkpt lat="43.43897" lon="6.0183">
        <ele>286.39999389648</ele>
        <time>2016-04-20T13:46:25Z</time>
      </trkpt>
      <trkpt lat="43.43897" lon="6.01826">
        <ele>286.39999389648</ele>
        <time>2016-04-20T13:46:26Z</time>
      </trkpt>
      <trkpt lat="43.43898" lon="6.01822">
        <ele>286.60000610352</ele>
        <time>2016-04-20T13:46:27Z</time>
      </trkpt>
      <trkpt lat="43.43899" lon="6.01814">
        <ele>287.20001220703</ele>
        <time>2016-04-20T13:46:29Z</time>
      </trkpt>
      <trkpt lat="43.43899" lon="6.01811">
        <ele>287.20001220703</ele>
        <time>2016-04-20T13:46:30Z</time>
      </trkpt>
      <trkpt lat="43.439" lon="6.01808">
        <ele>287.79998779297</ele>
        <time>2016-04-20T13:46:31Z</time>
      </trkpt>
      <trkpt lat="43.43901" lon="6.01805">
        <ele>288</ele>
        <time>2016-04-20T13:46:32Z</time>
      </trkpt>
      <trkpt lat="43.43901" lon="6.01802">
        <ele>288.20001220703</ele>
        <time>2016-04-20T13:46:33Z</time>
      </trkpt>
      <trkpt lat="43.43903" lon="6.01797">
        <ele>288.39999389648</ele>
        <time>2016-04-20T13:46:35Z</time>
      </trkpt>
      <trkpt lat="43.43904" lon="6.01792">
        <ele>288.60000610352</ele>
        <time>2016-04-20T13:46:37Z</time>
      </trkpt>
      <trkpt lat="43.43906" lon="6.01787">
        <ele>288.79998779297</ele>
        <time>2016-04-20T13:46:39Z</time>
      </trkpt>
      <trkpt lat="43.43906" lon="6.01785">
        <ele>288.79998779297</ele>
        <time>2016-04-20T13:46:40Z</time>
      </trkpt>
      <trkpt lat="43.43906" lon="6.01783">
        <ele>289.20001220703</ele>
        <time>2016-04-20T13:46:41Z</time>
      </trkpt>
      <trkpt lat="43.43906" lon="6.01782">
        <ele>289.20001220703</ele>
        <time>2016-04-20T13:46:42Z</time>
      </trkpt>
      <trkpt lat="43.43905" lon="6.01781">
        <ele>289.39999389648</ele>
        <time>2016-04-20T13:46:43Z</time>
      </trkpt>
      <trkpt lat="43.43905" lon="6.0178">
        <ele>289.39999389648</ele>
        <time>2016-04-20T13:46:45Z</time>
      </trkpt>
      <trkpt lat="43.43905" lon="6.01781">
        <ele>289.60000610352</ele>
        <time>2016-04-20T13:46:47Z</time>
      </trkpt>
      <trkpt lat="43.43905" lon="6.01781">
        <ele>289.60000610352</ele>
        <time>2016-04-20T13:46:49Z</time>
      </trkpt>
      <trkpt lat="43.43905" lon="6.0178">
        <ele>289.60000610352</ele>
        <time>2016-04-20T13:46:50Z</time>
      </trkpt>
      <trkpt lat="43.43905" lon="6.0178">
        <ele>289.60000610352</ele>
        <time>2016-04-20T13:46:51Z</time>
      </trkpt>
      <trkpt lat="43.43905" lon="6.0178">
        <ele>289.60000610352</ele>
        <time>2016-04-20T13:46:53Z</time>
      </trkpt>
      <trkpt lat="43.43905" lon="6.0178">
        <ele>289.60000610352</ele>
        <time>2016-04-20T13:46:55Z</time>
      </trkpt>
      <trkpt lat="43.43905" lon="6.0178">
        <ele>289.60000610352</ele>
        <time>2016-04-20T13:46:57Z</time>
      </trkpt>
      <trkpt lat="43.43905" lon="6.0178">
        <ele>289.79998779297</ele>
        <time>2016-04-20T13:46:59Z</time>
      </trkpt>
      <trkpt lat="43.43905" lon="6.0178">
        <ele>289.60000610352</ele>
        <time>2016-04-20T13:47:01Z</time>
      </trkpt>
      <trkpt lat="43.43905" lon="6.0178">
        <ele>289.60000610352</ele>
        <time>2016-04-20T13:47:03Z</time>
      </trkpt>
      <trkpt lat="43.43905" lon="6.0178">
        <ele>289.60000610352</ele>
        <time>2016-04-20T13:47:05Z</time>
      </trkpt>
      <trkpt lat="43.43905" lon="6.0178">
        <ele>289.60000610352</ele>
        <time>2016-04-20T13:47:07Z</time>
      </trkpt>
      <trkpt lat="43.43905" lon="6.0178">
        <ele>289.60000610352</ele>
        <time>2016-04-20T13:47:08Z</time>
      </trkpt>
      <trkpt lat="43.43906" lon="6.0178">
        <ele>289.60000610352</ele>
        <time>2016-04-20T13:47:09Z</time>
      </trkpt>
      <trkpt lat="43.43906" lon="6.0178">
        <ele>289.60000610352</ele>
        <time>2016-04-20T13:47:11Z</time>
      </trkpt>
      <trkpt lat="43.43906" lon="6.0178">
        <ele>289.60000610352</ele>
        <time>2016-04-20T13:47:13Z</time>
      </trkpt>
      <trkpt lat="43.43906" lon="6.0178">
        <ele>289.79998779297</ele>
        <time>2016-04-20T13:47:15Z</time>
      </trkpt>
      <trkpt lat="43.43906" lon="6.01779">
        <ele>289.79998779297</ele>
        <time>2016-04-20T13:47:17Z</time>
      </trkpt>
      <trkpt lat="43.43906" lon="6.01779">
        <ele>289.79998779297</ele>
        <time>2016-04-20T13:47:19Z</time>
      </trkpt>
      <trkpt lat="43.43906" lon="6.01779">
        <ele>290</ele>
        <time>2016-04-20T13:47:21Z</time>
      </trkpt>
      <trkpt lat="43.43906" lon="6.01777">
        <ele>290</ele>
        <time>2016-04-20T13:47:23Z</time>
      </trkpt>
      <trkpt lat="43.43906" lon="6.01775">
        <ele>290</ele>
        <time>2016-04-20T13:47:24Z</time>
      </trkpt>
      <trkpt lat="43.43906" lon="6.01773">
        <ele>290.20001220703</ele>
        <time>2016-04-20T13:47:25Z</time>
      </trkpt>
      <trkpt lat="43.43907" lon="6.0177">
        <ele>290.39999389648</ele>
        <time>2016-04-20T13:47:27Z</time>
      </trkpt>
      <trkpt lat="43.43907" lon="6.01766">
        <ele>290.79998779297</ele>
        <time>2016-04-20T13:47:29Z</time>
      </trkpt>
      <trkpt lat="43.43906" lon="6.01764">
        <ele>290.79998779297</ele>
        <time>2016-04-20T13:47:30Z</time>
      </trkpt>
      <trkpt lat="43.43906" lon="6.01761">
        <ele>291</ele>
        <time>2016-04-20T13:47:31Z</time>
      </trkpt>
      <trkpt lat="43.43905" lon="6.01757">
        <ele>291.20001220703</ele>
        <time>2016-04-20T13:47:33Z</time>
      </trkpt>
      <trkpt lat="43.43904" lon="6.01755">
        <ele>291.39999389648</ele>
        <time>2016-04-20T13:47:34Z</time>
      </trkpt>
      <trkpt lat="43.43904" lon="6.01752">
        <ele>291.39999389648</ele>
        <time>2016-04-20T13:47:35Z</time>
      </trkpt>
      <trkpt lat="43.43902" lon="6.01746">
        <ele>291.60000610352</ele>
        <time>2016-04-20T13:47:37Z</time>
      </trkpt>
      <trkpt lat="43.43901" lon="6.0174">
        <ele>291.60000610352</ele>
        <time>2016-04-20T13:47:39Z</time>
      </trkpt>
      <trkpt lat="43.43898" lon="6.01734">
        <ele>291.60000610352</ele>
        <time>2016-04-20T13:47:41Z</time>
      </trkpt>
      <trkpt lat="43.43895" lon="6.01728">
        <ele>292</ele>
        <time>2016-04-20T13:47:43Z</time>
      </trkpt>
      <trkpt lat="43.43893" lon="6.01723">
        <ele>292.20001220703</ele>
        <time>2016-04-20T13:47:45Z</time>
      </trkpt>
      <trkpt lat="43.43891" lon="6.01717">
        <ele>292.20001220703</ele>
        <time>2016-04-20T13:47:47Z</time>
      </trkpt>
      <trkpt lat="43.4389" lon="6.01711">
        <ele>292.20001220703</ele>
        <time>2016-04-20T13:47:49Z</time>
      </trkpt>
      <trkpt lat="43.4389" lon="6.01706">
        <ele>292.20001220703</ele>
        <time>2016-04-20T13:47:51Z</time>
      </trkpt>
      <trkpt lat="43.43888" lon="6.01701">
        <ele>292.60000610352</ele>
        <time>2016-04-20T13:47:53Z</time>
      </trkpt>
      <trkpt lat="43.43887" lon="6.01699">
        <ele>292.79998779297</ele>
        <time>2016-04-20T13:47:54Z</time>
      </trkpt>
      <trkpt lat="43.43885" lon="6.01698">
        <ele>293</ele>
        <time>2016-04-20T13:47:55Z</time>
      </trkpt>
      <trkpt lat="43.43881" lon="6.01699">
        <ele>293.39999389648</ele>
        <time>2016-04-20T13:47:57Z</time>
      </trkpt>
      <trkpt lat="43.43877" lon="6.01697">
        <ele>293.79998779297</ele>
        <time>2016-04-20T13:47:59Z</time>
      </trkpt>
      <trkpt lat="43.43876" lon="6.01697">
        <ele>294</ele>
        <time>2016-04-20T13:48:01Z</time>
      </trkpt>
      <trkpt lat="43.43875" lon="6.01696">
        <ele>294</ele>
        <time>2016-04-20T13:48:03Z</time>
      </trkpt>
      <trkpt lat="43.43874" lon="6.01696">
        <ele>294.20001220703</ele>
        <time>2016-04-20T13:48:05Z</time>
      </trkpt>
      <trkpt lat="43.43873" lon="6.01695">
        <ele>294.20001220703</ele>
        <time>2016-04-20T13:48:07Z</time>
      </trkpt>
      <trkpt lat="43.4387" lon="6.01694">
        <ele>294.20001220703</ele>
        <time>2016-04-20T13:48:09Z</time>
      </trkpt>
      <trkpt lat="43.43866" lon="6.01689">
        <ele>294.20001220703</ele>
        <time>2016-04-20T13:48:11Z</time>
      </trkpt>
      <trkpt lat="43.43864" lon="6.01688">
        <ele>294.39999389648</ele>
        <time>2016-04-20T13:48:12Z</time>
      </trkpt>
      <trkpt lat="43.43862" lon="6.01688">
        <ele>294.60000610352</ele>
        <time>2016-04-20T13:48:13Z</time>
      </trkpt>
      <trkpt lat="43.43857" lon="6.01688">
        <ele>294.79998779297</ele>
        <time>2016-04-20T13:48:15Z</time>
      </trkpt>
      <trkpt lat="43.43852" lon="6.01691">
        <ele>294.79998779297</ele>
        <time>2016-04-20T13:48:17Z</time>
      </trkpt>
      <trkpt lat="43.43846" lon="6.01694">
        <ele>294.60000610352</ele>
        <time>2016-04-20T13:48:19Z</time>
      </trkpt>
      <trkpt lat="43.43839" lon="6.01696">
        <ele>294.79998779297</ele>
        <time>2016-04-20T13:48:21Z</time>
      </trkpt>
      <trkpt lat="43.43833" lon="6.01698">
        <ele>294.79998779297</ele>
        <time>2016-04-20T13:48:23Z</time>
      </trkpt>
      <trkpt lat="43.43827" lon="6.017">
        <ele>295</ele>
        <time>2016-04-20T13:48:25Z</time>
      </trkpt>
      <trkpt lat="43.4382" lon="6.01702">
        <ele>295</ele>
        <time>2016-04-20T13:48:27Z</time>
      </trkpt>
      <trkpt lat="43.43814" lon="6.01705">
        <ele>295.20001220703</ele>
        <time>2016-04-20T13:48:29Z</time>
      </trkpt>
      <trkpt lat="43.43808" lon="6.01706">
        <ele>295.20001220703</ele>
        <time>2016-04-20T13:48:31Z</time>
      </trkpt>
      <trkpt lat="43.43804" lon="6.01706">
        <ele>295.60000610352</ele>
        <time>2016-04-20T13:48:32Z</time>
      </trkpt>
      <trkpt lat="43.43801" lon="6.01705">
        <ele>295.79998779297</ele>
        <time>2016-04-20T13:48:33Z</time>
      </trkpt>
      <trkpt lat="43.43795" lon="6.01704">
        <ele>295.79998779297</ele>
        <time>2016-04-20T13:48:35Z</time>
      </trkpt>
      <trkpt lat="43.4379" lon="6.01702">
        <ele>296.20001220703</ele>
        <time>2016-04-20T13:48:37Z</time>
      </trkpt>
      <trkpt lat="43.43786" lon="6.01701">
        <ele>296.60000610352</ele>
        <time>2016-04-20T13:48:39Z</time>
      </trkpt>
      <trkpt lat="43.43784" lon="6.01701">
        <ele>296.60000610352</ele>
        <time>2016-04-20T13:48:40Z</time>
      </trkpt>
      <trkpt lat="43.43782" lon="6.017">
        <ele>296.79998779297</ele>
        <time>2016-04-20T13:48:41Z</time>
      </trkpt>
      <trkpt lat="43.43779" lon="6.01698">
        <ele>297.20001220703</ele>
        <time>2016-04-20T13:48:43Z</time>
      </trkpt>
      <trkpt lat="43.43774" lon="6.01697">
        <ele>297.39999389648</ele>
        <time>2016-04-20T13:48:45Z</time>
      </trkpt>
      <trkpt lat="43.43769" lon="6.01696">
        <ele>297.60000610352</ele>
        <time>2016-04-20T13:48:47Z</time>
      </trkpt>
      <trkpt lat="43.43767" lon="6.01695">
        <ele>298.20001220703</ele>
        <time>2016-04-20T13:48:48Z</time>
      </trkpt>
      <trkpt lat="43.43765" lon="6.01694">
        <ele>298.20001220703</ele>
        <time>2016-04-20T13:48:49Z</time>
      </trkpt>
      <trkpt lat="43.43763" lon="6.01693">
        <ele>298.20001220703</ele>
        <time>2016-04-20T13:48:51Z</time>
      </trkpt>
      <trkpt lat="43.4376" lon="6.01692">
        <ele>298.20001220703</ele>
        <time>2016-04-20T13:48:53Z</time>
      </trkpt>
      <trkpt lat="43.43757" lon="6.0169">
        <ele>298.20001220703</ele>
        <time>2016-04-20T13:48:55Z</time>
      </trkpt>
      <trkpt lat="43.43755" lon="6.0169">
        <ele>298.39999389648</ele>
        <time>2016-04-20T13:48:57Z</time>
      </trkpt>
      <trkpt lat="43.43753" lon="6.0169">
        <ele>298.60000610352</ele>
        <time>2016-04-20T13:48:59Z</time>
      </trkpt>
      <trkpt lat="43.43752" lon="6.0169">
        <ele>298.79998779297</ele>
        <time>2016-04-20T13:49:00Z</time>
      </trkpt>
      <trkpt lat="43.43751" lon="6.01689">
        <ele>298.79998779297</ele>
        <time>2016-04-20T13:49:01Z</time>
      </trkpt>
      <trkpt lat="43.43748" lon="6.01687">
        <ele>298.79998779297</ele>
        <time>2016-04-20T13:49:03Z</time>
      </trkpt>
      <trkpt lat="43.43747" lon="6.01687">
        <ele>298.60000610352</ele>
        <time>2016-04-20T13:49:05Z</time>
      </trkpt>
      <trkpt lat="43.43746" lon="6.01686">
        <ele>298.60000610352</ele>
        <time>2016-04-20T13:49:07Z</time>
      </trkpt>
      <trkpt lat="43.43746" lon="6.01686">
        <ele>298.79998779297</ele>
        <time>2016-04-20T13:49:09Z</time>
      </trkpt>
      <trkpt lat="43.43746" lon="6.01686">
        <ele>298.60000610352</ele>
        <time>2016-04-20T13:49:11Z</time>
      </trkpt>
      <trkpt lat="43.43746" lon="6.01686">
        <ele>298.39999389648</ele>
        <time>2016-04-20T13:49:13Z</time>
      </trkpt>
      <trkpt lat="43.43746" lon="6.01686">
        <ele>298.20001220703</ele>
        <time>2016-04-20T13:49:15Z</time>
      </trkpt>
      <trkpt lat="43.43746" lon="6.01686">
        <ele>298.39999389648</ele>
        <time>2016-04-20T13:49:17Z</time>
      </trkpt>
      <trkpt lat="43.43746" lon="6.01686">
        <ele>298.39999389648</ele>
        <time>2016-04-20T13:49:19Z</time>
      </trkpt>
      <trkpt lat="43.43746" lon="6.01686">
        <ele>298.60000610352</ele>
        <time>2016-04-20T13:49:21Z</time>
      </trkpt>
      <trkpt lat="43.43746" lon="6.01686">
        <ele>298.60000610352</ele>
        <time>2016-04-20T13:49:23Z</time>
      </trkpt>
      <trkpt lat="43.43746" lon="6.01686">
        <ele>298.39999389648</ele>
        <time>2016-04-20T13:49:25Z</time>
      </trkpt>
      <trkpt lat="43.43746" lon="6.01686">
        <ele>298.60000610352</ele>
        <time>2016-04-20T13:49:27Z</time>
      </trkpt>
      <trkpt lat="43.43746" lon="6.01686">
        <ele>298.60000610352</ele>
        <time>2016-04-20T13:49:29Z</time>
      </trkpt>
      <trkpt lat="43.43746" lon="6.01686">
        <ele>298.60000610352</ele>
        <time>2016-04-20T13:49:31Z</time>
      </trkpt>
      <trkpt lat="43.43746" lon="6.01686">
        <ele>298.60000610352</ele>
        <time>2016-04-20T13:49:33Z</time>
      </trkpt>
      <trkpt lat="43.43746" lon="6.01686">
        <ele>298.60000610352</ele>
        <time>2016-04-20T13:49:35Z</time>
      </trkpt>
      <trkpt lat="43.43744" lon="6.01685">
        <ele>298.60000610352</ele>
        <time>2016-04-20T13:49:37Z</time>
      </trkpt>
      <trkpt lat="43.43743" lon="6.01684">
        <ele>298.39999389648</ele>
        <time>2016-04-20T13:49:38Z</time>
      </trkpt>
      <trkpt lat="43.43742" lon="6.01683">
        <ele>298.39999389648</ele>
        <time>2016-04-20T13:49:39Z</time>
      </trkpt>
      <trkpt lat="43.4374" lon="6.01682">
        <ele>298.60000610352</ele>
        <time>2016-04-20T13:49:40Z</time>
      </trkpt>
      <trkpt lat="43.43739" lon="6.01681">
        <ele>298.60000610352</ele>
        <time>2016-04-20T13:49:41Z</time>
      </trkpt>
      <trkpt lat="43.43736" lon="6.0168">
        <ele>299</ele>
        <time>2016-04-20T13:49:43Z</time>
      </trkpt>
      <trkpt lat="43.43731" lon="6.01678">
        <ele>299</ele>
        <time>2016-04-20T13:49:45Z</time>
      </trkpt>
      <trkpt lat="43.43727" lon="6.01676">
        <ele>299.20001220703</ele>
        <time>2016-04-20T13:49:47Z</time>
      </trkpt>
      <trkpt lat="43.43725" lon="6.01675">
        <ele>299.39999389648</ele>
        <time>2016-04-20T13:49:48Z</time>
      </trkpt>
      <trkpt lat="43.43723" lon="6.01672">
        <ele>299.79998779297</ele>
        <time>2016-04-20T13:49:49Z</time>
      </trkpt>
      <trkpt lat="43.43719" lon="6.01667">
        <ele>299.79998779297</ele>
        <time>2016-04-20T13:49:51Z</time>
      </trkpt>
      <trkpt lat="43.43715" lon="6.01663">
        <ele>300.20001220703</ele>
        <time>2016-04-20T13:49:53Z</time>
      </trkpt>
      <trkpt lat="43.43711" lon="6.01659">
        <ele>300.39999389648</ele>
        <time>2016-04-20T13:49:55Z</time>
      </trkpt>
      <trkpt lat="43.43707" lon="6.01655">
        <ele>300.60000610352</ele>
        <time>2016-04-20T13:49:57Z</time>
      </trkpt>
      <trkpt lat="43.43703" lon="6.01652">
        <ele>300.79998779297</ele>
        <time>2016-04-20T13:49:59Z</time>
      </trkpt>
      <trkpt lat="43.43698" lon="6.01651">
        <ele>301</ele>
        <time>2016-04-20T13:50:01Z</time>
      </trkpt>
      <trkpt lat="43.43694" lon="6.01648">
        <ele>301</ele>
        <time>2016-04-20T13:50:03Z</time>
      </trkpt>
      <trkpt lat="43.4369" lon="6.01647">
        <ele>301.39999389648</ele>
        <time>2016-04-20T13:50:05Z</time>
      </trkpt>
      <trkpt lat="43.43687" lon="6.01646">
        <ele>301.60000610352</ele>
        <time>2016-04-20T13:50:06Z</time>
      </trkpt>
      <trkpt lat="43.43685" lon="6.01646">
        <ele>301.79998779297</ele>
        <time>2016-04-20T13:50:07Z</time>
      </trkpt>
      <trkpt lat="43.4368" lon="6.01645">
        <ele>302.60000610352</ele>
        <time>2016-04-20T13:50:09Z</time>
      </trkpt>
      <trkpt lat="43.43678" lon="6.01644">
        <ele>302.60000610352</ele>
        <time>2016-04-20T13:50:10Z</time>
      </trkpt>
      <trkpt lat="43.43676" lon="6.01644">
        <ele>302.60000610352</ele>
        <time>2016-04-20T13:50:11Z</time>
      </trkpt>
      <trkpt lat="43.43672" lon="6.01643">
        <ele>302.79998779297</ele>
        <time>2016-04-20T13:50:13Z</time>
      </trkpt>
      <trkpt lat="43.43667" lon="6.01641">
        <ele>302.79998779297</ele>
        <time>2016-04-20T13:50:15Z</time>
      </trkpt>
      <trkpt lat="43.43663" lon="6.01639">
        <ele>303.20001220703</ele>
        <time>2016-04-20T13:50:17Z</time>
      </trkpt>
      <trkpt lat="43.43661" lon="6.01637">
        <ele>303.39999389648</ele>
        <time>2016-04-20T13:50:18Z</time>
      </trkpt>
      <trkpt lat="43.4366" lon="6.01635">
        <ele>303.39999389648</ele>
        <time>2016-04-20T13:50:19Z</time>
      </trkpt>
      <trkpt lat="43.43657" lon="6.0163">
        <ele>303.39999389648</ele>
        <time>2016-04-20T13:50:21Z</time>
      </trkpt>
      <trkpt lat="43.43655" lon="6.01628">
        <ele>303.60000610352</ele>
        <time>2016-04-20T13:50:22Z</time>
      </trkpt>
      <trkpt lat="43.43653" lon="6.01625">
        <ele>303.60000610352</ele>
        <time>2016-04-20T13:50:23Z</time>
      </trkpt>
      <trkpt lat="43.4365" lon="6.01619">
        <ele>303.79998779297</ele>
        <time>2016-04-20T13:50:25Z</time>
      </trkpt>
      <trkpt lat="43.43647" lon="6.01613">
        <ele>303.79998779297</ele>
        <time>2016-04-20T13:50:27Z</time>
      </trkpt>
      <trkpt lat="43.43644" lon="6.01607">
        <ele>303.60000610352</ele>
        <time>2016-04-20T13:50:29Z</time>
      </trkpt>
      <trkpt lat="43.43641" lon="6.01601">
        <ele>303.79998779297</ele>
        <time>2016-04-20T13:50:31Z</time>
      </trkpt>
      <trkpt lat="43.43639" lon="6.01594">
        <ele>303.79998779297</ele>
        <time>2016-04-20T13:50:33Z</time>
      </trkpt>
      <trkpt lat="43.43636" lon="6.01588">
        <ele>303.79998779297</ele>
        <time>2016-04-20T13:50:35Z</time>
      </trkpt>
      <trkpt lat="43.43633" lon="6.01584">
        <ele>303.79998779297</ele>
        <time>2016-04-20T13:50:37Z</time>
      </trkpt>
      <trkpt lat="43.43629" lon="6.0158">
        <ele>304</ele>
        <time>2016-04-20T13:50:39Z</time>
      </trkpt>
      <trkpt lat="43.43626" lon="6.01576">
        <ele>304.20001220703</ele>
        <time>2016-04-20T13:50:41Z</time>
      </trkpt>
      <trkpt lat="43.43623" lon="6.01572">
        <ele>304.20001220703</ele>
        <time>2016-04-20T13:50:43Z</time>
      </trkpt>
      <trkpt lat="43.43621" lon="6.0157">
        <ele>304.20001220703</ele>
        <time>2016-04-20T13:50:44Z</time>
      </trkpt>
      <trkpt lat="43.4362" lon="6.01568">
        <ele>304.39999389648</ele>
        <time>2016-04-20T13:50:45Z</time>
      </trkpt>
      <trkpt lat="43.43615" lon="6.01565">
        <ele>304.60000610352</ele>
        <time>2016-04-20T13:50:47Z</time>
      </trkpt>
      <trkpt lat="43.43613" lon="6.01562">
        <ele>304.79998779297</ele>
        <time>2016-04-20T13:50:48Z</time>
      </trkpt>
      <trkpt lat="43.4361" lon="6.01561">
        <ele>305</ele>
        <time>2016-04-20T13:50:49Z</time>
      </trkpt>
      <trkpt lat="43.43605" lon="6.01558">
        <ele>305.20001220703</ele>
        <time>2016-04-20T13:50:51Z</time>
      </trkpt>
      <trkpt lat="43.43601" lon="6.01556">
        <ele>305.39999389648</ele>
        <time>2016-04-20T13:50:53Z</time>
      </trkpt>
      <trkpt lat="43.43597" lon="6.01554">
        <ele>305.60000610352</ele>
        <time>2016-04-20T13:50:55Z</time>
      </trkpt>
      <trkpt lat="43.43593" lon="6.01553">
        <ele>305.79998779297</ele>
        <time>2016-04-20T13:50:57Z</time>
      </trkpt>
      <trkpt lat="43.4359" lon="6.01553">
        <ele>306.20001220703</ele>
        <time>2016-04-20T13:50:58Z</time>
      </trkpt>
      <trkpt lat="43.43588" lon="6.01552">
        <ele>306.60000610352</ele>
        <time>2016-04-20T13:50:59Z</time>
      </trkpt>
      <trkpt lat="43.43583" lon="6.01552">
        <ele>306.79998779297</ele>
        <time>2016-04-20T13:51:01Z</time>
      </trkpt>
      <trkpt lat="43.43581" lon="6.01552">
        <ele>307</ele>
        <time>2016-04-20T13:51:02Z</time>
      </trkpt>
      <trkpt lat="43.43579" lon="6.01552">
        <ele>307</ele>
        <time>2016-04-20T13:51:03Z</time>
      </trkpt>
      <trkpt lat="43.43574" lon="6.01551">
        <ele>307.20001220703</ele>
        <time>2016-04-20T13:51:05Z</time>
      </trkpt>
      <trkpt lat="43.43569" lon="6.0155">
        <ele>307.60000610352</ele>
        <time>2016-04-20T13:51:07Z</time>
      </trkpt>
      <trkpt lat="43.43565" lon="6.01549">
        <ele>308</ele>
        <time>2016-04-20T13:51:09Z</time>
      </trkpt>
      <trkpt lat="43.4356" lon="6.01548">
        <ele>308.20001220703</ele>
        <time>2016-04-20T13:51:11Z</time>
      </trkpt>
      <trkpt lat="43.43558" lon="6.01548">
        <ele>308.20001220703</ele>
        <time>2016-04-20T13:51:12Z</time>
      </trkpt>
      <trkpt lat="43.43555" lon="6.01547">
        <ele>308.39999389648</ele>
        <time>2016-04-20T13:51:13Z</time>
      </trkpt>
      <trkpt lat="43.43551" lon="6.01546">
        <ele>308.60000610352</ele>
        <time>2016-04-20T13:51:15Z</time>
      </trkpt>
      <trkpt lat="43.43546" lon="6.01546">
        <ele>308.79998779297</ele>
        <time>2016-04-20T13:51:17Z</time>
      </trkpt>
      <trkpt lat="43.43542" lon="6.01545">
        <ele>309</ele>
        <time>2016-04-20T13:51:19Z</time>
      </trkpt>
      <trkpt lat="43.43537" lon="6.01544">
        <ele>309.20001220703</ele>
        <time>2016-04-20T13:51:21Z</time>
      </trkpt>
      <trkpt lat="43.43533" lon="6.01541">
        <ele>309.20001220703</ele>
        <time>2016-04-20T13:51:23Z</time>
      </trkpt>
      <trkpt lat="43.43528" lon="6.01539">
        <ele>309.39999389648</ele>
        <time>2016-04-20T13:51:25Z</time>
      </trkpt>
      <trkpt lat="43.43524" lon="6.01536">
        <ele>310</ele>
        <time>2016-04-20T13:51:27Z</time>
      </trkpt>
      <trkpt lat="43.43521" lon="6.01535">
        <ele>310.20001220703</ele>
        <time>2016-04-20T13:51:28Z</time>
      </trkpt>
      <trkpt lat="43.43519" lon="6.01534">
        <ele>310.20001220703</ele>
        <time>2016-04-20T13:51:29Z</time>
      </trkpt>
      <trkpt lat="43.43514" lon="6.01533">
        <ele>310.20001220703</ele>
        <time>2016-04-20T13:51:31Z</time>
      </trkpt>
      <trkpt lat="43.43512" lon="6.01533">
        <ele>310.20001220703</ele>
        <time>2016-04-20T13:51:32Z</time>
      </trkpt>
      <trkpt lat="43.4351" lon="6.01533">
        <ele>310.20001220703</ele>
        <time>2016-04-20T13:51:33Z</time>
      </trkpt>
      <trkpt lat="43.43506" lon="6.01534">
        <ele>310.39999389648</ele>
        <time>2016-04-20T13:51:35Z</time>
      </trkpt>
      <trkpt lat="43.43502" lon="6.01535">
        <ele>310.60000610352</ele>
        <time>2016-04-20T13:51:37Z</time>
      </trkpt>
      <trkpt lat="43.43501" lon="6.01535">
        <ele>310.79998779297</ele>
        <time>2016-04-20T13:51:38Z</time>
      </trkpt>
      <trkpt lat="43.43499" lon="6.01536">
        <ele>310.79998779297</ele>
        <time>2016-04-20T13:51:39Z</time>
      </trkpt>
      <trkpt lat="43.43496" lon="6.01538">
        <ele>311.20001220703</ele>
        <time>2016-04-20T13:51:41Z</time>
      </trkpt>
      <trkpt lat="43.43494" lon="6.01538">
        <ele>311.39999389648</ele>
        <time>2016-04-20T13:51:42Z</time>
      </trkpt>
      <trkpt lat="43.43493" lon="6.01538">
        <ele>311.60000610352</ele>
        <time>2016-04-20T13:51:43Z</time>
      </trkpt>
      <trkpt lat="43.43492" lon="6.01537">
        <ele>311.79998779297</ele>
        <time>2016-04-20T13:51:44Z</time>
      </trkpt>
      <trkpt lat="43.4349" lon="6.01536">
        <ele>312</ele>
        <time>2016-04-20T13:51:45Z</time>
      </trkpt>
      <trkpt lat="43.43487" lon="6.01535">
        <ele>312.39999389648</ele>
        <time>2016-04-20T13:51:47Z</time>
      </trkpt>
      <trkpt lat="43.43484" lon="6.01534">
        <ele>312.60000610352</ele>
        <time>2016-04-20T13:51:49Z</time>
      </trkpt>
      <trkpt lat="43.4348" lon="6.01533">
        <ele>312.79998779297</ele>
        <time>2016-04-20T13:51:51Z</time>
      </trkpt>
      <trkpt lat="43.43477" lon="6.01533">
        <ele>313</ele>
        <time>2016-04-20T13:51:53Z</time>
      </trkpt>
      <trkpt lat="43.43475" lon="6.01531">
        <ele>313</ele>
        <time>2016-04-20T13:51:55Z</time>
      </trkpt>
      <trkpt lat="43.43472" lon="6.01529">
        <ele>313.39999389648</ele>
        <time>2016-04-20T13:51:57Z</time>
      </trkpt>
      <trkpt lat="43.4347" lon="6.01529">
        <ele>313.60000610352</ele>
        <time>2016-04-20T13:51:58Z</time>
      </trkpt>
      <trkpt lat="43.43469" lon="6.01528">
        <ele>313.79998779297</ele>
        <time>2016-04-20T13:51:59Z</time>
      </trkpt>
      <trkpt lat="43.43466" lon="6.01527">
        <ele>314</ele>
        <time>2016-04-20T13:52:01Z</time>
      </trkpt>
      <trkpt lat="43.43463" lon="6.01526">
        <ele>314.20001220703</ele>
        <time>2016-04-20T13:52:03Z</time>
      </trkpt>
      <trkpt lat="43.4346" lon="6.01523">
        <ele>314.39999389648</ele>
        <time>2016-04-20T13:52:05Z</time>
      </trkpt>
      <trkpt lat="43.43459" lon="6.01522">
        <ele>314.39999389648</ele>
        <time>2016-04-20T13:52:06Z</time>
      </trkpt>
      <trkpt lat="43.43457" lon="6.0152">
        <ele>314.39999389648</ele>
        <time>2016-04-20T13:52:07Z</time>
      </trkpt>
      <trkpt lat="43.43456" lon="6.01518">
        <ele>314.39999389648</ele>
        <time>2016-04-20T13:52:08Z</time>
      </trkpt>
      <trkpt lat="43.43455" lon="6.01516">
        <ele>314.39999389648</ele>
        <time>2016-04-20T13:52:09Z</time>
      </trkpt>
      <trkpt lat="43.43454" lon="6.01513">
        <ele>314.39999389648</ele>
        <time>2016-04-20T13:52:11Z</time>
      </trkpt>
      <trkpt lat="43.43453" lon="6.01508">
        <ele>314.39999389648</ele>
        <time>2016-04-20T13:52:13Z</time>
      </trkpt>
      <trkpt lat="43.43452" lon="6.01506">
        <ele>314.79998779297</ele>
        <time>2016-04-20T13:52:14Z</time>
      </trkpt>
      <trkpt lat="43.43452" lon="6.01504">
        <ele>315</ele>
        <time>2016-04-20T13:52:15Z</time>
      </trkpt>
      <trkpt lat="43.43451" lon="6.01499">
        <ele>315.20001220703</ele>
        <time>2016-04-20T13:52:17Z</time>
      </trkpt>
      <trkpt lat="43.43449" lon="6.01494">
        <ele>315.39999389648</ele>
        <time>2016-04-20T13:52:19Z</time>
      </trkpt>
      <trkpt lat="43.43447" lon="6.01489">
        <ele>315.20001220703</ele>
        <time>2016-04-20T13:52:21Z</time>
      </trkpt>
      <trkpt lat="43.43446" lon="6.01485">
        <ele>315.60000610352</ele>
        <time>2016-04-20T13:52:23Z</time>
      </trkpt>
      <trkpt lat="43.43445" lon="6.0148">
        <ele>315.79998779297</ele>
        <time>2016-04-20T13:52:25Z</time>
      </trkpt>
      <trkpt lat="43.43443" lon="6.01475">
        <ele>316</ele>
        <time>2016-04-20T13:52:27Z</time>
      </trkpt>
      <trkpt lat="43.43439" lon="6.01471">
        <ele>316</ele>
        <time>2016-04-20T13:52:29Z</time>
      </trkpt>
      <trkpt lat="43.43437" lon="6.01468">
        <ele>316.39999389648</ele>
        <time>2016-04-20T13:52:31Z</time>
      </trkpt>
      <trkpt lat="43.43437" lon="6.01464">
        <ele>316.60000610352</ele>
        <time>2016-04-20T13:52:33Z</time>
      </trkpt>
      <trkpt lat="43.43436" lon="6.01463">
        <ele>316.79998779297</ele>
        <time>2016-04-20T13:52:34Z</time>
      </trkpt>
      <trkpt lat="43.43436" lon="6.01463">
        <ele>316.79998779297</ele>
        <time>2016-04-20T13:52:35Z</time>
      </trkpt>
      <trkpt lat="43.43436" lon="6.01463">
        <ele>317</ele>
        <time>2016-04-20T13:52:37Z</time>
      </trkpt>
      <trkpt lat="43.43436" lon="6.01462">
        <ele>317</ele>
        <time>2016-04-20T13:52:39Z</time>
      </trkpt>
      <trkpt lat="43.43436" lon="6.01459">
        <ele>317</ele>
        <time>2016-04-20T13:52:41Z</time>
      </trkpt>
      <trkpt lat="43.43436" lon="6.01457">
        <ele>317</ele>
        <time>2016-04-20T13:52:42Z</time>
      </trkpt>
      <trkpt lat="43.43436" lon="6.01453">
        <ele>317</ele>
        <time>2016-04-20T13:52:43Z</time>
      </trkpt>
      <trkpt lat="43.43436" lon="6.01447">
        <ele>317</ele>
        <time>2016-04-20T13:52:45Z</time>
      </trkpt>
      <trkpt lat="43.43437" lon="6.01442">
        <ele>317.20001220703</ele>
        <time>2016-04-20T13:52:47Z</time>
      </trkpt>
      <trkpt lat="43.43438" lon="6.01437">
        <ele>317.39999389648</ele>
        <time>2016-04-20T13:52:49Z</time>
      </trkpt>
      <trkpt lat="43.43439" lon="6.01432">
        <ele>317.79998779297</ele>
        <time>2016-04-20T13:52:51Z</time>
      </trkpt>
      <trkpt lat="43.43438" lon="6.01427">
        <ele>317.79998779297</ele>
        <time>2016-04-20T13:52:53Z</time>
      </trkpt>
      <trkpt lat="43.43437" lon="6.01424">
        <ele>318</ele>
        <time>2016-04-20T13:52:54Z</time>
      </trkpt>
      <trkpt lat="43.43437" lon="6.01422">
        <ele>318.20001220703</ele>
        <time>2016-04-20T13:52:55Z</time>
      </trkpt>
      <trkpt lat="43.43437" lon="6.01417">
        <ele>318.79998779297</ele>
        <time>2016-04-20T13:52:57Z</time>
      </trkpt>
      <trkpt lat="43.43437" lon="6.01412">
        <ele>319</ele>
        <time>2016-04-20T13:52:59Z</time>
      </trkpt>
      <trkpt lat="43.43436" lon="6.01407">
        <ele>319.39999389648</ele>
        <time>2016-04-20T13:53:01Z</time>
      </trkpt>
      <trkpt lat="43.43436" lon="6.01404">
        <ele>319.60000610352</ele>
        <time>2016-04-20T13:53:02Z</time>
      </trkpt>
      <trkpt lat="43.43435" lon="6.01401">
        <ele>319.79998779297</ele>
        <time>2016-04-20T13:53:03Z</time>
      </trkpt>
      <trkpt lat="43.43435" lon="6.01395">
        <ele>320</ele>
        <time>2016-04-20T13:53:05Z</time>
      </trkpt>
      <trkpt lat="43.43433" lon="6.0139">
        <ele>320.39999389648</ele>
        <time>2016-04-20T13:53:07Z</time>
      </trkpt>
      <trkpt lat="43.43432" lon="6.01387">
        <ele>320.60000610352</ele>
        <time>2016-04-20T13:53:08Z</time>
      </trkpt>
      <trkpt lat="43.43432" lon="6.01384">
        <ele>320.79998779297</ele>
        <time>2016-04-20T13:53:09Z</time>
      </trkpt>
      <trkpt lat="43.43431" lon="6.01381">
        <ele>320.79998779297</ele>
        <time>2016-04-20T13:53:10Z</time>
      </trkpt>
      <trkpt lat="43.43431" lon="6.01378">
        <ele>321</ele>
        <time>2016-04-20T13:53:11Z</time>
      </trkpt>
      <trkpt lat="43.4343" lon="6.01372">
        <ele>321.20001220703</ele>
        <time>2016-04-20T13:53:13Z</time>
      </trkpt>
      <trkpt lat="43.4343" lon="6.01366">
        <ele>321.20001220703</ele>
        <time>2016-04-20T13:53:15Z</time>
      </trkpt>
      <trkpt lat="43.43429" lon="6.01361">
        <ele>321.20001220703</ele>
        <time>2016-04-20T13:53:17Z</time>
      </trkpt>
      <trkpt lat="43.43427" lon="6.01356">
        <ele>321.20001220703</ele>
        <time>2016-04-20T13:53:19Z</time>
      </trkpt>
      <trkpt lat="43.43426" lon="6.01351">
        <ele>321.79998779297</ele>
        <time>2016-04-20T13:53:21Z</time>
      </trkpt>
      <trkpt lat="43.43425" lon="6.01349">
        <ele>322</ele>
        <time>2016-04-20T13:53:22Z</time>
      </trkpt>
      <trkpt lat="43.43425" lon="6.01347">
        <ele>322</ele>
        <time>2016-04-20T13:53:23Z</time>
      </trkpt>
      <trkpt lat="43.43425" lon="6.01343">
        <ele>322.20001220703</ele>
        <time>2016-04-20T13:53:25Z</time>
      </trkpt>
      <trkpt lat="43.43426" lon="6.01339">
        <ele>322.20001220703</ele>
        <time>2016-04-20T13:53:27Z</time>
      </trkpt>
      <trkpt lat="43.43427" lon="6.01336">
        <ele>322.39999389648</ele>
        <time>2016-04-20T13:53:29Z</time>
      </trkpt>
      <trkpt lat="43.43429" lon="6.01333">
        <ele>322.60000610352</ele>
        <time>2016-04-20T13:53:31Z</time>
      </trkpt>
      <trkpt lat="43.43432" lon="6.01331">
        <ele>322.79998779297</ele>
        <time>2016-04-20T13:53:33Z</time>
      </trkpt>
      <trkpt lat="43.43433" lon="6.0133">
        <ele>322.79998779297</ele>
        <time>2016-04-20T13:53:34Z</time>
      </trkpt>
      <trkpt lat="43.43434" lon="6.01328">
        <ele>323</ele>
        <time>2016-04-20T13:53:35Z</time>
      </trkpt>
      <trkpt lat="43.43436" lon="6.01326">
        <ele>323.60000610352</ele>
        <time>2016-04-20T13:53:37Z</time>
      </trkpt>
      <trkpt lat="43.43437" lon="6.01325">
        <ele>324.20001220703</ele>
        <time>2016-04-20T13:53:38Z</time>
      </trkpt>
      <trkpt lat="43.43438" lon="6.01323">
        <ele>324.39999389648</ele>
        <time>2016-04-20T13:53:39Z</time>
      </trkpt>
      <trkpt lat="43.43439" lon="6.01322">
        <ele>324.60000610352</ele>
        <time>2016-04-20T13:53:40Z</time>
      </trkpt>
      <trkpt lat="43.43441" lon="6.01321">
        <ele>324.79998779297</ele>
        <time>2016-04-20T13:53:41Z</time>
      </trkpt>
      <trkpt lat="43.43442" lon="6.0132">
        <ele>325</ele>
        <time>2016-04-20T13:53:42Z</time>
      </trkpt>
      <trkpt lat="43.43443" lon="6.01318">
        <ele>325.39999389648</ele>
        <time>2016-04-20T13:53:43Z</time>
      </trkpt>
      <trkpt lat="43.43444" lon="6.01315">
        <ele>325.79998779297</ele>
        <time>2016-04-20T13:53:45Z</time>
      </trkpt>
      <trkpt lat="43.43446" lon="6.0131">
        <ele>326</ele>
        <time>2016-04-20T13:53:47Z</time>
      </trkpt>
      <trkpt lat="43.43447" lon="6.01308">
        <ele>326.39999389648</ele>
        <time>2016-04-20T13:53:48Z</time>
      </trkpt>
      <trkpt lat="43.43447" lon="6.01306">
        <ele>326.39999389648</ele>
        <time>2016-04-20T13:53:49Z</time>
      </trkpt>
      <trkpt lat="43.43448" lon="6.01304">
        <ele>326.60000610352</ele>
        <time>2016-04-20T13:53:50Z</time>
      </trkpt>
      <trkpt lat="43.43449" lon="6.01302">
        <ele>326.79998779297</ele>
        <time>2016-04-20T13:53:51Z</time>
      </trkpt>
      <trkpt lat="43.43451" lon="6.01299">
        <ele>327</ele>
        <time>2016-04-20T13:53:53Z</time>
      </trkpt>
      <trkpt lat="43.43453" lon="6.01297">
        <ele>327.20001220703</ele>
        <time>2016-04-20T13:53:55Z</time>
      </trkpt>
      <trkpt lat="43.43454" lon="6.01295">
        <ele>327.39999389648</ele>
        <time>2016-04-20T13:53:56Z</time>
      </trkpt>
      <trkpt lat="43.43454" lon="6.01294">
        <ele>327.60000610352</ele>
        <time>2016-04-20T13:53:57Z</time>
      </trkpt>
      <trkpt lat="43.43456" lon="6.0129">
        <ele>327.79998779297</ele>
        <time>2016-04-20T13:53:59Z</time>
      </trkpt>
      <trkpt lat="43.43457" lon="6.01286">
        <ele>328</ele>
        <time>2016-04-20T13:54:01Z</time>
      </trkpt>
      <trkpt lat="43.43457" lon="6.01284">
        <ele>328</ele>
        <time>2016-04-20T13:54:02Z</time>
      </trkpt>
      <trkpt lat="43.43457" lon="6.01282">
        <ele>328.20001220703</ele>
        <time>2016-04-20T13:54:03Z</time>
      </trkpt>
      <trkpt lat="43.43457" lon="6.0128">
        <ele>328.39999389648</ele>
        <time>2016-04-20T13:54:04Z</time>
      </trkpt>
      <trkpt lat="43.43457" lon="6.01278">
        <ele>328.60000610352</ele>
        <time>2016-04-20T13:54:05Z</time>
      </trkpt>
      <trkpt lat="43.43457" lon="6.01274">
        <ele>329</ele>
        <time>2016-04-20T13:54:07Z</time>
      </trkpt>
      <trkpt lat="43.43457" lon="6.0127">
        <ele>329.39999389648</ele>
        <time>2016-04-20T13:54:09Z</time>
      </trkpt>
      <trkpt lat="43.43457" lon="6.01268">
        <ele>329.39999389648</ele>
        <time>2016-04-20T13:54:10Z</time>
      </trkpt>
      <trkpt lat="43.43458" lon="6.01267">
        <ele>329.60000610352</ele>
        <time>2016-04-20T13:54:11Z</time>
      </trkpt>
      <trkpt lat="43.43459" lon="6.01263">
        <ele>330</ele>
        <time>2016-04-20T13:54:13Z</time>
      </trkpt>
      <trkpt lat="43.4346" lon="6.0126">
        <ele>330.39999389648</ele>
        <time>2016-04-20T13:54:15Z</time>
      </trkpt>
      <trkpt lat="43.4346" lon="6.01258">
        <ele>330.39999389648</ele>
        <time>2016-04-20T13:54:16Z</time>
      </trkpt>
      <trkpt lat="43.43461" lon="6.01256">
        <ele>330.60000610352</ele>
        <time>2016-04-20T13:54:17Z</time>
      </trkpt>
      <trkpt lat="43.43463" lon="6.01253">
        <ele>330.79998779297</ele>
        <time>2016-04-20T13:54:19Z</time>
      </trkpt>
      <trkpt lat="43.43464" lon="6.01251">
        <ele>330.79998779297</ele>
        <time>2016-04-20T13:54:20Z</time>
      </trkpt>
      <trkpt lat="43.43465" lon="6.01251">
        <ele>330.79998779297</ele>
        <time>2016-04-20T13:54:21Z</time>
      </trkpt>
      <trkpt lat="43.43466" lon="6.0125">
        <ele>330.79998779297</ele>
        <time>2016-04-20T13:54:22Z</time>
      </trkpt>
      <trkpt lat="43.43466" lon="6.01249">
        <ele>330.79998779297</ele>
        <time>2016-04-20T13:54:23Z</time>
      </trkpt>
      <trkpt lat="43.43467" lon="6.01249">
        <ele>331.20001220703</ele>
        <time>2016-04-20T13:54:25Z</time>
      </trkpt>
      <trkpt lat="43.43467" lon="6.01249">
        <ele>331.39999389648</ele>
        <time>2016-04-20T13:54:27Z</time>
      </trkpt>
      <trkpt lat="43.43467" lon="6.01249">
        <ele>331.39999389648</ele>
        <time>2016-04-20T13:54:28Z</time>
      </trkpt>
      <trkpt lat="43.43467" lon="6.01249">
        <ele>331.39999389648</ele>
        <time>2016-04-20T13:54:29Z</time>
      </trkpt>
      <trkpt lat="43.43467" lon="6.01249">
        <ele>331.39999389648</ele>
        <time>2016-04-20T13:54:31Z</time>
      </trkpt>
      <trkpt lat="43.43467" lon="6.01249">
        <ele>331.39999389648</ele>
        <time>2016-04-20T13:54:33Z</time>
      </trkpt>
      <trkpt lat="43.43467" lon="6.01249">
        <ele>331.39999389648</ele>
        <time>2016-04-20T13:54:35Z</time>
      </trkpt>
      <trkpt lat="43.43467" lon="6.01249">
        <ele>331.60000610352</ele>
        <time>2016-04-20T13:54:37Z</time>
      </trkpt>
      <trkpt lat="43.43467" lon="6.01249">
        <ele>331.60000610352</ele>
        <time>2016-04-20T13:54:39Z</time>
      </trkpt>
      <trkpt lat="43.43469" lon="6.01247">
        <ele>331.60000610352</ele>
        <time>2016-04-20T13:54:41Z</time>
      </trkpt>
      <trkpt lat="43.43472" lon="6.01244">
        <ele>331.39999389648</ele>
        <time>2016-04-20T13:54:43Z</time>
      </trkpt>
      <trkpt lat="43.43474" lon="6.0124">
        <ele>331.39999389648</ele>
        <time>2016-04-20T13:54:45Z</time>
      </trkpt>
      <trkpt lat="43.43477" lon="6.01235">
        <ele>331.60000610352</ele>
        <time>2016-04-20T13:54:47Z</time>
      </trkpt>
      <trkpt lat="43.43478" lon="6.01233">
        <ele>331.79998779297</ele>
        <time>2016-04-20T13:54:48Z</time>
      </trkpt>
      <trkpt lat="43.43478" lon="6.01231">
        <ele>331.79998779297</ele>
        <time>2016-04-20T13:54:49Z</time>
      </trkpt>
      <trkpt lat="43.43479" lon="6.01229">
        <ele>331.79998779297</ele>
        <time>2016-04-20T13:54:50Z</time>
      </trkpt>
      <trkpt lat="43.4348" lon="6.01227">
        <ele>332</ele>
        <time>2016-04-20T13:54:51Z</time>
      </trkpt>
      <trkpt lat="43.4348" lon="6.01222">
        <ele>332.20001220703</ele>
        <time>2016-04-20T13:54:53Z</time>
      </trkpt>
      <trkpt lat="43.4348" lon="6.0122">
        <ele>332.39999389648</ele>
        <time>2016-04-20T13:54:54Z</time>
      </trkpt>
      <trkpt lat="43.43481" lon="6.01217">
        <ele>332.39999389648</ele>
        <time>2016-04-20T13:54:55Z</time>
      </trkpt>
      <trkpt lat="43.4348" lon="6.01212">
        <ele>332.60000610352</ele>
        <time>2016-04-20T13:54:57Z</time>
      </trkpt>
      <trkpt lat="43.4348" lon="6.01206">
        <ele>332.60000610352</ele>
        <time>2016-04-20T13:54:59Z</time>
      </trkpt>
      <trkpt lat="43.4348" lon="6.012">
        <ele>333.20001220703</ele>
        <time>2016-04-20T13:55:01Z</time>
      </trkpt>
      <trkpt lat="43.4348" lon="6.01197">
        <ele>333.39999389648</ele>
        <time>2016-04-20T13:55:02Z</time>
      </trkpt>
      <trkpt lat="43.4348" lon="6.01194">
        <ele>333.60000610352</ele>
        <time>2016-04-20T13:55:03Z</time>
      </trkpt>
      <trkpt lat="43.43481" lon="6.01188">
        <ele>333.79998779297</ele>
        <time>2016-04-20T13:55:05Z</time>
      </trkpt>
      <trkpt lat="43.43481" lon="6.01182">
        <ele>334</ele>
        <time>2016-04-20T13:55:07Z</time>
      </trkpt>
      <trkpt lat="43.4348" lon="6.01176">
        <ele>334</ele>
        <time>2016-04-20T13:55:09Z</time>
      </trkpt>
      <trkpt lat="43.4348" lon="6.01173">
        <ele>334.20001220703</ele>
        <time>2016-04-20T13:55:10Z</time>
      </trkpt>
      <trkpt lat="43.4348" lon="6.0117">
        <ele>334.39999389648</ele>
        <time>2016-04-20T13:55:11Z</time>
      </trkpt>
      <trkpt lat="43.43479" lon="6.01163">
        <ele>335.20001220703</ele>
        <time>2016-04-20T13:55:13Z</time>
      </trkpt>
      <trkpt lat="43.4348" lon="6.01157">
        <ele>335.79998779297</ele>
        <time>2016-04-20T13:55:15Z</time>
      </trkpt>
      <trkpt lat="43.4348" lon="6.01154">
        <ele>335.79998779297</ele>
        <time>2016-04-20T13:55:16Z</time>
      </trkpt>
      <trkpt lat="43.43481" lon="6.01151">
        <ele>335.79998779297</ele>
        <time>2016-04-20T13:55:17Z</time>
      </trkpt>
      <trkpt lat="43.43483" lon="6.01146">
        <ele>335.79998779297</ele>
        <time>2016-04-20T13:55:19Z</time>
      </trkpt>
      <trkpt lat="43.43485" lon="6.01141">
        <ele>336</ele>
        <time>2016-04-20T13:55:21Z</time>
      </trkpt>
      <trkpt lat="43.43488" lon="6.01136">
        <ele>336</ele>
        <time>2016-04-20T13:55:23Z</time>
      </trkpt>
      <trkpt lat="43.4349" lon="6.01132">
        <ele>336.39999389648</ele>
        <time>2016-04-20T13:55:25Z</time>
      </trkpt>
      <trkpt lat="43.43492" lon="6.01126">
        <ele>336.60000610352</ele>
        <time>2016-04-20T13:55:27Z</time>
      </trkpt>
      <trkpt lat="43.43494" lon="6.01121">
        <ele>337</ele>
        <time>2016-04-20T13:55:29Z</time>
      </trkpt>
      <trkpt lat="43.43497" lon="6.01117">
        <ele>337.20001220703</ele>
        <time>2016-04-20T13:55:31Z</time>
      </trkpt>
      <trkpt lat="43.43499" lon="6.01111">
        <ele>337.39999389648</ele>
        <time>2016-04-20T13:55:33Z</time>
      </trkpt>
      <trkpt lat="43.435" lon="6.01109">
        <ele>337.39999389648</ele>
        <time>2016-04-20T13:55:34Z</time>
      </trkpt>
      <trkpt lat="43.43501" lon="6.01106">
        <ele>337.39999389648</ele>
        <time>2016-04-20T13:55:35Z</time>
      </trkpt>
      <trkpt lat="43.43503" lon="6.01101">
        <ele>337.79998779297</ele>
        <time>2016-04-20T13:55:37Z</time>
      </trkpt>
      <trkpt lat="43.43504" lon="6.01095">
        <ele>338.39999389648</ele>
        <time>2016-04-20T13:55:39Z</time>
      </trkpt>
      <trkpt lat="43.43505" lon="6.01089">
        <ele>338.60000610352</ele>
        <time>2016-04-20T13:55:41Z</time>
      </trkpt>
      <trkpt lat="43.43505" lon="6.01086">
        <ele>338.79998779297</ele>
        <time>2016-04-20T13:55:42Z</time>
      </trkpt>
      <trkpt lat="43.43505" lon="6.01083">
        <ele>338.79998779297</ele>
        <time>2016-04-20T13:55:43Z</time>
      </trkpt>
      <trkpt lat="43.43505" lon="6.01077">
        <ele>339</ele>
        <time>2016-04-20T13:55:45Z</time>
      </trkpt>
      <trkpt lat="43.43504" lon="6.01071">
        <ele>339.20001220703</ele>
        <time>2016-04-20T13:55:47Z</time>
      </trkpt>
      <trkpt lat="43.43503" lon="6.01065">
        <ele>339.39999389648</ele>
        <time>2016-04-20T13:55:49Z</time>
      </trkpt>
      <trkpt lat="43.43502" lon="6.01062">
        <ele>339.60000610352</ele>
        <time>2016-04-20T13:55:50Z</time>
      </trkpt>
      <trkpt lat="43.43502" lon="6.01059">
        <ele>339.79998779297</ele>
        <time>2016-04-20T13:55:51Z</time>
      </trkpt>
      <trkpt lat="43.43501" lon="6.01054">
        <ele>340.20001220703</ele>
        <time>2016-04-20T13:55:53Z</time>
      </trkpt>
      <trkpt lat="43.435" lon="6.01048">
        <ele>340.39999389648</ele>
        <time>2016-04-20T13:55:55Z</time>
      </trkpt>
      <trkpt lat="43.43499" lon="6.01042">
        <ele>340.39999389648</ele>
        <time>2016-04-20T13:55:57Z</time>
      </trkpt>
      <trkpt lat="43.43499" lon="6.01037">
        <ele>340.39999389648</ele>
        <time>2016-04-20T13:55:59Z</time>
      </trkpt>
      <trkpt lat="43.43499" lon="6.01034">
        <ele>340.60000610352</ele>
        <time>2016-04-20T13:56:00Z</time>
      </trkpt>
      <trkpt lat="43.43499" lon="6.01031">
        <ele>340.79998779297</ele>
        <time>2016-04-20T13:56:01Z</time>
      </trkpt>
      <trkpt lat="43.43499" lon="6.01026">
        <ele>341</ele>
        <time>2016-04-20T13:56:03Z</time>
      </trkpt>
      <trkpt lat="43.43498" lon="6.01021">
        <ele>341.60000610352</ele>
        <time>2016-04-20T13:56:05Z</time>
      </trkpt>
      <trkpt lat="43.43497" lon="6.01016">
        <ele>341.79998779297</ele>
        <time>2016-04-20T13:56:07Z</time>
      </trkpt>
      <trkpt lat="43.43497" lon="6.01013">
        <ele>342</ele>
        <time>2016-04-20T13:56:08Z</time>
      </trkpt>
      <trkpt lat="43.43497" lon="6.01011">
        <ele>342.20001220703</ele>
        <time>2016-04-20T13:56:09Z</time>
      </trkpt>
      <trkpt lat="43.43497" lon="6.01008">
        <ele>342.60000610352</ele>
        <time>2016-04-20T13:56:10Z</time>
      </trkpt>
      <trkpt lat="43.43497" lon="6.01006">
        <ele>342.60000610352</ele>
        <time>2016-04-20T13:56:11Z</time>
      </trkpt>
      <trkpt lat="43.43498" lon="6.01002">
        <ele>343</ele>
        <time>2016-04-20T13:56:13Z</time>
      </trkpt>
      <trkpt lat="43.43499" lon="6.00998">
        <ele>343.20001220703</ele>
        <time>2016-04-20T13:56:15Z</time>
      </trkpt>
      <trkpt lat="43.435" lon="6.00994">
        <ele>343.39999389648</ele>
        <time>2016-04-20T13:56:17Z</time>
      </trkpt>
      <trkpt lat="43.43501" lon="6.00989">
        <ele>343.39999389648</ele>
        <time>2016-04-20T13:56:19Z</time>
      </trkpt>
      <trkpt lat="43.43501" lon="6.00987">
        <ele>343.60000610352</ele>
        <time>2016-04-20T13:56:20Z</time>
      </trkpt>
      <trkpt lat="43.43502" lon="6.00986">
        <ele>343.79998779297</ele>
        <time>2016-04-20T13:56:21Z</time>
      </trkpt>
      <trkpt lat="43.43503" lon="6.00982">
        <ele>344.20001220703</ele>
        <time>2016-04-20T13:56:23Z</time>
      </trkpt>
      <trkpt lat="43.43504" lon="6.0098">
        <ele>344.60000610352</ele>
        <time>2016-04-20T13:56:24Z</time>
      </trkpt>
      <trkpt lat="43.43504" lon="6.00978">
        <ele>344.79998779297</ele>
        <time>2016-04-20T13:56:25Z</time>
      </trkpt>
      <trkpt lat="43.43504" lon="6.00974">
        <ele>345.60000610352</ele>
        <time>2016-04-20T13:56:27Z</time>
      </trkpt>
      <trkpt lat="43.43505" lon="6.00969">
        <ele>346</ele>
        <time>2016-04-20T13:56:29Z</time>
      </trkpt>
      <trkpt lat="43.43506" lon="6.00965">
        <ele>346.79998779297</ele>
        <time>2016-04-20T13:56:31Z</time>
      </trkpt>
      <trkpt lat="43.43507" lon="6.00961">
        <ele>347.20001220703</ele>
        <time>2016-04-20T13:56:33Z</time>
      </trkpt>
      <trkpt lat="43.43507" lon="6.00957">
        <ele>347.39999389648</ele>
        <time>2016-04-20T13:56:35Z</time>
      </trkpt>
      <trkpt lat="43.43507" lon="6.00953">
        <ele>347.79998779297</ele>
        <time>2016-04-20T13:56:37Z</time>
      </trkpt>
      <trkpt lat="43.43508" lon="6.0095">
        <ele>348</ele>
        <time>2016-04-20T13:56:38Z</time>
      </trkpt>
      <trkpt lat="43.43508" lon="6.00948">
        <ele>348.20001220703</ele>
        <time>2016-04-20T13:56:39Z</time>
      </trkpt>
      <trkpt lat="43.43509" lon="6.00943">
        <ele>348.39999389648</ele>
        <time>2016-04-20T13:56:41Z</time>
      </trkpt>
      <trkpt lat="43.43509" lon="6.00939">
        <ele>348.60000610352</ele>
        <time>2016-04-20T13:56:43Z</time>
      </trkpt>
      <trkpt lat="43.4351" lon="6.00935">
        <ele>348.60000610352</ele>
        <time>2016-04-20T13:56:45Z</time>
      </trkpt>
      <trkpt lat="43.43511" lon="6.00934">
        <ele>349</ele>
        <time>2016-04-20T13:56:46Z</time>
      </trkpt>
      <trkpt lat="43.43511" lon="6.00932">
        <ele>349.20001220703</ele>
        <time>2016-04-20T13:56:47Z</time>
      </trkpt>
      <trkpt lat="43.43511" lon="6.00928">
        <ele>349.39999389648</ele>
        <time>2016-04-20T13:56:49Z</time>
      </trkpt>
      <trkpt lat="43.43512" lon="6.00924">
        <ele>349.79998779297</ele>
        <time>2016-04-20T13:56:51Z</time>
      </trkpt>
      <trkpt lat="43.43512" lon="6.0092">
        <ele>350</ele>
        <time>2016-04-20T13:56:53Z</time>
      </trkpt>
      <trkpt lat="43.43512" lon="6.00916">
        <ele>350.20001220703</ele>
        <time>2016-04-20T13:56:55Z</time>
      </trkpt>
      <trkpt lat="43.43513" lon="6.00912">
        <ele>350.39999389648</ele>
        <time>2016-04-20T13:56:57Z</time>
      </trkpt>
      <trkpt lat="43.43514" lon="6.00909">
        <ele>350.79998779297</ele>
        <time>2016-04-20T13:56:59Z</time>
      </trkpt>
      <trkpt lat="43.43514" lon="6.00905">
        <ele>351</ele>
        <time>2016-04-20T13:57:01Z</time>
      </trkpt>
      <trkpt lat="43.43515" lon="6.00901">
        <ele>351.39999389648</ele>
        <time>2016-04-20T13:57:03Z</time>
      </trkpt>
      <trkpt lat="43.43516" lon="6.00898">
        <ele>351.79998779297</ele>
        <time>2016-04-20T13:57:05Z</time>
      </trkpt>
      <trkpt lat="43.43517" lon="6.00894">
        <ele>352</ele>
        <time>2016-04-20T13:57:07Z</time>
      </trkpt>
      <trkpt lat="43.43518" lon="6.00891">
        <ele>352.20001220703</ele>
        <time>2016-04-20T13:57:09Z</time>
      </trkpt>
      <trkpt lat="43.43519" lon="6.00887">
        <ele>352.39999389648</ele>
        <time>2016-04-20T13:57:11Z</time>
      </trkpt>
      <trkpt lat="43.4352" lon="6.00883">
        <ele>352.60000610352</ele>
        <time>2016-04-20T13:57:13Z</time>
      </trkpt>
      <trkpt lat="43.43521" lon="6.00879">
        <ele>352.79998779297</ele>
        <time>2016-04-20T13:57:15Z</time>
      </trkpt>
      <trkpt lat="43.43522" lon="6.00876">
        <ele>353.20001220703</ele>
        <time>2016-04-20T13:57:17Z</time>
      </trkpt>
      <trkpt lat="43.43523" lon="6.00871">
        <ele>353.20001220703</ele>
        <time>2016-04-20T13:57:19Z</time>
      </trkpt>
      <trkpt lat="43.43524" lon="6.00867">
        <ele>353.20001220703</ele>
        <time>2016-04-20T13:57:21Z</time>
      </trkpt>
      <trkpt lat="43.43525" lon="6.00863">
        <ele>353.20001220703</ele>
        <time>2016-04-20T13:57:23Z</time>
      </trkpt>
      <trkpt lat="43.43526" lon="6.00859">
        <ele>353.60000610352</ele>
        <time>2016-04-20T13:57:25Z</time>
      </trkpt>
      <trkpt lat="43.43526" lon="6.00857">
        <ele>353.60000610352</ele>
        <time>2016-04-20T13:57:26Z</time>
      </trkpt>
      <trkpt lat="43.43527" lon="6.00855">
        <ele>353.79998779297</ele>
        <time>2016-04-20T13:57:27Z</time>
      </trkpt>
      <trkpt lat="43.43528" lon="6.00851">
        <ele>354.20001220703</ele>
        <time>2016-04-20T13:57:29Z</time>
      </trkpt>
      <trkpt lat="43.43529" lon="6.00848">
        <ele>354.39999389648</ele>
        <time>2016-04-20T13:57:30Z</time>
      </trkpt>
      <trkpt lat="43.4353" lon="6.00846">
        <ele>354.79998779297</ele>
        <time>2016-04-20T13:57:31Z</time>
      </trkpt>
      <trkpt lat="43.4353" lon="6.00842">
        <ele>355.39999389648</ele>
        <time>2016-04-20T13:57:33Z</time>
      </trkpt>
      <trkpt lat="43.43531" lon="6.0084">
        <ele>355.39999389648</ele>
        <time>2016-04-20T13:57:34Z</time>
      </trkpt>
      <trkpt lat="43.43531" lon="6.00838">
        <ele>355.79998779297</ele>
        <time>2016-04-20T13:57:35Z</time>
      </trkpt>
      <trkpt lat="43.43531" lon="6.00833">
        <ele>356.20001220703</ele>
        <time>2016-04-20T13:57:37Z</time>
      </trkpt>
      <trkpt lat="43.43532" lon="6.00829">
        <ele>356.39999389648</ele>
        <time>2016-04-20T13:57:39Z</time>
      </trkpt>
      <trkpt lat="43.43532" lon="6.00826">
        <ele>356.39999389648</ele>
        <time>2016-04-20T13:57:41Z</time>
      </trkpt>
      <trkpt lat="43.43533" lon="6.00824">
        <ele>356.60000610352</ele>
        <time>2016-04-20T13:57:42Z</time>
      </trkpt>
      <trkpt lat="43.43533" lon="6.00823">
        <ele>356.79998779297</ele>
        <time>2016-04-20T13:57:43Z</time>
      </trkpt>
      <trkpt lat="43.43533" lon="6.0082">
        <ele>357</ele>
        <time>2016-04-20T13:57:45Z</time>
      </trkpt>
      <trkpt lat="43.43531" lon="6.00819">
        <ele>357</ele>
        <time>2016-04-20T13:57:47Z</time>
      </trkpt>
      <trkpt lat="43.4353" lon="6.00819">
        <ele>357</ele>
        <time>2016-04-20T13:57:48Z</time>
      </trkpt>
      <trkpt lat="43.43529" lon="6.0082">
        <ele>357</ele>
        <time>2016-04-20T13:57:49Z</time>
      </trkpt>
      <trkpt lat="43.43529" lon="6.00822">
        <ele>356.79998779297</ele>
        <time>2016-04-20T13:57:51Z</time>
      </trkpt>
      <trkpt lat="43.43529" lon="6.00824">
        <ele>356.79998779297</ele>
        <time>2016-04-20T13:57:53Z</time>
      </trkpt>
      <trkpt lat="43.4353" lon="6.00824">
        <ele>356.79998779297</ele>
        <time>2016-04-20T13:57:55Z</time>
      </trkpt>
      <trkpt lat="43.4353" lon="6.00824">
        <ele>356.79998779297</ele>
        <time>2016-04-20T13:57:57Z</time>
      </trkpt>
      <trkpt lat="43.4353" lon="6.00824">
        <ele>356.79998779297</ele>
        <time>2016-04-20T13:57:59Z</time>
      </trkpt>
      <trkpt lat="43.4353" lon="6.00824">
        <ele>356.79998779297</ele>
        <time>2016-04-20T13:58:01Z</time>
      </trkpt>
      <trkpt lat="43.4353" lon="6.00824">
        <ele>356.79998779297</ele>
        <time>2016-04-20T13:58:03Z</time>
      </trkpt>
      <trkpt lat="43.4353" lon="6.00824">
        <ele>356.79998779297</ele>
        <time>2016-04-20T13:58:05Z</time>
      </trkpt>
      <trkpt lat="43.4353" lon="6.00824">
        <ele>357</ele>
        <time>2016-04-20T13:58:07Z</time>
      </trkpt>
      <trkpt lat="43.4353" lon="6.00824">
        <ele>357.20001220703</ele>
        <time>2016-04-20T13:58:09Z</time>
      </trkpt>
      <trkpt lat="43.4353" lon="6.00824">
        <ele>357.20001220703</ele>
        <time>2016-04-20T13:58:10Z</time>
      </trkpt>
      <trkpt lat="43.4353" lon="6.00824">
        <ele>357</ele>
        <time>2016-04-20T13:58:11Z</time>
      </trkpt>
      <trkpt lat="43.4353" lon="6.00824">
        <ele>357</ele>
        <time>2016-04-20T13:58:13Z</time>
      </trkpt>
      <trkpt lat="43.4353" lon="6.00824">
        <ele>357</ele>
        <time>2016-04-20T13:58:15Z</time>
      </trkpt>
      <trkpt lat="43.4353" lon="6.00824">
        <ele>357</ele>
        <time>2016-04-20T13:58:17Z</time>
      </trkpt>
      <trkpt lat="43.4353" lon="6.00824">
        <ele>357.20001220703</ele>
        <time>2016-04-20T13:58:19Z</time>
      </trkpt>
      <trkpt lat="43.4353" lon="6.00824">
        <ele>357.20001220703</ele>
        <time>2016-04-20T13:58:21Z</time>
      </trkpt>
      <trkpt lat="43.4353" lon="6.00824">
        <ele>357.39999389648</ele>
        <time>2016-04-20T13:58:23Z</time>
      </trkpt>
      <trkpt lat="43.4353" lon="6.00824">
        <ele>357.39999389648</ele>
        <time>2016-04-20T13:58:25Z</time>
      </trkpt>
      <trkpt lat="43.4353" lon="6.00824">
        <ele>357.39999389648</ele>
        <time>2016-04-20T13:58:27Z</time>
      </trkpt>
      <trkpt lat="43.4353" lon="6.00824">
        <ele>357.20001220703</ele>
        <time>2016-04-20T13:58:29Z</time>
      </trkpt>
      <trkpt lat="43.4353" lon="6.00824">
        <ele>357</ele>
        <time>2016-04-20T13:58:31Z</time>
      </trkpt>
      <trkpt lat="43.4353" lon="6.00824">
        <ele>357</ele>
        <time>2016-04-20T13:58:33Z</time>
      </trkpt>
      <trkpt lat="43.4353" lon="6.00824">
        <ele>357</ele>
        <time>2016-04-20T13:58:35Z</time>
      </trkpt>
      <trkpt lat="43.4353" lon="6.00824">
        <ele>357.20001220703</ele>
        <time>2016-04-20T13:58:37Z</time>
      </trkpt>
      <trkpt lat="43.4353" lon="6.00825">
        <ele>357.20001220703</ele>
        <time>2016-04-20T13:58:38Z</time>
      </trkpt>
      <trkpt lat="43.4353" lon="6.00827">
        <ele>357.20001220703</ele>
        <time>2016-04-20T13:58:39Z</time>
      </trkpt>
      <trkpt lat="43.4353" lon="6.0083">
        <ele>357.20001220703</ele>
        <time>2016-04-20T13:58:40Z</time>
      </trkpt>
      <trkpt lat="43.4353" lon="6.00832">
        <ele>357</ele>
        <time>2016-04-20T13:58:41Z</time>
      </trkpt>
      <trkpt lat="43.43528" lon="6.00836">
        <ele>356.60000610352</ele>
        <time>2016-04-20T13:58:43Z</time>
      </trkpt>
      <trkpt lat="43.43527" lon="6.00841">
        <ele>356.39999389648</ele>
        <time>2016-04-20T13:58:45Z</time>
      </trkpt>
      <trkpt lat="43.43526" lon="6.00843">
        <ele>356.39999389648</ele>
        <time>2016-04-20T13:58:46Z</time>
      </trkpt>
      <trkpt lat="43.43526" lon="6.00845">
        <ele>356.39999389648</ele>
        <time>2016-04-20T13:58:47Z</time>
      </trkpt>
      <trkpt lat="43.43525" lon="6.00851">
        <ele>356.20001220703</ele>
        <time>2016-04-20T13:58:49Z</time>
      </trkpt>
      <trkpt lat="43.43523" lon="6.00859">
        <ele>356.20001220703</ele>
        <time>2016-04-20T13:58:51Z</time>
      </trkpt>
      <trkpt lat="43.4352" lon="6.0087">
        <ele>355.79998779297</ele>
        <time>2016-04-20T13:58:53Z</time>
      </trkpt>
      <trkpt lat="43.43519" lon="6.00876">
        <ele>355</ele>
        <time>2016-04-20T13:58:54Z</time>
      </trkpt>
      <trkpt lat="43.43517" lon="6.00882">
        <ele>354.39999389648</ele>
        <time>2016-04-20T13:58:55Z</time>
      </trkpt>
      <trkpt lat="43.43515" lon="6.0089">
        <ele>354</ele>
        <time>2016-04-20T13:58:56Z</time>
      </trkpt>
      <trkpt lat="43.43513" lon="6.00898">
        <ele>353.60000610352</ele>
        <time>2016-04-20T13:58:57Z</time>
      </trkpt>
      <trkpt lat="43.4351" lon="6.00914">
        <ele>352.39999389648</ele>
        <time>2016-04-20T13:58:59Z</time>
      </trkpt>
      <trkpt lat="43.43508" lon="6.0093">
        <ele>351.79998779297</ele>
        <time>2016-04-20T13:59:01Z</time>
      </trkpt>
      <trkpt lat="43.43507" lon="6.00937">
        <ele>351.60000610352</ele>
        <time>2016-04-20T13:59:02Z</time>
      </trkpt>
      <trkpt lat="43.43505" lon="6.00944">
        <ele>351</ele>
        <time>2016-04-20T13:59:03Z</time>
      </trkpt>
      <trkpt lat="43.43503" lon="6.00956">
        <ele>349.20001220703</ele>
        <time>2016-04-20T13:59:05Z</time>
      </trkpt>
      <trkpt lat="43.435" lon="6.00967">
        <ele>348.20001220703</ele>
        <time>2016-04-20T13:59:07Z</time>
      </trkpt>
      <trkpt lat="43.43499" lon="6.00973">
        <ele>348.20001220703</ele>
        <time>2016-04-20T13:59:08Z</time>
      </trkpt>
      <trkpt lat="43.43497" lon="6.00979">
        <ele>347.79998779297</ele>
        <time>2016-04-20T13:59:09Z</time>
      </trkpt>
      <trkpt lat="43.43494" lon="6.00992">
        <ele>346.79998779297</ele>
        <time>2016-04-20T13:59:11Z</time>
      </trkpt>
      <trkpt lat="43.43493" lon="6.00999">
        <ele>346.39999389648</ele>
        <time>2016-04-20T13:59:12Z</time>
      </trkpt>
      <trkpt lat="43.43492" lon="6.01006">
        <ele>345.20001220703</ele>
        <time>2016-04-20T13:59:13Z</time>
      </trkpt>
      <trkpt lat="43.43493" lon="6.01019">
        <ele>343.39999389648</ele>
        <time>2016-04-20T13:59:15Z</time>
      </trkpt>
      <trkpt lat="43.43493" lon="6.01033">
        <ele>343</ele>
        <time>2016-04-20T13:59:17Z</time>
      </trkpt>
      <trkpt lat="43.43494" lon="6.01041">
        <ele>342.39999389648</ele>
        <time>2016-04-20T13:59:18Z</time>
      </trkpt>
      <trkpt lat="43.43496" lon="6.01048">
        <ele>342</ele>
        <time>2016-04-20T13:59:19Z</time>
      </trkpt>
      <trkpt lat="43.43499" lon="6.01065">
        <ele>341.20001220703</ele>
        <time>2016-04-20T13:59:21Z</time>
      </trkpt>
      <trkpt lat="43.43501" lon="6.01082">
        <ele>340.20001220703</ele>
        <time>2016-04-20T13:59:23Z</time>
      </trkpt>
      <trkpt lat="43.43499" lon="6.01099">
        <ele>339.60000610352</ele>
        <time>2016-04-20T13:59:25Z</time>
      </trkpt>
      <trkpt lat="43.43496" lon="6.01109">
        <ele>339.39999389648</ele>
        <time>2016-04-20T13:59:27Z</time>
      </trkpt>
      <trkpt lat="43.43496" lon="6.0111">
        <ele>339</ele>
        <time>2016-04-20T13:59:28Z</time>
      </trkpt>
      <trkpt lat="43.43496" lon="6.01111">
        <ele>339</ele>
        <time>2016-04-20T13:59:29Z</time>
      </trkpt>
      <trkpt lat="43.43496" lon="6.01111">
        <ele>338.79998779297</ele>
        <time>2016-04-20T13:59:31Z</time>
      </trkpt>
      <trkpt lat="43.43496" lon="6.01111">
        <ele>338.60000610352</ele>
        <time>2016-04-20T13:59:33Z</time>
      </trkpt>
      <trkpt lat="43.43496" lon="6.01111">
        <ele>338.79998779297</ele>
        <time>2016-04-20T13:59:35Z</time>
      </trkpt>
      <trkpt lat="43.43496" lon="6.01111">
        <ele>338.79998779297</ele>
        <time>2016-04-20T13:59:37Z</time>
      </trkpt>
      <trkpt lat="43.43496" lon="6.01111">
        <ele>338.79998779297</ele>
        <time>2016-04-20T13:59:39Z</time>
      </trkpt>
      <trkpt lat="43.43496" lon="6.01111">
        <ele>338.79998779297</ele>
        <time>2016-04-20T13:59:41Z</time>
      </trkpt>
      <trkpt lat="43.43496" lon="6.01111">
        <ele>338.79998779297</ele>
        <time>2016-04-20T13:59:43Z</time>
      </trkpt>
      <trkpt lat="43.43496" lon="6.01111">
        <ele>338.60000610352</ele>
        <time>2016-04-20T13:59:45Z</time>
      </trkpt>
      <trkpt lat="43.43496" lon="6.01111">
        <ele>338.60000610352</ele>
        <time>2016-04-20T13:59:47Z</time>
      </trkpt>
      <trkpt lat="43.43496" lon="6.01111">
        <ele>338.60000610352</ele>
        <time>2016-04-20T13:59:49Z</time>
      </trkpt>
      <trkpt lat="43.43496" lon="6.01111">
        <ele>338.79998779297</ele>
        <time>2016-04-20T13:59:51Z</time>
      </trkpt>
      <trkpt lat="43.43496" lon="6.01111">
        <ele>338.79998779297</ele>
        <time>2016-04-20T13:59:53Z</time>
      </trkpt>
      <trkpt lat="43.43496" lon="6.01111">
        <ele>339</ele>
        <time>2016-04-20T13:59:55Z</time>
      </trkpt>
      <trkpt lat="43.43495" lon="6.01111">
        <ele>338.79998779297</ele>
        <time>2016-04-20T13:59:57Z</time>
      </trkpt>
      <trkpt lat="43.43495" lon="6.01111">
        <ele>338.79998779297</ele>
        <time>2016-04-20T13:59:58Z</time>
      </trkpt>
      <trkpt lat="43.43495" lon="6.01111">
        <ele>338.79998779297</ele>
        <time>2016-04-20T13:59:59Z</time>
      </trkpt>
      <trkpt lat="43.43495" lon="6.01111">
        <ele>338.79998779297</ele>
        <time>2016-04-20T14:00:01Z</time>
      </trkpt>
      <trkpt lat="43.43495" lon="6.01112">
        <ele>338.60000610352</ele>
        <time>2016-04-20T14:00:03Z</time>
      </trkpt>
      <trkpt lat="43.43494" lon="6.01114">
        <ele>338.60000610352</ele>
        <time>2016-04-20T14:00:05Z</time>
      </trkpt>
      <trkpt lat="43.43492" lon="6.01119">
        <ele>338.39999389648</ele>
        <time>2016-04-20T14:00:07Z</time>
      </trkpt>
      <trkpt lat="43.43489" lon="6.01125">
        <ele>338.20001220703</ele>
        <time>2016-04-20T14:00:09Z</time>
      </trkpt>
      <trkpt lat="43.43486" lon="6.01129">
        <ele>338.20001220703</ele>
        <time>2016-04-20T14:00:10Z</time>
      </trkpt>
      <trkpt lat="43.43484" lon="6.01132">
        <ele>338</ele>
        <time>2016-04-20T14:00:11Z</time>
      </trkpt>
      <trkpt lat="43.43482" lon="6.01136">
        <ele>337.79998779297</ele>
        <time>2016-04-20T14:00:12Z</time>
      </trkpt>
      <trkpt lat="43.4348" lon="6.0114">
        <ele>337.60000610352</ele>
        <time>2016-04-20T14:00:13Z</time>
      </trkpt>
      <trkpt lat="43.43478" lon="6.01145">
        <ele>337.39999389648</ele>
        <time>2016-04-20T14:00:14Z</time>
      </trkpt>
      <trkpt lat="43.43476" lon="6.01151">
        <ele>337.20001220703</ele>
        <time>2016-04-20T14:00:15Z</time>
      </trkpt>
      <trkpt lat="43.43476" lon="6.01165">
        <ele>337</ele>
        <time>2016-04-20T14:00:17Z</time>
      </trkpt>
      <trkpt lat="43.43476" lon="6.01172">
        <ele>336.79998779297</ele>
        <time>2016-04-20T14:00:18Z</time>
      </trkpt>
      <trkpt lat="43.43476" lon="6.01179">
        <ele>336.60000610352</ele>
        <time>2016-04-20T14:00:19Z</time>
      </trkpt>
      <trkpt lat="43.43476" lon="6.01195">
        <ele>335</ele>
        <time>2016-04-20T14:00:21Z</time>
      </trkpt>
      <trkpt lat="43.43476" lon="6.01211">
        <ele>334</ele>
        <time>2016-04-20T14:00:23Z</time>
      </trkpt>
      <trkpt lat="43.43476" lon="6.01219">
        <ele>333.79998779297</ele>
        <time>2016-04-20T14:00:24Z</time>
      </trkpt>
      <trkpt lat="43.43475" lon="6.01226">
        <ele>333.60000610352</ele>
        <time>2016-04-20T14:00:25Z</time>
      </trkpt>
      <trkpt lat="43.43469" lon="6.01239">
        <ele>333.60000610352</ele>
        <time>2016-04-20T14:00:27Z</time>
      </trkpt>
      <trkpt lat="43.43465" lon="6.01243">
        <ele>333.60000610352</ele>
        <time>2016-04-20T14:00:28Z</time>
      </trkpt>
      <trkpt lat="43.43461" lon="6.01248">
        <ele>333.20001220703</ele>
        <time>2016-04-20T14:00:29Z</time>
      </trkpt>
      <trkpt lat="43.43459" lon="6.01251">
        <ele>332.60000610352</ele>
        <time>2016-04-20T14:00:30Z</time>
      </trkpt>
      <trkpt lat="43.43458" lon="6.01253">
        <ele>332.20001220703</ele>
        <time>2016-04-20T14:00:31Z</time>
      </trkpt>
      <trkpt lat="43.43457" lon="6.01253">
        <ele>332</ele>
        <time>2016-04-20T14:00:33Z</time>
      </trkpt>
      <trkpt lat="43.43458" lon="6.01254">
        <ele>331.79998779297</ele>
        <time>2016-04-20T14:00:35Z</time>
      </trkpt>
      <trkpt lat="43.43458" lon="6.01254">
        <ele>332</ele>
        <time>2016-04-20T14:00:37Z</time>
      </trkpt>
      <trkpt lat="43.43458" lon="6.01254">
        <ele>332</ele>
        <time>2016-04-20T14:00:39Z</time>
      </trkpt>
      <trkpt lat="43.43458" lon="6.01254">
        <ele>332</ele>
        <time>2016-04-20T14:00:41Z</time>
      </trkpt>
      <trkpt lat="43.43457" lon="6.01254">
        <ele>331.79998779297</ele>
        <time>2016-04-20T14:00:43Z</time>
      </trkpt>
      <trkpt lat="43.43457" lon="6.01254">
        <ele>331.79998779297</ele>
        <time>2016-04-20T14:00:45Z</time>
      </trkpt>
      <trkpt lat="43.43457" lon="6.01254">
        <ele>331.60000610352</ele>
        <time>2016-04-20T14:00:47Z</time>
      </trkpt>
      <trkpt lat="43.43457" lon="6.01255">
        <ele>331.60000610352</ele>
        <time>2016-04-20T14:00:49Z</time>
      </trkpt>
      <trkpt lat="43.43457" lon="6.01257">
        <ele>331.60000610352</ele>
        <time>2016-04-20T14:00:51Z</time>
      </trkpt>
      <trkpt lat="43.43456" lon="6.01258">
        <ele>331.39999389648</ele>
        <time>2016-04-20T14:00:52Z</time>
      </trkpt>
      <trkpt lat="43.43456" lon="6.01259">
        <ele>331.39999389648</ele>
        <time>2016-04-20T14:00:53Z</time>
      </trkpt>
      <trkpt lat="43.43456" lon="6.0126">
        <ele>331.20001220703</ele>
        <time>2016-04-20T14:00:55Z</time>
      </trkpt>
      <trkpt lat="43.43457" lon="6.0126">
        <ele>331</ele>
        <time>2016-04-20T14:00:57Z</time>
      </trkpt>
      <trkpt lat="43.43457" lon="6.0126">
        <ele>331.20001220703</ele>
        <time>2016-04-20T14:00:59Z</time>
      </trkpt>
      <trkpt lat="43.43457" lon="6.0126">
        <ele>331</ele>
        <time>2016-04-20T14:01:01Z</time>
      </trkpt>
      <trkpt lat="43.43458" lon="6.01259">
        <ele>331.20001220703</ele>
        <time>2016-04-20T14:01:02Z</time>
      </trkpt>
      <trkpt lat="43.43458" lon="6.01258">
        <ele>331.20001220703</ele>
        <time>2016-04-20T14:01:03Z</time>
      </trkpt>
      <trkpt lat="43.4346" lon="6.01256">
        <ele>331.39999389648</ele>
        <time>2016-04-20T14:01:05Z</time>
      </trkpt>
      <trkpt lat="43.43461" lon="6.01253">
        <ele>331.39999389648</ele>
        <time>2016-04-20T14:01:07Z</time>
      </trkpt>
      <trkpt lat="43.43464" lon="6.0125">
        <ele>331.79998779297</ele>
        <time>2016-04-20T14:01:09Z</time>
      </trkpt>
      <trkpt lat="43.43465" lon="6.01249">
        <ele>331.79998779297</ele>
        <time>2016-04-20T14:01:10Z</time>
      </trkpt>
      <trkpt lat="43.43466" lon="6.01248">
        <ele>332</ele>
        <time>2016-04-20T14:01:11Z</time>
      </trkpt>
      <trkpt lat="43.43469" lon="6.01245">
        <ele>332.39999389648</ele>
        <time>2016-04-20T14:01:13Z</time>
      </trkpt>
      <trkpt lat="43.4347" lon="6.01242">
        <ele>332.39999389648</ele>
        <time>2016-04-20T14:01:14Z</time>
      </trkpt>
      <trkpt lat="43.43472" lon="6.0124">
        <ele>332.39999389648</ele>
        <time>2016-04-20T14:01:15Z</time>
      </trkpt>
      <trkpt lat="43.43475" lon="6.01234">
        <ele>332.60000610352</ele>
        <time>2016-04-20T14:01:17Z</time>
      </trkpt>
      <trkpt lat="43.43477" lon="6.01227">
        <ele>333.20001220703</ele>
        <time>2016-04-20T14:01:19Z</time>
      </trkpt>
      <trkpt lat="43.43478" lon="6.01221">
        <ele>333.79998779297</ele>
        <time>2016-04-20T14:01:21Z</time>
      </trkpt>
      <trkpt lat="43.43479" lon="6.01215">
        <ele>334.60000610352</ele>
        <time>2016-04-20T14:01:23Z</time>
      </trkpt>
      <trkpt lat="43.43479" lon="6.01208">
        <ele>334.79998779297</ele>
        <time>2016-04-20T14:01:25Z</time>
      </trkpt>
      <trkpt lat="43.43479" lon="6.01204">
        <ele>334.79998779297</ele>
        <time>2016-04-20T14:01:26Z</time>
      </trkpt>
      <trkpt lat="43.43479" lon="6.01201">
        <ele>334.79998779297</ele>
        <time>2016-04-20T14:01:27Z</time>
      </trkpt>
      <trkpt lat="43.43479" lon="6.01198">
        <ele>334.79998779297</ele>
        <time>2016-04-20T14:01:28Z</time>
      </trkpt>
      <trkpt lat="43.43479" lon="6.01194">
        <ele>334.79998779297</ele>
        <time>2016-04-20T14:01:29Z</time>
      </trkpt>
      <trkpt lat="43.4348" lon="6.01188">
        <ele>334.79998779297</ele>
        <time>2016-04-20T14:01:31Z</time>
      </trkpt>
      <trkpt lat="43.4348" lon="6.01181">
        <ele>334.79998779297</ele>
        <time>2016-04-20T14:01:33Z</time>
      </trkpt>
      <trkpt lat="43.4348" lon="6.01175">
        <ele>335.20001220703</ele>
        <time>2016-04-20T14:01:35Z</time>
      </trkpt>
      <trkpt lat="43.4348" lon="6.01168">
        <ele>336</ele>
        <time>2016-04-20T14:01:37Z</time>
      </trkpt>
      <trkpt lat="43.4348" lon="6.01161">
        <ele>336.20001220703</ele>
        <time>2016-04-20T14:01:39Z</time>
      </trkpt>
      <trkpt lat="43.43481" lon="6.01154">
        <ele>336.39999389648</ele>
        <time>2016-04-20T14:01:41Z</time>
      </trkpt>
      <trkpt lat="43.43482" lon="6.01151">
        <ele>336.60000610352</ele>
        <time>2016-04-20T14:01:42Z</time>
      </trkpt>
      <trkpt lat="43.43483" lon="6.01148">
        <ele>336.79998779297</ele>
        <time>2016-04-20T14:01:43Z</time>
      </trkpt>
      <trkpt lat="43.43486" lon="6.01143">
        <ele>337</ele>
        <time>2016-04-20T14:01:45Z</time>
      </trkpt>
      <trkpt lat="43.43489" lon="6.01138">
        <ele>337.39999389648</ele>
        <time>2016-04-20T14:01:47Z</time>
      </trkpt>
      <trkpt lat="43.43491" lon="6.01134">
        <ele>337.39999389648</ele>
        <time>2016-04-20T14:01:49Z</time>
      </trkpt>
      <trkpt lat="43.43493" lon="6.0113">
        <ele>337.79998779297</ele>
        <time>2016-04-20T14:01:51Z</time>
      </trkpt>
      <trkpt lat="43.43494" lon="6.01128">
        <ele>338</ele>
        <time>2016-04-20T14:01:52Z</time>
      </trkpt>
      <trkpt lat="43.43495" lon="6.01126">
        <ele>338</ele>
        <time>2016-04-20T14:01:53Z</time>
      </trkpt>
      <trkpt lat="43.43496" lon="6.01124">
        <ele>338</ele>
        <time>2016-04-20T14:01:54Z</time>
      </trkpt>
      <trkpt lat="43.43497" lon="6.01122">
        <ele>338.20001220703</ele>
        <time>2016-04-20T14:01:55Z</time>
      </trkpt>
      <trkpt lat="43.43499" lon="6.01119">
        <ele>338</ele>
        <time>2016-04-20T14:01:57Z</time>
      </trkpt>
      <trkpt lat="43.43501" lon="6.01114">
        <ele>338.39999389648</ele>
        <time>2016-04-20T14:01:59Z</time>
      </trkpt>
      <trkpt lat="43.43502" lon="6.01112">
        <ele>338.79998779297</ele>
        <time>2016-04-20T14:02:00Z</time>
      </trkpt>
      <trkpt lat="43.43503" lon="6.01109">
        <ele>338.79998779297</ele>
        <time>2016-04-20T14:02:01Z</time>
      </trkpt>
      <trkpt lat="43.43504" lon="6.01107">
        <ele>339</ele>
        <time>2016-04-20T14:02:02Z</time>
      </trkpt>
      <trkpt lat="43.43504" lon="6.01104">
        <ele>339.20001220703</ele>
        <time>2016-04-20T14:02:03Z</time>
      </trkpt>
      <trkpt lat="43.43506" lon="6.01099">
        <ele>339.39999389648</ele>
        <time>2016-04-20T14:02:05Z</time>
      </trkpt>
      <trkpt lat="43.43507" lon="6.01093">
        <ele>339.79998779297</ele>
        <time>2016-04-20T14:02:07Z</time>
      </trkpt>
      <trkpt lat="43.43509" lon="6.01087">
        <ele>340.20001220703</ele>
        <time>2016-04-20T14:02:09Z</time>
      </trkpt>
      <trkpt lat="43.43508" lon="6.01082">
        <ele>340.20001220703</ele>
        <time>2016-04-20T14:02:11Z</time>
      </trkpt>
      <trkpt lat="43.43508" lon="6.01076">
        <ele>340.39999389648</ele>
        <time>2016-04-20T14:02:13Z</time>
      </trkpt>
      <trkpt lat="43.43507" lon="6.0107">
        <ele>340.39999389648</ele>
        <time>2016-04-20T14:02:15Z</time>
      </trkpt>
      <trkpt lat="43.43506" lon="6.01064">
        <ele>340.60000610352</ele>
        <time>2016-04-20T14:02:17Z</time>
      </trkpt>
      <trkpt lat="43.43505" lon="6.01058">
        <ele>340.60000610352</ele>
        <time>2016-04-20T14:02:19Z</time>
      </trkpt>
      <trkpt lat="43.43504" lon="6.01055">
        <ele>340.79998779297</ele>
        <time>2016-04-20T14:02:20Z</time>
      </trkpt>
      <trkpt lat="43.43503" lon="6.01052">
        <ele>340.79998779297</ele>
        <time>2016-04-20T14:02:21Z</time>
      </trkpt>
      <trkpt lat="43.43502" lon="6.01046">
        <ele>340.79998779297</ele>
        <time>2016-04-20T14:02:23Z</time>
      </trkpt>
      <trkpt lat="43.43502" lon="6.0104">
        <ele>341.20001220703</ele>
        <time>2016-04-20T14:02:25Z</time>
      </trkpt>
      <trkpt lat="43.43502" lon="6.01037">
        <ele>341.39999389648</ele>
        <time>2016-04-20T14:02:26Z</time>
      </trkpt>
      <trkpt lat="43.43502" lon="6.01034">
        <ele>341.39999389648</ele>
        <time>2016-04-20T14:02:27Z</time>
      </trkpt>
      <trkpt lat="43.43502" lon="6.01032">
        <ele>341.60000610352</ele>
        <time>2016-04-20T14:02:28Z</time>
      </trkpt>
      <trkpt lat="43.43502" lon="6.01029">
        <ele>341.79998779297</ele>
        <time>2016-04-20T14:02:29Z</time>
      </trkpt>
      <trkpt lat="43.43501" lon="6.01023">
        <ele>342.20001220703</ele>
        <time>2016-04-20T14:02:31Z</time>
      </trkpt>
      <trkpt lat="43.43501" lon="6.0102">
        <ele>342.39999389648</ele>
        <time>2016-04-20T14:02:32Z</time>
      </trkpt>
      <trkpt lat="43.43501" lon="6.01018">
        <ele>342.60000610352</ele>
        <time>2016-04-20T14:02:33Z</time>
      </trkpt>
      <trkpt lat="43.43501" lon="6.01012">
        <ele>343.20001220703</ele>
        <time>2016-04-20T14:02:35Z</time>
      </trkpt>
      <trkpt lat="43.435" lon="6.0101">
        <ele>343.39999389648</ele>
        <time>2016-04-20T14:02:36Z</time>
      </trkpt>
      <trkpt lat="43.43501" lon="6.01007">
        <ele>343.39999389648</ele>
        <time>2016-04-20T14:02:37Z</time>
      </trkpt>
      <trkpt lat="43.43501" lon="6.01003">
        <ele>343.60000610352</ele>
        <time>2016-04-20T14:02:39Z</time>
      </trkpt>
      <trkpt lat="43.43502" lon="6.00998">
        <ele>344</ele>
        <time>2016-04-20T14:02:41Z</time>
      </trkpt>
      <trkpt lat="43.43502" lon="6.00994">
        <ele>344.20001220703</ele>
        <time>2016-04-20T14:02:43Z</time>
      </trkpt>
      <trkpt lat="43.43503" lon="6.00992">
        <ele>344.20001220703</ele>
        <time>2016-04-20T14:02:44Z</time>
      </trkpt>
      <trkpt lat="43.43504" lon="6.00989">
        <ele>344.39999389648</ele>
        <time>2016-04-20T14:02:45Z</time>
      </trkpt>
      <trkpt lat="43.43505" lon="6.00985">
        <ele>345</ele>
        <time>2016-04-20T14:02:47Z</time>
      </trkpt>
      <trkpt lat="43.43505" lon="6.00983">
        <ele>345.20001220703</ele>
        <time>2016-04-20T14:02:48Z</time>
      </trkpt>
      <trkpt lat="43.43505" lon="6.00981">
        <ele>345.60000610352</ele>
        <time>2016-04-20T14:02:49Z</time>
      </trkpt>
      <trkpt lat="43.43506" lon="6.00977">
        <ele>346.79998779297</ele>
        <time>2016-04-20T14:02:51Z</time>
      </trkpt>
      <trkpt lat="43.43507" lon="6.00972">
        <ele>347.39999389648</ele>
        <time>2016-04-20T14:02:53Z</time>
      </trkpt>
      <trkpt lat="43.43507" lon="6.00968">
        <ele>348</ele>
        <time>2016-04-20T14:02:55Z</time>
      </trkpt>
      <trkpt lat="43.43508" lon="6.00966">
        <ele>348</ele>
        <time>2016-04-20T14:02:56Z</time>
      </trkpt>
      <trkpt lat="43.43508" lon="6.00963">
        <ele>348</ele>
        <time>2016-04-20T14:02:57Z</time>
      </trkpt>
      <trkpt lat="43.43509" lon="6.00959">
        <ele>348.60000610352</ele>
        <time>2016-04-20T14:02:59Z</time>
      </trkpt>
      <trkpt lat="43.43509" lon="6.00954">
        <ele>349</ele>
        <time>2016-04-20T14:03:01Z</time>
      </trkpt>
      <trkpt lat="43.43509" lon="6.00951">
        <ele>349</ele>
        <time>2016-04-20T14:03:02Z</time>
      </trkpt>
      <trkpt lat="43.4351" lon="6.00949">
        <ele>349.20001220703</ele>
        <time>2016-04-20T14:03:03Z</time>
      </trkpt>
      <trkpt lat="43.4351" lon="6.00946">
        <ele>349.20001220703</ele>
        <time>2016-04-20T14:03:04Z</time>
      </trkpt>
      <trkpt lat="43.43511" lon="6.00944">
        <ele>349.20001220703</ele>
        <time>2016-04-20T14:03:05Z</time>
      </trkpt>
      <trkpt lat="43.43512" lon="6.00939">
        <ele>349.79998779297</ele>
        <time>2016-04-20T14:03:07Z</time>
      </trkpt>
      <trkpt lat="43.43512" lon="6.00937">
        <ele>350</ele>
        <time>2016-04-20T14:03:08Z</time>
      </trkpt>
      <trkpt lat="43.43512" lon="6.00935">
        <ele>350.20001220703</ele>
        <time>2016-04-20T14:03:09Z</time>
      </trkpt>
      <trkpt lat="43.43513" lon="6.00931">
        <ele>350.60000610352</ele>
        <time>2016-04-20T14:03:11Z</time>
      </trkpt>
      <trkpt lat="43.43513" lon="6.00927">
        <ele>350.79998779297</ele>
        <time>2016-04-20T14:03:13Z</time>
      </trkpt>
      <trkpt lat="43.43514" lon="6.00923">
        <ele>351.20001220703</ele>
        <time>2016-04-20T14:03:15Z</time>
      </trkpt>
      <trkpt lat="43.43515" lon="6.00919">
        <ele>351.39999389648</ele>
        <time>2016-04-20T14:03:17Z</time>
      </trkpt>
      <trkpt lat="43.43515" lon="6.00915">
        <ele>351.79998779297</ele>
        <time>2016-04-20T14:03:19Z</time>
      </trkpt>
      <trkpt lat="43.43516" lon="6.0091">
        <ele>352.39999389648</ele>
        <time>2016-04-20T14:03:21Z</time>
      </trkpt>
      <trkpt lat="43.43517" lon="6.00906">
        <ele>352.79998779297</ele>
        <time>2016-04-20T14:03:23Z</time>
      </trkpt>
      <trkpt lat="43.43518" lon="6.00902">
        <ele>353</ele>
        <time>2016-04-20T14:03:25Z</time>
      </trkpt>
      <trkpt lat="43.43519" lon="6.00898">
        <ele>353.20001220703</ele>
        <time>2016-04-20T14:03:27Z</time>
      </trkpt>
      <trkpt lat="43.4352" lon="6.00896">
        <ele>353.39999389648</ele>
        <time>2016-04-20T14:03:28Z</time>
      </trkpt>
      <trkpt lat="43.43521" lon="6.00893">
        <ele>353.79998779297</ele>
        <time>2016-04-20T14:03:29Z</time>
      </trkpt>
      <trkpt lat="43.43522" lon="6.00889">
        <ele>354</ele>
        <time>2016-04-20T14:03:31Z</time>
      </trkpt>
      <trkpt lat="43.43523" lon="6.00884">
        <ele>354</ele>
        <time>2016-04-20T14:03:33Z</time>
      </trkpt>
      <trkpt lat="43.43524" lon="6.0088">
        <ele>354.39999389648</ele>
        <time>2016-04-20T14:03:35Z</time>
      </trkpt>
      <trkpt lat="43.43525" lon="6.00877">
        <ele>354.60000610352</ele>
        <time>2016-04-20T14:03:36Z</time>
      </trkpt>
      <trkpt lat="43.43525" lon="6.00875">
        <ele>354.79998779297</ele>
        <time>2016-04-20T14:03:37Z</time>
      </trkpt>
      <trkpt lat="43.43526" lon="6.00873">
        <ele>354.79998779297</ele>
        <time>2016-04-20T14:03:38Z</time>
      </trkpt>
      <trkpt lat="43.43527" lon="6.00871">
        <ele>355.20001220703</ele>
        <time>2016-04-20T14:03:39Z</time>
      </trkpt>
      <trkpt lat="43.43528" lon="6.00866">
        <ele>355.79998779297</ele>
        <time>2016-04-20T14:03:41Z</time>
      </trkpt>
      <trkpt lat="43.43529" lon="6.00861">
        <ele>356.20001220703</ele>
        <time>2016-04-20T14:03:43Z</time>
      </trkpt>
      <trkpt lat="43.4353" lon="6.00856">
        <ele>356.39999389648</ele>
        <time>2016-04-20T14:03:45Z</time>
      </trkpt>
      <trkpt lat="43.43531" lon="6.00851">
        <ele>356.79998779297</ele>
        <time>2016-04-20T14:03:47Z</time>
      </trkpt>
      <trkpt lat="43.43533" lon="6.00846">
        <ele>357.20001220703</ele>
        <time>2016-04-20T14:03:49Z</time>
      </trkpt>
      <trkpt lat="43.43533" lon="6.00841">
        <ele>357.79998779297</ele>
        <time>2016-04-20T14:03:51Z</time>
      </trkpt>
      <trkpt lat="43.43534" lon="6.00839">
        <ele>357.79998779297</ele>
        <time>2016-04-20T14:03:52Z</time>
      </trkpt>
      <trkpt lat="43.43534" lon="6.00837">
        <ele>358</ele>
        <time>2016-04-20T14:03:53Z</time>
      </trkpt>
      <trkpt lat="43.43534" lon="6.00835">
        <ele>358.20001220703</ele>
        <time>2016-04-20T14:03:54Z</time>
      </trkpt>
      <trkpt lat="43.43535" lon="6.00833">
        <ele>358.20001220703</ele>
        <time>2016-04-20T14:03:55Z</time>
      </trkpt>
      <trkpt lat="43.43536" lon="6.0083">
        <ele>358.20001220703</ele>
        <time>2016-04-20T14:03:57Z</time>
      </trkpt>
      <trkpt lat="43.43536" lon="6.00827">
        <ele>358.39999389648</ele>
        <time>2016-04-20T14:03:59Z</time>
      </trkpt>
      <trkpt lat="43.43537" lon="6.00825">
        <ele>358.39999389648</ele>
        <time>2016-04-20T14:04:01Z</time>
      </trkpt>
      <trkpt lat="43.43537" lon="6.00824">
        <ele>358.39999389648</ele>
        <time>2016-04-20T14:04:02Z</time>
      </trkpt>
      <trkpt lat="43.43537" lon="6.00823">
        <ele>358.39999389648</ele>
        <time>2016-04-20T14:04:03Z</time>
      </trkpt>
      <trkpt lat="43.43537" lon="6.00822">
        <ele>358.39999389648</ele>
        <time>2016-04-20T14:04:05Z</time>
      </trkpt>
      <trkpt lat="43.43536" lon="6.00822">
        <ele>358.39999389648</ele>
        <time>2016-04-20T14:04:07Z</time>
      </trkpt>
      <trkpt lat="43.43536" lon="6.00822">
        <ele>358.39999389648</ele>
        <time>2016-04-20T14:04:09Z</time>
      </trkpt>
      <trkpt lat="43.43536" lon="6.00822">
        <ele>358.39999389648</ele>
        <time>2016-04-20T14:04:11Z</time>
      </trkpt>
      <trkpt lat="43.43536" lon="6.00822">
        <ele>358.39999389648</ele>
        <time>2016-04-20T14:04:13Z</time>
      </trkpt>
      <trkpt lat="43.43537" lon="6.00822">
        <ele>358.39999389648</ele>
        <time>2016-04-20T14:04:15Z</time>
      </trkpt>
      <trkpt lat="43.43536" lon="6.00822">
        <ele>358.39999389648</ele>
        <time>2016-04-20T14:04:17Z</time>
      </trkpt>
      <trkpt lat="43.43536" lon="6.00822">
        <ele>358.60000610352</ele>
        <time>2016-04-20T14:04:19Z</time>
      </trkpt>
      <trkpt lat="43.43536" lon="6.00822">
        <ele>358.60000610352</ele>
        <time>2016-04-20T14:04:21Z</time>
      </trkpt>
      <trkpt lat="43.43536" lon="6.00822">
        <ele>358.60000610352</ele>
        <time>2016-04-20T14:04:23Z</time>
      </trkpt>
      <trkpt lat="43.43536" lon="6.00822">
        <ele>358.39999389648</ele>
        <time>2016-04-20T14:04:25Z</time>
      </trkpt>
      <trkpt lat="43.43536" lon="6.00822">
        <ele>358.39999389648</ele>
        <time>2016-04-20T14:04:27Z</time>
      </trkpt>
      <trkpt lat="43.43536" lon="6.00822">
        <ele>358.39999389648</ele>
        <time>2016-04-20T14:04:29Z</time>
      </trkpt>
      <trkpt lat="43.43536" lon="6.00822">
        <ele>358.39999389648</ele>
        <time>2016-04-20T14:04:30Z</time>
      </trkpt>
      <trkpt lat="43.43536" lon="6.00822">
        <ele>358.39999389648</ele>
        <time>2016-04-20T14:04:31Z</time>
      </trkpt>
      <trkpt lat="43.43536" lon="6.00822">
        <ele>358.39999389648</ele>
        <time>2016-04-20T14:04:33Z</time>
      </trkpt>
      <trkpt lat="43.43536" lon="6.00822">
        <ele>358.39999389648</ele>
        <time>2016-04-20T14:04:35Z</time>
      </trkpt>
      <trkpt lat="43.43536" lon="6.00822">
        <ele>358.39999389648</ele>
        <time>2016-04-20T14:04:37Z</time>
      </trkpt>
      <trkpt lat="43.43536" lon="6.00822">
        <ele>358.39999389648</ele>
        <time>2016-04-20T14:04:39Z</time>
      </trkpt>
      <trkpt lat="43.43536" lon="6.00822">
        <ele>358.20001220703</ele>
        <time>2016-04-20T14:04:41Z</time>
      </trkpt>
      <trkpt lat="43.43536" lon="6.00822">
        <ele>358.20001220703</ele>
        <time>2016-04-20T14:04:43Z</time>
      </trkpt>
      <trkpt lat="43.43536" lon="6.00822">
        <ele>358.20001220703</ele>
        <time>2016-04-20T14:04:45Z</time>
      </trkpt>
      <trkpt lat="43.43536" lon="6.00822">
        <ele>358.39999389648</ele>
        <time>2016-04-20T14:04:47Z</time>
      </trkpt>
      <trkpt lat="43.43536" lon="6.00822">
        <ele>358.39999389648</ele>
        <time>2016-04-20T14:04:49Z</time>
      </trkpt>
      <trkpt lat="43.43536" lon="6.00822">
        <ele>358.39999389648</ele>
        <time>2016-04-20T14:04:51Z</time>
      </trkpt>
      <trkpt lat="43.43536" lon="6.00822">
        <ele>358.20001220703</ele>
        <time>2016-04-20T14:04:53Z</time>
      </trkpt>
      <trkpt lat="43.43536" lon="6.00822">
        <ele>358.20001220703</ele>
        <time>2016-04-20T14:04:55Z</time>
      </trkpt>
      <trkpt lat="43.43536" lon="6.00822">
        <ele>358.20001220703</ele>
        <time>2016-04-20T14:04:57Z</time>
      </trkpt>
      <trkpt lat="43.43536" lon="6.00822">
        <ele>358.20001220703</ele>
        <time>2016-04-20T14:04:59Z</time>
      </trkpt>
      <trkpt lat="43.43536" lon="6.00822">
        <ele>358.39999389648</ele>
        <time>2016-04-20T14:05:01Z</time>
      </trkpt>
      <trkpt lat="43.43536" lon="6.00822">
        <ele>358.60000610352</ele>
        <time>2016-04-20T14:05:03Z</time>
      </trkpt>
      <trkpt lat="43.43536" lon="6.00822">
        <ele>358.60000610352</ele>
        <time>2016-04-20T14:05:05Z</time>
      </trkpt>
      <trkpt lat="43.43536" lon="6.00822">
        <ele>358.60000610352</ele>
        <time>2016-04-20T14:05:07Z</time>
      </trkpt>
      <trkpt lat="43.43536" lon="6.00822">
        <ele>358.60000610352</ele>
        <time>2016-04-20T14:05:09Z</time>
      </trkpt>
      <trkpt lat="43.43536" lon="6.00822">
        <ele>358.60000610352</ele>
        <time>2016-04-20T14:05:11Z</time>
      </trkpt>
      <trkpt lat="43.43536" lon="6.00822">
        <ele>358.39999389648</ele>
        <time>2016-04-20T14:05:13Z</time>
      </trkpt>
      <trkpt lat="43.43536" lon="6.00822">
        <ele>358.39999389648</ele>
        <time>2016-04-20T14:05:15Z</time>
      </trkpt>
      <trkpt lat="43.43537" lon="6.00822">
        <ele>358.39999389648</ele>
        <time>2016-04-20T14:05:17Z</time>
      </trkpt>
      <trkpt lat="43.43537" lon="6.00822">
        <ele>358.39999389648</ele>
        <time>2016-04-20T14:05:19Z</time>
      </trkpt>
      <trkpt lat="43.43536" lon="6.00822">
        <ele>358.39999389648</ele>
        <time>2016-04-20T14:05:21Z</time>
      </trkpt>
      <trkpt lat="43.43537" lon="6.00822">
        <ele>358.39999389648</ele>
        <time>2016-04-20T14:05:23Z</time>
      </trkpt>
      <trkpt lat="43.43537" lon="6.00822">
        <ele>358.20001220703</ele>
        <time>2016-04-20T14:05:25Z</time>
      </trkpt>
      <trkpt lat="43.43537" lon="6.00822">
        <ele>358.39999389648</ele>
        <time>2016-04-20T14:05:27Z</time>
      </trkpt>
      <trkpt lat="43.43537" lon="6.00822">
        <ele>358.39999389648</ele>
        <time>2016-04-20T14:05:29Z</time>
      </trkpt>
      <trkpt lat="43.43537" lon="6.00822">
        <ele>358.39999389648</ele>
        <time>2016-04-20T14:05:31Z</time>
      </trkpt>
      <trkpt lat="43.43536" lon="6.00822">
        <ele>358.39999389648</ele>
        <time>2016-04-20T14:05:33Z</time>
      </trkpt>
      <trkpt lat="43.43537" lon="6.00822">
        <ele>358.39999389648</ele>
        <time>2016-04-20T14:05:35Z</time>
      </trkpt>
      <trkpt lat="43.43537" lon="6.00822">
        <ele>358.60000610352</ele>
        <time>2016-04-20T14:05:37Z</time>
      </trkpt>
      <trkpt lat="43.43536" lon="6.00822">
        <ele>358.60000610352</ele>
        <time>2016-04-20T14:05:39Z</time>
      </trkpt>
      <trkpt lat="43.43537" lon="6.00822">
        <ele>358.60000610352</ele>
        <time>2016-04-20T14:05:41Z</time>
      </trkpt>
      <trkpt lat="43.43537" lon="6.00822">
        <ele>358.79998779297</ele>
        <time>2016-04-20T14:05:43Z</time>
      </trkpt>
      <trkpt lat="43.43537" lon="6.00822">
        <ele>358.79998779297</ele>
        <time>2016-04-20T14:05:45Z</time>
      </trkpt>
      <trkpt lat="43.43537" lon="6.00822">
        <ele>358.79998779297</ele>
        <time>2016-04-20T14:05:47Z</time>
      </trkpt>
      <trkpt lat="43.43537" lon="6.00822">
        <ele>358.79998779297</ele>
        <time>2016-04-20T14:05:49Z</time>
      </trkpt>
      <trkpt lat="43.43537" lon="6.00822">
        <ele>358.79998779297</ele>
        <time>2016-04-20T14:05:51Z</time>
      </trkpt>
      <trkpt lat="43.43536" lon="6.00822">
        <ele>358.79998779297</ele>
        <time>2016-04-20T14:05:53Z</time>
      </trkpt>
      <trkpt lat="43.43537" lon="6.00822">
        <ele>358.79998779297</ele>
        <time>2016-04-20T14:05:55Z</time>
      </trkpt>
      <trkpt lat="43.43537" lon="6.00822">
        <ele>358.60000610352</ele>
        <time>2016-04-20T14:05:57Z</time>
      </trkpt>
      <trkpt lat="43.43537" lon="6.00822">
        <ele>358.39999389648</ele>
        <time>2016-04-20T14:05:59Z</time>
      </trkpt>
      <trkpt lat="43.43537" lon="6.00822">
        <ele>358.79998779297</ele>
        <time>2016-04-20T14:06:01Z</time>
      </trkpt>
      <trkpt lat="43.43537" lon="6.00822">
        <ele>358.79998779297</ele>
        <time>2016-04-20T14:06:03Z</time>
      </trkpt>
      <trkpt lat="43.43536" lon="6.00822">
        <ele>358.60000610352</ele>
        <time>2016-04-20T14:06:05Z</time>
      </trkpt>
      <trkpt lat="43.43536" lon="6.00822">
        <ele>358.79998779297</ele>
        <time>2016-04-20T14:06:07Z</time>
      </trkpt>
      <trkpt lat="43.43536" lon="6.00822">
        <ele>358.60000610352</ele>
        <time>2016-04-20T14:06:09Z</time>
      </trkpt>
      <trkpt lat="43.43536" lon="6.00822">
        <ele>358.60000610352</ele>
        <time>2016-04-20T14:06:11Z</time>
      </trkpt>
      <trkpt lat="43.43536" lon="6.00822">
        <ele>358.60000610352</ele>
        <time>2016-04-20T14:06:13Z</time>
      </trkpt>
      <trkpt lat="43.43536" lon="6.00822">
        <ele>358.60000610352</ele>
        <time>2016-04-20T14:06:15Z</time>
      </trkpt>
      <trkpt lat="43.43536" lon="6.00822">
        <ele>358.60000610352</ele>
        <time>2016-04-20T14:06:17Z</time>
      </trkpt>
      <trkpt lat="43.43536" lon="6.00822">
        <ele>358.79998779297</ele>
        <time>2016-04-20T14:06:19Z</time>
      </trkpt>
      <trkpt lat="43.43536" lon="6.00822">
        <ele>358.79998779297</ele>
        <time>2016-04-20T14:06:21Z</time>
      </trkpt>
      <trkpt lat="43.43536" lon="6.00822">
        <ele>358.79998779297</ele>
        <time>2016-04-20T14:06:23Z</time>
      </trkpt>
      <trkpt lat="43.43536" lon="6.00822">
        <ele>358.60000610352</ele>
        <time>2016-04-20T14:06:25Z</time>
      </trkpt>
      <trkpt lat="43.43536" lon="6.00822">
        <ele>358.60000610352</ele>
        <time>2016-04-20T14:06:27Z</time>
      </trkpt>
      <trkpt lat="43.43537" lon="6.00822">
        <ele>358.79998779297</ele>
        <time>2016-04-20T14:06:29Z</time>
      </trkpt>
      <trkpt lat="43.43537" lon="6.00822">
        <ele>358.79998779297</ele>
        <time>2016-04-20T14:06:31Z</time>
      </trkpt>
      <trkpt lat="43.43536" lon="6.00822">
        <ele>359</ele>
        <time>2016-04-20T14:06:33Z</time>
      </trkpt>
      <trkpt lat="43.43536" lon="6.00822">
        <ele>359</ele>
        <time>2016-04-20T14:06:35Z</time>
      </trkpt>
      <trkpt lat="43.43537" lon="6.00822">
        <ele>359</ele>
        <time>2016-04-20T14:06:37Z</time>
      </trkpt>
      <trkpt lat="43.43537" lon="6.00822">
        <ele>359</ele>
        <time>2016-04-20T14:06:39Z</time>
      </trkpt>
      <trkpt lat="43.43536" lon="6.00822">
        <ele>359</ele>
        <time>2016-04-20T14:06:41Z</time>
      </trkpt>
      <trkpt lat="43.43536" lon="6.00822">
        <ele>359</ele>
        <time>2016-04-20T14:06:43Z</time>
      </trkpt>
      <trkpt lat="43.43536" lon="6.00822">
        <ele>359</ele>
        <time>2016-04-20T14:06:45Z</time>
      </trkpt>
      <trkpt lat="43.43536" lon="6.00822">
        <ele>359</ele>
        <time>2016-04-20T14:06:47Z</time>
      </trkpt>
      <trkpt lat="43.43536" lon="6.00822">
        <ele>358.79998779297</ele>
        <time>2016-04-20T14:06:49Z</time>
      </trkpt>
      <trkpt lat="43.43537" lon="6.00822">
        <ele>358.79998779297</ele>
        <time>2016-04-20T14:06:51Z</time>
      </trkpt>
      <trkpt lat="43.43537" lon="6.00822">
        <ele>358.60000610352</ele>
        <time>2016-04-20T14:06:53Z</time>
      </trkpt>
      <trkpt lat="43.43536" lon="6.00822">
        <ele>358.60000610352</ele>
        <time>2016-04-20T14:06:55Z</time>
      </trkpt>
      <trkpt lat="43.43536" lon="6.00822">
        <ele>358.79998779297</ele>
        <time>2016-04-20T14:06:57Z</time>
      </trkpt>
      <trkpt lat="43.43537" lon="6.00822">
        <ele>358.79998779297</ele>
        <time>2016-04-20T14:06:59Z</time>
      </trkpt>
      <trkpt lat="43.43536" lon="6.00822">
        <ele>358.79998779297</ele>
        <time>2016-04-20T14:07:01Z</time>
      </trkpt>
      <trkpt lat="43.43536" lon="6.00822">
        <ele>358.79998779297</ele>
        <time>2016-04-20T14:07:03Z</time>
      </trkpt>
      <trkpt lat="43.43536" lon="6.00822">
        <ele>358.79998779297</ele>
        <time>2016-04-20T14:07:05Z</time>
      </trkpt>
      <trkpt lat="43.43536" lon="6.00822">
        <ele>358.79998779297</ele>
        <time>2016-04-20T14:07:06Z</time>
      </trkpt>
      <trkpt lat="43.43536" lon="6.00822">
        <ele>358.79998779297</ele>
        <time>2016-04-20T14:07:07Z</time>
      </trkpt>
      <trkpt lat="43.43536" lon="6.00822">
        <ele>358.79998779297</ele>
        <time>2016-04-20T14:07:09Z</time>
      </trkpt>
      <trkpt lat="43.43536" lon="6.00822">
        <ele>359</ele>
        <time>2016-04-20T14:07:11Z</time>
      </trkpt>
      <trkpt lat="43.43536" lon="6.00822">
        <ele>359</ele>
        <time>2016-04-20T14:07:13Z</time>
      </trkpt>
      <trkpt lat="43.43536" lon="6.00822">
        <ele>359</ele>
        <time>2016-04-20T14:07:15Z</time>
      </trkpt>
      <trkpt lat="43.43536" lon="6.00822">
        <ele>359</ele>
        <time>2016-04-20T14:07:17Z</time>
      </trkpt>
      <trkpt lat="43.43536" lon="6.00822">
        <ele>359</ele>
        <time>2016-04-20T14:07:19Z</time>
      </trkpt>
      <trkpt lat="43.43536" lon="6.00822">
        <ele>359</ele>
        <time>2016-04-20T14:07:21Z</time>
      </trkpt>
      <trkpt lat="43.43536" lon="6.00822">
        <ele>359</ele>
        <time>2016-04-20T14:07:23Z</time>
      </trkpt>
      <trkpt lat="43.43536" lon="6.00822">
        <ele>359</ele>
        <time>2016-04-20T14:07:25Z</time>
      </trkpt>
      <trkpt lat="43.43536" lon="6.00822">
        <ele>359</ele>
        <time>2016-04-20T14:07:26Z</time>
      </trkpt>
      <trkpt lat="43.43536" lon="6.00822">
        <ele>359</ele>
        <time>2016-04-20T14:07:29Z</time>
      </trkpt>
      <trkpt lat="43.43536" lon="6.00822">
        <ele>359</ele>
        <time>2016-04-20T14:07:31Z</time>
      </trkpt>
      <trkpt lat="43.43537" lon="6.00822">
        <ele>359</ele>
        <time>2016-04-20T14:07:33Z</time>
      </trkpt>
      <trkpt lat="43.43537" lon="6.00822">
        <ele>359</ele>
        <time>2016-04-20T14:07:35Z</time>
      </trkpt>
      <trkpt lat="43.43537" lon="6.00822">
        <ele>359.20001220703</ele>
        <time>2016-04-20T14:07:37Z</time>
      </trkpt>
      <trkpt lat="43.43537" lon="6.00822">
        <ele>359.39999389648</ele>
        <time>2016-04-20T14:07:39Z</time>
      </trkpt>
      <trkpt lat="43.43537" lon="6.00822">
        <ele>359.39999389648</ele>
        <time>2016-04-20T14:07:41Z</time>
      </trkpt>
      <trkpt lat="43.43537" lon="6.00822">
        <ele>359.39999389648</ele>
        <time>2016-04-20T14:07:42Z</time>
      </trkpt>
      <trkpt lat="43.43537" lon="6.00822">
        <ele>359.39999389648</ele>
        <time>2016-04-20T14:07:43Z</time>
      </trkpt>
      <trkpt lat="43.43537" lon="6.00822">
        <ele>359.60000610352</ele>
        <time>2016-04-20T14:07:45Z</time>
      </trkpt>
      <trkpt lat="43.43537" lon="6.00822">
        <ele>359.79998779297</ele>
        <time>2016-04-20T14:07:47Z</time>
      </trkpt>
      <trkpt lat="43.43537" lon="6.00822">
        <ele>359.60000610352</ele>
        <time>2016-04-20T14:07:49Z</time>
      </trkpt>
      <trkpt lat="43.43537" lon="6.00822">
        <ele>359.60000610352</ele>
        <time>2016-04-20T14:07:51Z</time>
      </trkpt>
      <trkpt lat="43.43537" lon="6.00822">
        <ele>359.60000610352</ele>
        <time>2016-04-20T14:07:53Z</time>
      </trkpt>
      <trkpt lat="43.43537" lon="6.00822">
        <ele>359.60000610352</ele>
        <time>2016-04-20T14:07:55Z</time>
      </trkpt>
      <trkpt lat="43.43537" lon="6.00822">
        <ele>359.60000610352</ele>
        <time>2016-04-20T14:07:57Z</time>
      </trkpt>
      <trkpt lat="43.43537" lon="6.00822">
        <ele>359.60000610352</ele>
        <time>2016-04-20T14:07:59Z</time>
      </trkpt>
      <trkpt lat="43.43537" lon="6.00822">
        <ele>359.60000610352</ele>
        <time>2016-04-20T14:08:01Z</time>
      </trkpt>
      <trkpt lat="43.43537" lon="6.00822">
        <ele>359.39999389648</ele>
        <time>2016-04-20T14:08:03Z</time>
      </trkpt>
      <trkpt lat="43.43537" lon="6.00822">
        <ele>359.39999389648</ele>
        <time>2016-04-20T14:08:04Z</time>
      </trkpt>
      <trkpt lat="43.43537" lon="6.00822">
        <ele>359.39999389648</ele>
        <time>2016-04-20T14:08:05Z</time>
      </trkpt>
      <trkpt lat="43.43537" lon="6.00822">
        <ele>359.20001220703</ele>
        <time>2016-04-20T14:08:07Z</time>
      </trkpt>
      <trkpt lat="43.43537" lon="6.00822">
        <ele>359.20001220703</ele>
        <time>2016-04-20T14:08:09Z</time>
      </trkpt>
      <trkpt lat="43.43537" lon="6.00822">
        <ele>359.39999389648</ele>
        <time>2016-04-20T14:08:11Z</time>
      </trkpt>
      <trkpt lat="43.43537" lon="6.00822">
        <ele>359.39999389648</ele>
        <time>2016-04-20T14:08:13Z</time>
      </trkpt>
      <trkpt lat="43.43537" lon="6.00822">
        <ele>359.39999389648</ele>
        <time>2016-04-20T14:08:15Z</time>
      </trkpt>
      <trkpt lat="43.43537" lon="6.00822">
        <ele>359.39999389648</ele>
        <time>2016-04-20T14:08:17Z</time>
      </trkpt>
      <trkpt lat="43.43537" lon="6.00821">
        <ele>359.39999389648</ele>
        <time>2016-04-20T14:08:18Z</time>
      </trkpt>
      <trkpt lat="43.43538" lon="6.0082">
        <ele>359.39999389648</ele>
        <time>2016-04-20T14:08:19Z</time>
      </trkpt>
      <trkpt lat="43.43539" lon="6.00817">
        <ele>359.39999389648</ele>
        <time>2016-04-20T14:08:21Z</time>
      </trkpt>
      <trkpt lat="43.43541" lon="6.00813">
        <ele>359.39999389648</ele>
        <time>2016-04-20T14:08:23Z</time>
      </trkpt>
      <trkpt lat="43.43542" lon="6.00808">
        <ele>359.39999389648</ele>
        <time>2016-04-20T14:08:25Z</time>
      </trkpt>
      <trkpt lat="43.43544" lon="6.00803">
        <ele>359.39999389648</ele>
        <time>2016-04-20T14:08:27Z</time>
      </trkpt>
      <trkpt lat="43.43545" lon="6.008">
        <ele>359.20001220703</ele>
        <time>2016-04-20T14:08:29Z</time>
      </trkpt>
      <trkpt lat="43.43545" lon="6.00799">
        <ele>359.20001220703</ele>
        <time>2016-04-20T14:08:30Z</time>
      </trkpt>
      <trkpt lat="43.43545" lon="6.00798">
        <ele>359.20001220703</ele>
        <time>2016-04-20T14:08:31Z</time>
      </trkpt>
      <trkpt lat="43.43546" lon="6.00796">
        <ele>359.20001220703</ele>
        <time>2016-04-20T14:08:33Z</time>
      </trkpt>
      <trkpt lat="43.43547" lon="6.00793">
        <ele>359.20001220703</ele>
        <time>2016-04-20T14:08:35Z</time>
      </trkpt>
      <trkpt lat="43.43548" lon="6.0079">
        <ele>359.20001220703</ele>
        <time>2016-04-20T14:08:36Z</time>
      </trkpt>
      <trkpt lat="43.43549" lon="6.00788">
        <ele>359</ele>
        <time>2016-04-20T14:08:37Z</time>
      </trkpt>
      <trkpt lat="43.4355" lon="6.00782">
        <ele>359</ele>
        <time>2016-04-20T14:08:39Z</time>
      </trkpt>
      <trkpt lat="43.43553" lon="6.00773">
        <ele>358.79998779297</ele>
        <time>2016-04-20T14:08:41Z</time>
      </trkpt>
      <trkpt lat="43.43556" lon="6.00762">
        <ele>358.79998779297</ele>
        <time>2016-04-20T14:08:43Z</time>
      </trkpt>
      <trkpt lat="43.4356" lon="6.00751">
        <ele>358.39999389648</ele>
        <time>2016-04-20T14:08:45Z</time>
      </trkpt>
      <trkpt lat="43.43565" lon="6.00738">
        <ele>357.79998779297</ele>
        <time>2016-04-20T14:08:47Z</time>
      </trkpt>
      <trkpt lat="43.43571" lon="6.00724">
        <ele>357.39999389648</ele>
        <time>2016-04-20T14:08:49Z</time>
      </trkpt>
      <trkpt lat="43.43574" lon="6.00717">
        <ele>357</ele>
        <time>2016-04-20T14:08:50Z</time>
      </trkpt>
      <trkpt lat="43.43577" lon="6.0071">
        <ele>356.20001220703</ele>
        <time>2016-04-20T14:08:51Z</time>
      </trkpt>
      <trkpt lat="43.4358" lon="6.00703">
        <ele>355.60000610352</ele>
        <time>2016-04-20T14:08:52Z</time>
      </trkpt>
      <trkpt lat="43.43583" lon="6.00696">
        <ele>354.60000610352</ele>
        <time>2016-04-20T14:08:53Z</time>
      </trkpt>
      <trkpt lat="43.43586" lon="6.00689">
        <ele>353.60000610352</ele>
        <time>2016-04-20T14:08:54Z</time>
      </trkpt>
      <trkpt lat="43.43587" lon="6.00683">
        <ele>352.79998779297</ele>
        <time>2016-04-20T14:08:55Z</time>
      </trkpt>
      <trkpt lat="43.43586" lon="6.00675">
        <ele>352.39999389648</ele>
        <time>2016-04-20T14:08:56Z</time>
      </trkpt>
      <trkpt lat="43.43584" lon="6.00669">
        <ele>352</ele>
        <time>2016-04-20T14:08:57Z</time>
      </trkpt>
      <trkpt lat="43.43579" lon="6.00659">
        <ele>351.60000610352</ele>
        <time>2016-04-20T14:08:59Z</time>
      </trkpt>
      <trkpt lat="43.43576" lon="6.00655">
        <ele>351.20001220703</ele>
        <time>2016-04-20T14:09:00Z</time>
      </trkpt>
      <trkpt lat="43.43574" lon="6.00651">
        <ele>350.39999389648</ele>
        <time>2016-04-20T14:09:01Z</time>
      </trkpt>
      <trkpt lat="43.4357" lon="6.00647">
        <ele>349.60000610352</ele>
        <time>2016-04-20T14:09:02Z</time>
      </trkpt>
      <trkpt lat="43.43567" lon="6.00643">
        <ele>349</ele>
        <time>2016-04-20T14:09:03Z</time>
      </trkpt>
      <trkpt lat="43.43564" lon="6.0064">
        <ele>348.39999389648</ele>
        <time>2016-04-20T14:09:04Z</time>
      </trkpt>
      <trkpt lat="43.43563" lon="6.00636">
        <ele>348.20001220703</ele>
        <time>2016-04-20T14:09:05Z</time>
      </trkpt>
      <trkpt lat="43.43563" lon="6.00632">
        <ele>347.79998779297</ele>
        <time>2016-04-20T14:09:06Z</time>
      </trkpt>
      <trkpt lat="43.43563" lon="6.00627">
        <ele>347.39999389648</ele>
        <time>2016-04-20T14:09:07Z</time>
      </trkpt>
      <trkpt lat="43.43564" lon="6.00622">
        <ele>347.20001220703</ele>
        <time>2016-04-20T14:09:08Z</time>
      </trkpt>
      <trkpt lat="43.43565" lon="6.00616">
        <ele>346.60000610352</ele>
        <time>2016-04-20T14:09:09Z</time>
      </trkpt>
      <trkpt lat="43.43567" lon="6.0061">
        <ele>346.39999389648</ele>
        <time>2016-04-20T14:09:10Z</time>
      </trkpt>
      <trkpt lat="43.43569" lon="6.00604">
        <ele>345.79998779297</ele>
        <time>2016-04-20T14:09:11Z</time>
      </trkpt>
      <trkpt lat="43.43576" lon="6.00594">
        <ele>344.79998779297</ele>
        <time>2016-04-20T14:09:13Z</time>
      </trkpt>
      <trkpt lat="43.43579" lon="6.0059">
        <ele>344.39999389648</ele>
        <time>2016-04-20T14:09:14Z</time>
      </trkpt>
      <trkpt lat="43.43581" lon="6.00587">
        <ele>344.20001220703</ele>
        <time>2016-04-20T14:09:15Z</time>
      </trkpt>
      <trkpt lat="43.43584" lon="6.0058">
        <ele>343.60000610352</ele>
        <time>2016-04-20T14:09:17Z</time>
      </trkpt>
      <trkpt lat="43.43586" lon="6.00575">
        <ele>343.39999389648</ele>
        <time>2016-04-20T14:09:18Z</time>
      </trkpt>
      <trkpt lat="43.43588" lon="6.00571">
        <ele>343.20001220703</ele>
        <time>2016-04-20T14:09:19Z</time>
      </trkpt>
      <trkpt lat="43.43591" lon="6.00565">
        <ele>342.79998779297</ele>
        <time>2016-04-20T14:09:20Z</time>
      </trkpt>
      <trkpt lat="43.43594" lon="6.0056">
        <ele>342.60000610352</ele>
        <time>2016-04-20T14:09:21Z</time>
      </trkpt>
      <trkpt lat="43.43597" lon="6.00555">
        <ele>342.20001220703</ele>
        <time>2016-04-20T14:09:22Z</time>
      </trkpt>
      <trkpt lat="43.43602" lon="6.0055">
        <ele>341.60000610352</ele>
        <time>2016-04-20T14:09:23Z</time>
      </trkpt>
      <trkpt lat="43.43606" lon="6.00544">
        <ele>341.20001220703</ele>
        <time>2016-04-20T14:09:24Z</time>
      </trkpt>
      <trkpt lat="43.43611" lon="6.00538">
        <ele>341.20001220703</ele>
        <time>2016-04-20T14:09:25Z</time>
      </trkpt>
      <trkpt lat="43.43615" lon="6.00532">
        <ele>341</ele>
        <time>2016-04-20T14:09:26Z</time>
      </trkpt>
      <trkpt lat="43.43619" lon="6.00525">
        <ele>340.79998779297</ele>
        <time>2016-04-20T14:09:27Z</time>
      </trkpt>
      <trkpt lat="43.43622" lon="6.00517">
        <ele>340.60000610352</ele>
        <time>2016-04-20T14:09:28Z</time>
      </trkpt>
      <trkpt lat="43.43625" lon="6.00509">
        <ele>340.39999389648</ele>
        <time>2016-04-20T14:09:29Z</time>
      </trkpt>
      <trkpt lat="43.43627" lon="6.00501">
        <ele>340</ele>
        <time>2016-04-20T14:09:30Z</time>
      </trkpt>
      <trkpt lat="43.43629" lon="6.00493">
        <ele>339</ele>
        <time>2016-04-20T14:09:31Z</time>
      </trkpt>
      <trkpt lat="43.43631" lon="6.00485">
        <ele>338.39999389648</ele>
        <time>2016-04-20T14:09:32Z</time>
      </trkpt>
      <trkpt lat="43.43631" lon="6.00477">
        <ele>338.20001220703</ele>
        <time>2016-04-20T14:09:33Z</time>
      </trkpt>
      <trkpt lat="43.43632" lon="6.00462">
        <ele>337.60000610352</ele>
        <time>2016-04-20T14:09:35Z</time>
      </trkpt>
      <trkpt lat="43.43632" lon="6.00449">
        <ele>336.39999389648</ele>
        <time>2016-04-20T14:09:37Z</time>
      </trkpt>
      <trkpt lat="43.43631" lon="6.00442">
        <ele>336.20001220703</ele>
        <time>2016-04-20T14:09:38Z</time>
      </trkpt>
      <trkpt lat="43.4363" lon="6.00436">
        <ele>335.79998779297</ele>
        <time>2016-04-20T14:09:39Z</time>
      </trkpt>
      <trkpt lat="43.43626" lon="6.00423">
        <ele>335.60000610352</ele>
        <time>2016-04-20T14:09:41Z</time>
      </trkpt>
      <trkpt lat="43.43623" lon="6.00417">
        <ele>335.20001220703</ele>
        <time>2016-04-20T14:09:42Z</time>
      </trkpt>
      <trkpt lat="43.43621" lon="6.0041">
        <ele>334.60000610352</ele>
        <time>2016-04-20T14:09:43Z</time>
      </trkpt>
      <trkpt lat="43.4362" lon="6.00403">
        <ele>334</ele>
        <time>2016-04-20T14:09:44Z</time>
      </trkpt>
      <trkpt lat="43.43619" lon="6.00395">
        <ele>333.79998779297</ele>
        <time>2016-04-20T14:09:45Z</time>
      </trkpt>
      <trkpt lat="43.43619" lon="6.00388">
        <ele>333.60000610352</ele>
        <time>2016-04-20T14:09:46Z</time>
      </trkpt>
      <trkpt lat="43.4362" lon="6.0038">
        <ele>333.39999389648</ele>
        <time>2016-04-20T14:09:47Z</time>
      </trkpt>
      <trkpt lat="43.43623" lon="6.00367">
        <ele>332.79998779297</ele>
        <time>2016-04-20T14:09:49Z</time>
      </trkpt>
      <trkpt lat="43.43625" lon="6.00361">
        <ele>332.20001220703</ele>
        <time>2016-04-20T14:09:50Z</time>
      </trkpt>
      <trkpt lat="43.43628" lon="6.00355">
        <ele>332</ele>
        <time>2016-04-20T14:09:51Z</time>
      </trkpt>
      <trkpt lat="43.43633" lon="6.00345">
        <ele>331.20001220703</ele>
        <time>2016-04-20T14:09:53Z</time>
      </trkpt>
      <trkpt lat="43.4364" lon="6.00334">
        <ele>330.39999389648</ele>
        <time>2016-04-20T14:09:55Z</time>
      </trkpt>
      <trkpt lat="43.43644" lon="6.00329">
        <ele>330.20001220703</ele>
        <time>2016-04-20T14:09:56Z</time>
      </trkpt>
      <trkpt lat="43.43648" lon="6.00324">
        <ele>330</ele>
        <time>2016-04-20T14:09:57Z</time>
      </trkpt>
      <trkpt lat="43.43657" lon="6.00313">
        <ele>329.79998779297</ele>
        <time>2016-04-20T14:09:59Z</time>
      </trkpt>
      <trkpt lat="43.43665" lon="6.00302">
        <ele>329.20001220703</ele>
        <time>2016-04-20T14:10:01Z</time>
      </trkpt>
      <trkpt lat="43.43669" lon="6.00295">
        <ele>329</ele>
        <time>2016-04-20T14:10:02Z</time>
      </trkpt>
      <trkpt lat="43.43673" lon="6.00289">
        <ele>328.39999389648</ele>
        <time>2016-04-20T14:10:03Z</time>
      </trkpt>
      <trkpt lat="43.4368" lon="6.00279">
        <ele>328</ele>
        <time>2016-04-20T14:10:05Z</time>
      </trkpt>
      <trkpt lat="43.43683" lon="6.00274">
        <ele>328.20001220703</ele>
        <time>2016-04-20T14:10:06Z</time>
      </trkpt>
      <trkpt lat="43.43687" lon="6.00272">
        <ele>328</ele>
        <time>2016-04-20T14:10:07Z</time>
      </trkpt>
      <trkpt lat="43.43695" lon="6.00272">
        <ele>327.79998779297</ele>
        <time>2016-04-20T14:10:09Z</time>
      </trkpt>
      <trkpt lat="43.43703" lon="6.00276">
        <ele>327.60000610352</ele>
        <time>2016-04-20T14:10:11Z</time>
      </trkpt>
      <trkpt lat="43.43711" lon="6.00278">
        <ele>327.20001220703</ele>
        <time>2016-04-20T14:10:13Z</time>
      </trkpt>
      <trkpt lat="43.43716" lon="6.00279">
        <ele>327.20001220703</ele>
        <time>2016-04-20T14:10:14Z</time>
      </trkpt>
      <trkpt lat="43.43721" lon="6.00279">
        <ele>326.79998779297</ele>
        <time>2016-04-20T14:10:15Z</time>
      </trkpt>
      <trkpt lat="43.4373" lon="6.00277">
        <ele>326.39999389648</ele>
        <time>2016-04-20T14:10:17Z</time>
      </trkpt>
      <trkpt lat="43.43738" lon="6.00274">
        <ele>326</ele>
        <time>2016-04-20T14:10:19Z</time>
      </trkpt>
      <trkpt lat="43.43742" lon="6.00273">
        <ele>325.79998779297</ele>
        <time>2016-04-20T14:10:20Z</time>
      </trkpt>
      <trkpt lat="43.43744" lon="6.00272">
        <ele>325.79998779297</ele>
        <time>2016-04-20T14:10:21Z</time>
      </trkpt>
      <trkpt lat="43.43744" lon="6.00271">
        <ele>326</ele>
        <time>2016-04-20T14:10:22Z</time>
      </trkpt>
      <trkpt lat="43.43744" lon="6.00271">
        <ele>326</ele>
        <time>2016-04-20T14:10:23Z</time>
      </trkpt>
      <trkpt lat="43.43745" lon="6.0027">
        <ele>326</ele>
        <time>2016-04-20T14:10:25Z</time>
      </trkpt>
      <trkpt lat="43.43745" lon="6.0027">
        <ele>326.20001220703</ele>
        <time>2016-04-20T14:10:27Z</time>
      </trkpt>
      <trkpt lat="43.43745" lon="6.0027">
        <ele>326.39999389648</ele>
        <time>2016-04-20T14:10:29Z</time>
      </trkpt>
      <trkpt lat="43.43745" lon="6.0027">
        <ele>326.60000610352</ele>
        <time>2016-04-20T14:10:31Z</time>
      </trkpt>
      <trkpt lat="43.43745" lon="6.0027">
        <ele>326.79998779297</ele>
        <time>2016-04-20T14:10:33Z</time>
      </trkpt>
      <trkpt lat="43.43745" lon="6.0027">
        <ele>326.79998779297</ele>
        <time>2016-04-20T14:10:35Z</time>
      </trkpt>
      <trkpt lat="43.43745" lon="6.0027">
        <ele>326.60000610352</ele>
        <time>2016-04-20T14:10:37Z</time>
      </trkpt>
      <trkpt lat="43.43745" lon="6.0027">
        <ele>326.79998779297</ele>
        <time>2016-04-20T14:10:39Z</time>
      </trkpt>
      <trkpt lat="43.43745" lon="6.0027">
        <ele>326.60000610352</ele>
        <time>2016-04-20T14:10:41Z</time>
      </trkpt>
      <trkpt lat="43.43745" lon="6.0027">
        <ele>326.60000610352</ele>
        <time>2016-04-20T14:10:43Z</time>
      </trkpt>
      <trkpt lat="43.43745" lon="6.0027">
        <ele>326.60000610352</ele>
        <time>2016-04-20T14:10:45Z</time>
      </trkpt>
      <trkpt lat="43.43745" lon="6.0027">
        <ele>326.60000610352</ele>
        <time>2016-04-20T14:10:47Z</time>
      </trkpt>
      <trkpt lat="43.43745" lon="6.0027">
        <ele>326.39999389648</ele>
        <time>2016-04-20T14:10:48Z</time>
      </trkpt>
      <trkpt lat="43.43745" lon="6.0027">
        <ele>326.60000610352</ele>
        <time>2016-04-20T14:10:51Z</time>
      </trkpt>
      <trkpt lat="43.43745" lon="6.0027">
        <ele>326.60000610352</ele>
        <time>2016-04-20T14:10:53Z</time>
      </trkpt>
      <trkpt lat="43.43745" lon="6.0027">
        <ele>326.60000610352</ele>
        <time>2016-04-20T14:10:55Z</time>
      </trkpt>
      <trkpt lat="43.43745" lon="6.0027">
        <ele>326.60000610352</ele>
        <time>2016-04-20T14:10:57Z</time>
      </trkpt>
      <trkpt lat="43.43745" lon="6.0027">
        <ele>326.60000610352</ele>
        <time>2016-04-20T14:10:59Z</time>
      </trkpt>
      <trkpt lat="43.43745" lon="6.0027">
        <ele>326.60000610352</ele>
        <time>2016-04-20T14:11:01Z</time>
      </trkpt>
      <trkpt lat="43.43745" lon="6.0027">
        <ele>326.60000610352</ele>
        <time>2016-04-20T14:11:03Z</time>
      </trkpt>
      <trkpt lat="43.43745" lon="6.0027">
        <ele>326.60000610352</ele>
        <time>2016-04-20T14:11:05Z</time>
      </trkpt>
      <trkpt lat="43.43745" lon="6.0027">
        <ele>326.39999389648</ele>
        <time>2016-04-20T14:11:07Z</time>
      </trkpt>
      <trkpt lat="43.43745" lon="6.0027">
        <ele>326.39999389648</ele>
        <time>2016-04-20T14:11:09Z</time>
      </trkpt>
      <trkpt lat="43.43745" lon="6.0027">
        <ele>326.39999389648</ele>
        <time>2016-04-20T14:11:11Z</time>
      </trkpt>
      <trkpt lat="43.43745" lon="6.0027">
        <ele>326.39999389648</ele>
        <time>2016-04-20T14:11:13Z</time>
      </trkpt>
      <trkpt lat="43.43745" lon="6.0027">
        <ele>326.60000610352</ele>
        <time>2016-04-20T14:11:14Z</time>
      </trkpt>
      <trkpt lat="43.43745" lon="6.0027">
        <ele>326.60000610352</ele>
        <time>2016-04-20T14:11:15Z</time>
      </trkpt>
      <trkpt lat="43.43745" lon="6.0027">
        <ele>326.79998779297</ele>
        <time>2016-04-20T14:11:17Z</time>
      </trkpt>
      <trkpt lat="43.43745" lon="6.0027">
        <ele>327</ele>
        <time>2016-04-20T14:11:19Z</time>
      </trkpt>
      <trkpt lat="43.43748" lon="6.0027">
        <ele>327</ele>
        <time>2016-04-20T14:11:21Z</time>
      </trkpt>
      <trkpt lat="43.43749" lon="6.00271">
        <ele>327</ele>
        <time>2016-04-20T14:11:22Z</time>
      </trkpt>
      <trkpt lat="43.43749" lon="6.00271">
        <ele>326.79998779297</ele>
        <time>2016-04-20T14:11:23Z</time>
      </trkpt>
      <trkpt lat="43.43749" lon="6.0027">
        <ele>326.60000610352</ele>
        <time>2016-04-20T14:11:25Z</time>
      </trkpt>
      <trkpt lat="43.4375" lon="6.00271">
        <ele>326.60000610352</ele>
        <time>2016-04-20T14:11:27Z</time>
      </trkpt>
      <trkpt lat="43.43752" lon="6.00274">
        <ele>326.60000610352</ele>
        <time>2016-04-20T14:11:29Z</time>
      </trkpt>
      <trkpt lat="43.43753" lon="6.00279">
        <ele>326.60000610352</ele>
        <time>2016-04-20T14:11:31Z</time>
      </trkpt>
      <trkpt lat="43.43753" lon="6.00283">
        <ele>326.79998779297</ele>
        <time>2016-04-20T14:11:32Z</time>
      </trkpt>
      <trkpt lat="43.43754" lon="6.00286">
        <ele>326.79998779297</ele>
        <time>2016-04-20T14:11:33Z</time>
      </trkpt>
      <trkpt lat="43.43755" lon="6.00295">
        <ele>326.39999389648</ele>
        <time>2016-04-20T14:11:35Z</time>
      </trkpt>
      <trkpt lat="43.43756" lon="6.00303">
        <ele>326.20001220703</ele>
        <time>2016-04-20T14:11:37Z</time>
      </trkpt>
      <trkpt lat="43.43757" lon="6.00314">
        <ele>326</ele>
        <time>2016-04-20T14:11:39Z</time>
      </trkpt>
      <trkpt lat="43.43758" lon="6.00324">
        <ele>325.79998779297</ele>
        <time>2016-04-20T14:11:41Z</time>
      </trkpt>
      <trkpt lat="43.43759" lon="6.00334">
        <ele>325.79998779297</ele>
        <time>2016-04-20T14:11:43Z</time>
      </trkpt>
      <trkpt lat="43.43759" lon="6.00342">
        <ele>325.79998779297</ele>
        <time>2016-04-20T14:11:45Z</time>
      </trkpt>
      <trkpt lat="43.43758" lon="6.00346">
        <ele>325.60000610352</ele>
        <time>2016-04-20T14:11:46Z</time>
      </trkpt>
      <trkpt lat="43.43757" lon="6.0035">
        <ele>325.20001220703</ele>
        <time>2016-04-20T14:11:47Z</time>
      </trkpt>
      <trkpt lat="43.43755" lon="6.00359">
        <ele>324.60000610352</ele>
        <time>2016-04-20T14:11:49Z</time>
      </trkpt>
      <trkpt lat="43.43753" lon="6.0037">
        <ele>324.20001220703</ele>
        <time>2016-04-20T14:11:51Z</time>
      </trkpt>
      <trkpt lat="43.43753" lon="6.00375">
        <ele>324</ele>
        <time>2016-04-20T14:11:52Z</time>
      </trkpt>
      <trkpt lat="43.43754" lon="6.0038">
        <ele>323.79998779297</ele>
        <time>2016-04-20T14:11:53Z</time>
      </trkpt>
      <trkpt lat="43.43755" lon="6.0039">
        <ele>324</ele>
        <time>2016-04-20T14:11:55Z</time>
      </trkpt>
      <trkpt lat="43.43757" lon="6.00398">
        <ele>324.20001220703</ele>
        <time>2016-04-20T14:11:57Z</time>
      </trkpt>
      <trkpt lat="43.43758" lon="6.00402">
        <ele>324.20001220703</ele>
        <time>2016-04-20T14:11:58Z</time>
      </trkpt>
      <trkpt lat="43.43759" lon="6.00407">
        <ele>324.20001220703</ele>
        <time>2016-04-20T14:11:59Z</time>
      </trkpt>
      <trkpt lat="43.43758" lon="6.00417">
        <ele>323.60000610352</ele>
        <time>2016-04-20T14:12:01Z</time>
      </trkpt>
      <trkpt lat="43.43759" lon="6.00422">
        <ele>323.20001220703</ele>
        <time>2016-04-20T14:12:02Z</time>
      </trkpt>
      <trkpt lat="43.43759" lon="6.00426">
        <ele>322.79998779297</ele>
        <time>2016-04-20T14:12:03Z</time>
      </trkpt>
      <trkpt lat="43.4376" lon="6.00435">
        <ele>322.20001220703</ele>
        <time>2016-04-20T14:12:05Z</time>
      </trkpt>
      <trkpt lat="43.43761" lon="6.00444">
        <ele>322</ele>
        <time>2016-04-20T14:12:07Z</time>
      </trkpt>
      <trkpt lat="43.43763" lon="6.00449">
        <ele>322</ele>
        <time>2016-04-20T14:12:08Z</time>
      </trkpt>
      <trkpt lat="43.43764" lon="6.00455">
        <ele>322</ele>
        <time>2016-04-20T14:12:09Z</time>
      </trkpt>
      <trkpt lat="43.43768" lon="6.00465">
        <ele>322</ele>
        <time>2016-04-20T14:12:11Z</time>
      </trkpt>
      <trkpt lat="43.43772" lon="6.00477">
        <ele>322</ele>
        <time>2016-04-20T14:12:13Z</time>
      </trkpt>
      <trkpt lat="43.43774" lon="6.00483">
        <ele>321.79998779297</ele>
        <time>2016-04-20T14:12:14Z</time>
      </trkpt>
      <trkpt lat="43.43776" lon="6.00489">
        <ele>321.39999389648</ele>
        <time>2016-04-20T14:12:15Z</time>
      </trkpt>
      <trkpt lat="43.43777" lon="6.00495">
        <ele>320.79998779297</ele>
        <time>2016-04-20T14:12:16Z</time>
      </trkpt>
      <trkpt lat="43.43779" lon="6.00502">
        <ele>320.39999389648</ele>
        <time>2016-04-20T14:12:17Z</time>
      </trkpt>
      <trkpt lat="43.43781" lon="6.00508">
        <ele>320.20001220703</ele>
        <time>2016-04-20T14:12:18Z</time>
      </trkpt>
      <trkpt lat="43.43784" lon="6.00514">
        <ele>320.20001220703</ele>
        <time>2016-04-20T14:12:19Z</time>
      </trkpt>
      <trkpt lat="43.43792" lon="6.00519">
        <ele>319.60000610352</ele>
        <time>2016-04-20T14:12:21Z</time>
      </trkpt>
      <trkpt lat="43.43796" lon="6.00522">
        <ele>319.39999389648</ele>
        <time>2016-04-20T14:12:22Z</time>
      </trkpt>
      <trkpt lat="43.43801" lon="6.00526">
        <ele>319.39999389648</ele>
        <time>2016-04-20T14:12:23Z</time>
      </trkpt>
      <trkpt lat="43.43805" lon="6.0053">
        <ele>319.20001220703</ele>
        <time>2016-04-20T14:12:24Z</time>
      </trkpt>
      <trkpt lat="43.43809" lon="6.00535">
        <ele>318.79998779297</ele>
        <time>2016-04-20T14:12:25Z</time>
      </trkpt>
      <trkpt lat="43.43812" lon="6.00542">
        <ele>318</ele>
        <time>2016-04-20T14:12:26Z</time>
      </trkpt>
      <trkpt lat="43.43814" lon="6.00549">
        <ele>317.79998779297</ele>
        <time>2016-04-20T14:12:27Z</time>
      </trkpt>
      <trkpt lat="43.43815" lon="6.00564">
        <ele>317.60000610352</ele>
        <time>2016-04-20T14:12:29Z</time>
      </trkpt>
      <trkpt lat="43.43816" lon="6.00572">
        <ele>317.79998779297</ele>
        <time>2016-04-20T14:12:30Z</time>
      </trkpt>
      <trkpt lat="43.43818" lon="6.00578">
        <ele>317.79998779297</ele>
        <time>2016-04-20T14:12:31Z</time>
      </trkpt>
      <trkpt lat="43.43824" lon="6.00591">
        <ele>317.79998779297</ele>
        <time>2016-04-20T14:12:33Z</time>
      </trkpt>
      <trkpt lat="43.43827" lon="6.00596">
        <ele>317.79998779297</ele>
        <time>2016-04-20T14:12:34Z</time>
      </trkpt>
      <trkpt lat="43.4383" lon="6.00601">
        <ele>317.60000610352</ele>
        <time>2016-04-20T14:12:35Z</time>
      </trkpt>
      <trkpt lat="43.43832" lon="6.00606">
        <ele>317.20001220703</ele>
        <time>2016-04-20T14:12:36Z</time>
      </trkpt>
      <trkpt lat="43.43835" lon="6.0061">
        <ele>317.20001220703</ele>
        <time>2016-04-20T14:12:37Z</time>
      </trkpt>
      <trkpt lat="43.43839" lon="6.00615">
        <ele>317</ele>
        <time>2016-04-20T14:12:38Z</time>
      </trkpt>
      <trkpt lat="43.43841" lon="6.0062">
        <ele>317</ele>
        <time>2016-04-20T14:12:39Z</time>
      </trkpt>
      <trkpt lat="43.43843" lon="6.0063">
        <ele>316.60000610352</ele>
        <time>2016-04-20T14:12:41Z</time>
      </trkpt>
      <trkpt lat="43.43843" lon="6.00633">
        <ele>316.79998779297</ele>
        <time>2016-04-20T14:12:42Z</time>
      </trkpt>
      <trkpt lat="43.43842" lon="6.00636">
        <ele>317</ele>
        <time>2016-04-20T14:12:43Z</time>
      </trkpt>
      <trkpt lat="43.4384" lon="6.00642">
        <ele>317.39999389648</ele>
        <time>2016-04-20T14:12:45Z</time>
      </trkpt>
      <trkpt lat="43.4384" lon="6.00645">
        <ele>317.79998779297</ele>
        <time>2016-04-20T14:12:46Z</time>
      </trkpt>
      <trkpt lat="43.43839" lon="6.00648">
        <ele>318.20001220703</ele>
        <time>2016-04-20T14:12:47Z</time>
      </trkpt>
      <trkpt lat="43.43838" lon="6.00651">
        <ele>318.39999389648</ele>
        <time>2016-04-20T14:12:48Z</time>
      </trkpt>
      <trkpt lat="43.43837" lon="6.00653">
        <ele>318.79998779297</ele>
        <time>2016-04-20T14:12:49Z</time>
      </trkpt>
      <trkpt lat="43.43837" lon="6.00656">
        <ele>319.20001220703</ele>
        <time>2016-04-20T14:12:50Z</time>
      </trkpt>
      <trkpt lat="43.43836" lon="6.00659">
        <ele>319.60000610352</ele>
        <time>2016-04-20T14:12:51Z</time>
      </trkpt>
      <trkpt lat="43.43835" lon="6.00665">
        <ele>319.79998779297</ele>
        <time>2016-04-20T14:12:53Z</time>
      </trkpt>
      <trkpt lat="43.43834" lon="6.0067">
        <ele>320</ele>
        <time>2016-04-20T14:12:55Z</time>
      </trkpt>
      <trkpt lat="43.43834" lon="6.00672">
        <ele>320</ele>
        <time>2016-04-20T14:12:56Z</time>
      </trkpt>
      <trkpt lat="43.43834" lon="6.00674">
        <ele>320</ele>
        <time>2016-04-20T14:12:57Z</time>
      </trkpt>
      <trkpt lat="43.43833" lon="6.00675">
        <ele>320.20001220703</ele>
        <time>2016-04-20T14:12:58Z</time>
      </trkpt>
      <trkpt lat="43.43833" lon="6.00678">
        <ele>320.39999389648</ele>
        <time>2016-04-20T14:12:59Z</time>
      </trkpt>
      <trkpt lat="43.43832" lon="6.00683">
        <ele>320.39999389648</ele>
        <time>2016-04-20T14:13:01Z</time>
      </trkpt>
      <trkpt lat="43.43831" lon="6.00688">
        <ele>320.20001220703</ele>
        <time>2016-04-20T14:13:03Z</time>
      </trkpt>
      <trkpt lat="43.43831" lon="6.00696">
        <ele>320</ele>
        <time>2016-04-20T14:13:05Z</time>
      </trkpt>
      <trkpt lat="43.4383" lon="6.00705">
        <ele>319.60000610352</ele>
        <time>2016-04-20T14:13:07Z</time>
      </trkpt>
      <trkpt lat="43.4383" lon="6.00711">
        <ele>319.20001220703</ele>
        <time>2016-04-20T14:13:08Z</time>
      </trkpt>
      <trkpt lat="43.4383" lon="6.00718">
        <ele>318.79998779297</ele>
        <time>2016-04-20T14:13:09Z</time>
      </trkpt>
      <trkpt lat="43.4383" lon="6.00732">
        <ele>318.20001220703</ele>
        <time>2016-04-20T14:13:11Z</time>
      </trkpt>
      <trkpt lat="43.4383" lon="6.0074">
        <ele>318</ele>
        <time>2016-04-20T14:13:12Z</time>
      </trkpt>
      <trkpt lat="43.4383" lon="6.00748">
        <ele>318</ele>
        <time>2016-04-20T14:13:13Z</time>
      </trkpt>
      <trkpt lat="43.4383" lon="6.00766">
        <ele>317.39999389648</ele>
        <time>2016-04-20T14:13:15Z</time>
      </trkpt>
      <trkpt lat="43.4383" lon="6.00786">
        <ele>316.79998779297</ele>
        <time>2016-04-20T14:13:17Z</time>
      </trkpt>
      <trkpt lat="43.4383" lon="6.00795">
        <ele>316.39999389648</ele>
        <time>2016-04-20T14:13:18Z</time>
      </trkpt>
      <trkpt lat="43.43829" lon="6.00804">
        <ele>315.60000610352</ele>
        <time>2016-04-20T14:13:19Z</time>
      </trkpt>
      <trkpt lat="43.43825" lon="6.0082">
        <ele>315</ele>
        <time>2016-04-20T14:13:21Z</time>
      </trkpt>
      <trkpt lat="43.43821" lon="6.00834">
        <ele>314.60000610352</ele>
        <time>2016-04-20T14:13:23Z</time>
      </trkpt>
      <trkpt lat="43.43819" lon="6.0084">
        <ele>314.60000610352</ele>
        <time>2016-04-20T14:13:24Z</time>
      </trkpt>
      <trkpt lat="43.43817" lon="6.00847">
        <ele>314.79998779297</ele>
        <time>2016-04-20T14:13:25Z</time>
      </trkpt>
      <trkpt lat="43.43814" lon="6.00859">
        <ele>314.79998779297</ele>
        <time>2016-04-20T14:13:27Z</time>
      </trkpt>
      <trkpt lat="43.43814" lon="6.00865">
        <ele>315</ele>
        <time>2016-04-20T14:13:28Z</time>
      </trkpt>
      <trkpt lat="43.43813" lon="6.00871">
        <ele>315</ele>
        <time>2016-04-20T14:13:29Z</time>
      </trkpt>
      <trkpt lat="43.43813" lon="6.00878">
        <ele>315</ele>
        <time>2016-04-20T14:13:30Z</time>
      </trkpt>
      <trkpt lat="43.43812" lon="6.00885">
        <ele>315</ele>
        <time>2016-04-20T14:13:31Z</time>
      </trkpt>
      <trkpt lat="43.43813" lon="6.00901">
        <ele>314</ele>
        <time>2016-04-20T14:13:33Z</time>
      </trkpt>
      <trkpt lat="43.43815" lon="6.00909">
        <ele>313.79998779297</ele>
        <time>2016-04-20T14:13:34Z</time>
      </trkpt>
      <trkpt lat="43.43816" lon="6.00918">
        <ele>313.60000610352</ele>
        <time>2016-04-20T14:13:35Z</time>
      </trkpt>
      <trkpt lat="43.43821" lon="6.00936">
        <ele>313.60000610352</ele>
        <time>2016-04-20T14:13:37Z</time>
      </trkpt>
      <trkpt lat="43.43827" lon="6.00955">
        <ele>312.39999389648</ele>
        <time>2016-04-20T14:13:39Z</time>
      </trkpt>
      <trkpt lat="43.43829" lon="6.00965">
        <ele>311.60000610352</ele>
        <time>2016-04-20T14:13:40Z</time>
      </trkpt>
      <trkpt lat="43.4383" lon="6.00975">
        <ele>310.79998779297</ele>
        <time>2016-04-20T14:13:41Z</time>
      </trkpt>
      <trkpt lat="43.4383" lon="6.00996">
        <ele>309.39999389648</ele>
        <time>2016-04-20T14:13:43Z</time>
      </trkpt>
      <trkpt lat="43.43826" lon="6.01015">
        <ele>308</ele>
        <time>2016-04-20T14:13:45Z</time>
      </trkpt>
      <trkpt lat="43.43821" lon="6.01032">
        <ele>307.39999389648</ele>
        <time>2016-04-20T14:13:47Z</time>
      </trkpt>
      <trkpt lat="43.43816" lon="6.01048">
        <ele>307.79998779297</ele>
        <time>2016-04-20T14:13:49Z</time>
      </trkpt>
      <trkpt lat="43.43813" lon="6.01056">
        <ele>308.20001220703</ele>
        <time>2016-04-20T14:13:50Z</time>
      </trkpt>
      <trkpt lat="43.4381" lon="6.01064">
        <ele>308.39999389648</ele>
        <time>2016-04-20T14:13:51Z</time>
      </trkpt>
      <trkpt lat="43.43805" lon="6.01079">
        <ele>308.60000610352</ele>
        <time>2016-04-20T14:13:53Z</time>
      </trkpt>
      <trkpt lat="43.438" lon="6.01093">
        <ele>308.79998779297</ele>
        <time>2016-04-20T14:13:55Z</time>
      </trkpt>
      <trkpt lat="43.43796" lon="6.01104">
        <ele>309</ele>
        <time>2016-04-20T14:13:57Z</time>
      </trkpt>
      <trkpt lat="43.43794" lon="6.01109">
        <ele>309.20001220703</ele>
        <time>2016-04-20T14:13:58Z</time>
      </trkpt>
      <trkpt lat="43.43792" lon="6.01114">
        <ele>309</ele>
        <time>2016-04-20T14:13:59Z</time>
      </trkpt>
      <trkpt lat="43.43791" lon="6.01118">
        <ele>309</ele>
        <time>2016-04-20T14:14:00Z</time>
      </trkpt>
      <trkpt lat="43.43789" lon="6.01122">
        <ele>309.20001220703</ele>
        <time>2016-04-20T14:14:01Z</time>
      </trkpt>
      <trkpt lat="43.43786" lon="6.01131">
        <ele>309.20001220703</ele>
        <time>2016-04-20T14:14:03Z</time>
      </trkpt>
      <trkpt lat="43.43782" lon="6.01141">
        <ele>309.20001220703</ele>
        <time>2016-04-20T14:14:05Z</time>
      </trkpt>
      <trkpt lat="43.43779" lon="6.01151">
        <ele>309.20001220703</ele>
        <time>2016-04-20T14:14:07Z</time>
      </trkpt>
      <trkpt lat="43.43775" lon="6.01162">
        <ele>309</ele>
        <time>2016-04-20T14:14:09Z</time>
      </trkpt>
      <trkpt lat="43.43771" lon="6.01174">
        <ele>308.60000610352</ele>
        <time>2016-04-20T14:14:11Z</time>
      </trkpt>
      <trkpt lat="43.43768" lon="6.01185">
        <ele>308.39999389648</ele>
        <time>2016-04-20T14:14:13Z</time>
      </trkpt>
      <trkpt lat="43.43768" lon="6.0119">
        <ele>308.20001220703</ele>
        <time>2016-04-20T14:14:14Z</time>
      </trkpt>
      <trkpt lat="43.43767" lon="6.01196">
        <ele>308.20001220703</ele>
        <time>2016-04-20T14:14:15Z</time>
      </trkpt>
      <trkpt lat="43.43767" lon="6.01203">
        <ele>308</ele>
        <time>2016-04-20T14:14:16Z</time>
      </trkpt>
      <trkpt lat="43.43767" lon="6.01211">
        <ele>308</ele>
        <time>2016-04-20T14:14:17Z</time>
      </trkpt>
      <trkpt lat="43.43768" lon="6.0123">
        <ele>307.39999389648</ele>
        <time>2016-04-20T14:14:19Z</time>
      </trkpt>
      <trkpt lat="43.43768" lon="6.01241">
        <ele>306.79998779297</ele>
        <time>2016-04-20T14:14:20Z</time>
      </trkpt>
      <trkpt lat="43.43769" lon="6.01252">
        <ele>306.20001220703</ele>
        <time>2016-04-20T14:14:21Z</time>
      </trkpt>
      <trkpt lat="43.43773" lon="6.01273">
        <ele>305.39999389648</ele>
        <time>2016-04-20T14:14:23Z</time>
      </trkpt>
      <trkpt lat="43.43775" lon="6.01284">
        <ele>304.79998779297</ele>
        <time>2016-04-20T14:14:24Z</time>
      </trkpt>
      <trkpt lat="43.43777" lon="6.01295">
        <ele>304.39999389648</ele>
        <time>2016-04-20T14:14:25Z</time>
      </trkpt>
      <trkpt lat="43.43779" lon="6.01306">
        <ele>303.60000610352</ele>
        <time>2016-04-20T14:14:26Z</time>
      </trkpt>
      <trkpt lat="43.4378" lon="6.01318">
        <ele>303</ele>
        <time>2016-04-20T14:14:27Z</time>
      </trkpt>
      <trkpt lat="43.43782" lon="6.0133">
        <ele>302.39999389648</ele>
        <time>2016-04-20T14:14:28Z</time>
      </trkpt>
      <trkpt lat="43.43783" lon="6.01342">
        <ele>302</ele>
        <time>2016-04-20T14:14:29Z</time>
      </trkpt>
      <trkpt lat="43.43785" lon="6.01363">
        <ele>301.60000610352</ele>
        <time>2016-04-20T14:14:31Z</time>
      </trkpt>
      <trkpt lat="43.43785" lon="6.01384">
        <ele>302</ele>
        <time>2016-04-20T14:14:33Z</time>
      </trkpt>
      <trkpt lat="43.43785" lon="6.01395">
        <ele>302.20001220703</ele>
        <time>2016-04-20T14:14:34Z</time>
      </trkpt>
      <trkpt lat="43.43786" lon="6.01406">
        <ele>302.20001220703</ele>
        <time>2016-04-20T14:14:35Z</time>
      </trkpt>
      <trkpt lat="43.43787" lon="6.01428">
        <ele>301.60000610352</ele>
        <time>2016-04-20T14:14:37Z</time>
      </trkpt>
      <trkpt lat="43.43788" lon="6.01447">
        <ele>301.39999389648</ele>
        <time>2016-04-20T14:14:39Z</time>
      </trkpt>
      <trkpt lat="43.43789" lon="6.01457">
        <ele>301.60000610352</ele>
        <time>2016-04-20T14:14:40Z</time>
      </trkpt>
      <trkpt lat="43.43789" lon="6.01466">
        <ele>301.60000610352</ele>
        <time>2016-04-20T14:14:41Z</time>
      </trkpt>
      <trkpt lat="43.43788" lon="6.01485">
        <ele>301.60000610352</ele>
        <time>2016-04-20T14:14:43Z</time>
      </trkpt>
      <trkpt lat="43.43786" lon="6.01506">
        <ele>301</ele>
        <time>2016-04-20T14:14:45Z</time>
      </trkpt>
      <trkpt lat="43.43782" lon="6.01527">
        <ele>300</ele>
        <time>2016-04-20T14:14:47Z</time>
      </trkpt>
      <trkpt lat="43.43781" lon="6.01537">
        <ele>299.39999389648</ele>
        <time>2016-04-20T14:14:48Z</time>
      </trkpt>
      <trkpt lat="43.43779" lon="6.01547">
        <ele>299</ele>
        <time>2016-04-20T14:14:49Z</time>
      </trkpt>
      <trkpt lat="43.43775" lon="6.01564">
        <ele>299.39999389648</ele>
        <time>2016-04-20T14:14:51Z</time>
      </trkpt>
      <trkpt lat="43.43771" lon="6.0158">
        <ele>299.60000610352</ele>
        <time>2016-04-20T14:14:53Z</time>
      </trkpt>
      <trkpt lat="43.43767" lon="6.01596">
        <ele>300</ele>
        <time>2016-04-20T14:14:55Z</time>
      </trkpt>
      <trkpt lat="43.43763" lon="6.01611">
        <ele>300</ele>
        <time>2016-04-20T14:14:57Z</time>
      </trkpt>
      <trkpt lat="43.43761" lon="6.01618">
        <ele>300</ele>
        <time>2016-04-20T14:14:58Z</time>
      </trkpt>
      <trkpt lat="43.43759" lon="6.01625">
        <ele>300</ele>
        <time>2016-04-20T14:14:59Z</time>
      </trkpt>
      <trkpt lat="43.43755" lon="6.01637">
        <ele>300</ele>
        <time>2016-04-20T14:15:01Z</time>
      </trkpt>
      <trkpt lat="43.43752" lon="6.01648">
        <ele>300.39999389648</ele>
        <time>2016-04-20T14:15:03Z</time>
      </trkpt>
      <trkpt lat="43.4375" lon="6.01653">
        <ele>300.39999389648</ele>
        <time>2016-04-20T14:15:04Z</time>
      </trkpt>
      <trkpt lat="43.43749" lon="6.01657">
        <ele>300.60000610352</ele>
        <time>2016-04-20T14:15:05Z</time>
      </trkpt>
      <trkpt lat="43.43747" lon="6.01666">
        <ele>300.60000610352</ele>
        <time>2016-04-20T14:15:07Z</time>
      </trkpt>
      <trkpt lat="43.43745" lon="6.01673">
        <ele>300.79998779297</ele>
        <time>2016-04-20T14:15:09Z</time>
      </trkpt>
      <trkpt lat="43.43745" lon="6.01676">
        <ele>300.79998779297</ele>
        <time>2016-04-20T14:15:10Z</time>
      </trkpt>
      <trkpt lat="43.43744" lon="6.0168">
        <ele>301</ele>
        <time>2016-04-20T14:15:11Z</time>
      </trkpt>
      <trkpt lat="43.43745" lon="6.01685">
        <ele>300.79998779297</ele>
        <time>2016-04-20T14:15:13Z</time>
      </trkpt>
      <trkpt lat="43.43745" lon="6.01688">
        <ele>300.79998779297</ele>
        <time>2016-04-20T14:15:15Z</time>
      </trkpt>
      <trkpt lat="43.43745" lon="6.01688">
        <ele>300.79998779297</ele>
        <time>2016-04-20T14:15:17Z</time>
      </trkpt>
      <trkpt lat="43.43745" lon="6.01687">
        <ele>300.79998779297</ele>
        <time>2016-04-20T14:15:19Z</time>
      </trkpt>
      <trkpt lat="43.43745" lon="6.01687">
        <ele>300.60000610352</ele>
        <time>2016-04-20T14:15:21Z</time>
      </trkpt>
      <trkpt lat="43.43745" lon="6.01687">
        <ele>300.60000610352</ele>
        <time>2016-04-20T14:15:23Z</time>
      </trkpt>
      <trkpt lat="43.43745" lon="6.01687">
        <ele>300.60000610352</ele>
        <time>2016-04-20T14:15:24Z</time>
      </trkpt>
      <trkpt lat="43.43745" lon="6.01687">
        <ele>300.39999389648</ele>
        <time>2016-04-20T14:15:25Z</time>
      </trkpt>
      <trkpt lat="43.43745" lon="6.01687">
        <ele>300.60000610352</ele>
        <time>2016-04-20T14:15:27Z</time>
      </trkpt>
      <trkpt lat="43.43745" lon="6.01687">
        <ele>300.60000610352</ele>
        <time>2016-04-20T14:15:29Z</time>
      </trkpt>
      <trkpt lat="43.43745" lon="6.01687">
        <ele>300.60000610352</ele>
        <time>2016-04-20T14:15:31Z</time>
      </trkpt>
      <trkpt lat="43.43745" lon="6.01687">
        <ele>300.60000610352</ele>
        <time>2016-04-20T14:15:33Z</time>
      </trkpt>
      <trkpt lat="43.43745" lon="6.01687">
        <ele>300.60000610352</ele>
        <time>2016-04-20T14:15:35Z</time>
      </trkpt>
      <trkpt lat="43.43745" lon="6.01687">
        <ele>300.60000610352</ele>
        <time>2016-04-20T14:15:37Z</time>
      </trkpt>
      <trkpt lat="43.43745" lon="6.01687">
        <ele>300.60000610352</ele>
        <time>2016-04-20T14:15:39Z</time>
      </trkpt>
      <trkpt lat="43.43745" lon="6.01688">
        <ele>300.60000610352</ele>
        <time>2016-04-20T14:15:41Z</time>
      </trkpt>
      <trkpt lat="43.43745" lon="6.01688">
        <ele>300.79998779297</ele>
        <time>2016-04-20T14:15:43Z</time>
      </trkpt>
      <trkpt lat="43.43745" lon="6.01687">
        <ele>300.79998779297</ele>
        <time>2016-04-20T14:15:45Z</time>
      </trkpt>
      <trkpt lat="43.43745" lon="6.01687">
        <ele>301</ele>
        <time>2016-04-20T14:15:47Z</time>
      </trkpt>
      <trkpt lat="43.43745" lon="6.01687">
        <ele>301</ele>
        <time>2016-04-20T14:15:49Z</time>
      </trkpt>
      <trkpt lat="43.43745" lon="6.01687">
        <ele>301</ele>
        <time>2016-04-20T14:15:51Z</time>
      </trkpt>
      <trkpt lat="43.43745" lon="6.01687">
        <ele>301</ele>
        <time>2016-04-20T14:15:53Z</time>
      </trkpt>
      <trkpt lat="43.43745" lon="6.01687">
        <ele>301</ele>
        <time>2016-04-20T14:15:54Z</time>
      </trkpt>
      <trkpt lat="43.43745" lon="6.01687">
        <ele>301</ele>
        <time>2016-04-20T14:15:55Z</time>
      </trkpt>
      <trkpt lat="43.43745" lon="6.01687">
        <ele>301</ele>
        <time>2016-04-20T14:15:57Z</time>
      </trkpt>
      <trkpt lat="43.43745" lon="6.01687">
        <ele>300.79998779297</ele>
        <time>2016-04-20T14:15:59Z</time>
      </trkpt>
      <trkpt lat="43.43745" lon="6.01687">
        <ele>300.60000610352</ele>
        <time>2016-04-20T14:16:01Z</time>
      </trkpt>
      <trkpt lat="43.43745" lon="6.01687">
        <ele>300.39999389648</ele>
        <time>2016-04-20T14:16:03Z</time>
      </trkpt>
      <trkpt lat="43.43745" lon="6.01687">
        <ele>300.39999389648</ele>
        <time>2016-04-20T14:16:05Z</time>
      </trkpt>
      <trkpt lat="43.43745" lon="6.01687">
        <ele>300.39999389648</ele>
        <time>2016-04-20T14:16:07Z</time>
      </trkpt>
      <trkpt lat="43.43745" lon="6.01687">
        <ele>300.39999389648</ele>
        <time>2016-04-20T14:16:09Z</time>
      </trkpt>
      <trkpt lat="43.43745" lon="6.01687">
        <ele>300.39999389648</ele>
        <time>2016-04-20T14:16:11Z</time>
      </trkpt>
      <trkpt lat="43.43745" lon="6.01687">
        <ele>300.60000610352</ele>
        <time>2016-04-20T14:16:12Z</time>
      </trkpt>
      <trkpt lat="43.43745" lon="6.01687">
        <ele>300.60000610352</ele>
        <time>2016-04-20T14:16:13Z</time>
      </trkpt>
      <trkpt lat="43.43745" lon="6.01687">
        <ele>300.60000610352</ele>
        <time>2016-04-20T14:16:15Z</time>
      </trkpt>
      <trkpt lat="43.43745" lon="6.01687">
        <ele>300.39999389648</ele>
        <time>2016-04-20T14:16:17Z</time>
      </trkpt>
      <trkpt lat="43.43745" lon="6.01687">
        <ele>300.39999389648</ele>
        <time>2016-04-20T14:16:19Z</time>
      </trkpt>
      <trkpt lat="43.43745" lon="6.01687">
        <ele>300.39999389648</ele>
        <time>2016-04-20T14:16:21Z</time>
      </trkpt>
      <trkpt lat="43.43745" lon="6.01687">
        <ele>300.39999389648</ele>
        <time>2016-04-20T14:16:23Z</time>
      </trkpt>
      <trkpt lat="43.43745" lon="6.01687">
        <ele>300.20001220703</ele>
        <time>2016-04-20T14:16:25Z</time>
      </trkpt>
      <trkpt lat="43.43745" lon="6.01687">
        <ele>300.20001220703</ele>
        <time>2016-04-20T14:16:27Z</time>
      </trkpt>
      <trkpt lat="43.43745" lon="6.01687">
        <ele>300.20001220703</ele>
        <time>2016-04-20T14:16:29Z</time>
      </trkpt>
      <trkpt lat="43.43745" lon="6.01687">
        <ele>300.20001220703</ele>
        <time>2016-04-20T14:16:31Z</time>
      </trkpt>
      <trkpt lat="43.43745" lon="6.01687">
        <ele>300</ele>
        <time>2016-04-20T14:16:33Z</time>
      </trkpt>
      <trkpt lat="43.43745" lon="6.01687">
        <ele>300</ele>
        <time>2016-04-20T14:16:35Z</time>
      </trkpt>
      <trkpt lat="43.43745" lon="6.01687">
        <ele>300.20001220703</ele>
        <time>2016-04-20T14:16:37Z</time>
      </trkpt>
      <trkpt lat="43.43745" lon="6.01687">
        <ele>300.39999389648</ele>
        <time>2016-04-20T14:16:39Z</time>
      </trkpt>
      <trkpt lat="43.43745" lon="6.01687">
        <ele>300.20001220703</ele>
        <time>2016-04-20T14:16:41Z</time>
      </trkpt>
      <trkpt lat="43.43746" lon="6.01688">
        <ele>300.20001220703</ele>
        <time>2016-04-20T14:16:43Z</time>
      </trkpt>
      <trkpt lat="43.4375" lon="6.0169">
        <ele>300.20001220703</ele>
        <time>2016-04-20T14:16:45Z</time>
      </trkpt>
      <trkpt lat="43.43757" lon="6.01693">
        <ele>300</ele>
        <time>2016-04-20T14:16:47Z</time>
      </trkpt>
      <trkpt lat="43.43764" lon="6.01696">
        <ele>299.79998779297</ele>
        <time>2016-04-20T14:16:49Z</time>
      </trkpt>
      <trkpt lat="43.43773" lon="6.01701">
        <ele>299.60000610352</ele>
        <time>2016-04-20T14:16:51Z</time>
      </trkpt>
      <trkpt lat="43.43779" lon="6.01702">
        <ele>299.39999389648</ele>
        <time>2016-04-20T14:16:52Z</time>
      </trkpt>
      <trkpt lat="43.43785" lon="6.01703">
        <ele>298.79998779297</ele>
        <time>2016-04-20T14:16:53Z</time>
      </trkpt>
      <trkpt lat="43.43797" lon="6.01701">
        <ele>297.79998779297</ele>
        <time>2016-04-20T14:16:55Z</time>
      </trkpt>
      <trkpt lat="43.43803" lon="6.017">
        <ele>297.60000610352</ele>
        <time>2016-04-20T14:16:56Z</time>
      </trkpt>
      <trkpt lat="43.4381" lon="6.01697">
        <ele>297.20001220703</ele>
        <time>2016-04-20T14:16:57Z</time>
      </trkpt>
      <trkpt lat="43.43821" lon="6.01692">
        <ele>297</ele>
        <time>2016-04-20T14:16:59Z</time>
      </trkpt>
      <trkpt lat="43.43832" lon="6.01687">
        <ele>296.60000610352</ele>
        <time>2016-04-20T14:17:01Z</time>
      </trkpt>
      <trkpt lat="43.43837" lon="6.01684">
        <ele>296.39999389648</ele>
        <time>2016-04-20T14:17:02Z</time>
      </trkpt>
      <trkpt lat="43.43842" lon="6.0168">
        <ele>296.39999389648</ele>
        <time>2016-04-20T14:17:03Z</time>
      </trkpt>
      <trkpt lat="43.43851" lon="6.01672">
        <ele>296</ele>
        <time>2016-04-20T14:17:05Z</time>
      </trkpt>
      <trkpt lat="43.43855" lon="6.01668">
        <ele>295.79998779297</ele>
        <time>2016-04-20T14:17:06Z</time>
      </trkpt>
      <trkpt lat="43.43859" lon="6.01665">
        <ele>295.79998779297</ele>
        <time>2016-04-20T14:17:07Z</time>
      </trkpt>
      <trkpt lat="43.43863" lon="6.01664">
        <ele>295.60000610352</ele>
        <time>2016-04-20T14:17:08Z</time>
      </trkpt>
      <trkpt lat="43.43866" lon="6.01665">
        <ele>295.39999389648</ele>
        <time>2016-04-20T14:17:09Z</time>
      </trkpt>
      <trkpt lat="43.43867" lon="6.01672">
        <ele>295.20001220703</ele>
        <time>2016-04-20T14:17:11Z</time>
      </trkpt>
      <trkpt lat="43.43867" lon="6.01677">
        <ele>295.20001220703</ele>
        <time>2016-04-20T14:17:12Z</time>
      </trkpt>
      <trkpt lat="43.43867" lon="6.01682">
        <ele>295</ele>
        <time>2016-04-20T14:17:13Z</time>
      </trkpt>
      <trkpt lat="43.43867" lon="6.01694">
        <ele>294.79998779297</ele>
        <time>2016-04-20T14:17:15Z</time>
      </trkpt>
      <trkpt lat="43.43867" lon="6.017">
        <ele>294.79998779297</ele>
        <time>2016-04-20T14:17:16Z</time>
      </trkpt>
      <trkpt lat="43.43869" lon="6.01706">
        <ele>294.60000610352</ele>
        <time>2016-04-20T14:17:17Z</time>
      </trkpt>
      <trkpt lat="43.43871" lon="6.01713">
        <ele>294.39999389648</ele>
        <time>2016-04-20T14:17:18Z</time>
      </trkpt>
      <trkpt lat="43.43872" lon="6.01719">
        <ele>294.20001220703</ele>
        <time>2016-04-20T14:17:19Z</time>
      </trkpt>
      <trkpt lat="43.43877" lon="6.01732">
        <ele>293.79998779297</ele>
        <time>2016-04-20T14:17:21Z</time>
      </trkpt>
      <trkpt lat="43.43881" lon="6.01747">
        <ele>293.60000610352</ele>
        <time>2016-04-20T14:17:23Z</time>
      </trkpt>
      <trkpt lat="43.43883" lon="6.01755">
        <ele>293.39999389648</ele>
        <time>2016-04-20T14:17:24Z</time>
      </trkpt>
      <trkpt lat="43.43884" lon="6.01763">
        <ele>293</ele>
        <time>2016-04-20T14:17:25Z</time>
      </trkpt>
      <trkpt lat="43.43882" lon="6.01778">
        <ele>292.60000610352</ele>
        <time>2016-04-20T14:17:27Z</time>
      </trkpt>
      <trkpt lat="43.4388" lon="6.01786">
        <ele>292.20001220703</ele>
        <time>2016-04-20T14:17:28Z</time>
      </trkpt>
      <trkpt lat="43.43878" lon="6.01794">
        <ele>291.79998779297</ele>
        <time>2016-04-20T14:17:29Z</time>
      </trkpt>
      <trkpt lat="43.43876" lon="6.01803">
        <ele>291.39999389648</ele>
        <time>2016-04-20T14:17:30Z</time>
      </trkpt>
      <trkpt lat="43.43875" lon="6.01813">
        <ele>291</ele>
        <time>2016-04-20T14:17:31Z</time>
      </trkpt>
      <trkpt lat="43.43874" lon="6.01824">
        <ele>290.39999389648</ele>
        <time>2016-04-20T14:17:32Z</time>
      </trkpt>
      <trkpt lat="43.43874" lon="6.01834">
        <ele>289.79998779297</ele>
        <time>2016-04-20T14:17:33Z</time>
      </trkpt>
      <trkpt lat="43.43871" lon="6.01856">
        <ele>288.20001220703</ele>
        <time>2016-04-20T14:17:35Z</time>
      </trkpt>
      <trkpt lat="43.43868" lon="6.01878">
        <ele>287.60000610352</ele>
        <time>2016-04-20T14:17:37Z</time>
      </trkpt>
      <trkpt lat="43.43864" lon="6.019">
        <ele>287.39999389648</ele>
        <time>2016-04-20T14:17:39Z</time>
      </trkpt>
      <trkpt lat="43.43862" lon="6.01911">
        <ele>287.20001220703</ele>
        <time>2016-04-20T14:17:40Z</time>
      </trkpt>
      <trkpt lat="43.43859" lon="6.01921">
        <ele>287</ele>
        <time>2016-04-20T14:17:41Z</time>
      </trkpt>
      <trkpt lat="43.43856" lon="6.01931">
        <ele>287</ele>
        <time>2016-04-20T14:17:42Z</time>
      </trkpt>
      <trkpt lat="43.43852" lon="6.01939">
        <ele>286.79998779297</ele>
        <time>2016-04-20T14:17:43Z</time>
      </trkpt>
      <trkpt lat="43.43843" lon="6.01956">
        <ele>286.20001220703</ele>
        <time>2016-04-20T14:17:45Z</time>
      </trkpt>
      <trkpt lat="43.4384" lon="6.01964">
        <ele>286.20001220703</ele>
        <time>2016-04-20T14:17:46Z</time>
      </trkpt>
      <trkpt lat="43.43837" lon="6.01972">
        <ele>286</ele>
        <time>2016-04-20T14:17:47Z</time>
      </trkpt>
      <trkpt lat="43.43835" lon="6.01988">
        <ele>286</ele>
        <time>2016-04-20T14:17:49Z</time>
      </trkpt>
      <trkpt lat="43.43834" lon="6.02007">
        <ele>286.39999389648</ele>
        <time>2016-04-20T14:17:51Z</time>
      </trkpt>
      <trkpt lat="43.43833" lon="6.02017">
        <ele>286.39999389648</ele>
        <time>2016-04-20T14:17:52Z</time>
      </trkpt>
      <trkpt lat="43.43832" lon="6.02026">
        <ele>286.39999389648</ele>
        <time>2016-04-20T14:17:53Z</time>
      </trkpt>
      <trkpt lat="43.4383" lon="6.02044">
        <ele>286</ele>
        <time>2016-04-20T14:17:55Z</time>
      </trkpt>
      <trkpt lat="43.43829" lon="6.02052">
        <ele>285.79998779297</ele>
        <time>2016-04-20T14:17:56Z</time>
      </trkpt>
      <trkpt lat="43.43826" lon="6.02058">
        <ele>285.79998779297</ele>
        <time>2016-04-20T14:17:57Z</time>
      </trkpt>
      <trkpt lat="43.43821" lon="6.02069">
        <ele>285.60000610352</ele>
        <time>2016-04-20T14:17:59Z</time>
      </trkpt>
      <trkpt lat="43.43817" lon="6.0208">
        <ele>285.79998779297</ele>
        <time>2016-04-20T14:18:01Z</time>
      </trkpt>
      <trkpt lat="43.43816" lon="6.02087">
        <ele>285.79998779297</ele>
        <time>2016-04-20T14:18:02Z</time>
      </trkpt>
      <trkpt lat="43.43815" lon="6.02094">
        <ele>286</ele>
        <time>2016-04-20T14:18:03Z</time>
      </trkpt>
      <trkpt lat="43.43813" lon="6.02108">
        <ele>285.79998779297</ele>
        <time>2016-04-20T14:18:05Z</time>
      </trkpt>
      <trkpt lat="43.43811" lon="6.02114">
        <ele>285.60000610352</ele>
        <time>2016-04-20T14:18:06Z</time>
      </trkpt>
      <trkpt lat="43.43807" lon="6.02119">
        <ele>285.39999389648</ele>
        <time>2016-04-20T14:18:07Z</time>
      </trkpt>
      <trkpt lat="43.43798" lon="6.02129">
        <ele>285</ele>
        <time>2016-04-20T14:18:09Z</time>
      </trkpt>
      <trkpt lat="43.43794" lon="6.02134">
        <ele>285</ele>
        <time>2016-04-20T14:18:10Z</time>
      </trkpt>
      <trkpt lat="43.4379" lon="6.02138">
        <ele>285</ele>
        <time>2016-04-20T14:18:11Z</time>
      </trkpt>
      <trkpt lat="43.43785" lon="6.02142">
        <ele>285</ele>
        <time>2016-04-20T14:18:12Z</time>
      </trkpt>
      <trkpt lat="43.43782" lon="6.02147">
        <ele>285</ele>
        <time>2016-04-20T14:18:13Z</time>
      </trkpt>
      <trkpt lat="43.43781" lon="6.02153">
        <ele>284.79998779297</ele>
        <time>2016-04-20T14:18:14Z</time>
      </trkpt>
      <trkpt lat="43.43779" lon="6.02158">
        <ele>284.79998779297</ele>
        <time>2016-04-20T14:18:15Z</time>
      </trkpt>
      <trkpt lat="43.43774" lon="6.02169">
        <ele>284.79998779297</ele>
        <time>2016-04-20T14:18:17Z</time>
      </trkpt>
      <trkpt lat="43.43772" lon="6.02174">
        <ele>284.79998779297</ele>
        <time>2016-04-20T14:18:18Z</time>
      </trkpt>
      <trkpt lat="43.4377" lon="6.02181">
        <ele>284.79998779297</ele>
        <time>2016-04-20T14:18:19Z</time>
      </trkpt>
      <trkpt lat="43.43768" lon="6.02195">
        <ele>284.39999389648</ele>
        <time>2016-04-20T14:18:21Z</time>
      </trkpt>
      <trkpt lat="43.43768" lon="6.0221">
        <ele>284.20001220703</ele>
        <time>2016-04-20T14:18:23Z</time>
      </trkpt>
      <trkpt lat="43.43766" lon="6.02224">
        <ele>284.20001220703</ele>
        <time>2016-04-20T14:18:25Z</time>
      </trkpt>
      <trkpt lat="43.43765" lon="6.02234">
        <ele>284</ele>
        <time>2016-04-20T14:18:27Z</time>
      </trkpt>
      <trkpt lat="43.43764" lon="6.02238">
        <ele>284</ele>
        <time>2016-04-20T14:18:28Z</time>
      </trkpt>
      <trkpt lat="43.43762" lon="6.02242">
        <ele>284</ele>
        <time>2016-04-20T14:18:29Z</time>
      </trkpt>
      <trkpt lat="43.43758" lon="6.0225">
        <ele>284</ele>
        <time>2016-04-20T14:18:31Z</time>
      </trkpt>
      <trkpt lat="43.43756" lon="6.02256">
        <ele>284.60000610352</ele>
        <time>2016-04-20T14:18:33Z</time>
      </trkpt>
      <trkpt lat="43.43754" lon="6.02258">
        <ele>285</ele>
        <time>2016-04-20T14:18:34Z</time>
      </trkpt>
      <trkpt lat="43.43753" lon="6.02259">
        <ele>285.20001220703</ele>
        <time>2016-04-20T14:18:35Z</time>
      </trkpt>
      <trkpt lat="43.43751" lon="6.02265">
        <ele>285.39999389648</ele>
        <time>2016-04-20T14:18:37Z</time>
      </trkpt>
      <trkpt lat="43.43749" lon="6.02271">
        <ele>285.60000610352</ele>
        <time>2016-04-20T14:18:39Z</time>
      </trkpt>
      <trkpt lat="43.43746" lon="6.02274">
        <ele>286</ele>
        <time>2016-04-20T14:18:41Z</time>
      </trkpt>
      <trkpt lat="43.43744" lon="6.0228">
        <ele>286.39999389648</ele>
        <time>2016-04-20T14:18:43Z</time>
      </trkpt>
      <trkpt lat="43.43742" lon="6.02282">
        <ele>286.60000610352</ele>
        <time>2016-04-20T14:18:44Z</time>
      </trkpt>
      <trkpt lat="43.43741" lon="6.02285">
        <ele>286.79998779297</ele>
        <time>2016-04-20T14:18:45Z</time>
      </trkpt>
      <trkpt lat="43.43738" lon="6.02289">
        <ele>287</ele>
        <time>2016-04-20T14:18:47Z</time>
      </trkpt>
      <trkpt lat="43.43736" lon="6.02294">
        <ele>287.39999389648</ele>
        <time>2016-04-20T14:18:49Z</time>
      </trkpt>
      <trkpt lat="43.43734" lon="6.02297">
        <ele>287.60000610352</ele>
        <time>2016-04-20T14:18:50Z</time>
      </trkpt>
      <trkpt lat="43.43732" lon="6.02299">
        <ele>287.79998779297</ele>
        <time>2016-04-20T14:18:51Z</time>
      </trkpt>
      <trkpt lat="43.43731" lon="6.02302">
        <ele>288</ele>
        <time>2016-04-20T14:18:52Z</time>
      </trkpt>
      <trkpt lat="43.43731" lon="6.02304">
        <ele>288.39999389648</ele>
        <time>2016-04-20T14:18:53Z</time>
      </trkpt>
      <trkpt lat="43.43729" lon="6.02307">
        <ele>288.79998779297</ele>
        <time>2016-04-20T14:18:54Z</time>
      </trkpt>
      <trkpt lat="43.43729" lon="6.02309">
        <ele>289</ele>
        <time>2016-04-20T14:18:55Z</time>
      </trkpt>
      <trkpt lat="43.43728" lon="6.02312">
        <ele>289</ele>
        <time>2016-04-20T14:18:56Z</time>
      </trkpt>
      <trkpt lat="43.43727" lon="6.02315">
        <ele>289.20001220703</ele>
        <time>2016-04-20T14:18:57Z</time>
      </trkpt>
      <trkpt lat="43.43726" lon="6.0232">
        <ele>289.39999389648</ele>
        <time>2016-04-20T14:18:59Z</time>
      </trkpt>
      <trkpt lat="43.43724" lon="6.02321">
        <ele>290</ele>
        <time>2016-04-20T14:19:00Z</time>
      </trkpt>
      <trkpt lat="43.43723" lon="6.02323">
        <ele>290.20001220703</ele>
        <time>2016-04-20T14:19:01Z</time>
      </trkpt>
      <trkpt lat="43.43719" lon="6.02325">
        <ele>291.39999389648</ele>
        <time>2016-04-20T14:19:03Z</time>
      </trkpt>
      <trkpt lat="43.43718" lon="6.02327">
        <ele>291.60000610352</ele>
        <time>2016-04-20T14:19:04Z</time>
      </trkpt>
      <trkpt lat="43.43718" lon="6.02328">
        <ele>291.79998779297</ele>
        <time>2016-04-20T14:19:05Z</time>
      </trkpt>
      <trkpt lat="43.43716" lon="6.02333">
        <ele>292</ele>
        <time>2016-04-20T14:19:07Z</time>
      </trkpt>
      <trkpt lat="43.43715" lon="6.02339">
        <ele>292.39999389648</ele>
        <time>2016-04-20T14:19:09Z</time>
      </trkpt>
      <trkpt lat="43.43716" lon="6.02343">
        <ele>292.79998779297</ele>
        <time>2016-04-20T14:19:11Z</time>
      </trkpt>
      <trkpt lat="43.43716" lon="6.02344">
        <ele>292.79998779297</ele>
        <time>2016-04-20T14:19:12Z</time>
      </trkpt>
      <trkpt lat="43.43716" lon="6.02346">
        <ele>292.79998779297</ele>
        <time>2016-04-20T14:19:13Z</time>
      </trkpt>
      <trkpt lat="43.43718" lon="6.02351">
        <ele>293</ele>
        <time>2016-04-20T14:19:15Z</time>
      </trkpt>
      <trkpt lat="43.43719" lon="6.02354">
        <ele>293</ele>
        <time>2016-04-20T14:19:16Z</time>
      </trkpt>
      <trkpt lat="43.43721" lon="6.02357">
        <ele>293</ele>
        <time>2016-04-20T14:19:17Z</time>
      </trkpt>
      <trkpt lat="43.43723" lon="6.02358">
        <ele>293</ele>
        <time>2016-04-20T14:19:18Z</time>
      </trkpt>
      <trkpt lat="43.43725" lon="6.02357">
        <ele>292.79998779297</ele>
        <time>2016-04-20T14:19:19Z</time>
      </trkpt>
      <trkpt lat="43.43729" lon="6.02357">
        <ele>292.60000610352</ele>
        <time>2016-04-20T14:19:21Z</time>
      </trkpt>
      <trkpt lat="43.4373" lon="6.0236">
        <ele>292.60000610352</ele>
        <time>2016-04-20T14:19:22Z</time>
      </trkpt>
      <trkpt lat="43.43732" lon="6.02363">
        <ele>292.39999389648</ele>
        <time>2016-04-20T14:19:23Z</time>
      </trkpt>
      <trkpt lat="43.43734" lon="6.02371">
        <ele>292.20001220703</ele>
        <time>2016-04-20T14:19:25Z</time>
      </trkpt>
      <trkpt lat="43.43736" lon="6.02378">
        <ele>291.79998779297</ele>
        <time>2016-04-20T14:19:27Z</time>
      </trkpt>
      <trkpt lat="43.4374" lon="6.02386">
        <ele>291.60000610352</ele>
        <time>2016-04-20T14:19:29Z</time>
      </trkpt>
      <trkpt lat="43.43743" lon="6.02392">
        <ele>291.39999389648</ele>
        <time>2016-04-20T14:19:31Z</time>
      </trkpt>
      <trkpt lat="43.43745" lon="6.02394">
        <ele>291.20001220703</ele>
        <time>2016-04-20T14:19:32Z</time>
      </trkpt>
      <trkpt lat="43.43746" lon="6.02395">
        <ele>290.79998779297</ele>
        <time>2016-04-20T14:19:33Z</time>
      </trkpt>
      <trkpt lat="43.4375" lon="6.02401">
        <ele>289.79998779297</ele>
        <time>2016-04-20T14:19:35Z</time>
      </trkpt>
      <trkpt lat="43.43753" lon="6.02408">
        <ele>288.39999389648</ele>
        <time>2016-04-20T14:19:37Z</time>
      </trkpt>
      <trkpt lat="43.43756" lon="6.02414">
        <ele>288</ele>
        <time>2016-04-20T14:19:39Z</time>
      </trkpt>
      <trkpt lat="43.43761" lon="6.02417">
        <ele>288</ele>
        <time>2016-04-20T14:19:41Z</time>
      </trkpt>
      <trkpt lat="43.43764" lon="6.02421">
        <ele>288</ele>
        <time>2016-04-20T14:19:43Z</time>
      </trkpt>
      <trkpt lat="43.43767" lon="6.02424">
        <ele>288</ele>
        <time>2016-04-20T14:19:45Z</time>
      </trkpt>
      <trkpt lat="43.43768" lon="6.02427">
        <ele>288</ele>
        <time>2016-04-20T14:19:46Z</time>
      </trkpt>
      <trkpt lat="43.43769" lon="6.02431">
        <ele>288</ele>
        <time>2016-04-20T14:19:47Z</time>
      </trkpt>
      <trkpt lat="43.43769" lon="6.02438">
        <ele>288</ele>
        <time>2016-04-20T14:19:49Z</time>
      </trkpt>
      <trkpt lat="43.43768" lon="6.0244">
        <ele>288</ele>
        <time>2016-04-20T14:19:50Z</time>
      </trkpt>
      <trkpt lat="43.43768" lon="6.02443">
        <ele>288</ele>
        <time>2016-04-20T14:19:51Z</time>
      </trkpt>
      <trkpt lat="43.4377" lon="6.02449">
        <ele>287.39999389648</ele>
        <time>2016-04-20T14:19:53Z</time>
      </trkpt>
      <trkpt lat="43.43771" lon="6.02451">
        <ele>287.20001220703</ele>
        <time>2016-04-20T14:19:54Z</time>
      </trkpt>
      <trkpt lat="43.43773" lon="6.02453">
        <ele>286.60000610352</ele>
        <time>2016-04-20T14:19:55Z</time>
      </trkpt>
      <trkpt lat="43.43773" lon="6.02455">
        <ele>286.39999389648</ele>
        <time>2016-04-20T14:19:56Z</time>
      </trkpt>
      <trkpt lat="43.43773" lon="6.02457">
        <ele>285.79998779297</ele>
        <time>2016-04-20T14:19:57Z</time>
      </trkpt>
      <trkpt lat="43.43774" lon="6.0246">
        <ele>285.60000610352</ele>
        <time>2016-04-20T14:19:58Z</time>
      </trkpt>
      <trkpt lat="43.43776" lon="6.02462">
        <ele>285.39999389648</ele>
        <time>2016-04-20T14:19:59Z</time>
      </trkpt>
      <trkpt lat="43.43777" lon="6.02464">
        <ele>285.20001220703</ele>
        <time>2016-04-20T14:20:00Z</time>
      </trkpt>
      <trkpt lat="43.43778" lon="6.02465">
        <ele>285.20001220703</ele>
        <time>2016-04-20T14:20:01Z</time>
      </trkpt>
      <trkpt lat="43.43779" lon="6.02466">
        <ele>285.20001220703</ele>
        <time>2016-04-20T14:20:02Z</time>
      </trkpt>
      <trkpt lat="43.43781" lon="6.02467">
        <ele>285.20001220703</ele>
        <time>2016-04-20T14:20:03Z</time>
      </trkpt>
      <trkpt lat="43.43782" lon="6.02468">
        <ele>285.20001220703</ele>
        <time>2016-04-20T14:20:04Z</time>
      </trkpt>
      <trkpt lat="43.43783" lon="6.0247">
        <ele>285.20001220703</ele>
        <time>2016-04-20T14:20:05Z</time>
      </trkpt>
      <trkpt lat="43.43786" lon="6.02473">
        <ele>285.39999389648</ele>
        <time>2016-04-20T14:20:07Z</time>
      </trkpt>
      <trkpt lat="43.43788" lon="6.02474">
        <ele>285.39999389648</ele>
        <time>2016-04-20T14:20:08Z</time>
      </trkpt>
      <trkpt lat="43.43789" lon="6.02476">
        <ele>285.20001220703</ele>
        <time>2016-04-20T14:20:09Z</time>
      </trkpt>
      <trkpt lat="43.43793" lon="6.02483">
        <ele>284.79998779297</ele>
        <time>2016-04-20T14:20:11Z</time>
      </trkpt>
      <trkpt lat="43.43794" lon="6.02486">
        <ele>284.39999389648</ele>
        <time>2016-04-20T14:20:12Z</time>
      </trkpt>
      <trkpt lat="43.43794" lon="6.02489">
        <ele>283.79998779297</ele>
        <time>2016-04-20T14:20:13Z</time>
      </trkpt>
      <trkpt lat="43.43794" lon="6.02494">
        <ele>283.20001220703</ele>
        <time>2016-04-20T14:20:15Z</time>
      </trkpt>
      <trkpt lat="43.43795" lon="6.02495">
        <ele>283</ele>
        <time>2016-04-20T14:20:17Z</time>
      </trkpt>
      <trkpt lat="43.43795" lon="6.02496">
        <ele>283.20001220703</ele>
        <time>2016-04-20T14:20:19Z</time>
      </trkpt>
      <trkpt lat="43.43795" lon="6.02496">
        <ele>283.20001220703</ele>
        <time>2016-04-20T14:20:21Z</time>
      </trkpt>
      <trkpt lat="43.43795" lon="6.02496">
        <ele>283</ele>
        <time>2016-04-20T14:20:23Z</time>
      </trkpt>
      <trkpt lat="43.43795" lon="6.02496">
        <ele>283</ele>
        <time>2016-04-20T14:20:25Z</time>
      </trkpt>
      <trkpt lat="43.43795" lon="6.02496">
        <ele>283</ele>
        <time>2016-04-20T14:20:27Z</time>
      </trkpt>
      <trkpt lat="43.43795" lon="6.02496">
        <ele>282.79998779297</ele>
        <time>2016-04-20T14:20:29Z</time>
      </trkpt>
      <trkpt lat="43.43795" lon="6.02497">
        <ele>282.79998779297</ele>
        <time>2016-04-20T14:20:31Z</time>
      </trkpt>
      <trkpt lat="43.43795" lon="6.02502">
        <ele>283.20001220703</ele>
        <time>2016-04-20T14:20:33Z</time>
      </trkpt>
      <trkpt lat="43.43795" lon="6.02507">
        <ele>283.39999389648</ele>
        <time>2016-04-20T14:20:35Z</time>
      </trkpt>
      <trkpt lat="43.43795" lon="6.02511">
        <ele>283.60000610352</ele>
        <time>2016-04-20T14:20:36Z</time>
      </trkpt>
      <trkpt lat="43.43795" lon="6.02514">
        <ele>283.79998779297</ele>
        <time>2016-04-20T14:20:37Z</time>
      </trkpt>
      <trkpt lat="43.43793" lon="6.02522">
        <ele>284</ele>
        <time>2016-04-20T14:20:39Z</time>
      </trkpt>
      <trkpt lat="43.43791" lon="6.02526">
        <ele>284.20001220703</ele>
        <time>2016-04-20T14:20:40Z</time>
      </trkpt>
      <trkpt lat="43.4379" lon="6.02529">
        <ele>284.39999389648</ele>
        <time>2016-04-20T14:20:41Z</time>
      </trkpt>
      <trkpt lat="43.43789" lon="6.02538">
        <ele>284.60000610352</ele>
        <time>2016-04-20T14:20:43Z</time>
      </trkpt>
      <trkpt lat="43.43789" lon="6.02543">
        <ele>284.60000610352</ele>
        <time>2016-04-20T14:20:44Z</time>
      </trkpt>
      <trkpt lat="43.43789" lon="6.02549">
        <ele>284.60000610352</ele>
        <time>2016-04-20T14:20:45Z</time>
      </trkpt>
      <trkpt lat="43.43789" lon="6.02559">
        <ele>284.39999389648</ele>
        <time>2016-04-20T14:20:47Z</time>
      </trkpt>
      <trkpt lat="43.43789" lon="6.02564">
        <ele>284.39999389648</ele>
        <time>2016-04-20T14:20:48Z</time>
      </trkpt>
      <trkpt lat="43.43791" lon="6.0257">
        <ele>284.39999389648</ele>
        <time>2016-04-20T14:20:49Z</time>
      </trkpt>
      <trkpt lat="43.43792" lon="6.02575">
        <ele>284.39999389648</ele>
        <time>2016-04-20T14:20:50Z</time>
      </trkpt>
      <trkpt lat="43.43792" lon="6.02582">
        <ele>284.39999389648</ele>
        <time>2016-04-20T14:20:51Z</time>
      </trkpt>
      <trkpt lat="43.43792" lon="6.02587">
        <ele>284.20001220703</ele>
        <time>2016-04-20T14:20:52Z</time>
      </trkpt>
      <trkpt lat="43.43792" lon="6.02593">
        <ele>284.20001220703</ele>
        <time>2016-04-20T14:20:53Z</time>
      </trkpt>
      <trkpt lat="43.43792" lon="6.02604">
        <ele>284</ele>
        <time>2016-04-20T14:20:55Z</time>
      </trkpt>
      <trkpt lat="43.43789" lon="6.02614">
        <ele>284.20001220703</ele>
        <time>2016-04-20T14:20:57Z</time>
      </trkpt>
      <trkpt lat="43.43786" lon="6.02625">
        <ele>284.39999389648</ele>
        <time>2016-04-20T14:20:59Z</time>
      </trkpt>
      <trkpt lat="43.43785" lon="6.02631">
        <ele>284.39999389648</ele>
        <time>2016-04-20T14:21:00Z</time>
      </trkpt>
      <trkpt lat="43.43783" lon="6.02637">
        <ele>284.60000610352</ele>
        <time>2016-04-20T14:21:01Z</time>
      </trkpt>
      <trkpt lat="43.43783" lon="6.02643">
        <ele>284.39999389648</ele>
        <time>2016-04-20T14:21:02Z</time>
      </trkpt>
      <trkpt lat="43.43783" lon="6.0265">
        <ele>284.39999389648</ele>
        <time>2016-04-20T14:21:03Z</time>
      </trkpt>
      <trkpt lat="43.43784" lon="6.02663">
        <ele>284.20001220703</ele>
        <time>2016-04-20T14:21:05Z</time>
      </trkpt>
      <trkpt lat="43.43784" lon="6.02674">
        <ele>284</ele>
        <time>2016-04-20T14:21:07Z</time>
      </trkpt>
      <trkpt lat="43.43785" lon="6.0268">
        <ele>283.79998779297</ele>
        <time>2016-04-20T14:21:09Z</time>
      </trkpt>
      <trkpt lat="43.43783" lon="6.02686">
        <ele>283.39999389648</ele>
        <time>2016-04-20T14:21:11Z</time>
      </trkpt>
      <trkpt lat="43.43781" lon="6.0269">
        <ele>283</ele>
        <time>2016-04-20T14:21:13Z</time>
      </trkpt>
      <trkpt lat="43.43777" lon="6.02696">
        <ele>283</ele>
        <time>2016-04-20T14:21:15Z</time>
      </trkpt>
      <trkpt lat="43.43773" lon="6.02697">
        <ele>283.20001220703</ele>
        <time>2016-04-20T14:21:17Z</time>
      </trkpt>
      <trkpt lat="43.43771" lon="6.02698">
        <ele>283.20001220703</ele>
        <time>2016-04-20T14:21:18Z</time>
      </trkpt>
      <trkpt lat="43.43769" lon="6.02699">
        <ele>283.20001220703</ele>
        <time>2016-04-20T14:21:19Z</time>
      </trkpt>
      <trkpt lat="43.43768" lon="6.02704">
        <ele>283.60000610352</ele>
        <time>2016-04-20T14:21:21Z</time>
      </trkpt>
      <trkpt lat="43.43769" lon="6.02706">
        <ele>283.60000610352</ele>
        <time>2016-04-20T14:21:22Z</time>
      </trkpt>
      <trkpt lat="43.4377" lon="6.02709">
        <ele>283.60000610352</ele>
        <time>2016-04-20T14:21:23Z</time>
      </trkpt>
      <trkpt lat="43.43773" lon="6.02712">
        <ele>283.20001220703</ele>
        <time>2016-04-20T14:21:24Z</time>
      </trkpt>
      <trkpt lat="43.43776" lon="6.02714">
        <ele>283</ele>
        <time>2016-04-20T14:21:25Z</time>
      </trkpt>
      <trkpt lat="43.43778" lon="6.02716">
        <ele>282.60000610352</ele>
        <time>2016-04-20T14:21:26Z</time>
      </trkpt>
      <trkpt lat="43.43781" lon="6.02717">
        <ele>282.20001220703</ele>
        <time>2016-04-20T14:21:27Z</time>
      </trkpt>
      <trkpt lat="43.43784" lon="6.02721">
        <ele>281.79998779297</ele>
        <time>2016-04-20T14:21:29Z</time>
      </trkpt>
      <trkpt lat="43.43785" lon="6.02725">
        <ele>281.79998779297</ele>
        <time>2016-04-20T14:21:30Z</time>
      </trkpt>
      <trkpt lat="43.43786" lon="6.0273">
        <ele>281.60000610352</ele>
        <time>2016-04-20T14:21:31Z</time>
      </trkpt>
      <trkpt lat="43.43787" lon="6.02741">
        <ele>281.60000610352</ele>
        <time>2016-04-20T14:21:33Z</time>
      </trkpt>
      <trkpt lat="43.43787" lon="6.02746">
        <ele>281.39999389648</ele>
        <time>2016-04-20T14:21:34Z</time>
      </trkpt>
      <trkpt lat="43.43786" lon="6.02751">
        <ele>281.39999389648</ele>
        <time>2016-04-20T14:21:35Z</time>
      </trkpt>
      <trkpt lat="43.43784" lon="6.02762">
        <ele>281.20001220703</ele>
        <time>2016-04-20T14:21:37Z</time>
      </trkpt>
      <trkpt lat="43.43784" lon="6.02767">
        <ele>281.20001220703</ele>
        <time>2016-04-20T14:21:38Z</time>
      </trkpt>
      <trkpt lat="43.43784" lon="6.02772">
        <ele>281.39999389648</ele>
        <time>2016-04-20T14:21:39Z</time>
      </trkpt>
      <trkpt lat="43.43788" lon="6.02782">
        <ele>281.39999389648</ele>
        <time>2016-04-20T14:21:41Z</time>
      </trkpt>
      <trkpt lat="43.43792" lon="6.02791">
        <ele>281.39999389648</ele>
        <time>2016-04-20T14:21:43Z</time>
      </trkpt>
      <trkpt lat="43.43797" lon="6.02799">
        <ele>281.39999389648</ele>
        <time>2016-04-20T14:21:45Z</time>
      </trkpt>
      <trkpt lat="43.43799" lon="6.02802">
        <ele>281.39999389648</ele>
        <time>2016-04-20T14:21:46Z</time>
      </trkpt>
      <trkpt lat="43.43801" lon="6.02805">
        <ele>281</ele>
        <time>2016-04-20T14:21:47Z</time>
      </trkpt>
      <trkpt lat="43.43805" lon="6.02813">
        <ele>280.60000610352</ele>
        <time>2016-04-20T14:21:49Z</time>
      </trkpt>
      <trkpt lat="43.43806" lon="6.02817">
        <ele>280.39999389648</ele>
        <time>2016-04-20T14:21:50Z</time>
      </trkpt>
      <trkpt lat="43.43807" lon="6.02822">
        <ele>280</ele>
        <time>2016-04-20T14:21:51Z</time>
      </trkpt>
      <trkpt lat="43.43806" lon="6.02834">
        <ele>279.39999389648</ele>
        <time>2016-04-20T14:21:53Z</time>
      </trkpt>
      <trkpt lat="43.43805" lon="6.0284">
        <ele>279</ele>
        <time>2016-04-20T14:21:54Z</time>
      </trkpt>
      <trkpt lat="43.43803" lon="6.02845">
        <ele>278.60000610352</ele>
        <time>2016-04-20T14:21:55Z</time>
      </trkpt>
      <trkpt lat="43.43801" lon="6.02854">
        <ele>278.20001220703</ele>
        <time>2016-04-20T14:21:57Z</time>
      </trkpt>
      <trkpt lat="43.43798" lon="6.02863">
        <ele>278.20001220703</ele>
        <time>2016-04-20T14:21:59Z</time>
      </trkpt>
      <trkpt lat="43.43796" lon="6.02873">
        <ele>278.60000610352</ele>
        <time>2016-04-20T14:22:01Z</time>
      </trkpt>
      <trkpt lat="43.43794" lon="6.02883">
        <ele>278.60000610352</ele>
        <time>2016-04-20T14:22:03Z</time>
      </trkpt>
      <trkpt lat="43.43793" lon="6.02893">
        <ele>278.79998779297</ele>
        <time>2016-04-20T14:22:05Z</time>
      </trkpt>
      <trkpt lat="43.43792" lon="6.02904">
        <ele>278.39999389648</ele>
        <time>2016-04-20T14:22:07Z</time>
      </trkpt>
      <trkpt lat="43.43793" lon="6.02909">
        <ele>278.20001220703</ele>
        <time>2016-04-20T14:22:08Z</time>
      </trkpt>
      <trkpt lat="43.43794" lon="6.02913">
        <ele>278.20001220703</ele>
        <time>2016-04-20T14:22:09Z</time>
      </trkpt>
      <trkpt lat="43.43794" lon="6.02924">
        <ele>277.79998779297</ele>
        <time>2016-04-20T14:22:11Z</time>
      </trkpt>
      <trkpt lat="43.43793" lon="6.0293">
        <ele>277.60000610352</ele>
        <time>2016-04-20T14:22:12Z</time>
      </trkpt>
      <trkpt lat="43.43792" lon="6.02936">
        <ele>277.60000610352</ele>
        <time>2016-04-20T14:22:13Z</time>
      </trkpt>
      <trkpt lat="43.43789" lon="6.02946">
        <ele>277.20001220703</ele>
        <time>2016-04-20T14:22:15Z</time>
      </trkpt>
      <trkpt lat="43.43786" lon="6.02957">
        <ele>277</ele>
        <time>2016-04-20T14:22:17Z</time>
      </trkpt>
      <trkpt lat="43.43785" lon="6.02961">
        <ele>276.79998779297</ele>
        <time>2016-04-20T14:22:18Z</time>
      </trkpt>
      <trkpt lat="43.43784" lon="6.02966">
        <ele>276.79998779297</ele>
        <time>2016-04-20T14:22:19Z</time>
      </trkpt>
      <trkpt lat="43.43784" lon="6.02972">
        <ele>276.79998779297</ele>
        <time>2016-04-20T14:22:20Z</time>
      </trkpt>
      <trkpt lat="43.43784" lon="6.02979">
        <ele>276.79998779297</ele>
        <time>2016-04-20T14:22:21Z</time>
      </trkpt>
      <trkpt lat="43.43783" lon="6.02986">
        <ele>276.79998779297</ele>
        <time>2016-04-20T14:22:22Z</time>
      </trkpt>
      <trkpt lat="43.43782" lon="6.02992">
        <ele>276.79998779297</ele>
        <time>2016-04-20T14:22:23Z</time>
      </trkpt>
      <trkpt lat="43.43776" lon="6.03003">
        <ele>276.79998779297</ele>
        <time>2016-04-20T14:22:25Z</time>
      </trkpt>
      <trkpt lat="43.43769" lon="6.03013">
        <ele>276.60000610352</ele>
        <time>2016-04-20T14:22:27Z</time>
      </trkpt>
      <trkpt lat="43.43766" lon="6.03017">
        <ele>276.60000610352</ele>
        <time>2016-04-20T14:22:28Z</time>
      </trkpt>
      <trkpt lat="43.43764" lon="6.03023">
        <ele>276.39999389648</ele>
        <time>2016-04-20T14:22:29Z</time>
      </trkpt>
      <trkpt lat="43.4376" lon="6.03034">
        <ele>276.39999389648</ele>
        <time>2016-04-20T14:22:31Z</time>
      </trkpt>
      <trkpt lat="43.43756" lon="6.03037">
        <ele>276.39999389648</ele>
        <time>2016-04-20T14:22:32Z</time>
      </trkpt>
      <trkpt lat="43.43751" lon="6.03039">
        <ele>276.39999389648</ele>
        <time>2016-04-20T14:22:33Z</time>
      </trkpt>
      <trkpt lat="43.43742" lon="6.03043">
        <ele>276.60000610352</ele>
        <time>2016-04-20T14:22:35Z</time>
      </trkpt>
      <trkpt lat="43.43735" lon="6.03047">
        <ele>277</ele>
        <time>2016-04-20T14:22:37Z</time>
      </trkpt>
      <trkpt lat="43.43727" lon="6.03051">
        <ele>277.60000610352</ele>
        <time>2016-04-20T14:22:39Z</time>
      </trkpt>
      <trkpt lat="43.43724" lon="6.03053">
        <ele>278</ele>
        <time>2016-04-20T14:22:40Z</time>
      </trkpt>
      <trkpt lat="43.4372" lon="6.03055">
        <ele>278.20001220703</ele>
        <time>2016-04-20T14:22:41Z</time>
      </trkpt>
      <trkpt lat="43.43713" lon="6.03059">
        <ele>278.39999389648</ele>
        <time>2016-04-20T14:22:43Z</time>
      </trkpt>
      <trkpt lat="43.43708" lon="6.03067">
        <ele>278.79998779297</ele>
        <time>2016-04-20T14:22:45Z</time>
      </trkpt>
      <trkpt lat="43.43705" lon="6.03071">
        <ele>279</ele>
        <time>2016-04-20T14:22:46Z</time>
      </trkpt>
      <trkpt lat="43.43702" lon="6.03075">
        <ele>279</ele>
        <time>2016-04-20T14:22:47Z</time>
      </trkpt>
      <trkpt lat="43.437" lon="6.03081">
        <ele>279.20001220703</ele>
        <time>2016-04-20T14:22:48Z</time>
      </trkpt>
      <trkpt lat="43.43699" lon="6.03088">
        <ele>279</ele>
        <time>2016-04-20T14:22:49Z</time>
      </trkpt>
      <trkpt lat="43.43696" lon="6.03102">
        <ele>279.20001220703</ele>
        <time>2016-04-20T14:22:51Z</time>
      </trkpt>
      <trkpt lat="43.43693" lon="6.03117">
        <ele>279.20001220703</ele>
        <time>2016-04-20T14:22:53Z</time>
      </trkpt>
      <trkpt lat="43.43694" lon="6.03133">
        <ele>279.20001220703</ele>
        <time>2016-04-20T14:22:55Z</time>
      </trkpt>
      <trkpt lat="43.43694" lon="6.03141">
        <ele>279.39999389648</ele>
        <time>2016-04-20T14:22:56Z</time>
      </trkpt>
      <trkpt lat="43.43694" lon="6.03149">
        <ele>279.39999389648</ele>
        <time>2016-04-20T14:22:57Z</time>
      </trkpt>
      <trkpt lat="43.43694" lon="6.03157">
        <ele>279.39999389648</ele>
        <time>2016-04-20T14:22:58Z</time>
      </trkpt>
      <trkpt lat="43.43693" lon="6.03165">
        <ele>279.20001220703</ele>
        <time>2016-04-20T14:22:59Z</time>
      </trkpt>
      <trkpt lat="43.43693" lon="6.03173">
        <ele>279</ele>
        <time>2016-04-20T14:23:00Z</time>
      </trkpt>
      <trkpt lat="43.43694" lon="6.0318">
        <ele>279</ele>
        <time>2016-04-20T14:23:01Z</time>
      </trkpt>
      <trkpt lat="43.43694" lon="6.03186">
        <ele>279</ele>
        <time>2016-04-20T14:23:02Z</time>
      </trkpt>
      <trkpt lat="43.43693" lon="6.03192">
        <ele>279.20001220703</ele>
        <time>2016-04-20T14:23:03Z</time>
      </trkpt>
      <trkpt lat="43.43692" lon="6.03197">
        <ele>279.20001220703</ele>
        <time>2016-04-20T14:23:04Z</time>
      </trkpt>
      <trkpt lat="43.4369" lon="6.03202">
        <ele>279.20001220703</ele>
        <time>2016-04-20T14:23:05Z</time>
      </trkpt>
      <trkpt lat="43.43687" lon="6.03216">
        <ele>279.39999389648</ele>
        <time>2016-04-20T14:23:07Z</time>
      </trkpt>
      <trkpt lat="43.43687" lon="6.03223">
        <ele>279.39999389648</ele>
        <time>2016-04-20T14:23:08Z</time>
      </trkpt>
      <trkpt lat="43.43687" lon="6.0323">
        <ele>279.20001220703</ele>
        <time>2016-04-20T14:23:09Z</time>
      </trkpt>
      <trkpt lat="43.43687" lon="6.03237">
        <ele>279</ele>
        <time>2016-04-20T14:23:10Z</time>
      </trkpt>
      <trkpt lat="43.43688" lon="6.03243">
        <ele>278.60000610352</ele>
        <time>2016-04-20T14:23:11Z</time>
      </trkpt>
      <trkpt lat="43.43688" lon="6.03254">
        <ele>278.20001220703</ele>
        <time>2016-04-20T14:23:13Z</time>
      </trkpt>
      <trkpt lat="43.43686" lon="6.03266">
        <ele>278.20001220703</ele>
        <time>2016-04-20T14:23:15Z</time>
      </trkpt>
      <trkpt lat="43.43682" lon="6.03278">
        <ele>278.20001220703</ele>
        <time>2016-04-20T14:23:17Z</time>
      </trkpt>
      <trkpt lat="43.43677" lon="6.03291">
        <ele>278.20001220703</ele>
        <time>2016-04-20T14:23:19Z</time>
      </trkpt>
      <trkpt lat="43.43671" lon="6.033">
        <ele>278.20001220703</ele>
        <time>2016-04-20T14:23:21Z</time>
      </trkpt>
      <trkpt lat="43.43668" lon="6.03303">
        <ele>277.79998779297</ele>
        <time>2016-04-20T14:23:22Z</time>
      </trkpt>
      <trkpt lat="43.43666" lon="6.03306">
        <ele>277.60000610352</ele>
        <time>2016-04-20T14:23:23Z</time>
      </trkpt>
      <trkpt lat="43.43666" lon="6.03308">
        <ele>277.39999389648</ele>
        <time>2016-04-20T14:23:24Z</time>
      </trkpt>
      <trkpt lat="43.43666" lon="6.0331">
        <ele>277.39999389648</ele>
        <time>2016-04-20T14:23:25Z</time>
      </trkpt>
      <trkpt lat="43.43666" lon="6.03315">
        <ele>277.39999389648</ele>
        <time>2016-04-20T14:23:27Z</time>
      </trkpt>
      <trkpt lat="43.43665" lon="6.03318">
        <ele>277.39999389648</ele>
        <time>2016-04-20T14:23:28Z</time>
      </trkpt>
      <trkpt lat="43.43664" lon="6.03321">
        <ele>277.60000610352</ele>
        <time>2016-04-20T14:23:29Z</time>
      </trkpt>
      <trkpt lat="43.43661" lon="6.03327">
        <ele>277.60000610352</ele>
        <time>2016-04-20T14:23:31Z</time>
      </trkpt>
      <trkpt lat="43.43659" lon="6.03329">
        <ele>277.60000610352</ele>
        <time>2016-04-20T14:23:32Z</time>
      </trkpt>
      <trkpt lat="43.43657" lon="6.03333">
        <ele>277.79998779297</ele>
        <time>2016-04-20T14:23:33Z</time>
      </trkpt>
      <trkpt lat="43.43653" lon="6.0334">
        <ele>278</ele>
        <time>2016-04-20T14:23:35Z</time>
      </trkpt>
      <trkpt lat="43.43649" lon="6.03348">
        <ele>278.39999389648</ele>
        <time>2016-04-20T14:23:37Z</time>
      </trkpt>
      <trkpt lat="43.43645" lon="6.03357">
        <ele>278.60000610352</ele>
        <time>2016-04-20T14:23:39Z</time>
      </trkpt>
      <trkpt lat="43.43641" lon="6.03367">
        <ele>278.60000610352</ele>
        <time>2016-04-20T14:23:41Z</time>
      </trkpt>
      <trkpt lat="43.43638" lon="6.03372">
        <ele>278.20001220703</ele>
        <time>2016-04-20T14:23:42Z</time>
      </trkpt>
      <trkpt lat="43.43636" lon="6.03377">
        <ele>278.20001220703</ele>
        <time>2016-04-20T14:23:43Z</time>
      </trkpt>
      <trkpt lat="43.4363" lon="6.03386">
        <ele>278</ele>
        <time>2016-04-20T14:23:45Z</time>
      </trkpt>
      <trkpt lat="43.43628" lon="6.03391">
        <ele>278.20001220703</ele>
        <time>2016-04-20T14:23:46Z</time>
      </trkpt>
      <trkpt lat="43.43628" lon="6.03397">
        <ele>278.20001220703</ele>
        <time>2016-04-20T14:23:47Z</time>
      </trkpt>
      <trkpt lat="43.43628" lon="6.03403">
        <ele>278.39999389648</ele>
        <time>2016-04-20T14:23:48Z</time>
      </trkpt>
      <trkpt lat="43.43628" lon="6.03409">
        <ele>278.60000610352</ele>
        <time>2016-04-20T14:23:49Z</time>
      </trkpt>
      <trkpt lat="43.43628" lon="6.03415">
        <ele>278.79998779297</ele>
        <time>2016-04-20T14:23:50Z</time>
      </trkpt>
      <trkpt lat="43.43628" lon="6.03421">
        <ele>278.79998779297</ele>
        <time>2016-04-20T14:23:51Z</time>
      </trkpt>
      <trkpt lat="43.43628" lon="6.03427">
        <ele>279.20001220703</ele>
        <time>2016-04-20T14:23:52Z</time>
      </trkpt>
      <trkpt lat="43.43627" lon="6.03433">
        <ele>279.39999389648</ele>
        <time>2016-04-20T14:23:53Z</time>
      </trkpt>
      <trkpt lat="43.43626" lon="6.03448">
        <ele>279.20001220703</ele>
        <time>2016-04-20T14:23:55Z</time>
      </trkpt>
      <trkpt lat="43.43624" lon="6.03455">
        <ele>279</ele>
        <time>2016-04-20T14:23:56Z</time>
      </trkpt>
      <trkpt lat="43.43622" lon="6.03462">
        <ele>278.79998779297</ele>
        <time>2016-04-20T14:23:57Z</time>
      </trkpt>
      <trkpt lat="43.43618" lon="6.03476">
        <ele>278.39999389648</ele>
        <time>2016-04-20T14:23:59Z</time>
      </trkpt>
      <trkpt lat="43.43614" lon="6.03491">
        <ele>278</ele>
        <time>2016-04-20T14:24:01Z</time>
      </trkpt>
      <trkpt lat="43.43611" lon="6.03507">
        <ele>277.39999389648</ele>
        <time>2016-04-20T14:24:03Z</time>
      </trkpt>
      <trkpt lat="43.4361" lon="6.03515">
        <ele>277.39999389648</ele>
        <time>2016-04-20T14:24:04Z</time>
      </trkpt>
      <trkpt lat="43.43608" lon="6.03523">
        <ele>277.20001220703</ele>
        <time>2016-04-20T14:24:05Z</time>
      </trkpt>
      <trkpt lat="43.43605" lon="6.03531">
        <ele>277</ele>
        <time>2016-04-20T14:24:06Z</time>
      </trkpt>
      <trkpt lat="43.43603" lon="6.03539">
        <ele>276.60000610352</ele>
        <time>2016-04-20T14:24:07Z</time>
      </trkpt>
      <trkpt lat="43.436" lon="6.03546">
        <ele>276.39999389648</ele>
        <time>2016-04-20T14:24:08Z</time>
      </trkpt>
      <trkpt lat="43.43597" lon="6.03552">
        <ele>276.39999389648</ele>
        <time>2016-04-20T14:24:09Z</time>
      </trkpt>
      <trkpt lat="43.43591" lon="6.03564">
        <ele>276.39999389648</ele>
        <time>2016-04-20T14:24:11Z</time>
      </trkpt>
      <trkpt lat="43.43588" lon="6.0357">
        <ele>276.39999389648</ele>
        <time>2016-04-20T14:24:12Z</time>
      </trkpt>
      <trkpt lat="43.43586" lon="6.03577">
        <ele>276.39999389648</ele>
        <time>2016-04-20T14:24:13Z</time>
      </trkpt>
      <trkpt lat="43.43584" lon="6.03592">
        <ele>276.20001220703</ele>
        <time>2016-04-20T14:24:15Z</time>
      </trkpt>
      <trkpt lat="43.43584" lon="6.03599">
        <ele>276</ele>
        <time>2016-04-20T14:24:16Z</time>
      </trkpt>
      <trkpt lat="43.43584" lon="6.03607">
        <ele>275.79998779297</ele>
        <time>2016-04-20T14:24:17Z</time>
      </trkpt>
      <trkpt lat="43.43584" lon="6.03613">
        <ele>275.60000610352</ele>
        <time>2016-04-20T14:24:18Z</time>
      </trkpt>
      <trkpt lat="43.43584" lon="6.0362">
        <ele>275.60000610352</ele>
        <time>2016-04-20T14:24:19Z</time>
      </trkpt>
      <trkpt lat="43.43584" lon="6.03635">
        <ele>275.39999389648</ele>
        <time>2016-04-20T14:24:21Z</time>
      </trkpt>
      <trkpt lat="43.43583" lon="6.03642">
        <ele>275.79998779297</ele>
        <time>2016-04-20T14:24:22Z</time>
      </trkpt>
      <trkpt lat="43.43581" lon="6.03649">
        <ele>275.79998779297</ele>
        <time>2016-04-20T14:24:23Z</time>
      </trkpt>
      <trkpt lat="43.4358" lon="6.03656">
        <ele>276.20001220703</ele>
        <time>2016-04-20T14:24:24Z</time>
      </trkpt>
      <trkpt lat="43.43579" lon="6.03663">
        <ele>276.39999389648</ele>
        <time>2016-04-20T14:24:25Z</time>
      </trkpt>
      <trkpt lat="43.43577" lon="6.03678">
        <ele>276.60000610352</ele>
        <time>2016-04-20T14:24:27Z</time>
      </trkpt>
      <trkpt lat="43.43576" lon="6.03685">
        <ele>276.60000610352</ele>
        <time>2016-04-20T14:24:28Z</time>
      </trkpt>
      <trkpt lat="43.43575" lon="6.03693">
        <ele>276.79998779297</ele>
        <time>2016-04-20T14:24:29Z</time>
      </trkpt>
      <trkpt lat="43.43572" lon="6.03708">
        <ele>276.39999389648</ele>
        <time>2016-04-20T14:24:31Z</time>
      </trkpt>
      <trkpt lat="43.43573" lon="6.03722">
        <ele>276.20001220703</ele>
        <time>2016-04-20T14:24:33Z</time>
      </trkpt>
      <trkpt lat="43.43573" lon="6.03735">
        <ele>276.20001220703</ele>
        <time>2016-04-20T14:24:35Z</time>
      </trkpt>
      <trkpt lat="43.43573" lon="6.03747">
        <ele>276.39999389648</ele>
        <time>2016-04-20T14:24:37Z</time>
      </trkpt>
      <trkpt lat="43.43574" lon="6.03752">
        <ele>276.60000610352</ele>
        <time>2016-04-20T14:24:38Z</time>
      </trkpt>
      <trkpt lat="43.43574" lon="6.03755">
        <ele>276.60000610352</ele>
        <time>2016-04-20T14:24:39Z</time>
      </trkpt>
      <trkpt lat="43.43574" lon="6.03759">
        <ele>276.79998779297</ele>
        <time>2016-04-20T14:24:40Z</time>
      </trkpt>
      <trkpt lat="43.43574" lon="6.03761">
        <ele>277</ele>
        <time>2016-04-20T14:24:41Z</time>
      </trkpt>
      <trkpt lat="43.43575" lon="6.03764">
        <ele>277.20001220703</ele>
        <time>2016-04-20T14:24:42Z</time>
      </trkpt>
      <trkpt lat="43.43575" lon="6.03765">
        <ele>277.20001220703</ele>
        <time>2016-04-20T14:24:43Z</time>
      </trkpt>
      <trkpt lat="43.43575" lon="6.03768">
        <ele>277.79998779297</ele>
        <time>2016-04-20T14:24:45Z</time>
      </trkpt>
      <trkpt lat="43.43575" lon="6.03769">
        <ele>278</ele>
        <time>2016-04-20T14:24:46Z</time>
      </trkpt>
      <trkpt lat="43.43575" lon="6.03769">
        <ele>278</ele>
        <time>2016-04-20T14:24:47Z</time>
      </trkpt>
      <trkpt lat="43.43575" lon="6.03769">
        <ele>278.20001220703</ele>
        <time>2016-04-20T14:24:49Z</time>
      </trkpt>
      <trkpt lat="43.43575" lon="6.03769">
        <ele>278.39999389648</ele>
        <time>2016-04-20T14:24:51Z</time>
      </trkpt>
      <trkpt lat="43.43575" lon="6.03769">
        <ele>278.39999389648</ele>
        <time>2016-04-20T14:24:53Z</time>
      </trkpt>
      <trkpt lat="43.43575" lon="6.03769">
        <ele>278.39999389648</ele>
        <time>2016-04-20T14:24:55Z</time>
      </trkpt>
      <trkpt lat="43.43575" lon="6.0377">
        <ele>278.20001220703</ele>
        <time>2016-04-20T14:24:57Z</time>
      </trkpt>
      <trkpt lat="43.43575" lon="6.03769">
        <ele>278.20001220703</ele>
        <time>2016-04-20T14:24:58Z</time>
      </trkpt>
      <trkpt lat="43.43575" lon="6.03769">
        <ele>278</ele>
        <time>2016-04-20T14:24:59Z</time>
      </trkpt>
      <trkpt lat="43.43575" lon="6.03769">
        <ele>278</ele>
        <time>2016-04-20T14:25:01Z</time>
      </trkpt>
      <trkpt lat="43.43575" lon="6.03769">
        <ele>278</ele>
        <time>2016-04-20T14:25:03Z</time>
      </trkpt>
      <trkpt lat="43.43575" lon="6.03769">
        <ele>278</ele>
        <time>2016-04-20T14:25:05Z</time>
      </trkpt>
      <trkpt lat="43.43575" lon="6.03769">
        <ele>278</ele>
        <time>2016-04-20T14:25:07Z</time>
      </trkpt>
      <trkpt lat="43.43575" lon="6.03769">
        <ele>278</ele>
        <time>2016-04-20T14:25:09Z</time>
      </trkpt>
      <trkpt lat="43.43575" lon="6.03769">
        <ele>278</ele>
        <time>2016-04-20T14:25:11Z</time>
      </trkpt>
      <trkpt lat="43.43575" lon="6.03769">
        <ele>278</ele>
        <time>2016-04-20T14:25:13Z</time>
      </trkpt>
      <trkpt lat="43.43575" lon="6.03769">
        <ele>278</ele>
        <time>2016-04-20T14:25:15Z</time>
      </trkpt>
      <trkpt lat="43.43575" lon="6.03769">
        <ele>278</ele>
        <time>2016-04-20T14:25:17Z</time>
      </trkpt>
      <trkpt lat="43.43575" lon="6.03769">
        <ele>277.79998779297</ele>
        <time>2016-04-20T14:25:19Z</time>
      </trkpt>
      <trkpt lat="43.43575" lon="6.03769">
        <ele>277.79998779297</ele>
        <time>2016-04-20T14:25:21Z</time>
      </trkpt>
      <trkpt lat="43.43575" lon="6.03769">
        <ele>277.79998779297</ele>
        <time>2016-04-20T14:25:23Z</time>
      </trkpt>
      <trkpt lat="43.43575" lon="6.03769">
        <ele>277.79998779297</ele>
        <time>2016-04-20T14:25:25Z</time>
      </trkpt>
      <trkpt lat="43.43575" lon="6.0377">
        <ele>277.79998779297</ele>
        <time>2016-04-20T14:25:27Z</time>
      </trkpt>
      <trkpt lat="43.43575" lon="6.0377">
        <ele>278</ele>
        <time>2016-04-20T14:25:29Z</time>
      </trkpt>
      <trkpt lat="43.43575" lon="6.0377">
        <ele>278</ele>
        <time>2016-04-20T14:25:31Z</time>
      </trkpt>
      <trkpt lat="43.43575" lon="6.0377">
        <ele>278.20001220703</ele>
        <time>2016-04-20T14:25:33Z</time>
      </trkpt>
      <trkpt lat="43.43575" lon="6.0377">
        <ele>278.20001220703</ele>
        <time>2016-04-20T14:25:35Z</time>
      </trkpt>
      <trkpt lat="43.43575" lon="6.0377">
        <ele>278</ele>
        <time>2016-04-20T14:25:37Z</time>
      </trkpt>
      <trkpt lat="43.43575" lon="6.0377">
        <ele>278</ele>
        <time>2016-04-20T14:25:39Z</time>
      </trkpt>
      <trkpt lat="43.43575" lon="6.0377">
        <ele>278</ele>
        <time>2016-04-20T14:25:41Z</time>
      </trkpt>
      <trkpt lat="43.43575" lon="6.0377">
        <ele>278</ele>
        <time>2016-04-20T14:25:43Z</time>
      </trkpt>
      <trkpt lat="43.43575" lon="6.0377">
        <ele>278.20001220703</ele>
        <time>2016-04-20T14:25:45Z</time>
      </trkpt>
      <trkpt lat="43.43575" lon="6.0377">
        <ele>278.39999389648</ele>
        <time>2016-04-20T14:25:47Z</time>
      </trkpt>
      <trkpt lat="43.43575" lon="6.0377">
        <ele>278.39999389648</ele>
        <time>2016-04-20T14:25:49Z</time>
      </trkpt>
      <trkpt lat="43.43575" lon="6.0377">
        <ele>278.20001220703</ele>
        <time>2016-04-20T14:25:51Z</time>
      </trkpt>
      <trkpt lat="43.43575" lon="6.0377">
        <ele>278.20001220703</ele>
        <time>2016-04-20T14:25:53Z</time>
      </trkpt>
      <trkpt lat="43.43575" lon="6.0377">
        <ele>278.20001220703</ele>
        <time>2016-04-20T14:25:55Z</time>
      </trkpt>
      <trkpt lat="43.43575" lon="6.0377">
        <ele>278</ele>
        <time>2016-04-20T14:25:57Z</time>
      </trkpt>
      <trkpt lat="43.43575" lon="6.0377">
        <ele>278</ele>
        <time>2016-04-20T14:25:59Z</time>
      </trkpt>
      <trkpt lat="43.43575" lon="6.0377">
        <ele>278.20001220703</ele>
        <time>2016-04-20T14:26:01Z</time>
      </trkpt>
      <trkpt lat="43.43575" lon="6.0377">
        <ele>278</ele>
        <time>2016-04-20T14:26:03Z</time>
      </trkpt>
      <trkpt lat="43.43575" lon="6.0377">
        <ele>278</ele>
        <time>2016-04-20T14:26:05Z</time>
      </trkpt>
      <trkpt lat="43.43575" lon="6.0377">
        <ele>278</ele>
        <time>2016-04-20T14:26:07Z</time>
      </trkpt>
      <trkpt lat="43.43575" lon="6.0377">
        <ele>278</ele>
        <time>2016-04-20T14:26:09Z</time>
      </trkpt>
      <trkpt lat="43.43575" lon="6.0377">
        <ele>278.20001220703</ele>
        <time>2016-04-20T14:26:11Z</time>
      </trkpt>
      <trkpt lat="43.43575" lon="6.0377">
        <ele>278.20001220703</ele>
        <time>2016-04-20T14:26:13Z</time>
      </trkpt>
      <trkpt lat="43.43575" lon="6.0377">
        <ele>278.20001220703</ele>
        <time>2016-04-20T14:26:15Z</time>
      </trkpt>
      <trkpt lat="43.43575" lon="6.0377">
        <ele>278.20001220703</ele>
        <time>2016-04-20T14:26:17Z</time>
      </trkpt>
      <trkpt lat="43.43575" lon="6.0377">
        <ele>278.20001220703</ele>
        <time>2016-04-20T14:26:19Z</time>
      </trkpt>
      <trkpt lat="43.43575" lon="6.0377">
        <ele>278.20001220703</ele>
        <time>2016-04-20T14:26:21Z</time>
      </trkpt>
      <trkpt lat="43.43575" lon="6.0377">
        <ele>278.20001220703</ele>
        <time>2016-04-20T14:26:23Z</time>
      </trkpt>
      <trkpt lat="43.43575" lon="6.0377">
        <ele>278.20001220703</ele>
        <time>2016-04-20T14:26:25Z</time>
      </trkpt>
      <trkpt lat="43.43575" lon="6.0377">
        <ele>278.39999389648</ele>
        <time>2016-04-20T14:26:27Z</time>
      </trkpt>
      <trkpt lat="43.43575" lon="6.0377">
        <ele>278.39999389648</ele>
        <time>2016-04-20T14:26:29Z</time>
      </trkpt>
      <trkpt lat="43.43575" lon="6.0377">
        <ele>278.39999389648</ele>
        <time>2016-04-20T14:26:31Z</time>
      </trkpt>
      <trkpt lat="43.43575" lon="6.0377">
        <ele>278.20001220703</ele>
        <time>2016-04-20T14:26:33Z</time>
      </trkpt>
      <trkpt lat="43.43575" lon="6.0377">
        <ele>278.20001220703</ele>
        <time>2016-04-20T14:26:35Z</time>
      </trkpt>
      <trkpt lat="43.43575" lon="6.0377">
        <ele>278.20001220703</ele>
        <time>2016-04-20T14:26:37Z</time>
      </trkpt>
      <trkpt lat="43.43575" lon="6.0377">
        <ele>278.20001220703</ele>
        <time>2016-04-20T14:26:39Z</time>
      </trkpt>
      <trkpt lat="43.43575" lon="6.0377">
        <ele>278</ele>
        <time>2016-04-20T14:26:41Z</time>
      </trkpt>
      <trkpt lat="43.43575" lon="6.0377">
        <ele>278</ele>
        <time>2016-04-20T14:26:43Z</time>
      </trkpt>
      <trkpt lat="43.43575" lon="6.0377">
        <ele>278</ele>
        <time>2016-04-20T14:26:45Z</time>
      </trkpt>
      <trkpt lat="43.43575" lon="6.0377">
        <ele>278</ele>
        <time>2016-04-20T14:26:47Z</time>
      </trkpt>
      <trkpt lat="43.43575" lon="6.0377">
        <ele>278</ele>
        <time>2016-04-20T14:26:49Z</time>
      </trkpt>
      <trkpt lat="43.43575" lon="6.0377">
        <ele>278</ele>
        <time>2016-04-20T14:26:51Z</time>
      </trkpt>
      <trkpt lat="43.43575" lon="6.0377">
        <ele>277.79998779297</ele>
        <time>2016-04-20T14:26:53Z</time>
      </trkpt>
      <trkpt lat="43.43575" lon="6.0377">
        <ele>278</ele>
        <time>2016-04-20T14:26:55Z</time>
      </trkpt>
      <trkpt lat="43.43575" lon="6.0377">
        <ele>278.20001220703</ele>
        <time>2016-04-20T14:26:57Z</time>
      </trkpt>
      <trkpt lat="43.43575" lon="6.0377">
        <ele>278</ele>
        <time>2016-04-20T14:26:59Z</time>
      </trkpt>
      <trkpt lat="43.43575" lon="6.0377">
        <ele>278.20001220703</ele>
        <time>2016-04-20T14:27:01Z</time>
      </trkpt>
      <trkpt lat="43.43575" lon="6.0377">
        <ele>278.39999389648</ele>
        <time>2016-04-20T14:27:03Z</time>
      </trkpt>
      <trkpt lat="43.43575" lon="6.0377">
        <ele>278.20001220703</ele>
        <time>2016-04-20T14:27:05Z</time>
      </trkpt>
      <trkpt lat="43.43575" lon="6.0377">
        <ele>278.20001220703</ele>
        <time>2016-04-20T14:27:07Z</time>
      </trkpt>
      <trkpt lat="43.43575" lon="6.0377">
        <ele>278.20001220703</ele>
        <time>2016-04-20T14:27:08Z</time>
      </trkpt>
      <trkpt lat="43.43575" lon="6.0377">
        <ele>278</ele>
        <time>2016-04-20T14:27:09Z</time>
      </trkpt>
      <trkpt lat="43.43575" lon="6.0377">
        <ele>277.79998779297</ele>
        <time>2016-04-20T14:27:11Z</time>
      </trkpt>
      <trkpt lat="43.43575" lon="6.0377">
        <ele>277.79998779297</ele>
        <time>2016-04-20T14:27:13Z</time>
      </trkpt>
      <trkpt lat="43.43575" lon="6.0377">
        <ele>277.79998779297</ele>
        <time>2016-04-20T14:27:15Z</time>
      </trkpt>
      <trkpt lat="43.43575" lon="6.03771">
        <ele>277.79998779297</ele>
        <time>2016-04-20T14:27:17Z</time>
      </trkpt>
      <trkpt lat="43.43575" lon="6.03771">
        <ele>278</ele>
        <time>2016-04-20T14:27:19Z</time>
      </trkpt>
      <trkpt lat="43.43575" lon="6.03771">
        <ele>278</ele>
        <time>2016-04-20T14:27:20Z</time>
      </trkpt>
      <trkpt lat="43.43575" lon="6.03771">
        <ele>278</ele>
        <time>2016-04-20T14:27:21Z</time>
      </trkpt>
      <trkpt lat="43.43575" lon="6.03771">
        <ele>278</ele>
        <time>2016-04-20T14:27:23Z</time>
      </trkpt>
      <trkpt lat="43.43575" lon="6.03771">
        <ele>278</ele>
        <time>2016-04-20T14:27:25Z</time>
      </trkpt>
      <trkpt lat="43.43575" lon="6.03771">
        <ele>278.20001220703</ele>
        <time>2016-04-20T14:27:27Z</time>
      </trkpt>
      <trkpt lat="43.43575" lon="6.03771">
        <ele>278.20001220703</ele>
        <time>2016-04-20T14:27:29Z</time>
      </trkpt>
      <trkpt lat="43.43575" lon="6.03771">
        <ele>278.20001220703</ele>
        <time>2016-04-20T14:27:31Z</time>
      </trkpt>
      <trkpt lat="43.43575" lon="6.03771">
        <ele>278.20001220703</ele>
        <time>2016-04-20T14:27:33Z</time>
      </trkpt>
      <trkpt lat="43.43575" lon="6.03771">
        <ele>278.20001220703</ele>
        <time>2016-04-20T14:27:35Z</time>
      </trkpt>
      <trkpt lat="43.43575" lon="6.03771">
        <ele>278.20001220703</ele>
        <time>2016-04-20T14:27:37Z</time>
      </trkpt>
      <trkpt lat="43.43575" lon="6.03771">
        <ele>278.20001220703</ele>
        <time>2016-04-20T14:27:39Z</time>
      </trkpt>
      <trkpt lat="43.43575" lon="6.03771">
        <ele>278.20001220703</ele>
        <time>2016-04-20T14:27:41Z</time>
      </trkpt>
      <trkpt lat="43.43575" lon="6.03771">
        <ele>278.20001220703</ele>
        <time>2016-04-20T14:27:43Z</time>
      </trkpt>
      <trkpt lat="43.43575" lon="6.03771">
        <ele>278.20001220703</ele>
        <time>2016-04-20T14:27:45Z</time>
      </trkpt>
      <trkpt lat="43.43575" lon="6.03771">
        <ele>278.20001220703</ele>
        <time>2016-04-20T14:27:47Z</time>
      </trkpt>
      <trkpt lat="43.43575" lon="6.03771">
        <ele>278.39999389648</ele>
        <time>2016-04-20T14:27:49Z</time>
      </trkpt>
      <trkpt lat="43.43575" lon="6.03771">
        <ele>278.39999389648</ele>
        <time>2016-04-20T14:27:51Z</time>
      </trkpt>
      <trkpt lat="43.43575" lon="6.03771">
        <ele>278.39999389648</ele>
        <time>2016-04-20T14:27:53Z</time>
      </trkpt>
      <trkpt lat="43.43575" lon="6.03771">
        <ele>278.39999389648</ele>
        <time>2016-04-20T14:27:55Z</time>
      </trkpt>
      <trkpt lat="43.43575" lon="6.03771">
        <ele>278.39999389648</ele>
        <time>2016-04-20T14:27:57Z</time>
      </trkpt>
      <trkpt lat="43.43575" lon="6.03771">
        <ele>278.20001220703</ele>
        <time>2016-04-20T14:27:59Z</time>
      </trkpt>
      <trkpt lat="43.43575" lon="6.03771">
        <ele>278.20001220703</ele>
        <time>2016-04-20T14:28:01Z</time>
      </trkpt>
      <trkpt lat="43.43575" lon="6.03771">
        <ele>278</ele>
        <time>2016-04-20T14:28:03Z</time>
      </trkpt>
      <trkpt lat="43.43575" lon="6.03771">
        <ele>278.20001220703</ele>
        <time>2016-04-20T14:28:07Z</time>
      </trkpt>
      <trkpt lat="43.43575" lon="6.03771">
        <ele>278.20001220703</ele>
        <time>2016-04-20T14:28:09Z</time>
      </trkpt>
      <trkpt lat="43.43575" lon="6.03771">
        <ele>278</ele>
        <time>2016-04-20T14:28:11Z</time>
      </trkpt>
      <trkpt lat="43.43575" lon="6.03771">
        <ele>278</ele>
        <time>2016-04-20T14:28:13Z</time>
      </trkpt>
      <trkpt lat="43.43575" lon="6.03771">
        <ele>278.20001220703</ele>
        <time>2016-04-20T14:28:15Z</time>
      </trkpt>
      <trkpt lat="43.43575" lon="6.03771">
        <ele>278.20001220703</ele>
        <time>2016-04-20T14:28:17Z</time>
      </trkpt>
      <trkpt lat="43.43575" lon="6.03771">
        <ele>278.20001220703</ele>
        <time>2016-04-20T14:28:19Z</time>
      </trkpt>
      <trkpt lat="43.43575" lon="6.03771">
        <ele>278.20001220703</ele>
        <time>2016-04-20T14:28:21Z</time>
      </trkpt>
      <trkpt lat="43.43575" lon="6.03771">
        <ele>278.20001220703</ele>
        <time>2016-04-20T14:28:23Z</time>
      </trkpt>
      <trkpt lat="43.43575" lon="6.03771">
        <ele>278.20001220703</ele>
        <time>2016-04-20T14:28:25Z</time>
      </trkpt>
      <trkpt lat="43.43575" lon="6.03771">
        <ele>278.20001220703</ele>
        <time>2016-04-20T14:28:27Z</time>
      </trkpt>
      <trkpt lat="43.43575" lon="6.03771">
        <ele>278.20001220703</ele>
        <time>2016-04-20T14:28:29Z</time>
      </trkpt>
      <trkpt lat="43.43575" lon="6.03771">
        <ele>278.20001220703</ele>
        <time>2016-04-20T14:28:31Z</time>
      </trkpt>
      <trkpt lat="43.43575" lon="6.03771">
        <ele>278.39999389648</ele>
        <time>2016-04-20T14:28:33Z</time>
      </trkpt>
      <trkpt lat="43.43575" lon="6.03771">
        <ele>278.39999389648</ele>
        <time>2016-04-20T14:28:35Z</time>
      </trkpt>
      <trkpt lat="43.43575" lon="6.03771">
        <ele>278.39999389648</ele>
        <time>2016-04-20T14:28:37Z</time>
      </trkpt>
      <trkpt lat="43.43575" lon="6.03771">
        <ele>278.39999389648</ele>
        <time>2016-04-20T14:28:39Z</time>
      </trkpt>
      <trkpt lat="43.43575" lon="6.03771">
        <ele>278.39999389648</ele>
        <time>2016-04-20T14:28:41Z</time>
      </trkpt>
      <trkpt lat="43.43575" lon="6.03771">
        <ele>278.39999389648</ele>
        <time>2016-04-20T14:28:43Z</time>
      </trkpt>
      <trkpt lat="43.43575" lon="6.03771">
        <ele>278.39999389648</ele>
        <time>2016-04-20T14:28:45Z</time>
      </trkpt>
      <trkpt lat="43.43575" lon="6.03771">
        <ele>278.39999389648</ele>
        <time>2016-04-20T14:28:47Z</time>
      </trkpt>
      <trkpt lat="43.43575" lon="6.03771">
        <ele>278.39999389648</ele>
        <time>2016-04-20T14:28:49Z</time>
      </trkpt>
      <trkpt lat="43.43575" lon="6.03771">
        <ele>278.60000610352</ele>
        <time>2016-04-20T14:28:51Z</time>
      </trkpt>
      <trkpt lat="43.43575" lon="6.03771">
        <ele>278.60000610352</ele>
        <time>2016-04-20T14:28:53Z</time>
      </trkpt>
      <trkpt lat="43.43575" lon="6.03771">
        <ele>278.60000610352</ele>
        <time>2016-04-20T14:28:55Z</time>
      </trkpt>
      <trkpt lat="43.43575" lon="6.03771">
        <ele>278.60000610352</ele>
        <time>2016-04-20T14:28:57Z</time>
      </trkpt>
      <trkpt lat="43.43575" lon="6.03771">
        <ele>278.60000610352</ele>
        <time>2016-04-20T14:28:59Z</time>
      </trkpt>
      <trkpt lat="43.43575" lon="6.03771">
        <ele>278.39999389648</ele>
        <time>2016-04-20T14:29:01Z</time>
      </trkpt>
      <trkpt lat="43.43575" lon="6.03771">
        <ele>278.39999389648</ele>
        <time>2016-04-20T14:29:03Z</time>
      </trkpt>
      <trkpt lat="43.43575" lon="6.03771">
        <ele>278.39999389648</ele>
        <time>2016-04-20T14:29:05Z</time>
      </trkpt>
      <trkpt lat="43.43575" lon="6.03771">
        <ele>278.39999389648</ele>
        <time>2016-04-20T14:29:07Z</time>
      </trkpt>
      <trkpt lat="43.43575" lon="6.03771">
        <ele>278.39999389648</ele>
        <time>2016-04-20T14:29:08Z</time>
      </trkpt>
      <trkpt lat="43.43575" lon="6.03771">
        <ele>278.39999389648</ele>
        <time>2016-04-20T14:29:09Z</time>
      </trkpt>
      <trkpt lat="43.43575" lon="6.03771">
        <ele>278.39999389648</ele>
        <time>2016-04-20T14:29:11Z</time>
      </trkpt>
      <trkpt lat="43.43575" lon="6.03771">
        <ele>278.39999389648</ele>
        <time>2016-04-20T14:29:13Z</time>
      </trkpt>
      <trkpt lat="43.43575" lon="6.03771">
        <ele>278.39999389648</ele>
        <time>2016-04-20T14:29:15Z</time>
      </trkpt>
      <trkpt lat="43.43575" lon="6.03771">
        <ele>278.39999389648</ele>
        <time>2016-04-20T14:29:17Z</time>
      </trkpt>
      <trkpt lat="43.43575" lon="6.03771">
        <ele>278.60000610352</ele>
        <time>2016-04-20T14:29:19Z</time>
      </trkpt>
      <trkpt lat="43.43575" lon="6.03771">
        <ele>278.39999389648</ele>
        <time>2016-04-20T14:29:21Z</time>
      </trkpt>
      <trkpt lat="43.43575" lon="6.03771">
        <ele>278.39999389648</ele>
        <time>2016-04-20T14:29:23Z</time>
      </trkpt>
      <trkpt lat="43.43575" lon="6.03771">
        <ele>278.39999389648</ele>
        <time>2016-04-20T14:29:25Z</time>
      </trkpt>
      <trkpt lat="43.43575" lon="6.03771">
        <ele>278.60000610352</ele>
        <time>2016-04-20T14:29:27Z</time>
      </trkpt>
      <trkpt lat="43.43575" lon="6.03771">
        <ele>278.60000610352</ele>
        <time>2016-04-20T14:29:29Z</time>
      </trkpt>
      <trkpt lat="43.43575" lon="6.03771">
        <ele>278.60000610352</ele>
        <time>2016-04-20T14:29:31Z</time>
      </trkpt>
      <trkpt lat="43.43575" lon="6.03771">
        <ele>278.60000610352</ele>
        <time>2016-04-20T14:29:33Z</time>
      </trkpt>
      <trkpt lat="43.43575" lon="6.03771">
        <ele>278.60000610352</ele>
        <time>2016-04-20T14:29:35Z</time>
      </trkpt>
      <trkpt lat="43.43575" lon="6.03771">
        <ele>278.60000610352</ele>
        <time>2016-04-20T14:29:37Z</time>
      </trkpt>
      <trkpt lat="43.43575" lon="6.03771">
        <ele>278.39999389648</ele>
        <time>2016-04-20T14:29:39Z</time>
      </trkpt>
      <trkpt lat="43.43575" lon="6.03771">
        <ele>278.39999389648</ele>
        <time>2016-04-20T14:29:41Z</time>
      </trkpt>
      <trkpt lat="43.43575" lon="6.03771">
        <ele>278.20001220703</ele>
        <time>2016-04-20T14:29:43Z</time>
      </trkpt>
      <trkpt lat="43.43575" lon="6.03771">
        <ele>278.60000610352</ele>
        <time>2016-04-20T14:29:45Z</time>
      </trkpt>
      <trkpt lat="43.43575" lon="6.03771">
        <ele>278.60000610352</ele>
        <time>2016-04-20T14:29:47Z</time>
      </trkpt>
      <trkpt lat="43.43575" lon="6.03771">
        <ele>278.39999389648</ele>
        <time>2016-04-20T14:29:49Z</time>
      </trkpt>
      <trkpt lat="43.43575" lon="6.03771">
        <ele>278.39999389648</ele>
        <time>2016-04-20T14:29:51Z</time>
      </trkpt>
      <trkpt lat="43.43575" lon="6.03771">
        <ele>278.39999389648</ele>
        <time>2016-04-20T14:29:53Z</time>
      </trkpt>
      <trkpt lat="43.43575" lon="6.03771">
        <ele>278.60000610352</ele>
        <time>2016-04-20T14:29:55Z</time>
      </trkpt>
      <trkpt lat="43.43575" lon="6.03771">
        <ele>278.60000610352</ele>
        <time>2016-04-20T14:29:57Z</time>
      </trkpt>
      <trkpt lat="43.43575" lon="6.03771">
        <ele>278.79998779297</ele>
        <time>2016-04-20T14:29:59Z</time>
      </trkpt>
      <trkpt lat="43.43575" lon="6.03771">
        <ele>279</ele>
        <time>2016-04-20T14:30:01Z</time>
      </trkpt>
      <trkpt lat="43.43575" lon="6.03771">
        <ele>278.79998779297</ele>
        <time>2016-04-20T14:30:03Z</time>
      </trkpt>
      <trkpt lat="43.43575" lon="6.03771">
        <ele>278.60000610352</ele>
        <time>2016-04-20T14:30:05Z</time>
      </trkpt>
      <trkpt lat="43.43575" lon="6.03771">
        <ele>278.60000610352</ele>
        <time>2016-04-20T14:30:07Z</time>
      </trkpt>
      <trkpt lat="43.43575" lon="6.03771">
        <ele>278.60000610352</ele>
        <time>2016-04-20T14:30:09Z</time>
      </trkpt>
      <trkpt lat="43.43575" lon="6.03771">
        <ele>278.60000610352</ele>
        <time>2016-04-20T14:30:11Z</time>
      </trkpt>
      <trkpt lat="43.43575" lon="6.03771">
        <ele>278.60000610352</ele>
        <time>2016-04-20T14:30:13Z</time>
      </trkpt>
      <trkpt lat="43.43575" lon="6.03771">
        <ele>278.60000610352</ele>
        <time>2016-04-20T14:30:15Z</time>
      </trkpt>
      <trkpt lat="43.43575" lon="6.03771">
        <ele>278.60000610352</ele>
        <time>2016-04-20T14:30:17Z</time>
      </trkpt>
      <trkpt lat="43.43575" lon="6.03771">
        <ele>278.60000610352</ele>
        <time>2016-04-20T14:30:19Z</time>
      </trkpt>
      <trkpt lat="43.43575" lon="6.03771">
        <ele>278.60000610352</ele>
        <time>2016-04-20T14:30:21Z</time>
      </trkpt>
      <trkpt lat="43.43575" lon="6.03771">
        <ele>278.60000610352</ele>
        <time>2016-04-20T14:30:22Z</time>
      </trkpt>
      <trkpt lat="43.43575" lon="6.03771">
        <ele>278.60000610352</ele>
        <time>2016-04-20T14:30:23Z</time>
      </trkpt>
      <trkpt lat="43.43575" lon="6.03771">
        <ele>278.60000610352</ele>
        <time>2016-04-20T14:30:25Z</time>
      </trkpt>
      <trkpt lat="43.43575" lon="6.03771">
        <ele>278.60000610352</ele>
        <time>2016-04-20T14:30:27Z</time>
      </trkpt>
      <trkpt lat="43.43575" lon="6.03771">
        <ele>278.39999389648</ele>
        <time>2016-04-20T14:30:29Z</time>
      </trkpt>
      <trkpt lat="43.43575" lon="6.03771">
        <ele>278.39999389648</ele>
        <time>2016-04-20T14:30:31Z</time>
      </trkpt>
      <trkpt lat="43.43575" lon="6.03771">
        <ele>278.60000610352</ele>
        <time>2016-04-20T14:30:33Z</time>
      </trkpt>
      <trkpt lat="43.43575" lon="6.03771">
        <ele>278.60000610352</ele>
        <time>2016-04-20T14:30:35Z</time>
      </trkpt>
      <trkpt lat="43.43575" lon="6.03772">
        <ele>278.60000610352</ele>
        <time>2016-04-20T14:30:37Z</time>
      </trkpt>
      <trkpt lat="43.43575" lon="6.03774">
        <ele>278.60000610352</ele>
        <time>2016-04-20T14:30:39Z</time>
      </trkpt>
      <trkpt lat="43.43575" lon="6.03777">
        <ele>278.60000610352</ele>
        <time>2016-04-20T14:30:41Z</time>
      </trkpt>
      <trkpt lat="43.43575" lon="6.03781">
        <ele>278.60000610352</ele>
        <time>2016-04-20T14:30:43Z</time>
      </trkpt>
      <trkpt lat="43.43576" lon="6.03784">
        <ele>278.60000610352</ele>
        <time>2016-04-20T14:30:44Z</time>
      </trkpt>
      <trkpt lat="43.43576" lon="6.03786">
        <ele>278.60000610352</ele>
        <time>2016-04-20T14:30:45Z</time>
      </trkpt>
      <trkpt lat="43.43577" lon="6.03792">
        <ele>278.79998779297</ele>
        <time>2016-04-20T14:30:47Z</time>
      </trkpt>
      <trkpt lat="43.4358" lon="6.038">
        <ele>279</ele>
        <time>2016-04-20T14:30:49Z</time>
      </trkpt>
      <trkpt lat="43.43584" lon="6.0381">
        <ele>278.79998779297</ele>
        <time>2016-04-20T14:30:51Z</time>
      </trkpt>
      <trkpt lat="43.43586" lon="6.03815">
        <ele>278.60000610352</ele>
        <time>2016-04-20T14:30:52Z</time>
      </trkpt>
      <trkpt lat="43.43588" lon="6.03821">
        <ele>278.39999389648</ele>
        <time>2016-04-20T14:30:53Z</time>
      </trkpt>
      <trkpt lat="43.43589" lon="6.03828">
        <ele>278.20001220703</ele>
        <time>2016-04-20T14:30:54Z</time>
      </trkpt>
      <trkpt lat="43.43589" lon="6.03834">
        <ele>277.79998779297</ele>
        <time>2016-04-20T14:30:55Z</time>
      </trkpt>
      <trkpt lat="43.4359" lon="6.03847">
        <ele>277.20001220703</ele>
        <time>2016-04-20T14:30:57Z</time>
      </trkpt>
      <trkpt lat="43.43589" lon="6.03853">
        <ele>277</ele>
        <time>2016-04-20T14:30:58Z</time>
      </trkpt>
      <trkpt lat="43.4359" lon="6.03859">
        <ele>276.60000610352</ele>
        <time>2016-04-20T14:30:59Z</time>
      </trkpt>
      <trkpt lat="43.4359" lon="6.03869">
        <ele>276</ele>
        <time>2016-04-20T14:31:01Z</time>
      </trkpt>
      <trkpt lat="43.43589" lon="6.03875">
        <ele>276</ele>
        <time>2016-04-20T14:31:02Z</time>
      </trkpt>
      <trkpt lat="43.43589" lon="6.0388">
        <ele>275.60000610352</ele>
        <time>2016-04-20T14:31:03Z</time>
      </trkpt>
      <trkpt lat="43.43589" lon="6.0389">
        <ele>275.39999389648</ele>
        <time>2016-04-20T14:31:05Z</time>
      </trkpt>
      <trkpt lat="43.43589" lon="6.03896">
        <ele>275.39999389648</ele>
        <time>2016-04-20T14:31:06Z</time>
      </trkpt>
      <trkpt lat="43.4359" lon="6.03902">
        <ele>275</ele>
        <time>2016-04-20T14:31:07Z</time>
      </trkpt>
      <trkpt lat="43.43592" lon="6.03908">
        <ele>274.79998779297</ele>
        <time>2016-04-20T14:31:08Z</time>
      </trkpt>
      <trkpt lat="43.43594" lon="6.03914">
        <ele>274.79998779297</ele>
        <time>2016-04-20T14:31:09Z</time>
      </trkpt>
      <trkpt lat="43.43597" lon="6.03919">
        <ele>274.79998779297</ele>
        <time>2016-04-20T14:31:10Z</time>
      </trkpt>
      <trkpt lat="43.43599" lon="6.03925">
        <ele>274.79998779297</ele>
        <time>2016-04-20T14:31:11Z</time>
      </trkpt>
      <trkpt lat="43.43604" lon="6.03937">
        <ele>274.60000610352</ele>
        <time>2016-04-20T14:31:13Z</time>
      </trkpt>
      <trkpt lat="43.43605" lon="6.03944">
        <ele>274.39999389648</ele>
        <time>2016-04-20T14:31:14Z</time>
      </trkpt>
      <trkpt lat="43.43606" lon="6.03951">
        <ele>274.39999389648</ele>
        <time>2016-04-20T14:31:15Z</time>
      </trkpt>
      <trkpt lat="43.43607" lon="6.03958">
        <ele>274.60000610352</ele>
        <time>2016-04-20T14:31:16Z</time>
      </trkpt>
      <trkpt lat="43.43607" lon="6.03964">
        <ele>274.60000610352</ele>
        <time>2016-04-20T14:31:17Z</time>
      </trkpt>
      <trkpt lat="43.43606" lon="6.03974">
        <ele>275.20001220703</ele>
        <time>2016-04-20T14:31:19Z</time>
      </trkpt>
      <trkpt lat="43.43606" lon="6.03978">
        <ele>275.39999389648</ele>
        <time>2016-04-20T14:31:20Z</time>
      </trkpt>
      <trkpt lat="43.43605" lon="6.03982">
        <ele>275.79998779297</ele>
        <time>2016-04-20T14:31:21Z</time>
      </trkpt>
      <trkpt lat="43.43605" lon="6.03985">
        <ele>276</ele>
        <time>2016-04-20T14:31:22Z</time>
      </trkpt>
      <trkpt lat="43.43604" lon="6.03989">
        <ele>276.20001220703</ele>
        <time>2016-04-20T14:31:23Z</time>
      </trkpt>
      <trkpt lat="43.43602" lon="6.03996">
        <ele>276.60000610352</ele>
        <time>2016-04-20T14:31:25Z</time>
      </trkpt>
      <trkpt lat="43.436" lon="6.04004">
        <ele>277</ele>
        <time>2016-04-20T14:31:27Z</time>
      </trkpt>
      <trkpt lat="43.43597" lon="6.04015">
        <ele>276.79998779297</ele>
        <time>2016-04-20T14:31:29Z</time>
      </trkpt>
      <trkpt lat="43.43594" lon="6.0402">
        <ele>276.60000610352</ele>
        <time>2016-04-20T14:31:30Z</time>
      </trkpt>
      <trkpt lat="43.43592" lon="6.04026">
        <ele>276.60000610352</ele>
        <time>2016-04-20T14:31:31Z</time>
      </trkpt>
      <trkpt lat="43.43586" lon="6.04035">
        <ele>276.39999389648</ele>
        <time>2016-04-20T14:31:33Z</time>
      </trkpt>
      <trkpt lat="43.43584" lon="6.0404">
        <ele>276.20001220703</ele>
        <time>2016-04-20T14:31:34Z</time>
      </trkpt>
      <trkpt lat="43.43581" lon="6.04045">
        <ele>275.79998779297</ele>
        <time>2016-04-20T14:31:35Z</time>
      </trkpt>
      <trkpt lat="43.43574" lon="6.04056">
        <ele>274.79998779297</ele>
        <time>2016-04-20T14:31:37Z</time>
      </trkpt>
      <trkpt lat="43.4357" lon="6.04062">
        <ele>274.60000610352</ele>
        <time>2016-04-20T14:31:38Z</time>
      </trkpt>
      <trkpt lat="43.43568" lon="6.04068">
        <ele>274.39999389648</ele>
        <time>2016-04-20T14:31:39Z</time>
      </trkpt>
      <trkpt lat="43.43565" lon="6.04074">
        <ele>274.20001220703</ele>
        <time>2016-04-20T14:31:40Z</time>
      </trkpt>
      <trkpt lat="43.43563" lon="6.04081">
        <ele>274.20001220703</ele>
        <time>2016-04-20T14:31:41Z</time>
      </trkpt>
      <trkpt lat="43.43559" lon="6.04095">
        <ele>274.20001220703</ele>
        <time>2016-04-20T14:31:43Z</time>
      </trkpt>
      <trkpt lat="43.43554" lon="6.04108">
        <ele>273.79998779297</ele>
        <time>2016-04-20T14:31:45Z</time>
      </trkpt>
      <trkpt lat="43.43552" lon="6.04115">
        <ele>273.60000610352</ele>
        <time>2016-04-20T14:31:46Z</time>
      </trkpt>
      <trkpt lat="43.4355" lon="6.04121">
        <ele>273.39999389648</ele>
        <time>2016-04-20T14:31:47Z</time>
      </trkpt>
      <trkpt lat="43.43546" lon="6.04133">
        <ele>273.79998779297</ele>
        <time>2016-04-20T14:31:49Z</time>
      </trkpt>
      <trkpt lat="43.43541" lon="6.04145">
        <ele>273.79998779297</ele>
        <time>2016-04-20T14:31:51Z</time>
      </trkpt>
      <trkpt lat="43.43537" lon="6.04158">
        <ele>273.60000610352</ele>
        <time>2016-04-20T14:31:53Z</time>
      </trkpt>
      <trkpt lat="43.43536" lon="6.04173">
        <ele>273.60000610352</ele>
        <time>2016-04-20T14:31:55Z</time>
      </trkpt>
      <trkpt lat="43.43538" lon="6.04188">
        <ele>273.39999389648</ele>
        <time>2016-04-20T14:31:57Z</time>
      </trkpt>
      <trkpt lat="43.43541" lon="6.04204">
        <ele>272.60000610352</ele>
        <time>2016-04-20T14:31:59Z</time>
      </trkpt>
      <trkpt lat="43.4354" lon="6.04213">
        <ele>271.79998779297</ele>
        <time>2016-04-20T14:32:00Z</time>
      </trkpt>
      <trkpt lat="43.43538" lon="6.0422">
        <ele>271.39999389648</ele>
        <time>2016-04-20T14:32:01Z</time>
      </trkpt>
      <trkpt lat="43.43532" lon="6.04233">
        <ele>270.79998779297</ele>
        <time>2016-04-20T14:32:03Z</time>
      </trkpt>
      <trkpt lat="43.43525" lon="6.04242">
        <ele>270.79998779297</ele>
        <time>2016-04-20T14:32:05Z</time>
      </trkpt>
      <trkpt lat="43.43517" lon="6.04247">
        <ele>271.39999389648</ele>
        <time>2016-04-20T14:32:07Z</time>
      </trkpt>
      <trkpt lat="43.43511" lon="6.04254">
        <ele>271.60000610352</ele>
        <time>2016-04-20T14:32:09Z</time>
      </trkpt>
      <trkpt lat="43.43509" lon="6.04258">
        <ele>271.60000610352</ele>
        <time>2016-04-20T14:32:10Z</time>
      </trkpt>
      <trkpt lat="43.43507" lon="6.04262">
        <ele>271.60000610352</ele>
        <time>2016-04-20T14:32:11Z</time>
      </trkpt>
      <trkpt lat="43.43502" lon="6.04271">
        <ele>271.60000610352</ele>
        <time>2016-04-20T14:32:13Z</time>
      </trkpt>
      <trkpt lat="43.43499" lon="6.04281">
        <ele>271.60000610352</ele>
        <time>2016-04-20T14:32:15Z</time>
      </trkpt>
      <trkpt lat="43.43498" lon="6.04286">
        <ele>271.60000610352</ele>
        <time>2016-04-20T14:32:16Z</time>
      </trkpt>
      <trkpt lat="43.43497" lon="6.04291">
        <ele>271.60000610352</ele>
        <time>2016-04-20T14:32:17Z</time>
      </trkpt>
      <trkpt lat="43.43495" lon="6.04301">
        <ele>272</ele>
        <time>2016-04-20T14:32:19Z</time>
      </trkpt>
      <trkpt lat="43.43494" lon="6.04311">
        <ele>272</ele>
        <time>2016-04-20T14:32:21Z</time>
      </trkpt>
      <trkpt lat="43.43493" lon="6.04321">
        <ele>272</ele>
        <time>2016-04-20T14:32:23Z</time>
      </trkpt>
      <trkpt lat="43.43493" lon="6.04331">
        <ele>272</ele>
        <time>2016-04-20T14:32:25Z</time>
      </trkpt>
      <trkpt lat="43.43492" lon="6.04341">
        <ele>272.39999389648</ele>
        <time>2016-04-20T14:32:27Z</time>
      </trkpt>
      <trkpt lat="43.43491" lon="6.04352">
        <ele>272.79998779297</ele>
        <time>2016-04-20T14:32:29Z</time>
      </trkpt>
      <trkpt lat="43.4349" lon="6.04361">
        <ele>273.20001220703</ele>
        <time>2016-04-20T14:32:31Z</time>
      </trkpt>
      <trkpt lat="43.43489" lon="6.04372">
        <ele>273.39999389648</ele>
        <time>2016-04-20T14:32:33Z</time>
      </trkpt>
      <trkpt lat="43.43488" lon="6.04383">
        <ele>273</ele>
        <time>2016-04-20T14:32:35Z</time>
      </trkpt>
      <trkpt lat="43.43488" lon="6.04395">
        <ele>272.79998779297</ele>
        <time>2016-04-20T14:32:37Z</time>
      </trkpt>
      <trkpt lat="43.43488" lon="6.04401">
        <ele>272.60000610352</ele>
        <time>2016-04-20T14:32:38Z</time>
      </trkpt>
      <trkpt lat="43.43488" lon="6.04407">
        <ele>272.39999389648</ele>
        <time>2016-04-20T14:32:39Z</time>
      </trkpt>
      <trkpt lat="43.43488" lon="6.04419">
        <ele>272.39999389648</ele>
        <time>2016-04-20T14:32:41Z</time>
      </trkpt>
      <trkpt lat="43.43486" lon="6.04431">
        <ele>272.20001220703</ele>
        <time>2016-04-20T14:32:43Z</time>
      </trkpt>
      <trkpt lat="43.43485" lon="6.04444">
        <ele>272.39999389648</ele>
        <time>2016-04-20T14:32:45Z</time>
      </trkpt>
      <trkpt lat="43.43487" lon="6.04457">
        <ele>272.39999389648</ele>
        <time>2016-04-20T14:32:47Z</time>
      </trkpt>
      <trkpt lat="43.43488" lon="6.04464">
        <ele>272.20001220703</ele>
        <time>2016-04-20T14:32:48Z</time>
      </trkpt>
      <trkpt lat="43.43489" lon="6.0447">
        <ele>272.20001220703</ele>
        <time>2016-04-20T14:32:49Z</time>
      </trkpt>
      <trkpt lat="43.4349" lon="6.04476">
        <ele>272.20001220703</ele>
        <time>2016-04-20T14:32:50Z</time>
      </trkpt>
      <trkpt lat="43.4349" lon="6.04482">
        <ele>272.20001220703</ele>
        <time>2016-04-20T14:32:51Z</time>
      </trkpt>
      <trkpt lat="43.43489" lon="6.04495">
        <ele>272.20001220703</ele>
        <time>2016-04-20T14:32:53Z</time>
      </trkpt>
      <trkpt lat="43.43488" lon="6.04507">
        <ele>272</ele>
        <time>2016-04-20T14:32:55Z</time>
      </trkpt>
      <trkpt lat="43.43484" lon="6.04518">
        <ele>272.20001220703</ele>
        <time>2016-04-20T14:32:57Z</time>
      </trkpt>
      <trkpt lat="43.43481" lon="6.04529">
        <ele>272.39999389648</ele>
        <time>2016-04-20T14:32:59Z</time>
      </trkpt>
      <trkpt lat="43.43476" lon="6.0454">
        <ele>272.20001220703</ele>
        <time>2016-04-20T14:33:01Z</time>
      </trkpt>
      <trkpt lat="43.43472" lon="6.04551">
        <ele>272.20001220703</ele>
        <time>2016-04-20T14:33:03Z</time>
      </trkpt>
      <trkpt lat="43.43467" lon="6.04561">
        <ele>272.20001220703</ele>
        <time>2016-04-20T14:33:05Z</time>
      </trkpt>
      <trkpt lat="43.43466" lon="6.04567">
        <ele>272</ele>
        <time>2016-04-20T14:33:06Z</time>
      </trkpt>
      <trkpt lat="43.43465" lon="6.04573">
        <ele>272.20001220703</ele>
        <time>2016-04-20T14:33:07Z</time>
      </trkpt>
      <trkpt lat="43.43463" lon="6.04586">
        <ele>272</ele>
        <time>2016-04-20T14:33:09Z</time>
      </trkpt>
      <trkpt lat="43.43461" lon="6.04598">
        <ele>271.60000610352</ele>
        <time>2016-04-20T14:33:11Z</time>
      </trkpt>
      <trkpt lat="43.43459" lon="6.04611">
        <ele>271.79998779297</ele>
        <time>2016-04-20T14:33:13Z</time>
      </trkpt>
      <trkpt lat="43.43456" lon="6.04625">
        <ele>271.79998779297</ele>
        <time>2016-04-20T14:33:15Z</time>
      </trkpt>
      <trkpt lat="43.43454" lon="6.04639">
        <ele>271.79998779297</ele>
        <time>2016-04-20T14:33:17Z</time>
      </trkpt>
      <trkpt lat="43.43451" lon="6.04652">
        <ele>271.20001220703</ele>
        <time>2016-04-20T14:33:19Z</time>
      </trkpt>
      <trkpt lat="43.4345" lon="6.04659">
        <ele>270.79998779297</ele>
        <time>2016-04-20T14:33:20Z</time>
      </trkpt>
      <trkpt lat="43.43449" lon="6.04665">
        <ele>270.39999389648</ele>
        <time>2016-04-20T14:33:21Z</time>
      </trkpt>
      <trkpt lat="43.43446" lon="6.04675">
        <ele>270.39999389648</ele>
        <time>2016-04-20T14:33:23Z</time>
      </trkpt>
      <trkpt lat="43.43446" lon="6.0468">
        <ele>270.39999389648</ele>
        <time>2016-04-20T14:33:25Z</time>
      </trkpt>
      <trkpt lat="43.43445" lon="6.04681">
        <ele>270</ele>
        <time>2016-04-20T14:33:27Z</time>
      </trkpt>
      <trkpt lat="43.43445" lon="6.04681">
        <ele>269.79998779297</ele>
        <time>2016-04-20T14:33:29Z</time>
      </trkpt>
      <trkpt lat="43.43445" lon="6.04681">
        <ele>269.79998779297</ele>
        <time>2016-04-20T14:33:30Z</time>
      </trkpt>
      <trkpt lat="43.43445" lon="6.04681">
        <ele>269.79998779297</ele>
        <time>2016-04-20T14:33:31Z</time>
      </trkpt>
      <trkpt lat="43.43445" lon="6.04681">
        <ele>269.79998779297</ele>
        <time>2016-04-20T14:33:33Z</time>
      </trkpt>
      <trkpt lat="43.43445" lon="6.04681">
        <ele>270</ele>
        <time>2016-04-20T14:33:35Z</time>
      </trkpt>
      <trkpt lat="43.43445" lon="6.04681">
        <ele>270.20001220703</ele>
        <time>2016-04-20T14:33:37Z</time>
      </trkpt>
      <trkpt lat="43.43445" lon="6.04681">
        <ele>270.20001220703</ele>
        <time>2016-04-20T14:33:39Z</time>
      </trkpt>
      <trkpt lat="43.43445" lon="6.04681">
        <ele>270.20001220703</ele>
        <time>2016-04-20T14:33:41Z</time>
      </trkpt>
      <trkpt lat="43.43445" lon="6.04681">
        <ele>270.20001220703</ele>
        <time>2016-04-20T14:33:43Z</time>
      </trkpt>
      <trkpt lat="43.43445" lon="6.04681">
        <ele>270.20001220703</ele>
        <time>2016-04-20T14:33:45Z</time>
      </trkpt>
      <trkpt lat="43.43445" lon="6.04681">
        <ele>270</ele>
        <time>2016-04-20T14:33:47Z</time>
      </trkpt>
      <trkpt lat="43.43445" lon="6.04681">
        <ele>270</ele>
        <time>2016-04-20T14:33:49Z</time>
      </trkpt>
      <trkpt lat="43.43445" lon="6.04681">
        <ele>270</ele>
        <time>2016-04-20T14:33:51Z</time>
      </trkpt>
      <trkpt lat="43.43445" lon="6.04681">
        <ele>270.20001220703</ele>
        <time>2016-04-20T14:33:53Z</time>
      </trkpt>
      <trkpt lat="43.43445" lon="6.04681">
        <ele>270.20001220703</ele>
        <time>2016-04-20T14:33:55Z</time>
      </trkpt>
      <trkpt lat="43.43445" lon="6.04681">
        <ele>270.39999389648</ele>
        <time>2016-04-20T14:33:56Z</time>
      </trkpt>
      <trkpt lat="43.43445" lon="6.04681">
        <ele>270.39999389648</ele>
        <time>2016-04-20T14:33:57Z</time>
      </trkpt>
      <trkpt lat="43.43445" lon="6.04681">
        <ele>270.39999389648</ele>
        <time>2016-04-20T14:33:59Z</time>
      </trkpt>
      <trkpt lat="43.43445" lon="6.04681">
        <ele>270.20001220703</ele>
        <time>2016-04-20T14:34:01Z</time>
      </trkpt>
      <trkpt lat="43.43445" lon="6.04681">
        <ele>270.20001220703</ele>
        <time>2016-04-20T14:34:03Z</time>
      </trkpt>
      <trkpt lat="43.43445" lon="6.04681">
        <ele>270.39999389648</ele>
        <time>2016-04-20T14:34:05Z</time>
      </trkpt>
      <trkpt lat="43.43445" lon="6.04681">
        <ele>270.39999389648</ele>
        <time>2016-04-20T14:34:07Z</time>
      </trkpt>
      <trkpt lat="43.43445" lon="6.04681">
        <ele>270.39999389648</ele>
        <time>2016-04-20T14:34:09Z</time>
      </trkpt>
      <trkpt lat="43.43445" lon="6.04681">
        <ele>270.20001220703</ele>
        <time>2016-04-20T14:34:11Z</time>
      </trkpt>
      <trkpt lat="43.43445" lon="6.04681">
        <ele>270</ele>
        <time>2016-04-20T14:34:13Z</time>
      </trkpt>
      <trkpt lat="43.43445" lon="6.04681">
        <ele>269.79998779297</ele>
        <time>2016-04-20T14:34:15Z</time>
      </trkpt>
      <trkpt lat="43.43445" lon="6.04681">
        <ele>269.60000610352</ele>
        <time>2016-04-20T14:34:16Z</time>
      </trkpt>
      <trkpt lat="43.43445" lon="6.04681">
        <ele>269.60000610352</ele>
        <time>2016-04-20T14:34:17Z</time>
      </trkpt>
      <trkpt lat="43.43445" lon="6.04681">
        <ele>269.60000610352</ele>
        <time>2016-04-20T14:34:19Z</time>
      </trkpt>
      <trkpt lat="43.43445" lon="6.04681">
        <ele>269.79998779297</ele>
        <time>2016-04-20T14:34:21Z</time>
      </trkpt>
      <trkpt lat="43.43445" lon="6.04681">
        <ele>270.20001220703</ele>
        <time>2016-04-20T14:34:23Z</time>
      </trkpt>
      <trkpt lat="43.43445" lon="6.04681">
        <ele>270.20001220703</ele>
        <time>2016-04-20T14:34:25Z</time>
      </trkpt>
      <trkpt lat="43.43445" lon="6.04681">
        <ele>270.20001220703</ele>
        <time>2016-04-20T14:34:27Z</time>
      </trkpt>
      <trkpt lat="43.43445" lon="6.04681">
        <ele>270</ele>
        <time>2016-04-20T14:34:29Z</time>
      </trkpt>
      <trkpt lat="43.43445" lon="6.04681">
        <ele>270</ele>
        <time>2016-04-20T14:34:31Z</time>
      </trkpt>
      <trkpt lat="43.43445" lon="6.04681">
        <ele>270</ele>
        <time>2016-04-20T14:34:33Z</time>
      </trkpt>
      <trkpt lat="43.43445" lon="6.04681">
        <ele>270.20001220703</ele>
        <time>2016-04-20T14:34:35Z</time>
      </trkpt>
      <trkpt lat="43.43445" lon="6.04681">
        <ele>270</ele>
        <time>2016-04-20T14:34:37Z</time>
      </trkpt>
      <trkpt lat="43.43445" lon="6.04681">
        <ele>270</ele>
        <time>2016-04-20T14:34:39Z</time>
      </trkpt>
      <trkpt lat="43.43445" lon="6.04681">
        <ele>270</ele>
        <time>2016-04-20T14:34:41Z</time>
      </trkpt>
      <trkpt lat="43.43445" lon="6.04681">
        <ele>270</ele>
        <time>2016-04-20T14:34:43Z</time>
      </trkpt>
      <trkpt lat="43.43445" lon="6.04681">
        <ele>270.39999389648</ele>
        <time>2016-04-20T14:34:45Z</time>
      </trkpt>
      <trkpt lat="43.43445" lon="6.04681">
        <ele>270.39999389648</ele>
        <time>2016-04-20T14:34:47Z</time>
      </trkpt>
      <trkpt lat="43.43445" lon="6.04682">
        <ele>270.39999389648</ele>
        <time>2016-04-20T14:34:49Z</time>
      </trkpt>
      <trkpt lat="43.43445" lon="6.04682">
        <ele>270.39999389648</ele>
        <time>2016-04-20T14:34:51Z</time>
      </trkpt>
      <trkpt lat="43.43445" lon="6.04682">
        <ele>270.20001220703</ele>
        <time>2016-04-20T14:34:53Z</time>
      </trkpt>
      <trkpt lat="43.43445" lon="6.04682">
        <ele>270.20001220703</ele>
        <time>2016-04-20T14:34:55Z</time>
      </trkpt>
      <trkpt lat="43.43445" lon="6.04682">
        <ele>270.20001220703</ele>
        <time>2016-04-20T14:34:57Z</time>
      </trkpt>
      <trkpt lat="43.43445" lon="6.04682">
        <ele>270.20001220703</ele>
        <time>2016-04-20T14:34:59Z</time>
      </trkpt>
      <trkpt lat="43.43445" lon="6.04682">
        <ele>270.39999389648</ele>
        <time>2016-04-20T14:35:01Z</time>
      </trkpt>
      <trkpt lat="43.43445" lon="6.04682">
        <ele>270.20001220703</ele>
        <time>2016-04-20T14:35:03Z</time>
      </trkpt>
      <trkpt lat="43.43445" lon="6.04682">
        <ele>270.20001220703</ele>
        <time>2016-04-20T14:35:05Z</time>
      </trkpt>
      <trkpt lat="43.43445" lon="6.04682">
        <ele>270.39999389648</ele>
        <time>2016-04-20T14:35:07Z</time>
      </trkpt>
      <trkpt lat="43.43445" lon="6.04682">
        <ele>270.39999389648</ele>
        <time>2016-04-20T14:35:09Z</time>
      </trkpt>
      <trkpt lat="43.43445" lon="6.04682">
        <ele>270.39999389648</ele>
        <time>2016-04-20T14:35:11Z</time>
      </trkpt>
      <trkpt lat="43.43445" lon="6.04682">
        <ele>270.39999389648</ele>
        <time>2016-04-20T14:35:13Z</time>
      </trkpt>
      <trkpt lat="43.43445" lon="6.04682">
        <ele>270.39999389648</ele>
        <time>2016-04-20T14:35:15Z</time>
      </trkpt>
      <trkpt lat="43.43445" lon="6.04682">
        <ele>270.39999389648</ele>
        <time>2016-04-20T14:35:17Z</time>
      </trkpt>
      <trkpt lat="43.43445" lon="6.04682">
        <ele>270.39999389648</ele>
        <time>2016-04-20T14:35:19Z</time>
      </trkpt>
      <trkpt lat="43.43445" lon="6.04683">
        <ele>270.39999389648</ele>
        <time>2016-04-20T14:35:20Z</time>
      </trkpt>
      <trkpt lat="43.43445" lon="6.04684">
        <ele>270.39999389648</ele>
        <time>2016-04-20T14:35:21Z</time>
      </trkpt>
      <trkpt lat="43.43444" lon="6.04689">
        <ele>270.39999389648</ele>
        <time>2016-04-20T14:35:23Z</time>
      </trkpt>
      <trkpt lat="43.43444" lon="6.04697">
        <ele>270.39999389648</ele>
        <time>2016-04-20T14:35:25Z</time>
      </trkpt>
      <trkpt lat="43.43443" lon="6.04705">
        <ele>270.39999389648</ele>
        <time>2016-04-20T14:35:27Z</time>
      </trkpt>
      <trkpt lat="43.43443" lon="6.04714">
        <ele>270.60000610352</ele>
        <time>2016-04-20T14:35:29Z</time>
      </trkpt>
      <trkpt lat="43.43442" lon="6.04718">
        <ele>270.79998779297</ele>
        <time>2016-04-20T14:35:30Z</time>
      </trkpt>
      <trkpt lat="43.43442" lon="6.04723">
        <ele>270.79998779297</ele>
        <time>2016-04-20T14:35:31Z</time>
      </trkpt>
      <trkpt lat="43.43441" lon="6.04733">
        <ele>270.39999389648</ele>
        <time>2016-04-20T14:35:33Z</time>
      </trkpt>
      <trkpt lat="43.43441" lon="6.04744">
        <ele>270.39999389648</ele>
        <time>2016-04-20T14:35:35Z</time>
      </trkpt>
      <trkpt lat="43.43439" lon="6.04756">
        <ele>270.20001220703</ele>
        <time>2016-04-20T14:35:37Z</time>
      </trkpt>
      <trkpt lat="43.43439" lon="6.04763">
        <ele>270</ele>
        <time>2016-04-20T14:35:38Z</time>
      </trkpt>
      <trkpt lat="43.43438" lon="6.04769">
        <ele>269.79998779297</ele>
        <time>2016-04-20T14:35:39Z</time>
      </trkpt>
      <trkpt lat="43.43437" lon="6.04775">
        <ele>269.60000610352</ele>
        <time>2016-04-20T14:35:40Z</time>
      </trkpt>
      <trkpt lat="43.43436" lon="6.04782">
        <ele>269.60000610352</ele>
        <time>2016-04-20T14:35:41Z</time>
      </trkpt>
      <trkpt lat="43.43435" lon="6.04796">
        <ele>269.20001220703</ele>
        <time>2016-04-20T14:35:43Z</time>
      </trkpt>
      <trkpt lat="43.43435" lon="6.04803">
        <ele>269.20001220703</ele>
        <time>2016-04-20T14:35:44Z</time>
      </trkpt>
      <trkpt lat="43.43435" lon="6.04808">
        <ele>269.20001220703</ele>
        <time>2016-04-20T14:35:45Z</time>
      </trkpt>
      <trkpt lat="43.43434" lon="6.04819">
        <ele>269</ele>
        <time>2016-04-20T14:35:47Z</time>
      </trkpt>
      <trkpt lat="43.43433" lon="6.0483">
        <ele>269</ele>
        <time>2016-04-20T14:35:49Z</time>
      </trkpt>
      <trkpt lat="43.43433" lon="6.04835">
        <ele>268.79998779297</ele>
        <time>2016-04-20T14:35:50Z</time>
      </trkpt>
      <trkpt lat="43.43433" lon="6.04841">
        <ele>268.79998779297</ele>
        <time>2016-04-20T14:35:51Z</time>
      </trkpt>
      <trkpt lat="43.43433" lon="6.04852">
        <ele>269.20001220703</ele>
        <time>2016-04-20T14:35:53Z</time>
      </trkpt>
      <trkpt lat="43.43432" lon="6.04865">
        <ele>269.60000610352</ele>
        <time>2016-04-20T14:35:55Z</time>
      </trkpt>
      <trkpt lat="43.43432" lon="6.04877">
        <ele>269.79998779297</ele>
        <time>2016-04-20T14:35:57Z</time>
      </trkpt>
      <trkpt lat="43.43431" lon="6.04889">
        <ele>269.79998779297</ele>
        <time>2016-04-20T14:35:59Z</time>
      </trkpt>
      <trkpt lat="43.4343" lon="6.04901">
        <ele>268</ele>
        <time>2016-04-20T14:36:01Z</time>
      </trkpt>
      <trkpt lat="43.43429" lon="6.04914">
        <ele>267.60000610352</ele>
        <time>2016-04-20T14:36:03Z</time>
      </trkpt>
      <trkpt lat="43.43428" lon="6.0492">
        <ele>267.39999389648</ele>
        <time>2016-04-20T14:36:04Z</time>
      </trkpt>
      <trkpt lat="43.43428" lon="6.04926">
        <ele>267.39999389648</ele>
        <time>2016-04-20T14:36:05Z</time>
      </trkpt>
      <trkpt lat="43.43427" lon="6.04939">
        <ele>267</ele>
        <time>2016-04-20T14:36:07Z</time>
      </trkpt>
      <trkpt lat="43.43426" lon="6.04951">
        <ele>267.20001220703</ele>
        <time>2016-04-20T14:36:09Z</time>
      </trkpt>
      <trkpt lat="43.43425" lon="6.04963">
        <ele>267.20001220703</ele>
        <time>2016-04-20T14:36:11Z</time>
      </trkpt>
      <trkpt lat="43.43423" lon="6.04974">
        <ele>267.39999389648</ele>
        <time>2016-04-20T14:36:13Z</time>
      </trkpt>
      <trkpt lat="43.43421" lon="6.04984">
        <ele>267.60000610352</ele>
        <time>2016-04-20T14:36:15Z</time>
      </trkpt>
      <trkpt lat="43.4342" lon="6.04994">
        <ele>267.79998779297</ele>
        <time>2016-04-20T14:36:17Z</time>
      </trkpt>
      <trkpt lat="43.43419" lon="6.05003">
        <ele>267.79998779297</ele>
        <time>2016-04-20T14:36:19Z</time>
      </trkpt>
      <trkpt lat="43.43417" lon="6.05011">
        <ele>268</ele>
        <time>2016-04-20T14:36:21Z</time>
      </trkpt>
      <trkpt lat="43.43416" lon="6.0502">
        <ele>268.20001220703</ele>
        <time>2016-04-20T14:36:23Z</time>
      </trkpt>
      <trkpt lat="43.43414" lon="6.05028">
        <ele>268.60000610352</ele>
        <time>2016-04-20T14:36:25Z</time>
      </trkpt>
      <trkpt lat="43.43413" lon="6.05036">
        <ele>268.60000610352</ele>
        <time>2016-04-20T14:36:27Z</time>
      </trkpt>
      <trkpt lat="43.43412" lon="6.05044">
        <ele>268.79998779297</ele>
        <time>2016-04-20T14:36:29Z</time>
      </trkpt>
      <trkpt lat="43.43411" lon="6.05051">
        <ele>269</ele>
        <time>2016-04-20T14:36:31Z</time>
      </trkpt>
      <trkpt lat="43.4341" lon="6.05054">
        <ele>269.20001220703</ele>
        <time>2016-04-20T14:36:32Z</time>
      </trkpt>
      <trkpt lat="43.4341" lon="6.05057">
        <ele>269.20001220703</ele>
        <time>2016-04-20T14:36:33Z</time>
      </trkpt>
      <trkpt lat="43.43409" lon="6.05064">
        <ele>269.79998779297</ele>
        <time>2016-04-20T14:36:36Z</time>
      </trkpt>
      <trkpt lat="43.43407" lon="6.05069">
        <ele>270.39999389648</ele>
        <time>2016-04-20T14:36:38Z</time>
      </trkpt>
      <trkpt lat="43.43406" lon="6.05077">
        <ele>270.79998779297</ele>
        <time>2016-04-20T14:36:41Z</time>
      </trkpt>
      <trkpt lat="43.43405" lon="6.0508">
        <ele>271</ele>
        <time>2016-04-20T14:36:42Z</time>
      </trkpt>
      <trkpt lat="43.43404" lon="6.05083">
        <ele>271.20001220703</ele>
        <time>2016-04-20T14:36:43Z</time>
      </trkpt>
      <trkpt lat="43.43402" lon="6.05089">
        <ele>271.20001220703</ele>
        <time>2016-04-20T14:36:45Z</time>
      </trkpt>
      <trkpt lat="43.43401" lon="6.05095">
        <ele>271.39999389648</ele>
        <time>2016-04-20T14:36:47Z</time>
      </trkpt>
      <trkpt lat="43.43399" lon="6.051">
        <ele>271.60000610352</ele>
        <time>2016-04-20T14:36:49Z</time>
      </trkpt>
      <trkpt lat="43.43398" lon="6.05103">
        <ele>271.60000610352</ele>
        <time>2016-04-20T14:36:50Z</time>
      </trkpt>
      <trkpt lat="43.43395" lon="6.0511">
        <ele>271.60000610352</ele>
        <time>2016-04-20T14:36:52Z</time>
      </trkpt>
      <trkpt lat="43.43393" lon="6.05118">
        <ele>271.79998779297</ele>
        <time>2016-04-20T14:36:54Z</time>
      </trkpt>
      <trkpt lat="43.4339" lon="6.05126">
        <ele>271.60000610352</ele>
        <time>2016-04-20T14:36:56Z</time>
      </trkpt>
      <trkpt lat="43.43388" lon="6.0513">
        <ele>271.60000610352</ele>
        <time>2016-04-20T14:36:57Z</time>
      </trkpt>
      <trkpt lat="43.43387" lon="6.05135">
        <ele>271.60000610352</ele>
        <time>2016-04-20T14:36:58Z</time>
      </trkpt>
      <trkpt lat="43.43384" lon="6.05145">
        <ele>271.39999389648</ele>
        <time>2016-04-20T14:37:00Z</time>
      </trkpt>
      <trkpt lat="43.43378" lon="6.05163">
        <ele>271</ele>
        <time>2016-04-20T14:37:03Z</time>
      </trkpt>
      <trkpt lat="43.43376" lon="6.0517">
        <ele>270.79998779297</ele>
        <time>2016-04-20T14:37:04Z</time>
      </trkpt>
      <trkpt lat="43.43371" lon="6.05184">
        <ele>270.39999389648</ele>
        <time>2016-04-20T14:37:06Z</time>
      </trkpt>
      <trkpt lat="43.43369" lon="6.05191">
        <ele>270.20001220703</ele>
        <time>2016-04-20T14:37:07Z</time>
      </trkpt>
      <trkpt lat="43.43367" lon="6.05198">
        <ele>270</ele>
        <time>2016-04-20T14:37:08Z</time>
      </trkpt>
      <trkpt lat="43.43362" lon="6.05213">
        <ele>269.39999389648</ele>
        <time>2016-04-20T14:37:10Z</time>
      </trkpt>
      <trkpt lat="43.43359" lon="6.0522">
        <ele>268.60000610352</ele>
        <time>2016-04-20T14:37:11Z</time>
      </trkpt>
      <trkpt lat="43.43357" lon="6.05227">
        <ele>268.39999389648</ele>
        <time>2016-04-20T14:37:12Z</time>
      </trkpt>
      <trkpt lat="43.43352" lon="6.05241">
        <ele>268.20001220703</ele>
        <time>2016-04-20T14:37:14Z</time>
      </trkpt>
      <trkpt lat="43.43348" lon="6.05254">
        <ele>268.39999389648</ele>
        <time>2016-04-20T14:37:16Z</time>
      </trkpt>
      <trkpt lat="43.43345" lon="6.05261">
        <ele>268.39999389648</ele>
        <time>2016-04-20T14:37:17Z</time>
      </trkpt>
      <trkpt lat="43.43343" lon="6.05267">
        <ele>268.39999389648</ele>
        <time>2016-04-20T14:37:18Z</time>
      </trkpt>
      <trkpt lat="43.43338" lon="6.05279">
        <ele>268.39999389648</ele>
        <time>2016-04-20T14:37:20Z</time>
      </trkpt>
      <trkpt lat="43.43331" lon="6.05297">
        <ele>268.79998779297</ele>
        <time>2016-04-20T14:37:23Z</time>
      </trkpt>
      <trkpt lat="43.43329" lon="6.05302">
        <ele>269</ele>
        <time>2016-04-20T14:37:24Z</time>
      </trkpt>
      <trkpt lat="43.43326" lon="6.05312">
        <ele>269.20001220703</ele>
        <time>2016-04-20T14:37:26Z</time>
      </trkpt>
      <trkpt lat="43.4332" lon="6.05326">
        <ele>269.60000610352</ele>
        <time>2016-04-20T14:37:29Z</time>
      </trkpt>
      <trkpt lat="43.43319" lon="6.0533">
        <ele>269.79998779297</ele>
        <time>2016-04-20T14:37:30Z</time>
      </trkpt>
      <trkpt lat="43.43317" lon="6.05335">
        <ele>270</ele>
        <time>2016-04-20T14:37:31Z</time>
      </trkpt>
      <trkpt lat="43.43315" lon="6.05339">
        <ele>270</ele>
        <time>2016-04-20T14:37:32Z</time>
      </trkpt>
      <trkpt lat="43.4331" lon="6.05348">
        <ele>270.20001220703</ele>
        <time>2016-04-20T14:37:34Z</time>
      </trkpt>
      <trkpt lat="43.43306" lon="6.05358">
        <ele>270.39999389648</ele>
        <time>2016-04-20T14:37:36Z</time>
      </trkpt>
      <trkpt lat="43.43303" lon="6.05363">
        <ele>270.39999389648</ele>
        <time>2016-04-20T14:37:37Z</time>
      </trkpt>
      <trkpt lat="43.433" lon="6.05368">
        <ele>270.20001220703</ele>
        <time>2016-04-20T14:37:38Z</time>
      </trkpt>
      <trkpt lat="43.43293" lon="6.05379">
        <ele>270.20001220703</ele>
        <time>2016-04-20T14:37:40Z</time>
      </trkpt>
      <trkpt lat="43.43288" lon="6.05391">
        <ele>270</ele>
        <time>2016-04-20T14:37:42Z</time>
      </trkpt>
      <trkpt lat="43.43285" lon="6.05397">
        <ele>269.60000610352</ele>
        <time>2016-04-20T14:37:43Z</time>
      </trkpt>
      <trkpt lat="43.43283" lon="6.05403">
        <ele>269.60000610352</ele>
        <time>2016-04-20T14:37:44Z</time>
      </trkpt>
      <trkpt lat="43.43279" lon="6.05416">
        <ele>269.39999389648</ele>
        <time>2016-04-20T14:37:46Z</time>
      </trkpt>
      <trkpt lat="43.43275" lon="6.05428">
        <ele>269.60000610352</ele>
        <time>2016-04-20T14:37:48Z</time>
      </trkpt>
      <trkpt lat="43.43272" lon="6.05433">
        <ele>269.60000610352</ele>
        <time>2016-04-20T14:37:49Z</time>
      </trkpt>
      <trkpt lat="43.43269" lon="6.05443">
        <ele>269.60000610352</ele>
        <time>2016-04-20T14:37:51Z</time>
      </trkpt>
      <trkpt lat="43.43265" lon="6.05452">
        <ele>270</ele>
        <time>2016-04-20T14:37:53Z</time>
      </trkpt>
      <trkpt lat="43.43262" lon="6.0546">
        <ele>270.39999389648</ele>
        <time>2016-04-20T14:37:55Z</time>
      </trkpt>
      <trkpt lat="43.4326" lon="6.05464">
        <ele>270.60000610352</ele>
        <time>2016-04-20T14:37:56Z</time>
      </trkpt>
      <trkpt lat="43.43259" lon="6.05468">
        <ele>271</ele>
        <time>2016-04-20T14:37:57Z</time>
      </trkpt>
      <trkpt lat="43.43256" lon="6.05475">
        <ele>271.60000610352</ele>
        <time>2016-04-20T14:37:59Z</time>
      </trkpt>
      <trkpt lat="43.43253" lon="6.05482">
        <ele>271.79998779297</ele>
        <time>2016-04-20T14:38:01Z</time>
      </trkpt>
      <trkpt lat="43.43253" lon="6.05485">
        <ele>272</ele>
        <time>2016-04-20T14:38:02Z</time>
      </trkpt>
      <trkpt lat="43.43251" lon="6.05489">
        <ele>272.20001220703</ele>
        <time>2016-04-20T14:38:03Z</time>
      </trkpt>
      <trkpt lat="43.4325" lon="6.05496">
        <ele>272.39999389648</ele>
        <time>2016-04-20T14:38:05Z</time>
      </trkpt>
      <trkpt lat="43.43248" lon="6.05499">
        <ele>272.39999389648</ele>
        <time>2016-04-20T14:38:06Z</time>
      </trkpt>
      <trkpt lat="43.43247" lon="6.05506">
        <ele>273.20001220703</ele>
        <time>2016-04-20T14:38:08Z</time>
      </trkpt>
      <trkpt lat="43.43246" lon="6.05508">
        <ele>273.39999389648</ele>
        <time>2016-04-20T14:38:09Z</time>
      </trkpt>
      <trkpt lat="43.43246" lon="6.05511">
        <ele>273.79998779297</ele>
        <time>2016-04-20T14:38:10Z</time>
      </trkpt>
      <trkpt lat="43.43245" lon="6.05514">
        <ele>274.20001220703</ele>
        <time>2016-04-20T14:38:11Z</time>
      </trkpt>
      <trkpt lat="43.43243" lon="6.05519">
        <ele>274.60000610352</ele>
        <time>2016-04-20T14:38:13Z</time>
      </trkpt>
      <trkpt lat="43.43242" lon="6.05525">
        <ele>274.79998779297</ele>
        <time>2016-04-20T14:38:15Z</time>
      </trkpt>
      <trkpt lat="43.43241" lon="6.05528">
        <ele>274.79998779297</ele>
        <time>2016-04-20T14:38:16Z</time>
      </trkpt>
      <trkpt lat="43.4324" lon="6.05534">
        <ele>275.20001220703</ele>
        <time>2016-04-20T14:38:18Z</time>
      </trkpt>
      <trkpt lat="43.43238" lon="6.05541">
        <ele>275.60000610352</ele>
        <time>2016-04-20T14:38:20Z</time>
      </trkpt>
      <trkpt lat="43.43236" lon="6.05548">
        <ele>275.79998779297</ele>
        <time>2016-04-20T14:38:22Z</time>
      </trkpt>
      <trkpt lat="43.43235" lon="6.05555">
        <ele>275.79998779297</ele>
        <time>2016-04-20T14:38:24Z</time>
      </trkpt>
      <trkpt lat="43.43232" lon="6.05567">
        <ele>276</ele>
        <time>2016-04-20T14:38:27Z</time>
      </trkpt>
      <trkpt lat="43.43231" lon="6.05571">
        <ele>276</ele>
        <time>2016-04-20T14:38:28Z</time>
      </trkpt>
      <trkpt lat="43.4323" lon="6.05579">
        <ele>276</ele>
        <time>2016-04-20T14:38:30Z</time>
      </trkpt>
      <trkpt lat="43.43229" lon="6.05587">
        <ele>276</ele>
        <time>2016-04-20T14:38:32Z</time>
      </trkpt>
      <trkpt lat="43.43228" lon="6.05594">
        <ele>275.79998779297</ele>
        <time>2016-04-20T14:38:34Z</time>
      </trkpt>
      <trkpt lat="43.43227" lon="6.05602">
        <ele>275.79998779297</ele>
        <time>2016-04-20T14:38:36Z</time>
      </trkpt>
      <trkpt lat="43.43226" lon="6.0561">
        <ele>275.79998779297</ele>
        <time>2016-04-20T14:38:38Z</time>
      </trkpt>
      <trkpt lat="43.43225" lon="6.05618">
        <ele>276</ele>
        <time>2016-04-20T14:38:40Z</time>
      </trkpt>
      <trkpt lat="43.43225" lon="6.05622">
        <ele>276.20001220703</ele>
        <time>2016-04-20T14:38:41Z</time>
      </trkpt>
      <trkpt lat="43.43224" lon="6.05625">
        <ele>276.39999389648</ele>
        <time>2016-04-20T14:38:42Z</time>
      </trkpt>
      <trkpt lat="43.43224" lon="6.05633">
        <ele>276.39999389648</ele>
        <time>2016-04-20T14:38:44Z</time>
      </trkpt>
      <trkpt lat="43.43223" lon="6.0564">
        <ele>276.79998779297</ele>
        <time>2016-04-20T14:38:46Z</time>
      </trkpt>
      <trkpt lat="43.43222" lon="6.05648">
        <ele>276.79998779297</ele>
        <time>2016-04-20T14:38:48Z</time>
      </trkpt>
      <trkpt lat="43.43222" lon="6.05652">
        <ele>276.79998779297</ele>
        <time>2016-04-20T14:38:49Z</time>
      </trkpt>
      <trkpt lat="43.43221" lon="6.05655">
        <ele>276.79998779297</ele>
        <time>2016-04-20T14:38:50Z</time>
      </trkpt>
      <trkpt lat="43.43221" lon="6.05663">
        <ele>276.79998779297</ele>
        <time>2016-04-20T14:38:52Z</time>
      </trkpt>
      <trkpt lat="43.4322" lon="6.0567">
        <ele>276.79998779297</ele>
        <time>2016-04-20T14:38:54Z</time>
      </trkpt>
      <trkpt lat="43.43219" lon="6.05677">
        <ele>277</ele>
        <time>2016-04-20T14:38:56Z</time>
      </trkpt>
      <trkpt lat="43.43219" lon="6.05681">
        <ele>277.20001220703</ele>
        <time>2016-04-20T14:38:57Z</time>
      </trkpt>
      <trkpt lat="43.43219" lon="6.05688">
        <ele>277.20001220703</ele>
        <time>2016-04-20T14:38:59Z</time>
      </trkpt>
      <trkpt lat="43.43218" lon="6.05692">
        <ele>277.20001220703</ele>
        <time>2016-04-20T14:39:00Z</time>
      </trkpt>
      <trkpt lat="43.43216" lon="6.05703">
        <ele>277.20001220703</ele>
        <time>2016-04-20T14:39:03Z</time>
      </trkpt>
      <trkpt lat="43.43216" lon="6.05707">
        <ele>277.39999389648</ele>
        <time>2016-04-20T14:39:04Z</time>
      </trkpt>
      <trkpt lat="43.43215" lon="6.0571">
        <ele>277.39999389648</ele>
        <time>2016-04-20T14:39:05Z</time>
      </trkpt>
      <trkpt lat="43.43214" lon="6.05718">
        <ele>277.60000610352</ele>
        <time>2016-04-20T14:39:07Z</time>
      </trkpt>
      <trkpt lat="43.43214" lon="6.05721">
        <ele>277.79998779297</ele>
        <time>2016-04-20T14:39:08Z</time>
      </trkpt>
      <trkpt lat="43.43214" lon="6.05729">
        <ele>277.79998779297</ele>
        <time>2016-04-20T14:39:10Z</time>
      </trkpt>
      <trkpt lat="43.43213" lon="6.05733">
        <ele>277.79998779297</ele>
        <time>2016-04-20T14:39:11Z</time>
      </trkpt>
      <trkpt lat="43.43213" lon="6.05737">
        <ele>277.79998779297</ele>
        <time>2016-04-20T14:39:12Z</time>
      </trkpt>
      <trkpt lat="43.43212" lon="6.05745">
        <ele>277.79998779297</ele>
        <time>2016-04-20T14:39:14Z</time>
      </trkpt>
      <trkpt lat="43.43211" lon="6.05755">
        <ele>277.79998779297</ele>
        <time>2016-04-20T14:39:16Z</time>
      </trkpt>
      <trkpt lat="43.4321" lon="6.05765">
        <ele>277.60000610352</ele>
        <time>2016-04-20T14:39:18Z</time>
      </trkpt>
      <trkpt lat="43.4321" lon="6.05771">
        <ele>277.79998779297</ele>
        <time>2016-04-20T14:39:19Z</time>
      </trkpt>
      <trkpt lat="43.43209" lon="6.05776">
        <ele>277.79998779297</ele>
        <time>2016-04-20T14:39:20Z</time>
      </trkpt>
      <trkpt lat="43.43208" lon="6.05786">
        <ele>277.79998779297</ele>
        <time>2016-04-20T14:39:22Z</time>
      </trkpt>
      <trkpt lat="43.43207" lon="6.05797">
        <ele>277.60000610352</ele>
        <time>2016-04-20T14:39:24Z</time>
      </trkpt>
      <trkpt lat="43.43205" lon="6.05809">
        <ele>277.20001220703</ele>
        <time>2016-04-20T14:39:26Z</time>
      </trkpt>
      <trkpt lat="43.43203" lon="6.0582">
        <ele>276.79998779297</ele>
        <time>2016-04-20T14:39:28Z</time>
      </trkpt>
      <trkpt lat="43.43203" lon="6.05826">
        <ele>276.60000610352</ele>
        <time>2016-04-20T14:39:29Z</time>
      </trkpt>
      <trkpt lat="43.43201" lon="6.05832">
        <ele>276.79998779297</ele>
        <time>2016-04-20T14:39:30Z</time>
      </trkpt>
      <trkpt lat="43.432" lon="6.05843">
        <ele>276.79998779297</ele>
        <time>2016-04-20T14:39:32Z</time>
      </trkpt>
      <trkpt lat="43.43198" lon="6.05853">
        <ele>276.60000610352</ele>
        <time>2016-04-20T14:39:34Z</time>
      </trkpt>
      <trkpt lat="43.43196" lon="6.05863">
        <ele>276.20001220703</ele>
        <time>2016-04-20T14:39:36Z</time>
      </trkpt>
      <trkpt lat="43.43196" lon="6.05868">
        <ele>276.39999389648</ele>
        <time>2016-04-20T14:39:37Z</time>
      </trkpt>
      <trkpt lat="43.43195" lon="6.05872">
        <ele>276.20001220703</ele>
        <time>2016-04-20T14:39:38Z</time>
      </trkpt>
      <trkpt lat="43.43193" lon="6.05882">
        <ele>276</ele>
        <time>2016-04-20T14:39:40Z</time>
      </trkpt>
      <trkpt lat="43.4319" lon="6.05896">
        <ele>276</ele>
        <time>2016-04-20T14:39:43Z</time>
      </trkpt>
      <trkpt lat="43.43188" lon="6.059">
        <ele>275.79998779297</ele>
        <time>2016-04-20T14:39:44Z</time>
      </trkpt>
      <trkpt lat="43.43185" lon="6.0591">
        <ele>275.39999389648</ele>
        <time>2016-04-20T14:39:46Z</time>
      </trkpt>
      <trkpt lat="43.43183" lon="6.05919">
        <ele>275.39999389648</ele>
        <time>2016-04-20T14:39:48Z</time>
      </trkpt>
      <trkpt lat="43.4318" lon="6.05928">
        <ele>275.20001220703</ele>
        <time>2016-04-20T14:39:50Z</time>
      </trkpt>
      <trkpt lat="43.43178" lon="6.05937">
        <ele>275.39999389648</ele>
        <time>2016-04-20T14:39:52Z</time>
      </trkpt>
      <trkpt lat="43.43176" lon="6.05946">
        <ele>275.39999389648</ele>
        <time>2016-04-20T14:39:54Z</time>
      </trkpt>
      <trkpt lat="43.43174" lon="6.05954">
        <ele>275.39999389648</ele>
        <time>2016-04-20T14:39:56Z</time>
      </trkpt>
      <trkpt lat="43.43172" lon="6.05963">
        <ele>275.60000610352</ele>
        <time>2016-04-20T14:39:58Z</time>
      </trkpt>
      <trkpt lat="43.4317" lon="6.05972">
        <ele>275.79998779297</ele>
        <time>2016-04-20T14:40:00Z</time>
      </trkpt>
      <trkpt lat="43.43167" lon="6.05981">
        <ele>275.79998779297</ele>
        <time>2016-04-20T14:40:02Z</time>
      </trkpt>
      <trkpt lat="43.43165" lon="6.0599">
        <ele>275.79998779297</ele>
        <time>2016-04-20T14:40:04Z</time>
      </trkpt>
      <trkpt lat="43.43163" lon="6.06">
        <ele>275.79998779297</ele>
        <time>2016-04-20T14:40:06Z</time>
      </trkpt>
      <trkpt lat="43.43162" lon="6.06005">
        <ele>275.79998779297</ele>
        <time>2016-04-20T14:40:07Z</time>
      </trkpt>
      <trkpt lat="43.43161" lon="6.06011">
        <ele>275.79998779297</ele>
        <time>2016-04-20T14:40:08Z</time>
      </trkpt>
      <trkpt lat="43.43159" lon="6.06021">
        <ele>276</ele>
        <time>2016-04-20T14:40:10Z</time>
      </trkpt>
      <trkpt lat="43.43157" lon="6.0603">
        <ele>276.20001220703</ele>
        <time>2016-04-20T14:40:12Z</time>
      </trkpt>
      <trkpt lat="43.43156" lon="6.06039">
        <ele>276.39999389648</ele>
        <time>2016-04-20T14:40:14Z</time>
      </trkpt>
      <trkpt lat="43.43155" lon="6.06043">
        <ele>276.60000610352</ele>
        <time>2016-04-20T14:40:15Z</time>
      </trkpt>
      <trkpt lat="43.43154" lon="6.06047">
        <ele>276.79998779297</ele>
        <time>2016-04-20T14:40:16Z</time>
      </trkpt>
      <trkpt lat="43.43153" lon="6.06055">
        <ele>277</ele>
        <time>2016-04-20T14:40:18Z</time>
      </trkpt>
      <trkpt lat="43.43152" lon="6.06059">
        <ele>277.20001220703</ele>
        <time>2016-04-20T14:40:19Z</time>
      </trkpt>
      <trkpt lat="43.43151" lon="6.06063">
        <ele>277</ele>
        <time>2016-04-20T14:40:20Z</time>
      </trkpt>
      <trkpt lat="43.4315" lon="6.06071">
        <ele>277</ele>
        <time>2016-04-20T14:40:22Z</time>
      </trkpt>
      <trkpt lat="43.43148" lon="6.06078">
        <ele>277</ele>
        <time>2016-04-20T14:40:24Z</time>
      </trkpt>
      <trkpt lat="43.43146" lon="6.06086">
        <ele>277.20001220703</ele>
        <time>2016-04-20T14:40:26Z</time>
      </trkpt>
      <trkpt lat="43.43144" lon="6.06094">
        <ele>277.39999389648</ele>
        <time>2016-04-20T14:40:28Z</time>
      </trkpt>
      <trkpt lat="43.43142" lon="6.06101">
        <ele>277.39999389648</ele>
        <time>2016-04-20T14:40:30Z</time>
      </trkpt>
      <trkpt lat="43.43139" lon="6.06109">
        <ele>277.39999389648</ele>
        <time>2016-04-20T14:40:32Z</time>
      </trkpt>
      <trkpt lat="43.43137" lon="6.06119">
        <ele>277</ele>
        <time>2016-04-20T14:40:34Z</time>
      </trkpt>
      <trkpt lat="43.43135" lon="6.0613">
        <ele>276.79998779297</ele>
        <time>2016-04-20T14:40:36Z</time>
      </trkpt>
      <trkpt lat="43.43134" lon="6.06135">
        <ele>276.60000610352</ele>
        <time>2016-04-20T14:40:37Z</time>
      </trkpt>
      <trkpt lat="43.43133" lon="6.06141">
        <ele>276.39999389648</ele>
        <time>2016-04-20T14:40:38Z</time>
      </trkpt>
      <trkpt lat="43.43132" lon="6.06147">
        <ele>276.20001220703</ele>
        <time>2016-04-20T14:40:39Z</time>
      </trkpt>
      <trkpt lat="43.43132" lon="6.06152">
        <ele>276</ele>
        <time>2016-04-20T14:40:40Z</time>
      </trkpt>
      <trkpt lat="43.4313" lon="6.06162">
        <ele>275.79998779297</ele>
        <time>2016-04-20T14:40:42Z</time>
      </trkpt>
      <trkpt lat="43.43129" lon="6.06173">
        <ele>275.60000610352</ele>
        <time>2016-04-20T14:40:44Z</time>
      </trkpt>
      <trkpt lat="43.43127" lon="6.06184">
        <ele>275.60000610352</ele>
        <time>2016-04-20T14:40:46Z</time>
      </trkpt>
      <trkpt lat="43.43125" lon="6.06194">
        <ele>275.39999389648</ele>
        <time>2016-04-20T14:40:48Z</time>
      </trkpt>
      <trkpt lat="43.43124" lon="6.06205">
        <ele>275.39999389648</ele>
        <time>2016-04-20T14:40:50Z</time>
      </trkpt>
      <trkpt lat="43.43124" lon="6.06215">
        <ele>275.60000610352</ele>
        <time>2016-04-20T14:40:52Z</time>
      </trkpt>
      <trkpt lat="43.43124" lon="6.06226">
        <ele>275.79998779297</ele>
        <time>2016-04-20T14:40:54Z</time>
      </trkpt>
      <trkpt lat="43.43125" lon="6.06239">
        <ele>275.79998779297</ele>
        <time>2016-04-20T14:40:56Z</time>
      </trkpt>
      <trkpt lat="43.43126" lon="6.06252">
        <ele>275</ele>
        <time>2016-04-20T14:40:58Z</time>
      </trkpt>
      <trkpt lat="43.43126" lon="6.06268">
        <ele>274</ele>
        <time>2016-04-20T14:41:00Z</time>
      </trkpt>
      <trkpt lat="43.43126" lon="6.06276">
        <ele>273.60000610352</ele>
        <time>2016-04-20T14:41:01Z</time>
      </trkpt>
      <trkpt lat="43.43127" lon="6.06284">
        <ele>273.60000610352</ele>
        <time>2016-04-20T14:41:02Z</time>
      </trkpt>
      <trkpt lat="43.43127" lon="6.06297">
        <ele>273.60000610352</ele>
        <time>2016-04-20T14:41:04Z</time>
      </trkpt>
      <trkpt lat="43.43127" lon="6.06308">
        <ele>273.20001220703</ele>
        <time>2016-04-20T14:41:06Z</time>
      </trkpt>
      <trkpt lat="43.43128" lon="6.06313">
        <ele>272.79998779297</ele>
        <time>2016-04-20T14:41:07Z</time>
      </trkpt>
      <trkpt lat="43.43129" lon="6.06319">
        <ele>272.60000610352</ele>
        <time>2016-04-20T14:41:08Z</time>
      </trkpt>
      <trkpt lat="43.4313" lon="6.0633">
        <ele>272.60000610352</ele>
        <time>2016-04-20T14:41:10Z</time>
      </trkpt>
      <trkpt lat="43.43131" lon="6.06342">
        <ele>272.60000610352</ele>
        <time>2016-04-20T14:41:12Z</time>
      </trkpt>
      <trkpt lat="43.43132" lon="6.06349">
        <ele>272.79998779297</ele>
        <time>2016-04-20T14:41:13Z</time>
      </trkpt>
      <trkpt lat="43.43133" lon="6.06356">
        <ele>272.79998779297</ele>
        <time>2016-04-20T14:41:14Z</time>
      </trkpt>
      <trkpt lat="43.43135" lon="6.06371">
        <ele>271.60000610352</ele>
        <time>2016-04-20T14:41:16Z</time>
      </trkpt>
      <trkpt lat="43.43137" lon="6.06386">
        <ele>270.79998779297</ele>
        <time>2016-04-20T14:41:18Z</time>
      </trkpt>
      <trkpt lat="43.43137" lon="6.06393">
        <ele>270.39999389648</ele>
        <time>2016-04-20T14:41:19Z</time>
      </trkpt>
      <trkpt lat="43.43138" lon="6.064">
        <ele>270.20001220703</ele>
        <time>2016-04-20T14:41:20Z</time>
      </trkpt>
      <trkpt lat="43.43139" lon="6.06415">
        <ele>270.20001220703</ele>
        <time>2016-04-20T14:41:22Z</time>
      </trkpt>
      <trkpt lat="43.4314" lon="6.06423">
        <ele>270.20001220703</ele>
        <time>2016-04-20T14:41:23Z</time>
      </trkpt>
      <trkpt lat="43.43142" lon="6.0643">
        <ele>270.20001220703</ele>
        <time>2016-04-20T14:41:24Z</time>
      </trkpt>
      <trkpt lat="43.43143" lon="6.06438">
        <ele>270.20001220703</ele>
        <time>2016-04-20T14:41:25Z</time>
      </trkpt>
      <trkpt lat="43.43144" lon="6.06445">
        <ele>270.20001220703</ele>
        <time>2016-04-20T14:41:26Z</time>
      </trkpt>
      <trkpt lat="43.43146" lon="6.06459">
        <ele>269.79998779297</ele>
        <time>2016-04-20T14:41:28Z</time>
      </trkpt>
      <trkpt lat="43.43148" lon="6.06465">
        <ele>269.20001220703</ele>
        <time>2016-04-20T14:41:29Z</time>
      </trkpt>
      <trkpt lat="43.43148" lon="6.0647">
        <ele>269</ele>
        <time>2016-04-20T14:41:30Z</time>
      </trkpt>
      <trkpt lat="43.4315" lon="6.06477">
        <ele>268.60000610352</ele>
        <time>2016-04-20T14:41:32Z</time>
      </trkpt>
      <trkpt lat="43.4315" lon="6.0648">
        <ele>268.39999389648</ele>
        <time>2016-04-20T14:41:33Z</time>
      </trkpt>
      <trkpt lat="43.43149" lon="6.06481">
        <ele>268.39999389648</ele>
        <time>2016-04-20T14:41:34Z</time>
      </trkpt>
      <trkpt lat="43.4315" lon="6.06482">
        <ele>268.39999389648</ele>
        <time>2016-04-20T14:41:36Z</time>
      </trkpt>
      <trkpt lat="43.4315" lon="6.06483">
        <ele>268.39999389648</ele>
        <time>2016-04-20T14:41:38Z</time>
      </trkpt>
      <trkpt lat="43.4315" lon="6.06483">
        <ele>268.39999389648</ele>
        <time>2016-04-20T14:41:40Z</time>
      </trkpt>
      <trkpt lat="43.4315" lon="6.06483">
        <ele>268.39999389648</ele>
        <time>2016-04-20T14:41:42Z</time>
      </trkpt>
      <trkpt lat="43.4315" lon="6.06483">
        <ele>268.20001220703</ele>
        <time>2016-04-20T14:41:44Z</time>
      </trkpt>
      <trkpt lat="43.4315" lon="6.06483">
        <ele>268.20001220703</ele>
        <time>2016-04-20T14:41:46Z</time>
      </trkpt>
      <trkpt lat="43.4315" lon="6.06483">
        <ele>268.20001220703</ele>
        <time>2016-04-20T14:41:48Z</time>
      </trkpt>
      <trkpt lat="43.4315" lon="6.06483">
        <ele>268.20001220703</ele>
        <time>2016-04-20T14:41:50Z</time>
      </trkpt>
      <trkpt lat="43.4315" lon="6.06483">
        <ele>268.20001220703</ele>
        <time>2016-04-20T14:41:52Z</time>
      </trkpt>
      <trkpt lat="43.4315" lon="6.06483">
        <ele>268.20001220703</ele>
        <time>2016-04-20T14:41:54Z</time>
      </trkpt>
      <trkpt lat="43.4315" lon="6.06483">
        <ele>268.20001220703</ele>
        <time>2016-04-20T14:41:56Z</time>
      </trkpt>
      <trkpt lat="43.4315" lon="6.06483">
        <ele>268.20001220703</ele>
        <time>2016-04-20T14:41:58Z</time>
      </trkpt>
      <trkpt lat="43.4315" lon="6.06483">
        <ele>268.20001220703</ele>
        <time>2016-04-20T14:42:00Z</time>
      </trkpt>
      <trkpt lat="43.4315" lon="6.06483">
        <ele>268.20001220703</ele>
        <time>2016-04-20T14:42:02Z</time>
      </trkpt>
      <trkpt lat="43.4315" lon="6.06483">
        <ele>268.20001220703</ele>
        <time>2016-04-20T14:42:04Z</time>
      </trkpt>
      <trkpt lat="43.4315" lon="6.06483">
        <ele>268.20001220703</ele>
        <time>2016-04-20T14:42:06Z</time>
      </trkpt>
      <trkpt lat="43.4315" lon="6.06483">
        <ele>268.20001220703</ele>
        <time>2016-04-20T14:42:08Z</time>
      </trkpt>
      <trkpt lat="43.4315" lon="6.06483">
        <ele>268.20001220703</ele>
        <time>2016-04-20T14:42:10Z</time>
      </trkpt>
      <trkpt lat="43.4315" lon="6.06483">
        <ele>268.20001220703</ele>
        <time>2016-04-20T14:42:12Z</time>
      </trkpt>
      <trkpt lat="43.4315" lon="6.06483">
        <ele>268.20001220703</ele>
        <time>2016-04-20T14:42:14Z</time>
      </trkpt>
      <trkpt lat="43.4315" lon="6.06483">
        <ele>268</ele>
        <time>2016-04-20T14:42:16Z</time>
      </trkpt>
      <trkpt lat="43.4315" lon="6.06483">
        <ele>268</ele>
        <time>2016-04-20T14:42:18Z</time>
      </trkpt>
      <trkpt lat="43.4315" lon="6.06483">
        <ele>268</ele>
        <time>2016-04-20T14:42:20Z</time>
      </trkpt>
      <trkpt lat="43.4315" lon="6.06483">
        <ele>268</ele>
        <time>2016-04-20T14:42:22Z</time>
      </trkpt>
      <trkpt lat="43.4315" lon="6.06483">
        <ele>268</ele>
        <time>2016-04-20T14:42:24Z</time>
      </trkpt>
      <trkpt lat="43.4315" lon="6.06483">
        <ele>268</ele>
        <time>2016-04-20T14:42:26Z</time>
      </trkpt>
      <trkpt lat="43.4315" lon="6.06483">
        <ele>268</ele>
        <time>2016-04-20T14:42:28Z</time>
      </trkpt>
      <trkpt lat="43.4315" lon="6.06483">
        <ele>268</ele>
        <time>2016-04-20T14:42:30Z</time>
      </trkpt>
      <trkpt lat="43.4315" lon="6.06483">
        <ele>268</ele>
        <time>2016-04-20T14:42:32Z</time>
      </trkpt>
      <trkpt lat="43.4315" lon="6.06483">
        <ele>268</ele>
        <time>2016-04-20T14:42:34Z</time>
      </trkpt>
      <trkpt lat="43.4315" lon="6.06483">
        <ele>268</ele>
        <time>2016-04-20T14:42:36Z</time>
      </trkpt>
      <trkpt lat="43.4315" lon="6.06483">
        <ele>268</ele>
        <time>2016-04-20T14:42:38Z</time>
      </trkpt>
      <trkpt lat="43.4315" lon="6.06483">
        <ele>268.20001220703</ele>
        <time>2016-04-20T14:42:40Z</time>
      </trkpt>
      <trkpt lat="43.4315" lon="6.06483">
        <ele>268.20001220703</ele>
        <time>2016-04-20T14:42:42Z</time>
      </trkpt>
      <trkpt lat="43.4315" lon="6.06483">
        <ele>268.39999389648</ele>
        <time>2016-04-20T14:42:44Z</time>
      </trkpt>
      <trkpt lat="43.4315" lon="6.06483">
        <ele>268.39999389648</ele>
        <time>2016-04-20T14:42:46Z</time>
      </trkpt>
      <trkpt lat="43.4315" lon="6.06483">
        <ele>268</ele>
        <time>2016-04-20T14:42:48Z</time>
      </trkpt>
      <trkpt lat="43.4315" lon="6.06483">
        <ele>268</ele>
        <time>2016-04-20T14:42:50Z</time>
      </trkpt>
      <trkpt lat="43.4315" lon="6.06484">
        <ele>268</ele>
        <time>2016-04-20T14:42:52Z</time>
      </trkpt>
      <trkpt lat="43.4315" lon="6.06483">
        <ele>268</ele>
        <time>2016-04-20T14:42:54Z</time>
      </trkpt>
      <trkpt lat="43.43149" lon="6.06483">
        <ele>268.20001220703</ele>
        <time>2016-04-20T14:42:56Z</time>
      </trkpt>
      <trkpt lat="43.43149" lon="6.06483">
        <ele>268.39999389648</ele>
        <time>2016-04-20T14:42:58Z</time>
      </trkpt>
      <trkpt lat="43.43149" lon="6.06483">
        <ele>268.60000610352</ele>
        <time>2016-04-20T14:43:00Z</time>
      </trkpt>
      <trkpt lat="43.43149" lon="6.06484">
        <ele>268.60000610352</ele>
        <time>2016-04-20T14:43:02Z</time>
      </trkpt>
      <trkpt lat="43.43149" lon="6.06484">
        <ele>268.60000610352</ele>
        <time>2016-04-20T14:43:04Z</time>
      </trkpt>
      <trkpt lat="43.43149" lon="6.06484">
        <ele>268.60000610352</ele>
        <time>2016-04-20T14:43:06Z</time>
      </trkpt>
      <trkpt lat="43.43149" lon="6.06484">
        <ele>268.60000610352</ele>
        <time>2016-04-20T14:43:08Z</time>
      </trkpt>
      <trkpt lat="43.43149" lon="6.06484">
        <ele>268.39999389648</ele>
        <time>2016-04-20T14:43:10Z</time>
      </trkpt>
      <trkpt lat="43.43149" lon="6.06484">
        <ele>268.60000610352</ele>
        <time>2016-04-20T14:43:12Z</time>
      </trkpt>
      <trkpt lat="43.43149" lon="6.06484">
        <ele>268.60000610352</ele>
        <time>2016-04-20T14:43:14Z</time>
      </trkpt>
      <trkpt lat="43.43149" lon="6.06484">
        <ele>268.60000610352</ele>
        <time>2016-04-20T14:43:16Z</time>
      </trkpt>
      <trkpt lat="43.43149" lon="6.06484">
        <ele>268.39999389648</ele>
        <time>2016-04-20T14:43:18Z</time>
      </trkpt>
      <trkpt lat="43.43149" lon="6.06484">
        <ele>268.39999389648</ele>
        <time>2016-04-20T14:43:20Z</time>
      </trkpt>
      <trkpt lat="43.43149" lon="6.06484">
        <ele>268.60000610352</ele>
        <time>2016-04-20T14:43:22Z</time>
      </trkpt>
      <trkpt lat="43.43149" lon="6.06484">
        <ele>268.60000610352</ele>
        <time>2016-04-20T14:43:24Z</time>
      </trkpt>
      <trkpt lat="43.43149" lon="6.06484">
        <ele>268.60000610352</ele>
        <time>2016-04-20T14:43:26Z</time>
      </trkpt>
      <trkpt lat="43.43149" lon="6.06484">
        <ele>268.60000610352</ele>
        <time>2016-04-20T14:43:28Z</time>
      </trkpt>
      <trkpt lat="43.43149" lon="6.06484">
        <ele>268.60000610352</ele>
        <time>2016-04-20T14:43:30Z</time>
      </trkpt>
      <trkpt lat="43.43149" lon="6.06484">
        <ele>268.79998779297</ele>
        <time>2016-04-20T14:43:32Z</time>
      </trkpt>
      <trkpt lat="43.43149" lon="6.06484">
        <ele>268.79998779297</ele>
        <time>2016-04-20T14:43:34Z</time>
      </trkpt>
      <trkpt lat="43.43149" lon="6.06484">
        <ele>268.79998779297</ele>
        <time>2016-04-20T14:43:36Z</time>
      </trkpt>
      <trkpt lat="43.43149" lon="6.06484">
        <ele>269</ele>
        <time>2016-04-20T14:43:38Z</time>
      </trkpt>
      <trkpt lat="43.43149" lon="6.06484">
        <ele>268.79998779297</ele>
        <time>2016-04-20T14:43:40Z</time>
      </trkpt>
      <trkpt lat="43.43149" lon="6.06484">
        <ele>268.60000610352</ele>
        <time>2016-04-20T14:43:42Z</time>
      </trkpt>
      <trkpt lat="43.43149" lon="6.06484">
        <ele>268.60000610352</ele>
        <time>2016-04-20T14:43:44Z</time>
      </trkpt>
      <trkpt lat="43.43149" lon="6.06484">
        <ele>268.60000610352</ele>
        <time>2016-04-20T14:43:46Z</time>
      </trkpt>
      <trkpt lat="43.43149" lon="6.06484">
        <ele>268.79998779297</ele>
        <time>2016-04-20T14:43:48Z</time>
      </trkpt>
      <trkpt lat="43.43149" lon="6.06484">
        <ele>268.79998779297</ele>
        <time>2016-04-20T14:43:50Z</time>
      </trkpt>
      <trkpt lat="43.43149" lon="6.06484">
        <ele>268.79998779297</ele>
        <time>2016-04-20T14:43:52Z</time>
      </trkpt>
      <trkpt lat="43.43149" lon="6.06484">
        <ele>268.79998779297</ele>
        <time>2016-04-20T14:43:54Z</time>
      </trkpt>
      <trkpt lat="43.43149" lon="6.06484">
        <ele>268.60000610352</ele>
        <time>2016-04-20T14:43:56Z</time>
      </trkpt>
      <trkpt lat="43.43149" lon="6.06484">
        <ele>268.60000610352</ele>
        <time>2016-04-20T14:43:58Z</time>
      </trkpt>
      <trkpt lat="43.43149" lon="6.06484">
        <ele>268.79998779297</ele>
        <time>2016-04-20T14:44:00Z</time>
      </trkpt>
      <trkpt lat="43.43149" lon="6.06484">
        <ele>268.79998779297</ele>
        <time>2016-04-20T14:44:02Z</time>
      </trkpt>
      <trkpt lat="43.43149" lon="6.06484">
        <ele>268.79998779297</ele>
        <time>2016-04-20T14:44:04Z</time>
      </trkpt>
      <trkpt lat="43.43149" lon="6.06484">
        <ele>268.60000610352</ele>
        <time>2016-04-20T14:44:06Z</time>
      </trkpt>
      <trkpt lat="43.43149" lon="6.06484">
        <ele>268.60000610352</ele>
        <time>2016-04-20T14:44:08Z</time>
      </trkpt>
      <trkpt lat="43.43149" lon="6.06484">
        <ele>268.60000610352</ele>
        <time>2016-04-20T14:44:09Z</time>
      </trkpt>
      <trkpt lat="43.43149" lon="6.06484">
        <ele>268.79998779297</ele>
        <time>2016-04-20T14:44:12Z</time>
      </trkpt>
      <trkpt lat="43.43149" lon="6.06484">
        <ele>268.79998779297</ele>
        <time>2016-04-20T14:44:14Z</time>
      </trkpt>
      <trkpt lat="43.43149" lon="6.06484">
        <ele>268.79998779297</ele>
        <time>2016-04-20T14:44:16Z</time>
      </trkpt>
      <trkpt lat="43.43149" lon="6.06484">
        <ele>269</ele>
        <time>2016-04-20T14:44:18Z</time>
      </trkpt>
      <trkpt lat="43.43149" lon="6.06484">
        <ele>269</ele>
        <time>2016-04-20T14:44:20Z</time>
      </trkpt>
      <trkpt lat="43.43148" lon="6.06484">
        <ele>269.20001220703</ele>
        <time>2016-04-20T14:44:22Z</time>
      </trkpt>
      <trkpt lat="43.43147" lon="6.06484">
        <ele>269.20001220703</ele>
        <time>2016-04-20T14:44:24Z</time>
      </trkpt>
      <trkpt lat="43.43144" lon="6.06484">
        <ele>269.20001220703</ele>
        <time>2016-04-20T14:44:26Z</time>
      </trkpt>
      <trkpt lat="43.43142" lon="6.06484">
        <ele>269.39999389648</ele>
        <time>2016-04-20T14:44:28Z</time>
      </trkpt>
      <trkpt lat="43.43139" lon="6.06484">
        <ele>269.79998779297</ele>
        <time>2016-04-20T14:44:30Z</time>
      </trkpt>
      <trkpt lat="43.43136" lon="6.06484">
        <ele>270.20001220703</ele>
        <time>2016-04-20T14:44:32Z</time>
      </trkpt>
      <trkpt lat="43.43133" lon="6.06484">
        <ele>270.39999389648</ele>
        <time>2016-04-20T14:44:34Z</time>
      </trkpt>
      <trkpt lat="43.4313" lon="6.06483">
        <ele>270.79998779297</ele>
        <time>2016-04-20T14:44:36Z</time>
      </trkpt>
      <trkpt lat="43.43127" lon="6.06483">
        <ele>271.20001220703</ele>
        <time>2016-04-20T14:44:38Z</time>
      </trkpt>
      <trkpt lat="43.43126" lon="6.06484">
        <ele>271.39999389648</ele>
        <time>2016-04-20T14:44:39Z</time>
      </trkpt>
      <trkpt lat="43.43124" lon="6.06484">
        <ele>271.60000610352</ele>
        <time>2016-04-20T14:44:40Z</time>
      </trkpt>
      <trkpt lat="43.43123" lon="6.06484">
        <ele>271.79998779297</ele>
        <time>2016-04-20T14:44:41Z</time>
      </trkpt>
      <trkpt lat="43.43122" lon="6.06484">
        <ele>272.20001220703</ele>
        <time>2016-04-20T14:44:42Z</time>
      </trkpt>
      <trkpt lat="43.43121" lon="6.06484">
        <ele>272.79998779297</ele>
        <time>2016-04-20T14:44:43Z</time>
      </trkpt>
      <trkpt lat="43.4312" lon="6.06484">
        <ele>273.20001220703</ele>
        <time>2016-04-20T14:44:44Z</time>
      </trkpt>
      <trkpt lat="43.43119" lon="6.06485">
        <ele>273.39999389648</ele>
        <time>2016-04-20T14:44:45Z</time>
      </trkpt>
      <trkpt lat="43.43118" lon="6.06485">
        <ele>273.79998779297</ele>
        <time>2016-04-20T14:44:46Z</time>
      </trkpt>
      <trkpt lat="43.43117" lon="6.06484">
        <ele>273.79998779297</ele>
        <time>2016-04-20T14:44:47Z</time>
      </trkpt>
      <trkpt lat="43.43116" lon="6.06484">
        <ele>274</ele>
        <time>2016-04-20T14:44:48Z</time>
      </trkpt>
      <trkpt lat="43.43114" lon="6.06482">
        <ele>274.20001220703</ele>
        <time>2016-04-20T14:44:50Z</time>
      </trkpt>
      <trkpt lat="43.43113" lon="6.06479">
        <ele>274.39999389648</ele>
        <time>2016-04-20T14:44:52Z</time>
      </trkpt>
      <trkpt lat="43.43113" lon="6.06476">
        <ele>274.79998779297</ele>
        <time>2016-04-20T14:44:54Z</time>
      </trkpt>
      <trkpt lat="43.43113" lon="6.06474">
        <ele>275</ele>
        <time>2016-04-20T14:44:55Z</time>
      </trkpt>
      <trkpt lat="43.43113" lon="6.06473">
        <ele>275</ele>
        <time>2016-04-20T14:44:56Z</time>
      </trkpt>
      <trkpt lat="43.43113" lon="6.06471">
        <ele>275</ele>
        <time>2016-04-20T14:44:57Z</time>
      </trkpt>
      <trkpt lat="43.43113" lon="6.0647">
        <ele>275.20001220703</ele>
        <time>2016-04-20T14:44:58Z</time>
      </trkpt>
      <trkpt lat="43.43112" lon="6.06467">
        <ele>275.60000610352</ele>
        <time>2016-04-20T14:45:00Z</time>
      </trkpt>
      <trkpt lat="43.43112" lon="6.06463">
        <ele>275.79998779297</ele>
        <time>2016-04-20T14:45:02Z</time>
      </trkpt>
      <trkpt lat="43.43111" lon="6.0646">
        <ele>275.79998779297</ele>
        <time>2016-04-20T14:45:04Z</time>
      </trkpt>
      <trkpt lat="43.43111" lon="6.06459">
        <ele>276</ele>
        <time>2016-04-20T14:45:05Z</time>
      </trkpt>
      <trkpt lat="43.4311" lon="6.06457">
        <ele>276</ele>
        <time>2016-04-20T14:45:06Z</time>
      </trkpt>
      <trkpt lat="43.43109" lon="6.06454">
        <ele>276.20001220703</ele>
        <time>2016-04-20T14:45:08Z</time>
      </trkpt>
      <trkpt lat="43.43109" lon="6.06452">
        <ele>276.39999389648</ele>
        <time>2016-04-20T14:45:10Z</time>
      </trkpt>
      <trkpt lat="43.43108" lon="6.06448">
        <ele>276.79998779297</ele>
        <time>2016-04-20T14:45:12Z</time>
      </trkpt>
      <trkpt lat="43.43107" lon="6.06445">
        <ele>277</ele>
        <time>2016-04-20T14:45:14Z</time>
      </trkpt>
      <trkpt lat="43.43107" lon="6.06443">
        <ele>277</ele>
        <time>2016-04-20T14:45:15Z</time>
      </trkpt>
      <trkpt lat="43.43106" lon="6.06441">
        <ele>277.20001220703</ele>
        <time>2016-04-20T14:45:16Z</time>
      </trkpt>
      <trkpt lat="43.43105" lon="6.06438">
        <ele>277.20001220703</ele>
        <time>2016-04-20T14:45:18Z</time>
      </trkpt>
      <trkpt lat="43.43104" lon="6.06434">
        <ele>277.39999389648</ele>
        <time>2016-04-20T14:45:20Z</time>
      </trkpt>
      <trkpt lat="43.43103" lon="6.06431">
        <ele>277.60000610352</ele>
        <time>2016-04-20T14:45:22Z</time>
      </trkpt>
      <trkpt lat="43.43101" lon="6.06426">
        <ele>278</ele>
        <time>2016-04-20T14:45:24Z</time>
      </trkpt>
      <trkpt lat="43.43101" lon="6.06425">
        <ele>278.20001220703</ele>
        <time>2016-04-20T14:45:25Z</time>
      </trkpt>
      <trkpt lat="43.431" lon="6.06423">
        <ele>278.39999389648</ele>
        <time>2016-04-20T14:45:26Z</time>
      </trkpt>
      <trkpt lat="43.43099" lon="6.06419">
        <ele>278.60000610352</ele>
        <time>2016-04-20T14:45:28Z</time>
      </trkpt>
      <trkpt lat="43.43099" lon="6.06414">
        <ele>278.79998779297</ele>
        <time>2016-04-20T14:45:30Z</time>
      </trkpt>
      <trkpt lat="43.43099" lon="6.0641">
        <ele>278.79998779297</ele>
        <time>2016-04-20T14:45:32Z</time>
      </trkpt>
      <trkpt lat="43.43098" lon="6.06406">
        <ele>279</ele>
        <time>2016-04-20T14:45:34Z</time>
      </trkpt>
      <trkpt lat="43.43098" lon="6.064">
        <ele>279.20001220703</ele>
        <time>2016-04-20T14:45:36Z</time>
      </trkpt>
      <trkpt lat="43.43097" lon="6.06396">
        <ele>279.60000610352</ele>
        <time>2016-04-20T14:45:38Z</time>
      </trkpt>
      <trkpt lat="43.43096" lon="6.06392">
        <ele>279.60000610352</ele>
        <time>2016-04-20T14:45:40Z</time>
      </trkpt>
      <trkpt lat="43.43095" lon="6.06388">
        <ele>279.60000610352</ele>
        <time>2016-04-20T14:45:42Z</time>
      </trkpt>
      <trkpt lat="43.43094" lon="6.06383">
        <ele>279.60000610352</ele>
        <time>2016-04-20T14:45:44Z</time>
      </trkpt>
      <trkpt lat="43.43093" lon="6.06378">
        <ele>279.79998779297</ele>
        <time>2016-04-20T14:45:46Z</time>
      </trkpt>
      <trkpt lat="43.43092" lon="6.06376">
        <ele>279.79998779297</ele>
        <time>2016-04-20T14:45:47Z</time>
      </trkpt>
      <trkpt lat="43.4309" lon="6.06374">
        <ele>279.79998779297</ele>
        <time>2016-04-20T14:45:48Z</time>
      </trkpt>
      <trkpt lat="43.43087" lon="6.0637">
        <ele>279.79998779297</ele>
        <time>2016-04-20T14:45:50Z</time>
      </trkpt>
      <trkpt lat="43.43083" lon="6.06367">
        <ele>279.79998779297</ele>
        <time>2016-04-20T14:45:52Z</time>
      </trkpt>
      <trkpt lat="43.43081" lon="6.06365">
        <ele>279.79998779297</ele>
        <time>2016-04-20T14:45:53Z</time>
      </trkpt>
      <trkpt lat="43.43079" lon="6.06364">
        <ele>279.79998779297</ele>
        <time>2016-04-20T14:45:54Z</time>
      </trkpt>
      <trkpt lat="43.43074" lon="6.06361">
        <ele>280</ele>
        <time>2016-04-20T14:45:56Z</time>
      </trkpt>
      <trkpt lat="43.4307" lon="6.06359">
        <ele>280.20001220703</ele>
        <time>2016-04-20T14:45:58Z</time>
      </trkpt>
      <trkpt lat="43.43066" lon="6.06357">
        <ele>280</ele>
        <time>2016-04-20T14:46:00Z</time>
      </trkpt>
      <trkpt lat="43.43063" lon="6.06354">
        <ele>280</ele>
        <time>2016-04-20T14:46:02Z</time>
      </trkpt>
      <trkpt lat="43.4306" lon="6.06353">
        <ele>280.20001220703</ele>
        <time>2016-04-20T14:46:04Z</time>
      </trkpt>
      <trkpt lat="43.43057" lon="6.0635">
        <ele>281</ele>
        <time>2016-04-20T14:46:06Z</time>
      </trkpt>
      <trkpt lat="43.43054" lon="6.06349">
        <ele>281.20001220703</ele>
        <time>2016-04-20T14:46:08Z</time>
      </trkpt>
      <trkpt lat="43.43051" lon="6.06347">
        <ele>281.20001220703</ele>
        <time>2016-04-20T14:46:10Z</time>
      </trkpt>
      <trkpt lat="43.43048" lon="6.06343">
        <ele>281.39999389648</ele>
        <time>2016-04-20T14:46:12Z</time>
      </trkpt>
      <trkpt lat="43.43047" lon="6.06341">
        <ele>281.39999389648</ele>
        <time>2016-04-20T14:46:13Z</time>
      </trkpt>
      <trkpt lat="43.43047" lon="6.06338">
        <ele>281.39999389648</ele>
        <time>2016-04-20T14:46:14Z</time>
      </trkpt>
      <trkpt lat="43.43045" lon="6.06334">
        <ele>281.39999389648</ele>
        <time>2016-04-20T14:46:16Z</time>
      </trkpt>
      <trkpt lat="43.43045" lon="6.0633">
        <ele>281.20001220703</ele>
        <time>2016-04-20T14:46:18Z</time>
      </trkpt>
      <trkpt lat="43.43045" lon="6.06327">
        <ele>281</ele>
        <time>2016-04-20T14:46:19Z</time>
      </trkpt>
      <trkpt lat="43.43044" lon="6.06325">
        <ele>281.20001220703</ele>
        <time>2016-04-20T14:46:20Z</time>
      </trkpt>
      <trkpt lat="43.4304" lon="6.06322">
        <ele>281.79998779297</ele>
        <time>2016-04-20T14:46:22Z</time>
      </trkpt>
      <trkpt lat="43.43037" lon="6.06319">
        <ele>282.20001220703</ele>
        <time>2016-04-20T14:46:24Z</time>
      </trkpt>
      <trkpt lat="43.43035" lon="6.06317">
        <ele>282.20001220703</ele>
        <time>2016-04-20T14:46:25Z</time>
      </trkpt>
      <trkpt lat="43.43033" lon="6.06316">
        <ele>282.39999389648</ele>
        <time>2016-04-20T14:46:26Z</time>
      </trkpt>
      <trkpt lat="43.43029" lon="6.06313">
        <ele>282.39999389648</ele>
        <time>2016-04-20T14:46:28Z</time>
      </trkpt>
      <trkpt lat="43.43025" lon="6.06312">
        <ele>282.60000610352</ele>
        <time>2016-04-20T14:46:30Z</time>
      </trkpt>
      <trkpt lat="43.43023" lon="6.06312">
        <ele>282.79998779297</ele>
        <time>2016-04-20T14:46:31Z</time>
      </trkpt>
      <trkpt lat="43.43021" lon="6.06313">
        <ele>282.79998779297</ele>
        <time>2016-04-20T14:46:32Z</time>
      </trkpt>
      <trkpt lat="43.43017" lon="6.06312">
        <ele>283</ele>
        <time>2016-04-20T14:46:34Z</time>
      </trkpt>
      <trkpt lat="43.43013" lon="6.06311">
        <ele>283.20001220703</ele>
        <time>2016-04-20T14:46:36Z</time>
      </trkpt>
      <trkpt lat="43.43009" lon="6.06311">
        <ele>283.60000610352</ele>
        <time>2016-04-20T14:46:38Z</time>
      </trkpt>
      <trkpt lat="43.43007" lon="6.0631">
        <ele>283.79998779297</ele>
        <time>2016-04-20T14:46:39Z</time>
      </trkpt>
      <trkpt lat="43.43005" lon="6.06311">
        <ele>284</ele>
        <time>2016-04-20T14:46:40Z</time>
      </trkpt>
      <trkpt lat="43.43004" lon="6.06311">
        <ele>284</ele>
        <time>2016-04-20T14:46:41Z</time>
      </trkpt>
      <trkpt lat="43.43003" lon="6.06311">
        <ele>284.39999389648</ele>
        <time>2016-04-20T14:46:42Z</time>
      </trkpt>
      <trkpt lat="43.43001" lon="6.0631">
        <ele>284.39999389648</ele>
        <time>2016-04-20T14:46:43Z</time>
      </trkpt>
      <trkpt lat="43.43" lon="6.06309">
        <ele>284.39999389648</ele>
        <time>2016-04-20T14:46:44Z</time>
      </trkpt>
      <trkpt lat="43.42997" lon="6.06306">
        <ele>284.79998779297</ele>
        <time>2016-04-20T14:46:46Z</time>
      </trkpt>
      <trkpt lat="43.42994" lon="6.06304">
        <ele>285</ele>
        <time>2016-04-20T14:46:48Z</time>
      </trkpt>
      <trkpt lat="43.4299" lon="6.06304">
        <ele>285</ele>
        <time>2016-04-20T14:46:50Z</time>
      </trkpt>
      <trkpt lat="43.42987" lon="6.06305">
        <ele>285.39999389648</ele>
        <time>2016-04-20T14:46:52Z</time>
      </trkpt>
      <trkpt lat="43.42985" lon="6.06305">
        <ele>285.39999389648</ele>
        <time>2016-04-20T14:46:53Z</time>
      </trkpt>
      <trkpt lat="43.42983" lon="6.06306">
        <ele>285.39999389648</ele>
        <time>2016-04-20T14:46:54Z</time>
      </trkpt>
      <trkpt lat="43.4298" lon="6.06307">
        <ele>285.39999389648</ele>
        <time>2016-04-20T14:46:56Z</time>
      </trkpt>
      <trkpt lat="43.42977" lon="6.06309">
        <ele>285.39999389648</ele>
        <time>2016-04-20T14:46:58Z</time>
      </trkpt>
      <trkpt lat="43.42976" lon="6.06308">
        <ele>285.39999389648</ele>
        <time>2016-04-20T14:46:59Z</time>
      </trkpt>
      <trkpt lat="43.42974" lon="6.06308">
        <ele>285.60000610352</ele>
        <time>2016-04-20T14:47:00Z</time>
      </trkpt>
      <trkpt lat="43.42971" lon="6.06306">
        <ele>285.79998779297</ele>
        <time>2016-04-20T14:47:02Z</time>
      </trkpt>
      <trkpt lat="43.42969" lon="6.06303">
        <ele>286</ele>
        <time>2016-04-20T14:47:04Z</time>
      </trkpt>
      <trkpt lat="43.42968" lon="6.06301">
        <ele>286.20001220703</ele>
        <time>2016-04-20T14:47:05Z</time>
      </trkpt>
      <trkpt lat="43.42966" lon="6.06299">
        <ele>286.20001220703</ele>
        <time>2016-04-20T14:47:06Z</time>
      </trkpt>
      <trkpt lat="43.42964" lon="6.06296">
        <ele>286.20001220703</ele>
        <time>2016-04-20T14:47:08Z</time>
      </trkpt>
      <trkpt lat="43.42962" lon="6.06293">
        <ele>286.20001220703</ele>
        <time>2016-04-20T14:47:10Z</time>
      </trkpt>
      <trkpt lat="43.42961" lon="6.06293">
        <ele>286.39999389648</ele>
        <time>2016-04-20T14:47:11Z</time>
      </trkpt>
      <trkpt lat="43.4296" lon="6.06292">
        <ele>286.79998779297</ele>
        <time>2016-04-20T14:47:12Z</time>
      </trkpt>
      <trkpt lat="43.42958" lon="6.06292">
        <ele>287</ele>
        <time>2016-04-20T14:47:13Z</time>
      </trkpt>
      <trkpt lat="43.42958" lon="6.06291">
        <ele>287</ele>
        <time>2016-04-20T14:47:14Z</time>
      </trkpt>
      <trkpt lat="43.42956" lon="6.06288">
        <ele>287.20001220703</ele>
        <time>2016-04-20T14:47:16Z</time>
      </trkpt>
      <trkpt lat="43.42955" lon="6.06286">
        <ele>287.20001220703</ele>
        <time>2016-04-20T14:47:17Z</time>
      </trkpt>
      <trkpt lat="43.42954" lon="6.06286">
        <ele>287.20001220703</ele>
        <time>2016-04-20T14:47:18Z</time>
      </trkpt>
      <trkpt lat="43.42953" lon="6.06285">
        <ele>287.60000610352</ele>
        <time>2016-04-20T14:47:19Z</time>
      </trkpt>
      <trkpt lat="43.42952" lon="6.06285">
        <ele>287.60000610352</ele>
        <time>2016-04-20T14:47:20Z</time>
      </trkpt>
      <trkpt lat="43.42951" lon="6.06285">
        <ele>287.79998779297</ele>
        <time>2016-04-20T14:47:21Z</time>
      </trkpt>
      <trkpt lat="43.4295" lon="6.06286">
        <ele>287.79998779297</ele>
        <time>2016-04-20T14:47:22Z</time>
      </trkpt>
      <trkpt lat="43.42949" lon="6.06287">
        <ele>288</ele>
        <time>2016-04-20T14:47:23Z</time>
      </trkpt>
      <trkpt lat="43.42948" lon="6.06287">
        <ele>288.20001220703</ele>
        <time>2016-04-20T14:47:24Z</time>
      </trkpt>
      <trkpt lat="43.42947" lon="6.06287">
        <ele>288.60000610352</ele>
        <time>2016-04-20T14:47:25Z</time>
      </trkpt>
      <trkpt lat="43.42946" lon="6.06287">
        <ele>288.79998779297</ele>
        <time>2016-04-20T14:47:26Z</time>
      </trkpt>
      <trkpt lat="43.42943" lon="6.06289">
        <ele>289</ele>
        <time>2016-04-20T14:47:28Z</time>
      </trkpt>
      <trkpt lat="43.42941" lon="6.06292">
        <ele>289.20001220703</ele>
        <time>2016-04-20T14:47:30Z</time>
      </trkpt>
      <trkpt lat="43.42939" lon="6.06294">
        <ele>289.60000610352</ele>
        <time>2016-04-20T14:47:32Z</time>
      </trkpt>
      <trkpt lat="43.42938" lon="6.06295">
        <ele>289.79998779297</ele>
        <time>2016-04-20T14:47:33Z</time>
      </trkpt>
      <trkpt lat="43.42937" lon="6.06296">
        <ele>290</ele>
        <time>2016-04-20T14:47:34Z</time>
      </trkpt>
      <trkpt lat="43.42937" lon="6.06296">
        <ele>290.20001220703</ele>
        <time>2016-04-20T14:47:35Z</time>
      </trkpt>
      <trkpt lat="43.42936" lon="6.06296">
        <ele>290.20001220703</ele>
        <time>2016-04-20T14:47:36Z</time>
      </trkpt>
      <trkpt lat="43.42936" lon="6.06296">
        <ele>290.20001220703</ele>
        <time>2016-04-20T14:47:38Z</time>
      </trkpt>
      <trkpt lat="43.42936" lon="6.06296">
        <ele>290.20001220703</ele>
        <time>2016-04-20T14:47:40Z</time>
      </trkpt>
      <trkpt lat="43.42936" lon="6.06295">
        <ele>290.20001220703</ele>
        <time>2016-04-20T14:47:42Z</time>
      </trkpt>
      <trkpt lat="43.42936" lon="6.06295">
        <ele>290</ele>
        <time>2016-04-20T14:47:44Z</time>
      </trkpt>
      <trkpt lat="43.42936" lon="6.06295">
        <ele>290</ele>
        <time>2016-04-20T14:47:45Z</time>
      </trkpt>
      <trkpt lat="43.42936" lon="6.06295">
        <ele>290</ele>
        <time>2016-04-20T14:47:46Z</time>
      </trkpt>
      <trkpt lat="43.42936" lon="6.06295">
        <ele>290</ele>
        <time>2016-04-20T14:47:48Z</time>
      </trkpt>
      <trkpt lat="43.42936" lon="6.06295">
        <ele>290</ele>
        <time>2016-04-20T14:47:50Z</time>
      </trkpt>
      <trkpt lat="43.42936" lon="6.06295">
        <ele>290</ele>
        <time>2016-04-20T14:47:52Z</time>
      </trkpt>
      <trkpt lat="43.42936" lon="6.06295">
        <ele>290</ele>
        <time>2016-04-20T14:47:54Z</time>
      </trkpt>
      <trkpt lat="43.42936" lon="6.06295">
        <ele>289.79998779297</ele>
        <time>2016-04-20T14:47:56Z</time>
      </trkpt>
      <trkpt lat="43.42936" lon="6.06295">
        <ele>289.79998779297</ele>
        <time>2016-04-20T14:47:57Z</time>
      </trkpt>
      <trkpt lat="43.42936" lon="6.06295">
        <ele>290</ele>
        <time>2016-04-20T14:47:58Z</time>
      </trkpt>
      <trkpt lat="43.42936" lon="6.06295">
        <ele>290</ele>
        <time>2016-04-20T14:48:00Z</time>
      </trkpt>
      <trkpt lat="43.42936" lon="6.06295">
        <ele>290</ele>
        <time>2016-04-20T14:48:02Z</time>
      </trkpt>
      <trkpt lat="43.42936" lon="6.06295">
        <ele>290</ele>
        <time>2016-04-20T14:48:04Z</time>
      </trkpt>
      <trkpt lat="43.42936" lon="6.06295">
        <ele>290</ele>
        <time>2016-04-20T14:48:06Z</time>
      </trkpt>
      <trkpt lat="43.42936" lon="6.06295">
        <ele>290</ele>
        <time>2016-04-20T14:48:08Z</time>
      </trkpt>
      <trkpt lat="43.42936" lon="6.06295">
        <ele>290</ele>
        <time>2016-04-20T14:48:10Z</time>
      </trkpt>
      <trkpt lat="43.42936" lon="6.06295">
        <ele>290</ele>
        <time>2016-04-20T14:48:12Z</time>
      </trkpt>
      <trkpt lat="43.42936" lon="6.06295">
        <ele>290.20001220703</ele>
        <time>2016-04-20T14:48:14Z</time>
      </trkpt>
      <trkpt lat="43.42936" lon="6.06295">
        <ele>290</ele>
        <time>2016-04-20T14:48:16Z</time>
      </trkpt>
      <trkpt lat="43.42936" lon="6.06295">
        <ele>290</ele>
        <time>2016-04-20T14:48:18Z</time>
      </trkpt>
      <trkpt lat="43.42936" lon="6.06295">
        <ele>290.20001220703</ele>
        <time>2016-04-20T14:48:20Z</time>
      </trkpt>
      <trkpt lat="43.42936" lon="6.06295">
        <ele>290.20001220703</ele>
        <time>2016-04-20T14:48:22Z</time>
      </trkpt>
      <trkpt lat="43.42936" lon="6.06295">
        <ele>290</ele>
        <time>2016-04-20T14:48:24Z</time>
      </trkpt>
      <trkpt lat="43.42936" lon="6.06295">
        <ele>290</ele>
        <time>2016-04-20T14:48:26Z</time>
      </trkpt>
      <trkpt lat="43.42936" lon="6.06295">
        <ele>290</ele>
        <time>2016-04-20T14:48:27Z</time>
      </trkpt>
      <trkpt lat="43.42936" lon="6.06295">
        <ele>290</ele>
        <time>2016-04-20T14:48:28Z</time>
      </trkpt>
      <trkpt lat="43.42936" lon="6.06295">
        <ele>290</ele>
        <time>2016-04-20T14:48:30Z</time>
      </trkpt>
      <trkpt lat="43.42936" lon="6.06295">
        <ele>290.20001220703</ele>
        <time>2016-04-20T14:48:32Z</time>
      </trkpt>
      <trkpt lat="43.42936" lon="6.06295">
        <ele>290.20001220703</ele>
        <time>2016-04-20T14:48:34Z</time>
      </trkpt>
      <trkpt lat="43.42936" lon="6.06295">
        <ele>290.20001220703</ele>
        <time>2016-04-20T14:48:35Z</time>
      </trkpt>
      <trkpt lat="43.42936" lon="6.06295">
        <ele>290</ele>
        <time>2016-04-20T14:48:36Z</time>
      </trkpt>
      <trkpt lat="43.42936" lon="6.06295">
        <ele>290</ele>
        <time>2016-04-20T14:48:38Z</time>
      </trkpt>
      <trkpt lat="43.42936" lon="6.06295">
        <ele>290.20001220703</ele>
        <time>2016-04-20T14:48:40Z</time>
      </trkpt>
      <trkpt lat="43.42936" lon="6.06295">
        <ele>290.20001220703</ele>
        <time>2016-04-20T14:48:42Z</time>
      </trkpt>
      <trkpt lat="43.42935" lon="6.06295">
        <ele>290.20001220703</ele>
        <time>2016-04-20T14:48:44Z</time>
      </trkpt>
      <trkpt lat="43.42934" lon="6.06294">
        <ele>290.39999389648</ele>
        <time>2016-04-20T14:48:46Z</time>
      </trkpt>
      <trkpt lat="43.42933" lon="6.06294">
        <ele>290.39999389648</ele>
        <time>2016-04-20T14:48:47Z</time>
      </trkpt>
      <trkpt lat="43.42933" lon="6.06294">
        <ele>290.39999389648</ele>
        <time>2016-04-20T14:48:48Z</time>
      </trkpt>
      <trkpt lat="43.42933" lon="6.06293">
        <ele>290.20001220703</ele>
        <time>2016-04-20T14:48:50Z</time>
      </trkpt>
      <trkpt lat="43.42933" lon="6.06293">
        <ele>290.20001220703</ele>
        <time>2016-04-20T14:48:52Z</time>
      </trkpt>
      <trkpt lat="43.42933" lon="6.06292">
        <ele>290.20001220703</ele>
        <time>2016-04-20T14:48:53Z</time>
      </trkpt>
      <trkpt lat="43.42933" lon="6.06292">
        <ele>290.20001220703</ele>
        <time>2016-04-20T14:48:54Z</time>
      </trkpt>
      <trkpt lat="43.42933" lon="6.06292">
        <ele>290.39999389648</ele>
        <time>2016-04-20T14:48:56Z</time>
      </trkpt>
      <trkpt lat="43.42933" lon="6.06292">
        <ele>290.39999389648</ele>
        <time>2016-04-20T14:48:58Z</time>
      </trkpt>
      <trkpt lat="43.42933" lon="6.06292">
        <ele>290.39999389648</ele>
        <time>2016-04-20T14:49:00Z</time>
      </trkpt>
      <trkpt lat="43.42933" lon="6.06292">
        <ele>290.39999389648</ele>
        <time>2016-04-20T14:49:02Z</time>
      </trkpt>
      <trkpt lat="43.42933" lon="6.06292">
        <ele>290.39999389648</ele>
        <time>2016-04-20T14:49:04Z</time>
      </trkpt>
      <trkpt lat="43.42933" lon="6.06292">
        <ele>290.39999389648</ele>
        <time>2016-04-20T14:49:06Z</time>
      </trkpt>
      <trkpt lat="43.42933" lon="6.06292">
        <ele>290.20001220703</ele>
        <time>2016-04-20T14:49:08Z</time>
      </trkpt>
      <trkpt lat="43.42933" lon="6.06292">
        <ele>290.20001220703</ele>
        <time>2016-04-20T14:49:10Z</time>
      </trkpt>
      <trkpt lat="43.42933" lon="6.06292">
        <ele>290.20001220703</ele>
        <time>2016-04-20T14:49:12Z</time>
      </trkpt>
      <trkpt lat="43.42933" lon="6.06292">
        <ele>290.20001220703</ele>
        <time>2016-04-20T14:49:14Z</time>
      </trkpt>
      <trkpt lat="43.42933" lon="6.06292">
        <ele>290.39999389648</ele>
        <time>2016-04-20T14:49:16Z</time>
      </trkpt>
      <trkpt lat="43.42933" lon="6.06292">
        <ele>290.39999389648</ele>
        <time>2016-04-20T14:49:18Z</time>
      </trkpt>
      <trkpt lat="43.42933" lon="6.06292">
        <ele>290.39999389648</ele>
        <time>2016-04-20T14:49:20Z</time>
      </trkpt>
      <trkpt lat="43.42933" lon="6.06292">
        <ele>290.60000610352</ele>
        <time>2016-04-20T14:49:22Z</time>
      </trkpt>
      <trkpt lat="43.42933" lon="6.06292">
        <ele>290.60000610352</ele>
        <time>2016-04-20T14:49:23Z</time>
      </trkpt>
      <trkpt lat="43.42932" lon="6.06291">
        <ele>290.60000610352</ele>
        <time>2016-04-20T14:49:24Z</time>
      </trkpt>
      <trkpt lat="43.42931" lon="6.06288">
        <ele>290.39999389648</ele>
        <time>2016-04-20T14:49:26Z</time>
      </trkpt>
      <trkpt lat="43.42929" lon="6.06286">
        <ele>290.39999389648</ele>
        <time>2016-04-20T14:49:28Z</time>
      </trkpt>
      <trkpt lat="43.42926" lon="6.06284">
        <ele>290.60000610352</ele>
        <time>2016-04-20T14:49:30Z</time>
      </trkpt>
      <trkpt lat="43.42924" lon="6.06281">
        <ele>291</ele>
        <time>2016-04-20T14:49:32Z</time>
      </trkpt>
      <trkpt lat="43.42921" lon="6.06279">
        <ele>291.60000610352</ele>
        <time>2016-04-20T14:49:34Z</time>
      </trkpt>
      <trkpt lat="43.42919" lon="6.06278">
        <ele>292</ele>
        <time>2016-04-20T14:49:36Z</time>
      </trkpt>
      <trkpt lat="43.42917" lon="6.06277">
        <ele>292.60000610352</ele>
        <time>2016-04-20T14:49:38Z</time>
      </trkpt>
      <trkpt lat="43.42916" lon="6.06276">
        <ele>293</ele>
        <time>2016-04-20T14:49:39Z</time>
      </trkpt>
      <trkpt lat="43.42916" lon="6.06276">
        <ele>293</ele>
        <time>2016-04-20T14:49:40Z</time>
      </trkpt>
      <trkpt lat="43.42915" lon="6.06274">
        <ele>293.20001220703</ele>
        <time>2016-04-20T14:49:42Z</time>
      </trkpt>
      <trkpt lat="43.42914" lon="6.06274">
        <ele>293.20001220703</ele>
        <time>2016-04-20T14:49:44Z</time>
      </trkpt>
      <trkpt lat="43.42914" lon="6.06274">
        <ele>293.60000610352</ele>
        <time>2016-04-20T14:49:46Z</time>
      </trkpt>
      <trkpt lat="43.42914" lon="6.06275">
        <ele>293.79998779297</ele>
        <time>2016-04-20T14:49:48Z</time>
      </trkpt>
      <trkpt lat="43.42913" lon="6.06275">
        <ele>294</ele>
        <time>2016-04-20T14:49:50Z</time>
      </trkpt>
      <trkpt lat="43.42912" lon="6.06276">
        <ele>294</ele>
        <time>2016-04-20T14:49:52Z</time>
      </trkpt>
      <trkpt lat="43.4291" lon="6.06275">
        <ele>294.39999389648</ele>
        <time>2016-04-20T14:49:54Z</time>
      </trkpt>
      <trkpt lat="43.42909" lon="6.06275">
        <ele>294.79998779297</ele>
        <time>2016-04-20T14:49:56Z</time>
      </trkpt>
      <trkpt lat="43.42908" lon="6.06274">
        <ele>295</ele>
        <time>2016-04-20T14:49:58Z</time>
      </trkpt>
      <trkpt lat="43.42908" lon="6.06273">
        <ele>295.39999389648</ele>
        <time>2016-04-20T14:50:00Z</time>
      </trkpt>
      <trkpt lat="43.42907" lon="6.06273">
        <ele>295.39999389648</ele>
        <time>2016-04-20T14:50:02Z</time>
      </trkpt>
      <trkpt lat="43.42906" lon="6.06273">
        <ele>295.60000610352</ele>
        <time>2016-04-20T14:50:04Z</time>
      </trkpt>
      <trkpt lat="43.42905" lon="6.06273">
        <ele>296</ele>
        <time>2016-04-20T14:50:06Z</time>
      </trkpt>
      <trkpt lat="43.42905" lon="6.06272">
        <ele>296</ele>
        <time>2016-04-20T14:50:08Z</time>
      </trkpt>
      <trkpt lat="43.42904" lon="6.06272">
        <ele>296.39999389648</ele>
        <time>2016-04-20T14:50:10Z</time>
      </trkpt>
      <trkpt lat="43.42904" lon="6.06271">
        <ele>296.60000610352</ele>
        <time>2016-04-20T14:50:11Z</time>
      </trkpt>
      <trkpt lat="43.42904" lon="6.06271">
        <ele>296.60000610352</ele>
        <time>2016-04-20T14:50:12Z</time>
      </trkpt>
      <trkpt lat="43.42903" lon="6.06271">
        <ele>296.79998779297</ele>
        <time>2016-04-20T14:50:14Z</time>
      </trkpt>
      <trkpt lat="43.42902" lon="6.06271">
        <ele>296.79998779297</ele>
        <time>2016-04-20T14:50:16Z</time>
      </trkpt>
      <trkpt lat="43.42902" lon="6.06271">
        <ele>297</ele>
        <time>2016-04-20T14:50:17Z</time>
      </trkpt>
      <trkpt lat="43.42901" lon="6.06271">
        <ele>297</ele>
        <time>2016-04-20T14:50:18Z</time>
      </trkpt>
      <trkpt lat="43.429" lon="6.06271">
        <ele>297.39999389648</ele>
        <time>2016-04-20T14:50:20Z</time>
      </trkpt>
      <trkpt lat="43.429" lon="6.06271">
        <ele>297.60000610352</ele>
        <time>2016-04-20T14:50:22Z</time>
      </trkpt>
      <trkpt lat="43.429" lon="6.06271">
        <ele>297.60000610352</ele>
        <time>2016-04-20T14:50:24Z</time>
      </trkpt>
      <trkpt lat="43.429" lon="6.06271">
        <ele>297.60000610352</ele>
        <time>2016-04-20T14:50:26Z</time>
      </trkpt>
      <trkpt lat="43.429" lon="6.06271">
        <ele>297.79998779297</ele>
        <time>2016-04-20T14:50:27Z</time>
      </trkpt>
      <trkpt lat="43.429" lon="6.06271">
        <ele>297.79998779297</ele>
        <time>2016-04-20T14:50:28Z</time>
      </trkpt>
      <trkpt lat="43.429" lon="6.06271">
        <ele>297.79998779297</ele>
        <time>2016-04-20T14:50:30Z</time>
      </trkpt>
      <trkpt lat="43.429" lon="6.06271">
        <ele>297.79998779297</ele>
        <time>2016-04-20T14:50:32Z</time>
      </trkpt>
      <trkpt lat="43.429" lon="6.06271">
        <ele>297.79998779297</ele>
        <time>2016-04-20T14:50:34Z</time>
      </trkpt>
      <trkpt lat="43.429" lon="6.06271">
        <ele>298</ele>
        <time>2016-04-20T14:50:36Z</time>
      </trkpt>
      <trkpt lat="43.429" lon="6.06271">
        <ele>298</ele>
        <time>2016-04-20T14:50:38Z</time>
      </trkpt>
      <trkpt lat="43.429" lon="6.06271">
        <ele>298</ele>
        <time>2016-04-20T14:50:40Z</time>
      </trkpt>
      <trkpt lat="43.42899" lon="6.06271">
        <ele>298</ele>
        <time>2016-04-20T14:50:42Z</time>
      </trkpt>
      <trkpt lat="43.42898" lon="6.06269">
        <ele>298</ele>
        <time>2016-04-20T14:50:44Z</time>
      </trkpt>
      <trkpt lat="43.42897" lon="6.06267">
        <ele>298.39999389648</ele>
        <time>2016-04-20T14:50:46Z</time>
      </trkpt>
      <trkpt lat="43.42895" lon="6.06265">
        <ele>298.79998779297</ele>
        <time>2016-04-20T14:50:48Z</time>
      </trkpt>
      <trkpt lat="43.42894" lon="6.06263">
        <ele>299.20001220703</ele>
        <time>2016-04-20T14:50:50Z</time>
      </trkpt>
      <trkpt lat="43.42892" lon="6.06262">
        <ele>300</ele>
        <time>2016-04-20T14:50:52Z</time>
      </trkpt>
      <trkpt lat="43.42891" lon="6.06261">
        <ele>300.20001220703</ele>
        <time>2016-04-20T14:50:53Z</time>
      </trkpt>
      <trkpt lat="43.4289" lon="6.0626">
        <ele>300.20001220703</ele>
        <time>2016-04-20T14:50:54Z</time>
      </trkpt>
      <trkpt lat="43.42888" lon="6.06259">
        <ele>300.60000610352</ele>
        <time>2016-04-20T14:50:56Z</time>
      </trkpt>
      <trkpt lat="43.42886" lon="6.06258">
        <ele>300.79998779297</ele>
        <time>2016-04-20T14:50:58Z</time>
      </trkpt>
      <trkpt lat="43.42883" lon="6.06259">
        <ele>301.20001220703</ele>
        <time>2016-04-20T14:51:00Z</time>
      </trkpt>
      <trkpt lat="43.42881" lon="6.06261">
        <ele>301.39999389648</ele>
        <time>2016-04-20T14:51:01Z</time>
      </trkpt>
      <trkpt lat="43.42879" lon="6.06261">
        <ele>301.60000610352</ele>
        <time>2016-04-20T14:51:02Z</time>
      </trkpt>
      <trkpt lat="43.42878" lon="6.0626">
        <ele>301.79998779297</ele>
        <time>2016-04-20T14:51:04Z</time>
      </trkpt>
      <trkpt lat="43.42877" lon="6.06259">
        <ele>302.20001220703</ele>
        <time>2016-04-20T14:51:06Z</time>
      </trkpt>
      <trkpt lat="43.42876" lon="6.06257">
        <ele>302.60000610352</ele>
        <time>2016-04-20T14:51:07Z</time>
      </trkpt>
      <trkpt lat="43.42876" lon="6.06257">
        <ele>302.79998779297</ele>
        <time>2016-04-20T14:51:08Z</time>
      </trkpt>
      <trkpt lat="43.42875" lon="6.06254">
        <ele>303.20001220703</ele>
        <time>2016-04-20T14:51:10Z</time>
      </trkpt>
      <trkpt lat="43.42874" lon="6.06251">
        <ele>303.39999389648</ele>
        <time>2016-04-20T14:51:12Z</time>
      </trkpt>
      <trkpt lat="43.42874" lon="6.0625">
        <ele>303.60000610352</ele>
        <time>2016-04-20T14:51:13Z</time>
      </trkpt>
      <trkpt lat="43.42874" lon="6.06248">
        <ele>303.79998779297</ele>
        <time>2016-04-20T14:51:14Z</time>
      </trkpt>
      <trkpt lat="43.42873" lon="6.06247">
        <ele>304</ele>
        <time>2016-04-20T14:51:15Z</time>
      </trkpt>
      <trkpt lat="43.42873" lon="6.06247">
        <ele>304.20001220703</ele>
        <time>2016-04-20T14:51:16Z</time>
      </trkpt>
      <trkpt lat="43.42873" lon="6.06244">
        <ele>305</ele>
        <time>2016-04-20T14:51:18Z</time>
      </trkpt>
      <trkpt lat="43.42873" lon="6.06244">
        <ele>305.39999389648</ele>
        <time>2016-04-20T14:51:19Z</time>
      </trkpt>
      <trkpt lat="43.42873" lon="6.06242">
        <ele>305.79998779297</ele>
        <time>2016-04-20T14:51:20Z</time>
      </trkpt>
      <trkpt lat="43.42871" lon="6.0624">
        <ele>306.60000610352</ele>
        <time>2016-04-20T14:51:22Z</time>
      </trkpt>
      <trkpt lat="43.4287" lon="6.06239">
        <ele>307</ele>
        <time>2016-04-20T14:51:24Z</time>
      </trkpt>
      <trkpt lat="43.4287" lon="6.06239">
        <ele>306.79998779297</ele>
        <time>2016-04-20T14:51:26Z</time>
      </trkpt>
      <trkpt lat="43.4287" lon="6.06239">
        <ele>306.60000610352</ele>
        <time>2016-04-20T14:51:28Z</time>
      </trkpt>
      <trkpt lat="43.4287" lon="6.06239">
        <ele>306.39999389648</ele>
        <time>2016-04-20T14:51:30Z</time>
      </trkpt>
      <trkpt lat="43.4287" lon="6.06239">
        <ele>306.39999389648</ele>
        <time>2016-04-20T14:51:32Z</time>
      </trkpt>
      <trkpt lat="43.4287" lon="6.06239">
        <ele>306.20001220703</ele>
        <time>2016-04-20T14:51:34Z</time>
      </trkpt>
      <trkpt lat="43.4287" lon="6.06239">
        <ele>306</ele>
        <time>2016-04-20T14:51:36Z</time>
      </trkpt>
      <trkpt lat="43.4287" lon="6.06239">
        <ele>306</ele>
        <time>2016-04-20T14:51:38Z</time>
      </trkpt>
      <trkpt lat="43.4287" lon="6.06239">
        <ele>306.39999389648</ele>
        <time>2016-04-20T14:51:40Z</time>
      </trkpt>
      <trkpt lat="43.4287" lon="6.06239">
        <ele>306.39999389648</ele>
        <time>2016-04-20T14:51:42Z</time>
      </trkpt>
      <trkpt lat="43.4287" lon="6.06239">
        <ele>306.39999389648</ele>
        <time>2016-04-20T14:51:44Z</time>
      </trkpt>
      <trkpt lat="43.4287" lon="6.06239">
        <ele>306.39999389648</ele>
        <time>2016-04-20T14:51:46Z</time>
      </trkpt>
      <trkpt lat="43.4287" lon="6.06239">
        <ele>306.39999389648</ele>
        <time>2016-04-20T14:51:47Z</time>
      </trkpt>
      <trkpt lat="43.4287" lon="6.06239">
        <ele>306.39999389648</ele>
        <time>2016-04-20T14:51:48Z</time>
      </trkpt>
      <trkpt lat="43.4287" lon="6.06239">
        <ele>306.39999389648</ele>
        <time>2016-04-20T14:51:50Z</time>
      </trkpt>
      <trkpt lat="43.4287" lon="6.06239">
        <ele>306.20001220703</ele>
        <time>2016-04-20T14:51:52Z</time>
      </trkpt>
      <trkpt lat="43.4287" lon="6.06239">
        <ele>306.20001220703</ele>
        <time>2016-04-20T14:51:54Z</time>
      </trkpt>
      <trkpt lat="43.4287" lon="6.06239">
        <ele>306.20001220703</ele>
        <time>2016-04-20T14:51:56Z</time>
      </trkpt>
      <trkpt lat="43.4287" lon="6.06239">
        <ele>306.20001220703</ele>
        <time>2016-04-20T14:51:57Z</time>
      </trkpt>
      <trkpt lat="43.4287" lon="6.06239">
        <ele>306.20001220703</ele>
        <time>2016-04-20T14:51:58Z</time>
      </trkpt>
      <trkpt lat="43.4287" lon="6.06239">
        <ele>306.20001220703</ele>
        <time>2016-04-20T14:52:00Z</time>
      </trkpt>
      <trkpt lat="43.4287" lon="6.06239">
        <ele>306.39999389648</ele>
        <time>2016-04-20T14:52:01Z</time>
      </trkpt>
      <trkpt lat="43.4287" lon="6.06239">
        <ele>306.39999389648</ele>
        <time>2016-04-20T14:52:02Z</time>
      </trkpt>
      <trkpt lat="43.4287" lon="6.06239">
        <ele>306.39999389648</ele>
        <time>2016-04-20T14:52:04Z</time>
      </trkpt>
      <trkpt lat="43.4287" lon="6.06239">
        <ele>306.60000610352</ele>
        <time>2016-04-20T14:52:06Z</time>
      </trkpt>
      <trkpt lat="43.4287" lon="6.06239">
        <ele>306.39999389648</ele>
        <time>2016-04-20T14:52:08Z</time>
      </trkpt>
      <trkpt lat="43.4287" lon="6.06239">
        <ele>306.60000610352</ele>
        <time>2016-04-20T14:52:10Z</time>
      </trkpt>
      <trkpt lat="43.4287" lon="6.06239">
        <ele>306.39999389648</ele>
        <time>2016-04-20T14:52:12Z</time>
      </trkpt>
      <trkpt lat="43.4287" lon="6.06239">
        <ele>306.39999389648</ele>
        <time>2016-04-20T14:52:14Z</time>
      </trkpt>
      <trkpt lat="43.4287" lon="6.06239">
        <ele>306.60000610352</ele>
        <time>2016-04-20T14:52:16Z</time>
      </trkpt>
      <trkpt lat="43.4287" lon="6.06239">
        <ele>306.60000610352</ele>
        <time>2016-04-20T14:52:18Z</time>
      </trkpt>
      <trkpt lat="43.4287" lon="6.06239">
        <ele>306.60000610352</ele>
        <time>2016-04-20T14:52:20Z</time>
      </trkpt>
      <trkpt lat="43.4287" lon="6.06239">
        <ele>306.60000610352</ele>
        <time>2016-04-20T14:52:22Z</time>
      </trkpt>
      <trkpt lat="43.4287" lon="6.06239">
        <ele>306.39999389648</ele>
        <time>2016-04-20T14:52:24Z</time>
      </trkpt>
      <trkpt lat="43.4287" lon="6.06239">
        <ele>306.60000610352</ele>
        <time>2016-04-20T14:52:26Z</time>
      </trkpt>
      <trkpt lat="43.4287" lon="6.06239">
        <ele>306.39999389648</ele>
        <time>2016-04-20T14:52:28Z</time>
      </trkpt>
      <trkpt lat="43.4287" lon="6.06239">
        <ele>306.39999389648</ele>
        <time>2016-04-20T14:52:30Z</time>
      </trkpt>
      <trkpt lat="43.4287" lon="6.06239">
        <ele>306.39999389648</ele>
        <time>2016-04-20T14:52:32Z</time>
      </trkpt>
      <trkpt lat="43.4287" lon="6.06239">
        <ele>306.39999389648</ele>
        <time>2016-04-20T14:52:34Z</time>
      </trkpt>
      <trkpt lat="43.4287" lon="6.06239">
        <ele>306.39999389648</ele>
        <time>2016-04-20T14:52:36Z</time>
      </trkpt>
      <trkpt lat="43.4287" lon="6.06239">
        <ele>306.39999389648</ele>
        <time>2016-04-20T14:52:38Z</time>
      </trkpt>
      <trkpt lat="43.4287" lon="6.06239">
        <ele>306.39999389648</ele>
        <time>2016-04-20T14:52:40Z</time>
      </trkpt>
      <trkpt lat="43.4287" lon="6.06239">
        <ele>306.60000610352</ele>
        <time>2016-04-20T14:52:42Z</time>
      </trkpt>
      <trkpt lat="43.4287" lon="6.06239">
        <ele>306.60000610352</ele>
        <time>2016-04-20T14:52:44Z</time>
      </trkpt>
      <trkpt lat="43.4287" lon="6.06239">
        <ele>306.60000610352</ele>
        <time>2016-04-20T14:52:46Z</time>
      </trkpt>
      <trkpt lat="43.4287" lon="6.06239">
        <ele>306.60000610352</ele>
        <time>2016-04-20T14:52:48Z</time>
      </trkpt>
      <trkpt lat="43.4287" lon="6.06239">
        <ele>306.60000610352</ele>
        <time>2016-04-20T14:52:50Z</time>
      </trkpt>
      <trkpt lat="43.4287" lon="6.06239">
        <ele>306.79998779297</ele>
        <time>2016-04-20T14:52:52Z</time>
      </trkpt>
      <trkpt lat="43.4287" lon="6.06239">
        <ele>306.79998779297</ele>
        <time>2016-04-20T14:52:54Z</time>
      </trkpt>
      <trkpt lat="43.4287" lon="6.06239">
        <ele>306.79998779297</ele>
        <time>2016-04-20T14:52:56Z</time>
      </trkpt>
      <trkpt lat="43.4287" lon="6.06239">
        <ele>306.79998779297</ele>
        <time>2016-04-20T14:52:58Z</time>
      </trkpt>
      <trkpt lat="43.4287" lon="6.06239">
        <ele>306.60000610352</ele>
        <time>2016-04-20T14:53:00Z</time>
      </trkpt>
      <trkpt lat="43.4287" lon="6.06239">
        <ele>306.39999389648</ele>
        <time>2016-04-20T14:53:02Z</time>
      </trkpt>
      <trkpt lat="43.4287" lon="6.06239">
        <ele>306.20001220703</ele>
        <time>2016-04-20T14:53:04Z</time>
      </trkpt>
      <trkpt lat="43.4287" lon="6.06239">
        <ele>306.39999389648</ele>
        <time>2016-04-20T14:53:06Z</time>
      </trkpt>
      <trkpt lat="43.4287" lon="6.06239">
        <ele>306.20001220703</ele>
        <time>2016-04-20T14:53:07Z</time>
      </trkpt>
      <trkpt lat="43.4287" lon="6.06239">
        <ele>306.20001220703</ele>
        <time>2016-04-20T14:53:08Z</time>
      </trkpt>
      <trkpt lat="43.4287" lon="6.06239">
        <ele>306.20001220703</ele>
        <time>2016-04-20T14:53:10Z</time>
      </trkpt>
      <trkpt lat="43.4287" lon="6.06239">
        <ele>306.20001220703</ele>
        <time>2016-04-20T14:53:11Z</time>
      </trkpt>
      <trkpt lat="43.4287" lon="6.06239">
        <ele>306.20001220703</ele>
        <time>2016-04-20T14:53:14Z</time>
      </trkpt>
      <trkpt lat="43.4287" lon="6.06239">
        <ele>306.20001220703</ele>
        <time>2016-04-20T14:53:16Z</time>
      </trkpt>
      <trkpt lat="43.4287" lon="6.06239">
        <ele>306.39999389648</ele>
        <time>2016-04-20T14:53:18Z</time>
      </trkpt>
      <trkpt lat="43.4287" lon="6.06239">
        <ele>306.60000610352</ele>
        <time>2016-04-20T14:53:20Z</time>
      </trkpt>
      <trkpt lat="43.4287" lon="6.06239">
        <ele>306.60000610352</ele>
        <time>2016-04-20T14:53:22Z</time>
      </trkpt>
      <trkpt lat="43.4287" lon="6.06239">
        <ele>306.60000610352</ele>
        <time>2016-04-20T14:53:24Z</time>
      </trkpt>
      <trkpt lat="43.4287" lon="6.06239">
        <ele>306.79998779297</ele>
        <time>2016-04-20T14:53:26Z</time>
      </trkpt>
      <trkpt lat="43.4287" lon="6.06239">
        <ele>306.79998779297</ele>
        <time>2016-04-20T14:53:28Z</time>
      </trkpt>
      <trkpt lat="43.4287" lon="6.06239">
        <ele>306.79998779297</ele>
        <time>2016-04-20T14:53:30Z</time>
      </trkpt>
      <trkpt lat="43.4287" lon="6.06239">
        <ele>306.79998779297</ele>
        <time>2016-04-20T14:53:32Z</time>
      </trkpt>
      <trkpt lat="43.4287" lon="6.06239">
        <ele>306.79998779297</ele>
        <time>2016-04-20T14:53:34Z</time>
      </trkpt>
      <trkpt lat="43.4287" lon="6.06239">
        <ele>307</ele>
        <time>2016-04-20T14:53:36Z</time>
      </trkpt>
      <trkpt lat="43.4287" lon="6.06239">
        <ele>307</ele>
        <time>2016-04-20T14:53:38Z</time>
      </trkpt>
      <trkpt lat="43.4287" lon="6.06239">
        <ele>306.79998779297</ele>
        <time>2016-04-20T14:53:40Z</time>
      </trkpt>
      <trkpt lat="43.4287" lon="6.06239">
        <ele>306.60000610352</ele>
        <time>2016-04-20T14:53:42Z</time>
      </trkpt>
      <trkpt lat="43.4287" lon="6.06239">
        <ele>306.79998779297</ele>
        <time>2016-04-20T14:53:44Z</time>
      </trkpt>
      <trkpt lat="43.4287" lon="6.06239">
        <ele>306.79998779297</ele>
        <time>2016-04-20T14:53:46Z</time>
      </trkpt>
      <trkpt lat="43.4287" lon="6.06239">
        <ele>306.79998779297</ele>
        <time>2016-04-20T14:53:48Z</time>
      </trkpt>
      <trkpt lat="43.4287" lon="6.06239">
        <ele>307</ele>
        <time>2016-04-20T14:53:50Z</time>
      </trkpt>
      <trkpt lat="43.4287" lon="6.06239">
        <ele>307</ele>
        <time>2016-04-20T14:53:52Z</time>
      </trkpt>
      <trkpt lat="43.4287" lon="6.06239">
        <ele>307.20001220703</ele>
        <time>2016-04-20T14:53:54Z</time>
      </trkpt>
      <trkpt lat="43.4287" lon="6.06239">
        <ele>307.20001220703</ele>
        <time>2016-04-20T14:53:56Z</time>
      </trkpt>
      <trkpt lat="43.4287" lon="6.06239">
        <ele>307.39999389648</ele>
        <time>2016-04-20T14:53:58Z</time>
      </trkpt>
      <trkpt lat="43.4287" lon="6.06239">
        <ele>307.20001220703</ele>
        <time>2016-04-20T14:54:00Z</time>
      </trkpt>
      <trkpt lat="43.4287" lon="6.06239">
        <ele>307.20001220703</ele>
        <time>2016-04-20T14:54:02Z</time>
      </trkpt>
      <trkpt lat="43.4287" lon="6.06239">
        <ele>307</ele>
        <time>2016-04-20T14:54:03Z</time>
      </trkpt>
      <trkpt lat="43.4287" lon="6.06239">
        <ele>307</ele>
        <time>2016-04-20T14:54:06Z</time>
      </trkpt>
      <trkpt lat="43.4287" lon="6.06238">
        <ele>307</ele>
        <time>2016-04-20T14:54:08Z</time>
      </trkpt>
      <trkpt lat="43.4287" lon="6.06238">
        <ele>306.79998779297</ele>
        <time>2016-04-20T14:54:10Z</time>
      </trkpt>
      <trkpt lat="43.4287" lon="6.06238">
        <ele>306.79998779297</ele>
        <time>2016-04-20T14:54:12Z</time>
      </trkpt>
      <trkpt lat="43.4287" lon="6.06238">
        <ele>306.60000610352</ele>
        <time>2016-04-20T14:54:14Z</time>
      </trkpt>
      <trkpt lat="43.4287" lon="6.06238">
        <ele>306.60000610352</ele>
        <time>2016-04-20T14:54:16Z</time>
      </trkpt>
      <trkpt lat="43.4287" lon="6.06238">
        <ele>306.60000610352</ele>
        <time>2016-04-20T14:54:18Z</time>
      </trkpt>
      <trkpt lat="43.4287" lon="6.06238">
        <ele>306.60000610352</ele>
        <time>2016-04-20T14:54:20Z</time>
      </trkpt>
      <trkpt lat="43.4287" lon="6.06238">
        <ele>306.60000610352</ele>
        <time>2016-04-20T14:54:22Z</time>
      </trkpt>
      <trkpt lat="43.4287" lon="6.06238">
        <ele>307</ele>
        <time>2016-04-20T14:54:24Z</time>
      </trkpt>
      <trkpt lat="43.4287" lon="6.06238">
        <ele>307</ele>
        <time>2016-04-20T14:54:26Z</time>
      </trkpt>
      <trkpt lat="43.4287" lon="6.06238">
        <ele>307</ele>
        <time>2016-04-20T14:54:28Z</time>
      </trkpt>
      <trkpt lat="43.4287" lon="6.06238">
        <ele>306.79998779297</ele>
        <time>2016-04-20T14:54:30Z</time>
      </trkpt>
      <trkpt lat="43.4287" lon="6.06238">
        <ele>307</ele>
        <time>2016-04-20T14:54:32Z</time>
      </trkpt>
      <trkpt lat="43.4287" lon="6.06238">
        <ele>306.79998779297</ele>
        <time>2016-04-20T14:54:34Z</time>
      </trkpt>
      <trkpt lat="43.4287" lon="6.06238">
        <ele>306.60000610352</ele>
        <time>2016-04-20T14:54:36Z</time>
      </trkpt>
      <trkpt lat="43.4287" lon="6.06238">
        <ele>306.60000610352</ele>
        <time>2016-04-20T14:54:38Z</time>
      </trkpt>
      <trkpt lat="43.4287" lon="6.06238">
        <ele>306.60000610352</ele>
        <time>2016-04-20T14:54:40Z</time>
      </trkpt>
      <trkpt lat="43.4287" lon="6.06238">
        <ele>306.60000610352</ele>
        <time>2016-04-20T14:54:42Z</time>
      </trkpt>
      <trkpt lat="43.4287" lon="6.06238">
        <ele>306.20001220703</ele>
        <time>2016-04-20T14:54:44Z</time>
      </trkpt>
      <trkpt lat="43.4287" lon="6.06238">
        <ele>306.20001220703</ele>
        <time>2016-04-20T14:54:45Z</time>
      </trkpt>
      <trkpt lat="43.4287" lon="6.06238">
        <ele>306</ele>
        <time>2016-04-20T14:54:46Z</time>
      </trkpt>
      <trkpt lat="43.4287" lon="6.06238">
        <ele>306</ele>
        <time>2016-04-20T14:54:48Z</time>
      </trkpt>
      <trkpt lat="43.4287" lon="6.06238">
        <ele>306</ele>
        <time>2016-04-20T14:54:50Z</time>
      </trkpt>
      <trkpt lat="43.4287" lon="6.06238">
        <ele>306</ele>
        <time>2016-04-20T14:54:52Z</time>
      </trkpt>
      <trkpt lat="43.4287" lon="6.06238">
        <ele>306</ele>
        <time>2016-04-20T14:54:54Z</time>
      </trkpt>
      <trkpt lat="43.4287" lon="6.06238">
        <ele>306.20001220703</ele>
        <time>2016-04-20T14:54:56Z</time>
      </trkpt>
      <trkpt lat="43.4287" lon="6.06238">
        <ele>306.20001220703</ele>
        <time>2016-04-20T14:54:58Z</time>
      </trkpt>
      <trkpt lat="43.4287" lon="6.06238">
        <ele>306.20001220703</ele>
        <time>2016-04-20T14:55:00Z</time>
      </trkpt>
      <trkpt lat="43.4287" lon="6.06238">
        <ele>306</ele>
        <time>2016-04-20T14:55:02Z</time>
      </trkpt>
      <trkpt lat="43.4287" lon="6.06238">
        <ele>306</ele>
        <time>2016-04-20T14:55:04Z</time>
      </trkpt>
      <trkpt lat="43.4287" lon="6.06238">
        <ele>306</ele>
        <time>2016-04-20T14:55:06Z</time>
      </trkpt>
      <trkpt lat="43.4287" lon="6.06238">
        <ele>306.20001220703</ele>
        <time>2016-04-20T14:55:08Z</time>
      </trkpt>
      <trkpt lat="43.4287" lon="6.06238">
        <ele>306.20001220703</ele>
        <time>2016-04-20T14:55:10Z</time>
      </trkpt>
      <trkpt lat="43.4287" lon="6.06238">
        <ele>306.20001220703</ele>
        <time>2016-04-20T14:55:11Z</time>
      </trkpt>
      <trkpt lat="43.4287" lon="6.06238">
        <ele>306</ele>
        <time>2016-04-20T14:55:12Z</time>
      </trkpt>
      <trkpt lat="43.4287" lon="6.06238">
        <ele>306</ele>
        <time>2016-04-20T14:55:14Z</time>
      </trkpt>
      <trkpt lat="43.4287" lon="6.06237">
        <ele>306</ele>
        <time>2016-04-20T14:55:16Z</time>
      </trkpt>
      <trkpt lat="43.4287" lon="6.06237">
        <ele>306</ele>
        <time>2016-04-20T14:55:18Z</time>
      </trkpt>
      <trkpt lat="43.4287" lon="6.06237">
        <ele>306</ele>
        <time>2016-04-20T14:55:20Z</time>
      </trkpt>
      <trkpt lat="43.4287" lon="6.06237">
        <ele>306.39999389648</ele>
        <time>2016-04-20T14:55:22Z</time>
      </trkpt>
      <trkpt lat="43.4287" lon="6.06237">
        <ele>306.60000610352</ele>
        <time>2016-04-20T14:55:24Z</time>
      </trkpt>
      <trkpt lat="43.4287" lon="6.06237">
        <ele>306.60000610352</ele>
        <time>2016-04-20T14:55:26Z</time>
      </trkpt>
      <trkpt lat="43.4287" lon="6.06237">
        <ele>306.60000610352</ele>
        <time>2016-04-20T14:55:28Z</time>
      </trkpt>
      <trkpt lat="43.4287" lon="6.06237">
        <ele>306.60000610352</ele>
        <time>2016-04-20T14:55:30Z</time>
      </trkpt>
      <trkpt lat="43.4287" lon="6.06237">
        <ele>306.79998779297</ele>
        <time>2016-04-20T14:55:32Z</time>
      </trkpt>
      <trkpt lat="43.4287" lon="6.06237">
        <ele>306.60000610352</ele>
        <time>2016-04-20T14:55:34Z</time>
      </trkpt>
      <trkpt lat="43.4287" lon="6.06237">
        <ele>306.39999389648</ele>
        <time>2016-04-20T14:55:36Z</time>
      </trkpt>
      <trkpt lat="43.4287" lon="6.06237">
        <ele>306.39999389648</ele>
        <time>2016-04-20T14:55:38Z</time>
      </trkpt>
      <trkpt lat="43.4287" lon="6.06237">
        <ele>306.20001220703</ele>
        <time>2016-04-20T14:55:40Z</time>
      </trkpt>
      <trkpt lat="43.4287" lon="6.06237">
        <ele>306.20001220703</ele>
        <time>2016-04-20T14:55:42Z</time>
      </trkpt>
      <trkpt lat="43.4287" lon="6.06237">
        <ele>306.20001220703</ele>
        <time>2016-04-20T14:55:44Z</time>
      </trkpt>
      <trkpt lat="43.4287" lon="6.06237">
        <ele>306</ele>
        <time>2016-04-20T14:55:46Z</time>
      </trkpt>
      <trkpt lat="43.4287" lon="6.06237">
        <ele>306</ele>
        <time>2016-04-20T14:55:48Z</time>
      </trkpt>
      <trkpt lat="43.4287" lon="6.06237">
        <ele>306</ele>
        <time>2016-04-20T14:55:49Z</time>
      </trkpt>
      <trkpt lat="43.4287" lon="6.06237">
        <ele>306</ele>
        <time>2016-04-20T14:55:50Z</time>
      </trkpt>
      <trkpt lat="43.4287" lon="6.06237">
        <ele>306</ele>
        <time>2016-04-20T14:55:52Z</time>
      </trkpt>
      <trkpt lat="43.4287" lon="6.06237">
        <ele>306</ele>
        <time>2016-04-20T14:55:54Z</time>
      </trkpt>
      <trkpt lat="43.4287" lon="6.06237">
        <ele>306.39999389648</ele>
        <time>2016-04-20T14:55:56Z</time>
      </trkpt>
      <trkpt lat="43.4287" lon="6.06237">
        <ele>306.39999389648</ele>
        <time>2016-04-20T14:55:58Z</time>
      </trkpt>
      <trkpt lat="43.4287" lon="6.06237">
        <ele>306.20001220703</ele>
        <time>2016-04-20T14:56:00Z</time>
      </trkpt>
      <trkpt lat="43.4287" lon="6.06237">
        <ele>306.20001220703</ele>
        <time>2016-04-20T14:56:02Z</time>
      </trkpt>
      <trkpt lat="43.4287" lon="6.06237">
        <ele>306</ele>
        <time>2016-04-20T14:56:04Z</time>
      </trkpt>
      <trkpt lat="43.4287" lon="6.06237">
        <ele>306.20001220703</ele>
        <time>2016-04-20T14:56:06Z</time>
      </trkpt>
      <trkpt lat="43.4287" lon="6.06237">
        <ele>306.39999389648</ele>
        <time>2016-04-20T14:56:08Z</time>
      </trkpt>
      <trkpt lat="43.4287" lon="6.06237">
        <ele>306.39999389648</ele>
        <time>2016-04-20T14:56:10Z</time>
      </trkpt>
      <trkpt lat="43.4287" lon="6.06237">
        <ele>306.20001220703</ele>
        <time>2016-04-20T14:56:12Z</time>
      </trkpt>
      <trkpt lat="43.4287" lon="6.06237">
        <ele>306.20001220703</ele>
        <time>2016-04-20T14:56:14Z</time>
      </trkpt>
      <trkpt lat="43.4287" lon="6.06237">
        <ele>306.20001220703</ele>
        <time>2016-04-20T14:56:16Z</time>
      </trkpt>
      <trkpt lat="43.4287" lon="6.06237">
        <ele>306.20001220703</ele>
        <time>2016-04-20T14:56:18Z</time>
      </trkpt>
      <trkpt lat="43.4287" lon="6.06237">
        <ele>306</ele>
        <time>2016-04-20T14:56:20Z</time>
      </trkpt>
      <trkpt lat="43.4287" lon="6.06237">
        <ele>305.79998779297</ele>
        <time>2016-04-20T14:56:22Z</time>
      </trkpt>
      <trkpt lat="43.4287" lon="6.06237">
        <ele>305.79998779297</ele>
        <time>2016-04-20T14:56:24Z</time>
      </trkpt>
      <trkpt lat="43.4287" lon="6.06237">
        <ele>305.79998779297</ele>
        <time>2016-04-20T14:56:26Z</time>
      </trkpt>
      <trkpt lat="43.4287" lon="6.06237">
        <ele>305.79998779297</ele>
        <time>2016-04-20T14:56:28Z</time>
      </trkpt>
      <trkpt lat="43.4287" lon="6.06237">
        <ele>306</ele>
        <time>2016-04-20T14:56:30Z</time>
      </trkpt>
      <trkpt lat="43.4287" lon="6.06237">
        <ele>306.20001220703</ele>
        <time>2016-04-20T14:56:32Z</time>
      </trkpt>
      <trkpt lat="43.4287" lon="6.06237">
        <ele>306.20001220703</ele>
        <time>2016-04-20T14:56:34Z</time>
      </trkpt>
      <trkpt lat="43.4287" lon="6.06237">
        <ele>306</ele>
        <time>2016-04-20T14:56:36Z</time>
      </trkpt>
      <trkpt lat="43.4287" lon="6.06237">
        <ele>305.79998779297</ele>
        <time>2016-04-20T14:56:38Z</time>
      </trkpt>
      <trkpt lat="43.4287" lon="6.06236">
        <ele>306</ele>
        <time>2016-04-20T14:56:40Z</time>
      </trkpt>
      <trkpt lat="43.4287" lon="6.06236">
        <ele>306</ele>
        <time>2016-04-20T14:56:42Z</time>
      </trkpt>
      <trkpt lat="43.4287" lon="6.06236">
        <ele>306</ele>
        <time>2016-04-20T14:56:44Z</time>
      </trkpt>
      <trkpt lat="43.4287" lon="6.06236">
        <ele>306</ele>
        <time>2016-04-20T14:56:46Z</time>
      </trkpt>
      <trkpt lat="43.4287" lon="6.06236">
        <ele>306</ele>
        <time>2016-04-20T14:56:48Z</time>
      </trkpt>
      <trkpt lat="43.4287" lon="6.06236">
        <ele>306.20001220703</ele>
        <time>2016-04-20T14:56:50Z</time>
      </trkpt>
      <trkpt lat="43.4287" lon="6.06237">
        <ele>306</ele>
        <time>2016-04-20T14:56:52Z</time>
      </trkpt>
      <trkpt lat="43.4287" lon="6.06236">
        <ele>305.79998779297</ele>
        <time>2016-04-20T14:56:54Z</time>
      </trkpt>
      <trkpt lat="43.4287" lon="6.06236">
        <ele>305.60000610352</ele>
        <time>2016-04-20T14:56:56Z</time>
      </trkpt>
      <trkpt lat="43.4287" lon="6.06237">
        <ele>305.79998779297</ele>
        <time>2016-04-20T14:56:58Z</time>
      </trkpt>
      <trkpt lat="43.4287" lon="6.06237">
        <ele>305.60000610352</ele>
        <time>2016-04-20T14:57:00Z</time>
      </trkpt>
      <trkpt lat="43.4287" lon="6.06236">
        <ele>305.60000610352</ele>
        <time>2016-04-20T14:57:01Z</time>
      </trkpt>
      <trkpt lat="43.4287" lon="6.06236">
        <ele>305.39999389648</ele>
        <time>2016-04-20T14:57:02Z</time>
      </trkpt>
      <trkpt lat="43.4287" lon="6.06236">
        <ele>305.39999389648</ele>
        <time>2016-04-20T14:57:04Z</time>
      </trkpt>
      <trkpt lat="43.4287" lon="6.06236">
        <ele>305.39999389648</ele>
        <time>2016-04-20T14:57:06Z</time>
      </trkpt>
      <trkpt lat="43.4287" lon="6.06236">
        <ele>305.79998779297</ele>
        <time>2016-04-20T14:57:08Z</time>
      </trkpt>
      <trkpt lat="43.4287" lon="6.06236">
        <ele>305.79998779297</ele>
        <time>2016-04-20T14:57:10Z</time>
      </trkpt>
      <trkpt lat="43.4287" lon="6.06236">
        <ele>306</ele>
        <time>2016-04-20T14:57:12Z</time>
      </trkpt>
      <trkpt lat="43.42868" lon="6.06234">
        <ele>306</ele>
        <time>2016-04-20T14:57:14Z</time>
      </trkpt>
      <trkpt lat="43.42865" lon="6.06232">
        <ele>306</ele>
        <time>2016-04-20T14:57:16Z</time>
      </trkpt>
      <trkpt lat="43.42861" lon="6.06228">
        <ele>306</ele>
        <time>2016-04-20T14:57:18Z</time>
      </trkpt>
      <trkpt lat="43.42859" lon="6.06226">
        <ele>305.39999389648</ele>
        <time>2016-04-20T14:57:20Z</time>
      </trkpt>
      <trkpt lat="43.42857" lon="6.06225">
        <ele>305.20001220703</ele>
        <time>2016-04-20T14:57:21Z</time>
      </trkpt>
      <trkpt lat="43.42854" lon="6.06225">
        <ele>305.20001220703</ele>
        <time>2016-04-20T14:57:22Z</time>
      </trkpt>
      <trkpt lat="43.4285" lon="6.06226">
        <ele>304.79998779297</ele>
        <time>2016-04-20T14:57:24Z</time>
      </trkpt>
      <trkpt lat="43.42849" lon="6.06228">
        <ele>304.60000610352</ele>
        <time>2016-04-20T14:57:25Z</time>
      </trkpt>
      <trkpt lat="43.42847" lon="6.0623">
        <ele>304.20001220703</ele>
        <time>2016-04-20T14:57:26Z</time>
      </trkpt>
      <trkpt lat="43.42845" lon="6.06232">
        <ele>303.60000610352</ele>
        <time>2016-04-20T14:57:27Z</time>
      </trkpt>
      <trkpt lat="43.42843" lon="6.06233">
        <ele>303.20001220703</ele>
        <time>2016-04-20T14:57:28Z</time>
      </trkpt>
      <trkpt lat="43.42842" lon="6.06235">
        <ele>302.39999389648</ele>
        <time>2016-04-20T14:57:29Z</time>
      </trkpt>
      <trkpt lat="43.42841" lon="6.06238">
        <ele>301.79998779297</ele>
        <time>2016-04-20T14:57:30Z</time>
      </trkpt>
      <trkpt lat="43.42841" lon="6.06246">
        <ele>301.39999389648</ele>
        <time>2016-04-20T14:57:32Z</time>
      </trkpt>
      <trkpt lat="43.4284" lon="6.06253">
        <ele>300.79998779297</ele>
        <time>2016-04-20T14:57:34Z</time>
      </trkpt>
      <trkpt lat="43.4284" lon="6.06257">
        <ele>300.79998779297</ele>
        <time>2016-04-20T14:57:35Z</time>
      </trkpt>
      <trkpt lat="43.42841" lon="6.0626">
        <ele>300.60000610352</ele>
        <time>2016-04-20T14:57:36Z</time>
      </trkpt>
      <trkpt lat="43.42841" lon="6.06262">
        <ele>300.60000610352</ele>
        <time>2016-04-20T14:57:38Z</time>
      </trkpt>
      <trkpt lat="43.42841" lon="6.06264">
        <ele>300.60000610352</ele>
        <time>2016-04-20T14:57:39Z</time>
      </trkpt>
      <trkpt lat="43.42841" lon="6.06264">
        <ele>300.60000610352</ele>
        <time>2016-04-20T14:57:40Z</time>
      </trkpt>
      <trkpt lat="43.42841" lon="6.06267">
        <ele>300.79998779297</ele>
        <time>2016-04-20T14:57:42Z</time>
      </trkpt>
      <trkpt lat="43.42841" lon="6.06272">
        <ele>300.79998779297</ele>
        <time>2016-04-20T14:57:44Z</time>
      </trkpt>
      <trkpt lat="43.42841" lon="6.06277">
        <ele>300.79998779297</ele>
        <time>2016-04-20T14:57:46Z</time>
      </trkpt>
      <trkpt lat="43.42841" lon="6.06282">
        <ele>300.60000610352</ele>
        <time>2016-04-20T14:57:48Z</time>
      </trkpt>
      <trkpt lat="43.42841" lon="6.06288">
        <ele>300.20001220703</ele>
        <time>2016-04-20T14:57:50Z</time>
      </trkpt>
      <trkpt lat="43.42841" lon="6.0629">
        <ele>299.79998779297</ele>
        <time>2016-04-20T14:57:51Z</time>
      </trkpt>
      <trkpt lat="43.42841" lon="6.06292">
        <ele>299.79998779297</ele>
        <time>2016-04-20T14:57:52Z</time>
      </trkpt>
      <trkpt lat="43.42841" lon="6.06294">
        <ele>299.39999389648</ele>
        <time>2016-04-20T14:57:53Z</time>
      </trkpt>
      <trkpt lat="43.42841" lon="6.06296">
        <ele>299.20001220703</ele>
        <time>2016-04-20T14:57:54Z</time>
      </trkpt>
      <trkpt lat="43.42841" lon="6.06298">
        <ele>298.79998779297</ele>
        <time>2016-04-20T14:57:56Z</time>
      </trkpt>
      <trkpt lat="43.42841" lon="6.063">
        <ele>298.60000610352</ele>
        <time>2016-04-20T14:57:57Z</time>
      </trkpt>
      <trkpt lat="43.42841" lon="6.06301">
        <ele>298.60000610352</ele>
        <time>2016-04-20T14:57:58Z</time>
      </trkpt>
      <trkpt lat="43.42838" lon="6.06304">
        <ele>298.20001220703</ele>
        <time>2016-04-20T14:58:00Z</time>
      </trkpt>
      <trkpt lat="43.42836" lon="6.06305">
        <ele>298</ele>
        <time>2016-04-20T14:58:01Z</time>
      </trkpt>
      <trkpt lat="43.42834" lon="6.06304">
        <ele>297.79998779297</ele>
        <time>2016-04-20T14:58:02Z</time>
      </trkpt>
      <trkpt lat="43.4283" lon="6.06305">
        <ele>297.39999389648</ele>
        <time>2016-04-20T14:58:04Z</time>
      </trkpt>
      <trkpt lat="43.42828" lon="6.06307">
        <ele>297.20001220703</ele>
        <time>2016-04-20T14:58:06Z</time>
      </trkpt>
      <trkpt lat="43.42826" lon="6.06308">
        <ele>297.20001220703</ele>
        <time>2016-04-20T14:58:07Z</time>
      </trkpt>
      <trkpt lat="43.42825" lon="6.06309">
        <ele>296.79998779297</ele>
        <time>2016-04-20T14:58:08Z</time>
      </trkpt>
      <trkpt lat="43.42822" lon="6.0631">
        <ele>296.60000610352</ele>
        <time>2016-04-20T14:58:10Z</time>
      </trkpt>
      <trkpt lat="43.42822" lon="6.06311">
        <ele>296.60000610352</ele>
        <time>2016-04-20T14:58:11Z</time>
      </trkpt>
      <trkpt lat="43.42822" lon="6.06311">
        <ele>296.39999389648</ele>
        <time>2016-04-20T14:58:12Z</time>
      </trkpt>
      <trkpt lat="43.42821" lon="6.06311">
        <ele>296.39999389648</ele>
        <time>2016-04-20T14:58:14Z</time>
      </trkpt>
      <trkpt lat="43.42821" lon="6.06311">
        <ele>296.39999389648</ele>
        <time>2016-04-20T14:58:16Z</time>
      </trkpt>
      <trkpt lat="43.42822" lon="6.06311">
        <ele>296.20001220703</ele>
        <time>2016-04-20T14:58:18Z</time>
      </trkpt>
      <trkpt lat="43.42822" lon="6.06311">
        <ele>296.20001220703</ele>
        <time>2016-04-20T14:58:20Z</time>
      </trkpt>
      <trkpt lat="43.42822" lon="6.06311">
        <ele>296</ele>
        <time>2016-04-20T14:58:22Z</time>
      </trkpt>
      <trkpt lat="43.42822" lon="6.06311">
        <ele>296.20001220703</ele>
        <time>2016-04-20T14:58:24Z</time>
      </trkpt>
      <trkpt lat="43.42822" lon="6.06311">
        <ele>296.20001220703</ele>
        <time>2016-04-20T14:58:26Z</time>
      </trkpt>
      <trkpt lat="43.42822" lon="6.06311">
        <ele>296.20001220703</ele>
        <time>2016-04-20T14:58:28Z</time>
      </trkpt>
      <trkpt lat="43.42822" lon="6.06311">
        <ele>296.20001220703</ele>
        <time>2016-04-20T14:58:30Z</time>
      </trkpt>
      <trkpt lat="43.42821" lon="6.06311">
        <ele>296</ele>
        <time>2016-04-20T14:58:32Z</time>
      </trkpt>
      <trkpt lat="43.4282" lon="6.06312">
        <ele>296.20001220703</ele>
        <time>2016-04-20T14:58:34Z</time>
      </trkpt>
      <trkpt lat="43.42819" lon="6.06313">
        <ele>296</ele>
        <time>2016-04-20T14:58:35Z</time>
      </trkpt>
      <trkpt lat="43.42817" lon="6.06314">
        <ele>296</ele>
        <time>2016-04-20T14:58:36Z</time>
      </trkpt>
      <trkpt lat="43.42814" lon="6.06316">
        <ele>295.60000610352</ele>
        <time>2016-04-20T14:58:38Z</time>
      </trkpt>
      <trkpt lat="43.42813" lon="6.06317">
        <ele>295.39999389648</ele>
        <time>2016-04-20T14:58:39Z</time>
      </trkpt>
      <trkpt lat="43.4281" lon="6.06317">
        <ele>295</ele>
        <time>2016-04-20T14:58:40Z</time>
      </trkpt>
      <trkpt lat="43.42804" lon="6.06313">
        <ele>294.79998779297</ele>
        <time>2016-04-20T14:58:42Z</time>
      </trkpt>
      <trkpt lat="43.42801" lon="6.06313">
        <ele>294.39999389648</ele>
        <time>2016-04-20T14:58:43Z</time>
      </trkpt>
      <trkpt lat="43.42798" lon="6.06313">
        <ele>294.20001220703</ele>
        <time>2016-04-20T14:58:44Z</time>
      </trkpt>
      <trkpt lat="43.42792" lon="6.06311">
        <ele>293.79998779297</ele>
        <time>2016-04-20T14:58:46Z</time>
      </trkpt>
      <trkpt lat="43.42788" lon="6.06308">
        <ele>293.39999389648</ele>
        <time>2016-04-20T14:58:48Z</time>
      </trkpt>
      <trkpt lat="43.42783" lon="6.06306">
        <ele>293</ele>
        <time>2016-04-20T14:58:50Z</time>
      </trkpt>
      <trkpt lat="43.42776" lon="6.06306">
        <ele>292.79998779297</ele>
        <time>2016-04-20T14:58:52Z</time>
      </trkpt>
      <trkpt lat="43.42773" lon="6.06307">
        <ele>292.20001220703</ele>
        <time>2016-04-20T14:58:53Z</time>
      </trkpt>
      <trkpt lat="43.4277" lon="6.06307">
        <ele>292.20001220703</ele>
        <time>2016-04-20T14:58:54Z</time>
      </trkpt>
      <trkpt lat="43.42763" lon="6.06308">
        <ele>291.79998779297</ele>
        <time>2016-04-20T14:58:56Z</time>
      </trkpt>
      <trkpt lat="43.42756" lon="6.0631">
        <ele>291.20001220703</ele>
        <time>2016-04-20T14:58:58Z</time>
      </trkpt>
      <trkpt lat="43.42752" lon="6.06312">
        <ele>291</ele>
        <time>2016-04-20T14:58:59Z</time>
      </trkpt>
      <trkpt lat="43.42747" lon="6.06313">
        <ele>290.79998779297</ele>
        <time>2016-04-20T14:59:00Z</time>
      </trkpt>
      <trkpt lat="43.42739" lon="6.06317">
        <ele>290.20001220703</ele>
        <time>2016-04-20T14:59:02Z</time>
      </trkpt>
      <trkpt lat="43.42733" lon="6.06323">
        <ele>290</ele>
        <time>2016-04-20T14:59:04Z</time>
      </trkpt>
      <trkpt lat="43.4273" lon="6.06326">
        <ele>289.79998779297</ele>
        <time>2016-04-20T14:59:05Z</time>
      </trkpt>
      <trkpt lat="43.42728" lon="6.06329">
        <ele>289.60000610352</ele>
        <time>2016-04-20T14:59:06Z</time>
      </trkpt>
      <trkpt lat="43.42726" lon="6.0633">
        <ele>289.39999389648</ele>
        <time>2016-04-20T14:59:07Z</time>
      </trkpt>
      <trkpt lat="43.42724" lon="6.06332">
        <ele>289.20001220703</ele>
        <time>2016-04-20T14:59:08Z</time>
      </trkpt>
      <trkpt lat="43.42722" lon="6.06332">
        <ele>289.20001220703</ele>
        <time>2016-04-20T14:59:09Z</time>
      </trkpt>
      <trkpt lat="43.4272" lon="6.06332">
        <ele>289</ele>
        <time>2016-04-20T14:59:10Z</time>
      </trkpt>
      <trkpt lat="43.42716" lon="6.06332">
        <ele>289</ele>
        <time>2016-04-20T14:59:12Z</time>
      </trkpt>
      <trkpt lat="43.42712" lon="6.06335">
        <ele>289</ele>
        <time>2016-04-20T14:59:14Z</time>
      </trkpt>
      <trkpt lat="43.42709" lon="6.06336">
        <ele>289.20001220703</ele>
        <time>2016-04-20T14:59:16Z</time>
      </trkpt>
      <trkpt lat="43.42707" lon="6.06336">
        <ele>289.20001220703</ele>
        <time>2016-04-20T14:59:17Z</time>
      </trkpt>
      <trkpt lat="43.42706" lon="6.06336">
        <ele>289.20001220703</ele>
        <time>2016-04-20T14:59:18Z</time>
      </trkpt>
      <trkpt lat="43.42703" lon="6.06336">
        <ele>289.20001220703</ele>
        <time>2016-04-20T14:59:20Z</time>
      </trkpt>
      <trkpt lat="43.42701" lon="6.06336">
        <ele>289.20001220703</ele>
        <time>2016-04-20T14:59:22Z</time>
      </trkpt>
      <trkpt lat="43.427" lon="6.06335">
        <ele>289.20001220703</ele>
        <time>2016-04-20T14:59:24Z</time>
      </trkpt>
      <trkpt lat="43.42699" lon="6.06334">
        <ele>289</ele>
        <time>2016-04-20T14:59:25Z</time>
      </trkpt>
      <trkpt lat="43.42699" lon="6.06333">
        <ele>289.39999389648</ele>
        <time>2016-04-20T14:59:26Z</time>
      </trkpt>
      <trkpt lat="43.42699" lon="6.06333">
        <ele>289.20001220703</ele>
        <time>2016-04-20T14:59:28Z</time>
      </trkpt>
      <trkpt lat="43.42699" lon="6.06333">
        <ele>289.20001220703</ele>
        <time>2016-04-20T14:59:30Z</time>
      </trkpt>
      <trkpt lat="43.42699" lon="6.06333">
        <ele>289.39999389648</ele>
        <time>2016-04-20T14:59:31Z</time>
      </trkpt>
      <trkpt lat="43.42699" lon="6.06333">
        <ele>289.39999389648</ele>
        <time>2016-04-20T14:59:32Z</time>
      </trkpt>
      <trkpt lat="43.42699" lon="6.06333">
        <ele>289.39999389648</ele>
        <time>2016-04-20T14:59:34Z</time>
      </trkpt>
      <trkpt lat="43.42698" lon="6.06332">
        <ele>289.60000610352</ele>
        <time>2016-04-20T14:59:36Z</time>
      </trkpt>
      <trkpt lat="43.42694" lon="6.06329">
        <ele>289.60000610352</ele>
        <time>2016-04-20T14:59:38Z</time>
      </trkpt>
      <trkpt lat="43.42691" lon="6.06328">
        <ele>289.60000610352</ele>
        <time>2016-04-20T14:59:39Z</time>
      </trkpt>
      <trkpt lat="43.42687" lon="6.06327">
        <ele>289</ele>
        <time>2016-04-20T14:59:40Z</time>
      </trkpt>
      <trkpt lat="43.42684" lon="6.06326">
        <ele>288.79998779297</ele>
        <time>2016-04-20T14:59:41Z</time>
      </trkpt>
      <trkpt lat="43.4268" lon="6.06326">
        <ele>288.39999389648</ele>
        <time>2016-04-20T14:59:42Z</time>
      </trkpt>
      <trkpt lat="43.42675" lon="6.06325">
        <ele>288</ele>
        <time>2016-04-20T14:59:43Z</time>
      </trkpt>
      <trkpt lat="43.42671" lon="6.06324">
        <ele>287.79998779297</ele>
        <time>2016-04-20T14:59:44Z</time>
      </trkpt>
      <trkpt lat="43.42664" lon="6.06322">
        <ele>287.60000610352</ele>
        <time>2016-04-20T14:59:46Z</time>
      </trkpt>
      <trkpt lat="43.42657" lon="6.0632">
        <ele>286.79998779297</ele>
        <time>2016-04-20T14:59:48Z</time>
      </trkpt>
      <trkpt lat="43.42653" lon="6.06318">
        <ele>286.60000610352</ele>
        <time>2016-04-20T14:59:49Z</time>
      </trkpt>
      <trkpt lat="43.4265" lon="6.06318">
        <ele>286.39999389648</ele>
        <time>2016-04-20T14:59:50Z</time>
      </trkpt>
      <trkpt lat="43.42644" lon="6.06315">
        <ele>285.79998779297</ele>
        <time>2016-04-20T14:59:52Z</time>
      </trkpt>
      <trkpt lat="43.42641" lon="6.06313">
        <ele>285.79998779297</ele>
        <time>2016-04-20T14:59:53Z</time>
      </trkpt>
      <trkpt lat="43.42638" lon="6.06312">
        <ele>285.79998779297</ele>
        <time>2016-04-20T14:59:54Z</time>
      </trkpt>
      <trkpt lat="43.42632" lon="6.06308">
        <ele>285.60000610352</ele>
        <time>2016-04-20T14:59:56Z</time>
      </trkpt>
      <trkpt lat="43.42629" lon="6.06307">
        <ele>285.60000610352</ele>
        <time>2016-04-20T14:59:57Z</time>
      </trkpt>
      <trkpt lat="43.42626" lon="6.06306">
        <ele>285</ele>
        <time>2016-04-20T14:59:58Z</time>
      </trkpt>
      <trkpt lat="43.42619" lon="6.06307">
        <ele>284.60000610352</ele>
        <time>2016-04-20T15:00:00Z</time>
      </trkpt>
      <trkpt lat="43.42616" lon="6.06307">
        <ele>284.39999389648</ele>
        <time>2016-04-20T15:00:01Z</time>
      </trkpt>
      <trkpt lat="43.42613" lon="6.06308">
        <ele>284.20001220703</ele>
        <time>2016-04-20T15:00:02Z</time>
      </trkpt>
      <trkpt lat="43.42607" lon="6.06312">
        <ele>283.79998779297</ele>
        <time>2016-04-20T15:00:04Z</time>
      </trkpt>
      <trkpt lat="43.42601" lon="6.06318">
        <ele>283.60000610352</ele>
        <time>2016-04-20T15:00:06Z</time>
      </trkpt>
      <trkpt lat="43.42595" lon="6.06324">
        <ele>283.20001220703</ele>
        <time>2016-04-20T15:00:08Z</time>
      </trkpt>
      <trkpt lat="43.42589" lon="6.0633">
        <ele>283.20001220703</ele>
        <time>2016-04-20T15:00:10Z</time>
      </trkpt>
      <trkpt lat="43.42587" lon="6.06332">
        <ele>282.39999389648</ele>
        <time>2016-04-20T15:00:11Z</time>
      </trkpt>
      <trkpt lat="43.42584" lon="6.06334">
        <ele>282.20001220703</ele>
        <time>2016-04-20T15:00:12Z</time>
      </trkpt>
      <trkpt lat="43.42578" lon="6.06339">
        <ele>282</ele>
        <time>2016-04-20T15:00:14Z</time>
      </trkpt>
      <trkpt lat="43.42574" lon="6.06341">
        <ele>281.79998779297</ele>
        <time>2016-04-20T15:00:15Z</time>
      </trkpt>
      <trkpt lat="43.4257" lon="6.06343">
        <ele>281.39999389648</ele>
        <time>2016-04-20T15:00:16Z</time>
      </trkpt>
      <trkpt lat="43.42562" lon="6.06347">
        <ele>281.20001220703</ele>
        <time>2016-04-20T15:00:18Z</time>
      </trkpt>
      <trkpt lat="43.42553" lon="6.06351">
        <ele>280.39999389648</ele>
        <time>2016-04-20T15:00:20Z</time>
      </trkpt>
      <trkpt lat="43.42549" lon="6.06353">
        <ele>280.20001220703</ele>
        <time>2016-04-20T15:00:21Z</time>
      </trkpt>
      <trkpt lat="43.42545" lon="6.06354">
        <ele>280</ele>
        <time>2016-04-20T15:00:22Z</time>
      </trkpt>
      <trkpt lat="43.42536" lon="6.06357">
        <ele>279.60000610352</ele>
        <time>2016-04-20T15:00:24Z</time>
      </trkpt>
      <trkpt lat="43.42529" lon="6.06359">
        <ele>278.79998779297</ele>
        <time>2016-04-20T15:00:26Z</time>
      </trkpt>
      <trkpt lat="43.42525" lon="6.06361">
        <ele>278.60000610352</ele>
        <time>2016-04-20T15:00:27Z</time>
      </trkpt>
      <trkpt lat="43.42521" lon="6.06363">
        <ele>278.39999389648</ele>
        <time>2016-04-20T15:00:28Z</time>
      </trkpt>
      <trkpt lat="43.42513" lon="6.06368">
        <ele>278</ele>
        <time>2016-04-20T15:00:30Z</time>
      </trkpt>
      <trkpt lat="43.42504" lon="6.06372">
        <ele>277.79998779297</ele>
        <time>2016-04-20T15:00:32Z</time>
      </trkpt>
      <trkpt lat="43.425" lon="6.06372">
        <ele>277.60000610352</ele>
        <time>2016-04-20T15:00:33Z</time>
      </trkpt>
      <trkpt lat="43.42495" lon="6.06372">
        <ele>277.39999389648</ele>
        <time>2016-04-20T15:00:34Z</time>
      </trkpt>
      <trkpt lat="43.42491" lon="6.06372">
        <ele>277.39999389648</ele>
        <time>2016-04-20T15:00:35Z</time>
      </trkpt>
      <trkpt lat="43.42486" lon="6.06372">
        <ele>277</ele>
        <time>2016-04-20T15:00:36Z</time>
      </trkpt>
      <trkpt lat="43.42477" lon="6.06373">
        <ele>276.60000610352</ele>
        <time>2016-04-20T15:00:38Z</time>
      </trkpt>
      <trkpt lat="43.42472" lon="6.06375">
        <ele>276.39999389648</ele>
        <time>2016-04-20T15:00:39Z</time>
      </trkpt>
      <trkpt lat="43.42467" lon="6.06376">
        <ele>276</ele>
        <time>2016-04-20T15:00:40Z</time>
      </trkpt>
      <trkpt lat="43.42463" lon="6.06378">
        <ele>276</ele>
        <time>2016-04-20T15:00:41Z</time>
      </trkpt>
      <trkpt lat="43.42459" lon="6.06381">
        <ele>275.79998779297</ele>
        <time>2016-04-20T15:00:42Z</time>
      </trkpt>
      <trkpt lat="43.42452" lon="6.06388">
        <ele>275.60000610352</ele>
        <time>2016-04-20T15:00:44Z</time>
      </trkpt>
      <trkpt lat="43.42444" lon="6.06394">
        <ele>276</ele>
        <time>2016-04-20T15:00:46Z</time>
      </trkpt>
      <trkpt lat="43.42437" lon="6.06399">
        <ele>275.60000610352</ele>
        <time>2016-04-20T15:00:48Z</time>
      </trkpt>
      <trkpt lat="43.42431" lon="6.06401">
        <ele>275.60000610352</ele>
        <time>2016-04-20T15:00:50Z</time>
      </trkpt>
      <trkpt lat="43.42426" lon="6.06401">
        <ele>275.39999389648</ele>
        <time>2016-04-20T15:00:52Z</time>
      </trkpt>
      <trkpt lat="43.42418" lon="6.06399">
        <ele>275.39999389648</ele>
        <time>2016-04-20T15:00:54Z</time>
      </trkpt>
      <trkpt lat="43.42414" lon="6.06398">
        <ele>275.39999389648</ele>
        <time>2016-04-20T15:00:55Z</time>
      </trkpt>
      <trkpt lat="43.4241" lon="6.06396">
        <ele>275.39999389648</ele>
        <time>2016-04-20T15:00:56Z</time>
      </trkpt>
      <trkpt lat="43.42404" lon="6.06396">
        <ele>275.20001220703</ele>
        <time>2016-04-20T15:00:57Z</time>
      </trkpt>
      <trkpt lat="43.42398" lon="6.06396">
        <ele>275</ele>
        <time>2016-04-20T15:00:58Z</time>
      </trkpt>
      <trkpt lat="43.42393" lon="6.06396">
        <ele>274.79998779297</ele>
        <time>2016-04-20T15:00:59Z</time>
      </trkpt>
      <trkpt lat="43.42388" lon="6.06399">
        <ele>274.39999389648</ele>
        <time>2016-04-20T15:01:00Z</time>
      </trkpt>
      <trkpt lat="43.42383" lon="6.06403">
        <ele>274</ele>
        <time>2016-04-20T15:01:01Z</time>
      </trkpt>
      <trkpt lat="43.42378" lon="6.06408">
        <ele>273.60000610352</ele>
        <time>2016-04-20T15:01:02Z</time>
      </trkpt>
      <trkpt lat="43.42369" lon="6.06417">
        <ele>273.39999389648</ele>
        <time>2016-04-20T15:01:04Z</time>
      </trkpt>
      <trkpt lat="43.42365" lon="6.0642">
        <ele>273.20001220703</ele>
        <time>2016-04-20T15:01:05Z</time>
      </trkpt>
      <trkpt lat="43.42361" lon="6.06423">
        <ele>273.20001220703</ele>
        <time>2016-04-20T15:01:06Z</time>
      </trkpt>
      <trkpt lat="43.42357" lon="6.06426">
        <ele>273.20001220703</ele>
        <time>2016-04-20T15:01:07Z</time>
      </trkpt>
      <trkpt lat="43.42353" lon="6.06429">
        <ele>273.20001220703</ele>
        <time>2016-04-20T15:01:08Z</time>
      </trkpt>
      <trkpt lat="43.42345" lon="6.06434">
        <ele>273</ele>
        <time>2016-04-20T15:01:10Z</time>
      </trkpt>
      <trkpt lat="43.42338" lon="6.0644">
        <ele>273</ele>
        <time>2016-04-20T15:01:12Z</time>
      </trkpt>
      <trkpt lat="43.42334" lon="6.06444">
        <ele>272.79998779297</ele>
        <time>2016-04-20T15:01:13Z</time>
      </trkpt>
      <trkpt lat="43.4233" lon="6.06449">
        <ele>272.79998779297</ele>
        <time>2016-04-20T15:01:14Z</time>
      </trkpt>
      <trkpt lat="43.42321" lon="6.06459">
        <ele>272.20001220703</ele>
        <time>2016-04-20T15:01:16Z</time>
      </trkpt>
      <trkpt lat="43.42311" lon="6.06471">
        <ele>272</ele>
        <time>2016-04-20T15:01:18Z</time>
      </trkpt>
      <trkpt lat="43.42307" lon="6.06477">
        <ele>271.39999389648</ele>
        <time>2016-04-20T15:01:19Z</time>
      </trkpt>
      <trkpt lat="43.42303" lon="6.06483">
        <ele>271</ele>
        <time>2016-04-20T15:01:20Z</time>
      </trkpt>
      <trkpt lat="43.423" lon="6.06488">
        <ele>270.60000610352</ele>
        <time>2016-04-20T15:01:21Z</time>
      </trkpt>
      <trkpt lat="43.42296" lon="6.06493">
        <ele>270.20001220703</ele>
        <time>2016-04-20T15:01:22Z</time>
      </trkpt>
      <trkpt lat="43.42292" lon="6.06497">
        <ele>269.60000610352</ele>
        <time>2016-04-20T15:01:23Z</time>
      </trkpt>
      <trkpt lat="43.42287" lon="6.065">
        <ele>269</ele>
        <time>2016-04-20T15:01:24Z</time>
      </trkpt>
      <trkpt lat="43.42282" lon="6.06503">
        <ele>268.79998779297</ele>
        <time>2016-04-20T15:01:25Z</time>
      </trkpt>
      <trkpt lat="43.42278" lon="6.06506">
        <ele>268.39999389648</ele>
        <time>2016-04-20T15:01:26Z</time>
      </trkpt>
      <trkpt lat="43.42269" lon="6.06508">
        <ele>267.60000610352</ele>
        <time>2016-04-20T15:01:28Z</time>
      </trkpt>
      <trkpt lat="43.42258" lon="6.06507">
        <ele>267</ele>
        <time>2016-04-20T15:01:30Z</time>
      </trkpt>
      <trkpt lat="43.42252" lon="6.06506">
        <ele>267</ele>
        <time>2016-04-20T15:01:31Z</time>
      </trkpt>
      <trkpt lat="43.42247" lon="6.06505">
        <ele>266.60000610352</ele>
        <time>2016-04-20T15:01:32Z</time>
      </trkpt>
      <trkpt lat="43.42236" lon="6.06503">
        <ele>265.79998779297</ele>
        <time>2016-04-20T15:01:34Z</time>
      </trkpt>
      <trkpt lat="43.42231" lon="6.06502">
        <ele>265.79998779297</ele>
        <time>2016-04-20T15:01:35Z</time>
      </trkpt>
      <trkpt lat="43.42227" lon="6.06502">
        <ele>265.39999389648</ele>
        <time>2016-04-20T15:01:36Z</time>
      </trkpt>
      <trkpt lat="43.42223" lon="6.06502">
        <ele>265</ele>
        <time>2016-04-20T15:01:37Z</time>
      </trkpt>
      <trkpt lat="43.4222" lon="6.06503">
        <ele>264.79998779297</ele>
        <time>2016-04-20T15:01:38Z</time>
      </trkpt>
      <trkpt lat="43.42216" lon="6.06504">
        <ele>264.20001220703</ele>
        <time>2016-04-20T15:01:39Z</time>
      </trkpt>
      <trkpt lat="43.42212" lon="6.06504">
        <ele>263.60000610352</ele>
        <time>2016-04-20T15:01:40Z</time>
      </trkpt>
      <trkpt lat="43.42209" lon="6.06503">
        <ele>263.39999389648</ele>
        <time>2016-04-20T15:01:41Z</time>
      </trkpt>
      <trkpt lat="43.42207" lon="6.06499">
        <ele>263.20001220703</ele>
        <time>2016-04-20T15:01:42Z</time>
      </trkpt>
      <trkpt lat="43.42206" lon="6.06495">
        <ele>263</ele>
        <time>2016-04-20T15:01:43Z</time>
      </trkpt>
      <trkpt lat="43.42206" lon="6.06491">
        <ele>263</ele>
        <time>2016-04-20T15:01:44Z</time>
      </trkpt>
      <trkpt lat="43.42205" lon="6.06487">
        <ele>263</ele>
        <time>2016-04-20T15:01:45Z</time>
      </trkpt>
      <trkpt lat="43.42204" lon="6.06484">
        <ele>262.79998779297</ele>
        <time>2016-04-20T15:01:46Z</time>
      </trkpt>
      <trkpt lat="43.42202" lon="6.06476">
        <ele>262.79998779297</ele>
        <time>2016-04-20T15:01:48Z</time>
      </trkpt>
      <trkpt lat="43.422" lon="6.06468">
        <ele>262.79998779297</ele>
        <time>2016-04-20T15:01:50Z</time>
      </trkpt>
      <trkpt lat="43.42199" lon="6.06464">
        <ele>263</ele>
        <time>2016-04-20T15:01:51Z</time>
      </trkpt>
      <trkpt lat="43.42198" lon="6.06459">
        <ele>262.79998779297</ele>
        <time>2016-04-20T15:01:52Z</time>
      </trkpt>
      <trkpt lat="43.42195" lon="6.0645">
        <ele>262.79998779297</ele>
        <time>2016-04-20T15:01:54Z</time>
      </trkpt>
      <trkpt lat="43.42193" lon="6.06439">
        <ele>262.79998779297</ele>
        <time>2016-04-20T15:01:56Z</time>
      </trkpt>
      <trkpt lat="43.42192" lon="6.06433">
        <ele>263</ele>
        <time>2016-04-20T15:01:57Z</time>
      </trkpt>
      <trkpt lat="43.42191" lon="6.06426">
        <ele>262.79998779297</ele>
        <time>2016-04-20T15:01:58Z</time>
      </trkpt>
      <trkpt lat="43.42188" lon="6.06413">
        <ele>262.79998779297</ele>
        <time>2016-04-20T15:02:00Z</time>
      </trkpt>
      <trkpt lat="43.42185" lon="6.06401">
        <ele>262.79998779297</ele>
        <time>2016-04-20T15:02:02Z</time>
      </trkpt>
      <trkpt lat="43.42182" lon="6.06388">
        <ele>263</ele>
        <time>2016-04-20T15:02:04Z</time>
      </trkpt>
      <trkpt lat="43.42181" lon="6.06382">
        <ele>263</ele>
        <time>2016-04-20T15:02:05Z</time>
      </trkpt>
      <trkpt lat="43.42179" lon="6.06375">
        <ele>262.79998779297</ele>
        <time>2016-04-20T15:02:06Z</time>
      </trkpt>
      <trkpt lat="43.42176" lon="6.06364">
        <ele>262.60000610352</ele>
        <time>2016-04-20T15:02:08Z</time>
      </trkpt>
      <trkpt lat="43.42174" lon="6.06352">
        <ele>262.79998779297</ele>
        <time>2016-04-20T15:02:10Z</time>
      </trkpt>
      <trkpt lat="43.42172" lon="6.06347">
        <ele>262.79998779297</ele>
        <time>2016-04-20T15:02:11Z</time>
      </trkpt>
      <trkpt lat="43.42171" lon="6.06341">
        <ele>262.79998779297</ele>
        <time>2016-04-20T15:02:12Z</time>
      </trkpt>
      <trkpt lat="43.4217" lon="6.06329">
        <ele>263</ele>
        <time>2016-04-20T15:02:14Z</time>
      </trkpt>
      <trkpt lat="43.42168" lon="6.06318">
        <ele>263.20001220703</ele>
        <time>2016-04-20T15:02:16Z</time>
      </trkpt>
      <trkpt lat="43.42168" lon="6.06313">
        <ele>263.20001220703</ele>
        <time>2016-04-20T15:02:17Z</time>
      </trkpt>
      <trkpt lat="43.42167" lon="6.06309">
        <ele>263.60000610352</ele>
        <time>2016-04-20T15:02:18Z</time>
      </trkpt>
      <trkpt lat="43.42166" lon="6.06301">
        <ele>264.20001220703</ele>
        <time>2016-04-20T15:02:20Z</time>
      </trkpt>
      <trkpt lat="43.42165" lon="6.0629">
        <ele>264.60000610352</ele>
        <time>2016-04-20T15:02:22Z</time>
      </trkpt>
      <trkpt lat="43.42164" lon="6.06281">
        <ele>265.20001220703</ele>
        <time>2016-04-20T15:02:24Z</time>
      </trkpt>
      <trkpt lat="43.42164" lon="6.06276">
        <ele>265.60000610352</ele>
        <time>2016-04-20T15:02:25Z</time>
      </trkpt>
      <trkpt lat="43.42164" lon="6.06271">
        <ele>265.79998779297</ele>
        <time>2016-04-20T15:02:26Z</time>
      </trkpt>
      <trkpt lat="43.42164" lon="6.0626">
        <ele>266.39999389648</ele>
        <time>2016-04-20T15:02:28Z</time>
      </trkpt>
      <trkpt lat="43.42163" lon="6.06255">
        <ele>266.60000610352</ele>
        <time>2016-04-20T15:02:29Z</time>
      </trkpt>
      <trkpt lat="43.42163" lon="6.0625">
        <ele>266.79998779297</ele>
        <time>2016-04-20T15:02:30Z</time>
      </trkpt>
      <trkpt lat="43.42162" lon="6.06241">
        <ele>267.39999389648</ele>
        <time>2016-04-20T15:02:32Z</time>
      </trkpt>
      <trkpt lat="43.42162" lon="6.06237">
        <ele>267.60000610352</ele>
        <time>2016-04-20T15:02:33Z</time>
      </trkpt>
      <trkpt lat="43.42162" lon="6.06233">
        <ele>268</ele>
        <time>2016-04-20T15:02:34Z</time>
      </trkpt>
      <trkpt lat="43.42158" lon="6.06227">
        <ele>268.39999389648</ele>
        <time>2016-04-20T15:02:36Z</time>
      </trkpt>
      <trkpt lat="43.42154" lon="6.06225">
        <ele>268.79998779297</ele>
        <time>2016-04-20T15:02:38Z</time>
      </trkpt>
      <trkpt lat="43.4215" lon="6.06223">
        <ele>269</ele>
        <time>2016-04-20T15:02:40Z</time>
      </trkpt>
      <trkpt lat="43.42146" lon="6.06222">
        <ele>269</ele>
        <time>2016-04-20T15:02:42Z</time>
      </trkpt>
      <trkpt lat="43.42144" lon="6.06221">
        <ele>269</ele>
        <time>2016-04-20T15:02:44Z</time>
      </trkpt>
      <trkpt lat="43.42144" lon="6.06222">
        <ele>269.20001220703</ele>
        <time>2016-04-20T15:02:46Z</time>
      </trkpt>
      <trkpt lat="43.42144" lon="6.06222">
        <ele>269.20001220703</ele>
        <time>2016-04-20T15:02:48Z</time>
      </trkpt>
      <trkpt lat="43.42144" lon="6.06222">
        <ele>269</ele>
        <time>2016-04-20T15:02:50Z</time>
      </trkpt>
      <trkpt lat="43.42144" lon="6.06222">
        <ele>269</ele>
        <time>2016-04-20T15:02:52Z</time>
      </trkpt>
      <trkpt lat="43.42144" lon="6.06222">
        <ele>269</ele>
        <time>2016-04-20T15:02:54Z</time>
      </trkpt>
      <trkpt lat="43.42144" lon="6.06222">
        <ele>269</ele>
        <time>2016-04-20T15:02:56Z</time>
      </trkpt>
      <trkpt lat="43.42144" lon="6.06222">
        <ele>269.20001220703</ele>
        <time>2016-04-20T15:02:58Z</time>
      </trkpt>
      <trkpt lat="43.42144" lon="6.06222">
        <ele>269.20001220703</ele>
        <time>2016-04-20T15:03:00Z</time>
      </trkpt>
      <trkpt lat="43.42144" lon="6.06222">
        <ele>269.20001220703</ele>
        <time>2016-04-20T15:03:02Z</time>
      </trkpt>
      <trkpt lat="43.42144" lon="6.06222">
        <ele>269</ele>
        <time>2016-04-20T15:03:04Z</time>
      </trkpt>
      <trkpt lat="43.42144" lon="6.06222">
        <ele>269</ele>
        <time>2016-04-20T15:03:06Z</time>
      </trkpt>
      <trkpt lat="43.42144" lon="6.06222">
        <ele>269</ele>
        <time>2016-04-20T15:03:08Z</time>
      </trkpt>
      <trkpt lat="43.42144" lon="6.06222">
        <ele>269</ele>
        <time>2016-04-20T15:03:10Z</time>
      </trkpt>
      <trkpt lat="43.42144" lon="6.06222">
        <ele>269</ele>
        <time>2016-04-20T15:03:12Z</time>
      </trkpt>
      <trkpt lat="43.42144" lon="6.06222">
        <ele>269</ele>
        <time>2016-04-20T15:03:14Z</time>
      </trkpt>
      <trkpt lat="43.42142" lon="6.06222">
        <ele>269</ele>
        <time>2016-04-20T15:03:16Z</time>
      </trkpt>
      <trkpt lat="43.42139" lon="6.06224">
        <ele>269.20001220703</ele>
        <time>2016-04-20T15:03:18Z</time>
      </trkpt>
      <trkpt lat="43.42136" lon="6.06224">
        <ele>269</ele>
        <time>2016-04-20T15:03:19Z</time>
      </trkpt>
      <trkpt lat="43.42134" lon="6.06225">
        <ele>268.79998779297</ele>
        <time>2016-04-20T15:03:20Z</time>
      </trkpt>
      <trkpt lat="43.42128" lon="6.06227">
        <ele>268.79998779297</ele>
        <time>2016-04-20T15:03:22Z</time>
      </trkpt>
      <trkpt lat="43.42124" lon="6.06228">
        <ele>268.39999389648</ele>
        <time>2016-04-20T15:03:24Z</time>
      </trkpt>
      <trkpt lat="43.42121" lon="6.06228">
        <ele>268</ele>
        <time>2016-04-20T15:03:26Z</time>
      </trkpt>
      <trkpt lat="43.42117" lon="6.0623">
        <ele>267.60000610352</ele>
        <time>2016-04-20T15:03:28Z</time>
      </trkpt>
      <trkpt lat="43.42114" lon="6.06231">
        <ele>267.60000610352</ele>
        <time>2016-04-20T15:03:30Z</time>
      </trkpt>
      <trkpt lat="43.42112" lon="6.06232">
        <ele>267.60000610352</ele>
        <time>2016-04-20T15:03:31Z</time>
      </trkpt>
      <trkpt lat="43.4211" lon="6.06232">
        <ele>267.39999389648</ele>
        <time>2016-04-20T15:03:32Z</time>
      </trkpt>
      <trkpt lat="43.42105" lon="6.06234">
        <ele>267.20001220703</ele>
        <time>2016-04-20T15:03:34Z</time>
      </trkpt>
      <trkpt lat="43.42099" lon="6.06236">
        <ele>267</ele>
        <time>2016-04-20T15:03:36Z</time>
      </trkpt>
      <trkpt lat="43.42094" lon="6.06238">
        <ele>266.79998779297</ele>
        <time>2016-04-20T15:03:38Z</time>
      </trkpt>
      <trkpt lat="43.4209" lon="6.06239">
        <ele>266.20001220703</ele>
        <time>2016-04-20T15:03:40Z</time>
      </trkpt>
      <trkpt lat="43.42089" lon="6.0624">
        <ele>266</ele>
        <time>2016-04-20T15:03:41Z</time>
      </trkpt>
      <trkpt lat="43.42087" lon="6.06241">
        <ele>265.60000610352</ele>
        <time>2016-04-20T15:03:42Z</time>
      </trkpt>
      <trkpt lat="43.42085" lon="6.06241">
        <ele>265.39999389648</ele>
        <time>2016-04-20T15:03:44Z</time>
      </trkpt>
      <trkpt lat="43.42084" lon="6.06241">
        <ele>265.20001220703</ele>
        <time>2016-04-20T15:03:45Z</time>
      </trkpt>
      <trkpt lat="43.42082" lon="6.06242">
        <ele>265</ele>
        <time>2016-04-20T15:03:46Z</time>
      </trkpt>
      <trkpt lat="43.42079" lon="6.06242">
        <ele>264.79998779297</ele>
        <time>2016-04-20T15:03:47Z</time>
      </trkpt>
      <trkpt lat="43.42074" lon="6.06242">
        <ele>264.60000610352</ele>
        <time>2016-04-20T15:03:48Z</time>
      </trkpt>
      <trkpt lat="43.42069" lon="6.06243">
        <ele>264.39999389648</ele>
        <time>2016-04-20T15:03:49Z</time>
      </trkpt>
      <trkpt lat="43.42062" lon="6.06245">
        <ele>264</ele>
        <time>2016-04-20T15:03:50Z</time>
      </trkpt>
      <trkpt lat="43.42056" lon="6.06247">
        <ele>263.60000610352</ele>
        <time>2016-04-20T15:03:51Z</time>
      </trkpt>
      <trkpt lat="43.42048" lon="6.06249">
        <ele>263</ele>
        <time>2016-04-20T15:03:52Z</time>
      </trkpt>
      <trkpt lat="43.4204" lon="6.06252">
        <ele>262</ele>
        <time>2016-04-20T15:03:53Z</time>
      </trkpt>
      <trkpt lat="43.42032" lon="6.06255">
        <ele>261.20001220703</ele>
        <time>2016-04-20T15:03:54Z</time>
      </trkpt>
      <trkpt lat="43.42023" lon="6.06258">
        <ele>260.39999389648</ele>
        <time>2016-04-20T15:03:55Z</time>
      </trkpt>
      <trkpt lat="43.42014" lon="6.06262">
        <ele>259.60000610352</ele>
        <time>2016-04-20T15:03:56Z</time>
      </trkpt>
      <trkpt lat="43.42004" lon="6.06266">
        <ele>258.20001220703</ele>
        <time>2016-04-20T15:03:57Z</time>
      </trkpt>
      <trkpt lat="43.41996" lon="6.06269">
        <ele>257.39999389648</ele>
        <time>2016-04-20T15:03:58Z</time>
      </trkpt>
      <trkpt lat="43.41989" lon="6.06271">
        <ele>256.39999389648</ele>
        <time>2016-04-20T15:03:59Z</time>
      </trkpt>
      <trkpt lat="43.41982" lon="6.06273">
        <ele>255.60000610352</ele>
        <time>2016-04-20T15:04:00Z</time>
      </trkpt>
      <trkpt lat="43.41975" lon="6.06275">
        <ele>254.80000305176</ele>
        <time>2016-04-20T15:04:01Z</time>
      </trkpt>
      <trkpt lat="43.41967" lon="6.06277">
        <ele>254.19999694824</ele>
        <time>2016-04-20T15:04:02Z</time>
      </trkpt>
      <trkpt lat="43.4196" lon="6.06279">
        <ele>253.39999389648</ele>
        <time>2016-04-20T15:04:03Z</time>
      </trkpt>
      <trkpt lat="43.41953" lon="6.06281">
        <ele>252.39999389648</ele>
        <time>2016-04-20T15:04:04Z</time>
      </trkpt>
      <trkpt lat="43.41947" lon="6.06284">
        <ele>251.39999389648</ele>
        <time>2016-04-20T15:04:05Z</time>
      </trkpt>
      <trkpt lat="43.41941" lon="6.06286">
        <ele>251.19999694824</ele>
        <time>2016-04-20T15:04:06Z</time>
      </trkpt>
      <trkpt lat="43.41928" lon="6.0629">
        <ele>250.39999389648</ele>
        <time>2016-04-20T15:04:08Z</time>
      </trkpt>
      <trkpt lat="43.41922" lon="6.06291">
        <ele>250.19999694824</ele>
        <time>2016-04-20T15:04:09Z</time>
      </trkpt>
      <trkpt lat="43.41915" lon="6.06292">
        <ele>249.60000610352</ele>
        <time>2016-04-20T15:04:10Z</time>
      </trkpt>
      <trkpt lat="43.41902" lon="6.06293">
        <ele>248.39999389648</ele>
        <time>2016-04-20T15:04:12Z</time>
      </trkpt>
      <trkpt lat="43.41888" lon="6.06293">
        <ele>247.80000305176</ele>
        <time>2016-04-20T15:04:14Z</time>
      </trkpt>
      <trkpt lat="43.41874" lon="6.06292">
        <ele>247.39999389648</ele>
        <time>2016-04-20T15:04:16Z</time>
      </trkpt>
      <trkpt lat="43.41866" lon="6.06291">
        <ele>247</ele>
        <time>2016-04-20T15:04:17Z</time>
      </trkpt>
      <trkpt lat="43.41859" lon="6.0629">
        <ele>246.60000610352</ele>
        <time>2016-04-20T15:04:18Z</time>
      </trkpt>
      <trkpt lat="43.41846" lon="6.0629">
        <ele>245.80000305176</ele>
        <time>2016-04-20T15:04:20Z</time>
      </trkpt>
      <trkpt lat="43.41833" lon="6.0629">
        <ele>245</ele>
        <time>2016-04-20T15:04:22Z</time>
      </trkpt>
      <trkpt lat="43.41827" lon="6.0629">
        <ele>244.60000610352</ele>
        <time>2016-04-20T15:04:23Z</time>
      </trkpt>
      <trkpt lat="43.41821" lon="6.0629">
        <ele>244.39999389648</ele>
        <time>2016-04-20T15:04:24Z</time>
      </trkpt>
      <trkpt lat="43.41815" lon="6.0629">
        <ele>244</ele>
        <time>2016-04-20T15:04:25Z</time>
      </trkpt>
      <trkpt lat="43.41809" lon="6.06288">
        <ele>243.80000305176</ele>
        <time>2016-04-20T15:04:26Z</time>
      </trkpt>
      <trkpt lat="43.41804" lon="6.06286">
        <ele>243.60000610352</ele>
        <time>2016-04-20T15:04:27Z</time>
      </trkpt>
      <trkpt lat="43.418" lon="6.06283">
        <ele>243.19999694824</ele>
        <time>2016-04-20T15:04:28Z</time>
      </trkpt>
      <trkpt lat="43.41791" lon="6.06274">
        <ele>242.19999694824</ele>
        <time>2016-04-20T15:04:30Z</time>
      </trkpt>
      <trkpt lat="43.41782" lon="6.06266">
        <ele>241.39999389648</ele>
        <time>2016-04-20T15:04:32Z</time>
      </trkpt>
      <trkpt lat="43.41776" lon="6.06263">
        <ele>241</ele>
        <time>2016-04-20T15:04:33Z</time>
      </trkpt>
      <trkpt lat="43.41771" lon="6.0626">
        <ele>240.80000305176</ele>
        <time>2016-04-20T15:04:34Z</time>
      </trkpt>
      <trkpt lat="43.41766" lon="6.06258">
        <ele>240.80000305176</ele>
        <time>2016-04-20T15:04:35Z</time>
      </trkpt>
      <trkpt lat="43.41761" lon="6.06256">
        <ele>240.60000610352</ele>
        <time>2016-04-20T15:04:36Z</time>
      </trkpt>
      <trkpt lat="43.41751" lon="6.06253">
        <ele>240.19999694824</ele>
        <time>2016-04-20T15:04:38Z</time>
      </trkpt>
      <trkpt lat="43.41747" lon="6.06251">
        <ele>239.80000305176</ele>
        <time>2016-04-20T15:04:39Z</time>
      </trkpt>
      <trkpt lat="43.41741" lon="6.0625">
        <ele>239.60000610352</ele>
        <time>2016-04-20T15:04:40Z</time>
      </trkpt>
      <trkpt lat="43.41729" lon="6.06249">
        <ele>239.39999389648</ele>
        <time>2016-04-20T15:04:42Z</time>
      </trkpt>
      <trkpt lat="43.41723" lon="6.06249">
        <ele>239</ele>
        <time>2016-04-20T15:04:43Z</time>
      </trkpt>
      <trkpt lat="43.41717" lon="6.06249">
        <ele>238.60000610352</ele>
        <time>2016-04-20T15:04:44Z</time>
      </trkpt>
      <trkpt lat="43.41706" lon="6.06249">
        <ele>238</ele>
        <time>2016-04-20T15:04:46Z</time>
      </trkpt>
      <trkpt lat="43.41695" lon="6.06249">
        <ele>237.60000610352</ele>
        <time>2016-04-20T15:04:48Z</time>
      </trkpt>
      <trkpt lat="43.41685" lon="6.06248">
        <ele>237.80000305176</ele>
        <time>2016-04-20T15:04:50Z</time>
      </trkpt>
      <trkpt lat="43.41675" lon="6.06247">
        <ele>237.60000610352</ele>
        <time>2016-04-20T15:04:52Z</time>
      </trkpt>
      <trkpt lat="43.4167" lon="6.06246">
        <ele>237.39999389648</ele>
        <time>2016-04-20T15:04:53Z</time>
      </trkpt>
      <trkpt lat="43.41666" lon="6.06245">
        <ele>237.19999694824</ele>
        <time>2016-04-20T15:04:54Z</time>
      </trkpt>
      <trkpt lat="43.41656" lon="6.06243">
        <ele>237</ele>
        <time>2016-04-20T15:04:56Z</time>
      </trkpt>
      <trkpt lat="43.41652" lon="6.06242">
        <ele>237.19999694824</ele>
        <time>2016-04-20T15:04:57Z</time>
      </trkpt>
      <trkpt lat="43.41648" lon="6.0624">
        <ele>237.19999694824</ele>
        <time>2016-04-20T15:04:58Z</time>
      </trkpt>
      <trkpt lat="43.4164" lon="6.06237">
        <ele>237.19999694824</ele>
        <time>2016-04-20T15:05:00Z</time>
      </trkpt>
      <trkpt lat="43.41631" lon="6.06234">
        <ele>236.80000305176</ele>
        <time>2016-04-20T15:05:02Z</time>
      </trkpt>
      <trkpt lat="43.41627" lon="6.06232">
        <ele>236.60000610352</ele>
        <time>2016-04-20T15:05:03Z</time>
      </trkpt>
      <trkpt lat="43.41623" lon="6.06232">
        <ele>236.39999389648</ele>
        <time>2016-04-20T15:05:04Z</time>
      </trkpt>
      <trkpt lat="43.41618" lon="6.06233">
        <ele>236.19999694824</ele>
        <time>2016-04-20T15:05:06Z</time>
      </trkpt>
      <trkpt lat="43.41616" lon="6.06233">
        <ele>236</ele>
        <time>2016-04-20T15:05:07Z</time>
      </trkpt>
      <trkpt lat="43.41613" lon="6.06234">
        <ele>235.80000305176</ele>
        <time>2016-04-20T15:05:08Z</time>
      </trkpt>
      <trkpt lat="43.4161" lon="6.06235">
        <ele>235.19999694824</ele>
        <time>2016-04-20T15:05:10Z</time>
      </trkpt>
      <trkpt lat="43.41608" lon="6.06234">
        <ele>234.80000305176</ele>
        <time>2016-04-20T15:05:11Z</time>
      </trkpt>
      <trkpt lat="43.41607" lon="6.06234">
        <ele>234.39999389648</ele>
        <time>2016-04-20T15:05:12Z</time>
      </trkpt>
      <trkpt lat="43.41607" lon="6.06235">
        <ele>234.19999694824</ele>
        <time>2016-04-20T15:05:14Z</time>
      </trkpt>
      <trkpt lat="43.41607" lon="6.06235">
        <ele>234</ele>
        <time>2016-04-20T15:05:16Z</time>
      </trkpt>
      <trkpt lat="43.41607" lon="6.06235">
        <ele>234</ele>
        <time>2016-04-20T15:05:17Z</time>
      </trkpt>
      <trkpt lat="43.41607" lon="6.06235">
        <ele>234</ele>
        <time>2016-04-20T15:05:20Z</time>
      </trkpt>
      <trkpt lat="43.41607" lon="6.06235">
        <ele>234.19999694824</ele>
        <time>2016-04-20T15:05:22Z</time>
      </trkpt>
      <trkpt lat="43.41607" lon="6.06235">
        <ele>234.19999694824</ele>
        <time>2016-04-20T15:05:24Z</time>
      </trkpt>
      <trkpt lat="43.41607" lon="6.06235">
        <ele>234</ele>
        <time>2016-04-20T15:05:26Z</time>
      </trkpt>
      <trkpt lat="43.41607" lon="6.06235">
        <ele>234</ele>
        <time>2016-04-20T15:05:28Z</time>
      </trkpt>
      <trkpt lat="43.41607" lon="6.06235">
        <ele>234</ele>
        <time>2016-04-20T15:05:30Z</time>
      </trkpt>
      <trkpt lat="43.41607" lon="6.06235">
        <ele>234</ele>
        <time>2016-04-20T15:05:32Z</time>
      </trkpt>
      <trkpt lat="43.41607" lon="6.06235">
        <ele>234.19999694824</ele>
        <time>2016-04-20T15:05:33Z</time>
      </trkpt>
      <trkpt lat="43.41607" lon="6.06235">
        <ele>234.39999389648</ele>
        <time>2016-04-20T15:05:34Z</time>
      </trkpt>
      <trkpt lat="43.41607" lon="6.06235">
        <ele>234.60000610352</ele>
        <time>2016-04-20T15:05:36Z</time>
      </trkpt>
      <trkpt lat="43.41607" lon="6.06235">
        <ele>234.60000610352</ele>
        <time>2016-04-20T15:05:38Z</time>
      </trkpt>
      <trkpt lat="43.41607" lon="6.06235">
        <ele>234.39999389648</ele>
        <time>2016-04-20T15:05:40Z</time>
      </trkpt>
      <trkpt lat="43.41607" lon="6.06235">
        <ele>234.19999694824</ele>
        <time>2016-04-20T15:05:42Z</time>
      </trkpt>
      <trkpt lat="43.41607" lon="6.06235">
        <ele>234.19999694824</ele>
        <time>2016-04-20T15:05:44Z</time>
      </trkpt>
      <trkpt lat="43.41607" lon="6.06235">
        <ele>234.19999694824</ele>
        <time>2016-04-20T15:05:46Z</time>
      </trkpt>
      <trkpt lat="43.41607" lon="6.06235">
        <ele>234.19999694824</ele>
        <time>2016-04-20T15:05:48Z</time>
      </trkpt>
      <trkpt lat="43.41607" lon="6.06235">
        <ele>234.39999389648</ele>
        <time>2016-04-20T15:05:50Z</time>
      </trkpt>
      <trkpt lat="43.41607" lon="6.06235">
        <ele>234.39999389648</ele>
        <time>2016-04-20T15:05:52Z</time>
      </trkpt>
      <trkpt lat="43.41607" lon="6.06235">
        <ele>234.19999694824</ele>
        <time>2016-04-20T15:05:54Z</time>
      </trkpt>
      <trkpt lat="43.41607" lon="6.06235">
        <ele>234.19999694824</ele>
        <time>2016-04-20T15:05:56Z</time>
      </trkpt>
      <trkpt lat="43.41607" lon="6.06235">
        <ele>234.39999389648</ele>
        <time>2016-04-20T15:05:58Z</time>
      </trkpt>
      <trkpt lat="43.41607" lon="6.06235">
        <ele>234.19999694824</ele>
        <time>2016-04-20T15:06:00Z</time>
      </trkpt>
      <trkpt lat="43.41607" lon="6.06235">
        <ele>234.19999694824</ele>
        <time>2016-04-20T15:06:02Z</time>
      </trkpt>
      <trkpt lat="43.41607" lon="6.06235">
        <ele>234</ele>
        <time>2016-04-20T15:06:04Z</time>
      </trkpt>
      <trkpt lat="43.41607" lon="6.06235">
        <ele>234</ele>
        <time>2016-04-20T15:06:06Z</time>
      </trkpt>
      <trkpt lat="43.41607" lon="6.06235">
        <ele>234.19999694824</ele>
        <time>2016-04-20T15:06:08Z</time>
      </trkpt>
      <trkpt lat="43.41607" lon="6.06235">
        <ele>234.39999389648</ele>
        <time>2016-04-20T15:06:10Z</time>
      </trkpt>
      <trkpt lat="43.41607" lon="6.06235">
        <ele>234.39999389648</ele>
        <time>2016-04-20T15:06:12Z</time>
      </trkpt>
      <trkpt lat="43.41607" lon="6.06235">
        <ele>234.39999389648</ele>
        <time>2016-04-20T15:06:14Z</time>
      </trkpt>
      <trkpt lat="43.41607" lon="6.06235">
        <ele>234</ele>
        <time>2016-04-20T15:06:16Z</time>
      </trkpt>
      <trkpt lat="43.41607" lon="6.06235">
        <ele>234</ele>
        <time>2016-04-20T15:06:18Z</time>
      </trkpt>
      <trkpt lat="43.41607" lon="6.06235">
        <ele>234.19999694824</ele>
        <time>2016-04-20T15:06:20Z</time>
      </trkpt>
      <trkpt lat="43.41607" lon="6.06235">
        <ele>234.19999694824</ele>
        <time>2016-04-20T15:06:22Z</time>
      </trkpt>
      <trkpt lat="43.41605" lon="6.06237">
        <ele>234.19999694824</ele>
        <time>2016-04-20T15:06:24Z</time>
      </trkpt>
      <trkpt lat="43.41604" lon="6.06239">
        <ele>234.19999694824</ele>
        <time>2016-04-20T15:06:25Z</time>
      </trkpt>
      <trkpt lat="43.41603" lon="6.06241">
        <ele>234.19999694824</ele>
        <time>2016-04-20T15:06:26Z</time>
      </trkpt>
      <trkpt lat="43.41602" lon="6.06247">
        <ele>234.39999389648</ele>
        <time>2016-04-20T15:06:28Z</time>
      </trkpt>
      <trkpt lat="43.416" lon="6.06254">
        <ele>234.39999389648</ele>
        <time>2016-04-20T15:06:30Z</time>
      </trkpt>
      <trkpt lat="43.41597" lon="6.06258">
        <ele>234.39999389648</ele>
        <time>2016-04-20T15:06:32Z</time>
      </trkpt>
      <trkpt lat="43.41593" lon="6.06262">
        <ele>234.39999389648</ele>
        <time>2016-04-20T15:06:34Z</time>
      </trkpt>
      <trkpt lat="43.4159" lon="6.06265">
        <ele>234.39999389648</ele>
        <time>2016-04-20T15:06:35Z</time>
      </trkpt>
      <trkpt lat="43.41588" lon="6.06268">
        <ele>234.19999694824</ele>
        <time>2016-04-20T15:06:36Z</time>
      </trkpt>
      <trkpt lat="43.41584" lon="6.06276">
        <ele>234</ele>
        <time>2016-04-20T15:06:38Z</time>
      </trkpt>
      <trkpt lat="43.41583" lon="6.06281">
        <ele>233.80000305176</ele>
        <time>2016-04-20T15:06:39Z</time>
      </trkpt>
      <trkpt lat="43.41583" lon="6.06286">
        <ele>233.60000610352</ele>
        <time>2016-04-20T15:06:40Z</time>
      </trkpt>
      <trkpt lat="43.41584" lon="6.06297">
        <ele>233.60000610352</ele>
        <time>2016-04-20T15:06:42Z</time>
      </trkpt>
      <trkpt lat="43.41585" lon="6.06303">
        <ele>233.39999389648</ele>
        <time>2016-04-20T15:06:43Z</time>
      </trkpt>
      <trkpt lat="43.41584" lon="6.06309">
        <ele>233.39999389648</ele>
        <time>2016-04-20T15:06:44Z</time>
      </trkpt>
      <trkpt lat="43.4158" lon="6.0632">
        <ele>233</ele>
        <time>2016-04-20T15:06:46Z</time>
      </trkpt>
      <trkpt lat="43.41576" lon="6.06325">
        <ele>232.80000305176</ele>
        <time>2016-04-20T15:06:47Z</time>
      </trkpt>
      <trkpt lat="43.41573" lon="6.06331">
        <ele>232.39999389648</ele>
        <time>2016-04-20T15:06:48Z</time>
      </trkpt>
      <trkpt lat="43.41569" lon="6.06337">
        <ele>232</ele>
        <time>2016-04-20T15:06:49Z</time>
      </trkpt>
      <trkpt lat="43.41565" lon="6.06344">
        <ele>231.80000305176</ele>
        <time>2016-04-20T15:06:50Z</time>
      </trkpt>
      <trkpt lat="43.41558" lon="6.06358">
        <ele>231.39999389648</ele>
        <time>2016-04-20T15:06:52Z</time>
      </trkpt>
      <trkpt lat="43.41554" lon="6.06376">
        <ele>231</ele>
        <time>2016-04-20T15:06:54Z</time>
      </trkpt>
      <trkpt lat="43.4155" lon="6.06395">
        <ele>230</ele>
        <time>2016-04-20T15:06:56Z</time>
      </trkpt>
      <trkpt lat="43.41549" lon="6.06406">
        <ele>229.60000610352</ele>
        <time>2016-04-20T15:06:57Z</time>
      </trkpt>
      <trkpt lat="43.41547" lon="6.06416">
        <ele>229.39999389648</ele>
        <time>2016-04-20T15:06:58Z</time>
      </trkpt>
      <trkpt lat="43.41544" lon="6.06435">
        <ele>228.39999389648</ele>
        <time>2016-04-20T15:07:00Z</time>
      </trkpt>
      <trkpt lat="43.41543" lon="6.06441">
        <ele>227.39999389648</ele>
        <time>2016-04-20T15:07:01Z</time>
      </trkpt>
      <trkpt lat="43.41543" lon="6.06447">
        <ele>226.60000610352</ele>
        <time>2016-04-20T15:07:02Z</time>
      </trkpt>
      <trkpt lat="43.41543" lon="6.06452">
        <ele>226.19999694824</ele>
        <time>2016-04-20T15:07:03Z</time>
      </trkpt>
      <trkpt lat="43.41544" lon="6.06455">
        <ele>225.80000305176</ele>
        <time>2016-04-20T15:07:04Z</time>
      </trkpt>
      <trkpt lat="43.41544" lon="6.06457">
        <ele>225.60000610352</ele>
        <time>2016-04-20T15:07:05Z</time>
      </trkpt>
      <trkpt lat="43.41545" lon="6.06459">
        <ele>225.60000610352</ele>
        <time>2016-04-20T15:07:06Z</time>
      </trkpt>
      <trkpt lat="43.41544" lon="6.06461">
        <ele>225.60000610352</ele>
        <time>2016-04-20T15:07:07Z</time>
      </trkpt>
      <trkpt lat="43.41544" lon="6.06463">
        <ele>225.39999389648</ele>
        <time>2016-04-20T15:07:08Z</time>
      </trkpt>
      <trkpt lat="43.41542" lon="6.06464">
        <ele>225.19999694824</ele>
        <time>2016-04-20T15:07:09Z</time>
      </trkpt>
      <trkpt lat="43.41541" lon="6.06466">
        <ele>225.19999694824</ele>
        <time>2016-04-20T15:07:10Z</time>
      </trkpt>
      <trkpt lat="43.41539" lon="6.06466">
        <ele>225.19999694824</ele>
        <time>2016-04-20T15:07:11Z</time>
      </trkpt>
      <trkpt lat="43.41537" lon="6.06468">
        <ele>225.19999694824</ele>
        <time>2016-04-20T15:07:12Z</time>
      </trkpt>
      <trkpt lat="43.41534" lon="6.06471">
        <ele>225</ele>
        <time>2016-04-20T15:07:13Z</time>
      </trkpt>
      <trkpt lat="43.41532" lon="6.06476">
        <ele>224.60000610352</ele>
        <time>2016-04-20T15:07:14Z</time>
      </trkpt>
      <trkpt lat="43.41529" lon="6.06488">
        <ele>223.60000610352</ele>
        <time>2016-04-20T15:07:16Z</time>
      </trkpt>
      <trkpt lat="43.41528" lon="6.06493">
        <ele>223.39999389648</ele>
        <time>2016-04-20T15:07:17Z</time>
      </trkpt>
      <trkpt lat="43.41527" lon="6.06499">
        <ele>223.39999389648</ele>
        <time>2016-04-20T15:07:18Z</time>
      </trkpt>
      <trkpt lat="43.41524" lon="6.06508">
        <ele>223.39999389648</ele>
        <time>2016-04-20T15:07:20Z</time>
      </trkpt>
      <trkpt lat="43.41523" lon="6.06518">
        <ele>223.80000305176</ele>
        <time>2016-04-20T15:07:22Z</time>
      </trkpt>
      <trkpt lat="43.41521" lon="6.06529">
        <ele>224</ele>
        <time>2016-04-20T15:07:24Z</time>
      </trkpt>
      <trkpt lat="43.41518" lon="6.06541">
        <ele>224.19999694824</ele>
        <time>2016-04-20T15:07:26Z</time>
      </trkpt>
      <trkpt lat="43.41516" lon="6.06552">
        <ele>224.19999694824</ele>
        <time>2016-04-20T15:07:28Z</time>
      </trkpt>
      <trkpt lat="43.41515" lon="6.06564">
        <ele>224.19999694824</ele>
        <time>2016-04-20T15:07:30Z</time>
      </trkpt>
      <trkpt lat="43.41512" lon="6.06577">
        <ele>224.19999694824</ele>
        <time>2016-04-20T15:07:32Z</time>
      </trkpt>
      <trkpt lat="43.4151" lon="6.06593">
        <ele>224.19999694824</ele>
        <time>2016-04-20T15:07:34Z</time>
      </trkpt>
      <trkpt lat="43.41508" lon="6.06601">
        <ele>223.80000305176</ele>
        <time>2016-04-20T15:07:35Z</time>
      </trkpt>
      <trkpt lat="43.41507" lon="6.06608">
        <ele>223.60000610352</ele>
        <time>2016-04-20T15:07:36Z</time>
      </trkpt>
      <trkpt lat="43.41505" lon="6.06623">
        <ele>223.19999694824</ele>
        <time>2016-04-20T15:07:38Z</time>
      </trkpt>
      <trkpt lat="43.41503" lon="6.06637">
        <ele>223.39999389648</ele>
        <time>2016-04-20T15:07:40Z</time>
      </trkpt>
      <trkpt lat="43.415" lon="6.06653">
        <ele>223.39999389648</ele>
        <time>2016-04-20T15:07:42Z</time>
      </trkpt>
      <trkpt lat="43.41497" lon="6.06668">
        <ele>223.60000610352</ele>
        <time>2016-04-20T15:07:44Z</time>
      </trkpt>
      <trkpt lat="43.41496" lon="6.06684">
        <ele>223.39999389648</ele>
        <time>2016-04-20T15:07:46Z</time>
      </trkpt>
      <trkpt lat="43.41495" lon="6.06692">
        <ele>223</ele>
        <time>2016-04-20T15:07:47Z</time>
      </trkpt>
      <trkpt lat="43.41495" lon="6.067">
        <ele>223</ele>
        <time>2016-04-20T15:07:48Z</time>
      </trkpt>
      <trkpt lat="43.41495" lon="6.06708">
        <ele>222.80000305176</ele>
        <time>2016-04-20T15:07:49Z</time>
      </trkpt>
      <trkpt lat="43.41495" lon="6.06716">
        <ele>223</ele>
        <time>2016-04-20T15:07:50Z</time>
      </trkpt>
      <trkpt lat="43.41494" lon="6.06732">
        <ele>222.80000305176</ele>
        <time>2016-04-20T15:07:52Z</time>
      </trkpt>
      <trkpt lat="43.41493" lon="6.06748">
        <ele>222.39999389648</ele>
        <time>2016-04-20T15:07:54Z</time>
      </trkpt>
      <trkpt lat="43.41491" lon="6.06765">
        <ele>222.19999694824</ele>
        <time>2016-04-20T15:07:56Z</time>
      </trkpt>
      <trkpt lat="43.41489" lon="6.06774">
        <ele>222.19999694824</ele>
        <time>2016-04-20T15:07:57Z</time>
      </trkpt>
      <trkpt lat="43.41488" lon="6.06782">
        <ele>222</ele>
        <time>2016-04-20T15:07:58Z</time>
      </trkpt>
      <trkpt lat="43.41485" lon="6.06799">
        <ele>221.39999389648</ele>
        <time>2016-04-20T15:08:00Z</time>
      </trkpt>
      <trkpt lat="43.41482" lon="6.06815">
        <ele>221</ele>
        <time>2016-04-20T15:08:02Z</time>
      </trkpt>
      <trkpt lat="43.4148" lon="6.06823">
        <ele>221</ele>
        <time>2016-04-20T15:08:03Z</time>
      </trkpt>
      <trkpt lat="43.41478" lon="6.0683">
        <ele>220.80000305176</ele>
        <time>2016-04-20T15:08:04Z</time>
      </trkpt>
      <trkpt lat="43.41476" lon="6.06837">
        <ele>220.80000305176</ele>
        <time>2016-04-20T15:08:05Z</time>
      </trkpt>
      <trkpt lat="43.41476" lon="6.06843">
        <ele>220.80000305176</ele>
        <time>2016-04-20T15:08:06Z</time>
      </trkpt>
      <trkpt lat="43.41475" lon="6.06849">
        <ele>220.60000610352</ele>
        <time>2016-04-20T15:08:07Z</time>
      </trkpt>
      <trkpt lat="43.41474" lon="6.06854">
        <ele>220.60000610352</ele>
        <time>2016-04-20T15:08:08Z</time>
      </trkpt>
      <trkpt lat="43.41473" lon="6.06863">
        <ele>220.60000610352</ele>
        <time>2016-04-20T15:08:10Z</time>
      </trkpt>
      <trkpt lat="43.41474" lon="6.06871">
        <ele>220.60000610352</ele>
        <time>2016-04-20T15:08:12Z</time>
      </trkpt>
      <trkpt lat="43.41474" lon="6.06878">
        <ele>220.60000610352</ele>
        <time>2016-04-20T15:08:14Z</time>
      </trkpt>
      <trkpt lat="43.41474" lon="6.06883">
        <ele>220.80000305176</ele>
        <time>2016-04-20T15:08:16Z</time>
      </trkpt>
      <trkpt lat="43.41474" lon="6.06883">
        <ele>220.60000610352</ele>
        <time>2016-04-20T15:08:17Z</time>
      </trkpt>
      <trkpt lat="43.41473" lon="6.06884">
        <ele>220.60000610352</ele>
        <time>2016-04-20T15:08:18Z</time>
      </trkpt>
      <trkpt lat="43.41473" lon="6.06886">
        <ele>220.39999389648</ele>
        <time>2016-04-20T15:08:20Z</time>
      </trkpt>
      <trkpt lat="43.41473" lon="6.06886">
        <ele>220.39999389648</ele>
        <time>2016-04-20T15:08:22Z</time>
      </trkpt>
      <trkpt lat="43.41473" lon="6.06886">
        <ele>220.19999694824</ele>
        <time>2016-04-20T15:08:24Z</time>
      </trkpt>
      <trkpt lat="43.41473" lon="6.06886">
        <ele>220.60000610352</ele>
        <time>2016-04-20T15:08:26Z</time>
      </trkpt>
      <trkpt lat="43.41473" lon="6.06886">
        <ele>220.60000610352</ele>
        <time>2016-04-20T15:08:28Z</time>
      </trkpt>
      <trkpt lat="43.41473" lon="6.06886">
        <ele>220.60000610352</ele>
        <time>2016-04-20T15:08:29Z</time>
      </trkpt>
      <trkpt lat="43.41473" lon="6.06886">
        <ele>220.80000305176</ele>
        <time>2016-04-20T15:08:30Z</time>
      </trkpt>
      <trkpt lat="43.41473" lon="6.06887">
        <ele>220.80000305176</ele>
        <time>2016-04-20T15:08:31Z</time>
      </trkpt>
      <trkpt lat="43.41474" lon="6.06889">
        <ele>220.80000305176</ele>
        <time>2016-04-20T15:08:32Z</time>
      </trkpt>
      <trkpt lat="43.41474" lon="6.06892">
        <ele>221</ele>
        <time>2016-04-20T15:08:33Z</time>
      </trkpt>
      <trkpt lat="43.41475" lon="6.06895">
        <ele>221</ele>
        <time>2016-04-20T15:08:34Z</time>
      </trkpt>
      <trkpt lat="43.41475" lon="6.06902">
        <ele>221</ele>
        <time>2016-04-20T15:08:36Z</time>
      </trkpt>
      <trkpt lat="43.41474" lon="6.0691">
        <ele>221</ele>
        <time>2016-04-20T15:08:38Z</time>
      </trkpt>
      <trkpt lat="43.41471" lon="6.06916">
        <ele>221</ele>
        <time>2016-04-20T15:08:40Z</time>
      </trkpt>
      <trkpt lat="43.41469" lon="6.06922">
        <ele>221</ele>
        <time>2016-04-20T15:08:42Z</time>
      </trkpt>
      <trkpt lat="43.41468" lon="6.06927">
        <ele>221</ele>
        <time>2016-04-20T15:08:44Z</time>
      </trkpt>
      <trkpt lat="43.41467" lon="6.0693">
        <ele>220.80000305176</ele>
        <time>2016-04-20T15:08:45Z</time>
      </trkpt>
      <trkpt lat="43.41468" lon="6.06932">
        <ele>220.80000305176</ele>
        <time>2016-04-20T15:08:46Z</time>
      </trkpt>
      <trkpt lat="43.41471" lon="6.06937">
        <ele>220.80000305176</ele>
        <time>2016-04-20T15:08:48Z</time>
      </trkpt>
      <trkpt lat="43.41475" lon="6.06943">
        <ele>220.60000610352</ele>
        <time>2016-04-20T15:08:50Z</time>
      </trkpt>
      <trkpt lat="43.41478" lon="6.06945">
        <ele>220.60000610352</ele>
        <time>2016-04-20T15:08:51Z</time>
      </trkpt>
      <trkpt lat="43.41479" lon="6.06947">
        <ele>220.39999389648</ele>
        <time>2016-04-20T15:08:52Z</time>
      </trkpt>
      <trkpt lat="43.41483" lon="6.06953">
        <ele>220.19999694824</ele>
        <time>2016-04-20T15:08:54Z</time>
      </trkpt>
      <trkpt lat="43.41487" lon="6.06959">
        <ele>220.19999694824</ele>
        <time>2016-04-20T15:08:56Z</time>
      </trkpt>
      <trkpt lat="43.41491" lon="6.06962">
        <ele>220</ele>
        <time>2016-04-20T15:08:58Z</time>
      </trkpt>
      <trkpt lat="43.41496" lon="6.06965">
        <ele>219.80000305176</ele>
        <time>2016-04-20T15:09:00Z</time>
      </trkpt>
      <trkpt lat="43.41497" lon="6.06967">
        <ele>219.80000305176</ele>
        <time>2016-04-20T15:09:01Z</time>
      </trkpt>
      <trkpt lat="43.41499" lon="6.06968">
        <ele>220</ele>
        <time>2016-04-20T15:09:02Z</time>
      </trkpt>
      <trkpt lat="43.41503" lon="6.06972">
        <ele>220.19999694824</ele>
        <time>2016-04-20T15:09:04Z</time>
      </trkpt>
      <trkpt lat="43.41507" lon="6.06974">
        <ele>220.19999694824</ele>
        <time>2016-04-20T15:09:06Z</time>
      </trkpt>
      <trkpt lat="43.4151" lon="6.06975">
        <ele>220.19999694824</ele>
        <time>2016-04-20T15:09:07Z</time>
      </trkpt>
      <trkpt lat="43.41513" lon="6.06974">
        <ele>220.19999694824</ele>
        <time>2016-04-20T15:09:08Z</time>
      </trkpt>
      <trkpt lat="43.4152" lon="6.06974">
        <ele>220.39999389648</ele>
        <time>2016-04-20T15:09:10Z</time>
      </trkpt>
      <trkpt lat="43.41524" lon="6.06974">
        <ele>220.39999389648</ele>
        <time>2016-04-20T15:09:11Z</time>
      </trkpt>
      <trkpt lat="43.41528" lon="6.06973">
        <ele>220.39999389648</ele>
        <time>2016-04-20T15:09:12Z</time>
      </trkpt>
      <trkpt lat="43.41536" lon="6.06972">
        <ele>220.19999694824</ele>
        <time>2016-04-20T15:09:14Z</time>
      </trkpt>
      <trkpt lat="43.41544" lon="6.06971">
        <ele>220</ele>
        <time>2016-04-20T15:09:16Z</time>
      </trkpt>
      <trkpt lat="43.41551" lon="6.0697">
        <ele>220.19999694824</ele>
        <time>2016-04-20T15:09:18Z</time>
      </trkpt>
      <trkpt lat="43.41555" lon="6.06969">
        <ele>220.39999389648</ele>
        <time>2016-04-20T15:09:19Z</time>
      </trkpt>
      <trkpt lat="43.41558" lon="6.06968">
        <ele>220.39999389648</ele>
        <time>2016-04-20T15:09:20Z</time>
      </trkpt>
      <trkpt lat="43.41564" lon="6.06967">
        <ele>220.60000610352</ele>
        <time>2016-04-20T15:09:22Z</time>
      </trkpt>
      <trkpt lat="43.41568" lon="6.06967">
        <ele>221</ele>
        <time>2016-04-20T15:09:24Z</time>
      </trkpt>
      <trkpt lat="43.4157" lon="6.06969">
        <ele>221</ele>
        <time>2016-04-20T15:09:25Z</time>
      </trkpt>
      <trkpt lat="43.41571" lon="6.06971">
        <ele>221</ele>
        <time>2016-04-20T15:09:26Z</time>
      </trkpt>
      <trkpt lat="43.41571" lon="6.06975">
        <ele>221.19999694824</ele>
        <time>2016-04-20T15:09:28Z</time>
      </trkpt>
      <trkpt lat="43.41572" lon="6.06976">
        <ele>221</ele>
        <time>2016-04-20T15:09:30Z</time>
      </trkpt>
      <trkpt lat="43.41572" lon="6.06975">
        <ele>220.80000305176</ele>
        <time>2016-04-20T15:09:32Z</time>
      </trkpt>
      <trkpt lat="43.41572" lon="6.06974">
        <ele>220.60000610352</ele>
        <time>2016-04-20T15:09:34Z</time>
      </trkpt>
      <trkpt lat="43.41572" lon="6.06974">
        <ele>220.60000610352</ele>
        <time>2016-04-20T15:09:36Z</time>
      </trkpt>
      <trkpt lat="43.41572" lon="6.06974">
        <ele>220.39999389648</ele>
        <time>2016-04-20T15:09:38Z</time>
      </trkpt>
      <trkpt lat="43.41572" lon="6.06974">
        <ele>220.39999389648</ele>
        <time>2016-04-20T15:09:40Z</time>
      </trkpt>
      <trkpt lat="43.41572" lon="6.06974">
        <ele>220.39999389648</ele>
        <time>2016-04-20T15:09:42Z</time>
      </trkpt>
      <trkpt lat="43.41572" lon="6.06974">
        <ele>220.39999389648</ele>
        <time>2016-04-20T15:09:44Z</time>
      </trkpt>
      <trkpt lat="43.41572" lon="6.06974">
        <ele>220.39999389648</ele>
        <time>2016-04-20T15:09:46Z</time>
      </trkpt>
      <trkpt lat="43.41572" lon="6.06974">
        <ele>220.39999389648</ele>
        <time>2016-04-20T15:09:48Z</time>
      </trkpt>
      <trkpt lat="43.41572" lon="6.06974">
        <ele>220.39999389648</ele>
        <time>2016-04-20T15:09:50Z</time>
      </trkpt>
      <trkpt lat="43.41572" lon="6.06974">
        <ele>220.39999389648</ele>
        <time>2016-04-20T15:09:52Z</time>
      </trkpt>
      <trkpt lat="43.41573" lon="6.06974">
        <ele>220.60000610352</ele>
        <time>2016-04-20T15:09:54Z</time>
      </trkpt>
      <trkpt lat="43.41573" lon="6.06974">
        <ele>220.39999389648</ele>
        <time>2016-04-20T15:09:56Z</time>
      </trkpt>
      <trkpt lat="43.41573" lon="6.06974">
        <ele>220.39999389648</ele>
        <time>2016-04-20T15:09:58Z</time>
      </trkpt>
      <trkpt lat="43.41573" lon="6.06974">
        <ele>220.39999389648</ele>
        <time>2016-04-20T15:10:00Z</time>
      </trkpt>
      <trkpt lat="43.41573" lon="6.06974">
        <ele>220.39999389648</ele>
        <time>2016-04-20T15:10:02Z</time>
      </trkpt>
      <trkpt lat="43.41573" lon="6.06974">
        <ele>220.39999389648</ele>
        <time>2016-04-20T15:10:04Z</time>
      </trkpt>
      <trkpt lat="43.41573" lon="6.06974">
        <ele>220.60000610352</ele>
        <time>2016-04-20T15:10:06Z</time>
      </trkpt>
      <trkpt lat="43.41573" lon="6.06974">
        <ele>220.60000610352</ele>
        <time>2016-04-20T15:10:08Z</time>
      </trkpt>
      <trkpt lat="43.41573" lon="6.06974">
        <ele>220.39999389648</ele>
        <time>2016-04-20T15:10:10Z</time>
      </trkpt>
      <trkpt lat="43.41573" lon="6.06974">
        <ele>220.39999389648</ele>
        <time>2016-04-20T15:10:12Z</time>
      </trkpt>
      <trkpt lat="43.41573" lon="6.06974">
        <ele>220.39999389648</ele>
        <time>2016-04-20T15:10:14Z</time>
      </trkpt>
      <trkpt lat="43.41573" lon="6.06974">
        <ele>220.39999389648</ele>
        <time>2016-04-20T15:10:16Z</time>
      </trkpt>
      <trkpt lat="43.41573" lon="6.06974">
        <ele>220.60000610352</ele>
        <time>2016-04-20T15:10:18Z</time>
      </trkpt>
      <trkpt lat="43.41573" lon="6.06974">
        <ele>220.60000610352</ele>
        <time>2016-04-20T15:10:20Z</time>
      </trkpt>
      <trkpt lat="43.41573" lon="6.06974">
        <ele>220.19999694824</ele>
        <time>2016-04-20T15:10:22Z</time>
      </trkpt>
      <trkpt lat="43.41573" lon="6.06974">
        <ele>220.19999694824</ele>
        <time>2016-04-20T15:10:24Z</time>
      </trkpt>
      <trkpt lat="43.41573" lon="6.06974">
        <ele>220.19999694824</ele>
        <time>2016-04-20T15:10:26Z</time>
      </trkpt>
      <trkpt lat="43.41573" lon="6.06974">
        <ele>220.19999694824</ele>
        <time>2016-04-20T15:10:28Z</time>
      </trkpt>
      <trkpt lat="43.41573" lon="6.06974">
        <ele>220</ele>
        <time>2016-04-20T15:10:30Z</time>
      </trkpt>
      <trkpt lat="43.41573" lon="6.06974">
        <ele>220.19999694824</ele>
        <time>2016-04-20T15:10:32Z</time>
      </trkpt>
      <trkpt lat="43.41573" lon="6.06974">
        <ele>220.39999389648</ele>
        <time>2016-04-20T15:10:34Z</time>
      </trkpt>
      <trkpt lat="43.41573" lon="6.06976">
        <ele>220.60000610352</ele>
        <time>2016-04-20T15:10:36Z</time>
      </trkpt>
      <trkpt lat="43.41573" lon="6.0698">
        <ele>220.60000610352</ele>
        <time>2016-04-20T15:10:38Z</time>
      </trkpt>
      <trkpt lat="43.41574" lon="6.06987">
        <ele>220.60000610352</ele>
        <time>2016-04-20T15:10:40Z</time>
      </trkpt>
      <trkpt lat="43.41574" lon="6.06996">
        <ele>220.39999389648</ele>
        <time>2016-04-20T15:10:42Z</time>
      </trkpt>
      <trkpt lat="43.41575" lon="6.07005">
        <ele>220.60000610352</ele>
        <time>2016-04-20T15:10:44Z</time>
      </trkpt>
      <trkpt lat="43.41575" lon="6.07012">
        <ele>220.60000610352</ele>
        <time>2016-04-20T15:10:46Z</time>
      </trkpt>
      <trkpt lat="43.41576" lon="6.07016">
        <ele>220.60000610352</ele>
        <time>2016-04-20T15:10:48Z</time>
      </trkpt>
      <trkpt lat="43.41576" lon="6.0702">
        <ele>220.60000610352</ele>
        <time>2016-04-20T15:10:50Z</time>
      </trkpt>
      <trkpt lat="43.41577" lon="6.07022">
        <ele>220.80000305176</ele>
        <time>2016-04-20T15:10:51Z</time>
      </trkpt>
      <trkpt lat="43.41578" lon="6.07025">
        <ele>220.80000305176</ele>
        <time>2016-04-20T15:10:52Z</time>
      </trkpt>
      <trkpt lat="43.41578" lon="6.07031">
        <ele>221</ele>
        <time>2016-04-20T15:10:54Z</time>
      </trkpt>
      <trkpt lat="43.41579" lon="6.07036">
        <ele>221.19999694824</ele>
        <time>2016-04-20T15:10:56Z</time>
      </trkpt>
      <trkpt lat="43.41579" lon="6.07038">
        <ele>221.19999694824</ele>
        <time>2016-04-20T15:10:58Z</time>
      </trkpt>
      <trkpt lat="43.41579" lon="6.07038">
        <ele>221.19999694824</ele>
        <time>2016-04-20T15:11:00Z</time>
      </trkpt>
      <trkpt lat="43.41579" lon="6.07038">
        <ele>221.19999694824</ele>
        <time>2016-04-20T15:11:02Z</time>
      </trkpt>
      <trkpt lat="43.41579" lon="6.07038">
        <ele>221.19999694824</ele>
        <time>2016-04-20T15:11:04Z</time>
      </trkpt>
      <trkpt lat="43.41579" lon="6.07038">
        <ele>221.19999694824</ele>
        <time>2016-04-20T15:11:06Z</time>
      </trkpt>
      <trkpt lat="43.41579" lon="6.07038">
        <ele>221</ele>
        <time>2016-04-20T15:11:08Z</time>
      </trkpt>
      <trkpt lat="43.41579" lon="6.07038">
        <ele>221</ele>
        <time>2016-04-20T15:11:10Z</time>
      </trkpt>
      <trkpt lat="43.41579" lon="6.07038">
        <ele>221</ele>
        <time>2016-04-20T15:11:12Z</time>
      </trkpt>
      <trkpt lat="43.41579" lon="6.07038">
        <ele>220.80000305176</ele>
        <time>2016-04-20T15:11:14Z</time>
      </trkpt>
      <trkpt lat="43.41579" lon="6.07038">
        <ele>220.80000305176</ele>
        <time>2016-04-20T15:11:16Z</time>
      </trkpt>
      <trkpt lat="43.41579" lon="6.07038">
        <ele>221</ele>
        <time>2016-04-20T15:11:18Z</time>
      </trkpt>
      <trkpt lat="43.41579" lon="6.07038">
        <ele>221</ele>
        <time>2016-04-20T15:11:19Z</time>
      </trkpt>
      <trkpt lat="43.41579" lon="6.07038">
        <ele>221</ele>
        <time>2016-04-20T15:11:20Z</time>
      </trkpt>
      <trkpt lat="43.41579" lon="6.07038">
        <ele>221.19999694824</ele>
        <time>2016-04-20T15:11:21Z</time>
      </trkpt>
      <trkpt lat="43.41579" lon="6.07038">
        <ele>221.19999694824</ele>
        <time>2016-04-20T15:11:22Z</time>
      </trkpt>
      <trkpt lat="43.41579" lon="6.07038">
        <ele>221.19999694824</ele>
        <time>2016-04-20T15:11:24Z</time>
      </trkpt>
      <trkpt lat="43.41579" lon="6.07038">
        <ele>221.19999694824</ele>
        <time>2016-04-20T15:11:26Z</time>
      </trkpt>
      <trkpt lat="43.41579" lon="6.07038">
        <ele>221.19999694824</ele>
        <time>2016-04-20T15:11:28Z</time>
      </trkpt>
      <trkpt lat="43.41579" lon="6.07038">
        <ele>220.80000305176</ele>
        <time>2016-04-20T15:11:30Z</time>
      </trkpt>
      <trkpt lat="43.41579" lon="6.07038">
        <ele>220.80000305176</ele>
        <time>2016-04-20T15:11:32Z</time>
      </trkpt>
      <trkpt lat="43.41579" lon="6.07038">
        <ele>220.80000305176</ele>
        <time>2016-04-20T15:11:34Z</time>
      </trkpt>
      <trkpt lat="43.41579" lon="6.07038">
        <ele>220.80000305176</ele>
        <time>2016-04-20T15:11:36Z</time>
      </trkpt>
      <trkpt lat="43.41579" lon="6.07038">
        <ele>220.60000610352</ele>
        <time>2016-04-20T15:11:38Z</time>
      </trkpt>
    </trkseg>
  </trk>
</gpx>